<?xml version="1.0" encoding="UTF-8" standalone="no" ?>
<gpx xmlns="http://www.topografix.com/GPX/1/1" xmlns:xsi="http://www.w3.org/2001/XMLSchema-instance" xsi:schemaLocation="http://www.topografix.com/GPX/1/1 http://www.topografix.com/GPX/1/1/gpx.xsd" version="1.1" creator="VisuGPX - https://www.visugpx.com">
  <metadata>
    <name>VTT chateau boucle1</name>
  </metadata>
  <trk>
    <name><![CDATA[Sortie Avec Uspi]]></name>
    <extensions>
      <line xmlns="http://www.topografix.com/GPX/gpx_style/0/2">
        <color>0000FF</color>
        <width>4</width>
      </line>
    </extensions>
    <trkseg>
      <trkpt lat="45.53487" lon="3.29817">
        <ele>423</ele>
        <time>2012-10-21T06:32:45.000Z</time>
      </trkpt>
      <trkpt lat="45.53488" lon="3.29827">
        <ele>424</ele>
        <time>2012-10-21T06:32:46.000Z</time>
      </trkpt>
      <trkpt lat="45.53489" lon="3.29836">
        <ele>425</ele>
        <time>2012-10-21T06:32:47.000Z</time>
      </trkpt>
      <trkpt lat="45.53491" lon="3.29845">
        <ele>425</ele>
        <time>2012-10-21T06:32:48.000Z</time>
      </trkpt>
      <trkpt lat="45.53492" lon="3.29854">
        <ele>425</ele>
        <time>2012-10-21T06:32:49.000Z</time>
      </trkpt>
      <trkpt lat="45.53493" lon="3.29862">
        <ele>425</ele>
        <time>2012-10-21T06:32:50.000Z</time>
      </trkpt>
      <trkpt lat="45.53494" lon="3.29871">
        <ele>425</ele>
        <time>2012-10-21T06:32:51.000Z</time>
      </trkpt>
      <trkpt lat="45.53494" lon="3.29879">
        <ele>425</ele>
        <time>2012-10-21T06:32:52.000Z</time>
      </trkpt>
      <trkpt lat="45.53495" lon="3.29887">
        <ele>425</ele>
        <time>2012-10-21T06:32:53.000Z</time>
      </trkpt>
      <trkpt lat="45.53496" lon="3.29895">
        <ele>425</ele>
        <time>2012-10-21T06:32:54.000Z</time>
      </trkpt>
      <trkpt lat="45.53497" lon="3.29903">
        <ele>426</ele>
        <time>2012-10-21T06:32:55.000Z</time>
      </trkpt>
      <trkpt lat="45.53497" lon="3.2991">
        <ele>425</ele>
        <time>2012-10-21T06:32:56.000Z</time>
      </trkpt>
      <trkpt lat="45.53498" lon="3.29918">
        <ele>425</ele>
        <time>2012-10-21T06:32:57.000Z</time>
      </trkpt>
      <trkpt lat="45.53499" lon="3.29925">
        <ele>425</ele>
        <time>2012-10-21T06:32:58.000Z</time>
      </trkpt>
      <trkpt lat="45.53499" lon="3.29932">
        <ele>425</ele>
        <time>2012-10-21T06:32:59.000Z</time>
      </trkpt>
      <trkpt lat="45.535" lon="3.29938">
        <ele>425</ele>
        <time>2012-10-21T06:33:00.000Z</time>
      </trkpt>
      <trkpt lat="45.53501" lon="3.29944">
        <ele>425</ele>
        <time>2012-10-21T06:33:01.000Z</time>
      </trkpt>
      <trkpt lat="45.53502" lon="3.29949">
        <ele>425</ele>
        <time>2012-10-21T06:33:02.000Z</time>
      </trkpt>
      <trkpt lat="45.53502" lon="3.29954">
        <ele>425</ele>
        <time>2012-10-21T06:33:03.000Z</time>
      </trkpt>
      <trkpt lat="45.53503" lon="3.29958">
        <ele>425</ele>
        <time>2012-10-21T06:33:04.000Z</time>
      </trkpt>
      <trkpt lat="45.53503" lon="3.29961">
        <ele>424</ele>
        <time>2012-10-21T06:33:05.000Z</time>
      </trkpt>
      <trkpt lat="45.53504" lon="3.29964">
        <ele>425</ele>
        <time>2012-10-21T06:33:06.000Z</time>
      </trkpt>
      <trkpt lat="45.53505" lon="3.29968">
        <ele>426</ele>
        <time>2012-10-21T06:33:12.000Z</time>
      </trkpt>
      <trkpt lat="45.53507" lon="3.29971">
        <ele>425</ele>
        <time>2012-10-21T06:33:13.000Z</time>
      </trkpt>
      <trkpt lat="45.53504" lon="3.29975">
        <ele>425</ele>
        <time>2012-10-21T06:34:08.000Z</time>
      </trkpt>
      <trkpt lat="45.53504" lon="3.29977">
        <ele>425</ele>
        <time>2012-10-21T06:34:09.000Z</time>
      </trkpt>
      <trkpt lat="45.53506" lon="3.29983">
        <ele>426</ele>
        <time>2012-10-21T06:34:11.000Z</time>
      </trkpt>
      <trkpt lat="45.53506" lon="3.29986">
        <ele>425</ele>
        <time>2012-10-21T06:34:12.000Z</time>
      </trkpt>
      <trkpt lat="45.53506" lon="3.29989">
        <ele>425</ele>
        <time>2012-10-21T06:34:13.000Z</time>
      </trkpt>
      <trkpt lat="45.53506" lon="3.29994">
        <ele>426</ele>
        <time>2012-10-21T06:34:14.000Z</time>
      </trkpt>
      <trkpt lat="45.53505" lon="3.29998">
        <ele>426</ele>
        <time>2012-10-21T06:34:15.000Z</time>
      </trkpt>
      <trkpt lat="45.53505" lon="3.30003">
        <ele>425</ele>
        <time>2012-10-21T06:34:16.000Z</time>
      </trkpt>
      <trkpt lat="45.53506" lon="3.3001">
        <ele>426</ele>
        <time>2012-10-21T06:34:17.000Z</time>
      </trkpt>
      <trkpt lat="45.53506" lon="3.30017">
        <ele>425</ele>
        <time>2012-10-21T06:34:18.000Z</time>
      </trkpt>
      <trkpt lat="45.53507" lon="3.30025">
        <ele>427</ele>
        <time>2012-10-21T06:34:19.000Z</time>
      </trkpt>
      <trkpt lat="45.53508" lon="3.30033">
        <ele>428</ele>
        <time>2012-10-21T06:34:20.000Z</time>
      </trkpt>
      <trkpt lat="45.53509" lon="3.3004">
        <ele>427</ele>
        <time>2012-10-21T06:34:21.000Z</time>
      </trkpt>
      <trkpt lat="45.5351" lon="3.30048">
        <ele>427</ele>
        <time>2012-10-21T06:34:22.000Z</time>
      </trkpt>
      <trkpt lat="45.5351" lon="3.30055">
        <ele>428</ele>
        <time>2012-10-21T06:34:23.000Z</time>
      </trkpt>
      <trkpt lat="45.53511" lon="3.30062">
        <ele>428</ele>
        <time>2012-10-21T06:34:24.000Z</time>
      </trkpt>
      <trkpt lat="45.53512" lon="3.3007">
        <ele>428</ele>
        <time>2012-10-21T06:34:25.000Z</time>
      </trkpt>
      <trkpt lat="45.53512" lon="3.30077">
        <ele>428</ele>
        <time>2012-10-21T06:34:26.000Z</time>
      </trkpt>
      <trkpt lat="45.53513" lon="3.30085">
        <ele>428</ele>
        <time>2012-10-21T06:34:27.000Z</time>
      </trkpt>
      <trkpt lat="45.53514" lon="3.30093">
        <ele>429</ele>
        <time>2012-10-21T06:34:28.000Z</time>
      </trkpt>
      <trkpt lat="45.53515" lon="3.30101">
        <ele>428</ele>
        <time>2012-10-21T06:34:29.000Z</time>
      </trkpt>
      <trkpt lat="45.53516" lon="3.30109">
        <ele>429</ele>
        <time>2012-10-21T06:34:30.000Z</time>
      </trkpt>
      <trkpt lat="45.53517" lon="3.30116">
        <ele>429</ele>
        <time>2012-10-21T06:34:31.000Z</time>
      </trkpt>
      <trkpt lat="45.53518" lon="3.30124">
        <ele>429</ele>
        <time>2012-10-21T06:34:32.000Z</time>
      </trkpt>
      <trkpt lat="45.53519" lon="3.30131">
        <ele>430</ele>
        <time>2012-10-21T06:34:33.000Z</time>
      </trkpt>
      <trkpt lat="45.5352" lon="3.30137">
        <ele>430</ele>
        <time>2012-10-21T06:34:34.000Z</time>
      </trkpt>
      <trkpt lat="45.53521" lon="3.30144">
        <ele>430</ele>
        <time>2012-10-21T06:34:35.000Z</time>
      </trkpt>
      <trkpt lat="45.53522" lon="3.3015">
        <ele>430</ele>
        <time>2012-10-21T06:34:36.000Z</time>
      </trkpt>
      <trkpt lat="45.53522" lon="3.30156">
        <ele>430</ele>
        <time>2012-10-21T06:34:37.000Z</time>
      </trkpt>
      <trkpt lat="45.53524" lon="3.30168">
        <ele>431</ele>
        <time>2012-10-21T06:34:39.000Z</time>
      </trkpt>
      <trkpt lat="45.53525" lon="3.30174">
        <ele>431</ele>
        <time>2012-10-21T06:34:40.000Z</time>
      </trkpt>
      <trkpt lat="45.53525" lon="3.30179">
        <ele>431</ele>
        <time>2012-10-21T06:34:41.000Z</time>
      </trkpt>
      <trkpt lat="45.53526" lon="3.30185">
        <ele>431</ele>
        <time>2012-10-21T06:34:42.000Z</time>
      </trkpt>
      <trkpt lat="45.53527" lon="3.30191">
        <ele>431</ele>
        <time>2012-10-21T06:34:43.000Z</time>
      </trkpt>
      <trkpt lat="45.53528" lon="3.30196">
        <ele>431</ele>
        <time>2012-10-21T06:34:44.000Z</time>
      </trkpt>
      <trkpt lat="45.53528" lon="3.30202">
        <ele>431</ele>
        <time>2012-10-21T06:34:45.000Z</time>
      </trkpt>
      <trkpt lat="45.53529" lon="3.30208">
        <ele>431</ele>
        <time>2012-10-21T06:34:46.000Z</time>
      </trkpt>
      <trkpt lat="45.5353" lon="3.30213">
        <ele>431</ele>
        <time>2012-10-21T06:34:47.000Z</time>
      </trkpt>
      <trkpt lat="45.5353" lon="3.30219">
        <ele>431</ele>
        <time>2012-10-21T06:34:48.000Z</time>
      </trkpt>
      <trkpt lat="45.53531" lon="3.30225">
        <ele>431</ele>
        <time>2012-10-21T06:34:49.000Z</time>
      </trkpt>
      <trkpt lat="45.53531" lon="3.30231">
        <ele>431</ele>
        <time>2012-10-21T06:34:50.000Z</time>
      </trkpt>
      <trkpt lat="45.53532" lon="3.30236">
        <ele>431</ele>
        <time>2012-10-21T06:34:51.000Z</time>
      </trkpt>
      <trkpt lat="45.53532" lon="3.30242">
        <ele>431</ele>
        <time>2012-10-21T06:34:52.000Z</time>
      </trkpt>
      <trkpt lat="45.53533" lon="3.30248">
        <ele>431</ele>
        <time>2012-10-21T06:34:53.000Z</time>
      </trkpt>
      <trkpt lat="45.53534" lon="3.30254">
        <ele>430</ele>
        <time>2012-10-21T06:34:54.000Z</time>
      </trkpt>
      <trkpt lat="45.53534" lon="3.3026">
        <ele>430</ele>
        <time>2012-10-21T06:34:55.000Z</time>
      </trkpt>
      <trkpt lat="45.53535" lon="3.30267">
        <ele>430</ele>
        <time>2012-10-21T06:34:56.000Z</time>
      </trkpt>
      <trkpt lat="45.53536" lon="3.30273">
        <ele>430</ele>
        <time>2012-10-21T06:34:57.000Z</time>
      </trkpt>
      <trkpt lat="45.53537" lon="3.3028">
        <ele>430</ele>
        <time>2012-10-21T06:34:58.000Z</time>
      </trkpt>
      <trkpt lat="45.53538" lon="3.30286">
        <ele>430</ele>
        <time>2012-10-21T06:34:59.000Z</time>
      </trkpt>
      <trkpt lat="45.53539" lon="3.30293">
        <ele>430</ele>
        <time>2012-10-21T06:35:00.000Z</time>
      </trkpt>
      <trkpt lat="45.5354" lon="3.30299">
        <ele>430</ele>
        <time>2012-10-21T06:35:01.000Z</time>
      </trkpt>
      <trkpt lat="45.53541" lon="3.30306">
        <ele>430</ele>
        <time>2012-10-21T06:35:02.000Z</time>
      </trkpt>
      <trkpt lat="45.53542" lon="3.30312">
        <ele>430</ele>
        <time>2012-10-21T06:35:03.000Z</time>
      </trkpt>
      <trkpt lat="45.53544" lon="3.30319">
        <ele>430</ele>
        <time>2012-10-21T06:35:04.000Z</time>
      </trkpt>
      <trkpt lat="45.53545" lon="3.30325">
        <ele>430</ele>
        <time>2012-10-21T06:35:05.000Z</time>
      </trkpt>
      <trkpt lat="45.53546" lon="3.30332">
        <ele>430</ele>
        <time>2012-10-21T06:35:06.000Z</time>
      </trkpt>
      <trkpt lat="45.53547" lon="3.30338">
        <ele>430</ele>
        <time>2012-10-21T06:35:07.000Z</time>
      </trkpt>
      <trkpt lat="45.53548" lon="3.30344">
        <ele>430</ele>
        <time>2012-10-21T06:35:08.000Z</time>
      </trkpt>
      <trkpt lat="45.5355" lon="3.30351">
        <ele>430</ele>
        <time>2012-10-21T06:35:09.000Z</time>
      </trkpt>
      <trkpt lat="45.53551" lon="3.30357">
        <ele>430</ele>
        <time>2012-10-21T06:35:10.000Z</time>
      </trkpt>
      <trkpt lat="45.53552" lon="3.30364">
        <ele>430</ele>
        <time>2012-10-21T06:35:11.000Z</time>
      </trkpt>
      <trkpt lat="45.53553" lon="3.3037">
        <ele>430</ele>
        <time>2012-10-21T06:35:12.000Z</time>
      </trkpt>
      <trkpt lat="45.53554" lon="3.30376">
        <ele>431</ele>
        <time>2012-10-21T06:35:13.000Z</time>
      </trkpt>
      <trkpt lat="45.53555" lon="3.30382">
        <ele>431</ele>
        <time>2012-10-21T06:35:14.000Z</time>
      </trkpt>
      <trkpt lat="45.53556" lon="3.30389">
        <ele>431</ele>
        <time>2012-10-21T06:35:15.000Z</time>
      </trkpt>
      <trkpt lat="45.53558" lon="3.30395">
        <ele>433</ele>
        <time>2012-10-21T06:35:16.000Z</time>
      </trkpt>
      <trkpt lat="45.53559" lon="3.30402">
        <ele>434</ele>
        <time>2012-10-21T06:35:17.000Z</time>
      </trkpt>
      <trkpt lat="45.53559" lon="3.30408">
        <ele>435</ele>
        <time>2012-10-21T06:35:18.000Z</time>
      </trkpt>
      <trkpt lat="45.5356" lon="3.30414">
        <ele>435</ele>
        <time>2012-10-21T06:35:19.000Z</time>
      </trkpt>
      <trkpt lat="45.53561" lon="3.3042">
        <ele>435</ele>
        <time>2012-10-21T06:35:20.000Z</time>
      </trkpt>
      <trkpt lat="45.53562" lon="3.30426">
        <ele>435</ele>
        <time>2012-10-21T06:35:21.000Z</time>
      </trkpt>
      <trkpt lat="45.53563" lon="3.30432">
        <ele>434</ele>
        <time>2012-10-21T06:35:22.000Z</time>
      </trkpt>
      <trkpt lat="45.53564" lon="3.30438">
        <ele>434</ele>
        <time>2012-10-21T06:35:23.000Z</time>
      </trkpt>
      <trkpt lat="45.53565" lon="3.30444">
        <ele>434</ele>
        <time>2012-10-21T06:35:24.000Z</time>
      </trkpt>
      <trkpt lat="45.53566" lon="3.3045">
        <ele>434</ele>
        <time>2012-10-21T06:35:25.000Z</time>
      </trkpt>
      <trkpt lat="45.53567" lon="3.30456">
        <ele>434</ele>
        <time>2012-10-21T06:35:26.000Z</time>
      </trkpt>
      <trkpt lat="45.53568" lon="3.30462">
        <ele>434</ele>
        <time>2012-10-21T06:35:27.000Z</time>
      </trkpt>
      <trkpt lat="45.53569" lon="3.30468">
        <ele>434</ele>
        <time>2012-10-21T06:35:28.000Z</time>
      </trkpt>
      <trkpt lat="45.5357" lon="3.30474">
        <ele>434</ele>
        <time>2012-10-21T06:35:29.000Z</time>
      </trkpt>
      <trkpt lat="45.53571" lon="3.30481">
        <ele>434</ele>
        <time>2012-10-21T06:35:30.000Z</time>
      </trkpt>
      <trkpt lat="45.53573" lon="3.30487">
        <ele>434</ele>
        <time>2012-10-21T06:35:31.000Z</time>
      </trkpt>
      <trkpt lat="45.53574" lon="3.30494">
        <ele>433</ele>
        <time>2012-10-21T06:35:32.000Z</time>
      </trkpt>
      <trkpt lat="45.53576" lon="3.30501">
        <ele>433</ele>
        <time>2012-10-21T06:35:33.000Z</time>
      </trkpt>
      <trkpt lat="45.53577" lon="3.30508">
        <ele>433</ele>
        <time>2012-10-21T06:35:34.000Z</time>
      </trkpt>
      <trkpt lat="45.53579" lon="3.30516">
        <ele>433</ele>
        <time>2012-10-21T06:35:35.000Z</time>
      </trkpt>
      <trkpt lat="45.5358" lon="3.30523">
        <ele>433</ele>
        <time>2012-10-21T06:35:36.000Z</time>
      </trkpt>
      <trkpt lat="45.53581" lon="3.3053">
        <ele>433</ele>
        <time>2012-10-21T06:35:37.000Z</time>
      </trkpt>
      <trkpt lat="45.53583" lon="3.30544">
        <ele>433</ele>
        <time>2012-10-21T06:35:39.000Z</time>
      </trkpt>
      <trkpt lat="45.53584" lon="3.3055">
        <ele>433</ele>
        <time>2012-10-21T06:35:40.000Z</time>
      </trkpt>
      <trkpt lat="45.53585" lon="3.30557">
        <ele>433</ele>
        <time>2012-10-21T06:35:41.000Z</time>
      </trkpt>
      <trkpt lat="45.53586" lon="3.30563">
        <ele>433</ele>
        <time>2012-10-21T06:35:42.000Z</time>
      </trkpt>
      <trkpt lat="45.53587" lon="3.3057">
        <ele>433</ele>
        <time>2012-10-21T06:35:43.000Z</time>
      </trkpt>
      <trkpt lat="45.53588" lon="3.30576">
        <ele>433</ele>
        <time>2012-10-21T06:35:44.000Z</time>
      </trkpt>
      <trkpt lat="45.5359" lon="3.30583">
        <ele>433</ele>
        <time>2012-10-21T06:35:45.000Z</time>
      </trkpt>
      <trkpt lat="45.53592" lon="3.30589">
        <ele>433</ele>
        <time>2012-10-21T06:35:46.000Z</time>
      </trkpt>
      <trkpt lat="45.53594" lon="3.30596">
        <ele>432</ele>
        <time>2012-10-21T06:35:47.000Z</time>
      </trkpt>
      <trkpt lat="45.53596" lon="3.30602">
        <ele>432</ele>
        <time>2012-10-21T06:35:48.000Z</time>
      </trkpt>
      <trkpt lat="45.53598" lon="3.30609">
        <ele>432</ele>
        <time>2012-10-21T06:35:49.000Z</time>
      </trkpt>
      <trkpt lat="45.53601" lon="3.30616">
        <ele>432</ele>
        <time>2012-10-21T06:35:50.000Z</time>
      </trkpt>
      <trkpt lat="45.53603" lon="3.30622">
        <ele>432</ele>
        <time>2012-10-21T06:35:51.000Z</time>
      </trkpt>
      <trkpt lat="45.53605" lon="3.30629">
        <ele>431</ele>
        <time>2012-10-21T06:35:52.000Z</time>
      </trkpt>
      <trkpt lat="45.53608" lon="3.30636">
        <ele>431</ele>
        <time>2012-10-21T06:35:53.000Z</time>
      </trkpt>
      <trkpt lat="45.5361" lon="3.30642">
        <ele>431</ele>
        <time>2012-10-21T06:35:54.000Z</time>
      </trkpt>
      <trkpt lat="45.53612" lon="3.30649">
        <ele>431</ele>
        <time>2012-10-21T06:35:55.000Z</time>
      </trkpt>
      <trkpt lat="45.53615" lon="3.30656">
        <ele>431</ele>
        <time>2012-10-21T06:35:56.000Z</time>
      </trkpt>
      <trkpt lat="45.53617" lon="3.30662">
        <ele>431</ele>
        <time>2012-10-21T06:35:57.000Z</time>
      </trkpt>
      <trkpt lat="45.53619" lon="3.30669">
        <ele>431</ele>
        <time>2012-10-21T06:35:58.000Z</time>
      </trkpt>
      <trkpt lat="45.53621" lon="3.30676">
        <ele>430</ele>
        <time>2012-10-21T06:35:59.000Z</time>
      </trkpt>
      <trkpt lat="45.53623" lon="3.30682">
        <ele>431</ele>
        <time>2012-10-21T06:36:00.000Z</time>
      </trkpt>
      <trkpt lat="45.53626" lon="3.30689">
        <ele>431</ele>
        <time>2012-10-21T06:36:01.000Z</time>
      </trkpt>
      <trkpt lat="45.53628" lon="3.30696">
        <ele>431</ele>
        <time>2012-10-21T06:36:02.000Z</time>
      </trkpt>
      <trkpt lat="45.53631" lon="3.30702">
        <ele>432</ele>
        <time>2012-10-21T06:36:03.000Z</time>
      </trkpt>
      <trkpt lat="45.53634" lon="3.30708">
        <ele>432</ele>
        <time>2012-10-21T06:36:04.000Z</time>
      </trkpt>
      <trkpt lat="45.53636" lon="3.30714">
        <ele>432</ele>
        <time>2012-10-21T06:36:05.000Z</time>
      </trkpt>
      <trkpt lat="45.53639" lon="3.3072">
        <ele>432</ele>
        <time>2012-10-21T06:36:06.000Z</time>
      </trkpt>
      <trkpt lat="45.53642" lon="3.30726">
        <ele>433</ele>
        <time>2012-10-21T06:36:07.000Z</time>
      </trkpt>
      <trkpt lat="45.53644" lon="3.30731">
        <ele>433</ele>
        <time>2012-10-21T06:36:08.000Z</time>
      </trkpt>
      <trkpt lat="45.53647" lon="3.30738">
        <ele>434</ele>
        <time>2012-10-21T06:36:09.000Z</time>
      </trkpt>
      <trkpt lat="45.5365" lon="3.30744">
        <ele>434</ele>
        <time>2012-10-21T06:36:10.000Z</time>
      </trkpt>
      <trkpt lat="45.53652" lon="3.3075">
        <ele>433</ele>
        <time>2012-10-21T06:36:11.000Z</time>
      </trkpt>
      <trkpt lat="45.53655" lon="3.30756">
        <ele>435</ele>
        <time>2012-10-21T06:36:12.000Z</time>
      </trkpt>
      <trkpt lat="45.53657" lon="3.30762">
        <ele>435</ele>
        <time>2012-10-21T06:36:13.000Z</time>
      </trkpt>
      <trkpt lat="45.5366" lon="3.30768">
        <ele>434</ele>
        <time>2012-10-21T06:36:14.000Z</time>
      </trkpt>
      <trkpt lat="45.53663" lon="3.30774">
        <ele>433</ele>
        <time>2012-10-21T06:36:15.000Z</time>
      </trkpt>
      <trkpt lat="45.53665" lon="3.30781">
        <ele>433</ele>
        <time>2012-10-21T06:36:16.000Z</time>
      </trkpt>
      <trkpt lat="45.53668" lon="3.30787">
        <ele>433</ele>
        <time>2012-10-21T06:36:17.000Z</time>
      </trkpt>
      <trkpt lat="45.53671" lon="3.30793">
        <ele>433</ele>
        <time>2012-10-21T06:36:18.000Z</time>
      </trkpt>
      <trkpt lat="45.53673" lon="3.30799">
        <ele>433</ele>
        <time>2012-10-21T06:36:19.000Z</time>
      </trkpt>
      <trkpt lat="45.53676" lon="3.30806">
        <ele>434</ele>
        <time>2012-10-21T06:36:20.000Z</time>
      </trkpt>
      <trkpt lat="45.53679" lon="3.30812">
        <ele>434</ele>
        <time>2012-10-21T06:36:21.000Z</time>
      </trkpt>
      <trkpt lat="45.53681" lon="3.30818">
        <ele>434</ele>
        <time>2012-10-21T06:36:22.000Z</time>
      </trkpt>
      <trkpt lat="45.53684" lon="3.30825">
        <ele>434</ele>
        <time>2012-10-21T06:36:23.000Z</time>
      </trkpt>
      <trkpt lat="45.53687" lon="3.3083">
        <ele>434</ele>
        <time>2012-10-21T06:36:24.000Z</time>
      </trkpt>
      <trkpt lat="45.53689" lon="3.30836">
        <ele>433</ele>
        <time>2012-10-21T06:36:25.000Z</time>
      </trkpt>
      <trkpt lat="45.53692" lon="3.30841">
        <ele>433</ele>
        <time>2012-10-21T06:36:26.000Z</time>
      </trkpt>
      <trkpt lat="45.53695" lon="3.30846">
        <ele>433</ele>
        <time>2012-10-21T06:36:27.000Z</time>
      </trkpt>
      <trkpt lat="45.53697" lon="3.30851">
        <ele>433</ele>
        <time>2012-10-21T06:36:28.000Z</time>
      </trkpt>
      <trkpt lat="45.537" lon="3.30856">
        <ele>433</ele>
        <time>2012-10-21T06:36:29.000Z</time>
      </trkpt>
      <trkpt lat="45.53703" lon="3.30861">
        <ele>433</ele>
        <time>2012-10-21T06:36:30.000Z</time>
      </trkpt>
      <trkpt lat="45.53707" lon="3.30867">
        <ele>432</ele>
        <time>2012-10-21T06:36:31.000Z</time>
      </trkpt>
      <trkpt lat="45.5371" lon="3.30873">
        <ele>433</ele>
        <time>2012-10-21T06:36:32.000Z</time>
      </trkpt>
      <trkpt lat="45.53713" lon="3.30878">
        <ele>433</ele>
        <time>2012-10-21T06:36:33.000Z</time>
      </trkpt>
      <trkpt lat="45.53716" lon="3.30884">
        <ele>433</ele>
        <time>2012-10-21T06:36:34.000Z</time>
      </trkpt>
      <trkpt lat="45.53719" lon="3.3089">
        <ele>433</ele>
        <time>2012-10-21T06:36:35.000Z</time>
      </trkpt>
      <trkpt lat="45.53723" lon="3.30895">
        <ele>433</ele>
        <time>2012-10-21T06:36:36.000Z</time>
      </trkpt>
      <trkpt lat="45.53726" lon="3.309">
        <ele>433</ele>
        <time>2012-10-21T06:36:37.000Z</time>
      </trkpt>
      <trkpt lat="45.53734" lon="3.30911">
        <ele>433</ele>
        <time>2012-10-21T06:36:39.000Z</time>
      </trkpt>
      <trkpt lat="45.53738" lon="3.30916">
        <ele>432</ele>
        <time>2012-10-21T06:36:40.000Z</time>
      </trkpt>
      <trkpt lat="45.53742" lon="3.30921">
        <ele>432</ele>
        <time>2012-10-21T06:36:41.000Z</time>
      </trkpt>
      <trkpt lat="45.53746" lon="3.30926">
        <ele>432</ele>
        <time>2012-10-21T06:36:42.000Z</time>
      </trkpt>
      <trkpt lat="45.53749" lon="3.30931">
        <ele>432</ele>
        <time>2012-10-21T06:36:43.000Z</time>
      </trkpt>
      <trkpt lat="45.53753" lon="3.30936">
        <ele>433</ele>
        <time>2012-10-21T06:36:44.000Z</time>
      </trkpt>
      <trkpt lat="45.53757" lon="3.30941">
        <ele>434</ele>
        <time>2012-10-21T06:36:45.000Z</time>
      </trkpt>
      <trkpt lat="45.5376" lon="3.30946">
        <ele>434</ele>
        <time>2012-10-21T06:36:46.000Z</time>
      </trkpt>
      <trkpt lat="45.53764" lon="3.30951">
        <ele>434</ele>
        <time>2012-10-21T06:36:47.000Z</time>
      </trkpt>
      <trkpt lat="45.53768" lon="3.30955">
        <ele>434</ele>
        <time>2012-10-21T06:36:48.000Z</time>
      </trkpt>
      <trkpt lat="45.53772" lon="3.3096">
        <ele>434</ele>
        <time>2012-10-21T06:36:49.000Z</time>
      </trkpt>
      <trkpt lat="45.53775" lon="3.30965">
        <ele>433</ele>
        <time>2012-10-21T06:36:50.000Z</time>
      </trkpt>
      <trkpt lat="45.53779" lon="3.3097">
        <ele>434</ele>
        <time>2012-10-21T06:36:51.000Z</time>
      </trkpt>
      <trkpt lat="45.53783" lon="3.30975">
        <ele>434</ele>
        <time>2012-10-21T06:36:52.000Z</time>
      </trkpt>
      <trkpt lat="45.53787" lon="3.30981">
        <ele>434</ele>
        <time>2012-10-21T06:36:53.000Z</time>
      </trkpt>
      <trkpt lat="45.53791" lon="3.30986">
        <ele>434</ele>
        <time>2012-10-21T06:36:54.000Z</time>
      </trkpt>
      <trkpt lat="45.53795" lon="3.30991">
        <ele>434</ele>
        <time>2012-10-21T06:36:55.000Z</time>
      </trkpt>
      <trkpt lat="45.53798" lon="3.30996">
        <ele>434</ele>
        <time>2012-10-21T06:36:56.000Z</time>
      </trkpt>
      <trkpt lat="45.53802" lon="3.31001">
        <ele>434</ele>
        <time>2012-10-21T06:36:57.000Z</time>
      </trkpt>
      <trkpt lat="45.53806" lon="3.31006">
        <ele>433</ele>
        <time>2012-10-21T06:36:58.000Z</time>
      </trkpt>
      <trkpt lat="45.5381" lon="3.31011">
        <ele>434</ele>
        <time>2012-10-21T06:36:59.000Z</time>
      </trkpt>
      <trkpt lat="45.53813" lon="3.31016">
        <ele>434</ele>
        <time>2012-10-21T06:37:00.000Z</time>
      </trkpt>
      <trkpt lat="45.53817" lon="3.31021">
        <ele>434</ele>
        <time>2012-10-21T06:37:01.000Z</time>
      </trkpt>
      <trkpt lat="45.53821" lon="3.31026">
        <ele>434</ele>
        <time>2012-10-21T06:37:02.000Z</time>
      </trkpt>
      <trkpt lat="45.53825" lon="3.31031">
        <ele>434</ele>
        <time>2012-10-21T06:37:03.000Z</time>
      </trkpt>
      <trkpt lat="45.53829" lon="3.31035">
        <ele>434</ele>
        <time>2012-10-21T06:37:04.000Z</time>
      </trkpt>
      <trkpt lat="45.53833" lon="3.3104">
        <ele>434</ele>
        <time>2012-10-21T06:37:05.000Z</time>
      </trkpt>
      <trkpt lat="45.53837" lon="3.31045">
        <ele>433</ele>
        <time>2012-10-21T06:37:06.000Z</time>
      </trkpt>
      <trkpt lat="45.53842" lon="3.31049">
        <ele>433</ele>
        <time>2012-10-21T06:37:07.000Z</time>
      </trkpt>
      <trkpt lat="45.53846" lon="3.31054">
        <ele>432</ele>
        <time>2012-10-21T06:37:08.000Z</time>
      </trkpt>
      <trkpt lat="45.5385" lon="3.31058">
        <ele>432</ele>
        <time>2012-10-21T06:37:09.000Z</time>
      </trkpt>
      <trkpt lat="45.53854" lon="3.31063">
        <ele>432</ele>
        <time>2012-10-21T06:37:10.000Z</time>
      </trkpt>
      <trkpt lat="45.53859" lon="3.31067">
        <ele>431</ele>
        <time>2012-10-21T06:37:11.000Z</time>
      </trkpt>
      <trkpt lat="45.53863" lon="3.31072">
        <ele>432</ele>
        <time>2012-10-21T06:37:12.000Z</time>
      </trkpt>
      <trkpt lat="45.53868" lon="3.31077">
        <ele>431</ele>
        <time>2012-10-21T06:37:13.000Z</time>
      </trkpt>
      <trkpt lat="45.53872" lon="3.31081">
        <ele>432</ele>
        <time>2012-10-21T06:37:14.000Z</time>
      </trkpt>
      <trkpt lat="45.53876" lon="3.31085">
        <ele>431</ele>
        <time>2012-10-21T06:37:15.000Z</time>
      </trkpt>
      <trkpt lat="45.5388" lon="3.3109">
        <ele>432</ele>
        <time>2012-10-21T06:37:16.000Z</time>
      </trkpt>
      <trkpt lat="45.53884" lon="3.31094">
        <ele>432</ele>
        <time>2012-10-21T06:37:17.000Z</time>
      </trkpt>
      <trkpt lat="45.53888" lon="3.31099">
        <ele>433</ele>
        <time>2012-10-21T06:37:18.000Z</time>
      </trkpt>
      <trkpt lat="45.53892" lon="3.31103">
        <ele>433</ele>
        <time>2012-10-21T06:37:19.000Z</time>
      </trkpt>
      <trkpt lat="45.53897" lon="3.31108">
        <ele>432</ele>
        <time>2012-10-21T06:37:20.000Z</time>
      </trkpt>
      <trkpt lat="45.539" lon="3.31112">
        <ele>433</ele>
        <time>2012-10-21T06:37:21.000Z</time>
      </trkpt>
      <trkpt lat="45.53904" lon="3.31116">
        <ele>432</ele>
        <time>2012-10-21T06:37:22.000Z</time>
      </trkpt>
      <trkpt lat="45.53908" lon="3.3112">
        <ele>432</ele>
        <time>2012-10-21T06:37:23.000Z</time>
      </trkpt>
      <trkpt lat="45.53913" lon="3.31125">
        <ele>432</ele>
        <time>2012-10-21T06:37:24.000Z</time>
      </trkpt>
      <trkpt lat="45.53917" lon="3.31129">
        <ele>432</ele>
        <time>2012-10-21T06:37:25.000Z</time>
      </trkpt>
      <trkpt lat="45.53921" lon="3.31133">
        <ele>431</ele>
        <time>2012-10-21T06:37:26.000Z</time>
      </trkpt>
      <trkpt lat="45.53926" lon="3.31138">
        <ele>430</ele>
        <time>2012-10-21T06:37:27.000Z</time>
      </trkpt>
      <trkpt lat="45.5393" lon="3.31142">
        <ele>430</ele>
        <time>2012-10-21T06:37:28.000Z</time>
      </trkpt>
      <trkpt lat="45.53934" lon="3.31146">
        <ele>430</ele>
        <time>2012-10-21T06:37:29.000Z</time>
      </trkpt>
      <trkpt lat="45.53939" lon="3.3115">
        <ele>431</ele>
        <time>2012-10-21T06:37:30.000Z</time>
      </trkpt>
      <trkpt lat="45.53943" lon="3.31154">
        <ele>431</ele>
        <time>2012-10-21T06:37:31.000Z</time>
      </trkpt>
      <trkpt lat="45.53948" lon="3.31159">
        <ele>431</ele>
        <time>2012-10-21T06:37:32.000Z</time>
      </trkpt>
      <trkpt lat="45.53952" lon="3.31163">
        <ele>433</ele>
        <time>2012-10-21T06:37:33.000Z</time>
      </trkpt>
      <trkpt lat="45.53956" lon="3.31167">
        <ele>433</ele>
        <time>2012-10-21T06:37:34.000Z</time>
      </trkpt>
      <trkpt lat="45.53961" lon="3.31171">
        <ele>434</ele>
        <time>2012-10-21T06:37:35.000Z</time>
      </trkpt>
      <trkpt lat="45.53965" lon="3.31175">
        <ele>434</ele>
        <time>2012-10-21T06:37:36.000Z</time>
      </trkpt>
      <trkpt lat="45.53969" lon="3.31179">
        <ele>435</ele>
        <time>2012-10-21T06:37:37.000Z</time>
      </trkpt>
      <trkpt lat="45.53978" lon="3.31187">
        <ele>435</ele>
        <time>2012-10-21T06:37:39.000Z</time>
      </trkpt>
      <trkpt lat="45.53982" lon="3.3119">
        <ele>435</ele>
        <time>2012-10-21T06:37:40.000Z</time>
      </trkpt>
      <trkpt lat="45.53987" lon="3.31194">
        <ele>435</ele>
        <time>2012-10-21T06:37:41.000Z</time>
      </trkpt>
      <trkpt lat="45.53991" lon="3.31198">
        <ele>435</ele>
        <time>2012-10-21T06:37:42.000Z</time>
      </trkpt>
      <trkpt lat="45.53995" lon="3.31202">
        <ele>435</ele>
        <time>2012-10-21T06:37:43.000Z</time>
      </trkpt>
      <trkpt lat="45.54" lon="3.31206">
        <ele>434</ele>
        <time>2012-10-21T06:37:44.000Z</time>
      </trkpt>
      <trkpt lat="45.54004" lon="3.31209">
        <ele>434</ele>
        <time>2012-10-21T06:37:45.000Z</time>
      </trkpt>
      <trkpt lat="45.54008" lon="3.31213">
        <ele>435</ele>
        <time>2012-10-21T06:37:46.000Z</time>
      </trkpt>
      <trkpt lat="45.54012" lon="3.31218">
        <ele>435</ele>
        <time>2012-10-21T06:37:47.000Z</time>
      </trkpt>
      <trkpt lat="45.54016" lon="3.31222">
        <ele>435</ele>
        <time>2012-10-21T06:37:48.000Z</time>
      </trkpt>
      <trkpt lat="45.5402" lon="3.31227">
        <ele>436</ele>
        <time>2012-10-21T06:37:49.000Z</time>
      </trkpt>
      <trkpt lat="45.54024" lon="3.31231">
        <ele>436</ele>
        <time>2012-10-21T06:37:50.000Z</time>
      </trkpt>
      <trkpt lat="45.54028" lon="3.31237">
        <ele>437</ele>
        <time>2012-10-21T06:37:51.000Z</time>
      </trkpt>
      <trkpt lat="45.54032" lon="3.31242">
        <ele>436</ele>
        <time>2012-10-21T06:37:52.000Z</time>
      </trkpt>
      <trkpt lat="45.54035" lon="3.31248">
        <ele>436</ele>
        <time>2012-10-21T06:37:53.000Z</time>
      </trkpt>
      <trkpt lat="45.54038" lon="3.31254">
        <ele>436</ele>
        <time>2012-10-21T06:37:54.000Z</time>
      </trkpt>
      <trkpt lat="45.54042" lon="3.31259">
        <ele>436</ele>
        <time>2012-10-21T06:37:55.000Z</time>
      </trkpt>
      <trkpt lat="45.54045" lon="3.31266">
        <ele>436</ele>
        <time>2012-10-21T06:37:56.000Z</time>
      </trkpt>
      <trkpt lat="45.54048" lon="3.31272">
        <ele>437</ele>
        <time>2012-10-21T06:37:57.000Z</time>
      </trkpt>
      <trkpt lat="45.54051" lon="3.31278">
        <ele>437</ele>
        <time>2012-10-21T06:37:58.000Z</time>
      </trkpt>
      <trkpt lat="45.54054" lon="3.31284">
        <ele>437</ele>
        <time>2012-10-21T06:37:59.000Z</time>
      </trkpt>
      <trkpt lat="45.54057" lon="3.3129">
        <ele>436</ele>
        <time>2012-10-21T06:38:00.000Z</time>
      </trkpt>
      <trkpt lat="45.5406" lon="3.31296">
        <ele>437</ele>
        <time>2012-10-21T06:38:01.000Z</time>
      </trkpt>
      <trkpt lat="45.54063" lon="3.31302">
        <ele>437</ele>
        <time>2012-10-21T06:38:02.000Z</time>
      </trkpt>
      <trkpt lat="45.54065" lon="3.31308">
        <ele>437</ele>
        <time>2012-10-21T06:38:03.000Z</time>
      </trkpt>
      <trkpt lat="45.54068" lon="3.31314">
        <ele>437</ele>
        <time>2012-10-21T06:38:04.000Z</time>
      </trkpt>
      <trkpt lat="45.54071" lon="3.3132">
        <ele>437</ele>
        <time>2012-10-21T06:38:05.000Z</time>
      </trkpt>
      <trkpt lat="45.54074" lon="3.31326">
        <ele>436</ele>
        <time>2012-10-21T06:38:06.000Z</time>
      </trkpt>
      <trkpt lat="45.54077" lon="3.31332">
        <ele>436</ele>
        <time>2012-10-21T06:38:07.000Z</time>
      </trkpt>
      <trkpt lat="45.5408" lon="3.31338">
        <ele>436</ele>
        <time>2012-10-21T06:38:08.000Z</time>
      </trkpt>
      <trkpt lat="45.54083" lon="3.31343">
        <ele>434</ele>
        <time>2012-10-21T06:38:09.000Z</time>
      </trkpt>
      <trkpt lat="45.54086" lon="3.31349">
        <ele>435</ele>
        <time>2012-10-21T06:38:10.000Z</time>
      </trkpt>
      <trkpt lat="45.54089" lon="3.31355">
        <ele>434</ele>
        <time>2012-10-21T06:38:11.000Z</time>
      </trkpt>
      <trkpt lat="45.54093" lon="3.31361">
        <ele>434</ele>
        <time>2012-10-21T06:38:12.000Z</time>
      </trkpt>
      <trkpt lat="45.54096" lon="3.31366">
        <ele>434</ele>
        <time>2012-10-21T06:38:13.000Z</time>
      </trkpt>
      <trkpt lat="45.54099" lon="3.31372">
        <ele>434</ele>
        <time>2012-10-21T06:38:14.000Z</time>
      </trkpt>
      <trkpt lat="45.54102" lon="3.31378">
        <ele>433</ele>
        <time>2012-10-21T06:38:15.000Z</time>
      </trkpt>
      <trkpt lat="45.54105" lon="3.31384">
        <ele>434</ele>
        <time>2012-10-21T06:38:16.000Z</time>
      </trkpt>
      <trkpt lat="45.54108" lon="3.31389">
        <ele>434</ele>
        <time>2012-10-21T06:38:17.000Z</time>
      </trkpt>
      <trkpt lat="45.54111" lon="3.31395">
        <ele>435</ele>
        <time>2012-10-21T06:38:18.000Z</time>
      </trkpt>
      <trkpt lat="45.54114" lon="3.314">
        <ele>434</ele>
        <time>2012-10-21T06:38:19.000Z</time>
      </trkpt>
      <trkpt lat="45.54117" lon="3.31406">
        <ele>434</ele>
        <time>2012-10-21T06:38:20.000Z</time>
      </trkpt>
      <trkpt lat="45.54121" lon="3.31412">
        <ele>435</ele>
        <time>2012-10-21T06:38:21.000Z</time>
      </trkpt>
      <trkpt lat="45.54124" lon="3.31417">
        <ele>435</ele>
        <time>2012-10-21T06:38:22.000Z</time>
      </trkpt>
      <trkpt lat="45.54128" lon="3.31422">
        <ele>435</ele>
        <time>2012-10-21T06:38:23.000Z</time>
      </trkpt>
      <trkpt lat="45.54131" lon="3.31427">
        <ele>436</ele>
        <time>2012-10-21T06:38:24.000Z</time>
      </trkpt>
      <trkpt lat="45.54135" lon="3.31432">
        <ele>436</ele>
        <time>2012-10-21T06:38:25.000Z</time>
      </trkpt>
      <trkpt lat="45.54139" lon="3.31436">
        <ele>436</ele>
        <time>2012-10-21T06:38:26.000Z</time>
      </trkpt>
      <trkpt lat="45.54143" lon="3.31441">
        <ele>436</ele>
        <time>2012-10-21T06:38:27.000Z</time>
      </trkpt>
      <trkpt lat="45.54146" lon="3.31446">
        <ele>436</ele>
        <time>2012-10-21T06:38:28.000Z</time>
      </trkpt>
      <trkpt lat="45.5415" lon="3.31451">
        <ele>436</ele>
        <time>2012-10-21T06:38:29.000Z</time>
      </trkpt>
      <trkpt lat="45.54154" lon="3.31456">
        <ele>435</ele>
        <time>2012-10-21T06:38:30.000Z</time>
      </trkpt>
      <trkpt lat="45.54157" lon="3.31461">
        <ele>435</ele>
        <time>2012-10-21T06:38:31.000Z</time>
      </trkpt>
      <trkpt lat="45.54161" lon="3.31466">
        <ele>435</ele>
        <time>2012-10-21T06:38:32.000Z</time>
      </trkpt>
      <trkpt lat="45.54164" lon="3.31472">
        <ele>434</ele>
        <time>2012-10-21T06:38:33.000Z</time>
      </trkpt>
      <trkpt lat="45.54168" lon="3.31477">
        <ele>435</ele>
        <time>2012-10-21T06:38:34.000Z</time>
      </trkpt>
      <trkpt lat="45.54171" lon="3.31482">
        <ele>435</ele>
        <time>2012-10-21T06:38:35.000Z</time>
      </trkpt>
      <trkpt lat="45.54175" lon="3.31487">
        <ele>435</ele>
        <time>2012-10-21T06:38:36.000Z</time>
      </trkpt>
      <trkpt lat="45.54178" lon="3.31491">
        <ele>436</ele>
        <time>2012-10-21T06:38:37.000Z</time>
      </trkpt>
      <trkpt lat="45.54185" lon="3.31501">
        <ele>436</ele>
        <time>2012-10-21T06:38:39.000Z</time>
      </trkpt>
      <trkpt lat="45.54188" lon="3.31505">
        <ele>436</ele>
        <time>2012-10-21T06:38:40.000Z</time>
      </trkpt>
      <trkpt lat="45.54192" lon="3.3151">
        <ele>436</ele>
        <time>2012-10-21T06:38:41.000Z</time>
      </trkpt>
      <trkpt lat="45.54195" lon="3.31515">
        <ele>437</ele>
        <time>2012-10-21T06:38:42.000Z</time>
      </trkpt>
      <trkpt lat="45.54198" lon="3.3152">
        <ele>438</ele>
        <time>2012-10-21T06:38:43.000Z</time>
      </trkpt>
      <trkpt lat="45.54202" lon="3.31526">
        <ele>438</ele>
        <time>2012-10-21T06:38:44.000Z</time>
      </trkpt>
      <trkpt lat="45.54205" lon="3.31531">
        <ele>439</ele>
        <time>2012-10-21T06:38:45.000Z</time>
      </trkpt>
      <trkpt lat="45.54208" lon="3.31537">
        <ele>439</ele>
        <time>2012-10-21T06:38:46.000Z</time>
      </trkpt>
      <trkpt lat="45.54211" lon="3.31543">
        <ele>439</ele>
        <time>2012-10-21T06:38:47.000Z</time>
      </trkpt>
      <trkpt lat="45.54213" lon="3.31549">
        <ele>439</ele>
        <time>2012-10-21T06:38:48.000Z</time>
      </trkpt>
      <trkpt lat="45.54215" lon="3.31555">
        <ele>439</ele>
        <time>2012-10-21T06:38:49.000Z</time>
      </trkpt>
      <trkpt lat="45.54217" lon="3.3156">
        <ele>439</ele>
        <time>2012-10-21T06:38:50.000Z</time>
      </trkpt>
      <trkpt lat="45.54218" lon="3.31564">
        <ele>439</ele>
        <time>2012-10-21T06:38:51.000Z</time>
      </trkpt>
      <trkpt lat="45.5422" lon="3.31568">
        <ele>439</ele>
        <time>2012-10-21T06:38:52.000Z</time>
      </trkpt>
      <trkpt lat="45.54223" lon="3.31572">
        <ele>439</ele>
        <time>2012-10-21T06:38:53.000Z</time>
      </trkpt>
      <trkpt lat="45.54226" lon="3.31574">
        <ele>438</ele>
        <time>2012-10-21T06:38:54.000Z</time>
      </trkpt>
      <trkpt lat="45.5423" lon="3.31573">
        <ele>438</ele>
        <time>2012-10-21T06:38:55.000Z</time>
      </trkpt>
      <trkpt lat="45.54233" lon="3.3157">
        <ele>438</ele>
        <time>2012-10-21T06:38:56.000Z</time>
      </trkpt>
      <trkpt lat="45.54237" lon="3.31568">
        <ele>439</ele>
        <time>2012-10-21T06:38:57.000Z</time>
      </trkpt>
      <trkpt lat="45.54241" lon="3.31565">
        <ele>437</ele>
        <time>2012-10-21T06:38:58.000Z</time>
      </trkpt>
      <trkpt lat="45.54245" lon="3.31563">
        <ele>437</ele>
        <time>2012-10-21T06:38:59.000Z</time>
      </trkpt>
      <trkpt lat="45.5425" lon="3.31559">
        <ele>436</ele>
        <time>2012-10-21T06:39:00.000Z</time>
      </trkpt>
      <trkpt lat="45.54255" lon="3.31555">
        <ele>435</ele>
        <time>2012-10-21T06:39:01.000Z</time>
      </trkpt>
      <trkpt lat="45.5426" lon="3.31551">
        <ele>435</ele>
        <time>2012-10-21T06:39:02.000Z</time>
      </trkpt>
      <trkpt lat="45.54265" lon="3.31547">
        <ele>435</ele>
        <time>2012-10-21T06:39:03.000Z</time>
      </trkpt>
      <trkpt lat="45.5427" lon="3.31543">
        <ele>435</ele>
        <time>2012-10-21T06:39:04.000Z</time>
      </trkpt>
      <trkpt lat="45.54275" lon="3.31538">
        <ele>435</ele>
        <time>2012-10-21T06:39:05.000Z</time>
      </trkpt>
      <trkpt lat="45.54279" lon="3.31534">
        <ele>435</ele>
        <time>2012-10-21T06:39:06.000Z</time>
      </trkpt>
      <trkpt lat="45.54284" lon="3.3153">
        <ele>435</ele>
        <time>2012-10-21T06:39:07.000Z</time>
      </trkpt>
      <trkpt lat="45.54288" lon="3.31525">
        <ele>434</ele>
        <time>2012-10-21T06:39:08.000Z</time>
      </trkpt>
      <trkpt lat="45.54293" lon="3.31521">
        <ele>434</ele>
        <time>2012-10-21T06:39:09.000Z</time>
      </trkpt>
      <trkpt lat="45.54298" lon="3.31516">
        <ele>434</ele>
        <time>2012-10-21T06:39:10.000Z</time>
      </trkpt>
      <trkpt lat="45.54303" lon="3.31512">
        <ele>434</ele>
        <time>2012-10-21T06:39:11.000Z</time>
      </trkpt>
      <trkpt lat="45.54308" lon="3.31507">
        <ele>434</ele>
        <time>2012-10-21T06:39:12.000Z</time>
      </trkpt>
      <trkpt lat="45.54312" lon="3.31503">
        <ele>434</ele>
        <time>2012-10-21T06:39:13.000Z</time>
      </trkpt>
      <trkpt lat="45.54317" lon="3.31498">
        <ele>434</ele>
        <time>2012-10-21T06:39:14.000Z</time>
      </trkpt>
      <trkpt lat="45.54322" lon="3.31493">
        <ele>434</ele>
        <time>2012-10-21T06:39:15.000Z</time>
      </trkpt>
      <trkpt lat="45.54326" lon="3.31489">
        <ele>434</ele>
        <time>2012-10-21T06:39:16.000Z</time>
      </trkpt>
      <trkpt lat="45.54331" lon="3.31484">
        <ele>434</ele>
        <time>2012-10-21T06:39:17.000Z</time>
      </trkpt>
      <trkpt lat="45.54336" lon="3.3148">
        <ele>435</ele>
        <time>2012-10-21T06:39:18.000Z</time>
      </trkpt>
      <trkpt lat="45.5434" lon="3.31475">
        <ele>434</ele>
        <time>2012-10-21T06:39:19.000Z</time>
      </trkpt>
      <trkpt lat="45.54345" lon="3.31471">
        <ele>434</ele>
        <time>2012-10-21T06:39:20.000Z</time>
      </trkpt>
      <trkpt lat="45.5435" lon="3.31467">
        <ele>433</ele>
        <time>2012-10-21T06:39:21.000Z</time>
      </trkpt>
      <trkpt lat="45.54355" lon="3.31463">
        <ele>434</ele>
        <time>2012-10-21T06:39:22.000Z</time>
      </trkpt>
      <trkpt lat="45.5436" lon="3.31459">
        <ele>434</ele>
        <time>2012-10-21T06:39:23.000Z</time>
      </trkpt>
      <trkpt lat="45.54364" lon="3.31455">
        <ele>435</ele>
        <time>2012-10-21T06:39:24.000Z</time>
      </trkpt>
      <trkpt lat="45.54369" lon="3.31452">
        <ele>435</ele>
        <time>2012-10-21T06:39:25.000Z</time>
      </trkpt>
      <trkpt lat="45.54374" lon="3.31449">
        <ele>435</ele>
        <time>2012-10-21T06:39:26.000Z</time>
      </trkpt>
      <trkpt lat="45.54379" lon="3.31446">
        <ele>435</ele>
        <time>2012-10-21T06:39:27.000Z</time>
      </trkpt>
      <trkpt lat="45.54384" lon="3.31443">
        <ele>435</ele>
        <time>2012-10-21T06:39:28.000Z</time>
      </trkpt>
      <trkpt lat="45.54389" lon="3.3144">
        <ele>435</ele>
        <time>2012-10-21T06:39:29.000Z</time>
      </trkpt>
      <trkpt lat="45.54394" lon="3.31437">
        <ele>435</ele>
        <time>2012-10-21T06:39:30.000Z</time>
      </trkpt>
      <trkpt lat="45.54399" lon="3.31434">
        <ele>435</ele>
        <time>2012-10-21T06:39:31.000Z</time>
      </trkpt>
      <trkpt lat="45.54404" lon="3.31432">
        <ele>435</ele>
        <time>2012-10-21T06:39:32.000Z</time>
      </trkpt>
      <trkpt lat="45.5441" lon="3.31429">
        <ele>435</ele>
        <time>2012-10-21T06:39:33.000Z</time>
      </trkpt>
      <trkpt lat="45.54415" lon="3.31427">
        <ele>435</ele>
        <time>2012-10-21T06:39:34.000Z</time>
      </trkpt>
      <trkpt lat="45.5442" lon="3.31424">
        <ele>435</ele>
        <time>2012-10-21T06:39:35.000Z</time>
      </trkpt>
      <trkpt lat="45.54425" lon="3.31421">
        <ele>435</ele>
        <time>2012-10-21T06:39:36.000Z</time>
      </trkpt>
      <trkpt lat="45.5443" lon="3.31418">
        <ele>434</ele>
        <time>2012-10-21T06:39:37.000Z</time>
      </trkpt>
      <trkpt lat="45.54435" lon="3.31416">
        <ele>434</ele>
        <time>2012-10-21T06:39:38.000Z</time>
      </trkpt>
      <trkpt lat="45.5444" lon="3.31412">
        <ele>434</ele>
        <time>2012-10-21T06:39:39.000Z</time>
      </trkpt>
      <trkpt lat="45.54445" lon="3.3141">
        <ele>434</ele>
        <time>2012-10-21T06:39:40.000Z</time>
      </trkpt>
      <trkpt lat="45.54451" lon="3.31407">
        <ele>434</ele>
        <time>2012-10-21T06:39:41.000Z</time>
      </trkpt>
      <trkpt lat="45.54456" lon="3.31404">
        <ele>434</ele>
        <time>2012-10-21T06:39:42.000Z</time>
      </trkpt>
      <trkpt lat="45.5446" lon="3.31401">
        <ele>434</ele>
        <time>2012-10-21T06:39:43.000Z</time>
      </trkpt>
      <trkpt lat="45.54466" lon="3.31398">
        <ele>434</ele>
        <time>2012-10-21T06:39:44.000Z</time>
      </trkpt>
      <trkpt lat="45.5447" lon="3.31395">
        <ele>434</ele>
        <time>2012-10-21T06:39:45.000Z</time>
      </trkpt>
      <trkpt lat="45.54475" lon="3.31392">
        <ele>434</ele>
        <time>2012-10-21T06:39:46.000Z</time>
      </trkpt>
      <trkpt lat="45.5448" lon="3.31389">
        <ele>434</ele>
        <time>2012-10-21T06:39:47.000Z</time>
      </trkpt>
      <trkpt lat="45.54485" lon="3.31387">
        <ele>434</ele>
        <time>2012-10-21T06:39:48.000Z</time>
      </trkpt>
      <trkpt lat="45.54489" lon="3.31384">
        <ele>434</ele>
        <time>2012-10-21T06:39:49.000Z</time>
      </trkpt>
      <trkpt lat="45.54494" lon="3.31381">
        <ele>434</ele>
        <time>2012-10-21T06:39:50.000Z</time>
      </trkpt>
      <trkpt lat="45.54499" lon="3.31379">
        <ele>434</ele>
        <time>2012-10-21T06:39:51.000Z</time>
      </trkpt>
      <trkpt lat="45.54504" lon="3.31376">
        <ele>434</ele>
        <time>2012-10-21T06:39:52.000Z</time>
      </trkpt>
      <trkpt lat="45.54508" lon="3.31373">
        <ele>434</ele>
        <time>2012-10-21T06:39:53.000Z</time>
      </trkpt>
      <trkpt lat="45.54513" lon="3.3137">
        <ele>434</ele>
        <time>2012-10-21T06:39:54.000Z</time>
      </trkpt>
      <trkpt lat="45.54518" lon="3.31367">
        <ele>434</ele>
        <time>2012-10-21T06:39:55.000Z</time>
      </trkpt>
      <trkpt lat="45.54523" lon="3.31364">
        <ele>434</ele>
        <time>2012-10-21T06:39:56.000Z</time>
      </trkpt>
      <trkpt lat="45.54528" lon="3.31361">
        <ele>434</ele>
        <time>2012-10-21T06:39:57.000Z</time>
      </trkpt>
      <trkpt lat="45.54532" lon="3.31358">
        <ele>434</ele>
        <time>2012-10-21T06:39:58.000Z</time>
      </trkpt>
      <trkpt lat="45.54537" lon="3.31355">
        <ele>434</ele>
        <time>2012-10-21T06:39:59.000Z</time>
      </trkpt>
      <trkpt lat="45.54542" lon="3.31352">
        <ele>434</ele>
        <time>2012-10-21T06:40:00.000Z</time>
      </trkpt>
      <trkpt lat="45.54547" lon="3.31349">
        <ele>434</ele>
        <time>2012-10-21T06:40:01.000Z</time>
      </trkpt>
      <trkpt lat="45.54551" lon="3.31346">
        <ele>434</ele>
        <time>2012-10-21T06:40:02.000Z</time>
      </trkpt>
      <trkpt lat="45.54556" lon="3.31343">
        <ele>434</ele>
        <time>2012-10-21T06:40:03.000Z</time>
      </trkpt>
      <trkpt lat="45.54561" lon="3.31341">
        <ele>434</ele>
        <time>2012-10-21T06:40:04.000Z</time>
      </trkpt>
      <trkpt lat="45.54566" lon="3.31338">
        <ele>434</ele>
        <time>2012-10-21T06:40:05.000Z</time>
      </trkpt>
      <trkpt lat="45.5457" lon="3.31335">
        <ele>434</ele>
        <time>2012-10-21T06:40:06.000Z</time>
      </trkpt>
      <trkpt lat="45.54575" lon="3.31333">
        <ele>435</ele>
        <time>2012-10-21T06:40:07.000Z</time>
      </trkpt>
      <trkpt lat="45.5458" lon="3.3133">
        <ele>434</ele>
        <time>2012-10-21T06:40:08.000Z</time>
      </trkpt>
      <trkpt lat="45.54585" lon="3.31328">
        <ele>434</ele>
        <time>2012-10-21T06:40:09.000Z</time>
      </trkpt>
      <trkpt lat="45.54589" lon="3.31325">
        <ele>434</ele>
        <time>2012-10-21T06:40:10.000Z</time>
      </trkpt>
      <trkpt lat="45.54594" lon="3.31323">
        <ele>434</ele>
        <time>2012-10-21T06:40:11.000Z</time>
      </trkpt>
      <trkpt lat="45.54599" lon="3.31321">
        <ele>434</ele>
        <time>2012-10-21T06:40:12.000Z</time>
      </trkpt>
      <trkpt lat="45.54604" lon="3.31319">
        <ele>434</ele>
        <time>2012-10-21T06:40:13.000Z</time>
      </trkpt>
      <trkpt lat="45.54609" lon="3.31318">
        <ele>434</ele>
        <time>2012-10-21T06:40:14.000Z</time>
      </trkpt>
      <trkpt lat="45.54614" lon="3.31317">
        <ele>434</ele>
        <time>2012-10-21T06:40:15.000Z</time>
      </trkpt>
      <trkpt lat="45.5462" lon="3.31315">
        <ele>434</ele>
        <time>2012-10-21T06:40:16.000Z</time>
      </trkpt>
      <trkpt lat="45.54625" lon="3.31314">
        <ele>434</ele>
        <time>2012-10-21T06:40:17.000Z</time>
      </trkpt>
      <trkpt lat="45.5463" lon="3.31313">
        <ele>434</ele>
        <time>2012-10-21T06:40:18.000Z</time>
      </trkpt>
      <trkpt lat="45.54635" lon="3.31312">
        <ele>434</ele>
        <time>2012-10-21T06:40:19.000Z</time>
      </trkpt>
      <trkpt lat="45.5464" lon="3.31311">
        <ele>434</ele>
        <time>2012-10-21T06:40:20.000Z</time>
      </trkpt>
      <trkpt lat="45.54645" lon="3.3131">
        <ele>434</ele>
        <time>2012-10-21T06:40:21.000Z</time>
      </trkpt>
      <trkpt lat="45.5465" lon="3.31309">
        <ele>433</ele>
        <time>2012-10-21T06:40:22.000Z</time>
      </trkpt>
      <trkpt lat="45.54655" lon="3.31308">
        <ele>433</ele>
        <time>2012-10-21T06:40:23.000Z</time>
      </trkpt>
      <trkpt lat="45.5466" lon="3.31307">
        <ele>433</ele>
        <time>2012-10-21T06:40:24.000Z</time>
      </trkpt>
      <trkpt lat="45.54665" lon="3.31305">
        <ele>433</ele>
        <time>2012-10-21T06:40:25.000Z</time>
      </trkpt>
      <trkpt lat="45.5467" lon="3.31304">
        <ele>433</ele>
        <time>2012-10-21T06:40:26.000Z</time>
      </trkpt>
      <trkpt lat="45.54675" lon="3.31304">
        <ele>433</ele>
        <time>2012-10-21T06:40:27.000Z</time>
      </trkpt>
      <trkpt lat="45.5468" lon="3.31304">
        <ele>433</ele>
        <time>2012-10-21T06:40:28.000Z</time>
      </trkpt>
      <trkpt lat="45.54685" lon="3.31304">
        <ele>433</ele>
        <time>2012-10-21T06:40:29.000Z</time>
      </trkpt>
      <trkpt lat="45.5469" lon="3.31303">
        <ele>433</ele>
        <time>2012-10-21T06:40:30.000Z</time>
      </trkpt>
      <trkpt lat="45.54696" lon="3.31303">
        <ele>433</ele>
        <time>2012-10-21T06:40:31.000Z</time>
      </trkpt>
      <trkpt lat="45.54701" lon="3.31302">
        <ele>433</ele>
        <time>2012-10-21T06:40:32.000Z</time>
      </trkpt>
      <trkpt lat="45.54707" lon="3.31301">
        <ele>433</ele>
        <time>2012-10-21T06:40:33.000Z</time>
      </trkpt>
      <trkpt lat="45.54713" lon="3.313">
        <ele>433</ele>
        <time>2012-10-21T06:40:34.000Z</time>
      </trkpt>
      <trkpt lat="45.54718" lon="3.31299">
        <ele>433</ele>
        <time>2012-10-21T06:40:35.000Z</time>
      </trkpt>
      <trkpt lat="45.54724" lon="3.31298">
        <ele>433</ele>
        <time>2012-10-21T06:40:36.000Z</time>
      </trkpt>
      <trkpt lat="45.54729" lon="3.31296">
        <ele>432</ele>
        <time>2012-10-21T06:40:37.000Z</time>
      </trkpt>
      <trkpt lat="45.54735" lon="3.31295">
        <ele>433</ele>
        <time>2012-10-21T06:40:38.000Z</time>
      </trkpt>
      <trkpt lat="45.5474" lon="3.31294">
        <ele>432</ele>
        <time>2012-10-21T06:40:39.000Z</time>
      </trkpt>
      <trkpt lat="45.54745" lon="3.31293">
        <ele>432</ele>
        <time>2012-10-21T06:40:40.000Z</time>
      </trkpt>
      <trkpt lat="45.5475" lon="3.31292">
        <ele>432</ele>
        <time>2012-10-21T06:40:41.000Z</time>
      </trkpt>
      <trkpt lat="45.54756" lon="3.3129">
        <ele>431</ele>
        <time>2012-10-21T06:40:42.000Z</time>
      </trkpt>
      <trkpt lat="45.5476" lon="3.31289">
        <ele>431</ele>
        <time>2012-10-21T06:40:43.000Z</time>
      </trkpt>
      <trkpt lat="45.54765" lon="3.31287">
        <ele>430</ele>
        <time>2012-10-21T06:40:44.000Z</time>
      </trkpt>
      <trkpt lat="45.5477" lon="3.31286">
        <ele>430</ele>
        <time>2012-10-21T06:40:45.000Z</time>
      </trkpt>
      <trkpt lat="45.54774" lon="3.31285">
        <ele>430</ele>
        <time>2012-10-21T06:40:46.000Z</time>
      </trkpt>
      <trkpt lat="45.54779" lon="3.31284">
        <ele>430</ele>
        <time>2012-10-21T06:40:47.000Z</time>
      </trkpt>
      <trkpt lat="45.54784" lon="3.31283">
        <ele>430</ele>
        <time>2012-10-21T06:40:48.000Z</time>
      </trkpt>
      <trkpt lat="45.54789" lon="3.31281">
        <ele>430</ele>
        <time>2012-10-21T06:40:49.000Z</time>
      </trkpt>
      <trkpt lat="45.54794" lon="3.3128">
        <ele>431</ele>
        <time>2012-10-21T06:40:50.000Z</time>
      </trkpt>
      <trkpt lat="45.54799" lon="3.31279">
        <ele>431</ele>
        <time>2012-10-21T06:40:51.000Z</time>
      </trkpt>
      <trkpt lat="45.54804" lon="3.31279">
        <ele>431</ele>
        <time>2012-10-21T06:40:52.000Z</time>
      </trkpt>
      <trkpt lat="45.54809" lon="3.31278">
        <ele>431</ele>
        <time>2012-10-21T06:40:53.000Z</time>
      </trkpt>
      <trkpt lat="45.54814" lon="3.31277">
        <ele>431</ele>
        <time>2012-10-21T06:40:54.000Z</time>
      </trkpt>
      <trkpt lat="45.54819" lon="3.31276">
        <ele>432</ele>
        <time>2012-10-21T06:40:55.000Z</time>
      </trkpt>
      <trkpt lat="45.54824" lon="3.31275">
        <ele>432</ele>
        <time>2012-10-21T06:40:56.000Z</time>
      </trkpt>
      <trkpt lat="45.54829" lon="3.31274">
        <ele>432</ele>
        <time>2012-10-21T06:40:57.000Z</time>
      </trkpt>
      <trkpt lat="45.54834" lon="3.31274">
        <ele>432</ele>
        <time>2012-10-21T06:40:58.000Z</time>
      </trkpt>
      <trkpt lat="45.54839" lon="3.31272">
        <ele>431</ele>
        <time>2012-10-21T06:40:59.000Z</time>
      </trkpt>
      <trkpt lat="45.54844" lon="3.31271">
        <ele>432</ele>
        <time>2012-10-21T06:41:00.000Z</time>
      </trkpt>
      <trkpt lat="45.54849" lon="3.3127">
        <ele>431</ele>
        <time>2012-10-21T06:41:01.000Z</time>
      </trkpt>
      <trkpt lat="45.54854" lon="3.3127">
        <ele>432</ele>
        <time>2012-10-21T06:41:02.000Z</time>
      </trkpt>
      <trkpt lat="45.54859" lon="3.31269">
        <ele>431</ele>
        <time>2012-10-21T06:41:03.000Z</time>
      </trkpt>
      <trkpt lat="45.54864" lon="3.31269">
        <ele>432</ele>
        <time>2012-10-21T06:41:04.000Z</time>
      </trkpt>
      <trkpt lat="45.54869" lon="3.31271">
        <ele>433</ele>
        <time>2012-10-21T06:41:05.000Z</time>
      </trkpt>
      <trkpt lat="45.54874" lon="3.31273">
        <ele>435</ele>
        <time>2012-10-21T06:41:06.000Z</time>
      </trkpt>
      <trkpt lat="45.54878" lon="3.31275">
        <ele>435</ele>
        <time>2012-10-21T06:41:07.000Z</time>
      </trkpt>
      <trkpt lat="45.54883" lon="3.31277">
        <ele>434</ele>
        <time>2012-10-21T06:41:08.000Z</time>
      </trkpt>
      <trkpt lat="45.54888" lon="3.31279">
        <ele>434</ele>
        <time>2012-10-21T06:41:09.000Z</time>
      </trkpt>
      <trkpt lat="45.54894" lon="3.31281">
        <ele>434</ele>
        <time>2012-10-21T06:41:10.000Z</time>
      </trkpt>
      <trkpt lat="45.54899" lon="3.31283">
        <ele>435</ele>
        <time>2012-10-21T06:41:11.000Z</time>
      </trkpt>
      <trkpt lat="45.54904" lon="3.31285">
        <ele>435</ele>
        <time>2012-10-21T06:41:12.000Z</time>
      </trkpt>
      <trkpt lat="45.54908" lon="3.31287">
        <ele>433</ele>
        <time>2012-10-21T06:41:13.000Z</time>
      </trkpt>
      <trkpt lat="45.54913" lon="3.31288">
        <ele>433</ele>
        <time>2012-10-21T06:41:14.000Z</time>
      </trkpt>
      <trkpt lat="45.54917" lon="3.3129">
        <ele>434</ele>
        <time>2012-10-21T06:41:15.000Z</time>
      </trkpt>
      <trkpt lat="45.54922" lon="3.31292">
        <ele>434</ele>
        <time>2012-10-21T06:41:16.000Z</time>
      </trkpt>
      <trkpt lat="45.54928" lon="3.31293">
        <ele>435</ele>
        <time>2012-10-21T06:41:17.000Z</time>
      </trkpt>
      <trkpt lat="45.54933" lon="3.31295">
        <ele>434</ele>
        <time>2012-10-21T06:41:18.000Z</time>
      </trkpt>
      <trkpt lat="45.54938" lon="3.31296">
        <ele>434</ele>
        <time>2012-10-21T06:41:19.000Z</time>
      </trkpt>
      <trkpt lat="45.54943" lon="3.31298">
        <ele>435</ele>
        <time>2012-10-21T06:41:20.000Z</time>
      </trkpt>
      <trkpt lat="45.54948" lon="3.31299">
        <ele>434</ele>
        <time>2012-10-21T06:41:21.000Z</time>
      </trkpt>
      <trkpt lat="45.54953" lon="3.313">
        <ele>435</ele>
        <time>2012-10-21T06:41:22.000Z</time>
      </trkpt>
      <trkpt lat="45.54958" lon="3.31302">
        <ele>435</ele>
        <time>2012-10-21T06:41:23.000Z</time>
      </trkpt>
      <trkpt lat="45.54964" lon="3.31304">
        <ele>435</ele>
        <time>2012-10-21T06:41:24.000Z</time>
      </trkpt>
      <trkpt lat="45.54969" lon="3.31305">
        <ele>435</ele>
        <time>2012-10-21T06:41:25.000Z</time>
      </trkpt>
      <trkpt lat="45.54974" lon="3.31306">
        <ele>434</ele>
        <time>2012-10-21T06:41:26.000Z</time>
      </trkpt>
      <trkpt lat="45.54979" lon="3.31308">
        <ele>435</ele>
        <time>2012-10-21T06:41:27.000Z</time>
      </trkpt>
      <trkpt lat="45.54984" lon="3.31309">
        <ele>435</ele>
        <time>2012-10-21T06:41:28.000Z</time>
      </trkpt>
      <trkpt lat="45.54989" lon="3.31311">
        <ele>436</ele>
        <time>2012-10-21T06:41:29.000Z</time>
      </trkpt>
      <trkpt lat="45.54994" lon="3.31312">
        <ele>437</ele>
        <time>2012-10-21T06:41:30.000Z</time>
      </trkpt>
      <trkpt lat="45.54998" lon="3.31313">
        <ele>436</ele>
        <time>2012-10-21T06:41:31.000Z</time>
      </trkpt>
      <trkpt lat="45.55003" lon="3.31315">
        <ele>436</ele>
        <time>2012-10-21T06:41:32.000Z</time>
      </trkpt>
      <trkpt lat="45.55007" lon="3.31316">
        <ele>435</ele>
        <time>2012-10-21T06:41:33.000Z</time>
      </trkpt>
      <trkpt lat="45.55012" lon="3.31317">
        <ele>435</ele>
        <time>2012-10-21T06:41:34.000Z</time>
      </trkpt>
      <trkpt lat="45.55016" lon="3.31319">
        <ele>433</ele>
        <time>2012-10-21T06:41:35.000Z</time>
      </trkpt>
      <trkpt lat="45.55021" lon="3.3132">
        <ele>434</ele>
        <time>2012-10-21T06:41:36.000Z</time>
      </trkpt>
      <trkpt lat="45.55026" lon="3.31322">
        <ele>435</ele>
        <time>2012-10-21T06:41:37.000Z</time>
      </trkpt>
      <trkpt lat="45.55031" lon="3.31324">
        <ele>435</ele>
        <time>2012-10-21T06:41:38.000Z</time>
      </trkpt>
      <trkpt lat="45.55036" lon="3.31325">
        <ele>435</ele>
        <time>2012-10-21T06:41:39.000Z</time>
      </trkpt>
      <trkpt lat="45.5504" lon="3.31327">
        <ele>434</ele>
        <time>2012-10-21T06:41:40.000Z</time>
      </trkpt>
      <trkpt lat="45.55045" lon="3.31329">
        <ele>434</ele>
        <time>2012-10-21T06:41:41.000Z</time>
      </trkpt>
      <trkpt lat="45.55049" lon="3.31331">
        <ele>433</ele>
        <time>2012-10-21T06:41:42.000Z</time>
      </trkpt>
      <trkpt lat="45.55053" lon="3.31334">
        <ele>433</ele>
        <time>2012-10-21T06:41:43.000Z</time>
      </trkpt>
      <trkpt lat="45.55056" lon="3.31337">
        <ele>434</ele>
        <time>2012-10-21T06:41:44.000Z</time>
      </trkpt>
      <trkpt lat="45.55061" lon="3.3134">
        <ele>435</ele>
        <time>2012-10-21T06:41:45.000Z</time>
      </trkpt>
      <trkpt lat="45.55065" lon="3.31343">
        <ele>435</ele>
        <time>2012-10-21T06:41:46.000Z</time>
      </trkpt>
      <trkpt lat="45.55068" lon="3.31347">
        <ele>435</ele>
        <time>2012-10-21T06:41:47.000Z</time>
      </trkpt>
      <trkpt lat="45.55072" lon="3.31351">
        <ele>435</ele>
        <time>2012-10-21T06:41:48.000Z</time>
      </trkpt>
      <trkpt lat="45.55076" lon="3.31354">
        <ele>435</ele>
        <time>2012-10-21T06:41:49.000Z</time>
      </trkpt>
      <trkpt lat="45.5508" lon="3.31357">
        <ele>436</ele>
        <time>2012-10-21T06:41:50.000Z</time>
      </trkpt>
      <trkpt lat="45.55083" lon="3.3136">
        <ele>436</ele>
        <time>2012-10-21T06:41:51.000Z</time>
      </trkpt>
      <trkpt lat="45.55087" lon="3.31363">
        <ele>437</ele>
        <time>2012-10-21T06:41:52.000Z</time>
      </trkpt>
      <trkpt lat="45.5509" lon="3.31367">
        <ele>438</ele>
        <time>2012-10-21T06:41:53.000Z</time>
      </trkpt>
      <trkpt lat="45.55094" lon="3.3137">
        <ele>437</ele>
        <time>2012-10-21T06:41:54.000Z</time>
      </trkpt>
      <trkpt lat="45.55097" lon="3.31373">
        <ele>438</ele>
        <time>2012-10-21T06:41:55.000Z</time>
      </trkpt>
      <trkpt lat="45.551" lon="3.31377">
        <ele>439</ele>
        <time>2012-10-21T06:41:56.000Z</time>
      </trkpt>
      <trkpt lat="45.55104" lon="3.31379">
        <ele>440</ele>
        <time>2012-10-21T06:41:57.000Z</time>
      </trkpt>
      <trkpt lat="45.55108" lon="3.31382">
        <ele>439</ele>
        <time>2012-10-21T06:41:58.000Z</time>
      </trkpt>
      <trkpt lat="45.55112" lon="3.31385">
        <ele>440</ele>
        <time>2012-10-21T06:41:59.000Z</time>
      </trkpt>
      <trkpt lat="45.55115" lon="3.31388">
        <ele>440</ele>
        <time>2012-10-21T06:42:00.000Z</time>
      </trkpt>
      <trkpt lat="45.55119" lon="3.31391">
        <ele>440</ele>
        <time>2012-10-21T06:42:01.000Z</time>
      </trkpt>
      <trkpt lat="45.55123" lon="3.31394">
        <ele>441</ele>
        <time>2012-10-21T06:42:02.000Z</time>
      </trkpt>
      <trkpt lat="45.55127" lon="3.31396">
        <ele>440</ele>
        <time>2012-10-21T06:42:03.000Z</time>
      </trkpt>
      <trkpt lat="45.5513" lon="3.31399">
        <ele>440</ele>
        <time>2012-10-21T06:42:04.000Z</time>
      </trkpt>
      <trkpt lat="45.55134" lon="3.31401">
        <ele>439</ele>
        <time>2012-10-21T06:42:05.000Z</time>
      </trkpt>
      <trkpt lat="45.55136" lon="3.31403">
        <ele>439</ele>
        <time>2012-10-21T06:42:06.000Z</time>
      </trkpt>
      <trkpt lat="45.5514" lon="3.31406">
        <ele>438</ele>
        <time>2012-10-21T06:42:08.000Z</time>
      </trkpt>
      <trkpt lat="45.55142" lon="3.31407">
        <ele>438</ele>
        <time>2012-10-21T06:42:09.000Z</time>
      </trkpt>
      <trkpt lat="45.55145" lon="3.3141">
        <ele>438</ele>
        <time>2012-10-21T06:42:11.000Z</time>
      </trkpt>
      <trkpt lat="45.55147" lon="3.31412">
        <ele>439</ele>
        <time>2012-10-21T06:42:12.000Z</time>
      </trkpt>
      <trkpt lat="45.5515" lon="3.31414">
        <ele>440</ele>
        <time>2012-10-21T06:42:13.000Z</time>
      </trkpt>
      <trkpt lat="45.55153" lon="3.31416">
        <ele>441</ele>
        <time>2012-10-21T06:42:14.000Z</time>
      </trkpt>
      <trkpt lat="45.55157" lon="3.31418">
        <ele>441</ele>
        <time>2012-10-21T06:42:15.000Z</time>
      </trkpt>
      <trkpt lat="45.55161" lon="3.3142">
        <ele>441</ele>
        <time>2012-10-21T06:42:16.000Z</time>
      </trkpt>
      <trkpt lat="45.55165" lon="3.31423">
        <ele>438</ele>
        <time>2012-10-21T06:42:17.000Z</time>
      </trkpt>
      <trkpt lat="45.55169" lon="3.31426">
        <ele>437</ele>
        <time>2012-10-21T06:42:18.000Z</time>
      </trkpt>
      <trkpt lat="45.55173" lon="3.31428">
        <ele>438</ele>
        <time>2012-10-21T06:42:19.000Z</time>
      </trkpt>
      <trkpt lat="45.55176" lon="3.3143">
        <ele>440</ele>
        <time>2012-10-21T06:42:20.000Z</time>
      </trkpt>
      <trkpt lat="45.55179" lon="3.31432">
        <ele>440</ele>
        <time>2012-10-21T06:42:21.000Z</time>
      </trkpt>
      <trkpt lat="45.55182" lon="3.31434">
        <ele>440</ele>
        <time>2012-10-21T06:42:22.000Z</time>
      </trkpt>
      <trkpt lat="45.55185" lon="3.31436">
        <ele>441</ele>
        <time>2012-10-21T06:42:23.000Z</time>
      </trkpt>
      <trkpt lat="45.55189" lon="3.31438">
        <ele>441</ele>
        <time>2012-10-21T06:42:24.000Z</time>
      </trkpt>
      <trkpt lat="45.55191" lon="3.3144">
        <ele>441</ele>
        <time>2012-10-21T06:42:25.000Z</time>
      </trkpt>
      <trkpt lat="45.55194" lon="3.31443">
        <ele>442</ele>
        <time>2012-10-21T06:42:26.000Z</time>
      </trkpt>
      <trkpt lat="45.55197" lon="3.31444">
        <ele>442</ele>
        <time>2012-10-21T06:42:27.000Z</time>
      </trkpt>
      <trkpt lat="45.552" lon="3.31447">
        <ele>442</ele>
        <time>2012-10-21T06:42:28.000Z</time>
      </trkpt>
      <trkpt lat="45.55202" lon="3.31449">
        <ele>443</ele>
        <time>2012-10-21T06:42:29.000Z</time>
      </trkpt>
      <trkpt lat="45.55205" lon="3.31451">
        <ele>443</ele>
        <time>2012-10-21T06:42:30.000Z</time>
      </trkpt>
      <trkpt lat="45.55208" lon="3.31453">
        <ele>444</ele>
        <time>2012-10-21T06:42:31.000Z</time>
      </trkpt>
      <trkpt lat="45.5521" lon="3.31455">
        <ele>445</ele>
        <time>2012-10-21T06:42:32.000Z</time>
      </trkpt>
      <trkpt lat="45.55213" lon="3.31457">
        <ele>444</ele>
        <time>2012-10-21T06:42:33.000Z</time>
      </trkpt>
      <trkpt lat="45.55216" lon="3.31459">
        <ele>445</ele>
        <time>2012-10-21T06:42:34.000Z</time>
      </trkpt>
      <trkpt lat="45.55219" lon="3.31461">
        <ele>445</ele>
        <time>2012-10-21T06:42:35.000Z</time>
      </trkpt>
      <trkpt lat="45.55222" lon="3.31463">
        <ele>445</ele>
        <time>2012-10-21T06:42:36.000Z</time>
      </trkpt>
      <trkpt lat="45.55225" lon="3.31465">
        <ele>444</ele>
        <time>2012-10-21T06:42:37.000Z</time>
      </trkpt>
      <trkpt lat="45.55228" lon="3.31467">
        <ele>445</ele>
        <time>2012-10-21T06:42:38.000Z</time>
      </trkpt>
      <trkpt lat="45.5523" lon="3.31469">
        <ele>445</ele>
        <time>2012-10-21T06:42:39.000Z</time>
      </trkpt>
      <trkpt lat="45.55233" lon="3.31471">
        <ele>445</ele>
        <time>2012-10-21T06:42:40.000Z</time>
      </trkpt>
      <trkpt lat="45.55236" lon="3.31474">
        <ele>445</ele>
        <time>2012-10-21T06:42:41.000Z</time>
      </trkpt>
      <trkpt lat="45.55239" lon="3.31476">
        <ele>444</ele>
        <time>2012-10-21T06:42:42.000Z</time>
      </trkpt>
      <trkpt lat="45.55242" lon="3.31479">
        <ele>444</ele>
        <time>2012-10-21T06:42:43.000Z</time>
      </trkpt>
      <trkpt lat="45.55245" lon="3.31482">
        <ele>444</ele>
        <time>2012-10-21T06:42:44.000Z</time>
      </trkpt>
      <trkpt lat="45.55247" lon="3.31485">
        <ele>444</ele>
        <time>2012-10-21T06:42:45.000Z</time>
      </trkpt>
      <trkpt lat="45.5525" lon="3.31488">
        <ele>445</ele>
        <time>2012-10-21T06:42:46.000Z</time>
      </trkpt>
      <trkpt lat="45.55252" lon="3.31491">
        <ele>445</ele>
        <time>2012-10-21T06:42:47.000Z</time>
      </trkpt>
      <trkpt lat="45.55255" lon="3.31494">
        <ele>445</ele>
        <time>2012-10-21T06:42:48.000Z</time>
      </trkpt>
      <trkpt lat="45.55258" lon="3.31497">
        <ele>445</ele>
        <time>2012-10-21T06:42:49.000Z</time>
      </trkpt>
      <trkpt lat="45.5526" lon="3.315">
        <ele>445</ele>
        <time>2012-10-21T06:42:50.000Z</time>
      </trkpt>
      <trkpt lat="45.55263" lon="3.31504">
        <ele>446</ele>
        <time>2012-10-21T06:42:51.000Z</time>
      </trkpt>
      <trkpt lat="45.55265" lon="3.31507">
        <ele>446</ele>
        <time>2012-10-21T06:42:52.000Z</time>
      </trkpt>
      <trkpt lat="45.55268" lon="3.3151">
        <ele>447</ele>
        <time>2012-10-21T06:42:53.000Z</time>
      </trkpt>
      <trkpt lat="45.55271" lon="3.31513">
        <ele>447</ele>
        <time>2012-10-21T06:42:54.000Z</time>
      </trkpt>
      <trkpt lat="45.55273" lon="3.31516">
        <ele>447</ele>
        <time>2012-10-21T06:42:55.000Z</time>
      </trkpt>
      <trkpt lat="45.55276" lon="3.31519">
        <ele>447</ele>
        <time>2012-10-21T06:42:56.000Z</time>
      </trkpt>
      <trkpt lat="45.55279" lon="3.31523">
        <ele>448</ele>
        <time>2012-10-21T06:42:57.000Z</time>
      </trkpt>
      <trkpt lat="45.55281" lon="3.31526">
        <ele>448</ele>
        <time>2012-10-21T06:42:58.000Z</time>
      </trkpt>
      <trkpt lat="45.55284" lon="3.31529">
        <ele>448</ele>
        <time>2012-10-21T06:42:59.000Z</time>
      </trkpt>
      <trkpt lat="45.55286" lon="3.31532">
        <ele>448</ele>
        <time>2012-10-21T06:43:00.000Z</time>
      </trkpt>
      <trkpt lat="45.55288" lon="3.31536">
        <ele>449</ele>
        <time>2012-10-21T06:43:01.000Z</time>
      </trkpt>
      <trkpt lat="45.55291" lon="3.31539">
        <ele>449</ele>
        <time>2012-10-21T06:43:02.000Z</time>
      </trkpt>
      <trkpt lat="45.55293" lon="3.31542">
        <ele>450</ele>
        <time>2012-10-21T06:43:03.000Z</time>
      </trkpt>
      <trkpt lat="45.55296" lon="3.31545">
        <ele>450</ele>
        <time>2012-10-21T06:43:04.000Z</time>
      </trkpt>
      <trkpt lat="45.55299" lon="3.31548">
        <ele>450</ele>
        <time>2012-10-21T06:43:05.000Z</time>
      </trkpt>
      <trkpt lat="45.55301" lon="3.31551">
        <ele>450</ele>
        <time>2012-10-21T06:43:06.000Z</time>
      </trkpt>
      <trkpt lat="45.55304" lon="3.31554">
        <ele>451</ele>
        <time>2012-10-21T06:43:07.000Z</time>
      </trkpt>
      <trkpt lat="45.55306" lon="3.31557">
        <ele>451</ele>
        <time>2012-10-21T06:43:08.000Z</time>
      </trkpt>
      <trkpt lat="45.55309" lon="3.3156">
        <ele>451</ele>
        <time>2012-10-21T06:43:09.000Z</time>
      </trkpt>
      <trkpt lat="45.55312" lon="3.31564">
        <ele>451</ele>
        <time>2012-10-21T06:43:10.000Z</time>
      </trkpt>
      <trkpt lat="45.55314" lon="3.31567">
        <ele>452</ele>
        <time>2012-10-21T06:43:11.000Z</time>
      </trkpt>
      <trkpt lat="45.55317" lon="3.3157">
        <ele>452</ele>
        <time>2012-10-21T06:43:12.000Z</time>
      </trkpt>
      <trkpt lat="45.5532" lon="3.31572">
        <ele>452</ele>
        <time>2012-10-21T06:43:13.000Z</time>
      </trkpt>
      <trkpt lat="45.55323" lon="3.31576">
        <ele>453</ele>
        <time>2012-10-21T06:43:14.000Z</time>
      </trkpt>
      <trkpt lat="45.55326" lon="3.31579">
        <ele>452</ele>
        <time>2012-10-21T06:43:15.000Z</time>
      </trkpt>
      <trkpt lat="45.55328" lon="3.31582">
        <ele>453</ele>
        <time>2012-10-21T06:43:16.000Z</time>
      </trkpt>
      <trkpt lat="45.55331" lon="3.31585">
        <ele>453</ele>
        <time>2012-10-21T06:43:17.000Z</time>
      </trkpt>
      <trkpt lat="45.55334" lon="3.31588">
        <ele>453</ele>
        <time>2012-10-21T06:43:18.000Z</time>
      </trkpt>
      <trkpt lat="45.55337" lon="3.31592">
        <ele>453</ele>
        <time>2012-10-21T06:43:19.000Z</time>
      </trkpt>
      <trkpt lat="45.5534" lon="3.31595">
        <ele>453</ele>
        <time>2012-10-21T06:43:20.000Z</time>
      </trkpt>
      <trkpt lat="45.55343" lon="3.31598">
        <ele>454</ele>
        <time>2012-10-21T06:43:21.000Z</time>
      </trkpt>
      <trkpt lat="45.55345" lon="3.31601">
        <ele>454</ele>
        <time>2012-10-21T06:43:22.000Z</time>
      </trkpt>
      <trkpt lat="45.55348" lon="3.31604">
        <ele>454</ele>
        <time>2012-10-21T06:43:23.000Z</time>
      </trkpt>
      <trkpt lat="45.55351" lon="3.31606">
        <ele>454</ele>
        <time>2012-10-21T06:43:24.000Z</time>
      </trkpt>
      <trkpt lat="45.55354" lon="3.31608">
        <ele>453</ele>
        <time>2012-10-21T06:43:25.000Z</time>
      </trkpt>
      <trkpt lat="45.55358" lon="3.31611">
        <ele>453</ele>
        <time>2012-10-21T06:43:26.000Z</time>
      </trkpt>
      <trkpt lat="45.55361" lon="3.31613">
        <ele>453</ele>
        <time>2012-10-21T06:43:27.000Z</time>
      </trkpt>
      <trkpt lat="45.55364" lon="3.31616">
        <ele>452</ele>
        <time>2012-10-21T06:43:28.000Z</time>
      </trkpt>
      <trkpt lat="45.55368" lon="3.31619">
        <ele>452</ele>
        <time>2012-10-21T06:43:29.000Z</time>
      </trkpt>
      <trkpt lat="45.55371" lon="3.31621">
        <ele>452</ele>
        <time>2012-10-21T06:43:30.000Z</time>
      </trkpt>
      <trkpt lat="45.55374" lon="3.31624">
        <ele>454</ele>
        <time>2012-10-21T06:43:31.000Z</time>
      </trkpt>
      <trkpt lat="45.55378" lon="3.31627">
        <ele>454</ele>
        <time>2012-10-21T06:43:32.000Z</time>
      </trkpt>
      <trkpt lat="45.55381" lon="3.31629">
        <ele>454</ele>
        <time>2012-10-21T06:43:33.000Z</time>
      </trkpt>
      <trkpt lat="45.55385" lon="3.31632">
        <ele>454</ele>
        <time>2012-10-21T06:43:34.000Z</time>
      </trkpt>
      <trkpt lat="45.55389" lon="3.31635">
        <ele>453</ele>
        <time>2012-10-21T06:43:35.000Z</time>
      </trkpt>
      <trkpt lat="45.55393" lon="3.31637">
        <ele>452</ele>
        <time>2012-10-21T06:43:36.000Z</time>
      </trkpt>
      <trkpt lat="45.55396" lon="3.3164">
        <ele>452</ele>
        <time>2012-10-21T06:43:37.000Z</time>
      </trkpt>
      <trkpt lat="45.554" lon="3.31643">
        <ele>453</ele>
        <time>2012-10-21T06:43:38.000Z</time>
      </trkpt>
      <trkpt lat="45.55403" lon="3.31645">
        <ele>454</ele>
        <time>2012-10-21T06:43:39.000Z</time>
      </trkpt>
      <trkpt lat="45.55407" lon="3.31648">
        <ele>454</ele>
        <time>2012-10-21T06:43:40.000Z</time>
      </trkpt>
      <trkpt lat="45.5541" lon="3.31651">
        <ele>454</ele>
        <time>2012-10-21T06:43:41.000Z</time>
      </trkpt>
      <trkpt lat="45.55414" lon="3.31653">
        <ele>454</ele>
        <time>2012-10-21T06:43:42.000Z</time>
      </trkpt>
      <trkpt lat="45.55418" lon="3.31656">
        <ele>454</ele>
        <time>2012-10-21T06:43:43.000Z</time>
      </trkpt>
      <trkpt lat="45.55421" lon="3.31658">
        <ele>454</ele>
        <time>2012-10-21T06:43:44.000Z</time>
      </trkpt>
      <trkpt lat="45.55425" lon="3.31661">
        <ele>454</ele>
        <time>2012-10-21T06:43:45.000Z</time>
      </trkpt>
      <trkpt lat="45.55428" lon="3.31664">
        <ele>454</ele>
        <time>2012-10-21T06:43:46.000Z</time>
      </trkpt>
      <trkpt lat="45.55432" lon="3.31666">
        <ele>455</ele>
        <time>2012-10-21T06:43:47.000Z</time>
      </trkpt>
      <trkpt lat="45.55436" lon="3.31669">
        <ele>456</ele>
        <time>2012-10-21T06:43:48.000Z</time>
      </trkpt>
      <trkpt lat="45.5544" lon="3.31672">
        <ele>455</ele>
        <time>2012-10-21T06:43:49.000Z</time>
      </trkpt>
      <trkpt lat="45.55444" lon="3.31676">
        <ele>455</ele>
        <time>2012-10-21T06:43:50.000Z</time>
      </trkpt>
      <trkpt lat="45.55447" lon="3.31679">
        <ele>455</ele>
        <time>2012-10-21T06:43:51.000Z</time>
      </trkpt>
      <trkpt lat="45.55451" lon="3.31681">
        <ele>455</ele>
        <time>2012-10-21T06:43:52.000Z</time>
      </trkpt>
      <trkpt lat="45.55455" lon="3.31684">
        <ele>454</ele>
        <time>2012-10-21T06:43:53.000Z</time>
      </trkpt>
      <trkpt lat="45.55459" lon="3.31687">
        <ele>455</ele>
        <time>2012-10-21T06:43:54.000Z</time>
      </trkpt>
      <trkpt lat="45.55462" lon="3.3169">
        <ele>456</ele>
        <time>2012-10-21T06:43:55.000Z</time>
      </trkpt>
      <trkpt lat="45.55466" lon="3.31693">
        <ele>456</ele>
        <time>2012-10-21T06:43:56.000Z</time>
      </trkpt>
      <trkpt lat="45.5547" lon="3.31695">
        <ele>457</ele>
        <time>2012-10-21T06:43:57.000Z</time>
      </trkpt>
      <trkpt lat="45.55474" lon="3.31698">
        <ele>457</ele>
        <time>2012-10-21T06:43:58.000Z</time>
      </trkpt>
      <trkpt lat="45.55478" lon="3.31701">
        <ele>457</ele>
        <time>2012-10-21T06:43:59.000Z</time>
      </trkpt>
      <trkpt lat="45.55483" lon="3.31704">
        <ele>456</ele>
        <time>2012-10-21T06:44:00.000Z</time>
      </trkpt>
      <trkpt lat="45.55487" lon="3.31707">
        <ele>457</ele>
        <time>2012-10-21T06:44:01.000Z</time>
      </trkpt>
      <trkpt lat="45.55492" lon="3.3171">
        <ele>458</ele>
        <time>2012-10-21T06:44:02.000Z</time>
      </trkpt>
      <trkpt lat="45.55496" lon="3.31712">
        <ele>458</ele>
        <time>2012-10-21T06:44:03.000Z</time>
      </trkpt>
      <trkpt lat="45.55501" lon="3.31714">
        <ele>456</ele>
        <time>2012-10-21T06:44:04.000Z</time>
      </trkpt>
      <trkpt lat="45.55507" lon="3.31715">
        <ele>456</ele>
        <time>2012-10-21T06:44:05.000Z</time>
      </trkpt>
      <trkpt lat="45.55513" lon="3.31717">
        <ele>456</ele>
        <time>2012-10-21T06:44:06.000Z</time>
      </trkpt>
      <trkpt lat="45.55518" lon="3.31718">
        <ele>454</ele>
        <time>2012-10-21T06:44:07.000Z</time>
      </trkpt>
      <trkpt lat="45.55524" lon="3.31719">
        <ele>454</ele>
        <time>2012-10-21T06:44:08.000Z</time>
      </trkpt>
      <trkpt lat="45.5553" lon="3.3172">
        <ele>453</ele>
        <time>2012-10-21T06:44:09.000Z</time>
      </trkpt>
      <trkpt lat="45.55536" lon="3.31721">
        <ele>454</ele>
        <time>2012-10-21T06:44:10.000Z</time>
      </trkpt>
      <trkpt lat="45.55542" lon="3.31722">
        <ele>454</ele>
        <time>2012-10-21T06:44:11.000Z</time>
      </trkpt>
      <trkpt lat="45.55548" lon="3.31722">
        <ele>454</ele>
        <time>2012-10-21T06:44:12.000Z</time>
      </trkpt>
      <trkpt lat="45.55553" lon="3.31722">
        <ele>454</ele>
        <time>2012-10-21T06:44:13.000Z</time>
      </trkpt>
      <trkpt lat="45.55557" lon="3.31723">
        <ele>453</ele>
        <time>2012-10-21T06:44:14.000Z</time>
      </trkpt>
      <trkpt lat="45.55562" lon="3.31723">
        <ele>454</ele>
        <time>2012-10-21T06:44:15.000Z</time>
      </trkpt>
      <trkpt lat="45.55567" lon="3.31723">
        <ele>453</ele>
        <time>2012-10-21T06:44:16.000Z</time>
      </trkpt>
      <trkpt lat="45.55572" lon="3.31723">
        <ele>454</ele>
        <time>2012-10-21T06:44:17.000Z</time>
      </trkpt>
      <trkpt lat="45.55577" lon="3.31723">
        <ele>454</ele>
        <time>2012-10-21T06:44:18.000Z</time>
      </trkpt>
      <trkpt lat="45.55582" lon="3.31723">
        <ele>454</ele>
        <time>2012-10-21T06:44:19.000Z</time>
      </trkpt>
      <trkpt lat="45.55587" lon="3.31723">
        <ele>455</ele>
        <time>2012-10-21T06:44:20.000Z</time>
      </trkpt>
      <trkpt lat="45.55593" lon="3.31723">
        <ele>455</ele>
        <time>2012-10-21T06:44:21.000Z</time>
      </trkpt>
      <trkpt lat="45.55598" lon="3.31723">
        <ele>454</ele>
        <time>2012-10-21T06:44:22.000Z</time>
      </trkpt>
      <trkpt lat="45.55603" lon="3.31723">
        <ele>454</ele>
        <time>2012-10-21T06:44:23.000Z</time>
      </trkpt>
      <trkpt lat="45.55608" lon="3.31723">
        <ele>454</ele>
        <time>2012-10-21T06:44:24.000Z</time>
      </trkpt>
      <trkpt lat="45.55613" lon="3.31722">
        <ele>454</ele>
        <time>2012-10-21T06:44:25.000Z</time>
      </trkpt>
      <trkpt lat="45.55618" lon="3.31721">
        <ele>454</ele>
        <time>2012-10-21T06:44:26.000Z</time>
      </trkpt>
      <trkpt lat="45.55622" lon="3.31721">
        <ele>454</ele>
        <time>2012-10-21T06:44:27.000Z</time>
      </trkpt>
      <trkpt lat="45.55627" lon="3.3172">
        <ele>454</ele>
        <time>2012-10-21T06:44:28.000Z</time>
      </trkpt>
      <trkpt lat="45.55632" lon="3.31719">
        <ele>455</ele>
        <time>2012-10-21T06:44:29.000Z</time>
      </trkpt>
      <trkpt lat="45.55637" lon="3.31718">
        <ele>455</ele>
        <time>2012-10-21T06:44:30.000Z</time>
      </trkpt>
      <trkpt lat="45.55642" lon="3.31718">
        <ele>455</ele>
        <time>2012-10-21T06:44:31.000Z</time>
      </trkpt>
      <trkpt lat="45.55647" lon="3.31717">
        <ele>455</ele>
        <time>2012-10-21T06:44:32.000Z</time>
      </trkpt>
      <trkpt lat="45.55652" lon="3.31716">
        <ele>455</ele>
        <time>2012-10-21T06:44:33.000Z</time>
      </trkpt>
      <trkpt lat="45.55657" lon="3.31715">
        <ele>454</ele>
        <time>2012-10-21T06:44:34.000Z</time>
      </trkpt>
      <trkpt lat="45.55662" lon="3.31715">
        <ele>454</ele>
        <time>2012-10-21T06:44:35.000Z</time>
      </trkpt>
      <trkpt lat="45.55668" lon="3.31715">
        <ele>454</ele>
        <time>2012-10-21T06:44:36.000Z</time>
      </trkpt>
      <trkpt lat="45.55674" lon="3.31715">
        <ele>453</ele>
        <time>2012-10-21T06:44:37.000Z</time>
      </trkpt>
      <trkpt lat="45.5568" lon="3.31716">
        <ele>453</ele>
        <time>2012-10-21T06:44:38.000Z</time>
      </trkpt>
      <trkpt lat="45.55687" lon="3.31718">
        <ele>453</ele>
        <time>2012-10-21T06:44:39.000Z</time>
      </trkpt>
      <trkpt lat="45.55694" lon="3.31719">
        <ele>453</ele>
        <time>2012-10-21T06:44:40.000Z</time>
      </trkpt>
      <trkpt lat="45.55701" lon="3.31721">
        <ele>453</ele>
        <time>2012-10-21T06:44:41.000Z</time>
      </trkpt>
      <trkpt lat="45.55708" lon="3.31723">
        <ele>452</ele>
        <time>2012-10-21T06:44:42.000Z</time>
      </trkpt>
      <trkpt lat="45.55714" lon="3.31726">
        <ele>452</ele>
        <time>2012-10-21T06:44:43.000Z</time>
      </trkpt>
      <trkpt lat="45.55721" lon="3.31728">
        <ele>452</ele>
        <time>2012-10-21T06:44:44.000Z</time>
      </trkpt>
      <trkpt lat="45.55727" lon="3.3173">
        <ele>452</ele>
        <time>2012-10-21T06:44:45.000Z</time>
      </trkpt>
      <trkpt lat="45.55733" lon="3.31732">
        <ele>452</ele>
        <time>2012-10-21T06:44:46.000Z</time>
      </trkpt>
      <trkpt lat="45.55739" lon="3.31735">
        <ele>452</ele>
        <time>2012-10-21T06:44:47.000Z</time>
      </trkpt>
      <trkpt lat="45.55745" lon="3.31738">
        <ele>452</ele>
        <time>2012-10-21T06:44:48.000Z</time>
      </trkpt>
      <trkpt lat="45.55751" lon="3.31741">
        <ele>452</ele>
        <time>2012-10-21T06:44:49.000Z</time>
      </trkpt>
      <trkpt lat="45.55757" lon="3.31744">
        <ele>452</ele>
        <time>2012-10-21T06:44:50.000Z</time>
      </trkpt>
      <trkpt lat="45.55763" lon="3.31746">
        <ele>452</ele>
        <time>2012-10-21T06:44:51.000Z</time>
      </trkpt>
      <trkpt lat="45.55769" lon="3.31748">
        <ele>451</ele>
        <time>2012-10-21T06:44:52.000Z</time>
      </trkpt>
      <trkpt lat="45.55775" lon="3.31749">
        <ele>451</ele>
        <time>2012-10-21T06:44:53.000Z</time>
      </trkpt>
      <trkpt lat="45.55782" lon="3.31749">
        <ele>451</ele>
        <time>2012-10-21T06:44:54.000Z</time>
      </trkpt>
      <trkpt lat="45.55789" lon="3.31749">
        <ele>450</ele>
        <time>2012-10-21T06:44:55.000Z</time>
      </trkpt>
      <trkpt lat="45.55796" lon="3.31749">
        <ele>450</ele>
        <time>2012-10-21T06:44:56.000Z</time>
      </trkpt>
      <trkpt lat="45.55803" lon="3.31749">
        <ele>450</ele>
        <time>2012-10-21T06:44:57.000Z</time>
      </trkpt>
      <trkpt lat="45.55811" lon="3.3175">
        <ele>450</ele>
        <time>2012-10-21T06:44:58.000Z</time>
      </trkpt>
      <trkpt lat="45.55818" lon="3.31752">
        <ele>449</ele>
        <time>2012-10-21T06:44:59.000Z</time>
      </trkpt>
      <trkpt lat="45.55826" lon="3.31755">
        <ele>449</ele>
        <time>2012-10-21T06:45:00.000Z</time>
      </trkpt>
      <trkpt lat="45.55833" lon="3.31757">
        <ele>449</ele>
        <time>2012-10-21T06:45:01.000Z</time>
      </trkpt>
      <trkpt lat="45.5584" lon="3.3176">
        <ele>449</ele>
        <time>2012-10-21T06:45:02.000Z</time>
      </trkpt>
      <trkpt lat="45.55847" lon="3.31763">
        <ele>449</ele>
        <time>2012-10-21T06:45:03.000Z</time>
      </trkpt>
      <trkpt lat="45.55854" lon="3.31766">
        <ele>448</ele>
        <time>2012-10-21T06:45:04.000Z</time>
      </trkpt>
      <trkpt lat="45.55861" lon="3.31769">
        <ele>448</ele>
        <time>2012-10-21T06:45:05.000Z</time>
      </trkpt>
      <trkpt lat="45.55867" lon="3.31772">
        <ele>448</ele>
        <time>2012-10-21T06:45:06.000Z</time>
      </trkpt>
      <trkpt lat="45.55874" lon="3.31774">
        <ele>448</ele>
        <time>2012-10-21T06:45:07.000Z</time>
      </trkpt>
      <trkpt lat="45.55881" lon="3.31777">
        <ele>448</ele>
        <time>2012-10-21T06:45:08.000Z</time>
      </trkpt>
      <trkpt lat="45.55888" lon="3.3178">
        <ele>447</ele>
        <time>2012-10-21T06:45:09.000Z</time>
      </trkpt>
      <trkpt lat="45.55894" lon="3.31783">
        <ele>447</ele>
        <time>2012-10-21T06:45:10.000Z</time>
      </trkpt>
      <trkpt lat="45.559" lon="3.31785">
        <ele>447</ele>
        <time>2012-10-21T06:45:11.000Z</time>
      </trkpt>
      <trkpt lat="45.55906" lon="3.31787">
        <ele>447</ele>
        <time>2012-10-21T06:45:12.000Z</time>
      </trkpt>
      <trkpt lat="45.55912" lon="3.3179">
        <ele>447</ele>
        <time>2012-10-21T06:45:13.000Z</time>
      </trkpt>
      <trkpt lat="45.55918" lon="3.31792">
        <ele>446</ele>
        <time>2012-10-21T06:45:14.000Z</time>
      </trkpt>
      <trkpt lat="45.55924" lon="3.31794">
        <ele>446</ele>
        <time>2012-10-21T06:45:15.000Z</time>
      </trkpt>
      <trkpt lat="45.5593" lon="3.31796">
        <ele>446</ele>
        <time>2012-10-21T06:45:16.000Z</time>
      </trkpt>
      <trkpt lat="45.55937" lon="3.31798">
        <ele>443</ele>
        <time>2012-10-21T06:45:17.000Z</time>
      </trkpt>
      <trkpt lat="45.55943" lon="3.31801">
        <ele>443</ele>
        <time>2012-10-21T06:45:18.000Z</time>
      </trkpt>
      <trkpt lat="45.5595" lon="3.31803">
        <ele>443</ele>
        <time>2012-10-21T06:45:19.000Z</time>
      </trkpt>
      <trkpt lat="45.55956" lon="3.31805">
        <ele>443</ele>
        <time>2012-10-21T06:45:20.000Z</time>
      </trkpt>
      <trkpt lat="45.55962" lon="3.31807">
        <ele>443</ele>
        <time>2012-10-21T06:45:21.000Z</time>
      </trkpt>
      <trkpt lat="45.55968" lon="3.31809">
        <ele>444</ele>
        <time>2012-10-21T06:45:22.000Z</time>
      </trkpt>
      <trkpt lat="45.55974" lon="3.31812">
        <ele>443</ele>
        <time>2012-10-21T06:45:23.000Z</time>
      </trkpt>
      <trkpt lat="45.5598" lon="3.31814">
        <ele>443</ele>
        <time>2012-10-21T06:45:24.000Z</time>
      </trkpt>
      <trkpt lat="45.55985" lon="3.31816">
        <ele>444</ele>
        <time>2012-10-21T06:45:25.000Z</time>
      </trkpt>
      <trkpt lat="45.55991" lon="3.31819">
        <ele>445</ele>
        <time>2012-10-21T06:45:26.000Z</time>
      </trkpt>
      <trkpt lat="45.55997" lon="3.31821">
        <ele>444</ele>
        <time>2012-10-21T06:45:27.000Z</time>
      </trkpt>
      <trkpt lat="45.56003" lon="3.31824">
        <ele>445</ele>
        <time>2012-10-21T06:45:28.000Z</time>
      </trkpt>
      <trkpt lat="45.56008" lon="3.31826">
        <ele>445</ele>
        <time>2012-10-21T06:45:29.000Z</time>
      </trkpt>
      <trkpt lat="45.56014" lon="3.31829">
        <ele>446</ele>
        <time>2012-10-21T06:45:30.000Z</time>
      </trkpt>
      <trkpt lat="45.5602" lon="3.31831">
        <ele>445</ele>
        <time>2012-10-21T06:45:31.000Z</time>
      </trkpt>
      <trkpt lat="45.56026" lon="3.31834">
        <ele>445</ele>
        <time>2012-10-21T06:45:32.000Z</time>
      </trkpt>
      <trkpt lat="45.56031" lon="3.31836">
        <ele>445</ele>
        <time>2012-10-21T06:45:33.000Z</time>
      </trkpt>
      <trkpt lat="45.56037" lon="3.31839">
        <ele>445</ele>
        <time>2012-10-21T06:45:34.000Z</time>
      </trkpt>
      <trkpt lat="45.56042" lon="3.31841">
        <ele>446</ele>
        <time>2012-10-21T06:45:35.000Z</time>
      </trkpt>
      <trkpt lat="45.56047" lon="3.31843">
        <ele>446</ele>
        <time>2012-10-21T06:45:36.000Z</time>
      </trkpt>
      <trkpt lat="45.56053" lon="3.31845">
        <ele>445</ele>
        <time>2012-10-21T06:45:37.000Z</time>
      </trkpt>
      <trkpt lat="45.56058" lon="3.31847">
        <ele>444</ele>
        <time>2012-10-21T06:45:38.000Z</time>
      </trkpt>
      <trkpt lat="45.56063" lon="3.31849">
        <ele>443</ele>
        <time>2012-10-21T06:45:39.000Z</time>
      </trkpt>
      <trkpt lat="45.56068" lon="3.31851">
        <ele>443</ele>
        <time>2012-10-21T06:45:40.000Z</time>
      </trkpt>
      <trkpt lat="45.56073" lon="3.31853">
        <ele>443</ele>
        <time>2012-10-21T06:45:41.000Z</time>
      </trkpt>
      <trkpt lat="45.56079" lon="3.31855">
        <ele>443</ele>
        <time>2012-10-21T06:45:42.000Z</time>
      </trkpt>
      <trkpt lat="45.56084" lon="3.31857">
        <ele>442</ele>
        <time>2012-10-21T06:45:43.000Z</time>
      </trkpt>
      <trkpt lat="45.56089" lon="3.31858">
        <ele>443</ele>
        <time>2012-10-21T06:45:44.000Z</time>
      </trkpt>
      <trkpt lat="45.56094" lon="3.3186">
        <ele>444</ele>
        <time>2012-10-21T06:45:45.000Z</time>
      </trkpt>
      <trkpt lat="45.56099" lon="3.31862">
        <ele>442</ele>
        <time>2012-10-21T06:45:46.000Z</time>
      </trkpt>
      <trkpt lat="45.56105" lon="3.31864">
        <ele>442</ele>
        <time>2012-10-21T06:45:47.000Z</time>
      </trkpt>
      <trkpt lat="45.5611" lon="3.31866">
        <ele>442</ele>
        <time>2012-10-21T06:45:48.000Z</time>
      </trkpt>
      <trkpt lat="45.56115" lon="3.31868">
        <ele>443</ele>
        <time>2012-10-21T06:45:49.000Z</time>
      </trkpt>
      <trkpt lat="45.5612" lon="3.3187">
        <ele>443</ele>
        <time>2012-10-21T06:45:50.000Z</time>
      </trkpt>
      <trkpt lat="45.56125" lon="3.31872">
        <ele>444</ele>
        <time>2012-10-21T06:45:51.000Z</time>
      </trkpt>
      <trkpt lat="45.5613" lon="3.31875">
        <ele>445</ele>
        <time>2012-10-21T06:45:52.000Z</time>
      </trkpt>
      <trkpt lat="45.56135" lon="3.31877">
        <ele>446</ele>
        <time>2012-10-21T06:45:53.000Z</time>
      </trkpt>
      <trkpt lat="45.5614" lon="3.31879">
        <ele>447</ele>
        <time>2012-10-21T06:45:54.000Z</time>
      </trkpt>
      <trkpt lat="45.56143" lon="3.31885">
        <ele>448</ele>
        <time>2012-10-21T06:45:55.000Z</time>
      </trkpt>
      <trkpt lat="45.56145" lon="3.31891">
        <ele>449</ele>
        <time>2012-10-21T06:45:56.000Z</time>
      </trkpt>
      <trkpt lat="45.56146" lon="3.31898">
        <ele>448</ele>
        <time>2012-10-21T06:45:57.000Z</time>
      </trkpt>
      <trkpt lat="45.56147" lon="3.31904">
        <ele>448</ele>
        <time>2012-10-21T06:45:58.000Z</time>
      </trkpt>
      <trkpt lat="45.56149" lon="3.31911">
        <ele>447</ele>
        <time>2012-10-21T06:45:59.000Z</time>
      </trkpt>
      <trkpt lat="45.56153" lon="3.31915">
        <ele>447</ele>
        <time>2012-10-21T06:46:00.000Z</time>
      </trkpt>
      <trkpt lat="45.56159" lon="3.31917">
        <ele>446</ele>
        <time>2012-10-21T06:46:01.000Z</time>
      </trkpt>
      <trkpt lat="45.56164" lon="3.31917">
        <ele>446</ele>
        <time>2012-10-21T06:46:02.000Z</time>
      </trkpt>
      <trkpt lat="45.5617" lon="3.31917">
        <ele>446</ele>
        <time>2012-10-21T06:46:03.000Z</time>
      </trkpt>
      <trkpt lat="45.56175" lon="3.31916">
        <ele>444</ele>
        <time>2012-10-21T06:46:04.000Z</time>
      </trkpt>
      <trkpt lat="45.5618" lon="3.31915">
        <ele>444</ele>
        <time>2012-10-21T06:46:05.000Z</time>
      </trkpt>
      <trkpt lat="45.56186" lon="3.31914">
        <ele>443</ele>
        <time>2012-10-21T06:46:06.000Z</time>
      </trkpt>
      <trkpt lat="45.56192" lon="3.31912">
        <ele>442</ele>
        <time>2012-10-21T06:46:07.000Z</time>
      </trkpt>
      <trkpt lat="45.56198" lon="3.3191">
        <ele>441</ele>
        <time>2012-10-21T06:46:08.000Z</time>
      </trkpt>
      <trkpt lat="45.56204" lon="3.31907">
        <ele>441</ele>
        <time>2012-10-21T06:46:09.000Z</time>
      </trkpt>
      <trkpt lat="45.56211" lon="3.31904">
        <ele>440</ele>
        <time>2012-10-21T06:46:10.000Z</time>
      </trkpt>
      <trkpt lat="45.56217" lon="3.319">
        <ele>440</ele>
        <time>2012-10-21T06:46:11.000Z</time>
      </trkpt>
      <trkpt lat="45.56224" lon="3.31897">
        <ele>440</ele>
        <time>2012-10-21T06:46:12.000Z</time>
      </trkpt>
      <trkpt lat="45.5623" lon="3.31894">
        <ele>440</ele>
        <time>2012-10-21T06:46:13.000Z</time>
      </trkpt>
      <trkpt lat="45.56237" lon="3.31891">
        <ele>440</ele>
        <time>2012-10-21T06:46:14.000Z</time>
      </trkpt>
      <trkpt lat="45.56244" lon="3.31889">
        <ele>441</ele>
        <time>2012-10-21T06:46:15.000Z</time>
      </trkpt>
      <trkpt lat="45.5625" lon="3.31888">
        <ele>439</ele>
        <time>2012-10-21T06:46:16.000Z</time>
      </trkpt>
      <trkpt lat="45.56255" lon="3.31887">
        <ele>439</ele>
        <time>2012-10-21T06:46:17.000Z</time>
      </trkpt>
      <trkpt lat="45.56261" lon="3.31887">
        <ele>439</ele>
        <time>2012-10-21T06:46:18.000Z</time>
      </trkpt>
      <trkpt lat="45.56267" lon="3.31889">
        <ele>441</ele>
        <time>2012-10-21T06:46:19.000Z</time>
      </trkpt>
      <trkpt lat="45.56273" lon="3.31892">
        <ele>442</ele>
        <time>2012-10-21T06:46:20.000Z</time>
      </trkpt>
      <trkpt lat="45.56278" lon="3.31895">
        <ele>443</ele>
        <time>2012-10-21T06:46:21.000Z</time>
      </trkpt>
      <trkpt lat="45.56283" lon="3.319">
        <ele>444</ele>
        <time>2012-10-21T06:46:22.000Z</time>
      </trkpt>
      <trkpt lat="45.56287" lon="3.31905">
        <ele>444</ele>
        <time>2012-10-21T06:46:23.000Z</time>
      </trkpt>
      <trkpt lat="45.56292" lon="3.31911">
        <ele>443</ele>
        <time>2012-10-21T06:46:24.000Z</time>
      </trkpt>
      <trkpt lat="45.56296" lon="3.31916">
        <ele>443</ele>
        <time>2012-10-21T06:46:25.000Z</time>
      </trkpt>
      <trkpt lat="45.56301" lon="3.31922">
        <ele>443</ele>
        <time>2012-10-21T06:46:26.000Z</time>
      </trkpt>
      <trkpt lat="45.56305" lon="3.31928">
        <ele>444</ele>
        <time>2012-10-21T06:46:27.000Z</time>
      </trkpt>
      <trkpt lat="45.56309" lon="3.31934">
        <ele>444</ele>
        <time>2012-10-21T06:46:28.000Z</time>
      </trkpt>
      <trkpt lat="45.56313" lon="3.3194">
        <ele>443</ele>
        <time>2012-10-21T06:46:29.000Z</time>
      </trkpt>
      <trkpt lat="45.56317" lon="3.31945">
        <ele>443</ele>
        <time>2012-10-21T06:46:30.000Z</time>
      </trkpt>
      <trkpt lat="45.56321" lon="3.3195">
        <ele>442</ele>
        <time>2012-10-21T06:46:31.000Z</time>
      </trkpt>
      <trkpt lat="45.56325" lon="3.31955">
        <ele>442</ele>
        <time>2012-10-21T06:46:32.000Z</time>
      </trkpt>
      <trkpt lat="45.56329" lon="3.3196">
        <ele>442</ele>
        <time>2012-10-21T06:46:33.000Z</time>
      </trkpt>
      <trkpt lat="45.56333" lon="3.31965">
        <ele>441</ele>
        <time>2012-10-21T06:46:34.000Z</time>
      </trkpt>
      <trkpt lat="45.56336" lon="3.3197">
        <ele>441</ele>
        <time>2012-10-21T06:46:35.000Z</time>
      </trkpt>
      <trkpt lat="45.5634" lon="3.31974">
        <ele>442</ele>
        <time>2012-10-21T06:46:36.000Z</time>
      </trkpt>
      <trkpt lat="45.56344" lon="3.31979">
        <ele>442</ele>
        <time>2012-10-21T06:46:37.000Z</time>
      </trkpt>
      <trkpt lat="45.56347" lon="3.31983">
        <ele>442</ele>
        <time>2012-10-21T06:46:38.000Z</time>
      </trkpt>
      <trkpt lat="45.5635" lon="3.31987">
        <ele>442</ele>
        <time>2012-10-21T06:46:39.000Z</time>
      </trkpt>
      <trkpt lat="45.56354" lon="3.31991">
        <ele>443</ele>
        <time>2012-10-21T06:46:40.000Z</time>
      </trkpt>
      <trkpt lat="45.56357" lon="3.31995">
        <ele>443</ele>
        <time>2012-10-21T06:46:41.000Z</time>
      </trkpt>
      <trkpt lat="45.56359" lon="3.32001">
        <ele>443</ele>
        <time>2012-10-21T06:46:42.000Z</time>
      </trkpt>
      <trkpt lat="45.56361" lon="3.32006">
        <ele>443</ele>
        <time>2012-10-21T06:46:43.000Z</time>
      </trkpt>
      <trkpt lat="45.56362" lon="3.32013">
        <ele>443</ele>
        <time>2012-10-21T06:46:44.000Z</time>
      </trkpt>
      <trkpt lat="45.56361" lon="3.32019">
        <ele>443</ele>
        <time>2012-10-21T06:46:45.000Z</time>
      </trkpt>
      <trkpt lat="45.56361" lon="3.32026">
        <ele>445</ele>
        <time>2012-10-21T06:46:46.000Z</time>
      </trkpt>
      <trkpt lat="45.5636" lon="3.32032">
        <ele>444</ele>
        <time>2012-10-21T06:46:47.000Z</time>
      </trkpt>
      <trkpt lat="45.56359" lon="3.32037">
        <ele>443</ele>
        <time>2012-10-21T06:46:48.000Z</time>
      </trkpt>
      <trkpt lat="45.56357" lon="3.32044">
        <ele>442</ele>
        <time>2012-10-21T06:46:49.000Z</time>
      </trkpt>
      <trkpt lat="45.56356" lon="3.3205">
        <ele>443</ele>
        <time>2012-10-21T06:46:50.000Z</time>
      </trkpt>
      <trkpt lat="45.56354" lon="3.32057">
        <ele>444</ele>
        <time>2012-10-21T06:46:51.000Z</time>
      </trkpt>
      <trkpt lat="45.56352" lon="3.32063">
        <ele>444</ele>
        <time>2012-10-21T06:46:52.000Z</time>
      </trkpt>
      <trkpt lat="45.5635" lon="3.32069">
        <ele>444</ele>
        <time>2012-10-21T06:46:53.000Z</time>
      </trkpt>
      <trkpt lat="45.56348" lon="3.32074">
        <ele>445</ele>
        <time>2012-10-21T06:46:54.000Z</time>
      </trkpt>
      <trkpt lat="45.56346" lon="3.3208">
        <ele>445</ele>
        <time>2012-10-21T06:46:55.000Z</time>
      </trkpt>
      <trkpt lat="45.56344" lon="3.32085">
        <ele>445</ele>
        <time>2012-10-21T06:46:56.000Z</time>
      </trkpt>
      <trkpt lat="45.56342" lon="3.32091">
        <ele>446</ele>
        <time>2012-10-21T06:46:57.000Z</time>
      </trkpt>
      <trkpt lat="45.5634" lon="3.32096">
        <ele>446</ele>
        <time>2012-10-21T06:46:58.000Z</time>
      </trkpt>
      <trkpt lat="45.56337" lon="3.32102">
        <ele>446</ele>
        <time>2012-10-21T06:46:59.000Z</time>
      </trkpt>
      <trkpt lat="45.56335" lon="3.32107">
        <ele>447</ele>
        <time>2012-10-21T06:47:00.000Z</time>
      </trkpt>
      <trkpt lat="45.56333" lon="3.32113">
        <ele>447</ele>
        <time>2012-10-21T06:47:01.000Z</time>
      </trkpt>
      <trkpt lat="45.56332" lon="3.32118">
        <ele>447</ele>
        <time>2012-10-21T06:47:02.000Z</time>
      </trkpt>
      <trkpt lat="45.5633" lon="3.32123">
        <ele>447</ele>
        <time>2012-10-21T06:47:03.000Z</time>
      </trkpt>
      <trkpt lat="45.56328" lon="3.32128">
        <ele>447</ele>
        <time>2012-10-21T06:47:04.000Z</time>
      </trkpt>
      <trkpt lat="45.56326" lon="3.32133">
        <ele>447</ele>
        <time>2012-10-21T06:47:05.000Z</time>
      </trkpt>
      <trkpt lat="45.56324" lon="3.32138">
        <ele>448</ele>
        <time>2012-10-21T06:47:06.000Z</time>
      </trkpt>
      <trkpt lat="45.56322" lon="3.32143">
        <ele>448</ele>
        <time>2012-10-21T06:47:07.000Z</time>
      </trkpt>
      <trkpt lat="45.5632" lon="3.32148">
        <ele>448</ele>
        <time>2012-10-21T06:47:08.000Z</time>
      </trkpt>
      <trkpt lat="45.56318" lon="3.32152">
        <ele>448</ele>
        <time>2012-10-21T06:47:09.000Z</time>
      </trkpt>
      <trkpt lat="45.56316" lon="3.32157">
        <ele>448</ele>
        <time>2012-10-21T06:47:10.000Z</time>
      </trkpt>
      <trkpt lat="45.56314" lon="3.32162">
        <ele>448</ele>
        <time>2012-10-21T06:47:11.000Z</time>
      </trkpt>
      <trkpt lat="45.56311" lon="3.32166">
        <ele>448</ele>
        <time>2012-10-21T06:47:12.000Z</time>
      </trkpt>
      <trkpt lat="45.56309" lon="3.32171">
        <ele>448</ele>
        <time>2012-10-21T06:47:13.000Z</time>
      </trkpt>
      <trkpt lat="45.56306" lon="3.32175">
        <ele>448</ele>
        <time>2012-10-21T06:47:14.000Z</time>
      </trkpt>
      <trkpt lat="45.56304" lon="3.32179">
        <ele>449</ele>
        <time>2012-10-21T06:47:15.000Z</time>
      </trkpt>
      <trkpt lat="45.56301" lon="3.32183">
        <ele>449</ele>
        <time>2012-10-21T06:47:16.000Z</time>
      </trkpt>
      <trkpt lat="45.56299" lon="3.32186">
        <ele>449</ele>
        <time>2012-10-21T06:47:17.000Z</time>
      </trkpt>
      <trkpt lat="45.56296" lon="3.32189">
        <ele>449</ele>
        <time>2012-10-21T06:47:18.000Z</time>
      </trkpt>
      <trkpt lat="45.56294" lon="3.32193">
        <ele>450</ele>
        <time>2012-10-21T06:47:19.000Z</time>
      </trkpt>
      <trkpt lat="45.56291" lon="3.32197">
        <ele>451</ele>
        <time>2012-10-21T06:47:20.000Z</time>
      </trkpt>
      <trkpt lat="45.56288" lon="3.32201">
        <ele>451</ele>
        <time>2012-10-21T06:47:21.000Z</time>
      </trkpt>
      <trkpt lat="45.56285" lon="3.32205">
        <ele>451</ele>
        <time>2012-10-21T06:47:22.000Z</time>
      </trkpt>
      <trkpt lat="45.56283" lon="3.32209">
        <ele>452</ele>
        <time>2012-10-21T06:47:23.000Z</time>
      </trkpt>
      <trkpt lat="45.5628" lon="3.32212">
        <ele>453</ele>
        <time>2012-10-21T06:47:24.000Z</time>
      </trkpt>
      <trkpt lat="45.56278" lon="3.32215">
        <ele>453</ele>
        <time>2012-10-21T06:47:25.000Z</time>
      </trkpt>
      <trkpt lat="45.56276" lon="3.32218">
        <ele>453</ele>
        <time>2012-10-21T06:47:26.000Z</time>
      </trkpt>
      <trkpt lat="45.56273" lon="3.32221">
        <ele>453</ele>
        <time>2012-10-21T06:47:27.000Z</time>
      </trkpt>
      <trkpt lat="45.56271" lon="3.32224">
        <ele>453</ele>
        <time>2012-10-21T06:47:28.000Z</time>
      </trkpt>
      <trkpt lat="45.56269" lon="3.32227">
        <ele>454</ele>
        <time>2012-10-21T06:47:29.000Z</time>
      </trkpt>
      <trkpt lat="45.56267" lon="3.32229">
        <ele>455</ele>
        <time>2012-10-21T06:47:30.000Z</time>
      </trkpt>
      <trkpt lat="45.56265" lon="3.32231">
        <ele>455</ele>
        <time>2012-10-21T06:47:31.000Z</time>
      </trkpt>
      <trkpt lat="45.56263" lon="3.32233">
        <ele>455</ele>
        <time>2012-10-21T06:47:32.000Z</time>
      </trkpt>
      <trkpt lat="45.5626" lon="3.32236">
        <ele>455</ele>
        <time>2012-10-21T06:47:33.000Z</time>
      </trkpt>
      <trkpt lat="45.56257" lon="3.32238">
        <ele>456</ele>
        <time>2012-10-21T06:47:34.000Z</time>
      </trkpt>
      <trkpt lat="45.56255" lon="3.3224">
        <ele>455</ele>
        <time>2012-10-21T06:47:35.000Z</time>
      </trkpt>
      <trkpt lat="45.56253" lon="3.32241">
        <ele>454</ele>
        <time>2012-10-21T06:47:36.000Z</time>
      </trkpt>
      <trkpt lat="45.5625" lon="3.32243">
        <ele>453</ele>
        <time>2012-10-21T06:47:37.000Z</time>
      </trkpt>
      <trkpt lat="45.56247" lon="3.32245">
        <ele>454</ele>
        <time>2012-10-21T06:47:38.000Z</time>
      </trkpt>
      <trkpt lat="45.56245" lon="3.32247">
        <ele>455</ele>
        <time>2012-10-21T06:47:39.000Z</time>
      </trkpt>
      <trkpt lat="45.56242" lon="3.32248">
        <ele>456</ele>
        <time>2012-10-21T06:47:40.000Z</time>
      </trkpt>
      <trkpt lat="45.56239" lon="3.3225">
        <ele>456</ele>
        <time>2012-10-21T06:47:41.000Z</time>
      </trkpt>
      <trkpt lat="45.56236" lon="3.32251">
        <ele>457</ele>
        <time>2012-10-21T06:47:42.000Z</time>
      </trkpt>
      <trkpt lat="45.56234" lon="3.32253">
        <ele>457</ele>
        <time>2012-10-21T06:47:43.000Z</time>
      </trkpt>
      <trkpt lat="45.56231" lon="3.32254">
        <ele>457</ele>
        <time>2012-10-21T06:47:44.000Z</time>
      </trkpt>
      <trkpt lat="45.56228" lon="3.32256">
        <ele>457</ele>
        <time>2012-10-21T06:47:45.000Z</time>
      </trkpt>
      <trkpt lat="45.56226" lon="3.32257">
        <ele>458</ele>
        <time>2012-10-21T06:47:46.000Z</time>
      </trkpt>
      <trkpt lat="45.56223" lon="3.32259">
        <ele>458</ele>
        <time>2012-10-21T06:47:47.000Z</time>
      </trkpt>
      <trkpt lat="45.5622" lon="3.3226">
        <ele>458</ele>
        <time>2012-10-21T06:47:48.000Z</time>
      </trkpt>
      <trkpt lat="45.56218" lon="3.32262">
        <ele>459</ele>
        <time>2012-10-21T06:47:49.000Z</time>
      </trkpt>
      <trkpt lat="45.56215" lon="3.32264">
        <ele>461</ele>
        <time>2012-10-21T06:47:50.000Z</time>
      </trkpt>
      <trkpt lat="45.56212" lon="3.32265">
        <ele>462</ele>
        <time>2012-10-21T06:47:51.000Z</time>
      </trkpt>
      <trkpt lat="45.5621" lon="3.32266">
        <ele>463</ele>
        <time>2012-10-21T06:47:52.000Z</time>
      </trkpt>
      <trkpt lat="45.56207" lon="3.32268">
        <ele>463</ele>
        <time>2012-10-21T06:47:53.000Z</time>
      </trkpt>
      <trkpt lat="45.56205" lon="3.32269">
        <ele>464</ele>
        <time>2012-10-21T06:47:54.000Z</time>
      </trkpt>
      <trkpt lat="45.56202" lon="3.32271">
        <ele>464</ele>
        <time>2012-10-21T06:47:55.000Z</time>
      </trkpt>
      <trkpt lat="45.562" lon="3.32272">
        <ele>464</ele>
        <time>2012-10-21T06:47:56.000Z</time>
      </trkpt>
      <trkpt lat="45.56197" lon="3.32274">
        <ele>464</ele>
        <time>2012-10-21T06:47:57.000Z</time>
      </trkpt>
      <trkpt lat="45.56195" lon="3.32276">
        <ele>464</ele>
        <time>2012-10-21T06:47:58.000Z</time>
      </trkpt>
      <trkpt lat="45.56192" lon="3.32277">
        <ele>464</ele>
        <time>2012-10-21T06:47:59.000Z</time>
      </trkpt>
      <trkpt lat="45.5619" lon="3.32279">
        <ele>465</ele>
        <time>2012-10-21T06:48:00.000Z</time>
      </trkpt>
      <trkpt lat="45.56187" lon="3.3228">
        <ele>465</ele>
        <time>2012-10-21T06:48:01.000Z</time>
      </trkpt>
      <trkpt lat="45.56184" lon="3.32282">
        <ele>465</ele>
        <time>2012-10-21T06:48:02.000Z</time>
      </trkpt>
      <trkpt lat="45.56182" lon="3.32284">
        <ele>465</ele>
        <time>2012-10-21T06:48:03.000Z</time>
      </trkpt>
      <trkpt lat="45.56179" lon="3.32286">
        <ele>465</ele>
        <time>2012-10-21T06:48:04.000Z</time>
      </trkpt>
      <trkpt lat="45.56177" lon="3.32287">
        <ele>466</ele>
        <time>2012-10-21T06:48:05.000Z</time>
      </trkpt>
      <trkpt lat="45.56175" lon="3.32289">
        <ele>466</ele>
        <time>2012-10-21T06:48:06.000Z</time>
      </trkpt>
      <trkpt lat="45.56173" lon="3.32292">
        <ele>467</ele>
        <time>2012-10-21T06:48:07.000Z</time>
      </trkpt>
      <trkpt lat="45.56171" lon="3.32295">
        <ele>468</ele>
        <time>2012-10-21T06:48:08.000Z</time>
      </trkpt>
      <trkpt lat="45.5617" lon="3.32298">
        <ele>467</ele>
        <time>2012-10-21T06:48:09.000Z</time>
      </trkpt>
      <trkpt lat="45.5617" lon="3.32302">
        <ele>468</ele>
        <time>2012-10-21T06:48:10.000Z</time>
      </trkpt>
      <trkpt lat="45.5617" lon="3.32305">
        <ele>467</ele>
        <time>2012-10-21T06:48:11.000Z</time>
      </trkpt>
      <trkpt lat="45.56171" lon="3.32309">
        <ele>466</ele>
        <time>2012-10-21T06:48:12.000Z</time>
      </trkpt>
      <trkpt lat="45.56172" lon="3.32312">
        <ele>467</ele>
        <time>2012-10-21T06:48:13.000Z</time>
      </trkpt>
      <trkpt lat="45.56176" lon="3.32315">
        <ele>468</ele>
        <time>2012-10-21T06:48:15.000Z</time>
      </trkpt>
      <trkpt lat="45.56178" lon="3.32317">
        <ele>469</ele>
        <time>2012-10-21T06:48:16.000Z</time>
      </trkpt>
      <trkpt lat="45.5618" lon="3.32318">
        <ele>468</ele>
        <time>2012-10-21T06:48:17.000Z</time>
      </trkpt>
      <trkpt lat="45.56183" lon="3.32319">
        <ele>469</ele>
        <time>2012-10-21T06:48:18.000Z</time>
      </trkpt>
      <trkpt lat="45.56186" lon="3.32321">
        <ele>471</ele>
        <time>2012-10-21T06:48:19.000Z</time>
      </trkpt>
      <trkpt lat="45.56189" lon="3.32323">
        <ele>473</ele>
        <time>2012-10-21T06:48:20.000Z</time>
      </trkpt>
      <trkpt lat="45.56193" lon="3.32325">
        <ele>473</ele>
        <time>2012-10-21T06:48:21.000Z</time>
      </trkpt>
      <trkpt lat="45.56196" lon="3.32327">
        <ele>472</ele>
        <time>2012-10-21T06:48:22.000Z</time>
      </trkpt>
      <trkpt lat="45.56199" lon="3.32329">
        <ele>473</ele>
        <time>2012-10-21T06:48:23.000Z</time>
      </trkpt>
      <trkpt lat="45.56203" lon="3.32331">
        <ele>473</ele>
        <time>2012-10-21T06:48:24.000Z</time>
      </trkpt>
      <trkpt lat="45.56206" lon="3.32332">
        <ele>473</ele>
        <time>2012-10-21T06:48:25.000Z</time>
      </trkpt>
      <trkpt lat="45.5621" lon="3.32334">
        <ele>473</ele>
        <time>2012-10-21T06:48:26.000Z</time>
      </trkpt>
      <trkpt lat="45.56213" lon="3.32336">
        <ele>474</ele>
        <time>2012-10-21T06:48:27.000Z</time>
      </trkpt>
      <trkpt lat="45.56216" lon="3.32337">
        <ele>474</ele>
        <time>2012-10-21T06:48:28.000Z</time>
      </trkpt>
      <trkpt lat="45.5622" lon="3.32339">
        <ele>474</ele>
        <time>2012-10-21T06:48:29.000Z</time>
      </trkpt>
      <trkpt lat="45.56223" lon="3.32341">
        <ele>474</ele>
        <time>2012-10-21T06:48:30.000Z</time>
      </trkpt>
      <trkpt lat="45.56226" lon="3.32342">
        <ele>473</ele>
        <time>2012-10-21T06:48:31.000Z</time>
      </trkpt>
      <trkpt lat="45.56229" lon="3.32344">
        <ele>472</ele>
        <time>2012-10-21T06:48:32.000Z</time>
      </trkpt>
      <trkpt lat="45.56232" lon="3.32346">
        <ele>473</ele>
        <time>2012-10-21T06:48:33.000Z</time>
      </trkpt>
      <trkpt lat="45.56235" lon="3.32348">
        <ele>474</ele>
        <time>2012-10-21T06:48:34.000Z</time>
      </trkpt>
      <trkpt lat="45.56239" lon="3.3235">
        <ele>475</ele>
        <time>2012-10-21T06:48:35.000Z</time>
      </trkpt>
      <trkpt lat="45.56242" lon="3.32352">
        <ele>474</ele>
        <time>2012-10-21T06:48:36.000Z</time>
      </trkpt>
      <trkpt lat="45.56244" lon="3.32354">
        <ele>473</ele>
        <time>2012-10-21T06:48:37.000Z</time>
      </trkpt>
      <trkpt lat="45.56247" lon="3.32356">
        <ele>474</ele>
        <time>2012-10-21T06:48:38.000Z</time>
      </trkpt>
      <trkpt lat="45.5625" lon="3.32358">
        <ele>475</ele>
        <time>2012-10-21T06:48:39.000Z</time>
      </trkpt>
      <trkpt lat="45.56252" lon="3.3236">
        <ele>476</ele>
        <time>2012-10-21T06:48:40.000Z</time>
      </trkpt>
      <trkpt lat="45.56255" lon="3.32362">
        <ele>477</ele>
        <time>2012-10-21T06:48:41.000Z</time>
      </trkpt>
      <trkpt lat="45.56258" lon="3.32364">
        <ele>477</ele>
        <time>2012-10-21T06:48:42.000Z</time>
      </trkpt>
      <trkpt lat="45.56261" lon="3.32367">
        <ele>477</ele>
        <time>2012-10-21T06:48:43.000Z</time>
      </trkpt>
      <trkpt lat="45.56263" lon="3.3237">
        <ele>477</ele>
        <time>2012-10-21T06:48:44.000Z</time>
      </trkpt>
      <trkpt lat="45.56265" lon="3.32373">
        <ele>476</ele>
        <time>2012-10-21T06:48:45.000Z</time>
      </trkpt>
      <trkpt lat="45.56267" lon="3.32375">
        <ele>475</ele>
        <time>2012-10-21T06:48:46.000Z</time>
      </trkpt>
      <trkpt lat="45.56269" lon="3.32379">
        <ele>476</ele>
        <time>2012-10-21T06:48:47.000Z</time>
      </trkpt>
      <trkpt lat="45.5627" lon="3.32383">
        <ele>476</ele>
        <time>2012-10-21T06:48:48.000Z</time>
      </trkpt>
      <trkpt lat="45.56272" lon="3.32387">
        <ele>477</ele>
        <time>2012-10-21T06:48:49.000Z</time>
      </trkpt>
      <trkpt lat="45.56272" lon="3.32391">
        <ele>478</ele>
        <time>2012-10-21T06:48:50.000Z</time>
      </trkpt>
      <trkpt lat="45.56273" lon="3.32395">
        <ele>478</ele>
        <time>2012-10-21T06:48:51.000Z</time>
      </trkpt>
      <trkpt lat="45.56273" lon="3.324">
        <ele>477</ele>
        <time>2012-10-21T06:48:52.000Z</time>
      </trkpt>
      <trkpt lat="45.56273" lon="3.32403">
        <ele>476</ele>
        <time>2012-10-21T06:48:53.000Z</time>
      </trkpt>
      <trkpt lat="45.56273" lon="3.32408">
        <ele>477</ele>
        <time>2012-10-21T06:48:54.000Z</time>
      </trkpt>
      <trkpt lat="45.56273" lon="3.32412">
        <ele>478</ele>
        <time>2012-10-21T06:48:55.000Z</time>
      </trkpt>
      <trkpt lat="45.56273" lon="3.32415">
        <ele>478</ele>
        <time>2012-10-21T06:48:56.000Z</time>
      </trkpt>
      <trkpt lat="45.56273" lon="3.3242">
        <ele>478</ele>
        <time>2012-10-21T06:48:57.000Z</time>
      </trkpt>
      <trkpt lat="45.56273" lon="3.32424">
        <ele>478</ele>
        <time>2012-10-21T06:48:58.000Z</time>
      </trkpt>
      <trkpt lat="45.56272" lon="3.32429">
        <ele>477</ele>
        <time>2012-10-21T06:48:59.000Z</time>
      </trkpt>
      <trkpt lat="45.56272" lon="3.32433">
        <ele>477</ele>
        <time>2012-10-21T06:49:00.000Z</time>
      </trkpt>
      <trkpt lat="45.56272" lon="3.32436">
        <ele>478</ele>
        <time>2012-10-21T06:49:01.000Z</time>
      </trkpt>
      <trkpt lat="45.56271" lon="3.32441">
        <ele>479</ele>
        <time>2012-10-21T06:49:02.000Z</time>
      </trkpt>
      <trkpt lat="45.56271" lon="3.32444">
        <ele>479</ele>
        <time>2012-10-21T06:49:03.000Z</time>
      </trkpt>
      <trkpt lat="45.56271" lon="3.32447">
        <ele>479</ele>
        <time>2012-10-21T06:49:04.000Z</time>
      </trkpt>
      <trkpt lat="45.5627" lon="3.32451">
        <ele>479</ele>
        <time>2012-10-21T06:49:05.000Z</time>
      </trkpt>
      <trkpt lat="45.5627" lon="3.32454">
        <ele>479</ele>
        <time>2012-10-21T06:49:06.000Z</time>
      </trkpt>
      <trkpt lat="45.5627" lon="3.32458">
        <ele>479</ele>
        <time>2012-10-21T06:49:07.000Z</time>
      </trkpt>
      <trkpt lat="45.5627" lon="3.32462">
        <ele>480</ele>
        <time>2012-10-21T06:49:08.000Z</time>
      </trkpt>
      <trkpt lat="45.56269" lon="3.32466">
        <ele>480</ele>
        <time>2012-10-21T06:49:09.000Z</time>
      </trkpt>
      <trkpt lat="45.56269" lon="3.32471">
        <ele>480</ele>
        <time>2012-10-21T06:49:10.000Z</time>
      </trkpt>
      <trkpt lat="45.56268" lon="3.32475">
        <ele>480</ele>
        <time>2012-10-21T06:49:11.000Z</time>
      </trkpt>
      <trkpt lat="45.56268" lon="3.32479">
        <ele>481</ele>
        <time>2012-10-21T06:49:12.000Z</time>
      </trkpt>
      <trkpt lat="45.56268" lon="3.32483">
        <ele>480</ele>
        <time>2012-10-21T06:49:13.000Z</time>
      </trkpt>
      <trkpt lat="45.56268" lon="3.32487">
        <ele>480</ele>
        <time>2012-10-21T06:49:14.000Z</time>
      </trkpt>
      <trkpt lat="45.56268" lon="3.32491">
        <ele>480</ele>
        <time>2012-10-21T06:49:15.000Z</time>
      </trkpt>
      <trkpt lat="45.56268" lon="3.32495">
        <ele>480</ele>
        <time>2012-10-21T06:49:16.000Z</time>
      </trkpt>
      <trkpt lat="45.56267" lon="3.32499">
        <ele>481</ele>
        <time>2012-10-21T06:49:17.000Z</time>
      </trkpt>
      <trkpt lat="45.56267" lon="3.32503">
        <ele>482</ele>
        <time>2012-10-21T06:49:18.000Z</time>
      </trkpt>
      <trkpt lat="45.56267" lon="3.32507">
        <ele>482</ele>
        <time>2012-10-21T06:49:19.000Z</time>
      </trkpt>
      <trkpt lat="45.56267" lon="3.32511">
        <ele>481</ele>
        <time>2012-10-21T06:49:20.000Z</time>
      </trkpt>
      <trkpt lat="45.56266" lon="3.32515">
        <ele>482</ele>
        <time>2012-10-21T06:49:21.000Z</time>
      </trkpt>
      <trkpt lat="45.56266" lon="3.3252">
        <ele>483</ele>
        <time>2012-10-21T06:49:22.000Z</time>
      </trkpt>
      <trkpt lat="45.56266" lon="3.32523">
        <ele>483</ele>
        <time>2012-10-21T06:49:23.000Z</time>
      </trkpt>
      <trkpt lat="45.56266" lon="3.32527">
        <ele>482</ele>
        <time>2012-10-21T06:49:24.000Z</time>
      </trkpt>
      <trkpt lat="45.56266" lon="3.32532">
        <ele>484</ele>
        <time>2012-10-21T06:49:25.000Z</time>
      </trkpt>
      <trkpt lat="45.56266" lon="3.32536">
        <ele>484</ele>
        <time>2012-10-21T06:49:26.000Z</time>
      </trkpt>
      <trkpt lat="45.56266" lon="3.3254">
        <ele>484</ele>
        <time>2012-10-21T06:49:27.000Z</time>
      </trkpt>
      <trkpt lat="45.56265" lon="3.32545">
        <ele>484</ele>
        <time>2012-10-21T06:49:28.000Z</time>
      </trkpt>
      <trkpt lat="45.56265" lon="3.32549">
        <ele>485</ele>
        <time>2012-10-21T06:49:29.000Z</time>
      </trkpt>
      <trkpt lat="45.56264" lon="3.32554">
        <ele>486</ele>
        <time>2012-10-21T06:49:30.000Z</time>
      </trkpt>
      <trkpt lat="45.56264" lon="3.32559">
        <ele>487</ele>
        <time>2012-10-21T06:49:31.000Z</time>
      </trkpt>
      <trkpt lat="45.56264" lon="3.32563">
        <ele>486</ele>
        <time>2012-10-21T06:49:32.000Z</time>
      </trkpt>
      <trkpt lat="45.56263" lon="3.32567">
        <ele>486</ele>
        <time>2012-10-21T06:49:33.000Z</time>
      </trkpt>
      <trkpt lat="45.56263" lon="3.32571">
        <ele>486</ele>
        <time>2012-10-21T06:49:34.000Z</time>
      </trkpt>
      <trkpt lat="45.56263" lon="3.32575">
        <ele>485</ele>
        <time>2012-10-21T06:49:35.000Z</time>
      </trkpt>
      <trkpt lat="45.56262" lon="3.32579">
        <ele>485</ele>
        <time>2012-10-21T06:49:36.000Z</time>
      </trkpt>
      <trkpt lat="45.56262" lon="3.32583">
        <ele>485</ele>
        <time>2012-10-21T06:49:37.000Z</time>
      </trkpt>
      <trkpt lat="45.56262" lon="3.32586">
        <ele>485</ele>
        <time>2012-10-21T06:49:38.000Z</time>
      </trkpt>
      <trkpt lat="45.56262" lon="3.3259">
        <ele>485</ele>
        <time>2012-10-21T06:49:39.000Z</time>
      </trkpt>
      <trkpt lat="45.56262" lon="3.32594">
        <ele>485</ele>
        <time>2012-10-21T06:49:40.000Z</time>
      </trkpt>
      <trkpt lat="45.56262" lon="3.32599">
        <ele>486</ele>
        <time>2012-10-21T06:49:41.000Z</time>
      </trkpt>
      <trkpt lat="45.56262" lon="3.32603">
        <ele>485</ele>
        <time>2012-10-21T06:49:42.000Z</time>
      </trkpt>
      <trkpt lat="45.56262" lon="3.32607">
        <ele>486</ele>
        <time>2012-10-21T06:49:43.000Z</time>
      </trkpt>
      <trkpt lat="45.56261" lon="3.32611">
        <ele>485</ele>
        <time>2012-10-21T06:49:44.000Z</time>
      </trkpt>
      <trkpt lat="45.56261" lon="3.32615">
        <ele>485</ele>
        <time>2012-10-21T06:49:45.000Z</time>
      </trkpt>
      <trkpt lat="45.56261" lon="3.32619">
        <ele>486</ele>
        <time>2012-10-21T06:49:46.000Z</time>
      </trkpt>
      <trkpt lat="45.56261" lon="3.32623">
        <ele>486</ele>
        <time>2012-10-21T06:49:47.000Z</time>
      </trkpt>
      <trkpt lat="45.56261" lon="3.32628">
        <ele>487</ele>
        <time>2012-10-21T06:49:48.000Z</time>
      </trkpt>
      <trkpt lat="45.56261" lon="3.32632">
        <ele>487</ele>
        <time>2012-10-21T06:49:49.000Z</time>
      </trkpt>
      <trkpt lat="45.56261" lon="3.32636">
        <ele>488</ele>
        <time>2012-10-21T06:49:50.000Z</time>
      </trkpt>
      <trkpt lat="45.5626" lon="3.3264">
        <ele>488</ele>
        <time>2012-10-21T06:49:51.000Z</time>
      </trkpt>
      <trkpt lat="45.5626" lon="3.32644">
        <ele>487</ele>
        <time>2012-10-21T06:49:52.000Z</time>
      </trkpt>
      <trkpt lat="45.5626" lon="3.32648">
        <ele>487</ele>
        <time>2012-10-21T06:49:53.000Z</time>
      </trkpt>
      <trkpt lat="45.5626" lon="3.32652">
        <ele>487</ele>
        <time>2012-10-21T06:49:54.000Z</time>
      </trkpt>
      <trkpt lat="45.5626" lon="3.32656">
        <ele>488</ele>
        <time>2012-10-21T06:49:55.000Z</time>
      </trkpt>
      <trkpt lat="45.5626" lon="3.3266">
        <ele>488</ele>
        <time>2012-10-21T06:49:56.000Z</time>
      </trkpt>
      <trkpt lat="45.5626" lon="3.32664">
        <ele>489</ele>
        <time>2012-10-21T06:49:57.000Z</time>
      </trkpt>
      <trkpt lat="45.5626" lon="3.32668">
        <ele>489</ele>
        <time>2012-10-21T06:49:58.000Z</time>
      </trkpt>
      <trkpt lat="45.56259" lon="3.32671">
        <ele>489</ele>
        <time>2012-10-21T06:49:59.000Z</time>
      </trkpt>
      <trkpt lat="45.56259" lon="3.32675">
        <ele>489</ele>
        <time>2012-10-21T06:50:00.000Z</time>
      </trkpt>
      <trkpt lat="45.56259" lon="3.32679">
        <ele>489</ele>
        <time>2012-10-21T06:50:01.000Z</time>
      </trkpt>
      <trkpt lat="45.56259" lon="3.32683">
        <ele>490</ele>
        <time>2012-10-21T06:50:02.000Z</time>
      </trkpt>
      <trkpt lat="45.56258" lon="3.32686">
        <ele>490</ele>
        <time>2012-10-21T06:50:03.000Z</time>
      </trkpt>
      <trkpt lat="45.56258" lon="3.3269">
        <ele>490</ele>
        <time>2012-10-21T06:50:04.000Z</time>
      </trkpt>
      <trkpt lat="45.56258" lon="3.32694">
        <ele>491</ele>
        <time>2012-10-21T06:50:05.000Z</time>
      </trkpt>
      <trkpt lat="45.56258" lon="3.32698">
        <ele>491</ele>
        <time>2012-10-21T06:50:06.000Z</time>
      </trkpt>
      <trkpt lat="45.56257" lon="3.32702">
        <ele>492</ele>
        <time>2012-10-21T06:50:07.000Z</time>
      </trkpt>
      <trkpt lat="45.56257" lon="3.32706">
        <ele>492</ele>
        <time>2012-10-21T06:50:08.000Z</time>
      </trkpt>
      <trkpt lat="45.56257" lon="3.3271">
        <ele>492</ele>
        <time>2012-10-21T06:50:09.000Z</time>
      </trkpt>
      <trkpt lat="45.56257" lon="3.32714">
        <ele>493</ele>
        <time>2012-10-21T06:50:10.000Z</time>
      </trkpt>
      <trkpt lat="45.56258" lon="3.32718">
        <ele>492</ele>
        <time>2012-10-21T06:50:11.000Z</time>
      </trkpt>
      <trkpt lat="45.56257" lon="3.32721">
        <ele>493</ele>
        <time>2012-10-21T06:50:12.000Z</time>
      </trkpt>
      <trkpt lat="45.56257" lon="3.32725">
        <ele>491</ele>
        <time>2012-10-21T06:50:13.000Z</time>
      </trkpt>
      <trkpt lat="45.56257" lon="3.32729">
        <ele>491</ele>
        <time>2012-10-21T06:50:14.000Z</time>
      </trkpt>
      <trkpt lat="45.56257" lon="3.32733">
        <ele>492</ele>
        <time>2012-10-21T06:50:15.000Z</time>
      </trkpt>
      <trkpt lat="45.56256" lon="3.32737">
        <ele>492</ele>
        <time>2012-10-21T06:50:16.000Z</time>
      </trkpt>
      <trkpt lat="45.56256" lon="3.32741">
        <ele>492</ele>
        <time>2012-10-21T06:50:17.000Z</time>
      </trkpt>
      <trkpt lat="45.56256" lon="3.32745">
        <ele>493</ele>
        <time>2012-10-21T06:50:18.000Z</time>
      </trkpt>
      <trkpt lat="45.56255" lon="3.32748">
        <ele>493</ele>
        <time>2012-10-21T06:50:19.000Z</time>
      </trkpt>
      <trkpt lat="45.56255" lon="3.32752">
        <ele>494</ele>
        <time>2012-10-21T06:50:20.000Z</time>
      </trkpt>
      <trkpt lat="45.56254" lon="3.32756">
        <ele>494</ele>
        <time>2012-10-21T06:50:21.000Z</time>
      </trkpt>
      <trkpt lat="45.56254" lon="3.3276">
        <ele>494</ele>
        <time>2012-10-21T06:50:22.000Z</time>
      </trkpt>
      <trkpt lat="45.56254" lon="3.32764">
        <ele>495</ele>
        <time>2012-10-21T06:50:23.000Z</time>
      </trkpt>
      <trkpt lat="45.56254" lon="3.32768">
        <ele>495</ele>
        <time>2012-10-21T06:50:24.000Z</time>
      </trkpt>
      <trkpt lat="45.56253" lon="3.32772">
        <ele>495</ele>
        <time>2012-10-21T06:50:25.000Z</time>
      </trkpt>
      <trkpt lat="45.56253" lon="3.32776">
        <ele>496</ele>
        <time>2012-10-21T06:50:26.000Z</time>
      </trkpt>
      <trkpt lat="45.56253" lon="3.3278">
        <ele>496</ele>
        <time>2012-10-21T06:50:27.000Z</time>
      </trkpt>
      <trkpt lat="45.56253" lon="3.32784">
        <ele>496</ele>
        <time>2012-10-21T06:50:28.000Z</time>
      </trkpt>
      <trkpt lat="45.56253" lon="3.32787">
        <ele>497</ele>
        <time>2012-10-21T06:50:29.000Z</time>
      </trkpt>
      <trkpt lat="45.56253" lon="3.32791">
        <ele>497</ele>
        <time>2012-10-21T06:50:30.000Z</time>
      </trkpt>
      <trkpt lat="45.56253" lon="3.32794">
        <ele>497</ele>
        <time>2012-10-21T06:50:31.000Z</time>
      </trkpt>
      <trkpt lat="45.56253" lon="3.32798">
        <ele>496</ele>
        <time>2012-10-21T06:50:32.000Z</time>
      </trkpt>
      <trkpt lat="45.56252" lon="3.32801">
        <ele>496</ele>
        <time>2012-10-21T06:50:33.000Z</time>
      </trkpt>
      <trkpt lat="45.56252" lon="3.32805">
        <ele>496</ele>
        <time>2012-10-21T06:50:34.000Z</time>
      </trkpt>
      <trkpt lat="45.56252" lon="3.32808">
        <ele>496</ele>
        <time>2012-10-21T06:50:35.000Z</time>
      </trkpt>
      <trkpt lat="45.56252" lon="3.32812">
        <ele>497</ele>
        <time>2012-10-21T06:50:36.000Z</time>
      </trkpt>
      <trkpt lat="45.56252" lon="3.32815">
        <ele>497</ele>
        <time>2012-10-21T06:50:37.000Z</time>
      </trkpt>
      <trkpt lat="45.56251" lon="3.32819">
        <ele>497</ele>
        <time>2012-10-21T06:50:38.000Z</time>
      </trkpt>
      <trkpt lat="45.56251" lon="3.32823">
        <ele>498</ele>
        <time>2012-10-21T06:50:39.000Z</time>
      </trkpt>
      <trkpt lat="45.5625" lon="3.32826">
        <ele>499</ele>
        <time>2012-10-21T06:50:40.000Z</time>
      </trkpt>
      <trkpt lat="45.5625" lon="3.3283">
        <ele>499</ele>
        <time>2012-10-21T06:50:41.000Z</time>
      </trkpt>
      <trkpt lat="45.5625" lon="3.32833">
        <ele>500</ele>
        <time>2012-10-21T06:50:42.000Z</time>
      </trkpt>
      <trkpt lat="45.5625" lon="3.32837">
        <ele>499</ele>
        <time>2012-10-21T06:50:43.000Z</time>
      </trkpt>
      <trkpt lat="45.5625" lon="3.3284">
        <ele>499</ele>
        <time>2012-10-21T06:50:44.000Z</time>
      </trkpt>
      <trkpt lat="45.5625" lon="3.32844">
        <ele>499</ele>
        <time>2012-10-21T06:50:45.000Z</time>
      </trkpt>
      <trkpt lat="45.5625" lon="3.32848">
        <ele>500</ele>
        <time>2012-10-21T06:50:46.000Z</time>
      </trkpt>
      <trkpt lat="45.5625" lon="3.32852">
        <ele>502</ele>
        <time>2012-10-21T06:50:47.000Z</time>
      </trkpt>
      <trkpt lat="45.56249" lon="3.32856">
        <ele>502</ele>
        <time>2012-10-21T06:50:48.000Z</time>
      </trkpt>
      <trkpt lat="45.56249" lon="3.32859">
        <ele>503</ele>
        <time>2012-10-21T06:50:49.000Z</time>
      </trkpt>
      <trkpt lat="45.56249" lon="3.32863">
        <ele>502</ele>
        <time>2012-10-21T06:50:50.000Z</time>
      </trkpt>
      <trkpt lat="45.56249" lon="3.32867">
        <ele>502</ele>
        <time>2012-10-21T06:50:51.000Z</time>
      </trkpt>
      <trkpt lat="45.56249" lon="3.3287">
        <ele>503</ele>
        <time>2012-10-21T06:50:52.000Z</time>
      </trkpt>
      <trkpt lat="45.56249" lon="3.32874">
        <ele>503</ele>
        <time>2012-10-21T06:50:53.000Z</time>
      </trkpt>
      <trkpt lat="45.56248" lon="3.32877">
        <ele>503</ele>
        <time>2012-10-21T06:50:54.000Z</time>
      </trkpt>
      <trkpt lat="45.56248" lon="3.32881">
        <ele>503</ele>
        <time>2012-10-21T06:50:55.000Z</time>
      </trkpt>
      <trkpt lat="45.56248" lon="3.32884">
        <ele>503</ele>
        <time>2012-10-21T06:50:56.000Z</time>
      </trkpt>
      <trkpt lat="45.56248" lon="3.32887">
        <ele>504</ele>
        <time>2012-10-21T06:50:57.000Z</time>
      </trkpt>
      <trkpt lat="45.56248" lon="3.3289">
        <ele>504</ele>
        <time>2012-10-21T06:50:58.000Z</time>
      </trkpt>
      <trkpt lat="45.56248" lon="3.32894">
        <ele>505</ele>
        <time>2012-10-21T06:50:59.000Z</time>
      </trkpt>
      <trkpt lat="45.56248" lon="3.32897">
        <ele>505</ele>
        <time>2012-10-21T06:51:00.000Z</time>
      </trkpt>
      <trkpt lat="45.56248" lon="3.32903">
        <ele>507</ele>
        <time>2012-10-21T06:51:02.000Z</time>
      </trkpt>
      <trkpt lat="45.56248" lon="3.32906">
        <ele>507</ele>
        <time>2012-10-21T06:51:03.000Z</time>
      </trkpt>
      <trkpt lat="45.56248" lon="3.3291">
        <ele>508</ele>
        <time>2012-10-21T06:51:04.000Z</time>
      </trkpt>
      <trkpt lat="45.56248" lon="3.32913">
        <ele>508</ele>
        <time>2012-10-21T06:51:05.000Z</time>
      </trkpt>
      <trkpt lat="45.56248" lon="3.32916">
        <ele>509</ele>
        <time>2012-10-21T06:51:06.000Z</time>
      </trkpt>
      <trkpt lat="45.56248" lon="3.3292">
        <ele>509</ele>
        <time>2012-10-21T06:51:07.000Z</time>
      </trkpt>
      <trkpt lat="45.56247" lon="3.32926">
        <ele>509</ele>
        <time>2012-10-21T06:51:09.000Z</time>
      </trkpt>
      <trkpt lat="45.56247" lon="3.32929">
        <ele>509</ele>
        <time>2012-10-21T06:51:10.000Z</time>
      </trkpt>
      <trkpt lat="45.56247" lon="3.32935">
        <ele>509</ele>
        <time>2012-10-21T06:51:12.000Z</time>
      </trkpt>
      <trkpt lat="45.56247" lon="3.32938">
        <ele>509</ele>
        <time>2012-10-21T06:51:13.000Z</time>
      </trkpt>
      <trkpt lat="45.56248" lon="3.32941">
        <ele>510</ele>
        <time>2012-10-21T06:51:14.000Z</time>
      </trkpt>
      <trkpt lat="45.56248" lon="3.32944">
        <ele>511</ele>
        <time>2012-10-21T06:51:15.000Z</time>
      </trkpt>
      <trkpt lat="45.56247" lon="3.3295">
        <ele>511</ele>
        <time>2012-10-21T06:51:17.000Z</time>
      </trkpt>
      <trkpt lat="45.56247" lon="3.32953">
        <ele>512</ele>
        <time>2012-10-21T06:51:18.000Z</time>
      </trkpt>
      <trkpt lat="45.56246" lon="3.32957">
        <ele>511</ele>
        <time>2012-10-21T06:51:19.000Z</time>
      </trkpt>
      <trkpt lat="45.56246" lon="3.32961">
        <ele>511</ele>
        <time>2012-10-21T06:51:20.000Z</time>
      </trkpt>
      <trkpt lat="45.56245" lon="3.32964">
        <ele>511</ele>
        <time>2012-10-21T06:51:21.000Z</time>
      </trkpt>
      <trkpt lat="45.56245" lon="3.32968">
        <ele>511</ele>
        <time>2012-10-21T06:51:22.000Z</time>
      </trkpt>
      <trkpt lat="45.56245" lon="3.32971">
        <ele>512</ele>
        <time>2012-10-21T06:51:23.000Z</time>
      </trkpt>
      <trkpt lat="45.56245" lon="3.32974">
        <ele>513</ele>
        <time>2012-10-21T06:51:24.000Z</time>
      </trkpt>
      <trkpt lat="45.56244" lon="3.3298">
        <ele>513</ele>
        <time>2012-10-21T06:51:26.000Z</time>
      </trkpt>
      <trkpt lat="45.56244" lon="3.32983">
        <ele>514</ele>
        <time>2012-10-21T06:51:27.000Z</time>
      </trkpt>
      <trkpt lat="45.56244" lon="3.32989">
        <ele>514</ele>
        <time>2012-10-21T06:51:29.000Z</time>
      </trkpt>
      <trkpt lat="45.56244" lon="3.32992">
        <ele>514</ele>
        <time>2012-10-21T06:51:30.000Z</time>
      </trkpt>
      <trkpt lat="45.56244" lon="3.32997">
        <ele>515</ele>
        <time>2012-10-21T06:51:32.000Z</time>
      </trkpt>
      <trkpt lat="45.56243" lon="3.32999">
        <ele>514</ele>
        <time>2012-10-21T06:51:33.000Z</time>
      </trkpt>
      <trkpt lat="45.56243" lon="3.33005">
        <ele>515</ele>
        <time>2012-10-21T06:51:35.000Z</time>
      </trkpt>
      <trkpt lat="45.56243" lon="3.33008">
        <ele>515</ele>
        <time>2012-10-21T06:51:36.000Z</time>
      </trkpt>
      <trkpt lat="45.56244" lon="3.33013">
        <ele>514</ele>
        <time>2012-10-21T06:51:38.000Z</time>
      </trkpt>
      <trkpt lat="45.56245" lon="3.33015">
        <ele>515</ele>
        <time>2012-10-21T06:51:39.000Z</time>
      </trkpt>
      <trkpt lat="45.56248" lon="3.33018">
        <ele>515</ele>
        <time>2012-10-21T06:51:41.000Z</time>
      </trkpt>
      <trkpt lat="45.5625" lon="3.33018">
        <ele>514</ele>
        <time>2012-10-21T06:51:42.000Z</time>
      </trkpt>
      <trkpt lat="45.56254" lon="3.33019">
        <ele>516</ele>
        <time>2012-10-21T06:51:44.000Z</time>
      </trkpt>
      <trkpt lat="45.56255" lon="3.33019">
        <ele>516</ele>
        <time>2012-10-21T06:51:45.000Z</time>
      </trkpt>
      <trkpt lat="45.56259" lon="3.33019">
        <ele>517</ele>
        <time>2012-10-21T06:51:47.000Z</time>
      </trkpt>
      <trkpt lat="45.56261" lon="3.33018">
        <ele>517</ele>
        <time>2012-10-21T06:51:48.000Z</time>
      </trkpt>
      <trkpt lat="45.56264" lon="3.33018">
        <ele>517</ele>
        <time>2012-10-21T06:51:50.000Z</time>
      </trkpt>
      <trkpt lat="45.56266" lon="3.33018">
        <ele>517</ele>
        <time>2012-10-21T06:51:51.000Z</time>
      </trkpt>
      <trkpt lat="45.56269" lon="3.33018">
        <ele>517</ele>
        <time>2012-10-21T06:51:52.000Z</time>
      </trkpt>
      <trkpt lat="45.56271" lon="3.33018">
        <ele>518</ele>
        <time>2012-10-21T06:51:53.000Z</time>
      </trkpt>
      <trkpt lat="45.56276" lon="3.33017">
        <ele>518</ele>
        <time>2012-10-21T06:51:55.000Z</time>
      </trkpt>
      <trkpt lat="45.56278" lon="3.33017">
        <ele>518</ele>
        <time>2012-10-21T06:51:56.000Z</time>
      </trkpt>
      <trkpt lat="45.56281" lon="3.33017">
        <ele>518</ele>
        <time>2012-10-21T06:51:57.000Z</time>
      </trkpt>
      <trkpt lat="45.56284" lon="3.33017">
        <ele>518</ele>
        <time>2012-10-21T06:51:58.000Z</time>
      </trkpt>
      <trkpt lat="45.56287" lon="3.33016">
        <ele>518</ele>
        <time>2012-10-21T06:51:59.000Z</time>
      </trkpt>
      <trkpt lat="45.56291" lon="3.33016">
        <ele>518</ele>
        <time>2012-10-21T06:52:00.000Z</time>
      </trkpt>
      <trkpt lat="45.56294" lon="3.33016">
        <ele>519</ele>
        <time>2012-10-21T06:52:01.000Z</time>
      </trkpt>
      <trkpt lat="45.56297" lon="3.33016">
        <ele>518</ele>
        <time>2012-10-21T06:52:02.000Z</time>
      </trkpt>
      <trkpt lat="45.56301" lon="3.33015">
        <ele>518</ele>
        <time>2012-10-21T06:52:03.000Z</time>
      </trkpt>
      <trkpt lat="45.56305" lon="3.33015">
        <ele>518</ele>
        <time>2012-10-21T06:52:04.000Z</time>
      </trkpt>
      <trkpt lat="45.56309" lon="3.33014">
        <ele>517</ele>
        <time>2012-10-21T06:52:05.000Z</time>
      </trkpt>
      <trkpt lat="45.56314" lon="3.33014">
        <ele>517</ele>
        <time>2012-10-21T06:52:06.000Z</time>
      </trkpt>
      <trkpt lat="45.56319" lon="3.33013">
        <ele>517</ele>
        <time>2012-10-21T06:52:07.000Z</time>
      </trkpt>
      <trkpt lat="45.56324" lon="3.33012">
        <ele>517</ele>
        <time>2012-10-21T06:52:08.000Z</time>
      </trkpt>
      <trkpt lat="45.56329" lon="3.33011">
        <ele>516</ele>
        <time>2012-10-21T06:52:09.000Z</time>
      </trkpt>
      <trkpt lat="45.56334" lon="3.3301">
        <ele>516</ele>
        <time>2012-10-21T06:52:10.000Z</time>
      </trkpt>
      <trkpt lat="45.56338" lon="3.33009">
        <ele>516</ele>
        <time>2012-10-21T06:52:11.000Z</time>
      </trkpt>
      <trkpt lat="45.56343" lon="3.33008">
        <ele>516</ele>
        <time>2012-10-21T06:52:12.000Z</time>
      </trkpt>
      <trkpt lat="45.56347" lon="3.33006">
        <ele>517</ele>
        <time>2012-10-21T06:52:13.000Z</time>
      </trkpt>
      <trkpt lat="45.56352" lon="3.33005">
        <ele>516</ele>
        <time>2012-10-21T06:52:14.000Z</time>
      </trkpt>
      <trkpt lat="45.56355" lon="3.33005">
        <ele>516</ele>
        <time>2012-10-21T06:52:15.000Z</time>
      </trkpt>
      <trkpt lat="45.56358" lon="3.33007">
        <ele>516</ele>
        <time>2012-10-21T06:52:16.000Z</time>
      </trkpt>
      <trkpt lat="45.5636" lon="3.33008">
        <ele>515</ele>
        <time>2012-10-21T06:52:17.000Z</time>
      </trkpt>
      <trkpt lat="45.56362" lon="3.33013">
        <ele>516</ele>
        <time>2012-10-21T06:52:19.000Z</time>
      </trkpt>
      <trkpt lat="45.56363" lon="3.33013">
        <ele>517</ele>
        <time>2012-10-21T06:52:20.000Z</time>
      </trkpt>
      <trkpt lat="45.56363" lon="3.33019">
        <ele>517</ele>
        <time>2012-10-21T06:52:31.000Z</time>
      </trkpt>
      <trkpt lat="45.56363" lon="3.3302">
        <ele>517</ele>
        <time>2012-10-21T06:52:32.000Z</time>
      </trkpt>
      <trkpt lat="45.56363" lon="3.33025">
        <ele>517</ele>
        <time>2012-10-21T06:52:34.000Z</time>
      </trkpt>
      <trkpt lat="45.56364" lon="3.33028">
        <ele>518</ele>
        <time>2012-10-21T06:52:35.000Z</time>
      </trkpt>
      <trkpt lat="45.56363" lon="3.33033">
        <ele>518</ele>
        <time>2012-10-21T06:52:37.000Z</time>
      </trkpt>
      <trkpt lat="45.56363" lon="3.33037">
        <ele>519</ele>
        <time>2012-10-21T06:52:38.000Z</time>
      </trkpt>
      <trkpt lat="45.56363" lon="3.3304">
        <ele>519</ele>
        <time>2012-10-21T06:52:39.000Z</time>
      </trkpt>
      <trkpt lat="45.56363" lon="3.33044">
        <ele>519</ele>
        <time>2012-10-21T06:52:40.000Z</time>
      </trkpt>
      <trkpt lat="45.56363" lon="3.33047">
        <ele>519</ele>
        <time>2012-10-21T06:52:41.000Z</time>
      </trkpt>
      <trkpt lat="45.56363" lon="3.33051">
        <ele>519</ele>
        <time>2012-10-21T06:52:42.000Z</time>
      </trkpt>
      <trkpt lat="45.56363" lon="3.33055">
        <ele>519</ele>
        <time>2012-10-21T06:52:43.000Z</time>
      </trkpt>
      <trkpt lat="45.56362" lon="3.33058">
        <ele>519</ele>
        <time>2012-10-21T06:52:44.000Z</time>
      </trkpt>
      <trkpt lat="45.56363" lon="3.33063">
        <ele>519</ele>
        <time>2012-10-21T06:52:45.000Z</time>
      </trkpt>
      <trkpt lat="45.56363" lon="3.33067">
        <ele>520</ele>
        <time>2012-10-21T06:52:46.000Z</time>
      </trkpt>
      <trkpt lat="45.56363" lon="3.33071">
        <ele>521</ele>
        <time>2012-10-21T06:52:47.000Z</time>
      </trkpt>
      <trkpt lat="45.56363" lon="3.33074">
        <ele>521</ele>
        <time>2012-10-21T06:52:48.000Z</time>
      </trkpt>
      <trkpt lat="45.56364" lon="3.3308">
        <ele>522</ele>
        <time>2012-10-21T06:52:50.000Z</time>
      </trkpt>
      <trkpt lat="45.56364" lon="3.33083">
        <ele>523</ele>
        <time>2012-10-21T06:52:51.000Z</time>
      </trkpt>
      <trkpt lat="45.56364" lon="3.33086">
        <ele>523</ele>
        <time>2012-10-21T06:52:52.000Z</time>
      </trkpt>
      <trkpt lat="45.56364" lon="3.3309">
        <ele>523</ele>
        <time>2012-10-21T06:52:53.000Z</time>
      </trkpt>
      <trkpt lat="45.56364" lon="3.33093">
        <ele>524</ele>
        <time>2012-10-21T06:52:54.000Z</time>
      </trkpt>
      <trkpt lat="45.56364" lon="3.33096">
        <ele>524</ele>
        <time>2012-10-21T06:52:55.000Z</time>
      </trkpt>
      <trkpt lat="45.56364" lon="3.33102">
        <ele>524</ele>
        <time>2012-10-21T06:52:57.000Z</time>
      </trkpt>
      <trkpt lat="45.56364" lon="3.33105">
        <ele>524</ele>
        <time>2012-10-21T06:52:58.000Z</time>
      </trkpt>
      <trkpt lat="45.56364" lon="3.33109">
        <ele>525</ele>
        <time>2012-10-21T06:52:59.000Z</time>
      </trkpt>
      <trkpt lat="45.56364" lon="3.33112">
        <ele>525</ele>
        <time>2012-10-21T06:53:00.000Z</time>
      </trkpt>
      <trkpt lat="45.56364" lon="3.33115">
        <ele>525</ele>
        <time>2012-10-21T06:53:01.000Z</time>
      </trkpt>
      <trkpt lat="45.56364" lon="3.33119">
        <ele>525</ele>
        <time>2012-10-21T06:53:02.000Z</time>
      </trkpt>
      <trkpt lat="45.56364" lon="3.33122">
        <ele>525</ele>
        <time>2012-10-21T06:53:03.000Z</time>
      </trkpt>
      <trkpt lat="45.56365" lon="3.33125">
        <ele>525</ele>
        <time>2012-10-21T06:53:04.000Z</time>
      </trkpt>
      <trkpt lat="45.56364" lon="3.33129">
        <ele>525</ele>
        <time>2012-10-21T06:53:05.000Z</time>
      </trkpt>
      <trkpt lat="45.56365" lon="3.33132">
        <ele>525</ele>
        <time>2012-10-21T06:53:06.000Z</time>
      </trkpt>
      <trkpt lat="45.56364" lon="3.33136">
        <ele>525</ele>
        <time>2012-10-21T06:53:07.000Z</time>
      </trkpt>
      <trkpt lat="45.56364" lon="3.3314">
        <ele>526</ele>
        <time>2012-10-21T06:53:08.000Z</time>
      </trkpt>
      <trkpt lat="45.56364" lon="3.33144">
        <ele>527</ele>
        <time>2012-10-21T06:53:09.000Z</time>
      </trkpt>
      <trkpt lat="45.56364" lon="3.33148">
        <ele>527</ele>
        <time>2012-10-21T06:53:10.000Z</time>
      </trkpt>
      <trkpt lat="45.56364" lon="3.33152">
        <ele>528</ele>
        <time>2012-10-21T06:53:11.000Z</time>
      </trkpt>
      <trkpt lat="45.56364" lon="3.33156">
        <ele>528</ele>
        <time>2012-10-21T06:53:12.000Z</time>
      </trkpt>
      <trkpt lat="45.56364" lon="3.33159">
        <ele>529</ele>
        <time>2012-10-21T06:53:13.000Z</time>
      </trkpt>
      <trkpt lat="45.56364" lon="3.33163">
        <ele>529</ele>
        <time>2012-10-21T06:53:14.000Z</time>
      </trkpt>
      <trkpt lat="45.56364" lon="3.33167">
        <ele>529</ele>
        <time>2012-10-21T06:53:15.000Z</time>
      </trkpt>
      <trkpt lat="45.56364" lon="3.33171">
        <ele>529</ele>
        <time>2012-10-21T06:53:16.000Z</time>
      </trkpt>
      <trkpt lat="45.56364" lon="3.33175">
        <ele>529</ele>
        <time>2012-10-21T06:53:17.000Z</time>
      </trkpt>
      <trkpt lat="45.56364" lon="3.33179">
        <ele>530</ele>
        <time>2012-10-21T06:53:18.000Z</time>
      </trkpt>
      <trkpt lat="45.56364" lon="3.33183">
        <ele>530</ele>
        <time>2012-10-21T06:53:19.000Z</time>
      </trkpt>
      <trkpt lat="45.56364" lon="3.33186">
        <ele>531</ele>
        <time>2012-10-21T06:53:20.000Z</time>
      </trkpt>
      <trkpt lat="45.56364" lon="3.3319">
        <ele>531</ele>
        <time>2012-10-21T06:53:21.000Z</time>
      </trkpt>
      <trkpt lat="45.56364" lon="3.33193">
        <ele>531</ele>
        <time>2012-10-21T06:53:22.000Z</time>
      </trkpt>
      <trkpt lat="45.56364" lon="3.33199">
        <ele>531</ele>
        <time>2012-10-21T06:53:24.000Z</time>
      </trkpt>
      <trkpt lat="45.56363" lon="3.33202">
        <ele>531</ele>
        <time>2012-10-21T06:53:25.000Z</time>
      </trkpt>
      <trkpt lat="45.56363" lon="3.33208">
        <ele>531</ele>
        <time>2012-10-21T06:53:27.000Z</time>
      </trkpt>
      <trkpt lat="45.56362" lon="3.33211">
        <ele>531</ele>
        <time>2012-10-21T06:53:28.000Z</time>
      </trkpt>
      <trkpt lat="45.56361" lon="3.33217">
        <ele>531</ele>
        <time>2012-10-21T06:53:30.000Z</time>
      </trkpt>
      <trkpt lat="45.56361" lon="3.33219">
        <ele>531</ele>
        <time>2012-10-21T06:53:31.000Z</time>
      </trkpt>
      <trkpt lat="45.5636" lon="3.33224">
        <ele>532</ele>
        <time>2012-10-21T06:53:33.000Z</time>
      </trkpt>
      <trkpt lat="45.5636" lon="3.33227">
        <ele>532</ele>
        <time>2012-10-21T06:53:34.000Z</time>
      </trkpt>
      <trkpt lat="45.56358" lon="3.33231">
        <ele>532</ele>
        <time>2012-10-21T06:53:36.000Z</time>
      </trkpt>
      <trkpt lat="45.56357" lon="3.33234">
        <ele>531</ele>
        <time>2012-10-21T06:53:37.000Z</time>
      </trkpt>
      <trkpt lat="45.56355" lon="3.33239">
        <ele>532</ele>
        <time>2012-10-21T06:53:42.000Z</time>
      </trkpt>
      <trkpt lat="45.56355" lon="3.3324">
        <ele>532</ele>
        <time>2012-10-21T06:53:43.000Z</time>
      </trkpt>
      <trkpt lat="45.56353" lon="3.33245">
        <ele>533</ele>
        <time>2012-10-21T06:54:54.000Z</time>
      </trkpt>
      <trkpt lat="45.56353" lon="3.33247">
        <ele>533</ele>
        <time>2012-10-21T06:54:55.000Z</time>
      </trkpt>
      <trkpt lat="45.56351" lon="3.33252">
        <ele>534</ele>
        <time>2012-10-21T06:54:57.000Z</time>
      </trkpt>
      <trkpt lat="45.56351" lon="3.33255">
        <ele>535</ele>
        <time>2012-10-21T06:54:58.000Z</time>
      </trkpt>
      <trkpt lat="45.56351" lon="3.33259">
        <ele>535</ele>
        <time>2012-10-21T06:54:59.000Z</time>
      </trkpt>
      <trkpt lat="45.56352" lon="3.33263">
        <ele>535</ele>
        <time>2012-10-21T06:55:00.000Z</time>
      </trkpt>
      <trkpt lat="45.56353" lon="3.33266">
        <ele>534</ele>
        <time>2012-10-21T06:55:01.000Z</time>
      </trkpt>
      <trkpt lat="45.56354" lon="3.3327">
        <ele>533</ele>
        <time>2012-10-21T06:55:02.000Z</time>
      </trkpt>
      <trkpt lat="45.56356" lon="3.33274">
        <ele>532</ele>
        <time>2012-10-21T06:55:03.000Z</time>
      </trkpt>
      <trkpt lat="45.56358" lon="3.33278">
        <ele>531</ele>
        <time>2012-10-21T06:55:04.000Z</time>
      </trkpt>
      <trkpt lat="45.5636" lon="3.33282">
        <ele>530</ele>
        <time>2012-10-21T06:55:05.000Z</time>
      </trkpt>
      <trkpt lat="45.56364" lon="3.33286">
        <ele>531</ele>
        <time>2012-10-21T06:55:06.000Z</time>
      </trkpt>
      <trkpt lat="45.56368" lon="3.3329">
        <ele>531</ele>
        <time>2012-10-21T06:55:07.000Z</time>
      </trkpt>
      <trkpt lat="45.56373" lon="3.33292">
        <ele>531</ele>
        <time>2012-10-21T06:55:08.000Z</time>
      </trkpt>
      <trkpt lat="45.56378" lon="3.33293">
        <ele>531</ele>
        <time>2012-10-21T06:55:09.000Z</time>
      </trkpt>
      <trkpt lat="45.56385" lon="3.33295">
        <ele>529</ele>
        <time>2012-10-21T06:55:10.000Z</time>
      </trkpt>
      <trkpt lat="45.5639" lon="3.33297">
        <ele>529</ele>
        <time>2012-10-21T06:55:11.000Z</time>
      </trkpt>
      <trkpt lat="45.56397" lon="3.33298">
        <ele>529</ele>
        <time>2012-10-21T06:55:12.000Z</time>
      </trkpt>
      <trkpt lat="45.56403" lon="3.333">
        <ele>529</ele>
        <time>2012-10-21T06:55:13.000Z</time>
      </trkpt>
      <trkpt lat="45.56409" lon="3.33302">
        <ele>530</ele>
        <time>2012-10-21T06:55:14.000Z</time>
      </trkpt>
      <trkpt lat="45.56416" lon="3.33305">
        <ele>529</ele>
        <time>2012-10-21T06:55:15.000Z</time>
      </trkpt>
      <trkpt lat="45.56424" lon="3.33307">
        <ele>527</ele>
        <time>2012-10-21T06:55:16.000Z</time>
      </trkpt>
      <trkpt lat="45.56431" lon="3.33309">
        <ele>527</ele>
        <time>2012-10-21T06:55:17.000Z</time>
      </trkpt>
      <trkpt lat="45.56439" lon="3.33311">
        <ele>526</ele>
        <time>2012-10-21T06:55:18.000Z</time>
      </trkpt>
      <trkpt lat="45.56447" lon="3.33312">
        <ele>526</ele>
        <time>2012-10-21T06:55:19.000Z</time>
      </trkpt>
      <trkpt lat="45.56454" lon="3.33314">
        <ele>526</ele>
        <time>2012-10-21T06:55:20.000Z</time>
      </trkpt>
      <trkpt lat="45.56462" lon="3.33316">
        <ele>525</ele>
        <time>2012-10-21T06:55:21.000Z</time>
      </trkpt>
      <trkpt lat="45.56471" lon="3.33318">
        <ele>524</ele>
        <time>2012-10-21T06:55:22.000Z</time>
      </trkpt>
      <trkpt lat="45.56479" lon="3.3332">
        <ele>524</ele>
        <time>2012-10-21T06:55:23.000Z</time>
      </trkpt>
      <trkpt lat="45.56488" lon="3.33322">
        <ele>523</ele>
        <time>2012-10-21T06:55:24.000Z</time>
      </trkpt>
      <trkpt lat="45.56496" lon="3.33324">
        <ele>523</ele>
        <time>2012-10-21T06:55:25.000Z</time>
      </trkpt>
      <trkpt lat="45.56504" lon="3.33325">
        <ele>523</ele>
        <time>2012-10-21T06:55:26.000Z</time>
      </trkpt>
      <trkpt lat="45.56512" lon="3.33326">
        <ele>523</ele>
        <time>2012-10-21T06:55:27.000Z</time>
      </trkpt>
      <trkpt lat="45.5652" lon="3.33327">
        <ele>524</ele>
        <time>2012-10-21T06:55:28.000Z</time>
      </trkpt>
      <trkpt lat="45.56527" lon="3.33328">
        <ele>523</ele>
        <time>2012-10-21T06:55:29.000Z</time>
      </trkpt>
      <trkpt lat="45.56535" lon="3.3333">
        <ele>523</ele>
        <time>2012-10-21T06:55:30.000Z</time>
      </trkpt>
      <trkpt lat="45.56542" lon="3.33331">
        <ele>523</ele>
        <time>2012-10-21T06:55:31.000Z</time>
      </trkpt>
      <trkpt lat="45.56549" lon="3.33333">
        <ele>524</ele>
        <time>2012-10-21T06:55:32.000Z</time>
      </trkpt>
      <trkpt lat="45.56554" lon="3.33336">
        <ele>523</ele>
        <time>2012-10-21T06:55:33.000Z</time>
      </trkpt>
      <trkpt lat="45.56558" lon="3.33341">
        <ele>521</ele>
        <time>2012-10-21T06:55:34.000Z</time>
      </trkpt>
      <trkpt lat="45.5656" lon="3.33347">
        <ele>518</ele>
        <time>2012-10-21T06:55:35.000Z</time>
      </trkpt>
      <trkpt lat="45.56561" lon="3.33352">
        <ele>518</ele>
        <time>2012-10-21T06:55:36.000Z</time>
      </trkpt>
      <trkpt lat="45.56562" lon="3.33358">
        <ele>517</ele>
        <time>2012-10-21T06:55:37.000Z</time>
      </trkpt>
      <trkpt lat="45.56562" lon="3.33365">
        <ele>516</ele>
        <time>2012-10-21T06:55:38.000Z</time>
      </trkpt>
      <trkpt lat="45.56563" lon="3.33372">
        <ele>517</ele>
        <time>2012-10-21T06:55:39.000Z</time>
      </trkpt>
      <trkpt lat="45.56563" lon="3.3338">
        <ele>517</ele>
        <time>2012-10-21T06:55:40.000Z</time>
      </trkpt>
      <trkpt lat="45.56563" lon="3.33388">
        <ele>516</ele>
        <time>2012-10-21T06:55:41.000Z</time>
      </trkpt>
      <trkpt lat="45.56564" lon="3.33398">
        <ele>517</ele>
        <time>2012-10-21T06:55:42.000Z</time>
      </trkpt>
      <trkpt lat="45.56565" lon="3.33407">
        <ele>517</ele>
        <time>2012-10-21T06:55:43.000Z</time>
      </trkpt>
      <trkpt lat="45.56566" lon="3.33416">
        <ele>516</ele>
        <time>2012-10-21T06:55:44.000Z</time>
      </trkpt>
      <trkpt lat="45.56568" lon="3.33427">
        <ele>512</ele>
        <time>2012-10-21T06:55:45.000Z</time>
      </trkpt>
      <trkpt lat="45.56569" lon="3.33438">
        <ele>510</ele>
        <time>2012-10-21T06:55:46.000Z</time>
      </trkpt>
      <trkpt lat="45.5657" lon="3.3345">
        <ele>512</ele>
        <time>2012-10-21T06:55:47.000Z</time>
      </trkpt>
      <trkpt lat="45.56572" lon="3.33463">
        <ele>513</ele>
        <time>2012-10-21T06:55:48.000Z</time>
      </trkpt>
      <trkpt lat="45.56574" lon="3.33477">
        <ele>512</ele>
        <time>2012-10-21T06:55:49.000Z</time>
      </trkpt>
      <trkpt lat="45.56576" lon="3.3349">
        <ele>511</ele>
        <time>2012-10-21T06:55:50.000Z</time>
      </trkpt>
      <trkpt lat="45.56578" lon="3.33502">
        <ele>509</ele>
        <time>2012-10-21T06:55:51.000Z</time>
      </trkpt>
      <trkpt lat="45.5658" lon="3.33515">
        <ele>509</ele>
        <time>2012-10-21T06:55:52.000Z</time>
      </trkpt>
      <trkpt lat="45.56582" lon="3.33528">
        <ele>509</ele>
        <time>2012-10-21T06:55:53.000Z</time>
      </trkpt>
      <trkpt lat="45.56583" lon="3.33541">
        <ele>507</ele>
        <time>2012-10-21T06:55:54.000Z</time>
      </trkpt>
      <trkpt lat="45.56585" lon="3.33555">
        <ele>508</ele>
        <time>2012-10-21T06:55:55.000Z</time>
      </trkpt>
      <trkpt lat="45.56587" lon="3.3357">
        <ele>507</ele>
        <time>2012-10-21T06:55:56.000Z</time>
      </trkpt>
      <trkpt lat="45.56588" lon="3.33584">
        <ele>506</ele>
        <time>2012-10-21T06:55:57.000Z</time>
      </trkpt>
      <trkpt lat="45.56589" lon="3.33598">
        <ele>506</ele>
        <time>2012-10-21T06:55:58.000Z</time>
      </trkpt>
      <trkpt lat="45.5659" lon="3.33612">
        <ele>506</ele>
        <time>2012-10-21T06:55:59.000Z</time>
      </trkpt>
      <trkpt lat="45.56591" lon="3.33624">
        <ele>504</ele>
        <time>2012-10-21T06:56:00.000Z</time>
      </trkpt>
      <trkpt lat="45.56592" lon="3.33633">
        <ele>503</ele>
        <time>2012-10-21T06:56:01.000Z</time>
      </trkpt>
      <trkpt lat="45.56592" lon="3.33641">
        <ele>502</ele>
        <time>2012-10-21T06:56:02.000Z</time>
      </trkpt>
      <trkpt lat="45.56594" lon="3.33647">
        <ele>501</ele>
        <time>2012-10-21T06:56:03.000Z</time>
      </trkpt>
      <trkpt lat="45.56597" lon="3.33652">
        <ele>502</ele>
        <time>2012-10-21T06:56:04.000Z</time>
      </trkpt>
      <trkpt lat="45.56601" lon="3.33655">
        <ele>502</ele>
        <time>2012-10-21T06:56:05.000Z</time>
      </trkpt>
      <trkpt lat="45.56605" lon="3.33655">
        <ele>501</ele>
        <time>2012-10-21T06:56:06.000Z</time>
      </trkpt>
      <trkpt lat="45.5661" lon="3.33653">
        <ele>501</ele>
        <time>2012-10-21T06:56:07.000Z</time>
      </trkpt>
      <trkpt lat="45.56615" lon="3.3365">
        <ele>501</ele>
        <time>2012-10-21T06:56:08.000Z</time>
      </trkpt>
      <trkpt lat="45.56619" lon="3.33646">
        <ele>501</ele>
        <time>2012-10-21T06:56:09.000Z</time>
      </trkpt>
      <trkpt lat="45.56624" lon="3.33642">
        <ele>500</ele>
        <time>2012-10-21T06:56:10.000Z</time>
      </trkpt>
      <trkpt lat="45.56629" lon="3.33638">
        <ele>501</ele>
        <time>2012-10-21T06:56:11.000Z</time>
      </trkpt>
      <trkpt lat="45.56633" lon="3.33635">
        <ele>499</ele>
        <time>2012-10-21T06:56:12.000Z</time>
      </trkpt>
      <trkpt lat="45.56638" lon="3.33633">
        <ele>500</ele>
        <time>2012-10-21T06:56:13.000Z</time>
      </trkpt>
      <trkpt lat="45.56643" lon="3.3363">
        <ele>500</ele>
        <time>2012-10-21T06:56:14.000Z</time>
      </trkpt>
      <trkpt lat="45.56648" lon="3.33628">
        <ele>501</ele>
        <time>2012-10-21T06:56:15.000Z</time>
      </trkpt>
      <trkpt lat="45.56653" lon="3.33626">
        <ele>503</ele>
        <time>2012-10-21T06:56:16.000Z</time>
      </trkpt>
      <trkpt lat="45.56658" lon="3.33625">
        <ele>504</ele>
        <time>2012-10-21T06:56:17.000Z</time>
      </trkpt>
      <trkpt lat="45.56663" lon="3.33623">
        <ele>504</ele>
        <time>2012-10-21T06:56:18.000Z</time>
      </trkpt>
      <trkpt lat="45.56668" lon="3.33622">
        <ele>504</ele>
        <time>2012-10-21T06:56:19.000Z</time>
      </trkpt>
      <trkpt lat="45.56672" lon="3.33621">
        <ele>504</ele>
        <time>2012-10-21T06:56:20.000Z</time>
      </trkpt>
      <trkpt lat="45.56676" lon="3.3362">
        <ele>503</ele>
        <time>2012-10-21T06:56:21.000Z</time>
      </trkpt>
      <trkpt lat="45.5668" lon="3.33619">
        <ele>506</ele>
        <time>2012-10-21T06:56:22.000Z</time>
      </trkpt>
      <trkpt lat="45.56684" lon="3.33617">
        <ele>504</ele>
        <time>2012-10-21T06:56:23.000Z</time>
      </trkpt>
      <trkpt lat="45.56688" lon="3.33616">
        <ele>504</ele>
        <time>2012-10-21T06:56:24.000Z</time>
      </trkpt>
      <trkpt lat="45.56691" lon="3.33615">
        <ele>504</ele>
        <time>2012-10-21T06:56:25.000Z</time>
      </trkpt>
      <trkpt lat="45.56695" lon="3.33614">
        <ele>504</ele>
        <time>2012-10-21T06:56:26.000Z</time>
      </trkpt>
      <trkpt lat="45.567" lon="3.33613">
        <ele>504</ele>
        <time>2012-10-21T06:56:27.000Z</time>
      </trkpt>
      <trkpt lat="45.56705" lon="3.33612">
        <ele>504</ele>
        <time>2012-10-21T06:56:28.000Z</time>
      </trkpt>
      <trkpt lat="45.5671" lon="3.33611">
        <ele>505</ele>
        <time>2012-10-21T06:56:29.000Z</time>
      </trkpt>
      <trkpt lat="45.56716" lon="3.3361">
        <ele>505</ele>
        <time>2012-10-21T06:56:30.000Z</time>
      </trkpt>
      <trkpt lat="45.56721" lon="3.3361">
        <ele>506</ele>
        <time>2012-10-21T06:56:31.000Z</time>
      </trkpt>
      <trkpt lat="45.56726" lon="3.33609">
        <ele>506</ele>
        <time>2012-10-21T06:56:32.000Z</time>
      </trkpt>
      <trkpt lat="45.56732" lon="3.33608">
        <ele>505</ele>
        <time>2012-10-21T06:56:33.000Z</time>
      </trkpt>
      <trkpt lat="45.56738" lon="3.33608">
        <ele>504</ele>
        <time>2012-10-21T06:56:33.999Z</time>
      </trkpt>
      <trkpt lat="45.56743" lon="3.33608">
        <ele>504</ele>
        <time>2012-10-21T06:56:35.000Z</time>
      </trkpt>
      <trkpt lat="45.56748" lon="3.33608">
        <ele>502</ele>
        <time>2012-10-21T06:56:36.000Z</time>
      </trkpt>
      <trkpt lat="45.56754" lon="3.33607">
        <ele>502</ele>
        <time>2012-10-21T06:56:37.000Z</time>
      </trkpt>
      <trkpt lat="45.5676" lon="3.33607">
        <ele>502</ele>
        <time>2012-10-21T06:56:38.000Z</time>
      </trkpt>
      <trkpt lat="45.56766" lon="3.33607">
        <ele>501</ele>
        <time>2012-10-21T06:56:39.000Z</time>
      </trkpt>
      <trkpt lat="45.56772" lon="3.33607">
        <ele>500</ele>
        <time>2012-10-21T06:56:40.000Z</time>
      </trkpt>
      <trkpt lat="45.56778" lon="3.33607">
        <ele>499</ele>
        <time>2012-10-21T06:56:41.000Z</time>
      </trkpt>
      <trkpt lat="45.56784" lon="3.33607">
        <ele>499</ele>
        <time>2012-10-21T06:56:42.000Z</time>
      </trkpt>
      <trkpt lat="45.56791" lon="3.33607">
        <ele>500</ele>
        <time>2012-10-21T06:56:43.000Z</time>
      </trkpt>
      <trkpt lat="45.56797" lon="3.33608">
        <ele>500</ele>
        <time>2012-10-21T06:56:44.000Z</time>
      </trkpt>
      <trkpt lat="45.56803" lon="3.33608">
        <ele>500</ele>
        <time>2012-10-21T06:56:45.000Z</time>
      </trkpt>
      <trkpt lat="45.56809" lon="3.33608">
        <ele>499</ele>
        <time>2012-10-21T06:56:46.000Z</time>
      </trkpt>
      <trkpt lat="45.56815" lon="3.33608">
        <ele>500</ele>
        <time>2012-10-21T06:56:47.000Z</time>
      </trkpt>
      <trkpt lat="45.56821" lon="3.33608">
        <ele>500</ele>
        <time>2012-10-21T06:56:48.000Z</time>
      </trkpt>
      <trkpt lat="45.56828" lon="3.33608">
        <ele>500</ele>
        <time>2012-10-21T06:56:49.000Z</time>
      </trkpt>
      <trkpt lat="45.56834" lon="3.33609">
        <ele>499</ele>
        <time>2012-10-21T06:56:50.000Z</time>
      </trkpt>
      <trkpt lat="45.5684" lon="3.33608">
        <ele>499</ele>
        <time>2012-10-21T06:56:51.000Z</time>
      </trkpt>
      <trkpt lat="45.56846" lon="3.33608">
        <ele>499</ele>
        <time>2012-10-21T06:56:52.000Z</time>
      </trkpt>
      <trkpt lat="45.56852" lon="3.33608">
        <ele>499</ele>
        <time>2012-10-21T06:56:53.000Z</time>
      </trkpt>
      <trkpt lat="45.56858" lon="3.33608">
        <ele>499</ele>
        <time>2012-10-21T06:56:54.000Z</time>
      </trkpt>
      <trkpt lat="45.56863" lon="3.33608">
        <ele>499</ele>
        <time>2012-10-21T06:56:55.000Z</time>
      </trkpt>
      <trkpt lat="45.56868" lon="3.33608">
        <ele>499</ele>
        <time>2012-10-21T06:56:56.000Z</time>
      </trkpt>
      <trkpt lat="45.56872" lon="3.33609">
        <ele>499</ele>
        <time>2012-10-21T06:56:57.000Z</time>
      </trkpt>
      <trkpt lat="45.56876" lon="3.33612">
        <ele>500</ele>
        <time>2012-10-21T06:56:58.000Z</time>
      </trkpt>
      <trkpt lat="45.56878" lon="3.33617">
        <ele>498</ele>
        <time>2012-10-21T06:56:59.000Z</time>
      </trkpt>
      <trkpt lat="45.56878" lon="3.33624">
        <ele>497</ele>
        <time>2012-10-21T06:57:00.000Z</time>
      </trkpt>
      <trkpt lat="45.56879" lon="3.33632">
        <ele>495</ele>
        <time>2012-10-21T06:57:01.000Z</time>
      </trkpt>
      <trkpt lat="45.56879" lon="3.33642">
        <ele>494</ele>
        <time>2012-10-21T06:57:02.000Z</time>
      </trkpt>
      <trkpt lat="45.56878" lon="3.33652">
        <ele>494</ele>
        <time>2012-10-21T06:57:03.000Z</time>
      </trkpt>
      <trkpt lat="45.56877" lon="3.33663">
        <ele>494</ele>
        <time>2012-10-21T06:57:04.000Z</time>
      </trkpt>
      <trkpt lat="45.56876" lon="3.33674">
        <ele>492</ele>
        <time>2012-10-21T06:57:05.000Z</time>
      </trkpt>
      <trkpt lat="45.56875" lon="3.33684">
        <ele>492</ele>
        <time>2012-10-21T06:57:06.000Z</time>
      </trkpt>
      <trkpt lat="45.56873" lon="3.33695">
        <ele>492</ele>
        <time>2012-10-21T06:57:07.000Z</time>
      </trkpt>
      <trkpt lat="45.56871" lon="3.33707">
        <ele>492</ele>
        <time>2012-10-21T06:57:08.000Z</time>
      </trkpt>
      <trkpt lat="45.56869" lon="3.33719">
        <ele>491</ele>
        <time>2012-10-21T06:57:09.000Z</time>
      </trkpt>
      <trkpt lat="45.56867" lon="3.33731">
        <ele>491</ele>
        <time>2012-10-21T06:57:10.000Z</time>
      </trkpt>
      <trkpt lat="45.56866" lon="3.33742">
        <ele>491</ele>
        <time>2012-10-21T06:57:11.000Z</time>
      </trkpt>
      <trkpt lat="45.56865" lon="3.33754">
        <ele>491</ele>
        <time>2012-10-21T06:57:12.000Z</time>
      </trkpt>
      <trkpt lat="45.56864" lon="3.33766">
        <ele>489</ele>
        <time>2012-10-21T06:57:13.000Z</time>
      </trkpt>
      <trkpt lat="45.56863" lon="3.33777">
        <ele>489</ele>
        <time>2012-10-21T06:57:14.000Z</time>
      </trkpt>
      <trkpt lat="45.56863" lon="3.33788">
        <ele>490</ele>
        <time>2012-10-21T06:57:15.000Z</time>
      </trkpt>
      <trkpt lat="45.56864" lon="3.33799">
        <ele>489</ele>
        <time>2012-10-21T06:57:16.000Z</time>
      </trkpt>
      <trkpt lat="45.56864" lon="3.33809">
        <ele>489</ele>
        <time>2012-10-21T06:57:17.000Z</time>
      </trkpt>
      <trkpt lat="45.56864" lon="3.3382">
        <ele>490</ele>
        <time>2012-10-21T06:57:18.000Z</time>
      </trkpt>
      <trkpt lat="45.56863" lon="3.3383">
        <ele>489</ele>
        <time>2012-10-21T06:57:19.000Z</time>
      </trkpt>
      <trkpt lat="45.56863" lon="3.3384">
        <ele>489</ele>
        <time>2012-10-21T06:57:20.000Z</time>
      </trkpt>
      <trkpt lat="45.56862" lon="3.3385">
        <ele>489</ele>
        <time>2012-10-21T06:57:21.000Z</time>
      </trkpt>
      <trkpt lat="45.56861" lon="3.3386">
        <ele>489</ele>
        <time>2012-10-21T06:57:22.000Z</time>
      </trkpt>
      <trkpt lat="45.56859" lon="3.3387">
        <ele>489</ele>
        <time>2012-10-21T06:57:23.000Z</time>
      </trkpt>
      <trkpt lat="45.56858" lon="3.3388">
        <ele>488</ele>
        <time>2012-10-21T06:57:24.000Z</time>
      </trkpt>
      <trkpt lat="45.56856" lon="3.3389">
        <ele>487</ele>
        <time>2012-10-21T06:57:25.000Z</time>
      </trkpt>
      <trkpt lat="45.56854" lon="3.339">
        <ele>487</ele>
        <time>2012-10-21T06:57:26.000Z</time>
      </trkpt>
      <trkpt lat="45.56852" lon="3.33909">
        <ele>487</ele>
        <time>2012-10-21T06:57:27.000Z</time>
      </trkpt>
      <trkpt lat="45.5685" lon="3.33919">
        <ele>487</ele>
        <time>2012-10-21T06:57:28.000Z</time>
      </trkpt>
      <trkpt lat="45.56848" lon="3.33929">
        <ele>487</ele>
        <time>2012-10-21T06:57:29.000Z</time>
      </trkpt>
      <trkpt lat="45.56845" lon="3.33938">
        <ele>487</ele>
        <time>2012-10-21T06:57:30.000Z</time>
      </trkpt>
      <trkpt lat="45.56843" lon="3.33948">
        <ele>486</ele>
        <time>2012-10-21T06:57:31.000Z</time>
      </trkpt>
      <trkpt lat="45.5684" lon="3.33957">
        <ele>486</ele>
        <time>2012-10-21T06:57:32.000Z</time>
      </trkpt>
      <trkpt lat="45.56838" lon="3.33966">
        <ele>486</ele>
        <time>2012-10-21T06:57:33.000Z</time>
      </trkpt>
      <trkpt lat="45.56836" lon="3.33976">
        <ele>486</ele>
        <time>2012-10-21T06:57:34.000Z</time>
      </trkpt>
      <trkpt lat="45.56833" lon="3.33985">
        <ele>487</ele>
        <time>2012-10-21T06:57:35.000Z</time>
      </trkpt>
      <trkpt lat="45.56832" lon="3.33994">
        <ele>488</ele>
        <time>2012-10-21T06:57:36.000Z</time>
      </trkpt>
      <trkpt lat="45.5683" lon="3.34004">
        <ele>488</ele>
        <time>2012-10-21T06:57:37.000Z</time>
      </trkpt>
      <trkpt lat="45.56828" lon="3.34013">
        <ele>488</ele>
        <time>2012-10-21T06:57:38.000Z</time>
      </trkpt>
      <trkpt lat="45.56827" lon="3.34022">
        <ele>488</ele>
        <time>2012-10-21T06:57:39.000Z</time>
      </trkpt>
      <trkpt lat="45.56826" lon="3.34031">
        <ele>488</ele>
        <time>2012-10-21T06:57:40.000Z</time>
      </trkpt>
      <trkpt lat="45.56825" lon="3.34039">
        <ele>487</ele>
        <time>2012-10-21T06:57:41.000Z</time>
      </trkpt>
      <trkpt lat="45.56825" lon="3.34048">
        <ele>487</ele>
        <time>2012-10-21T06:57:42.000Z</time>
      </trkpt>
      <trkpt lat="45.56824" lon="3.34057">
        <ele>487</ele>
        <time>2012-10-21T06:57:43.000Z</time>
      </trkpt>
      <trkpt lat="45.56824" lon="3.34065">
        <ele>487</ele>
        <time>2012-10-21T06:57:44.000Z</time>
      </trkpt>
      <trkpt lat="45.56824" lon="3.34074">
        <ele>488</ele>
        <time>2012-10-21T06:57:45.000Z</time>
      </trkpt>
      <trkpt lat="45.56824" lon="3.34082">
        <ele>489</ele>
        <time>2012-10-21T06:57:46.000Z</time>
      </trkpt>
      <trkpt lat="45.56824" lon="3.34091">
        <ele>489</ele>
        <time>2012-10-21T06:57:47.000Z</time>
      </trkpt>
      <trkpt lat="45.56824" lon="3.341">
        <ele>489</ele>
        <time>2012-10-21T06:57:48.000Z</time>
      </trkpt>
      <trkpt lat="45.56824" lon="3.34108">
        <ele>488</ele>
        <time>2012-10-21T06:57:49.000Z</time>
      </trkpt>
      <trkpt lat="45.56825" lon="3.34116">
        <ele>486</ele>
        <time>2012-10-21T06:57:50.000Z</time>
      </trkpt>
      <trkpt lat="45.56825" lon="3.34124">
        <ele>486</ele>
        <time>2012-10-21T06:57:51.000Z</time>
      </trkpt>
      <trkpt lat="45.56826" lon="3.34133">
        <ele>487</ele>
        <time>2012-10-21T06:57:52.000Z</time>
      </trkpt>
      <trkpt lat="45.56826" lon="3.34141">
        <ele>487</ele>
        <time>2012-10-21T06:57:53.000Z</time>
      </trkpt>
      <trkpt lat="45.56827" lon="3.34149">
        <ele>489</ele>
        <time>2012-10-21T06:57:54.000Z</time>
      </trkpt>
      <trkpt lat="45.56827" lon="3.34157">
        <ele>489</ele>
        <time>2012-10-21T06:57:55.000Z</time>
      </trkpt>
      <trkpt lat="45.56828" lon="3.34165">
        <ele>490</ele>
        <time>2012-10-21T06:57:56.000Z</time>
      </trkpt>
      <trkpt lat="45.56829" lon="3.34172">
        <ele>489</ele>
        <time>2012-10-21T06:57:57.000Z</time>
      </trkpt>
      <trkpt lat="45.5683" lon="3.34179">
        <ele>490</ele>
        <time>2012-10-21T06:57:58.000Z</time>
      </trkpt>
      <trkpt lat="45.56831" lon="3.34186">
        <ele>488</ele>
        <time>2012-10-21T06:57:59.000Z</time>
      </trkpt>
      <trkpt lat="45.56831" lon="3.34193">
        <ele>486</ele>
        <time>2012-10-21T06:58:00.000Z</time>
      </trkpt>
      <trkpt lat="45.56832" lon="3.34198">
        <ele>485</ele>
        <time>2012-10-21T06:58:01.000Z</time>
      </trkpt>
      <trkpt lat="45.56832" lon="3.34204">
        <ele>485</ele>
        <time>2012-10-21T06:58:02.000Z</time>
      </trkpt>
      <trkpt lat="45.56833" lon="3.3421">
        <ele>486</ele>
        <time>2012-10-21T06:58:03.000Z</time>
      </trkpt>
      <trkpt lat="45.56834" lon="3.34217">
        <ele>486</ele>
        <time>2012-10-21T06:58:04.000Z</time>
      </trkpt>
      <trkpt lat="45.56834" lon="3.34223">
        <ele>486</ele>
        <time>2012-10-21T06:58:05.000Z</time>
      </trkpt>
      <trkpt lat="45.56835" lon="3.34229">
        <ele>484</ele>
        <time>2012-10-21T06:58:06.000Z</time>
      </trkpt>
      <trkpt lat="45.56835" lon="3.34236">
        <ele>486</ele>
        <time>2012-10-21T06:58:07.000Z</time>
      </trkpt>
      <trkpt lat="45.56836" lon="3.34242">
        <ele>488</ele>
        <time>2012-10-21T06:58:08.000Z</time>
      </trkpt>
      <trkpt lat="45.56836" lon="3.34249">
        <ele>488</ele>
        <time>2012-10-21T06:58:09.000Z</time>
      </trkpt>
      <trkpt lat="45.56836" lon="3.34255">
        <ele>489</ele>
        <time>2012-10-21T06:58:10.000Z</time>
      </trkpt>
      <trkpt lat="45.56836" lon="3.34261">
        <ele>490</ele>
        <time>2012-10-21T06:58:11.000Z</time>
      </trkpt>
      <trkpt lat="45.56836" lon="3.34267">
        <ele>490</ele>
        <time>2012-10-21T06:58:12.000Z</time>
      </trkpt>
      <trkpt lat="45.56836" lon="3.34273">
        <ele>489</ele>
        <time>2012-10-21T06:58:13.000Z</time>
      </trkpt>
      <trkpt lat="45.56836" lon="3.34279">
        <ele>490</ele>
        <time>2012-10-21T06:58:14.000Z</time>
      </trkpt>
      <trkpt lat="45.56836" lon="3.34284">
        <ele>492</ele>
        <time>2012-10-21T06:58:15.000Z</time>
      </trkpt>
      <trkpt lat="45.56835" lon="3.34289">
        <ele>493</ele>
        <time>2012-10-21T06:58:16.000Z</time>
      </trkpt>
      <trkpt lat="45.56835" lon="3.34294">
        <ele>496</ele>
        <time>2012-10-21T06:58:17.000Z</time>
      </trkpt>
      <trkpt lat="45.56834" lon="3.34299">
        <ele>496</ele>
        <time>2012-10-21T06:58:18.000Z</time>
      </trkpt>
      <trkpt lat="45.56834" lon="3.34304">
        <ele>496</ele>
        <time>2012-10-21T06:58:19.000Z</time>
      </trkpt>
      <trkpt lat="45.56834" lon="3.34308">
        <ele>496</ele>
        <time>2012-10-21T06:58:20.000Z</time>
      </trkpt>
      <trkpt lat="45.56834" lon="3.34313">
        <ele>498</ele>
        <time>2012-10-21T06:58:21.000Z</time>
      </trkpt>
      <trkpt lat="45.56833" lon="3.34317">
        <ele>497</ele>
        <time>2012-10-21T06:58:22.000Z</time>
      </trkpt>
      <trkpt lat="45.56833" lon="3.34322">
        <ele>496</ele>
        <time>2012-10-21T06:58:23.000Z</time>
      </trkpt>
      <trkpt lat="45.56833" lon="3.34326">
        <ele>495</ele>
        <time>2012-10-21T06:58:24.000Z</time>
      </trkpt>
      <trkpt lat="45.56833" lon="3.3433">
        <ele>494</ele>
        <time>2012-10-21T06:58:25.000Z</time>
      </trkpt>
      <trkpt lat="45.56833" lon="3.34334">
        <ele>497</ele>
        <time>2012-10-21T06:58:26.000Z</time>
      </trkpt>
      <trkpt lat="45.56832" lon="3.34339">
        <ele>496</ele>
        <time>2012-10-21T06:58:27.000Z</time>
      </trkpt>
      <trkpt lat="45.56831" lon="3.34344">
        <ele>495</ele>
        <time>2012-10-21T06:58:28.000Z</time>
      </trkpt>
      <trkpt lat="45.56831" lon="3.34348">
        <ele>495</ele>
        <time>2012-10-21T06:58:29.000Z</time>
      </trkpt>
      <trkpt lat="45.5683" lon="3.34354">
        <ele>497</ele>
        <time>2012-10-21T06:58:30.000Z</time>
      </trkpt>
      <trkpt lat="45.5683" lon="3.34359">
        <ele>499</ele>
        <time>2012-10-21T06:58:31.000Z</time>
      </trkpt>
      <trkpt lat="45.56829" lon="3.34365">
        <ele>500</ele>
        <time>2012-10-21T06:58:32.000Z</time>
      </trkpt>
      <trkpt lat="45.56829" lon="3.34371">
        <ele>501</ele>
        <time>2012-10-21T06:58:33.000Z</time>
      </trkpt>
      <trkpt lat="45.56829" lon="3.34376">
        <ele>502</ele>
        <time>2012-10-21T06:58:34.000Z</time>
      </trkpt>
      <trkpt lat="45.56828" lon="3.34381">
        <ele>503</ele>
        <time>2012-10-21T06:58:35.000Z</time>
      </trkpt>
      <trkpt lat="45.56828" lon="3.34385">
        <ele>504</ele>
        <time>2012-10-21T06:58:36.000Z</time>
      </trkpt>
      <trkpt lat="45.56828" lon="3.3439">
        <ele>504</ele>
        <time>2012-10-21T06:58:37.000Z</time>
      </trkpt>
      <trkpt lat="45.56828" lon="3.34395">
        <ele>502</ele>
        <time>2012-10-21T06:58:38.000Z</time>
      </trkpt>
      <trkpt lat="45.56827" lon="3.34399">
        <ele>501</ele>
        <time>2012-10-21T06:58:39.000Z</time>
      </trkpt>
      <trkpt lat="45.56827" lon="3.34403">
        <ele>501</ele>
        <time>2012-10-21T06:58:40.000Z</time>
      </trkpt>
      <trkpt lat="45.56826" lon="3.34408">
        <ele>502</ele>
        <time>2012-10-21T06:58:41.000Z</time>
      </trkpt>
      <trkpt lat="45.56825" lon="3.34413">
        <ele>502</ele>
        <time>2012-10-21T06:58:42.000Z</time>
      </trkpt>
      <trkpt lat="45.56825" lon="3.34417">
        <ele>501</ele>
        <time>2012-10-21T06:58:43.000Z</time>
      </trkpt>
      <trkpt lat="45.56824" lon="3.34422">
        <ele>501</ele>
        <time>2012-10-21T06:58:44.000Z</time>
      </trkpt>
      <trkpt lat="45.56823" lon="3.34427">
        <ele>501</ele>
        <time>2012-10-21T06:58:45.000Z</time>
      </trkpt>
      <trkpt lat="45.56823" lon="3.34432">
        <ele>502</ele>
        <time>2012-10-21T06:58:46.000Z</time>
      </trkpt>
      <trkpt lat="45.56822" lon="3.34437">
        <ele>504</ele>
        <time>2012-10-21T06:58:47.000Z</time>
      </trkpt>
      <trkpt lat="45.56822" lon="3.34441">
        <ele>505</ele>
        <time>2012-10-21T06:58:48.000Z</time>
      </trkpt>
      <trkpt lat="45.56821" lon="3.34446">
        <ele>505</ele>
        <time>2012-10-21T06:58:49.000Z</time>
      </trkpt>
      <trkpt lat="45.5682" lon="3.34451">
        <ele>504</ele>
        <time>2012-10-21T06:58:50.000Z</time>
      </trkpt>
      <trkpt lat="45.56819" lon="3.34457">
        <ele>503</ele>
        <time>2012-10-21T06:58:51.000Z</time>
      </trkpt>
      <trkpt lat="45.56818" lon="3.34464">
        <ele>503</ele>
        <time>2012-10-21T06:58:52.000Z</time>
      </trkpt>
      <trkpt lat="45.56817" lon="3.34472">
        <ele>503</ele>
        <time>2012-10-21T06:58:53.000Z</time>
      </trkpt>
      <trkpt lat="45.56815" lon="3.34479">
        <ele>503</ele>
        <time>2012-10-21T06:58:54.000Z</time>
      </trkpt>
      <trkpt lat="45.56814" lon="3.34487">
        <ele>502</ele>
        <time>2012-10-21T06:58:55.000Z</time>
      </trkpt>
      <trkpt lat="45.56813" lon="3.34494">
        <ele>502</ele>
        <time>2012-10-21T06:58:56.000Z</time>
      </trkpt>
      <trkpt lat="45.56812" lon="3.34502">
        <ele>502</ele>
        <time>2012-10-21T06:58:57.000Z</time>
      </trkpt>
      <trkpt lat="45.5681" lon="3.34511">
        <ele>501</ele>
        <time>2012-10-21T06:58:58.000Z</time>
      </trkpt>
      <trkpt lat="45.56809" lon="3.34521">
        <ele>501</ele>
        <time>2012-10-21T06:58:59.000Z</time>
      </trkpt>
      <trkpt lat="45.56808" lon="3.3453">
        <ele>501</ele>
        <time>2012-10-21T06:59:00.000Z</time>
      </trkpt>
      <trkpt lat="45.56807" lon="3.34539">
        <ele>500</ele>
        <time>2012-10-21T06:59:01.000Z</time>
      </trkpt>
      <trkpt lat="45.56806" lon="3.34549">
        <ele>501</ele>
        <time>2012-10-21T06:59:02.000Z</time>
      </trkpt>
      <trkpt lat="45.56805" lon="3.34559">
        <ele>501</ele>
        <time>2012-10-21T06:59:03.000Z</time>
      </trkpt>
      <trkpt lat="45.56804" lon="3.3457">
        <ele>502</ele>
        <time>2012-10-21T06:59:04.000Z</time>
      </trkpt>
      <trkpt lat="45.56803" lon="3.34581">
        <ele>500</ele>
        <time>2012-10-21T06:59:05.000Z</time>
      </trkpt>
      <trkpt lat="45.56802" lon="3.34593">
        <ele>500</ele>
        <time>2012-10-21T06:59:06.000Z</time>
      </trkpt>
      <trkpt lat="45.56801" lon="3.34605">
        <ele>500</ele>
        <time>2012-10-21T06:59:07.000Z</time>
      </trkpt>
      <trkpt lat="45.56799" lon="3.34617">
        <ele>499</ele>
        <time>2012-10-21T06:59:08.000Z</time>
      </trkpt>
      <trkpt lat="45.56798" lon="3.34629">
        <ele>499</ele>
        <time>2012-10-21T06:59:09.000Z</time>
      </trkpt>
      <trkpt lat="45.56797" lon="3.34641">
        <ele>499</ele>
        <time>2012-10-21T06:59:10.000Z</time>
      </trkpt>
      <trkpt lat="45.56795" lon="3.34652">
        <ele>498</ele>
        <time>2012-10-21T06:59:11.000Z</time>
      </trkpt>
      <trkpt lat="45.56794" lon="3.34662">
        <ele>497</ele>
        <time>2012-10-21T06:59:12.000Z</time>
      </trkpt>
      <trkpt lat="45.56793" lon="3.34672">
        <ele>497</ele>
        <time>2012-10-21T06:59:13.000Z</time>
      </trkpt>
      <trkpt lat="45.56792" lon="3.34682">
        <ele>498</ele>
        <time>2012-10-21T06:59:14.000Z</time>
      </trkpt>
      <trkpt lat="45.56791" lon="3.34692">
        <ele>496</ele>
        <time>2012-10-21T06:59:15.000Z</time>
      </trkpt>
      <trkpt lat="45.5679" lon="3.34701">
        <ele>494</ele>
        <time>2012-10-21T06:59:16.000Z</time>
      </trkpt>
      <trkpt lat="45.56789" lon="3.34709">
        <ele>494</ele>
        <time>2012-10-21T06:59:17.000Z</time>
      </trkpt>
      <trkpt lat="45.56789" lon="3.34716">
        <ele>495</ele>
        <time>2012-10-21T06:59:18.000Z</time>
      </trkpt>
      <trkpt lat="45.56789" lon="3.34723">
        <ele>492</ele>
        <time>2012-10-21T06:59:19.000Z</time>
      </trkpt>
      <trkpt lat="45.56789" lon="3.34731">
        <ele>492</ele>
        <time>2012-10-21T06:59:20.000Z</time>
      </trkpt>
      <trkpt lat="45.56789" lon="3.34738">
        <ele>493</ele>
        <time>2012-10-21T06:59:21.000Z</time>
      </trkpt>
      <trkpt lat="45.56789" lon="3.34744">
        <ele>493</ele>
        <time>2012-10-21T06:59:22.000Z</time>
      </trkpt>
      <trkpt lat="45.5679" lon="3.34751">
        <ele>494</ele>
        <time>2012-10-21T06:59:23.000Z</time>
      </trkpt>
      <trkpt lat="45.5679" lon="3.34758">
        <ele>493</ele>
        <time>2012-10-21T06:59:24.000Z</time>
      </trkpt>
      <trkpt lat="45.56791" lon="3.34765">
        <ele>495</ele>
        <time>2012-10-21T06:59:25.000Z</time>
      </trkpt>
      <trkpt lat="45.56792" lon="3.34772">
        <ele>495</ele>
        <time>2012-10-21T06:59:26.000Z</time>
      </trkpt>
      <trkpt lat="45.56793" lon="3.34778">
        <ele>498</ele>
        <time>2012-10-21T06:59:27.000Z</time>
      </trkpt>
      <trkpt lat="45.56794" lon="3.34785">
        <ele>498</ele>
        <time>2012-10-21T06:59:28.000Z</time>
      </trkpt>
      <trkpt lat="45.56795" lon="3.3479">
        <ele>498</ele>
        <time>2012-10-21T06:59:29.000Z</time>
      </trkpt>
      <trkpt lat="45.56795" lon="3.34796">
        <ele>497</ele>
        <time>2012-10-21T06:59:30.000Z</time>
      </trkpt>
      <trkpt lat="45.56796" lon="3.34802">
        <ele>498</ele>
        <time>2012-10-21T06:59:31.000Z</time>
      </trkpt>
      <trkpt lat="45.56796" lon="3.34807">
        <ele>498</ele>
        <time>2012-10-21T06:59:32.000Z</time>
      </trkpt>
      <trkpt lat="45.56797" lon="3.34812">
        <ele>498</ele>
        <time>2012-10-21T06:59:33.000Z</time>
      </trkpt>
      <trkpt lat="45.56797" lon="3.34817">
        <ele>498</ele>
        <time>2012-10-21T06:59:34.000Z</time>
      </trkpt>
      <trkpt lat="45.56798" lon="3.34822">
        <ele>500</ele>
        <time>2012-10-21T06:59:35.000Z</time>
      </trkpt>
      <trkpt lat="45.56799" lon="3.34828">
        <ele>499</ele>
        <time>2012-10-21T06:59:36.000Z</time>
      </trkpt>
      <trkpt lat="45.56799" lon="3.34834">
        <ele>500</ele>
        <time>2012-10-21T06:59:37.000Z</time>
      </trkpt>
      <trkpt lat="45.568" lon="3.3484">
        <ele>501</ele>
        <time>2012-10-21T06:59:38.000Z</time>
      </trkpt>
      <trkpt lat="45.568" lon="3.34849">
        <ele>501</ele>
        <time>2012-10-21T06:59:40.000Z</time>
      </trkpt>
      <trkpt lat="45.568" lon="3.34854">
        <ele>502</ele>
        <time>2012-10-21T06:59:41.000Z</time>
      </trkpt>
      <trkpt lat="45.568" lon="3.34859">
        <ele>504</ele>
        <time>2012-10-21T06:59:42.000Z</time>
      </trkpt>
      <trkpt lat="45.56799" lon="3.34864">
        <ele>507</ele>
        <time>2012-10-21T06:59:43.000Z</time>
      </trkpt>
      <trkpt lat="45.56799" lon="3.34869">
        <ele>505</ele>
        <time>2012-10-21T06:59:44.000Z</time>
      </trkpt>
      <trkpt lat="45.56799" lon="3.34875">
        <ele>504</ele>
        <time>2012-10-21T06:59:45.000Z</time>
      </trkpt>
      <trkpt lat="45.56799" lon="3.34879">
        <ele>506</ele>
        <time>2012-10-21T06:59:46.000Z</time>
      </trkpt>
      <trkpt lat="45.56799" lon="3.34885">
        <ele>506</ele>
        <time>2012-10-21T06:59:47.000Z</time>
      </trkpt>
      <trkpt lat="45.56798" lon="3.34891">
        <ele>509</ele>
        <time>2012-10-21T06:59:48.000Z</time>
      </trkpt>
      <trkpt lat="45.56798" lon="3.34895">
        <ele>502</ele>
        <time>2012-10-21T06:59:49.000Z</time>
      </trkpt>
      <trkpt lat="45.56797" lon="3.349">
        <ele>499</ele>
        <time>2012-10-21T06:59:50.000Z</time>
      </trkpt>
      <trkpt lat="45.56798" lon="3.34906">
        <ele>501</ele>
        <time>2012-10-21T06:59:51.000Z</time>
      </trkpt>
      <trkpt lat="45.56798" lon="3.34911">
        <ele>505</ele>
        <time>2012-10-21T06:59:52.000Z</time>
      </trkpt>
      <trkpt lat="45.56798" lon="3.34917">
        <ele>504</ele>
        <time>2012-10-21T06:59:53.000Z</time>
      </trkpt>
      <trkpt lat="45.56797" lon="3.34922">
        <ele>504</ele>
        <time>2012-10-21T06:59:54.000Z</time>
      </trkpt>
      <trkpt lat="45.56797" lon="3.34926">
        <ele>504</ele>
        <time>2012-10-21T06:59:56.000Z</time>
      </trkpt>
      <trkpt lat="45.56797" lon="3.34933">
        <ele>505</ele>
        <time>2012-10-21T06:59:57.000Z</time>
      </trkpt>
      <trkpt lat="45.56797" lon="3.34937">
        <ele>504</ele>
        <time>2012-10-21T06:59:58.000Z</time>
      </trkpt>
      <trkpt lat="45.56797" lon="3.3494">
        <ele>505</ele>
        <time>2012-10-21T06:59:59.000Z</time>
      </trkpt>
      <trkpt lat="45.56797" lon="3.34944">
        <ele>506</ele>
        <time>2012-10-21T07:00:00.000Z</time>
      </trkpt>
      <trkpt lat="45.56795" lon="3.34949">
        <ele>508</ele>
        <time>2012-10-21T07:00:01.000Z</time>
      </trkpt>
      <trkpt lat="45.56793" lon="3.34952">
        <ele>509</ele>
        <time>2012-10-21T07:00:02.000Z</time>
      </trkpt>
      <trkpt lat="45.56791" lon="3.34955">
        <ele>509</ele>
        <time>2012-10-21T07:00:03.000Z</time>
      </trkpt>
      <trkpt lat="45.5679" lon="3.34959">
        <ele>508</ele>
        <time>2012-10-21T07:00:04.000Z</time>
      </trkpt>
      <trkpt lat="45.56787" lon="3.34962">
        <ele>507</ele>
        <time>2012-10-21T07:00:05.000Z</time>
      </trkpt>
      <trkpt lat="45.56786" lon="3.34967">
        <ele>508</ele>
        <time>2012-10-21T07:00:06.000Z</time>
      </trkpt>
      <trkpt lat="45.56785" lon="3.34972">
        <ele>508</ele>
        <time>2012-10-21T07:00:07.000Z</time>
      </trkpt>
      <trkpt lat="45.56785" lon="3.34977">
        <ele>507</ele>
        <time>2012-10-21T07:00:08.000Z</time>
      </trkpt>
      <trkpt lat="45.56785" lon="3.34982">
        <ele>507</ele>
        <time>2012-10-21T07:00:09.000Z</time>
      </trkpt>
      <trkpt lat="45.56785" lon="3.34985">
        <ele>507</ele>
        <time>2012-10-21T07:00:10.000Z</time>
      </trkpt>
      <trkpt lat="45.56785" lon="3.34989">
        <ele>507</ele>
        <time>2012-10-21T07:00:11.000Z</time>
      </trkpt>
      <trkpt lat="45.56785" lon="3.34993">
        <ele>509</ele>
        <time>2012-10-21T07:00:12.000Z</time>
      </trkpt>
      <trkpt lat="45.56784" lon="3.34997">
        <ele>509</ele>
        <time>2012-10-21T07:00:13.000Z</time>
      </trkpt>
      <trkpt lat="45.56785" lon="3.35001">
        <ele>506</ele>
        <time>2012-10-21T07:00:14.000Z</time>
      </trkpt>
      <trkpt lat="45.56785" lon="3.35004">
        <ele>507</ele>
        <time>2012-10-21T07:00:15.000Z</time>
      </trkpt>
      <trkpt lat="45.56785" lon="3.35008">
        <ele>508</ele>
        <time>2012-10-21T07:00:16.000Z</time>
      </trkpt>
      <trkpt lat="45.56785" lon="3.35012">
        <ele>508</ele>
        <time>2012-10-21T07:00:17.000Z</time>
      </trkpt>
      <trkpt lat="45.56786" lon="3.35017">
        <ele>509</ele>
        <time>2012-10-21T07:00:18.000Z</time>
      </trkpt>
      <trkpt lat="45.56786" lon="3.3502">
        <ele>506</ele>
        <time>2012-10-21T07:00:19.000Z</time>
      </trkpt>
      <trkpt lat="45.56785" lon="3.35025">
        <ele>505</ele>
        <time>2012-10-21T07:00:20.000Z</time>
      </trkpt>
      <trkpt lat="45.56785" lon="3.35029">
        <ele>507</ele>
        <time>2012-10-21T07:00:21.000Z</time>
      </trkpt>
      <trkpt lat="45.56785" lon="3.35034">
        <ele>509</ele>
        <time>2012-10-21T07:00:22.000Z</time>
      </trkpt>
      <trkpt lat="45.56784" lon="3.35039">
        <ele>510</ele>
        <time>2012-10-21T07:00:23.000Z</time>
      </trkpt>
      <trkpt lat="45.56784" lon="3.35044">
        <ele>510</ele>
        <time>2012-10-21T07:00:24.000Z</time>
      </trkpt>
      <trkpt lat="45.56784" lon="3.3505">
        <ele>512</ele>
        <time>2012-10-21T07:00:25.000Z</time>
      </trkpt>
      <trkpt lat="45.56784" lon="3.35056">
        <ele>513</ele>
        <time>2012-10-21T07:00:26.000Z</time>
      </trkpt>
      <trkpt lat="45.56784" lon="3.35062">
        <ele>514</ele>
        <time>2012-10-21T07:00:27.000Z</time>
      </trkpt>
      <trkpt lat="45.56784" lon="3.35067">
        <ele>515</ele>
        <time>2012-10-21T07:00:28.000Z</time>
      </trkpt>
      <trkpt lat="45.56784" lon="3.35072">
        <ele>514</ele>
        <time>2012-10-21T07:00:29.000Z</time>
      </trkpt>
      <trkpt lat="45.56785" lon="3.35076">
        <ele>514</ele>
        <time>2012-10-21T07:00:30.000Z</time>
      </trkpt>
      <trkpt lat="45.56786" lon="3.35081">
        <ele>516</ele>
        <time>2012-10-21T07:00:31.000Z</time>
      </trkpt>
      <trkpt lat="45.56787" lon="3.35086">
        <ele>516</ele>
        <time>2012-10-21T07:00:32.000Z</time>
      </trkpt>
      <trkpt lat="45.56787" lon="3.35091">
        <ele>516</ele>
        <time>2012-10-21T07:00:33.000Z</time>
      </trkpt>
      <trkpt lat="45.56788" lon="3.35097">
        <ele>518</ele>
        <time>2012-10-21T07:00:34.000Z</time>
      </trkpt>
      <trkpt lat="45.56789" lon="3.35102">
        <ele>517</ele>
        <time>2012-10-21T07:00:35.000Z</time>
      </trkpt>
      <trkpt lat="45.56789" lon="3.35107">
        <ele>517</ele>
        <time>2012-10-21T07:00:36.000Z</time>
      </trkpt>
      <trkpt lat="45.56789" lon="3.3511">
        <ele>516</ele>
        <time>2012-10-21T07:00:37.000Z</time>
      </trkpt>
      <trkpt lat="45.56789" lon="3.35121">
        <ele>510</ele>
        <time>2012-10-21T07:00:40.000Z</time>
      </trkpt>
      <trkpt lat="45.56789" lon="3.35126">
        <ele>512</ele>
        <time>2012-10-21T07:00:41.000Z</time>
      </trkpt>
      <trkpt lat="45.56789" lon="3.35131">
        <ele>510</ele>
        <time>2012-10-21T07:00:42.000Z</time>
      </trkpt>
      <trkpt lat="45.56789" lon="3.35135">
        <ele>513</ele>
        <time>2012-10-21T07:00:43.000Z</time>
      </trkpt>
      <trkpt lat="45.5679" lon="3.35138">
        <ele>514</ele>
        <time>2012-10-21T07:00:44.000Z</time>
      </trkpt>
      <trkpt lat="45.56791" lon="3.35142">
        <ele>514</ele>
        <time>2012-10-21T07:00:45.000Z</time>
      </trkpt>
      <trkpt lat="45.56792" lon="3.35148">
        <ele>519</ele>
        <time>2012-10-21T07:00:46.000Z</time>
      </trkpt>
      <trkpt lat="45.56794" lon="3.35152">
        <ele>518</ele>
        <time>2012-10-21T07:00:47.000Z</time>
      </trkpt>
      <trkpt lat="45.56795" lon="3.35157">
        <ele>518</ele>
        <time>2012-10-21T07:00:48.000Z</time>
      </trkpt>
      <trkpt lat="45.56797" lon="3.35162">
        <ele>519</ele>
        <time>2012-10-21T07:00:49.000Z</time>
      </trkpt>
      <trkpt lat="45.56798" lon="3.35165">
        <ele>520</ele>
        <time>2012-10-21T07:00:50.000Z</time>
      </trkpt>
      <trkpt lat="45.568" lon="3.3517">
        <ele>522</ele>
        <time>2012-10-21T07:00:51.000Z</time>
      </trkpt>
      <trkpt lat="45.56802" lon="3.35174">
        <ele>523</ele>
        <time>2012-10-21T07:00:52.000Z</time>
      </trkpt>
      <trkpt lat="45.56805" lon="3.35179">
        <ele>520</ele>
        <time>2012-10-21T07:00:53.000Z</time>
      </trkpt>
      <trkpt lat="45.56807" lon="3.35184">
        <ele>520</ele>
        <time>2012-10-21T07:00:54.000Z</time>
      </trkpt>
      <trkpt lat="45.56808" lon="3.35187">
        <ele>520</ele>
        <time>2012-10-21T07:00:55.000Z</time>
      </trkpt>
      <trkpt lat="45.5681" lon="3.35192">
        <ele>518</ele>
        <time>2012-10-21T07:00:56.000Z</time>
      </trkpt>
      <trkpt lat="45.56811" lon="3.35195">
        <ele>521</ele>
        <time>2012-10-21T07:00:57.000Z</time>
      </trkpt>
      <trkpt lat="45.56813" lon="3.352">
        <ele>520</ele>
        <time>2012-10-21T07:00:58.000Z</time>
      </trkpt>
      <trkpt lat="45.56814" lon="3.35203">
        <ele>523</ele>
        <time>2012-10-21T07:00:59.000Z</time>
      </trkpt>
      <trkpt lat="45.56816" lon="3.35207">
        <ele>520</ele>
        <time>2012-10-21T07:01:00.000Z</time>
      </trkpt>
      <trkpt lat="45.56818" lon="3.35211">
        <ele>521</ele>
        <time>2012-10-21T07:01:01.000Z</time>
      </trkpt>
      <trkpt lat="45.5682" lon="3.35215">
        <ele>520</ele>
        <time>2012-10-21T07:01:02.000Z</time>
      </trkpt>
      <trkpt lat="45.56822" lon="3.3522">
        <ele>522</ele>
        <time>2012-10-21T07:01:03.000Z</time>
      </trkpt>
      <trkpt lat="45.56824" lon="3.35225">
        <ele>521</ele>
        <time>2012-10-21T07:01:04.000Z</time>
      </trkpt>
      <trkpt lat="45.56826" lon="3.3523">
        <ele>523</ele>
        <time>2012-10-21T07:01:05.000Z</time>
      </trkpt>
      <trkpt lat="45.56828" lon="3.35235">
        <ele>523</ele>
        <time>2012-10-21T07:01:06.000Z</time>
      </trkpt>
      <trkpt lat="45.56831" lon="3.3524">
        <ele>523</ele>
        <time>2012-10-21T07:01:07.000Z</time>
      </trkpt>
      <trkpt lat="45.56833" lon="3.35244">
        <ele>524</ele>
        <time>2012-10-21T07:01:08.000Z</time>
      </trkpt>
      <trkpt lat="45.56835" lon="3.35249">
        <ele>524</ele>
        <time>2012-10-21T07:01:09.000Z</time>
      </trkpt>
      <trkpt lat="45.56837" lon="3.35253">
        <ele>526</ele>
        <time>2012-10-21T07:01:10.000Z</time>
      </trkpt>
      <trkpt lat="45.5684" lon="3.35257">
        <ele>526</ele>
        <time>2012-10-21T07:01:11.000Z</time>
      </trkpt>
      <trkpt lat="45.56841" lon="3.3526">
        <ele>523</ele>
        <time>2012-10-21T07:01:12.000Z</time>
      </trkpt>
      <trkpt lat="45.56843" lon="3.35264">
        <ele>521</ele>
        <time>2012-10-21T07:01:13.000Z</time>
      </trkpt>
      <trkpt lat="45.56845" lon="3.35268">
        <ele>518</ele>
        <time>2012-10-21T07:01:14.000Z</time>
      </trkpt>
      <trkpt lat="45.56847" lon="3.35272">
        <ele>520</ele>
        <time>2012-10-21T07:01:15.000Z</time>
      </trkpt>
      <trkpt lat="45.56848" lon="3.35276">
        <ele>521</ele>
        <time>2012-10-21T07:01:16.000Z</time>
      </trkpt>
      <trkpt lat="45.5685" lon="3.3528">
        <ele>525</ele>
        <time>2012-10-21T07:01:17.000Z</time>
      </trkpt>
      <trkpt lat="45.56852" lon="3.35284">
        <ele>526</ele>
        <time>2012-10-21T07:01:18.000Z</time>
      </trkpt>
      <trkpt lat="45.56854" lon="3.35289">
        <ele>527</ele>
        <time>2012-10-21T07:01:19.000Z</time>
      </trkpt>
      <trkpt lat="45.56856" lon="3.35295">
        <ele>522</ele>
        <time>2012-10-21T07:01:20.000Z</time>
      </trkpt>
      <trkpt lat="45.56859" lon="3.35301">
        <ele>522</ele>
        <time>2012-10-21T07:01:21.000Z</time>
      </trkpt>
      <trkpt lat="45.56862" lon="3.35306">
        <ele>521</ele>
        <time>2012-10-21T07:01:22.000Z</time>
      </trkpt>
      <trkpt lat="45.56864" lon="3.35311">
        <ele>519</ele>
        <time>2012-10-21T07:01:23.000Z</time>
      </trkpt>
      <trkpt lat="45.56866" lon="3.35315">
        <ele>522</ele>
        <time>2012-10-21T07:01:24.000Z</time>
      </trkpt>
      <trkpt lat="45.56868" lon="3.3532">
        <ele>521</ele>
        <time>2012-10-21T07:01:25.000Z</time>
      </trkpt>
      <trkpt lat="45.5687" lon="3.35325">
        <ele>520</ele>
        <time>2012-10-21T07:01:26.000Z</time>
      </trkpt>
      <trkpt lat="45.56873" lon="3.3533">
        <ele>520</ele>
        <time>2012-10-21T07:01:27.000Z</time>
      </trkpt>
      <trkpt lat="45.56875" lon="3.35335">
        <ele>520</ele>
        <time>2012-10-21T07:01:28.000Z</time>
      </trkpt>
      <trkpt lat="45.56878" lon="3.3534">
        <ele>521</ele>
        <time>2012-10-21T07:01:29.000Z</time>
      </trkpt>
      <trkpt lat="45.56881" lon="3.35345">
        <ele>522</ele>
        <time>2012-10-21T07:01:30.000Z</time>
      </trkpt>
      <trkpt lat="45.56884" lon="3.35351">
        <ele>522</ele>
        <time>2012-10-21T07:01:31.000Z</time>
      </trkpt>
      <trkpt lat="45.56886" lon="3.35357">
        <ele>522</ele>
        <time>2012-10-21T07:01:32.000Z</time>
      </trkpt>
      <trkpt lat="45.56889" lon="3.35363">
        <ele>520</ele>
        <time>2012-10-21T07:01:33.000Z</time>
      </trkpt>
      <trkpt lat="45.56893" lon="3.35369">
        <ele>519</ele>
        <time>2012-10-21T07:01:34.000Z</time>
      </trkpt>
      <trkpt lat="45.56895" lon="3.35374">
        <ele>522</ele>
        <time>2012-10-21T07:01:35.000Z</time>
      </trkpt>
      <trkpt lat="45.56898" lon="3.3538">
        <ele>520</ele>
        <time>2012-10-21T07:01:36.000Z</time>
      </trkpt>
      <trkpt lat="45.56901" lon="3.35385">
        <ele>520</ele>
        <time>2012-10-21T07:01:37.000Z</time>
      </trkpt>
      <trkpt lat="45.56904" lon="3.3539">
        <ele>522</ele>
        <time>2012-10-21T07:01:38.000Z</time>
      </trkpt>
      <trkpt lat="45.5691" lon="3.354">
        <ele>526</ele>
        <time>2012-10-21T07:01:40.000Z</time>
      </trkpt>
      <trkpt lat="45.56912" lon="3.35405">
        <ele>524</ele>
        <time>2012-10-21T07:01:41.000Z</time>
      </trkpt>
      <trkpt lat="45.56916" lon="3.3541">
        <ele>523</ele>
        <time>2012-10-21T07:01:42.000Z</time>
      </trkpt>
      <trkpt lat="45.56918" lon="3.35416">
        <ele>523</ele>
        <time>2012-10-21T07:01:43.000Z</time>
      </trkpt>
      <trkpt lat="45.56922" lon="3.35421">
        <ele>523</ele>
        <time>2012-10-21T07:01:44.000Z</time>
      </trkpt>
      <trkpt lat="45.56925" lon="3.35427">
        <ele>524</ele>
        <time>2012-10-21T07:01:45.000Z</time>
      </trkpt>
      <trkpt lat="45.56928" lon="3.35433">
        <ele>521</ele>
        <time>2012-10-21T07:01:46.000Z</time>
      </trkpt>
      <trkpt lat="45.56931" lon="3.35437">
        <ele>518</ele>
        <time>2012-10-21T07:01:47.000Z</time>
      </trkpt>
      <trkpt lat="45.56934" lon="3.35442">
        <ele>519</ele>
        <time>2012-10-21T07:01:48.000Z</time>
      </trkpt>
      <trkpt lat="45.56938" lon="3.35448">
        <ele>521</ele>
        <time>2012-10-21T07:01:49.000Z</time>
      </trkpt>
      <trkpt lat="45.56941" lon="3.35453">
        <ele>520</ele>
        <time>2012-10-21T07:01:50.000Z</time>
      </trkpt>
      <trkpt lat="45.56944" lon="3.35459">
        <ele>518</ele>
        <time>2012-10-21T07:01:51.000Z</time>
      </trkpt>
      <trkpt lat="45.56947" lon="3.35464">
        <ele>517</ele>
        <time>2012-10-21T07:01:52.000Z</time>
      </trkpt>
      <trkpt lat="45.5695" lon="3.35469">
        <ele>519</ele>
        <time>2012-10-21T07:01:53.000Z</time>
      </trkpt>
      <trkpt lat="45.56954" lon="3.35476">
        <ele>521</ele>
        <time>2012-10-21T07:01:54.000Z</time>
      </trkpt>
      <trkpt lat="45.56957" lon="3.3548">
        <ele>524</ele>
        <time>2012-10-21T07:01:55.000Z</time>
      </trkpt>
      <trkpt lat="45.56959" lon="3.35485">
        <ele>525</ele>
        <time>2012-10-21T07:01:56.000Z</time>
      </trkpt>
      <trkpt lat="45.56962" lon="3.3549">
        <ele>526</ele>
        <time>2012-10-21T07:01:57.000Z</time>
      </trkpt>
      <trkpt lat="45.56965" lon="3.35496">
        <ele>524</ele>
        <time>2012-10-21T07:01:58.000Z</time>
      </trkpt>
      <trkpt lat="45.56968" lon="3.35501">
        <ele>521</ele>
        <time>2012-10-21T07:01:59.000Z</time>
      </trkpt>
      <trkpt lat="45.56971" lon="3.35507">
        <ele>522</ele>
        <time>2012-10-21T07:02:00.000Z</time>
      </trkpt>
      <trkpt lat="45.56975" lon="3.35513">
        <ele>521</ele>
        <time>2012-10-21T07:02:01.000Z</time>
      </trkpt>
      <trkpt lat="45.56978" lon="3.35519">
        <ele>520</ele>
        <time>2012-10-21T07:02:02.000Z</time>
      </trkpt>
      <trkpt lat="45.56982" lon="3.35526">
        <ele>518</ele>
        <time>2012-10-21T07:02:03.000Z</time>
      </trkpt>
      <trkpt lat="45.56986" lon="3.35533">
        <ele>519</ele>
        <time>2012-10-21T07:02:04.000Z</time>
      </trkpt>
      <trkpt lat="45.5699" lon="3.3554">
        <ele>521</ele>
        <time>2012-10-21T07:02:05.000Z</time>
      </trkpt>
      <trkpt lat="45.56993" lon="3.35548">
        <ele>521</ele>
        <time>2012-10-21T07:02:06.000Z</time>
      </trkpt>
      <trkpt lat="45.56997" lon="3.35555">
        <ele>522</ele>
        <time>2012-10-21T07:02:07.000Z</time>
      </trkpt>
      <trkpt lat="45.57" lon="3.35562">
        <ele>520</ele>
        <time>2012-10-21T07:02:08.000Z</time>
      </trkpt>
      <trkpt lat="45.57004" lon="3.35568">
        <ele>520</ele>
        <time>2012-10-21T07:02:09.000Z</time>
      </trkpt>
      <trkpt lat="45.57006" lon="3.35575">
        <ele>519</ele>
        <time>2012-10-21T07:02:10.000Z</time>
      </trkpt>
      <trkpt lat="45.57009" lon="3.35582">
        <ele>515</ele>
        <time>2012-10-21T07:02:11.000Z</time>
      </trkpt>
      <trkpt lat="45.57011" lon="3.3559">
        <ele>522</ele>
        <time>2012-10-21T07:02:12.000Z</time>
      </trkpt>
      <trkpt lat="45.57013" lon="3.35598">
        <ele>524</ele>
        <time>2012-10-21T07:02:13.000Z</time>
      </trkpt>
      <trkpt lat="45.57014" lon="3.35605">
        <ele>522</ele>
        <time>2012-10-21T07:02:14.000Z</time>
      </trkpt>
      <trkpt lat="45.57015" lon="3.35612">
        <ele>523</ele>
        <time>2012-10-21T07:02:15.000Z</time>
      </trkpt>
      <trkpt lat="45.57016" lon="3.35619">
        <ele>524</ele>
        <time>2012-10-21T07:02:16.000Z</time>
      </trkpt>
      <trkpt lat="45.57018" lon="3.35626">
        <ele>524</ele>
        <time>2012-10-21T07:02:17.000Z</time>
      </trkpt>
      <trkpt lat="45.57019" lon="3.35633">
        <ele>525</ele>
        <time>2012-10-21T07:02:18.000Z</time>
      </trkpt>
      <trkpt lat="45.57021" lon="3.35639">
        <ele>524</ele>
        <time>2012-10-21T07:02:19.000Z</time>
      </trkpt>
      <trkpt lat="45.57022" lon="3.35644">
        <ele>523</ele>
        <time>2012-10-21T07:02:20.000Z</time>
      </trkpt>
      <trkpt lat="45.57023" lon="3.35649">
        <ele>524</ele>
        <time>2012-10-21T07:02:21.000Z</time>
      </trkpt>
      <trkpt lat="45.57025" lon="3.35655">
        <ele>521</ele>
        <time>2012-10-21T07:02:22.000Z</time>
      </trkpt>
      <trkpt lat="45.57026" lon="3.3566">
        <ele>524</ele>
        <time>2012-10-21T07:02:23.000Z</time>
      </trkpt>
      <trkpt lat="45.57027" lon="3.35667">
        <ele>519</ele>
        <time>2012-10-21T07:02:24.000Z</time>
      </trkpt>
      <trkpt lat="45.57029" lon="3.35674">
        <ele>522</ele>
        <time>2012-10-21T07:02:25.000Z</time>
      </trkpt>
      <trkpt lat="45.5703" lon="3.35681">
        <ele>528</ele>
        <time>2012-10-21T07:02:26.000Z</time>
      </trkpt>
      <trkpt lat="45.57032" lon="3.35687">
        <ele>527</ele>
        <time>2012-10-21T07:02:27.000Z</time>
      </trkpt>
      <trkpt lat="45.57034" lon="3.35693">
        <ele>524</ele>
        <time>2012-10-21T07:02:28.000Z</time>
      </trkpt>
      <trkpt lat="45.57037" lon="3.35699">
        <ele>520</ele>
        <time>2012-10-21T07:02:29.000Z</time>
      </trkpt>
      <trkpt lat="45.57039" lon="3.35705">
        <ele>521</ele>
        <time>2012-10-21T07:02:30.000Z</time>
      </trkpt>
      <trkpt lat="45.57041" lon="3.35711">
        <ele>521</ele>
        <time>2012-10-21T07:02:31.000Z</time>
      </trkpt>
      <trkpt lat="45.57043" lon="3.35717">
        <ele>522</ele>
        <time>2012-10-21T07:02:32.000Z</time>
      </trkpt>
      <trkpt lat="45.57045" lon="3.35724">
        <ele>521</ele>
        <time>2012-10-21T07:02:33.000Z</time>
      </trkpt>
      <trkpt lat="45.57047" lon="3.3573">
        <ele>519</ele>
        <time>2012-10-21T07:02:34.000Z</time>
      </trkpt>
      <trkpt lat="45.57049" lon="3.35736">
        <ele>519</ele>
        <time>2012-10-21T07:02:35.000Z</time>
      </trkpt>
      <trkpt lat="45.5705" lon="3.35743">
        <ele>518</ele>
        <time>2012-10-21T07:02:36.000Z</time>
      </trkpt>
      <trkpt lat="45.57052" lon="3.3575">
        <ele>519</ele>
        <time>2012-10-21T07:02:37.000Z</time>
      </trkpt>
      <trkpt lat="45.57053" lon="3.35757">
        <ele>520</ele>
        <time>2012-10-21T07:02:38.000Z</time>
      </trkpt>
      <trkpt lat="45.57057" lon="3.35772">
        <ele>519</ele>
        <time>2012-10-21T07:02:40.000Z</time>
      </trkpt>
      <trkpt lat="45.57059" lon="3.3578">
        <ele>518</ele>
        <time>2012-10-21T07:02:41.000Z</time>
      </trkpt>
      <trkpt lat="45.57061" lon="3.35788">
        <ele>519</ele>
        <time>2012-10-21T07:02:42.000Z</time>
      </trkpt>
      <trkpt lat="45.57063" lon="3.35796">
        <ele>518</ele>
        <time>2012-10-21T07:02:43.000Z</time>
      </trkpt>
      <trkpt lat="45.57065" lon="3.35803">
        <ele>519</ele>
        <time>2012-10-21T07:02:44.000Z</time>
      </trkpt>
      <trkpt lat="45.57066" lon="3.3581">
        <ele>518</ele>
        <time>2012-10-21T07:02:45.000Z</time>
      </trkpt>
      <trkpt lat="45.57068" lon="3.35817">
        <ele>517</ele>
        <time>2012-10-21T07:02:46.000Z</time>
      </trkpt>
      <trkpt lat="45.5707" lon="3.35825">
        <ele>514</ele>
        <time>2012-10-21T07:02:47.000Z</time>
      </trkpt>
      <trkpt lat="45.57072" lon="3.35832">
        <ele>514</ele>
        <time>2012-10-21T07:02:48.000Z</time>
      </trkpt>
      <trkpt lat="45.57074" lon="3.3584">
        <ele>514</ele>
        <time>2012-10-21T07:02:49.000Z</time>
      </trkpt>
      <trkpt lat="45.57076" lon="3.35847">
        <ele>512</ele>
        <time>2012-10-21T07:02:50.000Z</time>
      </trkpt>
      <trkpt lat="45.57078" lon="3.35853">
        <ele>512</ele>
        <time>2012-10-21T07:02:51.000Z</time>
      </trkpt>
      <trkpt lat="45.57079" lon="3.35861">
        <ele>511</ele>
        <time>2012-10-21T07:02:52.000Z</time>
      </trkpt>
      <trkpt lat="45.5708" lon="3.35868">
        <ele>513</ele>
        <time>2012-10-21T07:02:53.000Z</time>
      </trkpt>
      <trkpt lat="45.57081" lon="3.35876">
        <ele>513</ele>
        <time>2012-10-21T07:02:54.000Z</time>
      </trkpt>
      <trkpt lat="45.57081" lon="3.35885">
        <ele>517</ele>
        <time>2012-10-21T07:02:55.000Z</time>
      </trkpt>
      <trkpt lat="45.57082" lon="3.35895">
        <ele>514</ele>
        <time>2012-10-21T07:02:56.000Z</time>
      </trkpt>
      <trkpt lat="45.57083" lon="3.35905">
        <ele>511</ele>
        <time>2012-10-21T07:02:57.000Z</time>
      </trkpt>
      <trkpt lat="45.57084" lon="3.35915">
        <ele>510</ele>
        <time>2012-10-21T07:02:58.000Z</time>
      </trkpt>
      <trkpt lat="45.57085" lon="3.35925">
        <ele>510</ele>
        <time>2012-10-21T07:02:59.000Z</time>
      </trkpt>
      <trkpt lat="45.57086" lon="3.35935">
        <ele>508</ele>
        <time>2012-10-21T07:03:00.000Z</time>
      </trkpt>
      <trkpt lat="45.57087" lon="3.35944">
        <ele>508</ele>
        <time>2012-10-21T07:03:01.000Z</time>
      </trkpt>
      <trkpt lat="45.57088" lon="3.35954">
        <ele>510</ele>
        <time>2012-10-21T07:03:02.000Z</time>
      </trkpt>
      <trkpt lat="45.57088" lon="3.35963">
        <ele>512</ele>
        <time>2012-10-21T07:03:03.000Z</time>
      </trkpt>
      <trkpt lat="45.57089" lon="3.35973">
        <ele>512</ele>
        <time>2012-10-21T07:03:04.000Z</time>
      </trkpt>
      <trkpt lat="45.57087" lon="3.35981">
        <ele>510</ele>
        <time>2012-10-21T07:03:05.000Z</time>
      </trkpt>
      <trkpt lat="45.57082" lon="3.35989">
        <ele>510</ele>
        <time>2012-10-21T07:03:06.000Z</time>
      </trkpt>
      <trkpt lat="45.57077" lon="3.35997">
        <ele>511</ele>
        <time>2012-10-21T07:03:07.000Z</time>
      </trkpt>
      <trkpt lat="45.57071" lon="3.36005">
        <ele>511</ele>
        <time>2012-10-21T07:03:08.000Z</time>
      </trkpt>
      <trkpt lat="45.57066" lon="3.36012">
        <ele>512</ele>
        <time>2012-10-21T07:03:09.000Z</time>
      </trkpt>
      <trkpt lat="45.5706" lon="3.36019">
        <ele>513</ele>
        <time>2012-10-21T07:03:10.000Z</time>
      </trkpt>
      <trkpt lat="45.57055" lon="3.36026">
        <ele>513</ele>
        <time>2012-10-21T07:03:11.000Z</time>
      </trkpt>
      <trkpt lat="45.57049" lon="3.36033">
        <ele>513</ele>
        <time>2012-10-21T07:03:12.000Z</time>
      </trkpt>
      <trkpt lat="45.57043" lon="3.3604">
        <ele>514</ele>
        <time>2012-10-21T07:03:13.000Z</time>
      </trkpt>
      <trkpt lat="45.57037" lon="3.36048">
        <ele>514</ele>
        <time>2012-10-21T07:03:14.000Z</time>
      </trkpt>
      <trkpt lat="45.57031" lon="3.36056">
        <ele>514</ele>
        <time>2012-10-21T07:03:15.000Z</time>
      </trkpt>
      <trkpt lat="45.57024" lon="3.36065">
        <ele>514</ele>
        <time>2012-10-21T07:03:16.000Z</time>
      </trkpt>
      <trkpt lat="45.57017" lon="3.36073">
        <ele>514</ele>
        <time>2012-10-21T07:03:17.000Z</time>
      </trkpt>
      <trkpt lat="45.57011" lon="3.36081">
        <ele>514</ele>
        <time>2012-10-21T07:03:18.000Z</time>
      </trkpt>
      <trkpt lat="45.57004" lon="3.36089">
        <ele>514</ele>
        <time>2012-10-21T07:03:19.000Z</time>
      </trkpt>
      <trkpt lat="45.56998" lon="3.36098">
        <ele>514</ele>
        <time>2012-10-21T07:03:20.000Z</time>
      </trkpt>
      <trkpt lat="45.56991" lon="3.36106">
        <ele>514</ele>
        <time>2012-10-21T07:03:21.000Z</time>
      </trkpt>
      <trkpt lat="45.56985" lon="3.36114">
        <ele>513</ele>
        <time>2012-10-21T07:03:22.000Z</time>
      </trkpt>
      <trkpt lat="45.56979" lon="3.36122">
        <ele>513</ele>
        <time>2012-10-21T07:03:23.000Z</time>
      </trkpt>
      <trkpt lat="45.56973" lon="3.3613">
        <ele>514</ele>
        <time>2012-10-21T07:03:24.000Z</time>
      </trkpt>
      <trkpt lat="45.56967" lon="3.36138">
        <ele>512</ele>
        <time>2012-10-21T07:03:25.000Z</time>
      </trkpt>
      <trkpt lat="45.56961" lon="3.36145">
        <ele>511</ele>
        <time>2012-10-21T07:03:26.000Z</time>
      </trkpt>
      <trkpt lat="45.56956" lon="3.36152">
        <ele>511</ele>
        <time>2012-10-21T07:03:27.000Z</time>
      </trkpt>
      <trkpt lat="45.56951" lon="3.36159">
        <ele>510</ele>
        <time>2012-10-21T07:03:28.000Z</time>
      </trkpt>
      <trkpt lat="45.56946" lon="3.36166">
        <ele>510</ele>
        <time>2012-10-21T07:03:29.000Z</time>
      </trkpt>
      <trkpt lat="45.5694" lon="3.36173">
        <ele>509</ele>
        <time>2012-10-21T07:03:30.000Z</time>
      </trkpt>
      <trkpt lat="45.56935" lon="3.3618">
        <ele>509</ele>
        <time>2012-10-21T07:03:31.000Z</time>
      </trkpt>
      <trkpt lat="45.56929" lon="3.36186">
        <ele>509</ele>
        <time>2012-10-21T07:03:32.000Z</time>
      </trkpt>
      <trkpt lat="45.56924" lon="3.36193">
        <ele>509</ele>
        <time>2012-10-21T07:03:33.000Z</time>
      </trkpt>
      <trkpt lat="45.5692" lon="3.36199">
        <ele>508</ele>
        <time>2012-10-21T07:03:34.000Z</time>
      </trkpt>
      <trkpt lat="45.56915" lon="3.36206">
        <ele>509</ele>
        <time>2012-10-21T07:03:35.000Z</time>
      </trkpt>
      <trkpt lat="45.56909" lon="3.36213">
        <ele>507</ele>
        <time>2012-10-21T07:03:36.000Z</time>
      </trkpt>
      <trkpt lat="45.56904" lon="3.3622">
        <ele>507</ele>
        <time>2012-10-21T07:03:37.000Z</time>
      </trkpt>
      <trkpt lat="45.56898" lon="3.36227">
        <ele>506</ele>
        <time>2012-10-21T07:03:38.000Z</time>
      </trkpt>
      <trkpt lat="45.56888" lon="3.36241">
        <ele>506</ele>
        <time>2012-10-21T07:03:40.000Z</time>
      </trkpt>
      <trkpt lat="45.56883" lon="3.36248">
        <ele>506</ele>
        <time>2012-10-21T07:03:41.000Z</time>
      </trkpt>
      <trkpt lat="45.56877" lon="3.36253">
        <ele>506</ele>
        <time>2012-10-21T07:03:42.000Z</time>
      </trkpt>
      <trkpt lat="45.56871" lon="3.36259">
        <ele>506</ele>
        <time>2012-10-21T07:03:43.000Z</time>
      </trkpt>
      <trkpt lat="45.56865" lon="3.36264">
        <ele>506</ele>
        <time>2012-10-21T07:03:44.000Z</time>
      </trkpt>
      <trkpt lat="45.56858" lon="3.36269">
        <ele>506</ele>
        <time>2012-10-21T07:03:45.000Z</time>
      </trkpt>
      <trkpt lat="45.56851" lon="3.36273">
        <ele>505</ele>
        <time>2012-10-21T07:03:46.000Z</time>
      </trkpt>
      <trkpt lat="45.56845" lon="3.36278">
        <ele>506</ele>
        <time>2012-10-21T07:03:47.000Z</time>
      </trkpt>
      <trkpt lat="45.56838" lon="3.36282">
        <ele>507</ele>
        <time>2012-10-21T07:03:48.000Z</time>
      </trkpt>
      <trkpt lat="45.56831" lon="3.36286">
        <ele>509</ele>
        <time>2012-10-21T07:03:49.000Z</time>
      </trkpt>
      <trkpt lat="45.56824" lon="3.36291">
        <ele>509</ele>
        <time>2012-10-21T07:03:50.000Z</time>
      </trkpt>
      <trkpt lat="45.56817" lon="3.36295">
        <ele>509</ele>
        <time>2012-10-21T07:03:51.000Z</time>
      </trkpt>
      <trkpt lat="45.5681" lon="3.36299">
        <ele>508</ele>
        <time>2012-10-21T07:03:52.000Z</time>
      </trkpt>
      <trkpt lat="45.56803" lon="3.36304">
        <ele>508</ele>
        <time>2012-10-21T07:03:53.000Z</time>
      </trkpt>
      <trkpt lat="45.56796" lon="3.36308">
        <ele>507</ele>
        <time>2012-10-21T07:03:54.000Z</time>
      </trkpt>
      <trkpt lat="45.5679" lon="3.36313">
        <ele>507</ele>
        <time>2012-10-21T07:03:55.000Z</time>
      </trkpt>
      <trkpt lat="45.56783" lon="3.36318">
        <ele>510</ele>
        <time>2012-10-21T07:03:56.000Z</time>
      </trkpt>
      <trkpt lat="45.56777" lon="3.36324">
        <ele>510</ele>
        <time>2012-10-21T07:03:57.000Z</time>
      </trkpt>
      <trkpt lat="45.56772" lon="3.3633">
        <ele>509</ele>
        <time>2012-10-21T07:03:58.000Z</time>
      </trkpt>
      <trkpt lat="45.56766" lon="3.36336">
        <ele>508</ele>
        <time>2012-10-21T07:03:59.000Z</time>
      </trkpt>
      <trkpt lat="45.56759" lon="3.36343">
        <ele>508</ele>
        <time>2012-10-21T07:04:00.000Z</time>
      </trkpt>
      <trkpt lat="45.56753" lon="3.3635">
        <ele>508</ele>
        <time>2012-10-21T07:04:01.000Z</time>
      </trkpt>
      <trkpt lat="45.56746" lon="3.36358">
        <ele>508</ele>
        <time>2012-10-21T07:04:02.000Z</time>
      </trkpt>
      <trkpt lat="45.5674" lon="3.36365">
        <ele>508</ele>
        <time>2012-10-21T07:04:03.000Z</time>
      </trkpt>
      <trkpt lat="45.56733" lon="3.36371">
        <ele>507</ele>
        <time>2012-10-21T07:04:04.000Z</time>
      </trkpt>
      <trkpt lat="45.56726" lon="3.36379">
        <ele>506</ele>
        <time>2012-10-21T07:04:05.000Z</time>
      </trkpt>
      <trkpt lat="45.5672" lon="3.36385">
        <ele>506</ele>
        <time>2012-10-21T07:04:06.000Z</time>
      </trkpt>
      <trkpt lat="45.56714" lon="3.36392">
        <ele>506</ele>
        <time>2012-10-21T07:04:07.000Z</time>
      </trkpt>
      <trkpt lat="45.56708" lon="3.36398">
        <ele>506</ele>
        <time>2012-10-21T07:04:08.000Z</time>
      </trkpt>
      <trkpt lat="45.56702" lon="3.36405">
        <ele>504</ele>
        <time>2012-10-21T07:04:09.000Z</time>
      </trkpt>
      <trkpt lat="45.56695" lon="3.36411">
        <ele>504</ele>
        <time>2012-10-21T07:04:10.000Z</time>
      </trkpt>
      <trkpt lat="45.56689" lon="3.36418">
        <ele>503</ele>
        <time>2012-10-21T07:04:11.000Z</time>
      </trkpt>
      <trkpt lat="45.56682" lon="3.36425">
        <ele>503</ele>
        <time>2012-10-21T07:04:12.000Z</time>
      </trkpt>
      <trkpt lat="45.56675" lon="3.36432">
        <ele>502</ele>
        <time>2012-10-21T07:04:13.000Z</time>
      </trkpt>
      <trkpt lat="45.56668" lon="3.36439">
        <ele>502</ele>
        <time>2012-10-21T07:04:14.000Z</time>
      </trkpt>
      <trkpt lat="45.56662" lon="3.36445">
        <ele>501</ele>
        <time>2012-10-21T07:04:15.000Z</time>
      </trkpt>
      <trkpt lat="45.56656" lon="3.3645">
        <ele>501</ele>
        <time>2012-10-21T07:04:16.000Z</time>
      </trkpt>
      <trkpt lat="45.56651" lon="3.36456">
        <ele>502</ele>
        <time>2012-10-21T07:04:17.000Z</time>
      </trkpt>
      <trkpt lat="45.56646" lon="3.36461">
        <ele>502</ele>
        <time>2012-10-21T07:04:18.000Z</time>
      </trkpt>
      <trkpt lat="45.5664" lon="3.36466">
        <ele>502</ele>
        <time>2012-10-21T07:04:19.000Z</time>
      </trkpt>
      <trkpt lat="45.56634" lon="3.36471">
        <ele>502</ele>
        <time>2012-10-21T07:04:20.000Z</time>
      </trkpt>
      <trkpt lat="45.56628" lon="3.36476">
        <ele>503</ele>
        <time>2012-10-21T07:04:21.000Z</time>
      </trkpt>
      <trkpt lat="45.56623" lon="3.3648">
        <ele>502</ele>
        <time>2012-10-21T07:04:22.000Z</time>
      </trkpt>
      <trkpt lat="45.56617" lon="3.36483">
        <ele>502</ele>
        <time>2012-10-21T07:04:23.000Z</time>
      </trkpt>
      <trkpt lat="45.5661" lon="3.36487">
        <ele>502</ele>
        <time>2012-10-21T07:04:24.000Z</time>
      </trkpt>
      <trkpt lat="45.56604" lon="3.3649">
        <ele>504</ele>
        <time>2012-10-21T07:04:25.000Z</time>
      </trkpt>
      <trkpt lat="45.56598" lon="3.36493">
        <ele>505</ele>
        <time>2012-10-21T07:04:26.000Z</time>
      </trkpt>
      <trkpt lat="45.56592" lon="3.36496">
        <ele>505</ele>
        <time>2012-10-21T07:04:27.000Z</time>
      </trkpt>
      <trkpt lat="45.56586" lon="3.36499">
        <ele>507</ele>
        <time>2012-10-21T07:04:28.000Z</time>
      </trkpt>
      <trkpt lat="45.56579" lon="3.36502">
        <ele>508</ele>
        <time>2012-10-21T07:04:29.000Z</time>
      </trkpt>
      <trkpt lat="45.56573" lon="3.36505">
        <ele>508</ele>
        <time>2012-10-21T07:04:30.000Z</time>
      </trkpt>
      <trkpt lat="45.56567" lon="3.36509">
        <ele>509</ele>
        <time>2012-10-21T07:04:31.000Z</time>
      </trkpt>
      <trkpt lat="45.5656" lon="3.36512">
        <ele>508</ele>
        <time>2012-10-21T07:04:32.000Z</time>
      </trkpt>
      <trkpt lat="45.56554" lon="3.36515">
        <ele>508</ele>
        <time>2012-10-21T07:04:33.000Z</time>
      </trkpt>
      <trkpt lat="45.56547" lon="3.36518">
        <ele>506</ele>
        <time>2012-10-21T07:04:34.000Z</time>
      </trkpt>
      <trkpt lat="45.5654" lon="3.36522">
        <ele>508</ele>
        <time>2012-10-21T07:04:35.000Z</time>
      </trkpt>
      <trkpt lat="45.56534" lon="3.36525">
        <ele>507</ele>
        <time>2012-10-21T07:04:36.000Z</time>
      </trkpt>
      <trkpt lat="45.56528" lon="3.36529">
        <ele>505</ele>
        <time>2012-10-21T07:04:37.000Z</time>
      </trkpt>
      <trkpt lat="45.56522" lon="3.36532">
        <ele>505</ele>
        <time>2012-10-21T07:04:38.000Z</time>
      </trkpt>
      <trkpt lat="45.56516" lon="3.36535">
        <ele>505</ele>
        <time>2012-10-21T07:04:39.000Z</time>
      </trkpt>
      <trkpt lat="45.5651" lon="3.36538">
        <ele>506</ele>
        <time>2012-10-21T07:04:40.000Z</time>
      </trkpt>
      <trkpt lat="45.56503" lon="3.36541">
        <ele>504</ele>
        <time>2012-10-21T07:04:41.000Z</time>
      </trkpt>
      <trkpt lat="45.56498" lon="3.36544">
        <ele>502</ele>
        <time>2012-10-21T07:04:42.000Z</time>
      </trkpt>
      <trkpt lat="45.56492" lon="3.36547">
        <ele>502</ele>
        <time>2012-10-21T07:04:43.000Z</time>
      </trkpt>
      <trkpt lat="45.56485" lon="3.36549">
        <ele>502</ele>
        <time>2012-10-21T07:04:44.000Z</time>
      </trkpt>
      <trkpt lat="45.56479" lon="3.36553">
        <ele>501</ele>
        <time>2012-10-21T07:04:45.000Z</time>
      </trkpt>
      <trkpt lat="45.56473" lon="3.36556">
        <ele>503</ele>
        <time>2012-10-21T07:04:46.000Z</time>
      </trkpt>
      <trkpt lat="45.56467" lon="3.36559">
        <ele>503</ele>
        <time>2012-10-21T07:04:47.000Z</time>
      </trkpt>
      <trkpt lat="45.56461" lon="3.36562">
        <ele>503</ele>
        <time>2012-10-21T07:04:48.000Z</time>
      </trkpt>
      <trkpt lat="45.56455" lon="3.36565">
        <ele>503</ele>
        <time>2012-10-21T07:04:49.000Z</time>
      </trkpt>
      <trkpt lat="45.56449" lon="3.36568">
        <ele>503</ele>
        <time>2012-10-21T07:04:50.000Z</time>
      </trkpt>
      <trkpt lat="45.56443" lon="3.36571">
        <ele>503</ele>
        <time>2012-10-21T07:04:51.000Z</time>
      </trkpt>
      <trkpt lat="45.56437" lon="3.36573">
        <ele>504</ele>
        <time>2012-10-21T07:04:52.000Z</time>
      </trkpt>
      <trkpt lat="45.56432" lon="3.36576">
        <ele>503</ele>
        <time>2012-10-21T07:04:53.000Z</time>
      </trkpt>
      <trkpt lat="45.56426" lon="3.36579">
        <ele>501</ele>
        <time>2012-10-21T07:04:54.000Z</time>
      </trkpt>
      <trkpt lat="45.5642" lon="3.36582">
        <ele>500</ele>
        <time>2012-10-21T07:04:55.000Z</time>
      </trkpt>
      <trkpt lat="45.56414" lon="3.36585">
        <ele>499</ele>
        <time>2012-10-21T07:04:56.000Z</time>
      </trkpt>
      <trkpt lat="45.56408" lon="3.36589">
        <ele>499</ele>
        <time>2012-10-21T07:04:57.000Z</time>
      </trkpt>
      <trkpt lat="45.56403" lon="3.36591">
        <ele>499</ele>
        <time>2012-10-21T07:04:58.000Z</time>
      </trkpt>
      <trkpt lat="45.56398" lon="3.36594">
        <ele>501</ele>
        <time>2012-10-21T07:04:59.000Z</time>
      </trkpt>
      <trkpt lat="45.56392" lon="3.36597">
        <ele>501</ele>
        <time>2012-10-21T07:05:00.000Z</time>
      </trkpt>
      <trkpt lat="45.56386" lon="3.366">
        <ele>501</ele>
        <time>2012-10-21T07:05:01.000Z</time>
      </trkpt>
      <trkpt lat="45.5638" lon="3.36603">
        <ele>501</ele>
        <time>2012-10-21T07:05:02.000Z</time>
      </trkpt>
      <trkpt lat="45.56374" lon="3.36607">
        <ele>501</ele>
        <time>2012-10-21T07:05:03.000Z</time>
      </trkpt>
      <trkpt lat="45.56367" lon="3.36611">
        <ele>502</ele>
        <time>2012-10-21T07:05:04.000Z</time>
      </trkpt>
      <trkpt lat="45.56361" lon="3.36615">
        <ele>500</ele>
        <time>2012-10-21T07:05:05.000Z</time>
      </trkpt>
      <trkpt lat="45.56354" lon="3.36619">
        <ele>501</ele>
        <time>2012-10-21T07:05:06.000Z</time>
      </trkpt>
      <trkpt lat="45.56348" lon="3.36622">
        <ele>501</ele>
        <time>2012-10-21T07:05:07.000Z</time>
      </trkpt>
      <trkpt lat="45.56343" lon="3.36626">
        <ele>502</ele>
        <time>2012-10-21T07:05:08.000Z</time>
      </trkpt>
      <trkpt lat="45.56337" lon="3.3663">
        <ele>502</ele>
        <time>2012-10-21T07:05:09.000Z</time>
      </trkpt>
      <trkpt lat="45.56332" lon="3.36633">
        <ele>501</ele>
        <time>2012-10-21T07:05:10.000Z</time>
      </trkpt>
      <trkpt lat="45.56327" lon="3.36637">
        <ele>502</ele>
        <time>2012-10-21T07:05:11.000Z</time>
      </trkpt>
      <trkpt lat="45.56322" lon="3.36641">
        <ele>502</ele>
        <time>2012-10-21T07:05:12.000Z</time>
      </trkpt>
      <trkpt lat="45.56317" lon="3.36645">
        <ele>502</ele>
        <time>2012-10-21T07:05:13.000Z</time>
      </trkpt>
      <trkpt lat="45.56312" lon="3.36649">
        <ele>502</ele>
        <time>2012-10-21T07:05:14.000Z</time>
      </trkpt>
      <trkpt lat="45.56307" lon="3.36654">
        <ele>501</ele>
        <time>2012-10-21T07:05:15.000Z</time>
      </trkpt>
      <trkpt lat="45.56302" lon="3.36659">
        <ele>501</ele>
        <time>2012-10-21T07:05:16.000Z</time>
      </trkpt>
      <trkpt lat="45.56297" lon="3.36664">
        <ele>499</ele>
        <time>2012-10-21T07:05:17.000Z</time>
      </trkpt>
      <trkpt lat="45.56291" lon="3.3667">
        <ele>499</ele>
        <time>2012-10-21T07:05:18.000Z</time>
      </trkpt>
      <trkpt lat="45.56286" lon="3.36675">
        <ele>499</ele>
        <time>2012-10-21T07:05:19.000Z</time>
      </trkpt>
      <trkpt lat="45.5628" lon="3.3668">
        <ele>500</ele>
        <time>2012-10-21T07:05:20.000Z</time>
      </trkpt>
      <trkpt lat="45.56275" lon="3.36686">
        <ele>499</ele>
        <time>2012-10-21T07:05:21.000Z</time>
      </trkpt>
      <trkpt lat="45.5627" lon="3.36691">
        <ele>499</ele>
        <time>2012-10-21T07:05:22.000Z</time>
      </trkpt>
      <trkpt lat="45.56266" lon="3.36696">
        <ele>499</ele>
        <time>2012-10-21T07:05:23.000Z</time>
      </trkpt>
      <trkpt lat="45.56261" lon="3.367">
        <ele>499</ele>
        <time>2012-10-21T07:05:24.000Z</time>
      </trkpt>
      <trkpt lat="45.56257" lon="3.36705">
        <ele>500</ele>
        <time>2012-10-21T07:05:25.000Z</time>
      </trkpt>
      <trkpt lat="45.56253" lon="3.3671">
        <ele>500</ele>
        <time>2012-10-21T07:05:26.000Z</time>
      </trkpt>
      <trkpt lat="45.56249" lon="3.36714">
        <ele>501</ele>
        <time>2012-10-21T07:05:27.000Z</time>
      </trkpt>
      <trkpt lat="45.56244" lon="3.36719">
        <ele>502</ele>
        <time>2012-10-21T07:05:28.000Z</time>
      </trkpt>
      <trkpt lat="45.5624" lon="3.36724">
        <ele>501</ele>
        <time>2012-10-21T07:05:29.000Z</time>
      </trkpt>
      <trkpt lat="45.56235" lon="3.36728">
        <ele>500</ele>
        <time>2012-10-21T07:05:30.000Z</time>
      </trkpt>
      <trkpt lat="45.56231" lon="3.36733">
        <ele>500</ele>
        <time>2012-10-21T07:05:31.000Z</time>
      </trkpt>
      <trkpt lat="45.56227" lon="3.36737">
        <ele>501</ele>
        <time>2012-10-21T07:05:32.000Z</time>
      </trkpt>
      <trkpt lat="45.56222" lon="3.36742">
        <ele>502</ele>
        <time>2012-10-21T07:05:33.000Z</time>
      </trkpt>
      <trkpt lat="45.56217" lon="3.36746">
        <ele>503</ele>
        <time>2012-10-21T07:05:34.000Z</time>
      </trkpt>
      <trkpt lat="45.56213" lon="3.36751">
        <ele>502</ele>
        <time>2012-10-21T07:05:35.000Z</time>
      </trkpt>
      <trkpt lat="45.56208" lon="3.36755">
        <ele>504</ele>
        <time>2012-10-21T07:05:36.000Z</time>
      </trkpt>
      <trkpt lat="45.56204" lon="3.36758">
        <ele>502</ele>
        <time>2012-10-21T07:05:37.000Z</time>
      </trkpt>
      <trkpt lat="45.562" lon="3.36761">
        <ele>503</ele>
        <time>2012-10-21T07:05:38.000Z</time>
      </trkpt>
      <trkpt lat="45.56192" lon="3.36768">
        <ele>504</ele>
        <time>2012-10-21T07:05:40.000Z</time>
      </trkpt>
      <trkpt lat="45.56188" lon="3.36771">
        <ele>505</ele>
        <time>2012-10-21T07:05:41.000Z</time>
      </trkpt>
      <trkpt lat="45.56184" lon="3.36775">
        <ele>502</ele>
        <time>2012-10-21T07:05:42.000Z</time>
      </trkpt>
      <trkpt lat="45.5618" lon="3.36779">
        <ele>499</ele>
        <time>2012-10-21T07:05:43.000Z</time>
      </trkpt>
      <trkpt lat="45.56176" lon="3.36782">
        <ele>497</ele>
        <time>2012-10-21T07:05:44.000Z</time>
      </trkpt>
      <trkpt lat="45.56171" lon="3.36786">
        <ele>497</ele>
        <time>2012-10-21T07:05:45.000Z</time>
      </trkpt>
      <trkpt lat="45.56167" lon="3.3679">
        <ele>495</ele>
        <time>2012-10-21T07:05:46.000Z</time>
      </trkpt>
      <trkpt lat="45.56162" lon="3.36794">
        <ele>496</ele>
        <time>2012-10-21T07:05:47.000Z</time>
      </trkpt>
      <trkpt lat="45.56157" lon="3.36798">
        <ele>500</ele>
        <time>2012-10-21T07:05:48.000Z</time>
      </trkpt>
      <trkpt lat="45.56152" lon="3.36801">
        <ele>500</ele>
        <time>2012-10-21T07:05:49.000Z</time>
      </trkpt>
      <trkpt lat="45.56148" lon="3.36805">
        <ele>501</ele>
        <time>2012-10-21T07:05:50.000Z</time>
      </trkpt>
      <trkpt lat="45.56144" lon="3.36808">
        <ele>499</ele>
        <time>2012-10-21T07:05:51.000Z</time>
      </trkpt>
      <trkpt lat="45.5614" lon="3.36811">
        <ele>500</ele>
        <time>2012-10-21T07:05:52.000Z</time>
      </trkpt>
      <trkpt lat="45.56136" lon="3.36815">
        <ele>500</ele>
        <time>2012-10-21T07:05:53.000Z</time>
      </trkpt>
      <trkpt lat="45.56131" lon="3.36818">
        <ele>500</ele>
        <time>2012-10-21T07:05:54.000Z</time>
      </trkpt>
      <trkpt lat="45.56127" lon="3.36822">
        <ele>500</ele>
        <time>2012-10-21T07:05:55.000Z</time>
      </trkpt>
      <trkpt lat="45.56122" lon="3.36825">
        <ele>498</ele>
        <time>2012-10-21T07:05:56.000Z</time>
      </trkpt>
      <trkpt lat="45.56118" lon="3.36827">
        <ele>498</ele>
        <time>2012-10-21T07:05:57.000Z</time>
      </trkpt>
      <trkpt lat="45.56113" lon="3.36828">
        <ele>503</ele>
        <time>2012-10-21T07:05:58.000Z</time>
      </trkpt>
      <trkpt lat="45.56108" lon="3.3683">
        <ele>504</ele>
        <time>2012-10-21T07:05:59.000Z</time>
      </trkpt>
      <trkpt lat="45.56103" lon="3.36831">
        <ele>506</ele>
        <time>2012-10-21T07:06:00.000Z</time>
      </trkpt>
      <trkpt lat="45.56098" lon="3.36833">
        <ele>505</ele>
        <time>2012-10-21T07:06:01.000Z</time>
      </trkpt>
      <trkpt lat="45.56093" lon="3.36835">
        <ele>506</ele>
        <time>2012-10-21T07:06:02.000Z</time>
      </trkpt>
      <trkpt lat="45.56089" lon="3.36836">
        <ele>506</ele>
        <time>2012-10-21T07:06:03.000Z</time>
      </trkpt>
      <trkpt lat="45.56084" lon="3.36837">
        <ele>506</ele>
        <time>2012-10-21T07:06:04.000Z</time>
      </trkpt>
      <trkpt lat="45.5608" lon="3.36839">
        <ele>505</ele>
        <time>2012-10-21T07:06:05.000Z</time>
      </trkpt>
      <trkpt lat="45.56075" lon="3.3684">
        <ele>505</ele>
        <time>2012-10-21T07:06:06.000Z</time>
      </trkpt>
      <trkpt lat="45.56071" lon="3.36841">
        <ele>504</ele>
        <time>2012-10-21T07:06:07.000Z</time>
      </trkpt>
      <trkpt lat="45.56066" lon="3.36842">
        <ele>504</ele>
        <time>2012-10-21T07:06:08.000Z</time>
      </trkpt>
      <trkpt lat="45.56061" lon="3.36844">
        <ele>505</ele>
        <time>2012-10-21T07:06:09.000Z</time>
      </trkpt>
      <trkpt lat="45.56056" lon="3.36845">
        <ele>506</ele>
        <time>2012-10-21T07:06:10.000Z</time>
      </trkpt>
      <trkpt lat="45.56051" lon="3.36847">
        <ele>506</ele>
        <time>2012-10-21T07:06:11.000Z</time>
      </trkpt>
      <trkpt lat="45.56046" lon="3.36848">
        <ele>506</ele>
        <time>2012-10-21T07:06:12.000Z</time>
      </trkpt>
      <trkpt lat="45.56041" lon="3.3685">
        <ele>506</ele>
        <time>2012-10-21T07:06:13.000Z</time>
      </trkpt>
      <trkpt lat="45.56036" lon="3.36852">
        <ele>506</ele>
        <time>2012-10-21T07:06:14.000Z</time>
      </trkpt>
      <trkpt lat="45.56031" lon="3.36854">
        <ele>506</ele>
        <time>2012-10-21T07:06:15.000Z</time>
      </trkpt>
      <trkpt lat="45.56026" lon="3.36856">
        <ele>505</ele>
        <time>2012-10-21T07:06:16.000Z</time>
      </trkpt>
      <trkpt lat="45.56021" lon="3.36858">
        <ele>504</ele>
        <time>2012-10-21T07:06:17.000Z</time>
      </trkpt>
      <trkpt lat="45.56017" lon="3.36861">
        <ele>503</ele>
        <time>2012-10-21T07:06:18.000Z</time>
      </trkpt>
      <trkpt lat="45.56012" lon="3.36863">
        <ele>503</ele>
        <time>2012-10-21T07:06:19.000Z</time>
      </trkpt>
      <trkpt lat="45.56008" lon="3.36865">
        <ele>503</ele>
        <time>2012-10-21T07:06:20.000Z</time>
      </trkpt>
      <trkpt lat="45.56003" lon="3.36868">
        <ele>504</ele>
        <time>2012-10-21T07:06:21.000Z</time>
      </trkpt>
      <trkpt lat="45.55998" lon="3.3687">
        <ele>504</ele>
        <time>2012-10-21T07:06:22.000Z</time>
      </trkpt>
      <trkpt lat="45.55994" lon="3.36873">
        <ele>504</ele>
        <time>2012-10-21T07:06:23.000Z</time>
      </trkpt>
      <trkpt lat="45.55989" lon="3.36875">
        <ele>505</ele>
        <time>2012-10-21T07:06:24.000Z</time>
      </trkpt>
      <trkpt lat="45.55985" lon="3.36877">
        <ele>504</ele>
        <time>2012-10-21T07:06:25.000Z</time>
      </trkpt>
      <trkpt lat="45.55981" lon="3.36879">
        <ele>503</ele>
        <time>2012-10-21T07:06:26.000Z</time>
      </trkpt>
      <trkpt lat="45.55977" lon="3.36881">
        <ele>501</ele>
        <time>2012-10-21T07:06:27.000Z</time>
      </trkpt>
      <trkpt lat="45.55973" lon="3.36883">
        <ele>500</ele>
        <time>2012-10-21T07:06:28.000Z</time>
      </trkpt>
      <trkpt lat="45.55969" lon="3.36886">
        <ele>501</ele>
        <time>2012-10-21T07:06:29.000Z</time>
      </trkpt>
      <trkpt lat="45.55964" lon="3.36887">
        <ele>502</ele>
        <time>2012-10-21T07:06:30.000Z</time>
      </trkpt>
      <trkpt lat="45.5596" lon="3.3689">
        <ele>507</ele>
        <time>2012-10-21T07:06:31.000Z</time>
      </trkpt>
      <trkpt lat="45.55955" lon="3.36892">
        <ele>507</ele>
        <time>2012-10-21T07:06:32.000Z</time>
      </trkpt>
      <trkpt lat="45.55951" lon="3.36894">
        <ele>507</ele>
        <time>2012-10-21T07:06:33.000Z</time>
      </trkpt>
      <trkpt lat="45.55947" lon="3.36896">
        <ele>507</ele>
        <time>2012-10-21T07:06:34.000Z</time>
      </trkpt>
      <trkpt lat="45.55942" lon="3.36899">
        <ele>506</ele>
        <time>2012-10-21T07:06:35.000Z</time>
      </trkpt>
      <trkpt lat="45.55938" lon="3.36901">
        <ele>505</ele>
        <time>2012-10-21T07:06:36.000Z</time>
      </trkpt>
      <trkpt lat="45.55934" lon="3.36903">
        <ele>505</ele>
        <time>2012-10-21T07:06:37.000Z</time>
      </trkpt>
      <trkpt lat="45.5593" lon="3.36905">
        <ele>507</ele>
        <time>2012-10-21T07:06:38.000Z</time>
      </trkpt>
      <trkpt lat="45.55921" lon="3.36909">
        <ele>510</ele>
        <time>2012-10-21T07:06:40.000Z</time>
      </trkpt>
      <trkpt lat="45.55917" lon="3.3691">
        <ele>509</ele>
        <time>2012-10-21T07:06:41.000Z</time>
      </trkpt>
      <trkpt lat="45.55913" lon="3.36912">
        <ele>507</ele>
        <time>2012-10-21T07:06:42.000Z</time>
      </trkpt>
      <trkpt lat="45.55908" lon="3.36915">
        <ele>508</ele>
        <time>2012-10-21T07:06:43.000Z</time>
      </trkpt>
      <trkpt lat="45.55903" lon="3.36917">
        <ele>509</ele>
        <time>2012-10-21T07:06:44.000Z</time>
      </trkpt>
      <trkpt lat="45.55898" lon="3.3692">
        <ele>510</ele>
        <time>2012-10-21T07:06:45.000Z</time>
      </trkpt>
      <trkpt lat="45.55893" lon="3.36923">
        <ele>510</ele>
        <time>2012-10-21T07:06:46.000Z</time>
      </trkpt>
      <trkpt lat="45.55888" lon="3.36926">
        <ele>511</ele>
        <time>2012-10-21T07:06:47.000Z</time>
      </trkpt>
      <trkpt lat="45.55883" lon="3.36928">
        <ele>511</ele>
        <time>2012-10-21T07:06:48.000Z</time>
      </trkpt>
      <trkpt lat="45.55878" lon="3.3693">
        <ele>510</ele>
        <time>2012-10-21T07:06:49.000Z</time>
      </trkpt>
      <trkpt lat="45.55873" lon="3.36932">
        <ele>511</ele>
        <time>2012-10-21T07:06:50.000Z</time>
      </trkpt>
      <trkpt lat="45.55869" lon="3.36934">
        <ele>510</ele>
        <time>2012-10-21T07:06:51.000Z</time>
      </trkpt>
      <trkpt lat="45.55864" lon="3.36937">
        <ele>509</ele>
        <time>2012-10-21T07:06:52.000Z</time>
      </trkpt>
      <trkpt lat="45.55859" lon="3.3694">
        <ele>508</ele>
        <time>2012-10-21T07:06:53.000Z</time>
      </trkpt>
      <trkpt lat="45.55854" lon="3.36943">
        <ele>509</ele>
        <time>2012-10-21T07:06:54.000Z</time>
      </trkpt>
      <trkpt lat="45.55849" lon="3.36946">
        <ele>508</ele>
        <time>2012-10-21T07:06:55.000Z</time>
      </trkpt>
      <trkpt lat="45.55845" lon="3.36948">
        <ele>508</ele>
        <time>2012-10-21T07:06:56.000Z</time>
      </trkpt>
      <trkpt lat="45.55841" lon="3.36951">
        <ele>507</ele>
        <time>2012-10-21T07:06:57.000Z</time>
      </trkpt>
      <trkpt lat="45.55837" lon="3.36954">
        <ele>511</ele>
        <time>2012-10-21T07:06:58.000Z</time>
      </trkpt>
      <trkpt lat="45.55832" lon="3.36957">
        <ele>513</ele>
        <time>2012-10-21T07:06:59.000Z</time>
      </trkpt>
      <trkpt lat="45.55828" lon="3.3696">
        <ele>510</ele>
        <time>2012-10-21T07:07:00.000Z</time>
      </trkpt>
      <trkpt lat="45.55824" lon="3.36963">
        <ele>509</ele>
        <time>2012-10-21T07:07:01.000Z</time>
      </trkpt>
      <trkpt lat="45.5582" lon="3.36966">
        <ele>507</ele>
        <time>2012-10-21T07:07:02.000Z</time>
      </trkpt>
      <trkpt lat="45.55816" lon="3.36969">
        <ele>508</ele>
        <time>2012-10-21T07:07:03.000Z</time>
      </trkpt>
      <trkpt lat="45.55812" lon="3.36971">
        <ele>507</ele>
        <time>2012-10-21T07:07:04.000Z</time>
      </trkpt>
      <trkpt lat="45.55808" lon="3.36974">
        <ele>508</ele>
        <time>2012-10-21T07:07:05.000Z</time>
      </trkpt>
      <trkpt lat="45.55803" lon="3.36978">
        <ele>508</ele>
        <time>2012-10-21T07:07:06.000Z</time>
      </trkpt>
      <trkpt lat="45.55799" lon="3.36981">
        <ele>509</ele>
        <time>2012-10-21T07:07:07.000Z</time>
      </trkpt>
      <trkpt lat="45.55794" lon="3.36984">
        <ele>508</ele>
        <time>2012-10-21T07:07:08.000Z</time>
      </trkpt>
      <trkpt lat="45.5579" lon="3.36987">
        <ele>510</ele>
        <time>2012-10-21T07:07:09.000Z</time>
      </trkpt>
      <trkpt lat="45.55785" lon="3.3699">
        <ele>509</ele>
        <time>2012-10-21T07:07:10.000Z</time>
      </trkpt>
      <trkpt lat="45.55781" lon="3.36993">
        <ele>508</ele>
        <time>2012-10-21T07:07:11.000Z</time>
      </trkpt>
      <trkpt lat="45.55777" lon="3.36996">
        <ele>506</ele>
        <time>2012-10-21T07:07:12.000Z</time>
      </trkpt>
      <trkpt lat="45.55773" lon="3.36999">
        <ele>506</ele>
        <time>2012-10-21T07:07:13.000Z</time>
      </trkpt>
      <trkpt lat="45.55769" lon="3.37001">
        <ele>505</ele>
        <time>2012-10-21T07:07:14.000Z</time>
      </trkpt>
      <trkpt lat="45.55764" lon="3.37004">
        <ele>508</ele>
        <time>2012-10-21T07:07:15.000Z</time>
      </trkpt>
      <trkpt lat="45.55759" lon="3.37006">
        <ele>511</ele>
        <time>2012-10-21T07:07:16.000Z</time>
      </trkpt>
      <trkpt lat="45.55754" lon="3.37007">
        <ele>513</ele>
        <time>2012-10-21T07:07:17.000Z</time>
      </trkpt>
      <trkpt lat="45.5575" lon="3.37009">
        <ele>514</ele>
        <time>2012-10-21T07:07:18.000Z</time>
      </trkpt>
      <trkpt lat="45.55745" lon="3.3701">
        <ele>516</ele>
        <time>2012-10-21T07:07:19.000Z</time>
      </trkpt>
      <trkpt lat="45.5574" lon="3.37011">
        <ele>515</ele>
        <time>2012-10-21T07:07:20.000Z</time>
      </trkpt>
      <trkpt lat="45.55735" lon="3.37012">
        <ele>515</ele>
        <time>2012-10-21T07:07:21.000Z</time>
      </trkpt>
      <trkpt lat="45.5573" lon="3.37013">
        <ele>514</ele>
        <time>2012-10-21T07:07:22.000Z</time>
      </trkpt>
      <trkpt lat="45.55725" lon="3.37014">
        <ele>514</ele>
        <time>2012-10-21T07:07:23.000Z</time>
      </trkpt>
      <trkpt lat="45.5572" lon="3.37014">
        <ele>513</ele>
        <time>2012-10-21T07:07:24.000Z</time>
      </trkpt>
      <trkpt lat="45.55715" lon="3.37015">
        <ele>513</ele>
        <time>2012-10-21T07:07:25.000Z</time>
      </trkpt>
      <trkpt lat="45.5571" lon="3.37015">
        <ele>514</ele>
        <time>2012-10-21T07:07:26.000Z</time>
      </trkpt>
      <trkpt lat="45.55705" lon="3.37016">
        <ele>514</ele>
        <time>2012-10-21T07:07:27.000Z</time>
      </trkpt>
      <trkpt lat="45.55699" lon="3.37016">
        <ele>513</ele>
        <time>2012-10-21T07:07:28.000Z</time>
      </trkpt>
      <trkpt lat="45.55694" lon="3.37017">
        <ele>515</ele>
        <time>2012-10-21T07:07:29.000Z</time>
      </trkpt>
      <trkpt lat="45.55688" lon="3.37018">
        <ele>512</ele>
        <time>2012-10-21T07:07:30.000Z</time>
      </trkpt>
      <trkpt lat="45.55682" lon="3.37019">
        <ele>512</ele>
        <time>2012-10-21T07:07:31.000Z</time>
      </trkpt>
      <trkpt lat="45.55676" lon="3.3702">
        <ele>512</ele>
        <time>2012-10-21T07:07:32.000Z</time>
      </trkpt>
      <trkpt lat="45.55669" lon="3.37021">
        <ele>511</ele>
        <time>2012-10-21T07:07:33.000Z</time>
      </trkpt>
      <trkpt lat="45.55663" lon="3.37022">
        <ele>511</ele>
        <time>2012-10-21T07:07:34.000Z</time>
      </trkpt>
      <trkpt lat="45.55655" lon="3.37023">
        <ele>512</ele>
        <time>2012-10-21T07:07:35.000Z</time>
      </trkpt>
      <trkpt lat="45.55648" lon="3.37024">
        <ele>513</ele>
        <time>2012-10-21T07:07:36.000Z</time>
      </trkpt>
      <trkpt lat="45.55641" lon="3.37026">
        <ele>514</ele>
        <time>2012-10-21T07:07:37.000Z</time>
      </trkpt>
      <trkpt lat="45.55636" lon="3.3703">
        <ele>515</ele>
        <time>2012-10-21T07:07:38.000Z</time>
      </trkpt>
      <trkpt lat="45.55626" lon="3.37043">
        <ele>515</ele>
        <time>2012-10-21T07:07:40.000Z</time>
      </trkpt>
      <trkpt lat="45.55622" lon="3.37051">
        <ele>515</ele>
        <time>2012-10-21T07:07:41.000Z</time>
      </trkpt>
      <trkpt lat="45.55618" lon="3.37059">
        <ele>516</ele>
        <time>2012-10-21T07:07:42.000Z</time>
      </trkpt>
      <trkpt lat="45.55615" lon="3.37068">
        <ele>514</ele>
        <time>2012-10-21T07:07:43.000Z</time>
      </trkpt>
      <trkpt lat="45.55612" lon="3.37076">
        <ele>511</ele>
        <time>2012-10-21T07:07:44.000Z</time>
      </trkpt>
      <trkpt lat="45.55608" lon="3.37083">
        <ele>512</ele>
        <time>2012-10-21T07:07:45.000Z</time>
      </trkpt>
      <trkpt lat="45.55605" lon="3.3709">
        <ele>513</ele>
        <time>2012-10-21T07:07:46.000Z</time>
      </trkpt>
      <trkpt lat="45.55603" lon="3.37095">
        <ele>509</ele>
        <time>2012-10-21T07:07:47.000Z</time>
      </trkpt>
      <trkpt lat="45.55601" lon="3.37099">
        <ele>509</ele>
        <time>2012-10-21T07:07:48.000Z</time>
      </trkpt>
      <trkpt lat="45.55599" lon="3.37105">
        <ele>509</ele>
        <time>2012-10-21T07:07:49.000Z</time>
      </trkpt>
      <trkpt lat="45.55594" lon="3.3711">
        <ele>507</ele>
        <time>2012-10-21T07:07:50.000Z</time>
      </trkpt>
      <trkpt lat="45.55588" lon="3.37113">
        <ele>507</ele>
        <time>2012-10-21T07:07:51.000Z</time>
      </trkpt>
      <trkpt lat="45.55582" lon="3.37116">
        <ele>506</ele>
        <time>2012-10-21T07:07:52.000Z</time>
      </trkpt>
      <trkpt lat="45.55576" lon="3.37117">
        <ele>508</ele>
        <time>2012-10-21T07:07:53.000Z</time>
      </trkpt>
      <trkpt lat="45.5557" lon="3.37118">
        <ele>510</ele>
        <time>2012-10-21T07:07:54.000Z</time>
      </trkpt>
      <trkpt lat="45.55564" lon="3.37119">
        <ele>512</ele>
        <time>2012-10-21T07:07:55.000Z</time>
      </trkpt>
      <trkpt lat="45.55558" lon="3.3712">
        <ele>509</ele>
        <time>2012-10-21T07:07:56.000Z</time>
      </trkpt>
      <trkpt lat="45.55552" lon="3.3712">
        <ele>509</ele>
        <time>2012-10-21T07:07:57.000Z</time>
      </trkpt>
      <trkpt lat="45.55547" lon="3.37121">
        <ele>507</ele>
        <time>2012-10-21T07:07:58.000Z</time>
      </trkpt>
      <trkpt lat="45.55542" lon="3.37122">
        <ele>508</ele>
        <time>2012-10-21T07:07:59.000Z</time>
      </trkpt>
      <trkpt lat="45.55536" lon="3.37123">
        <ele>507</ele>
        <time>2012-10-21T07:08:00.000Z</time>
      </trkpt>
      <trkpt lat="45.55531" lon="3.37124">
        <ele>507</ele>
        <time>2012-10-21T07:08:01.000Z</time>
      </trkpt>
      <trkpt lat="45.55526" lon="3.37125">
        <ele>508</ele>
        <time>2012-10-21T07:08:02.000Z</time>
      </trkpt>
      <trkpt lat="45.5552" lon="3.37126">
        <ele>505</ele>
        <time>2012-10-21T07:08:03.000Z</time>
      </trkpt>
      <trkpt lat="45.55514" lon="3.37127">
        <ele>505</ele>
        <time>2012-10-21T07:08:04.000Z</time>
      </trkpt>
      <trkpt lat="45.55508" lon="3.37128">
        <ele>503</ele>
        <time>2012-10-21T07:08:05.000Z</time>
      </trkpt>
      <trkpt lat="45.55502" lon="3.37129">
        <ele>507</ele>
        <time>2012-10-21T07:08:06.000Z</time>
      </trkpt>
      <trkpt lat="45.55496" lon="3.3713">
        <ele>509</ele>
        <time>2012-10-21T07:08:07.000Z</time>
      </trkpt>
      <trkpt lat="45.5549" lon="3.37132">
        <ele>507</ele>
        <time>2012-10-21T07:08:08.000Z</time>
      </trkpt>
      <trkpt lat="45.55484" lon="3.37133">
        <ele>506</ele>
        <time>2012-10-21T07:08:09.000Z</time>
      </trkpt>
      <trkpt lat="45.55478" lon="3.37134">
        <ele>503</ele>
        <time>2012-10-21T07:08:10.000Z</time>
      </trkpt>
      <trkpt lat="45.55472" lon="3.37135">
        <ele>503</ele>
        <time>2012-10-21T07:08:11.000Z</time>
      </trkpt>
      <trkpt lat="45.55466" lon="3.37135">
        <ele>504</ele>
        <time>2012-10-21T07:08:12.000Z</time>
      </trkpt>
      <trkpt lat="45.55461" lon="3.37136">
        <ele>502</ele>
        <time>2012-10-21T07:08:13.000Z</time>
      </trkpt>
      <trkpt lat="45.55455" lon="3.37137">
        <ele>506</ele>
        <time>2012-10-21T07:08:14.000Z</time>
      </trkpt>
      <trkpt lat="45.5545" lon="3.37138">
        <ele>502</ele>
        <time>2012-10-21T07:08:15.000Z</time>
      </trkpt>
      <trkpt lat="45.55443" lon="3.37138">
        <ele>500</ele>
        <time>2012-10-21T07:08:16.000Z</time>
      </trkpt>
      <trkpt lat="45.55437" lon="3.37139">
        <ele>501</ele>
        <time>2012-10-21T07:08:17.000Z</time>
      </trkpt>
      <trkpt lat="45.5543" lon="3.3714">
        <ele>502</ele>
        <time>2012-10-21T07:08:18.000Z</time>
      </trkpt>
      <trkpt lat="45.55423" lon="3.37142">
        <ele>502</ele>
        <time>2012-10-21T07:08:19.000Z</time>
      </trkpt>
      <trkpt lat="45.55417" lon="3.37144">
        <ele>501</ele>
        <time>2012-10-21T07:08:20.000Z</time>
      </trkpt>
      <trkpt lat="45.55411" lon="3.37146">
        <ele>501</ele>
        <time>2012-10-21T07:08:21.000Z</time>
      </trkpt>
      <trkpt lat="45.55405" lon="3.37147">
        <ele>502</ele>
        <time>2012-10-21T07:08:22.000Z</time>
      </trkpt>
      <trkpt lat="45.55399" lon="3.37149">
        <ele>500</ele>
        <time>2012-10-21T07:08:23.000Z</time>
      </trkpt>
      <trkpt lat="45.55392" lon="3.37151">
        <ele>500</ele>
        <time>2012-10-21T07:08:24.000Z</time>
      </trkpt>
      <trkpt lat="45.55386" lon="3.37153">
        <ele>501</ele>
        <time>2012-10-21T07:08:25.000Z</time>
      </trkpt>
      <trkpt lat="45.55379" lon="3.37155">
        <ele>502</ele>
        <time>2012-10-21T07:08:26.000Z</time>
      </trkpt>
      <trkpt lat="45.55373" lon="3.37156">
        <ele>503</ele>
        <time>2012-10-21T07:08:27.000Z</time>
      </trkpt>
      <trkpt lat="45.55368" lon="3.37157">
        <ele>504</ele>
        <time>2012-10-21T07:08:28.000Z</time>
      </trkpt>
      <trkpt lat="45.55361" lon="3.37159">
        <ele>503</ele>
        <time>2012-10-21T07:08:29.000Z</time>
      </trkpt>
      <trkpt lat="45.55355" lon="3.3716">
        <ele>503</ele>
        <time>2012-10-21T07:08:30.000Z</time>
      </trkpt>
      <trkpt lat="45.55349" lon="3.37162">
        <ele>503</ele>
        <time>2012-10-21T07:08:31.000Z</time>
      </trkpt>
      <trkpt lat="45.55343" lon="3.37163">
        <ele>504</ele>
        <time>2012-10-21T07:08:32.000Z</time>
      </trkpt>
      <trkpt lat="45.55338" lon="3.37164">
        <ele>504</ele>
        <time>2012-10-21T07:08:33.000Z</time>
      </trkpt>
      <trkpt lat="45.55332" lon="3.37165">
        <ele>503</ele>
        <time>2012-10-21T07:08:34.000Z</time>
      </trkpt>
      <trkpt lat="45.55326" lon="3.37167">
        <ele>502</ele>
        <time>2012-10-21T07:08:35.000Z</time>
      </trkpt>
      <trkpt lat="45.5532" lon="3.37168">
        <ele>502</ele>
        <time>2012-10-21T07:08:36.000Z</time>
      </trkpt>
      <trkpt lat="45.55315" lon="3.37169">
        <ele>504</ele>
        <time>2012-10-21T07:08:37.000Z</time>
      </trkpt>
      <trkpt lat="45.55309" lon="3.37171">
        <ele>501</ele>
        <time>2012-10-21T07:08:38.000Z</time>
      </trkpt>
      <trkpt lat="45.553" lon="3.37172">
        <ele>499</ele>
        <time>2012-10-21T07:08:40.000Z</time>
      </trkpt>
      <trkpt lat="45.55294" lon="3.37172">
        <ele>500</ele>
        <time>2012-10-21T07:08:41.000Z</time>
      </trkpt>
      <trkpt lat="45.55288" lon="3.37172">
        <ele>500</ele>
        <time>2012-10-21T07:08:42.000Z</time>
      </trkpt>
      <trkpt lat="45.55282" lon="3.37173">
        <ele>499</ele>
        <time>2012-10-21T07:08:43.000Z</time>
      </trkpt>
      <trkpt lat="45.55276" lon="3.37173">
        <ele>501</ele>
        <time>2012-10-21T07:08:44.000Z</time>
      </trkpt>
      <trkpt lat="45.5527" lon="3.37173">
        <ele>501</ele>
        <time>2012-10-21T07:08:45.000Z</time>
      </trkpt>
      <trkpt lat="45.55265" lon="3.37173">
        <ele>503</ele>
        <time>2012-10-21T07:08:46.000Z</time>
      </trkpt>
      <trkpt lat="45.5526" lon="3.37173">
        <ele>502</ele>
        <time>2012-10-21T07:08:47.000Z</time>
      </trkpt>
      <trkpt lat="45.55255" lon="3.37172">
        <ele>503</ele>
        <time>2012-10-21T07:08:48.000Z</time>
      </trkpt>
      <trkpt lat="45.5525" lon="3.37172">
        <ele>505</ele>
        <time>2012-10-21T07:08:49.000Z</time>
      </trkpt>
      <trkpt lat="45.55246" lon="3.37173">
        <ele>508</ele>
        <time>2012-10-21T07:08:50.000Z</time>
      </trkpt>
      <trkpt lat="45.55242" lon="3.37172">
        <ele>508</ele>
        <time>2012-10-21T07:08:51.000Z</time>
      </trkpt>
      <trkpt lat="45.55239" lon="3.37172">
        <ele>506</ele>
        <time>2012-10-21T07:08:52.000Z</time>
      </trkpt>
      <trkpt lat="45.55235" lon="3.37172">
        <ele>507</ele>
        <time>2012-10-21T07:08:53.000Z</time>
      </trkpt>
      <trkpt lat="45.55231" lon="3.37177">
        <ele>506</ele>
        <time>2012-10-21T07:08:54.000Z</time>
      </trkpt>
      <trkpt lat="45.55229" lon="3.37181">
        <ele>507</ele>
        <time>2012-10-21T07:08:55.000Z</time>
      </trkpt>
      <trkpt lat="45.55226" lon="3.37186">
        <ele>507</ele>
        <time>2012-10-21T07:08:56.000Z</time>
      </trkpt>
      <trkpt lat="45.55223" lon="3.37191">
        <ele>507</ele>
        <time>2012-10-21T07:08:57.000Z</time>
      </trkpt>
      <trkpt lat="45.55222" lon="3.37196">
        <ele>508</ele>
        <time>2012-10-21T07:08:58.000Z</time>
      </trkpt>
      <trkpt lat="45.55222" lon="3.37202">
        <ele>508</ele>
        <time>2012-10-21T07:08:59.000Z</time>
      </trkpt>
      <trkpt lat="45.55222" lon="3.37208">
        <ele>509</ele>
        <time>2012-10-21T07:09:00.000Z</time>
      </trkpt>
      <trkpt lat="45.55222" lon="3.37214">
        <ele>512</ele>
        <time>2012-10-21T07:09:01.000Z</time>
      </trkpt>
      <trkpt lat="45.55221" lon="3.3722">
        <ele>508</ele>
        <time>2012-10-21T07:09:02.000Z</time>
      </trkpt>
      <trkpt lat="45.5522" lon="3.37228">
        <ele>508</ele>
        <time>2012-10-21T07:09:03.000Z</time>
      </trkpt>
      <trkpt lat="45.55219" lon="3.37235">
        <ele>513</ele>
        <time>2012-10-21T07:09:04.000Z</time>
      </trkpt>
      <trkpt lat="45.55218" lon="3.37241">
        <ele>510</ele>
        <time>2012-10-21T07:09:05.000Z</time>
      </trkpt>
      <trkpt lat="45.55216" lon="3.37259">
        <ele>510</ele>
        <time>2012-10-21T07:09:08.000Z</time>
      </trkpt>
      <trkpt lat="45.55216" lon="3.37263">
        <ele>507</ele>
        <time>2012-10-21T07:09:11.000Z</time>
      </trkpt>
      <trkpt lat="45.5521" lon="3.37269">
        <ele>505</ele>
        <time>2012-10-21T07:09:12.000Z</time>
      </trkpt>
      <trkpt lat="45.55205" lon="3.37272">
        <ele>507</ele>
        <time>2012-10-21T07:09:14.000Z</time>
      </trkpt>
      <trkpt lat="45.55202" lon="3.37272">
        <ele>509</ele>
        <time>2012-10-21T07:09:15.000Z</time>
      </trkpt>
      <trkpt lat="45.55199" lon="3.37272">
        <ele>510</ele>
        <time>2012-10-21T07:09:16.000Z</time>
      </trkpt>
      <trkpt lat="45.55196" lon="3.37272">
        <ele>513</ele>
        <time>2012-10-21T07:09:17.000Z</time>
      </trkpt>
      <trkpt lat="45.55192" lon="3.37272">
        <ele>512</ele>
        <time>2012-10-21T07:09:18.000Z</time>
      </trkpt>
      <trkpt lat="45.55189" lon="3.37272">
        <ele>512</ele>
        <time>2012-10-21T07:09:19.000Z</time>
      </trkpt>
      <trkpt lat="45.55185" lon="3.37272">
        <ele>514</ele>
        <time>2012-10-21T07:09:20.000Z</time>
      </trkpt>
      <trkpt lat="45.55182" lon="3.37271">
        <ele>515</ele>
        <time>2012-10-21T07:09:21.000Z</time>
      </trkpt>
      <trkpt lat="45.55178" lon="3.37271">
        <ele>515</ele>
        <time>2012-10-21T07:09:22.000Z</time>
      </trkpt>
      <trkpt lat="45.55174" lon="3.37271">
        <ele>516</ele>
        <time>2012-10-21T07:09:23.000Z</time>
      </trkpt>
      <trkpt lat="45.55171" lon="3.37272">
        <ele>515</ele>
        <time>2012-10-21T07:09:24.000Z</time>
      </trkpt>
      <trkpt lat="45.55168" lon="3.37273">
        <ele>517</ele>
        <time>2012-10-21T07:09:25.000Z</time>
      </trkpt>
      <trkpt lat="45.55165" lon="3.37275">
        <ele>517</ele>
        <time>2012-10-21T07:09:26.000Z</time>
      </trkpt>
      <trkpt lat="45.55163" lon="3.37278">
        <ele>520</ele>
        <time>2012-10-21T07:09:27.000Z</time>
      </trkpt>
      <trkpt lat="45.5516" lon="3.3728">
        <ele>519</ele>
        <time>2012-10-21T07:09:28.000Z</time>
      </trkpt>
      <trkpt lat="45.55157" lon="3.37282">
        <ele>520</ele>
        <time>2012-10-21T07:09:29.000Z</time>
      </trkpt>
      <trkpt lat="45.55154" lon="3.37283">
        <ele>520</ele>
        <time>2012-10-21T07:09:30.000Z</time>
      </trkpt>
      <trkpt lat="45.55151" lon="3.37284">
        <ele>516</ele>
        <time>2012-10-21T07:09:31.000Z</time>
      </trkpt>
      <trkpt lat="45.55148" lon="3.37285">
        <ele>516</ele>
        <time>2012-10-21T07:09:32.000Z</time>
      </trkpt>
      <trkpt lat="45.55145" lon="3.37286">
        <ele>513</ele>
        <time>2012-10-21T07:09:33.000Z</time>
      </trkpt>
      <trkpt lat="45.55143" lon="3.37287">
        <ele>514</ele>
        <time>2012-10-21T07:09:34.000Z</time>
      </trkpt>
      <trkpt lat="45.55142" lon="3.37283">
        <ele>518</ele>
        <time>2012-10-21T07:09:35.000Z</time>
      </trkpt>
      <trkpt lat="45.55144" lon="3.37277">
        <ele>519</ele>
        <time>2012-10-21T07:09:36.000Z</time>
      </trkpt>
      <trkpt lat="45.5514" lon="3.37271">
        <ele>523</ele>
        <time>2012-10-21T07:09:37.000Z</time>
      </trkpt>
      <trkpt lat="45.55136" lon="3.37268">
        <ele>522</ele>
        <time>2012-10-21T07:09:38.000Z</time>
      </trkpt>
      <trkpt lat="45.55133" lon="3.37266">
        <ele>520</ele>
        <time>2012-10-21T07:09:40.000Z</time>
      </trkpt>
      <trkpt lat="45.55126" lon="3.37258">
        <ele>520</ele>
        <time>2012-10-21T07:09:41.000Z</time>
      </trkpt>
      <trkpt lat="45.55124" lon="3.37253">
        <ele>518</ele>
        <time>2012-10-21T07:09:42.000Z</time>
      </trkpt>
      <trkpt lat="45.55121" lon="3.37248">
        <ele>516</ele>
        <time>2012-10-21T07:09:43.000Z</time>
      </trkpt>
      <trkpt lat="45.55118" lon="3.37243">
        <ele>519</ele>
        <time>2012-10-21T07:09:44.000Z</time>
      </trkpt>
      <trkpt lat="45.55116" lon="3.37239">
        <ele>520</ele>
        <time>2012-10-21T07:09:45.000Z</time>
      </trkpt>
      <trkpt lat="45.55113" lon="3.37234">
        <ele>518</ele>
        <time>2012-10-21T07:09:46.000Z</time>
      </trkpt>
      <trkpt lat="45.55111" lon="3.37231">
        <ele>518</ele>
        <time>2012-10-21T07:09:47.000Z</time>
      </trkpt>
      <trkpt lat="45.55108" lon="3.37226">
        <ele>516</ele>
        <time>2012-10-21T07:09:48.000Z</time>
      </trkpt>
      <trkpt lat="45.55105" lon="3.37225">
        <ele>515</ele>
        <time>2012-10-21T07:09:49.000Z</time>
      </trkpt>
      <trkpt lat="45.55103" lon="3.37225">
        <ele>513</ele>
        <time>2012-10-21T07:09:50.000Z</time>
      </trkpt>
      <trkpt lat="45.551" lon="3.37225">
        <ele>509</ele>
        <time>2012-10-21T07:09:51.000Z</time>
      </trkpt>
      <trkpt lat="45.55096" lon="3.37226">
        <ele>508</ele>
        <time>2012-10-21T07:09:52.000Z</time>
      </trkpt>
      <trkpt lat="45.55092" lon="3.37228">
        <ele>510</ele>
        <time>2012-10-21T07:09:53.000Z</time>
      </trkpt>
      <trkpt lat="45.55088" lon="3.3723">
        <ele>506</ele>
        <time>2012-10-21T07:09:54.000Z</time>
      </trkpt>
      <trkpt lat="45.55083" lon="3.37233">
        <ele>512</ele>
        <time>2012-10-21T07:09:55.000Z</time>
      </trkpt>
      <trkpt lat="45.55077" lon="3.37234">
        <ele>516</ele>
        <time>2012-10-21T07:09:56.000Z</time>
      </trkpt>
      <trkpt lat="45.55073" lon="3.37237">
        <ele>517</ele>
        <time>2012-10-21T07:09:57.000Z</time>
      </trkpt>
      <trkpt lat="45.55068" lon="3.37241">
        <ele>517</ele>
        <time>2012-10-21T07:09:58.000Z</time>
      </trkpt>
      <trkpt lat="45.55063" lon="3.37245">
        <ele>516</ele>
        <time>2012-10-21T07:09:59.000Z</time>
      </trkpt>
      <trkpt lat="45.55058" lon="3.3725">
        <ele>516</ele>
        <time>2012-10-21T07:10:00.000Z</time>
      </trkpt>
      <trkpt lat="45.55054" lon="3.37255">
        <ele>515</ele>
        <time>2012-10-21T07:10:01.000Z</time>
      </trkpt>
      <trkpt lat="45.5505" lon="3.37263">
        <ele>515</ele>
        <time>2012-10-21T07:10:02.000Z</time>
      </trkpt>
      <trkpt lat="45.55046" lon="3.37271">
        <ele>514</ele>
        <time>2012-10-21T07:10:03.000Z</time>
      </trkpt>
      <trkpt lat="45.55043" lon="3.37278">
        <ele>512</ele>
        <time>2012-10-21T07:10:04.000Z</time>
      </trkpt>
      <trkpt lat="45.5504" lon="3.37287">
        <ele>514</ele>
        <time>2012-10-21T07:10:05.000Z</time>
      </trkpt>
      <trkpt lat="45.55038" lon="3.37297">
        <ele>511</ele>
        <time>2012-10-21T07:10:06.000Z</time>
      </trkpt>
      <trkpt lat="45.55038" lon="3.37307">
        <ele>513</ele>
        <time>2012-10-21T07:10:07.000Z</time>
      </trkpt>
      <trkpt lat="45.55038" lon="3.37317">
        <ele>517</ele>
        <time>2012-10-21T07:10:08.000Z</time>
      </trkpt>
      <trkpt lat="45.55038" lon="3.37327">
        <ele>512</ele>
        <time>2012-10-21T07:10:09.000Z</time>
      </trkpt>
      <trkpt lat="45.55038" lon="3.37337">
        <ele>514</ele>
        <time>2012-10-21T07:10:10.000Z</time>
      </trkpt>
      <trkpt lat="45.55038" lon="3.37347">
        <ele>512</ele>
        <time>2012-10-21T07:10:11.000Z</time>
      </trkpt>
      <trkpt lat="45.55039" lon="3.37358">
        <ele>514</ele>
        <time>2012-10-21T07:10:12.000Z</time>
      </trkpt>
      <trkpt lat="45.55041" lon="3.37369">
        <ele>512</ele>
        <time>2012-10-21T07:10:13.000Z</time>
      </trkpt>
      <trkpt lat="45.55043" lon="3.37374">
        <ele>512</ele>
        <time>2012-10-21T07:10:14.000Z</time>
      </trkpt>
      <trkpt lat="45.55045" lon="3.37381">
        <ele>506</ele>
        <time>2012-10-21T07:10:15.000Z</time>
      </trkpt>
      <trkpt lat="45.55045" lon="3.37387">
        <ele>502</ele>
        <time>2012-10-21T07:10:16.000Z</time>
      </trkpt>
      <trkpt lat="45.55046" lon="3.37395">
        <ele>507</ele>
        <time>2012-10-21T07:10:17.000Z</time>
      </trkpt>
      <trkpt lat="45.55044" lon="3.374">
        <ele>509</ele>
        <time>2012-10-21T07:10:18.000Z</time>
      </trkpt>
      <trkpt lat="45.55042" lon="3.374">
        <ele>507</ele>
        <time>2012-10-21T07:10:19.000Z</time>
      </trkpt>
      <trkpt lat="45.5504" lon="3.37401">
        <ele>506</ele>
        <time>2012-10-21T07:10:20.000Z</time>
      </trkpt>
      <trkpt lat="45.55037" lon="3.37401">
        <ele>507</ele>
        <time>2012-10-21T07:10:21.000Z</time>
      </trkpt>
      <trkpt lat="45.55033" lon="3.37401">
        <ele>509</ele>
        <time>2012-10-21T07:10:22.000Z</time>
      </trkpt>
      <trkpt lat="45.55028" lon="3.374">
        <ele>508</ele>
        <time>2012-10-21T07:10:23.000Z</time>
      </trkpt>
      <trkpt lat="45.55024" lon="3.374">
        <ele>506</ele>
        <time>2012-10-21T07:10:24.000Z</time>
      </trkpt>
      <trkpt lat="45.55019" lon="3.374">
        <ele>506</ele>
        <time>2012-10-21T07:10:25.000Z</time>
      </trkpt>
      <trkpt lat="45.55015" lon="3.374">
        <ele>505</ele>
        <time>2012-10-21T07:10:26.000Z</time>
      </trkpt>
      <trkpt lat="45.55011" lon="3.37402">
        <ele>505</ele>
        <time>2012-10-21T07:10:27.000Z</time>
      </trkpt>
      <trkpt lat="45.55009" lon="3.37406">
        <ele>506</ele>
        <time>2012-10-21T07:10:28.000Z</time>
      </trkpt>
      <trkpt lat="45.55007" lon="3.3741">
        <ele>505</ele>
        <time>2012-10-21T07:10:29.000Z</time>
      </trkpt>
      <trkpt lat="45.55008" lon="3.37417">
        <ele>504</ele>
        <time>2012-10-21T07:10:30.000Z</time>
      </trkpt>
      <trkpt lat="45.55008" lon="3.37423">
        <ele>504</ele>
        <time>2012-10-21T07:10:31.000Z</time>
      </trkpt>
      <trkpt lat="45.55009" lon="3.37431">
        <ele>508</ele>
        <time>2012-10-21T07:10:32.000Z</time>
      </trkpt>
      <trkpt lat="45.5501" lon="3.37438">
        <ele>509</ele>
        <time>2012-10-21T07:10:33.000Z</time>
      </trkpt>
      <trkpt lat="45.5501" lon="3.37445">
        <ele>507</ele>
        <time>2012-10-21T07:10:34.000Z</time>
      </trkpt>
      <trkpt lat="45.55011" lon="3.37451">
        <ele>507</ele>
        <time>2012-10-21T07:10:35.000Z</time>
      </trkpt>
      <trkpt lat="45.55012" lon="3.37457">
        <ele>505</ele>
        <time>2012-10-21T07:10:36.000Z</time>
      </trkpt>
      <trkpt lat="45.55013" lon="3.37464">
        <ele>501</ele>
        <time>2012-10-21T07:10:37.000Z</time>
      </trkpt>
      <trkpt lat="45.55014" lon="3.3747">
        <ele>502</ele>
        <time>2012-10-21T07:10:38.000Z</time>
      </trkpt>
      <trkpt lat="45.55014" lon="3.37482">
        <ele>506</ele>
        <time>2012-10-21T07:10:40.000Z</time>
      </trkpt>
      <trkpt lat="45.55014" lon="3.37489">
        <ele>509</ele>
        <time>2012-10-21T07:10:41.000Z</time>
      </trkpt>
      <trkpt lat="45.55014" lon="3.37496">
        <ele>509</ele>
        <time>2012-10-21T07:10:42.000Z</time>
      </trkpt>
      <trkpt lat="45.55016" lon="3.37506">
        <ele>509</ele>
        <time>2012-10-21T07:10:46.000Z</time>
      </trkpt>
      <trkpt lat="45.55016" lon="3.37513">
        <ele>509</ele>
        <time>2012-10-21T07:10:47.000Z</time>
      </trkpt>
      <trkpt lat="45.55017" lon="3.3752">
        <ele>508</ele>
        <time>2012-10-21T07:10:48.000Z</time>
      </trkpt>
      <trkpt lat="45.55017" lon="3.37527">
        <ele>509</ele>
        <time>2012-10-21T07:10:49.000Z</time>
      </trkpt>
      <trkpt lat="45.55018" lon="3.37535">
        <ele>513</ele>
        <time>2012-10-21T07:10:50.000Z</time>
      </trkpt>
      <trkpt lat="45.55018" lon="3.37542">
        <ele>516</ele>
        <time>2012-10-21T07:10:51.000Z</time>
      </trkpt>
      <trkpt lat="45.55018" lon="3.3755">
        <ele>514</ele>
        <time>2012-10-21T07:10:52.000Z</time>
      </trkpt>
      <trkpt lat="45.55018" lon="3.37557">
        <ele>514</ele>
        <time>2012-10-21T07:10:53.000Z</time>
      </trkpt>
      <trkpt lat="45.55019" lon="3.37564">
        <ele>513</ele>
        <time>2012-10-21T07:10:54.000Z</time>
      </trkpt>
      <trkpt lat="45.5502" lon="3.37571">
        <ele>515</ele>
        <time>2012-10-21T07:10:55.000Z</time>
      </trkpt>
      <trkpt lat="45.55021" lon="3.37579">
        <ele>509</ele>
        <time>2012-10-21T07:10:56.000Z</time>
      </trkpt>
      <trkpt lat="45.55021" lon="3.37585">
        <ele>507</ele>
        <time>2012-10-21T07:10:57.000Z</time>
      </trkpt>
      <trkpt lat="45.55022" lon="3.37591">
        <ele>509</ele>
        <time>2012-10-21T07:10:58.000Z</time>
      </trkpt>
      <trkpt lat="45.55022" lon="3.37597">
        <ele>509</ele>
        <time>2012-10-21T07:10:59.000Z</time>
      </trkpt>
      <trkpt lat="45.55023" lon="3.37602">
        <ele>506</ele>
        <time>2012-10-21T07:11:00.000Z</time>
      </trkpt>
      <trkpt lat="45.55023" lon="3.37608">
        <ele>504</ele>
        <time>2012-10-21T07:11:01.000Z</time>
      </trkpt>
      <trkpt lat="45.55024" lon="3.37614">
        <ele>503</ele>
        <time>2012-10-21T07:11:02.000Z</time>
      </trkpt>
      <trkpt lat="45.55024" lon="3.37621">
        <ele>503</ele>
        <time>2012-10-21T07:11:03.000Z</time>
      </trkpt>
      <trkpt lat="45.55024" lon="3.37628">
        <ele>500</ele>
        <time>2012-10-21T07:11:04.000Z</time>
      </trkpt>
      <trkpt lat="45.55025" lon="3.37636">
        <ele>506</ele>
        <time>2012-10-21T07:11:05.000Z</time>
      </trkpt>
      <trkpt lat="45.55026" lon="3.37642">
        <ele>505</ele>
        <time>2012-10-21T07:11:06.000Z</time>
      </trkpt>
      <trkpt lat="45.55027" lon="3.37648">
        <ele>507</ele>
        <time>2012-10-21T07:11:07.000Z</time>
      </trkpt>
      <trkpt lat="45.55028" lon="3.37655">
        <ele>507</ele>
        <time>2012-10-21T07:11:08.000Z</time>
      </trkpt>
      <trkpt lat="45.55029" lon="3.3766">
        <ele>506</ele>
        <time>2012-10-21T07:11:09.000Z</time>
      </trkpt>
      <trkpt lat="45.5503" lon="3.37665">
        <ele>505</ele>
        <time>2012-10-21T07:11:10.000Z</time>
      </trkpt>
      <trkpt lat="45.55031" lon="3.37671">
        <ele>510</ele>
        <time>2012-10-21T07:11:11.000Z</time>
      </trkpt>
      <trkpt lat="45.55031" lon="3.37676">
        <ele>510</ele>
        <time>2012-10-21T07:11:12.000Z</time>
      </trkpt>
      <trkpt lat="45.55032" lon="3.37681">
        <ele>511</ele>
        <time>2012-10-21T07:11:13.000Z</time>
      </trkpt>
      <trkpt lat="45.55032" lon="3.37686">
        <ele>509</ele>
        <time>2012-10-21T07:11:14.000Z</time>
      </trkpt>
      <trkpt lat="45.55033" lon="3.37692">
        <ele>513</ele>
        <time>2012-10-21T07:11:15.000Z</time>
      </trkpt>
      <trkpt lat="45.55033" lon="3.37697">
        <ele>509</ele>
        <time>2012-10-21T07:11:16.000Z</time>
      </trkpt>
      <trkpt lat="45.55033" lon="3.37702">
        <ele>510</ele>
        <time>2012-10-21T07:11:17.000Z</time>
      </trkpt>
      <trkpt lat="45.55032" lon="3.37707">
        <ele>509</ele>
        <time>2012-10-21T07:11:18.000Z</time>
      </trkpt>
      <trkpt lat="45.55032" lon="3.37712">
        <ele>509</ele>
        <time>2012-10-21T07:11:19.000Z</time>
      </trkpt>
      <trkpt lat="45.55031" lon="3.37717">
        <ele>509</ele>
        <time>2012-10-21T07:11:20.000Z</time>
      </trkpt>
      <trkpt lat="45.5503" lon="3.37723">
        <ele>506</ele>
        <time>2012-10-21T07:11:21.000Z</time>
      </trkpt>
      <trkpt lat="45.55029" lon="3.37729">
        <ele>509</ele>
        <time>2012-10-21T07:11:22.000Z</time>
      </trkpt>
      <trkpt lat="45.55028" lon="3.37734">
        <ele>506</ele>
        <time>2012-10-21T07:11:23.000Z</time>
      </trkpt>
      <trkpt lat="45.55027" lon="3.37739">
        <ele>504</ele>
        <time>2012-10-21T07:11:24.000Z</time>
      </trkpt>
      <trkpt lat="45.55027" lon="3.37743">
        <ele>510</ele>
        <time>2012-10-21T07:11:25.000Z</time>
      </trkpt>
      <trkpt lat="45.55027" lon="3.37748">
        <ele>513</ele>
        <time>2012-10-21T07:11:26.000Z</time>
      </trkpt>
      <trkpt lat="45.55027" lon="3.37753">
        <ele>514</ele>
        <time>2012-10-21T07:11:27.000Z</time>
      </trkpt>
      <trkpt lat="45.55027" lon="3.37759">
        <ele>515</ele>
        <time>2012-10-21T07:11:28.000Z</time>
      </trkpt>
      <trkpt lat="45.55027" lon="3.37765">
        <ele>516</ele>
        <time>2012-10-21T07:11:29.000Z</time>
      </trkpt>
      <trkpt lat="45.55029" lon="3.37771">
        <ele>517</ele>
        <time>2012-10-21T07:11:30.000Z</time>
      </trkpt>
      <trkpt lat="45.55031" lon="3.37777">
        <ele>518</ele>
        <time>2012-10-21T07:11:31.000Z</time>
      </trkpt>
      <trkpt lat="45.55032" lon="3.37782">
        <ele>519</ele>
        <time>2012-10-21T07:11:32.000Z</time>
      </trkpt>
      <trkpt lat="45.55032" lon="3.37787">
        <ele>520</ele>
        <time>2012-10-21T07:11:33.000Z</time>
      </trkpt>
      <trkpt lat="45.55032" lon="3.37792">
        <ele>521</ele>
        <time>2012-10-21T07:11:34.000Z</time>
      </trkpt>
      <trkpt lat="45.55033" lon="3.37797">
        <ele>522</ele>
        <time>2012-10-21T07:11:35.000Z</time>
      </trkpt>
      <trkpt lat="45.55033" lon="3.37802">
        <ele>523</ele>
        <time>2012-10-21T07:11:36.000Z</time>
      </trkpt>
      <trkpt lat="45.55033" lon="3.37807">
        <ele>524</ele>
        <time>2012-10-21T07:11:37.000Z</time>
      </trkpt>
      <trkpt lat="45.55032" lon="3.37812">
        <ele>527</ele>
        <time>2012-10-21T07:11:38.000Z</time>
      </trkpt>
      <trkpt lat="45.55032" lon="3.37823">
        <ele>529</ele>
        <time>2012-10-21T07:11:40.000Z</time>
      </trkpt>
      <trkpt lat="45.55031" lon="3.37828">
        <ele>533</ele>
        <time>2012-10-21T07:11:41.000Z</time>
      </trkpt>
      <trkpt lat="45.55031" lon="3.37834">
        <ele>533</ele>
        <time>2012-10-21T07:11:42.000Z</time>
      </trkpt>
      <trkpt lat="45.5503" lon="3.3784">
        <ele>533</ele>
        <time>2012-10-21T07:11:43.000Z</time>
      </trkpt>
      <trkpt lat="45.5503" lon="3.37846">
        <ele>535</ele>
        <time>2012-10-21T07:11:44.000Z</time>
      </trkpt>
      <trkpt lat="45.5503" lon="3.37852">
        <ele>533</ele>
        <time>2012-10-21T07:11:45.000Z</time>
      </trkpt>
      <trkpt lat="45.5503" lon="3.37858">
        <ele>534</ele>
        <time>2012-10-21T07:11:46.000Z</time>
      </trkpt>
      <trkpt lat="45.5503" lon="3.37865">
        <ele>535</ele>
        <time>2012-10-21T07:11:47.000Z</time>
      </trkpt>
      <trkpt lat="45.5503" lon="3.37872">
        <ele>536</ele>
        <time>2012-10-21T07:11:48.000Z</time>
      </trkpt>
      <trkpt lat="45.55028" lon="3.37877">
        <ele>536</ele>
        <time>2012-10-21T07:11:49.000Z</time>
      </trkpt>
      <trkpt lat="45.55027" lon="3.37883">
        <ele>532</ele>
        <time>2012-10-21T07:11:50.000Z</time>
      </trkpt>
      <trkpt lat="45.55026" lon="3.37893">
        <ele>538</ele>
        <time>2012-10-21T07:11:53.000Z</time>
      </trkpt>
      <trkpt lat="45.55024" lon="3.37899">
        <ele>535</ele>
        <time>2012-10-21T07:11:54.000Z</time>
      </trkpt>
      <trkpt lat="45.55024" lon="3.37905">
        <ele>534</ele>
        <time>2012-10-21T07:11:55.000Z</time>
      </trkpt>
      <trkpt lat="45.55024" lon="3.37912">
        <ele>532</ele>
        <time>2012-10-21T07:11:56.000Z</time>
      </trkpt>
      <trkpt lat="45.55024" lon="3.37919">
        <ele>532</ele>
        <time>2012-10-21T07:11:57.000Z</time>
      </trkpt>
      <trkpt lat="45.55023" lon="3.37925">
        <ele>533</ele>
        <time>2012-10-21T07:12:00.000Z</time>
      </trkpt>
      <trkpt lat="45.55024" lon="3.37944">
        <ele>538</ele>
        <time>2012-10-21T07:12:01.000Z</time>
      </trkpt>
      <trkpt lat="45.55024" lon="3.37952">
        <ele>540</ele>
        <time>2012-10-21T07:12:02.000Z</time>
      </trkpt>
      <trkpt lat="45.55024" lon="3.37959">
        <ele>535</ele>
        <time>2012-10-21T07:12:03.000Z</time>
      </trkpt>
      <trkpt lat="45.55025" lon="3.37965">
        <ele>533</ele>
        <time>2012-10-21T07:12:04.000Z</time>
      </trkpt>
      <trkpt lat="45.55026" lon="3.37971">
        <ele>527</ele>
        <time>2012-10-21T07:12:05.000Z</time>
      </trkpt>
      <trkpt lat="45.55026" lon="3.37976">
        <ele>525</ele>
        <time>2012-10-21T07:12:06.000Z</time>
      </trkpt>
      <trkpt lat="45.55025" lon="3.37982">
        <ele>526</ele>
        <time>2012-10-21T07:12:07.000Z</time>
      </trkpt>
      <trkpt lat="45.55025" lon="3.37989">
        <ele>523</ele>
        <time>2012-10-21T07:12:08.000Z</time>
      </trkpt>
      <trkpt lat="45.55027" lon="3.37994">
        <ele>525</ele>
        <time>2012-10-21T07:12:09.000Z</time>
      </trkpt>
      <trkpt lat="45.55029" lon="3.38001">
        <ele>518</ele>
        <time>2012-10-21T07:12:10.000Z</time>
      </trkpt>
      <trkpt lat="45.55031" lon="3.38011">
        <ele>514</ele>
        <time>2012-10-21T07:12:12.000Z</time>
      </trkpt>
      <trkpt lat="45.55032" lon="3.38028">
        <ele>510</ele>
        <time>2012-10-21T07:12:16.000Z</time>
      </trkpt>
      <trkpt lat="45.55034" lon="3.38039">
        <ele>515</ele>
        <time>2012-10-21T07:12:18.000Z</time>
      </trkpt>
      <trkpt lat="45.55034" lon="3.38044">
        <ele>515</ele>
        <time>2012-10-21T07:12:19.000Z</time>
      </trkpt>
      <trkpt lat="45.55034" lon="3.38049">
        <ele>522</ele>
        <time>2012-10-21T07:12:20.000Z</time>
      </trkpt>
      <trkpt lat="45.55034" lon="3.38054">
        <ele>524</ele>
        <time>2012-10-21T07:12:21.000Z</time>
      </trkpt>
      <trkpt lat="45.55035" lon="3.3806">
        <ele>518</ele>
        <time>2012-10-21T07:12:22.000Z</time>
      </trkpt>
      <trkpt lat="45.55035" lon="3.38066">
        <ele>518</ele>
        <time>2012-10-21T07:12:23.000Z</time>
      </trkpt>
      <trkpt lat="45.55036" lon="3.38072">
        <ele>521</ele>
        <time>2012-10-21T07:12:24.000Z</time>
      </trkpt>
      <trkpt lat="45.55036" lon="3.38077">
        <ele>521</ele>
        <time>2012-10-21T07:12:25.000Z</time>
      </trkpt>
      <trkpt lat="45.55038" lon="3.38097">
        <ele>524</ele>
        <time>2012-10-21T07:12:28.000Z</time>
      </trkpt>
      <trkpt lat="45.55042" lon="3.38111">
        <ele>522</ele>
        <time>2012-10-21T07:12:30.000Z</time>
      </trkpt>
      <trkpt lat="45.55041" lon="3.38116">
        <ele>515</ele>
        <time>2012-10-21T07:12:56.000Z</time>
      </trkpt>
      <trkpt lat="45.55034" lon="3.38121">
        <ele>493</ele>
        <time>2012-10-21T07:12:57.000Z</time>
      </trkpt>
      <trkpt lat="45.5503" lon="3.38119">
        <ele>492</ele>
        <time>2012-10-21T07:13:11.000Z</time>
      </trkpt>
      <trkpt lat="45.55021" lon="3.38116">
        <ele>507</ele>
        <time>2012-10-21T07:13:12.000Z</time>
      </trkpt>
      <trkpt lat="45.5501" lon="3.38117">
        <ele>505</ele>
        <time>2012-10-21T07:13:26.000Z</time>
      </trkpt>
      <trkpt lat="45.55005" lon="3.38128">
        <ele>503</ele>
        <time>2012-10-21T07:13:36.000Z</time>
      </trkpt>
      <trkpt lat="45.55004" lon="3.38143">
        <ele>503</ele>
        <time>2012-10-21T07:13:42.000Z</time>
      </trkpt>
      <trkpt lat="45.55007" lon="3.38147">
        <ele>508</ele>
        <time>2012-10-21T07:13:49.000Z</time>
      </trkpt>
      <trkpt lat="45.5501" lon="3.38148">
        <ele>506</ele>
        <time>2012-10-21T07:13:50.000Z</time>
      </trkpt>
      <trkpt lat="45.55008" lon="3.38151">
        <ele>504</ele>
        <time>2012-10-21T07:13:55.000Z</time>
      </trkpt>
      <trkpt lat="45.55006" lon="3.38153">
        <ele>505</ele>
        <time>2012-10-21T07:13:56.000Z</time>
      </trkpt>
      <trkpt lat="45.55002" lon="3.38155">
        <ele>506</ele>
        <time>2012-10-21T07:13:59.000Z</time>
      </trkpt>
      <trkpt lat="45.55" lon="3.38156">
        <ele>507</ele>
        <time>2012-10-21T07:14:01.000Z</time>
      </trkpt>
      <trkpt lat="45.54996" lon="3.38157">
        <ele>510</ele>
        <time>2012-10-21T07:14:02.000Z</time>
      </trkpt>
      <trkpt lat="45.54986" lon="3.38161">
        <ele>511</ele>
        <time>2012-10-21T07:14:07.000Z</time>
      </trkpt>
      <trkpt lat="45.54984" lon="3.38162">
        <ele>512</ele>
        <time>2012-10-21T07:14:13.000Z</time>
      </trkpt>
      <trkpt lat="45.54974" lon="3.38167">
        <ele>517</ele>
        <time>2012-10-21T07:14:14.000Z</time>
      </trkpt>
      <trkpt lat="45.54964" lon="3.3817">
        <ele>512</ele>
        <time>2012-10-21T07:14:19.000Z</time>
      </trkpt>
      <trkpt lat="45.5496" lon="3.38174">
        <ele>516</ele>
        <time>2012-10-21T07:15:12.000Z</time>
      </trkpt>
      <trkpt lat="45.54956" lon="3.38176">
        <ele>533</ele>
        <time>2012-10-21T07:15:29.000Z</time>
      </trkpt>
      <trkpt lat="45.54956" lon="3.38177">
        <ele>533</ele>
        <time>2012-10-21T07:15:30.000Z</time>
      </trkpt>
      <trkpt lat="45.54953" lon="3.3818">
        <ele>524</ele>
        <time>2012-10-21T07:15:46.000Z</time>
      </trkpt>
      <trkpt lat="45.54952" lon="3.38182">
        <ele>524</ele>
        <time>2012-10-21T07:15:47.000Z</time>
      </trkpt>
      <trkpt lat="45.5495" lon="3.38188">
        <ele>526</ele>
        <time>2012-10-21T07:15:54.000Z</time>
      </trkpt>
      <trkpt lat="45.5495" lon="3.38189">
        <ele>527</ele>
        <time>2012-10-21T07:15:55.000Z</time>
      </trkpt>
      <trkpt lat="45.54951" lon="3.38192">
        <ele>500</ele>
        <time>2012-10-21T07:16:13.000Z</time>
      </trkpt>
      <trkpt lat="45.54951" lon="3.38195">
        <ele>504</ele>
        <time>2012-10-21T07:16:14.000Z</time>
      </trkpt>
      <trkpt lat="45.54952" lon="3.382">
        <ele>506</ele>
        <time>2012-10-21T07:16:23.000Z</time>
      </trkpt>
      <trkpt lat="45.54953" lon="3.38202">
        <ele>507</ele>
        <time>2012-10-21T07:16:24.000Z</time>
      </trkpt>
      <trkpt lat="45.54956" lon="3.38204">
        <ele>516</ele>
        <time>2012-10-21T07:16:25.000Z</time>
      </trkpt>
      <trkpt lat="45.54958" lon="3.38207">
        <ele>513</ele>
        <time>2012-10-21T07:16:26.000Z</time>
      </trkpt>
      <trkpt lat="45.5496" lon="3.38211">
        <ele>511</ele>
        <time>2012-10-21T07:16:28.000Z</time>
      </trkpt>
      <trkpt lat="45.54962" lon="3.38213">
        <ele>510</ele>
        <time>2012-10-21T07:16:29.000Z</time>
      </trkpt>
      <trkpt lat="45.54964" lon="3.38218">
        <ele>511</ele>
        <time>2012-10-21T07:16:31.000Z</time>
      </trkpt>
      <trkpt lat="45.54965" lon="3.3822">
        <ele>514</ele>
        <time>2012-10-21T07:16:32.000Z</time>
      </trkpt>
      <trkpt lat="45.54966" lon="3.38223">
        <ele>513</ele>
        <time>2012-10-21T07:16:33.000Z</time>
      </trkpt>
      <trkpt lat="45.54968" lon="3.38226">
        <ele>514</ele>
        <time>2012-10-21T07:16:34.000Z</time>
      </trkpt>
      <trkpt lat="45.54971" lon="3.3823">
        <ele>515</ele>
        <time>2012-10-21T07:16:36.000Z</time>
      </trkpt>
      <trkpt lat="45.54972" lon="3.38233">
        <ele>513</ele>
        <time>2012-10-21T07:16:37.000Z</time>
      </trkpt>
      <trkpt lat="45.54976" lon="3.38237">
        <ele>517</ele>
        <time>2012-10-21T07:16:38.000Z</time>
      </trkpt>
      <trkpt lat="45.54979" lon="3.38241">
        <ele>522</ele>
        <time>2012-10-21T07:16:39.000Z</time>
      </trkpt>
      <trkpt lat="45.54982" lon="3.38245">
        <ele>518</ele>
        <time>2012-10-21T07:16:40.000Z</time>
      </trkpt>
      <trkpt lat="45.54986" lon="3.38249">
        <ele>514</ele>
        <time>2012-10-21T07:16:41.000Z</time>
      </trkpt>
      <trkpt lat="45.54989" lon="3.38252">
        <ele>519</ele>
        <time>2012-10-21T07:16:42.000Z</time>
      </trkpt>
      <trkpt lat="45.54992" lon="3.38256">
        <ele>517</ele>
        <time>2012-10-21T07:16:43.000Z</time>
      </trkpt>
      <trkpt lat="45.54995" lon="3.3826">
        <ele>515</ele>
        <time>2012-10-21T07:16:44.000Z</time>
      </trkpt>
      <trkpt lat="45.55" lon="3.38266">
        <ele>515</ele>
        <time>2012-10-21T07:16:45.000Z</time>
      </trkpt>
      <trkpt lat="45.55005" lon="3.38273">
        <ele>516</ele>
        <time>2012-10-21T07:16:46.000Z</time>
      </trkpt>
      <trkpt lat="45.55009" lon="3.38279">
        <ele>514</ele>
        <time>2012-10-21T07:16:47.000Z</time>
      </trkpt>
      <trkpt lat="45.55014" lon="3.38284">
        <ele>510</ele>
        <time>2012-10-21T07:16:48.000Z</time>
      </trkpt>
      <trkpt lat="45.55019" lon="3.38292">
        <ele>510</ele>
        <time>2012-10-21T07:16:49.000Z</time>
      </trkpt>
      <trkpt lat="45.55024" lon="3.38297">
        <ele>511</ele>
        <time>2012-10-21T07:16:50.000Z</time>
      </trkpt>
      <trkpt lat="45.55028" lon="3.38301">
        <ele>513</ele>
        <time>2012-10-21T07:16:51.000Z</time>
      </trkpt>
      <trkpt lat="45.55033" lon="3.38304">
        <ele>518</ele>
        <time>2012-10-21T07:16:52.000Z</time>
      </trkpt>
      <trkpt lat="45.55039" lon="3.3831">
        <ele>517</ele>
        <time>2012-10-21T07:16:53.000Z</time>
      </trkpt>
      <trkpt lat="45.55044" lon="3.38315">
        <ele>517</ele>
        <time>2012-10-21T07:16:54.000Z</time>
      </trkpt>
      <trkpt lat="45.55049" lon="3.38322">
        <ele>513</ele>
        <time>2012-10-21T07:16:55.000Z</time>
      </trkpt>
      <trkpt lat="45.55054" lon="3.38328">
        <ele>515</ele>
        <time>2012-10-21T07:16:56.000Z</time>
      </trkpt>
      <trkpt lat="45.55058" lon="3.38333">
        <ele>515</ele>
        <time>2012-10-21T07:16:57.000Z</time>
      </trkpt>
      <trkpt lat="45.55062" lon="3.38339">
        <ele>515</ele>
        <time>2012-10-21T07:16:58.000Z</time>
      </trkpt>
      <trkpt lat="45.55065" lon="3.38345">
        <ele>514</ele>
        <time>2012-10-21T07:16:59.000Z</time>
      </trkpt>
      <trkpt lat="45.55069" lon="3.3835">
        <ele>511</ele>
        <time>2012-10-21T07:17:00.000Z</time>
      </trkpt>
      <trkpt lat="45.55072" lon="3.38356">
        <ele>509</ele>
        <time>2012-10-21T07:17:01.000Z</time>
      </trkpt>
      <trkpt lat="45.55076" lon="3.38359">
        <ele>509</ele>
        <time>2012-10-21T07:17:02.000Z</time>
      </trkpt>
      <trkpt lat="45.55079" lon="3.38363">
        <ele>504</ele>
        <time>2012-10-21T07:17:03.000Z</time>
      </trkpt>
      <trkpt lat="45.55081" lon="3.38366">
        <ele>503</ele>
        <time>2012-10-21T07:17:04.000Z</time>
      </trkpt>
      <trkpt lat="45.55083" lon="3.38371">
        <ele>505</ele>
        <time>2012-10-21T07:17:05.000Z</time>
      </trkpt>
      <trkpt lat="45.55084" lon="3.38374">
        <ele>507</ele>
        <time>2012-10-21T07:17:06.000Z</time>
      </trkpt>
      <trkpt lat="45.55085" lon="3.38377">
        <ele>511</ele>
        <time>2012-10-21T07:17:07.000Z</time>
      </trkpt>
      <trkpt lat="45.55087" lon="3.38381">
        <ele>508</ele>
        <time>2012-10-21T07:17:08.000Z</time>
      </trkpt>
      <trkpt lat="45.5509" lon="3.38385">
        <ele>506</ele>
        <time>2012-10-21T07:17:09.000Z</time>
      </trkpt>
      <trkpt lat="45.55091" lon="3.38389">
        <ele>506</ele>
        <time>2012-10-21T07:17:10.000Z</time>
      </trkpt>
      <trkpt lat="45.55092" lon="3.38394">
        <ele>502</ele>
        <time>2012-10-21T07:17:12.000Z</time>
      </trkpt>
      <trkpt lat="45.55091" lon="3.38397">
        <ele>505</ele>
        <time>2012-10-21T07:17:13.000Z</time>
      </trkpt>
      <trkpt lat="45.55089" lon="3.38398">
        <ele>506</ele>
        <time>2012-10-21T07:17:14.000Z</time>
      </trkpt>
      <trkpt lat="45.55087" lon="3.384">
        <ele>513</ele>
        <time>2012-10-21T07:17:15.000Z</time>
      </trkpt>
      <trkpt lat="45.55086" lon="3.38405">
        <ele>516</ele>
        <time>2012-10-21T07:17:17.000Z</time>
      </trkpt>
      <trkpt lat="45.55086" lon="3.38408">
        <ele>516</ele>
        <time>2012-10-21T07:17:18.000Z</time>
      </trkpt>
      <trkpt lat="45.55088" lon="3.38412">
        <ele>518</ele>
        <time>2012-10-21T07:17:19.000Z</time>
      </trkpt>
      <trkpt lat="45.55091" lon="3.38416">
        <ele>514</ele>
        <time>2012-10-21T07:17:20.000Z</time>
      </trkpt>
      <trkpt lat="45.55094" lon="3.38419">
        <ele>513</ele>
        <time>2012-10-21T07:17:21.000Z</time>
      </trkpt>
      <trkpt lat="45.55097" lon="3.38423">
        <ele>512</ele>
        <time>2012-10-21T07:17:22.000Z</time>
      </trkpt>
      <trkpt lat="45.55099" lon="3.38427">
        <ele>506</ele>
        <time>2012-10-21T07:17:23.000Z</time>
      </trkpt>
      <trkpt lat="45.55102" lon="3.38431">
        <ele>506</ele>
        <time>2012-10-21T07:17:24.000Z</time>
      </trkpt>
      <trkpt lat="45.55104" lon="3.38434">
        <ele>506</ele>
        <time>2012-10-21T07:17:25.000Z</time>
      </trkpt>
      <trkpt lat="45.55106" lon="3.38437">
        <ele>504</ele>
        <time>2012-10-21T07:17:26.000Z</time>
      </trkpt>
      <trkpt lat="45.55109" lon="3.38441">
        <ele>504</ele>
        <time>2012-10-21T07:17:27.000Z</time>
      </trkpt>
      <trkpt lat="45.55112" lon="3.38444">
        <ele>500</ele>
        <time>2012-10-21T07:17:28.000Z</time>
      </trkpt>
      <trkpt lat="45.55113" lon="3.38447">
        <ele>502</ele>
        <time>2012-10-21T07:17:29.000Z</time>
      </trkpt>
      <trkpt lat="45.55115" lon="3.3845">
        <ele>504</ele>
        <time>2012-10-21T07:17:30.000Z</time>
      </trkpt>
      <trkpt lat="45.55116" lon="3.38456">
        <ele>506</ele>
        <time>2012-10-21T07:17:32.000Z</time>
      </trkpt>
      <trkpt lat="45.55116" lon="3.38459">
        <ele>507</ele>
        <time>2012-10-21T07:17:33.000Z</time>
      </trkpt>
      <trkpt lat="45.55114" lon="3.38463">
        <ele>512</ele>
        <time>2012-10-21T07:17:35.000Z</time>
      </trkpt>
      <trkpt lat="45.55114" lon="3.38465">
        <ele>514</ele>
        <time>2012-10-21T07:17:36.000Z</time>
      </trkpt>
      <trkpt lat="45.55111" lon="3.3847">
        <ele>515</ele>
        <time>2012-10-21T07:17:38.000Z</time>
      </trkpt>
      <trkpt lat="45.5511" lon="3.38472">
        <ele>514</ele>
        <time>2012-10-21T07:17:39.000Z</time>
      </trkpt>
      <trkpt lat="45.55107" lon="3.38477">
        <ele>507</ele>
        <time>2012-10-21T07:17:41.000Z</time>
      </trkpt>
      <trkpt lat="45.55106" lon="3.3848">
        <ele>507</ele>
        <time>2012-10-21T07:17:42.000Z</time>
      </trkpt>
      <trkpt lat="45.55104" lon="3.38485">
        <ele>511</ele>
        <time>2012-10-21T07:17:44.000Z</time>
      </trkpt>
      <trkpt lat="45.55103" lon="3.38487">
        <ele>514</ele>
        <time>2012-10-21T07:17:45.000Z</time>
      </trkpt>
      <trkpt lat="45.55101" lon="3.3849">
        <ele>511</ele>
        <time>2012-10-21T07:17:47.000Z</time>
      </trkpt>
      <trkpt lat="45.551" lon="3.38493">
        <ele>510</ele>
        <time>2012-10-21T07:17:48.000Z</time>
      </trkpt>
      <trkpt lat="45.55098" lon="3.38497">
        <ele>514</ele>
        <time>2012-10-21T07:17:50.000Z</time>
      </trkpt>
      <trkpt lat="45.55097" lon="3.38499">
        <ele>513</ele>
        <time>2012-10-21T07:17:51.000Z</time>
      </trkpt>
      <trkpt lat="45.55095" lon="3.38503">
        <ele>513</ele>
        <time>2012-10-21T07:17:53.000Z</time>
      </trkpt>
      <trkpt lat="45.55095" lon="3.38504">
        <ele>511</ele>
        <time>2012-10-21T07:17:54.000Z</time>
      </trkpt>
      <trkpt lat="45.55094" lon="3.38508">
        <ele>515</ele>
        <time>2012-10-21T07:17:56.000Z</time>
      </trkpt>
      <trkpt lat="45.55093" lon="3.38511">
        <ele>511</ele>
        <time>2012-10-21T07:17:57.000Z</time>
      </trkpt>
      <trkpt lat="45.55091" lon="3.38516">
        <ele>511</ele>
        <time>2012-10-21T07:18:01.000Z</time>
      </trkpt>
      <trkpt lat="45.55091" lon="3.38518">
        <ele>515</ele>
        <time>2012-10-21T07:18:02.000Z</time>
      </trkpt>
      <trkpt lat="45.5509" lon="3.38523">
        <ele>524</ele>
        <time>2012-10-21T07:18:05.000Z</time>
      </trkpt>
      <trkpt lat="45.5509" lon="3.38525">
        <ele>521</ele>
        <time>2012-10-21T07:18:06.000Z</time>
      </trkpt>
      <trkpt lat="45.5509" lon="3.3853">
        <ele>521</ele>
        <time>2012-10-21T07:18:08.000Z</time>
      </trkpt>
      <trkpt lat="45.55089" lon="3.38533">
        <ele>519</ele>
        <time>2012-10-21T07:18:09.000Z</time>
      </trkpt>
      <trkpt lat="45.55089" lon="3.38539">
        <ele>523</ele>
        <time>2012-10-21T07:18:11.000Z</time>
      </trkpt>
      <trkpt lat="45.55089" lon="3.38542">
        <ele>525</ele>
        <time>2012-10-21T07:18:12.000Z</time>
      </trkpt>
      <trkpt lat="45.55089" lon="3.38547">
        <ele>519</ele>
        <time>2012-10-21T07:18:14.000Z</time>
      </trkpt>
      <trkpt lat="45.55089" lon="3.38551">
        <ele>518</ele>
        <time>2012-10-21T07:18:15.000Z</time>
      </trkpt>
      <trkpt lat="45.55089" lon="3.38556">
        <ele>522</ele>
        <time>2012-10-21T07:18:17.000Z</time>
      </trkpt>
      <trkpt lat="45.55088" lon="3.38558">
        <ele>518</ele>
        <time>2012-10-21T07:18:18.000Z</time>
      </trkpt>
      <trkpt lat="45.55087" lon="3.38564">
        <ele>521</ele>
        <time>2012-10-21T07:18:21.000Z</time>
      </trkpt>
      <trkpt lat="45.55086" lon="3.38566">
        <ele>522</ele>
        <time>2012-10-21T07:18:22.000Z</time>
      </trkpt>
      <trkpt lat="45.55086" lon="3.3857">
        <ele>522</ele>
        <time>2012-10-21T07:18:27.000Z</time>
      </trkpt>
      <trkpt lat="45.55086" lon="3.38572">
        <ele>522</ele>
        <time>2012-10-21T07:18:28.000Z</time>
      </trkpt>
      <trkpt lat="45.55084" lon="3.38578">
        <ele>523</ele>
        <time>2012-10-21T07:18:31.000Z</time>
      </trkpt>
      <trkpt lat="45.55084" lon="3.38579">
        <ele>526</ele>
        <time>2012-10-21T07:18:32.000Z</time>
      </trkpt>
      <trkpt lat="45.55082" lon="3.38584">
        <ele>527</ele>
        <time>2012-10-21T07:18:35.000Z</time>
      </trkpt>
      <trkpt lat="45.55082" lon="3.38586">
        <ele>529</ele>
        <time>2012-10-21T07:18:36.000Z</time>
      </trkpt>
      <trkpt lat="45.55081" lon="3.38591">
        <ele>524</ele>
        <time>2012-10-21T07:18:39.000Z</time>
      </trkpt>
      <trkpt lat="45.5508" lon="3.38593">
        <ele>521</ele>
        <time>2012-10-21T07:18:40.000Z</time>
      </trkpt>
      <trkpt lat="45.55079" lon="3.38598">
        <ele>519</ele>
        <time>2012-10-21T07:18:44.000Z</time>
      </trkpt>
      <trkpt lat="45.55078" lon="3.386">
        <ele>517</ele>
        <time>2012-10-21T07:18:45.000Z</time>
      </trkpt>
      <trkpt lat="45.55078" lon="3.38605">
        <ele>520</ele>
        <time>2012-10-21T07:18:48.000Z</time>
      </trkpt>
      <trkpt lat="45.55077" lon="3.38607">
        <ele>522</ele>
        <time>2012-10-21T07:18:49.000Z</time>
      </trkpt>
      <trkpt lat="45.55076" lon="3.38612">
        <ele>517</ele>
        <time>2012-10-21T07:18:52.000Z</time>
      </trkpt>
      <trkpt lat="45.55076" lon="3.38614">
        <ele>520</ele>
        <time>2012-10-21T07:18:53.000Z</time>
      </trkpt>
      <trkpt lat="45.55076" lon="3.3862">
        <ele>533</ele>
        <time>2012-10-21T07:18:57.000Z</time>
      </trkpt>
      <trkpt lat="45.55076" lon="3.38621">
        <ele>531</ele>
        <time>2012-10-21T07:18:58.000Z</time>
      </trkpt>
      <trkpt lat="45.55075" lon="3.38626">
        <ele>536</ele>
        <time>2012-10-21T07:19:03.000Z</time>
      </trkpt>
      <trkpt lat="45.55076" lon="3.38629">
        <ele>538</ele>
        <time>2012-10-21T07:19:04.000Z</time>
      </trkpt>
      <trkpt lat="45.55075" lon="3.38633">
        <ele>536</ele>
        <time>2012-10-21T07:19:07.000Z</time>
      </trkpt>
      <trkpt lat="45.55075" lon="3.38635">
        <ele>537</ele>
        <time>2012-10-21T07:19:08.000Z</time>
      </trkpt>
      <trkpt lat="45.55074" lon="3.3864">
        <ele>539</ele>
        <time>2012-10-21T07:19:11.000Z</time>
      </trkpt>
      <trkpt lat="45.55074" lon="3.38642">
        <ele>540</ele>
        <time>2012-10-21T07:19:12.000Z</time>
      </trkpt>
      <trkpt lat="45.55074" lon="3.38647">
        <ele>544</ele>
        <time>2012-10-21T07:19:15.000Z</time>
      </trkpt>
      <trkpt lat="45.55074" lon="3.38649">
        <ele>540</ele>
        <time>2012-10-21T07:19:16.000Z</time>
      </trkpt>
      <trkpt lat="45.55074" lon="3.38653">
        <ele>545</ele>
        <time>2012-10-21T07:19:19.000Z</time>
      </trkpt>
      <trkpt lat="45.55073" lon="3.38655">
        <ele>549</ele>
        <time>2012-10-21T07:19:20.000Z</time>
      </trkpt>
      <trkpt lat="45.55071" lon="3.38659">
        <ele>546</ele>
        <time>2012-10-21T07:19:22.000Z</time>
      </trkpt>
      <trkpt lat="45.5507" lon="3.38661">
        <ele>547</ele>
        <time>2012-10-21T07:19:23.000Z</time>
      </trkpt>
      <trkpt lat="45.55068" lon="3.38666">
        <ele>549</ele>
        <time>2012-10-21T07:19:26.000Z</time>
      </trkpt>
      <trkpt lat="45.55068" lon="3.38668">
        <ele>549</ele>
        <time>2012-10-21T07:19:27.000Z</time>
      </trkpt>
      <trkpt lat="45.55066" lon="3.38673">
        <ele>551</ele>
        <time>2012-10-21T07:19:30.000Z</time>
      </trkpt>
      <trkpt lat="45.55065" lon="3.38674">
        <ele>549</ele>
        <time>2012-10-21T07:19:31.000Z</time>
      </trkpt>
      <trkpt lat="45.55063" lon="3.38678">
        <ele>545</ele>
        <time>2012-10-21T07:19:33.000Z</time>
      </trkpt>
      <trkpt lat="45.55063" lon="3.3868">
        <ele>541</ele>
        <time>2012-10-21T07:19:34.000Z</time>
      </trkpt>
      <trkpt lat="45.55061" lon="3.38684">
        <ele>544</ele>
        <time>2012-10-21T07:19:36.000Z</time>
      </trkpt>
      <trkpt lat="45.55061" lon="3.38687">
        <ele>549</ele>
        <time>2012-10-21T07:19:37.000Z</time>
      </trkpt>
      <trkpt lat="45.55059" lon="3.38692">
        <ele>551</ele>
        <time>2012-10-21T07:19:39.000Z</time>
      </trkpt>
      <trkpt lat="45.55058" lon="3.38694">
        <ele>554</ele>
        <time>2012-10-21T07:19:40.000Z</time>
      </trkpt>
      <trkpt lat="45.55057" lon="3.38699">
        <ele>555</ele>
        <time>2012-10-21T07:19:42.000Z</time>
      </trkpt>
      <trkpt lat="45.55057" lon="3.38702">
        <ele>551</ele>
        <time>2012-10-21T07:19:43.000Z</time>
      </trkpt>
      <trkpt lat="45.55058" lon="3.38706">
        <ele>552</ele>
        <time>2012-10-21T07:19:45.000Z</time>
      </trkpt>
      <trkpt lat="45.55058" lon="3.38708">
        <ele>548</ele>
        <time>2012-10-21T07:19:46.000Z</time>
      </trkpt>
      <trkpt lat="45.55057" lon="3.38713">
        <ele>547</ele>
        <time>2012-10-21T07:19:49.000Z</time>
      </trkpt>
      <trkpt lat="45.55057" lon="3.38715">
        <ele>549</ele>
        <time>2012-10-21T07:19:50.000Z</time>
      </trkpt>
      <trkpt lat="45.55057" lon="3.3872">
        <ele>548</ele>
        <time>2012-10-21T07:19:53.000Z</time>
      </trkpt>
      <trkpt lat="45.55058" lon="3.38721">
        <ele>546</ele>
        <time>2012-10-21T07:19:54.000Z</time>
      </trkpt>
      <trkpt lat="45.5506" lon="3.38727">
        <ele>543</ele>
        <time>2012-10-21T07:19:57.000Z</time>
      </trkpt>
      <trkpt lat="45.5506" lon="3.3873">
        <ele>542</ele>
        <time>2012-10-21T07:19:58.000Z</time>
      </trkpt>
      <trkpt lat="45.55059" lon="3.38736">
        <ele>546</ele>
        <time>2012-10-21T07:20:00.000Z</time>
      </trkpt>
      <trkpt lat="45.55058" lon="3.38738">
        <ele>549</ele>
        <time>2012-10-21T07:20:01.000Z</time>
      </trkpt>
      <trkpt lat="45.55057" lon="3.38744">
        <ele>552</ele>
        <time>2012-10-21T07:20:04.000Z</time>
      </trkpt>
      <trkpt lat="45.55057" lon="3.38745">
        <ele>551</ele>
        <time>2012-10-21T07:20:05.000Z</time>
      </trkpt>
      <trkpt lat="45.55058" lon="3.3875">
        <ele>552</ele>
        <time>2012-10-21T07:20:07.000Z</time>
      </trkpt>
      <trkpt lat="45.55059" lon="3.38752">
        <ele>551</ele>
        <time>2012-10-21T07:20:08.000Z</time>
      </trkpt>
      <trkpt lat="45.5506" lon="3.38757">
        <ele>554</ele>
        <time>2012-10-21T07:20:11.000Z</time>
      </trkpt>
      <trkpt lat="45.5506" lon="3.38758">
        <ele>553</ele>
        <time>2012-10-21T07:20:12.000Z</time>
      </trkpt>
      <trkpt lat="45.55059" lon="3.38762">
        <ele>552</ele>
        <time>2012-10-21T07:20:14.000Z</time>
      </trkpt>
      <trkpt lat="45.55058" lon="3.38764">
        <ele>558</ele>
        <time>2012-10-21T07:20:15.000Z</time>
      </trkpt>
      <trkpt lat="45.55058" lon="3.3877">
        <ele>561</ele>
        <time>2012-10-21T07:20:17.000Z</time>
      </trkpt>
      <trkpt lat="45.55058" lon="3.38772">
        <ele>562</ele>
        <time>2012-10-21T07:20:18.000Z</time>
      </trkpt>
      <trkpt lat="45.55057" lon="3.38777">
        <ele>562</ele>
        <time>2012-10-21T07:20:21.000Z</time>
      </trkpt>
      <trkpt lat="45.55057" lon="3.38779">
        <ele>563</ele>
        <time>2012-10-21T07:20:22.000Z</time>
      </trkpt>
      <trkpt lat="45.55057" lon="3.38784">
        <ele>564</ele>
        <time>2012-10-21T07:20:25.000Z</time>
      </trkpt>
      <trkpt lat="45.55057" lon="3.38786">
        <ele>560</ele>
        <time>2012-10-21T07:20:26.000Z</time>
      </trkpt>
      <trkpt lat="45.55056" lon="3.38791">
        <ele>563</ele>
        <time>2012-10-21T07:20:29.000Z</time>
      </trkpt>
      <trkpt lat="45.55056" lon="3.38793">
        <ele>567</ele>
        <time>2012-10-21T07:20:30.000Z</time>
      </trkpt>
      <trkpt lat="45.55055" lon="3.38798">
        <ele>568</ele>
        <time>2012-10-21T07:20:33.000Z</time>
      </trkpt>
      <trkpt lat="45.55055" lon="3.388">
        <ele>568</ele>
        <time>2012-10-21T07:20:34.000Z</time>
      </trkpt>
      <trkpt lat="45.55055" lon="3.38805">
        <ele>565</ele>
        <time>2012-10-21T07:20:37.000Z</time>
      </trkpt>
      <trkpt lat="45.55054" lon="3.38806">
        <ele>567</ele>
        <time>2012-10-21T07:20:38.000Z</time>
      </trkpt>
      <trkpt lat="45.55054" lon="3.38811">
        <ele>564</ele>
        <time>2012-10-21T07:20:41.000Z</time>
      </trkpt>
      <trkpt lat="45.55055" lon="3.38814">
        <ele>565</ele>
        <time>2012-10-21T07:20:42.000Z</time>
      </trkpt>
      <trkpt lat="45.55055" lon="3.38819">
        <ele>563</ele>
        <time>2012-10-21T07:20:44.000Z</time>
      </trkpt>
      <trkpt lat="45.55054" lon="3.38822">
        <ele>563</ele>
        <time>2012-10-21T07:20:45.000Z</time>
      </trkpt>
      <trkpt lat="45.55053" lon="3.38827">
        <ele>567</ele>
        <time>2012-10-21T07:20:47.000Z</time>
      </trkpt>
      <trkpt lat="45.55053" lon="3.3883">
        <ele>568</ele>
        <time>2012-10-21T07:20:48.000Z</time>
      </trkpt>
      <trkpt lat="45.55053" lon="3.38835">
        <ele>564</ele>
        <time>2012-10-21T07:20:51.000Z</time>
      </trkpt>
      <trkpt lat="45.55053" lon="3.38837">
        <ele>566</ele>
        <time>2012-10-21T07:20:52.000Z</time>
      </trkpt>
      <trkpt lat="45.55053" lon="3.38843">
        <ele>569</ele>
        <time>2012-10-21T07:20:55.000Z</time>
      </trkpt>
      <trkpt lat="45.55053" lon="3.38845">
        <ele>570</ele>
        <time>2012-10-21T07:20:56.000Z</time>
      </trkpt>
      <trkpt lat="45.55053" lon="3.38851">
        <ele>565</ele>
        <time>2012-10-21T07:21:00.000Z</time>
      </trkpt>
      <trkpt lat="45.55053" lon="3.38852">
        <ele>567</ele>
        <time>2012-10-21T07:21:01.000Z</time>
      </trkpt>
      <trkpt lat="45.55052" lon="3.38857">
        <ele>567</ele>
        <time>2012-10-21T07:21:03.000Z</time>
      </trkpt>
      <trkpt lat="45.55052" lon="3.3886">
        <ele>568</ele>
        <time>2012-10-21T07:21:04.000Z</time>
      </trkpt>
      <trkpt lat="45.55052" lon="3.38866">
        <ele>571</ele>
        <time>2012-10-21T07:21:07.000Z</time>
      </trkpt>
      <trkpt lat="45.55052" lon="3.38868">
        <ele>570</ele>
        <time>2012-10-21T07:21:08.000Z</time>
      </trkpt>
      <trkpt lat="45.55051" lon="3.38874">
        <ele>575</ele>
        <time>2012-10-21T07:21:12.000Z</time>
      </trkpt>
      <trkpt lat="45.55051" lon="3.38876">
        <ele>578</ele>
        <time>2012-10-21T07:21:13.000Z</time>
      </trkpt>
      <trkpt lat="45.5505" lon="3.38882">
        <ele>579</ele>
        <time>2012-10-21T07:21:16.000Z</time>
      </trkpt>
      <trkpt lat="45.55049" lon="3.38885">
        <ele>578</ele>
        <time>2012-10-21T07:21:17.000Z</time>
      </trkpt>
      <trkpt lat="45.55047" lon="3.3889">
        <ele>577</ele>
        <time>2012-10-21T07:21:20.000Z</time>
      </trkpt>
      <trkpt lat="45.55047" lon="3.38891">
        <ele>575</ele>
        <time>2012-10-21T07:21:21.000Z</time>
      </trkpt>
      <trkpt lat="45.55047" lon="3.38896">
        <ele>576</ele>
        <time>2012-10-21T07:21:24.000Z</time>
      </trkpt>
      <trkpt lat="45.55046" lon="3.38898">
        <ele>574</ele>
        <time>2012-10-21T07:21:25.000Z</time>
      </trkpt>
      <trkpt lat="45.55045" lon="3.38903">
        <ele>576</ele>
        <time>2012-10-21T07:21:28.000Z</time>
      </trkpt>
      <trkpt lat="45.55044" lon="3.38905">
        <ele>580</ele>
        <time>2012-10-21T07:21:29.000Z</time>
      </trkpt>
      <trkpt lat="45.55043" lon="3.3891">
        <ele>581</ele>
        <time>2012-10-21T07:21:32.000Z</time>
      </trkpt>
      <trkpt lat="45.55043" lon="3.38911">
        <ele>581</ele>
        <time>2012-10-21T07:21:33.000Z</time>
      </trkpt>
      <trkpt lat="45.55041" lon="3.38916">
        <ele>571</ele>
        <time>2012-10-21T07:21:37.000Z</time>
      </trkpt>
      <trkpt lat="45.55041" lon="3.38919">
        <ele>573</ele>
        <time>2012-10-21T07:21:38.000Z</time>
      </trkpt>
      <trkpt lat="45.55039" lon="3.38923">
        <ele>569</ele>
        <time>2012-10-21T07:21:40.000Z</time>
      </trkpt>
      <trkpt lat="45.55037" lon="3.38925">
        <ele>573</ele>
        <time>2012-10-21T07:21:41.000Z</time>
      </trkpt>
      <trkpt lat="45.55036" lon="3.38928">
        <ele>574</ele>
        <time>2012-10-21T07:21:43.000Z</time>
      </trkpt>
      <trkpt lat="45.55035" lon="3.3893">
        <ele>573</ele>
        <time>2012-10-21T07:21:44.000Z</time>
      </trkpt>
      <trkpt lat="45.55033" lon="3.38935">
        <ele>572</ele>
        <time>2012-10-21T07:21:47.000Z</time>
      </trkpt>
      <trkpt lat="45.55033" lon="3.38936">
        <ele>576</ele>
        <time>2012-10-21T07:21:48.000Z</time>
      </trkpt>
      <trkpt lat="45.55031" lon="3.38942">
        <ele>574</ele>
        <time>2012-10-21T07:21:51.000Z</time>
      </trkpt>
      <trkpt lat="45.55031" lon="3.38944">
        <ele>576</ele>
        <time>2012-10-21T07:21:52.000Z</time>
      </trkpt>
      <trkpt lat="45.55029" lon="3.3895">
        <ele>574</ele>
        <time>2012-10-21T07:21:55.000Z</time>
      </trkpt>
      <trkpt lat="45.55029" lon="3.38951">
        <ele>578</ele>
        <time>2012-10-21T07:21:56.000Z</time>
      </trkpt>
      <trkpt lat="45.5503" lon="3.38957">
        <ele>579</ele>
        <time>2012-10-21T07:22:02.000Z</time>
      </trkpt>
      <trkpt lat="45.5503" lon="3.38959">
        <ele>580</ele>
        <time>2012-10-21T07:22:03.000Z</time>
      </trkpt>
      <trkpt lat="45.55029" lon="3.38965">
        <ele>587</ele>
        <time>2012-10-21T07:22:06.000Z</time>
      </trkpt>
      <trkpt lat="45.55029" lon="3.38966">
        <ele>592</ele>
        <time>2012-10-21T07:22:07.000Z</time>
      </trkpt>
      <trkpt lat="45.55028" lon="3.38972">
        <ele>584</ele>
        <time>2012-10-21T07:22:10.000Z</time>
      </trkpt>
      <trkpt lat="45.55027" lon="3.38974">
        <ele>585</ele>
        <time>2012-10-21T07:22:11.000Z</time>
      </trkpt>
      <trkpt lat="45.55026" lon="3.38978">
        <ele>584</ele>
        <time>2012-10-21T07:22:13.000Z</time>
      </trkpt>
      <trkpt lat="45.55025" lon="3.38981">
        <ele>587</ele>
        <time>2012-10-21T07:22:14.000Z</time>
      </trkpt>
      <trkpt lat="45.55023" lon="3.38986">
        <ele>587</ele>
        <time>2012-10-21T07:22:16.000Z</time>
      </trkpt>
      <trkpt lat="45.55022" lon="3.38988">
        <ele>588</ele>
        <time>2012-10-21T07:22:17.000Z</time>
      </trkpt>
      <trkpt lat="45.55021" lon="3.38993">
        <ele>591</ele>
        <time>2012-10-21T07:22:19.000Z</time>
      </trkpt>
      <trkpt lat="45.55021" lon="3.38996">
        <ele>590</ele>
        <time>2012-10-21T07:22:20.000Z</time>
      </trkpt>
      <trkpt lat="45.5502" lon="3.39">
        <ele>596</ele>
        <time>2012-10-21T07:22:22.000Z</time>
      </trkpt>
      <trkpt lat="45.5502" lon="3.39002">
        <ele>593</ele>
        <time>2012-10-21T07:22:23.000Z</time>
      </trkpt>
      <trkpt lat="45.55018" lon="3.39006">
        <ele>590</ele>
        <time>2012-10-21T07:22:27.000Z</time>
      </trkpt>
      <trkpt lat="45.55017" lon="3.39008">
        <ele>585</ele>
        <time>2012-10-21T07:22:28.000Z</time>
      </trkpt>
      <trkpt lat="45.55016" lon="3.39013">
        <ele>583</ele>
        <time>2012-10-21T07:22:31.000Z</time>
      </trkpt>
      <trkpt lat="45.55016" lon="3.39015">
        <ele>585</ele>
        <time>2012-10-21T07:22:32.000Z</time>
      </trkpt>
      <trkpt lat="45.55016" lon="3.3902">
        <ele>594</ele>
        <time>2012-10-21T07:22:37.000Z</time>
      </trkpt>
      <trkpt lat="45.55015" lon="3.39022">
        <ele>596</ele>
        <time>2012-10-21T07:22:38.000Z</time>
      </trkpt>
      <trkpt lat="45.55016" lon="3.39028">
        <ele>603</ele>
        <time>2012-10-21T07:22:43.000Z</time>
      </trkpt>
      <trkpt lat="45.55015" lon="3.3903">
        <ele>602</ele>
        <time>2012-10-21T07:22:44.000Z</time>
      </trkpt>
      <trkpt lat="45.55014" lon="3.39033">
        <ele>599</ele>
        <time>2012-10-21T07:22:45.000Z</time>
      </trkpt>
      <trkpt lat="45.55012" lon="3.39036">
        <ele>598</ele>
        <time>2012-10-21T07:22:46.000Z</time>
      </trkpt>
      <trkpt lat="45.55011" lon="3.39039">
        <ele>597</ele>
        <time>2012-10-21T07:22:47.000Z</time>
      </trkpt>
      <trkpt lat="45.5501" lon="3.39043">
        <ele>600</ele>
        <time>2012-10-21T07:22:48.000Z</time>
      </trkpt>
      <trkpt lat="45.55008" lon="3.39049">
        <ele>595</ele>
        <time>2012-10-21T07:22:50.000Z</time>
      </trkpt>
      <trkpt lat="45.55008" lon="3.39051">
        <ele>597</ele>
        <time>2012-10-21T07:22:51.000Z</time>
      </trkpt>
      <trkpt lat="45.55007" lon="3.39056">
        <ele>603</ele>
        <time>2012-10-21T07:22:54.000Z</time>
      </trkpt>
      <trkpt lat="45.55007" lon="3.39058">
        <ele>598</ele>
        <time>2012-10-21T07:22:55.000Z</time>
      </trkpt>
      <trkpt lat="45.55006" lon="3.39063">
        <ele>596</ele>
        <time>2012-10-21T07:22:58.000Z</time>
      </trkpt>
      <trkpt lat="45.55006" lon="3.39064">
        <ele>600</ele>
        <time>2012-10-21T07:22:59.000Z</time>
      </trkpt>
      <trkpt lat="45.55006" lon="3.3907">
        <ele>606</ele>
        <time>2012-10-21T07:23:03.000Z</time>
      </trkpt>
      <trkpt lat="45.55006" lon="3.39071">
        <ele>600</ele>
        <time>2012-10-21T07:23:04.000Z</time>
      </trkpt>
      <trkpt lat="45.55005" lon="3.39076">
        <ele>609</ele>
        <time>2012-10-21T07:23:10.000Z</time>
      </trkpt>
      <trkpt lat="45.55005" lon="3.39078">
        <ele>611</ele>
        <time>2012-10-21T07:23:11.000Z</time>
      </trkpt>
      <trkpt lat="45.55003" lon="3.39082">
        <ele>610</ele>
        <time>2012-10-21T07:23:13.000Z</time>
      </trkpt>
      <trkpt lat="45.55003" lon="3.39085">
        <ele>610</ele>
        <time>2012-10-21T07:23:14.000Z</time>
      </trkpt>
      <trkpt lat="45.55003" lon="3.39091">
        <ele>606</ele>
        <time>2012-10-21T07:23:17.000Z</time>
      </trkpt>
      <trkpt lat="45.55003" lon="3.39095">
        <ele>605</ele>
        <time>2012-10-21T07:23:18.000Z</time>
      </trkpt>
      <trkpt lat="45.55003" lon="3.39099">
        <ele>605</ele>
        <time>2012-10-21T07:23:19.000Z</time>
      </trkpt>
      <trkpt lat="45.55002" lon="3.39101">
        <ele>606</ele>
        <time>2012-10-21T07:23:20.000Z</time>
      </trkpt>
      <trkpt lat="45.55002" lon="3.39106">
        <ele>606</ele>
        <time>2012-10-21T07:23:22.000Z</time>
      </trkpt>
      <trkpt lat="45.55002" lon="3.39108">
        <ele>607</ele>
        <time>2012-10-21T07:23:23.000Z</time>
      </trkpt>
      <trkpt lat="45.55001" lon="3.39113">
        <ele>607</ele>
        <time>2012-10-21T07:23:25.000Z</time>
      </trkpt>
      <trkpt lat="45.55001" lon="3.39116">
        <ele>608</ele>
        <time>2012-10-21T07:23:26.000Z</time>
      </trkpt>
      <trkpt lat="45.55001" lon="3.39122">
        <ele>609</ele>
        <time>2012-10-21T07:23:29.000Z</time>
      </trkpt>
      <trkpt lat="45.55" lon="3.39123">
        <ele>605</ele>
        <time>2012-10-21T07:23:30.000Z</time>
      </trkpt>
      <trkpt lat="45.55001" lon="3.39128">
        <ele>611</ele>
        <time>2012-10-21T07:23:33.000Z</time>
      </trkpt>
      <trkpt lat="45.55001" lon="3.3913">
        <ele>606</ele>
        <time>2012-10-21T07:23:34.000Z</time>
      </trkpt>
      <trkpt lat="45.55001" lon="3.39135">
        <ele>606</ele>
        <time>2012-10-21T07:23:37.000Z</time>
      </trkpt>
      <trkpt lat="45.55002" lon="3.39137">
        <ele>608</ele>
        <time>2012-10-21T07:23:38.000Z</time>
      </trkpt>
      <trkpt lat="45.55002" lon="3.39142">
        <ele>611</ele>
        <time>2012-10-21T07:23:40.000Z</time>
      </trkpt>
      <trkpt lat="45.55003" lon="3.39144">
        <ele>612</ele>
        <time>2012-10-21T07:23:41.000Z</time>
      </trkpt>
      <trkpt lat="45.55004" lon="3.39148">
        <ele>618</ele>
        <time>2012-10-21T07:23:43.000Z</time>
      </trkpt>
      <trkpt lat="45.55005" lon="3.3915">
        <ele>614</ele>
        <time>2012-10-21T07:23:44.000Z</time>
      </trkpt>
      <trkpt lat="45.55006" lon="3.39155">
        <ele>615</ele>
        <time>2012-10-21T07:23:46.000Z</time>
      </trkpt>
      <trkpt lat="45.55006" lon="3.39157">
        <ele>614</ele>
        <time>2012-10-21T07:23:47.000Z</time>
      </trkpt>
      <trkpt lat="45.55006" lon="3.39163">
        <ele>614</ele>
        <time>2012-10-21T07:23:50.000Z</time>
      </trkpt>
      <trkpt lat="45.55006" lon="3.39166">
        <ele>611</ele>
        <time>2012-10-21T07:23:51.000Z</time>
      </trkpt>
      <trkpt lat="45.55007" lon="3.39171">
        <ele>616</ele>
        <time>2012-10-21T07:23:53.000Z</time>
      </trkpt>
      <trkpt lat="45.55007" lon="3.39173">
        <ele>613</ele>
        <time>2012-10-21T07:23:54.000Z</time>
      </trkpt>
      <trkpt lat="45.55007" lon="3.39178">
        <ele>607</ele>
        <time>2012-10-21T07:23:57.000Z</time>
      </trkpt>
      <trkpt lat="45.55007" lon="3.3918">
        <ele>607</ele>
        <time>2012-10-21T07:23:58.000Z</time>
      </trkpt>
      <trkpt lat="45.55007" lon="3.39185">
        <ele>611</ele>
        <time>2012-10-21T07:24:01.000Z</time>
      </trkpt>
      <trkpt lat="45.55007" lon="3.39187">
        <ele>613</ele>
        <time>2012-10-21T07:24:02.000Z</time>
      </trkpt>
      <trkpt lat="45.55006" lon="3.39193">
        <ele>606</ele>
        <time>2012-10-21T07:24:08.000Z</time>
      </trkpt>
      <trkpt lat="45.55005" lon="3.39194">
        <ele>607</ele>
        <time>2012-10-21T07:24:09.000Z</time>
      </trkpt>
      <trkpt lat="45.55005" lon="3.39199">
        <ele>613</ele>
        <time>2012-10-21T07:24:11.000Z</time>
      </trkpt>
      <trkpt lat="45.55005" lon="3.39201">
        <ele>612</ele>
        <time>2012-10-21T07:24:12.000Z</time>
      </trkpt>
      <trkpt lat="45.55005" lon="3.39206">
        <ele>611</ele>
        <time>2012-10-21T07:24:14.000Z</time>
      </trkpt>
      <trkpt lat="45.55005" lon="3.39208">
        <ele>612</ele>
        <time>2012-10-21T07:24:15.000Z</time>
      </trkpt>
      <trkpt lat="45.55005" lon="3.39214">
        <ele>612</ele>
        <time>2012-10-21T07:24:17.000Z</time>
      </trkpt>
      <trkpt lat="45.55005" lon="3.39216">
        <ele>615</ele>
        <time>2012-10-21T07:24:18.000Z</time>
      </trkpt>
      <trkpt lat="45.55006" lon="3.39222">
        <ele>610</ele>
        <time>2012-10-21T07:24:20.000Z</time>
      </trkpt>
      <trkpt lat="45.55006" lon="3.39224">
        <ele>608</ele>
        <time>2012-10-21T07:24:21.000Z</time>
      </trkpt>
      <trkpt lat="45.55006" lon="3.39229">
        <ele>612</ele>
        <time>2012-10-21T07:24:23.000Z</time>
      </trkpt>
      <trkpt lat="45.55007" lon="3.39231">
        <ele>612</ele>
        <time>2012-10-21T07:24:24.000Z</time>
      </trkpt>
      <trkpt lat="45.55007" lon="3.39237">
        <ele>605</ele>
        <time>2012-10-21T07:24:27.000Z</time>
      </trkpt>
      <trkpt lat="45.55007" lon="3.39239">
        <ele>607</ele>
        <time>2012-10-21T07:24:28.000Z</time>
      </trkpt>
      <trkpt lat="45.55006" lon="3.39244">
        <ele>605</ele>
        <time>2012-10-21T07:24:30.000Z</time>
      </trkpt>
      <trkpt lat="45.55006" lon="3.39246">
        <ele>611</ele>
        <time>2012-10-21T07:24:31.000Z</time>
      </trkpt>
      <trkpt lat="45.55007" lon="3.39251">
        <ele>608</ele>
        <time>2012-10-21T07:24:35.000Z</time>
      </trkpt>
      <trkpt lat="45.55007" lon="3.39252">
        <ele>617</ele>
        <time>2012-10-21T07:24:36.000Z</time>
      </trkpt>
      <trkpt lat="45.55008" lon="3.39258">
        <ele>615</ele>
        <time>2012-10-21T07:24:39.000Z</time>
      </trkpt>
      <trkpt lat="45.55008" lon="3.3926">
        <ele>616</ele>
        <time>2012-10-21T07:24:40.000Z</time>
      </trkpt>
      <trkpt lat="45.55007" lon="3.39265">
        <ele>616</ele>
        <time>2012-10-21T07:24:44.000Z</time>
      </trkpt>
      <trkpt lat="45.55007" lon="3.39266">
        <ele>618</ele>
        <time>2012-10-21T07:24:45.000Z</time>
      </trkpt>
      <trkpt lat="45.55009" lon="3.39271">
        <ele>626</ele>
        <time>2012-10-21T07:24:48.000Z</time>
      </trkpt>
      <trkpt lat="45.55009" lon="3.39273">
        <ele>623</ele>
        <time>2012-10-21T07:24:49.000Z</time>
      </trkpt>
      <trkpt lat="45.55011" lon="3.39278">
        <ele>625</ele>
        <time>2012-10-21T07:24:53.000Z</time>
      </trkpt>
      <trkpt lat="45.55012" lon="3.3928">
        <ele>625</ele>
        <time>2012-10-21T07:24:54.000Z</time>
      </trkpt>
      <trkpt lat="45.55012" lon="3.39285">
        <ele>624</ele>
        <time>2012-10-21T07:24:58.000Z</time>
      </trkpt>
      <trkpt lat="45.55012" lon="3.39288">
        <ele>624</ele>
        <time>2012-10-21T07:24:59.000Z</time>
      </trkpt>
      <trkpt lat="45.55012" lon="3.39293">
        <ele>631</ele>
        <time>2012-10-21T07:25:00.000Z</time>
      </trkpt>
      <trkpt lat="45.55012" lon="3.39296">
        <ele>629</ele>
        <time>2012-10-21T07:25:01.000Z</time>
      </trkpt>
      <trkpt lat="45.55012" lon="3.39302">
        <ele>626</ele>
        <time>2012-10-21T07:25:04.000Z</time>
      </trkpt>
      <trkpt lat="45.55013" lon="3.39304">
        <ele>624</ele>
        <time>2012-10-21T07:25:05.000Z</time>
      </trkpt>
      <trkpt lat="45.55013" lon="3.39309">
        <ele>626</ele>
        <time>2012-10-21T07:25:07.000Z</time>
      </trkpt>
      <trkpt lat="45.55013" lon="3.39311">
        <ele>622</ele>
        <time>2012-10-21T07:25:08.000Z</time>
      </trkpt>
      <trkpt lat="45.55013" lon="3.39317">
        <ele>621</ele>
        <time>2012-10-21T07:25:11.000Z</time>
      </trkpt>
      <trkpt lat="45.55014" lon="3.39321">
        <ele>621</ele>
        <time>2012-10-21T07:25:12.000Z</time>
      </trkpt>
      <trkpt lat="45.55015" lon="3.39327">
        <ele>626</ele>
        <time>2012-10-21T07:25:14.000Z</time>
      </trkpt>
      <trkpt lat="45.55016" lon="3.39329">
        <ele>622</ele>
        <time>2012-10-21T07:25:15.000Z</time>
      </trkpt>
      <trkpt lat="45.55016" lon="3.39334">
        <ele>624</ele>
        <time>2012-10-21T07:25:18.000Z</time>
      </trkpt>
      <trkpt lat="45.55016" lon="3.39335">
        <ele>623</ele>
        <time>2012-10-21T07:25:19.000Z</time>
      </trkpt>
      <trkpt lat="45.55017" lon="3.3934">
        <ele>623</ele>
        <time>2012-10-21T07:25:21.000Z</time>
      </trkpt>
      <trkpt lat="45.55018" lon="3.39342">
        <ele>625</ele>
        <time>2012-10-21T07:25:22.000Z</time>
      </trkpt>
      <trkpt lat="45.55017" lon="3.39347">
        <ele>625</ele>
        <time>2012-10-21T07:25:26.000Z</time>
      </trkpt>
      <trkpt lat="45.55016" lon="3.3935">
        <ele>628</ele>
        <time>2012-10-21T07:25:27.000Z</time>
      </trkpt>
      <trkpt lat="45.55015" lon="3.39355">
        <ele>632</ele>
        <time>2012-10-21T07:25:31.000Z</time>
      </trkpt>
      <trkpt lat="45.55014" lon="3.39358">
        <ele>636</ele>
        <time>2012-10-21T07:25:32.000Z</time>
      </trkpt>
      <trkpt lat="45.55015" lon="3.39364">
        <ele>636</ele>
        <time>2012-10-21T07:25:36.000Z</time>
      </trkpt>
      <trkpt lat="45.55015" lon="3.39366">
        <ele>635</ele>
        <time>2012-10-21T07:25:37.000Z</time>
      </trkpt>
      <trkpt lat="45.55016" lon="3.39372">
        <ele>630</ele>
        <time>2012-10-21T07:25:45.000Z</time>
      </trkpt>
      <trkpt lat="45.55016" lon="3.39373">
        <ele>632</ele>
        <time>2012-10-21T07:25:46.000Z</time>
      </trkpt>
      <trkpt lat="45.55015" lon="3.39378">
        <ele>632</ele>
        <time>2012-10-21T07:25:49.000Z</time>
      </trkpt>
      <trkpt lat="45.55015" lon="3.3938">
        <ele>636</ele>
        <time>2012-10-21T07:25:50.000Z</time>
      </trkpt>
      <trkpt lat="45.55014" lon="3.39385">
        <ele>639</ele>
        <time>2012-10-21T07:25:56.000Z</time>
      </trkpt>
      <trkpt lat="45.55013" lon="3.39387">
        <ele>639</ele>
        <time>2012-10-21T07:25:57.000Z</time>
      </trkpt>
      <trkpt lat="45.55013" lon="3.39393">
        <ele>638</ele>
        <time>2012-10-21T07:26:01.000Z</time>
      </trkpt>
      <trkpt lat="45.55014" lon="3.39395">
        <ele>637</ele>
        <time>2012-10-21T07:26:02.000Z</time>
      </trkpt>
      <trkpt lat="45.55014" lon="3.39401">
        <ele>641</ele>
        <time>2012-10-21T07:26:09.000Z</time>
      </trkpt>
      <trkpt lat="45.55013" lon="3.39403">
        <ele>643</ele>
        <time>2012-10-21T07:26:10.000Z</time>
      </trkpt>
      <trkpt lat="45.55012" lon="3.39409">
        <ele>641</ele>
        <time>2012-10-21T07:26:12.000Z</time>
      </trkpt>
      <trkpt lat="45.55012" lon="3.39412">
        <ele>638</ele>
        <time>2012-10-21T07:26:13.000Z</time>
      </trkpt>
      <trkpt lat="45.55009" lon="3.39416">
        <ele>641</ele>
        <time>2012-10-21T07:26:16.000Z</time>
      </trkpt>
      <trkpt lat="45.55008" lon="3.39417">
        <ele>640</ele>
        <time>2012-10-21T07:26:17.000Z</time>
      </trkpt>
      <trkpt lat="45.5501" lon="3.39423">
        <ele>631</ele>
        <time>2012-10-21T07:26:29.000Z</time>
      </trkpt>
      <trkpt lat="45.5501" lon="3.39425">
        <ele>631</ele>
        <time>2012-10-21T07:26:30.000Z</time>
      </trkpt>
      <trkpt lat="45.55006" lon="3.39422">
        <ele>628</ele>
        <time>2012-10-21T07:26:39.000Z</time>
      </trkpt>
      <trkpt lat="45.55006" lon="3.3942">
        <ele>626</ele>
        <time>2012-10-21T07:26:40.000Z</time>
      </trkpt>
      <trkpt lat="45.55003" lon="3.39416">
        <ele>627</ele>
        <time>2012-10-21T07:26:43.000Z</time>
      </trkpt>
      <trkpt lat="45.55002" lon="3.39416">
        <ele>626</ele>
        <time>2012-10-21T07:26:44.000Z</time>
      </trkpt>
      <trkpt lat="45.54998" lon="3.39419">
        <ele>624</ele>
        <time>2012-10-21T07:26:48.000Z</time>
      </trkpt>
      <trkpt lat="45.54998" lon="3.3942">
        <ele>623</ele>
        <time>2012-10-21T07:26:49.000Z</time>
      </trkpt>
      <trkpt lat="45.55001" lon="3.39425">
        <ele>629</ele>
        <time>2012-10-21T07:27:04.000Z</time>
      </trkpt>
      <trkpt lat="45.54999" lon="3.39428">
        <ele>631</ele>
        <time>2012-10-21T07:27:05.000Z</time>
      </trkpt>
      <trkpt lat="45.54997" lon="3.39431">
        <ele>634</ele>
        <time>2012-10-21T07:27:10.000Z</time>
      </trkpt>
      <trkpt lat="45.54995" lon="3.39433">
        <ele>636</ele>
        <time>2012-10-21T07:27:11.000Z</time>
      </trkpt>
      <trkpt lat="45.54996" lon="3.39438">
        <ele>635</ele>
        <time>2012-10-21T07:27:40.000Z</time>
      </trkpt>
      <trkpt lat="45.54998" lon="3.39439">
        <ele>637</ele>
        <time>2012-10-21T07:27:41.000Z</time>
      </trkpt>
      <trkpt lat="45.55001" lon="3.39437">
        <ele>628</ele>
        <time>2012-10-21T07:28:05.000Z</time>
      </trkpt>
      <trkpt lat="45.55002" lon="3.39436">
        <ele>631</ele>
        <time>2012-10-21T07:28:06.000Z</time>
      </trkpt>
      <trkpt lat="45.55003" lon="3.39431">
        <ele>624</ele>
        <time>2012-10-21T07:28:10.000Z</time>
      </trkpt>
      <trkpt lat="45.55003" lon="3.39428">
        <ele>624</ele>
        <time>2012-10-21T07:28:11.000Z</time>
      </trkpt>
      <trkpt lat="45.55006" lon="3.39432">
        <ele>627</ele>
        <time>2012-10-21T07:28:29.999Z</time>
      </trkpt>
      <trkpt lat="45.55006" lon="3.39434">
        <ele>625</ele>
        <time>2012-10-21T07:28:31.000Z</time>
      </trkpt>
      <trkpt lat="45.55007" lon="3.39437">
        <ele>623</ele>
        <time>2012-10-21T07:28:34.000Z</time>
      </trkpt>
      <trkpt lat="45.55008" lon="3.39439">
        <ele>625</ele>
        <time>2012-10-21T07:28:35.000Z</time>
      </trkpt>
      <trkpt lat="45.5501" lon="3.39444">
        <ele>623</ele>
        <time>2012-10-21T07:28:38.000Z</time>
      </trkpt>
      <trkpt lat="45.55011" lon="3.39446">
        <ele>624</ele>
        <time>2012-10-21T07:28:39.000Z</time>
      </trkpt>
      <trkpt lat="45.55013" lon="3.39451">
        <ele>627</ele>
        <time>2012-10-21T07:28:42.000Z</time>
      </trkpt>
      <trkpt lat="45.55014" lon="3.39452">
        <ele>627</ele>
        <time>2012-10-21T07:28:43.000Z</time>
      </trkpt>
      <trkpt lat="45.55017" lon="3.39456">
        <ele>626</ele>
        <time>2012-10-21T07:28:45.000Z</time>
      </trkpt>
      <trkpt lat="45.55018" lon="3.39457">
        <ele>627</ele>
        <time>2012-10-21T07:28:46.000Z</time>
      </trkpt>
      <trkpt lat="45.55021" lon="3.3946">
        <ele>624</ele>
        <time>2012-10-21T07:28:48.000Z</time>
      </trkpt>
      <trkpt lat="45.55021" lon="3.39462">
        <ele>623</ele>
        <time>2012-10-21T07:28:49.000Z</time>
      </trkpt>
      <trkpt lat="45.55024" lon="3.39467">
        <ele>622</ele>
        <time>2012-10-21T07:28:52.000Z</time>
      </trkpt>
      <trkpt lat="45.55025" lon="3.3947">
        <ele>622</ele>
        <time>2012-10-21T07:28:53.000Z</time>
      </trkpt>
      <trkpt lat="45.55027" lon="3.39473">
        <ele>625</ele>
        <time>2012-10-21T07:28:55.000Z</time>
      </trkpt>
      <trkpt lat="45.55028" lon="3.39475">
        <ele>625</ele>
        <time>2012-10-21T07:28:56.000Z</time>
      </trkpt>
      <trkpt lat="45.5503" lon="3.39478">
        <ele>627</ele>
        <time>2012-10-21T07:28:58.000Z</time>
      </trkpt>
      <trkpt lat="45.55031" lon="3.3948">
        <ele>629</ele>
        <time>2012-10-21T07:28:59.000Z</time>
      </trkpt>
      <trkpt lat="45.55033" lon="3.39483">
        <ele>633</ele>
        <time>2012-10-21T07:29:01.000Z</time>
      </trkpt>
      <trkpt lat="45.55035" lon="3.39485">
        <ele>633</ele>
        <time>2012-10-21T07:29:02.000Z</time>
      </trkpt>
      <trkpt lat="45.55037" lon="3.39488">
        <ele>631</ele>
        <time>2012-10-21T07:29:04.000Z</time>
      </trkpt>
      <trkpt lat="45.55038" lon="3.3949">
        <ele>624</ele>
        <time>2012-10-21T07:29:05.000Z</time>
      </trkpt>
      <trkpt lat="45.5504" lon="3.39494">
        <ele>627</ele>
        <time>2012-10-21T07:29:07.000Z</time>
      </trkpt>
      <trkpt lat="45.55041" lon="3.39496">
        <ele>626</ele>
        <time>2012-10-21T07:29:08.000Z</time>
      </trkpt>
      <trkpt lat="45.55044" lon="3.395">
        <ele>636</ele>
        <time>2012-10-21T07:29:11.000Z</time>
      </trkpt>
      <trkpt lat="45.55044" lon="3.39502">
        <ele>634</ele>
        <time>2012-10-21T07:29:12.000Z</time>
      </trkpt>
      <trkpt lat="45.55045" lon="3.39506">
        <ele>637</ele>
        <time>2012-10-21T07:29:15.000Z</time>
      </trkpt>
      <trkpt lat="45.55047" lon="3.39508">
        <ele>638</ele>
        <time>2012-10-21T07:29:16.000Z</time>
      </trkpt>
      <trkpt lat="45.55049" lon="3.39512">
        <ele>637</ele>
        <time>2012-10-21T07:29:18.000Z</time>
      </trkpt>
      <trkpt lat="45.5505" lon="3.39514">
        <ele>637</ele>
        <time>2012-10-21T07:29:19.000Z</time>
      </trkpt>
      <trkpt lat="45.55053" lon="3.39517">
        <ele>637</ele>
        <time>2012-10-21T07:29:21.000Z</time>
      </trkpt>
      <trkpt lat="45.55054" lon="3.39519">
        <ele>640</ele>
        <time>2012-10-21T07:29:22.000Z</time>
      </trkpt>
      <trkpt lat="45.55057" lon="3.39524">
        <ele>639</ele>
        <time>2012-10-21T07:29:25.000Z</time>
      </trkpt>
      <trkpt lat="45.55058" lon="3.39525">
        <ele>639</ele>
        <time>2012-10-21T07:29:26.000Z</time>
      </trkpt>
      <trkpt lat="45.5506" lon="3.3953">
        <ele>642</ele>
        <time>2012-10-21T07:29:29.000Z</time>
      </trkpt>
      <trkpt lat="45.55061" lon="3.39531">
        <ele>639</ele>
        <time>2012-10-21T07:29:30.000Z</time>
      </trkpt>
      <trkpt lat="45.55063" lon="3.39535">
        <ele>645</ele>
        <time>2012-10-21T07:29:34.000Z</time>
      </trkpt>
      <trkpt lat="45.55064" lon="3.39536">
        <ele>645</ele>
        <time>2012-10-21T07:29:35.000Z</time>
      </trkpt>
      <trkpt lat="45.55066" lon="3.3954">
        <ele>647</ele>
        <time>2012-10-21T07:29:37.000Z</time>
      </trkpt>
      <trkpt lat="45.55067" lon="3.39542">
        <ele>650</ele>
        <time>2012-10-21T07:29:38.000Z</time>
      </trkpt>
      <trkpt lat="45.5507" lon="3.39547">
        <ele>645</ele>
        <time>2012-10-21T07:29:40.000Z</time>
      </trkpt>
      <trkpt lat="45.55071" lon="3.39549">
        <ele>647</ele>
        <time>2012-10-21T07:29:41.000Z</time>
      </trkpt>
      <trkpt lat="45.55073" lon="3.39554">
        <ele>649</ele>
        <time>2012-10-21T07:29:43.000Z</time>
      </trkpt>
      <trkpt lat="45.55073" lon="3.39557">
        <ele>648</ele>
        <time>2012-10-21T07:29:44.000Z</time>
      </trkpt>
      <trkpt lat="45.55075" lon="3.39562">
        <ele>642</ele>
        <time>2012-10-21T07:29:46.000Z</time>
      </trkpt>
      <trkpt lat="45.55075" lon="3.39563">
        <ele>644</ele>
        <time>2012-10-21T07:29:47.000Z</time>
      </trkpt>
      <trkpt lat="45.55074" lon="3.39569">
        <ele>639</ele>
        <time>2012-10-21T07:29:50.000Z</time>
      </trkpt>
      <trkpt lat="45.55074" lon="3.39571">
        <ele>643</ele>
        <time>2012-10-21T07:29:51.000Z</time>
      </trkpt>
      <trkpt lat="45.55074" lon="3.39576">
        <ele>647</ele>
        <time>2012-10-21T07:29:54.000Z</time>
      </trkpt>
      <trkpt lat="45.55074" lon="3.39578">
        <ele>647</ele>
        <time>2012-10-21T07:29:55.000Z</time>
      </trkpt>
      <trkpt lat="45.55075" lon="3.39581">
        <ele>651</ele>
        <time>2012-10-21T07:29:57.000Z</time>
      </trkpt>
      <trkpt lat="45.55074" lon="3.39584">
        <ele>652</ele>
        <time>2012-10-21T07:29:58.000Z</time>
      </trkpt>
      <trkpt lat="45.55074" lon="3.39588">
        <ele>648</ele>
        <time>2012-10-21T07:30:00.000Z</time>
      </trkpt>
      <trkpt lat="45.55073" lon="3.39591">
        <ele>650</ele>
        <time>2012-10-21T07:30:01.000Z</time>
      </trkpt>
      <trkpt lat="45.55073" lon="3.39596">
        <ele>651</ele>
        <time>2012-10-21T07:30:04.000Z</time>
      </trkpt>
      <trkpt lat="45.55073" lon="3.39599">
        <ele>651</ele>
        <time>2012-10-21T07:30:05.000Z</time>
      </trkpt>
      <trkpt lat="45.55073" lon="3.39603">
        <ele>654</ele>
        <time>2012-10-21T07:30:07.000Z</time>
      </trkpt>
      <trkpt lat="45.55073" lon="3.39606">
        <ele>655</ele>
        <time>2012-10-21T07:30:08.000Z</time>
      </trkpt>
      <trkpt lat="45.55075" lon="3.39611">
        <ele>653</ele>
        <time>2012-10-21T07:30:11.000Z</time>
      </trkpt>
      <trkpt lat="45.55075" lon="3.39612">
        <ele>653</ele>
        <time>2012-10-21T07:30:12.000Z</time>
      </trkpt>
      <trkpt lat="45.55071" lon="3.39616">
        <ele>655</ele>
        <time>2012-10-21T07:30:15.000Z</time>
      </trkpt>
      <trkpt lat="45.5507" lon="3.39617">
        <ele>659</ele>
        <time>2012-10-21T07:30:16.000Z</time>
      </trkpt>
      <trkpt lat="45.55067" lon="3.39622">
        <ele>667</ele>
        <time>2012-10-21T07:30:19.000Z</time>
      </trkpt>
      <trkpt lat="45.55066" lon="3.39623">
        <ele>663</ele>
        <time>2012-10-21T07:30:20.000Z</time>
      </trkpt>
      <trkpt lat="45.55065" lon="3.39627">
        <ele>664</ele>
        <time>2012-10-21T07:30:26.000Z</time>
      </trkpt>
      <trkpt lat="45.55064" lon="3.39629">
        <ele>665</ele>
        <time>2012-10-21T07:30:27.000Z</time>
      </trkpt>
      <trkpt lat="45.55062" lon="3.39634">
        <ele>663</ele>
        <time>2012-10-21T07:30:30.000Z</time>
      </trkpt>
      <trkpt lat="45.5506" lon="3.39637">
        <ele>661</ele>
        <time>2012-10-21T07:30:31.000Z</time>
      </trkpt>
      <trkpt lat="45.55058" lon="3.39641">
        <ele>658</ele>
        <time>2012-10-21T07:30:33.000Z</time>
      </trkpt>
      <trkpt lat="45.55058" lon="3.39643">
        <ele>660</ele>
        <time>2012-10-21T07:30:34.000Z</time>
      </trkpt>
      <trkpt lat="45.55056" lon="3.39648">
        <ele>658</ele>
        <time>2012-10-21T07:30:37.000Z</time>
      </trkpt>
      <trkpt lat="45.55055" lon="3.3965">
        <ele>660</ele>
        <time>2012-10-21T07:30:38.000Z</time>
      </trkpt>
      <trkpt lat="45.55054" lon="3.39655">
        <ele>663</ele>
        <time>2012-10-21T07:30:41.000Z</time>
      </trkpt>
      <trkpt lat="45.55054" lon="3.39656">
        <ele>662</ele>
        <time>2012-10-21T07:30:42.000Z</time>
      </trkpt>
      <trkpt lat="45.55051" lon="3.3966">
        <ele>664</ele>
        <time>2012-10-21T07:30:45.000Z</time>
      </trkpt>
      <trkpt lat="45.5505" lon="3.39662">
        <ele>660</ele>
        <time>2012-10-21T07:30:46.000Z</time>
      </trkpt>
      <trkpt lat="45.55046" lon="3.39663">
        <ele>663</ele>
        <time>2012-10-21T07:30:50.000Z</time>
      </trkpt>
      <trkpt lat="45.55045" lon="3.39663">
        <ele>662</ele>
        <time>2012-10-21T07:30:51.000Z</time>
      </trkpt>
      <trkpt lat="45.55042" lon="3.39661">
        <ele>657</ele>
        <time>2012-10-21T07:30:56.000Z</time>
      </trkpt>
      <trkpt lat="45.55041" lon="3.39661">
        <ele>657</ele>
        <time>2012-10-21T07:30:57.000Z</time>
      </trkpt>
      <trkpt lat="45.55037" lon="3.39662">
        <ele>659</ele>
        <time>2012-10-21T07:31:00.000Z</time>
      </trkpt>
      <trkpt lat="45.55036" lon="3.39662">
        <ele>657</ele>
        <time>2012-10-21T07:31:01.000Z</time>
      </trkpt>
      <trkpt lat="45.55032" lon="3.39662">
        <ele>661</ele>
        <time>2012-10-21T07:31:04.000Z</time>
      </trkpt>
      <trkpt lat="45.55031" lon="3.39662">
        <ele>661</ele>
        <time>2012-10-21T07:31:05.000Z</time>
      </trkpt>
      <trkpt lat="45.55027" lon="3.39662">
        <ele>664</ele>
        <time>2012-10-21T07:31:07.000Z</time>
      </trkpt>
      <trkpt lat="45.55026" lon="3.39662">
        <ele>660</ele>
        <time>2012-10-21T07:31:08.000Z</time>
      </trkpt>
      <trkpt lat="45.55021" lon="3.39662">
        <ele>660</ele>
        <time>2012-10-21T07:31:12.000Z</time>
      </trkpt>
      <trkpt lat="45.5502" lon="3.39662">
        <ele>659</ele>
        <time>2012-10-21T07:31:13.000Z</time>
      </trkpt>
      <trkpt lat="45.55017" lon="3.39663">
        <ele>653</ele>
        <time>2012-10-21T07:31:16.000Z</time>
      </trkpt>
      <trkpt lat="45.55016" lon="3.39664">
        <ele>656</ele>
        <time>2012-10-21T07:31:17.000Z</time>
      </trkpt>
      <trkpt lat="45.55012" lon="3.39664">
        <ele>661</ele>
        <time>2012-10-21T07:31:22.000Z</time>
      </trkpt>
      <trkpt lat="45.5501" lon="3.39664">
        <ele>660</ele>
        <time>2012-10-21T07:31:23.000Z</time>
      </trkpt>
      <trkpt lat="45.55006" lon="3.39666">
        <ele>668</ele>
        <time>2012-10-21T07:31:26.000Z</time>
      </trkpt>
      <trkpt lat="45.55005" lon="3.39667">
        <ele>668</ele>
        <time>2012-10-21T07:31:27.000Z</time>
      </trkpt>
      <trkpt lat="45.55001" lon="3.39671">
        <ele>657</ele>
        <time>2012-10-21T07:31:31.000Z</time>
      </trkpt>
      <trkpt lat="45.54997" lon="3.39674">
        <ele>664</ele>
        <time>2012-10-21T07:31:35.000Z</time>
      </trkpt>
      <trkpt lat="45.54996" lon="3.39675">
        <ele>668</ele>
        <time>2012-10-21T07:31:36.000Z</time>
      </trkpt>
      <trkpt lat="45.54993" lon="3.39679">
        <ele>666</ele>
        <time>2012-10-21T07:31:40.000Z</time>
      </trkpt>
      <trkpt lat="45.54992" lon="3.39679">
        <ele>664</ele>
        <time>2012-10-21T07:31:41.000Z</time>
      </trkpt>
      <trkpt lat="45.54988" lon="3.39682">
        <ele>663</ele>
        <time>2012-10-21T07:31:46.000Z</time>
      </trkpt>
      <trkpt lat="45.54987" lon="3.39683">
        <ele>663</ele>
        <time>2012-10-21T07:31:47.000Z</time>
      </trkpt>
      <trkpt lat="45.54983" lon="3.39682">
        <ele>663</ele>
        <time>2012-10-21T07:31:50.000Z</time>
      </trkpt>
      <trkpt lat="45.54982" lon="3.39682">
        <ele>662</ele>
        <time>2012-10-21T07:31:51.000Z</time>
      </trkpt>
      <trkpt lat="45.54978" lon="3.39683">
        <ele>667</ele>
        <time>2012-10-21T07:31:54.000Z</time>
      </trkpt>
      <trkpt lat="45.54976" lon="3.39683">
        <ele>671</ele>
        <time>2012-10-21T07:31:55.000Z</time>
      </trkpt>
      <trkpt lat="45.54973" lon="3.39686">
        <ele>673</ele>
        <time>2012-10-21T07:31:57.000Z</time>
      </trkpt>
      <trkpt lat="45.54972" lon="3.39686">
        <ele>672</ele>
        <time>2012-10-21T07:31:58.000Z</time>
      </trkpt>
      <trkpt lat="45.5497" lon="3.39688">
        <ele>670</ele>
        <time>2012-10-21T07:31:59.000Z</time>
      </trkpt>
      <trkpt lat="45.54968" lon="3.3969">
        <ele>672</ele>
        <time>2012-10-21T07:32:00.000Z</time>
      </trkpt>
      <trkpt lat="45.54965" lon="3.39692">
        <ele>677</ele>
        <time>2012-10-21T07:32:02.000Z</time>
      </trkpt>
      <trkpt lat="45.54963" lon="3.39692">
        <ele>680</ele>
        <time>2012-10-21T07:32:03.000Z</time>
      </trkpt>
      <trkpt lat="45.5496" lon="3.39692">
        <ele>678</ele>
        <time>2012-10-21T07:32:05.000Z</time>
      </trkpt>
      <trkpt lat="45.54958" lon="3.39692">
        <ele>679</ele>
        <time>2012-10-21T07:32:06.000Z</time>
      </trkpt>
      <trkpt lat="45.54954" lon="3.39693">
        <ele>679</ele>
        <time>2012-10-21T07:32:08.000Z</time>
      </trkpt>
      <trkpt lat="45.54952" lon="3.39693">
        <ele>682</ele>
        <time>2012-10-21T07:32:09.000Z</time>
      </trkpt>
      <trkpt lat="45.54949" lon="3.39694">
        <ele>685</ele>
        <time>2012-10-21T07:32:11.000Z</time>
      </trkpt>
      <trkpt lat="45.54948" lon="3.39695">
        <ele>684</ele>
        <time>2012-10-21T07:32:12.000Z</time>
      </trkpt>
      <trkpt lat="45.54944" lon="3.39695">
        <ele>692</ele>
        <time>2012-10-21T07:32:14.000Z</time>
      </trkpt>
      <trkpt lat="45.54943" lon="3.39695">
        <ele>687</ele>
        <time>2012-10-21T07:32:15.000Z</time>
      </trkpt>
      <trkpt lat="45.5494" lon="3.39694">
        <ele>688</ele>
        <time>2012-10-21T07:32:17.000Z</time>
      </trkpt>
      <trkpt lat="45.54938" lon="3.39693">
        <ele>692</ele>
        <time>2012-10-21T07:32:18.000Z</time>
      </trkpt>
      <trkpt lat="45.54934" lon="3.39693">
        <ele>695</ele>
        <time>2012-10-21T07:32:21.000Z</time>
      </trkpt>
      <trkpt lat="45.54932" lon="3.39693">
        <ele>694</ele>
        <time>2012-10-21T07:32:22.000Z</time>
      </trkpt>
      <trkpt lat="45.54929" lon="3.39694">
        <ele>691</ele>
        <time>2012-10-21T07:32:25.000Z</time>
      </trkpt>
      <trkpt lat="45.54927" lon="3.39693">
        <ele>695</ele>
        <time>2012-10-21T07:32:26.000Z</time>
      </trkpt>
      <trkpt lat="45.54924" lon="3.39694">
        <ele>695</ele>
        <time>2012-10-21T07:32:28.000Z</time>
      </trkpt>
      <trkpt lat="45.54922" lon="3.39694">
        <ele>696</ele>
        <time>2012-10-21T07:32:29.000Z</time>
      </trkpt>
      <trkpt lat="45.54919" lon="3.39695">
        <ele>695</ele>
        <time>2012-10-21T07:32:31.000Z</time>
      </trkpt>
      <trkpt lat="45.54917" lon="3.39695">
        <ele>696</ele>
        <time>2012-10-21T07:32:32.000Z</time>
      </trkpt>
      <trkpt lat="45.54914" lon="3.39697">
        <ele>698</ele>
        <time>2012-10-21T07:32:34.000Z</time>
      </trkpt>
      <trkpt lat="45.54913" lon="3.39697">
        <ele>699</ele>
        <time>2012-10-21T07:32:35.000Z</time>
      </trkpt>
      <trkpt lat="45.54909" lon="3.39699">
        <ele>698</ele>
        <time>2012-10-21T07:32:38.000Z</time>
      </trkpt>
      <trkpt lat="45.54907" lon="3.397">
        <ele>696</ele>
        <time>2012-10-21T07:32:39.000Z</time>
      </trkpt>
      <trkpt lat="45.54904" lon="3.39701">
        <ele>698</ele>
        <time>2012-10-21T07:32:41.000Z</time>
      </trkpt>
      <trkpt lat="45.54903" lon="3.39702">
        <ele>694</ele>
        <time>2012-10-21T07:32:42.000Z</time>
      </trkpt>
      <trkpt lat="45.54899" lon="3.39703">
        <ele>694</ele>
        <time>2012-10-21T07:32:44.000Z</time>
      </trkpt>
      <trkpt lat="45.54898" lon="3.39703">
        <ele>699</ele>
        <time>2012-10-21T07:32:45.000Z</time>
      </trkpt>
      <trkpt lat="45.54895" lon="3.39705">
        <ele>703</ele>
        <time>2012-10-21T07:32:47.000Z</time>
      </trkpt>
      <trkpt lat="45.54893" lon="3.39706">
        <ele>700</ele>
        <time>2012-10-21T07:32:48.000Z</time>
      </trkpt>
      <trkpt lat="45.5489" lon="3.39707">
        <ele>699</ele>
        <time>2012-10-21T07:32:50.000Z</time>
      </trkpt>
      <trkpt lat="45.54889" lon="3.39708">
        <ele>700</ele>
        <time>2012-10-21T07:32:51.000Z</time>
      </trkpt>
      <trkpt lat="45.54885" lon="3.39708">
        <ele>697</ele>
        <time>2012-10-21T07:32:53.000Z</time>
      </trkpt>
      <trkpt lat="45.54884" lon="3.39709">
        <ele>694</ele>
        <time>2012-10-21T07:32:54.000Z</time>
      </trkpt>
      <trkpt lat="45.5488" lon="3.3971">
        <ele>695</ele>
        <time>2012-10-21T07:32:57.000Z</time>
      </trkpt>
      <trkpt lat="45.54879" lon="3.39711">
        <ele>697</ele>
        <time>2012-10-21T07:32:58.000Z</time>
      </trkpt>
      <trkpt lat="45.54876" lon="3.39713">
        <ele>695</ele>
        <time>2012-10-21T07:33:00.000Z</time>
      </trkpt>
      <trkpt lat="45.54875" lon="3.39714">
        <ele>697</ele>
        <time>2012-10-21T07:33:01.000Z</time>
      </trkpt>
      <trkpt lat="45.54871" lon="3.39716">
        <ele>702</ele>
        <time>2012-10-21T07:33:03.000Z</time>
      </trkpt>
      <trkpt lat="45.5487" lon="3.39717">
        <ele>702</ele>
        <time>2012-10-21T07:33:04.000Z</time>
      </trkpt>
      <trkpt lat="45.54866" lon="3.3972">
        <ele>700</ele>
        <time>2012-10-21T07:33:07.000Z</time>
      </trkpt>
      <trkpt lat="45.54865" lon="3.39721">
        <ele>699</ele>
        <time>2012-10-21T07:33:08.000Z</time>
      </trkpt>
      <trkpt lat="45.54861" lon="3.39721">
        <ele>697</ele>
        <time>2012-10-21T07:33:11.000Z</time>
      </trkpt>
      <trkpt lat="45.5486" lon="3.39721">
        <ele>697</ele>
        <time>2012-10-21T07:33:12.000Z</time>
      </trkpt>
      <trkpt lat="45.54856" lon="3.39722">
        <ele>696</ele>
        <time>2012-10-21T07:33:16.000Z</time>
      </trkpt>
      <trkpt lat="45.54855" lon="3.39723">
        <ele>698</ele>
        <time>2012-10-21T07:33:17.000Z</time>
      </trkpt>
      <trkpt lat="45.54851" lon="3.39724">
        <ele>700</ele>
        <time>2012-10-21T07:33:19.000Z</time>
      </trkpt>
      <trkpt lat="45.54849" lon="3.39725">
        <ele>701</ele>
        <time>2012-10-21T07:33:20.000Z</time>
      </trkpt>
      <trkpt lat="45.54845" lon="3.39726">
        <ele>695</ele>
        <time>2012-10-21T07:33:22.000Z</time>
      </trkpt>
      <trkpt lat="45.54843" lon="3.39727">
        <ele>694</ele>
        <time>2012-10-21T07:33:23.000Z</time>
      </trkpt>
      <trkpt lat="45.5484" lon="3.39728">
        <ele>694</ele>
        <time>2012-10-21T07:33:25.000Z</time>
      </trkpt>
      <trkpt lat="45.54839" lon="3.39729">
        <ele>700</ele>
        <time>2012-10-21T07:33:26.000Z</time>
      </trkpt>
      <trkpt lat="45.54835" lon="3.39731">
        <ele>701</ele>
        <time>2012-10-21T07:33:29.000Z</time>
      </trkpt>
      <trkpt lat="45.54833" lon="3.39732">
        <ele>699</ele>
        <time>2012-10-21T07:33:30.000Z</time>
      </trkpt>
      <trkpt lat="45.5483" lon="3.39734">
        <ele>694</ele>
        <time>2012-10-21T07:33:32.000Z</time>
      </trkpt>
      <trkpt lat="45.54829" lon="3.39736">
        <ele>693</ele>
        <time>2012-10-21T07:33:33.000Z</time>
      </trkpt>
      <trkpt lat="45.54826" lon="3.3974">
        <ele>696</ele>
        <time>2012-10-21T07:33:35.000Z</time>
      </trkpt>
      <trkpt lat="45.54825" lon="3.39742">
        <ele>695</ele>
        <time>2012-10-21T07:33:36.000Z</time>
      </trkpt>
      <trkpt lat="45.54823" lon="3.39746">
        <ele>696</ele>
        <time>2012-10-21T07:33:39.000Z</time>
      </trkpt>
      <trkpt lat="45.54822" lon="3.39747">
        <ele>697</ele>
        <time>2012-10-21T07:33:40.000Z</time>
      </trkpt>
      <trkpt lat="45.54819" lon="3.39751">
        <ele>700</ele>
        <time>2012-10-21T07:33:42.000Z</time>
      </trkpt>
      <trkpt lat="45.54819" lon="3.39752">
        <ele>702</ele>
        <time>2012-10-21T07:33:43.000Z</time>
      </trkpt>
      <trkpt lat="45.54816" lon="3.39756">
        <ele>709</ele>
        <time>2012-10-21T07:33:46.000Z</time>
      </trkpt>
      <trkpt lat="45.54815" lon="3.39757">
        <ele>710</ele>
        <time>2012-10-21T07:33:47.000Z</time>
      </trkpt>
      <trkpt lat="45.54812" lon="3.39761">
        <ele>708</ele>
        <time>2012-10-21T07:33:51.000Z</time>
      </trkpt>
      <trkpt lat="45.54812" lon="3.39763">
        <ele>706</ele>
        <time>2012-10-21T07:33:52.000Z</time>
      </trkpt>
      <trkpt lat="45.54809" lon="3.39767">
        <ele>713</ele>
        <time>2012-10-21T07:33:57.000Z</time>
      </trkpt>
      <trkpt lat="45.54808" lon="3.39769">
        <ele>710</ele>
        <time>2012-10-21T07:33:58.000Z</time>
      </trkpt>
      <trkpt lat="45.54807" lon="3.39774">
        <ele>711</ele>
        <time>2012-10-21T07:34:00.000Z</time>
      </trkpt>
      <trkpt lat="45.54806" lon="3.39775">
        <ele>716</ele>
        <time>2012-10-21T07:34:01.000Z</time>
      </trkpt>
      <trkpt lat="45.54804" lon="3.39779">
        <ele>720</ele>
        <time>2012-10-21T07:34:04.000Z</time>
      </trkpt>
      <trkpt lat="45.54804" lon="3.39781">
        <ele>722</ele>
        <time>2012-10-21T07:34:05.000Z</time>
      </trkpt>
      <trkpt lat="45.54801" lon="3.39785">
        <ele>727</ele>
        <time>2012-10-21T07:34:07.000Z</time>
      </trkpt>
      <trkpt lat="45.54799" lon="3.39788">
        <ele>724</ele>
        <time>2012-10-21T07:34:08.000Z</time>
      </trkpt>
      <trkpt lat="45.54796" lon="3.3979">
        <ele>729</ele>
        <time>2012-10-21T07:34:10.000Z</time>
      </trkpt>
      <trkpt lat="45.54794" lon="3.39793">
        <ele>728</ele>
        <time>2012-10-21T07:34:11.000Z</time>
      </trkpt>
      <trkpt lat="45.54792" lon="3.39797">
        <ele>725</ele>
        <time>2012-10-21T07:34:13.000Z</time>
      </trkpt>
      <trkpt lat="45.54791" lon="3.39798">
        <ele>725</ele>
        <time>2012-10-21T07:34:14.000Z</time>
      </trkpt>
      <trkpt lat="45.54789" lon="3.39803">
        <ele>721</ele>
        <time>2012-10-21T07:34:17.000Z</time>
      </trkpt>
      <trkpt lat="45.54787" lon="3.39804">
        <ele>723</ele>
        <time>2012-10-21T07:34:18.000Z</time>
      </trkpt>
      <trkpt lat="45.54785" lon="3.39809">
        <ele>720</ele>
        <time>2012-10-21T07:34:21.000Z</time>
      </trkpt>
      <trkpt lat="45.54784" lon="3.39811">
        <ele>717</ele>
        <time>2012-10-21T07:34:22.000Z</time>
      </trkpt>
      <trkpt lat="45.54783" lon="3.39813">
        <ele>721</ele>
        <time>2012-10-21T07:34:23.000Z</time>
      </trkpt>
      <trkpt lat="45.54782" lon="3.39817">
        <ele>715</ele>
        <time>2012-10-21T07:34:24.000Z</time>
      </trkpt>
      <trkpt lat="45.54779" lon="3.39821">
        <ele>712</ele>
        <time>2012-10-21T07:34:26.000Z</time>
      </trkpt>
      <trkpt lat="45.54779" lon="3.39822">
        <ele>714</ele>
        <time>2012-10-21T07:34:27.000Z</time>
      </trkpt>
      <trkpt lat="45.54776" lon="3.39827">
        <ele>716</ele>
        <time>2012-10-21T07:34:30.000Z</time>
      </trkpt>
      <trkpt lat="45.54774" lon="3.3983">
        <ele>722</ele>
        <time>2012-10-21T07:34:31.000Z</time>
      </trkpt>
      <trkpt lat="45.54772" lon="3.39834">
        <ele>717</ele>
        <time>2012-10-21T07:34:34.000Z</time>
      </trkpt>
      <trkpt lat="45.54771" lon="3.39835">
        <ele>717</ele>
        <time>2012-10-21T07:34:35.000Z</time>
      </trkpt>
      <trkpt lat="45.54769" lon="3.3984">
        <ele>716</ele>
        <time>2012-10-21T07:34:38.000Z</time>
      </trkpt>
      <trkpt lat="45.54768" lon="3.39843">
        <ele>714</ele>
        <time>2012-10-21T07:34:39.000Z</time>
      </trkpt>
      <trkpt lat="45.54765" lon="3.39847">
        <ele>714</ele>
        <time>2012-10-21T07:34:41.000Z</time>
      </trkpt>
      <trkpt lat="45.54764" lon="3.39848">
        <ele>716</ele>
        <time>2012-10-21T07:34:42.000Z</time>
      </trkpt>
      <trkpt lat="45.5476" lon="3.39851">
        <ele>720</ele>
        <time>2012-10-21T07:34:44.000Z</time>
      </trkpt>
      <trkpt lat="45.54758" lon="3.39853">
        <ele>722</ele>
        <time>2012-10-21T07:34:45.000Z</time>
      </trkpt>
      <trkpt lat="45.54756" lon="3.39856">
        <ele>720</ele>
        <time>2012-10-21T07:34:47.000Z</time>
      </trkpt>
      <trkpt lat="45.54754" lon="3.39857">
        <ele>718</ele>
        <time>2012-10-21T07:34:48.000Z</time>
      </trkpt>
      <trkpt lat="45.54751" lon="3.39861">
        <ele>720</ele>
        <time>2012-10-21T07:34:50.000Z</time>
      </trkpt>
      <trkpt lat="45.54749" lon="3.39862">
        <ele>717</ele>
        <time>2012-10-21T07:34:51.000Z</time>
      </trkpt>
      <trkpt lat="45.54746" lon="3.39864">
        <ele>720</ele>
        <time>2012-10-21T07:34:53.000Z</time>
      </trkpt>
      <trkpt lat="45.54745" lon="3.39865">
        <ele>723</ele>
        <time>2012-10-21T07:34:54.000Z</time>
      </trkpt>
      <trkpt lat="45.54741" lon="3.39868">
        <ele>726</ele>
        <time>2012-10-21T07:34:57.000Z</time>
      </trkpt>
      <trkpt lat="45.5474" lon="3.39868">
        <ele>723</ele>
        <time>2012-10-21T07:34:58.000Z</time>
      </trkpt>
      <trkpt lat="45.54736" lon="3.39871">
        <ele>721</ele>
        <time>2012-10-21T07:35:02.000Z</time>
      </trkpt>
      <trkpt lat="45.54734" lon="3.39873">
        <ele>723</ele>
        <time>2012-10-21T07:35:03.000Z</time>
      </trkpt>
      <trkpt lat="45.54732" lon="3.39875">
        <ele>727</ele>
        <time>2012-10-21T07:35:05.000Z</time>
      </trkpt>
      <trkpt lat="45.5473" lon="3.39876">
        <ele>728</ele>
        <time>2012-10-21T07:35:06.000Z</time>
      </trkpt>
      <trkpt lat="45.54727" lon="3.39879">
        <ele>728</ele>
        <time>2012-10-21T07:35:08.000Z</time>
      </trkpt>
      <trkpt lat="45.54726" lon="3.3988">
        <ele>729</ele>
        <time>2012-10-21T07:35:09.000Z</time>
      </trkpt>
      <trkpt lat="45.54723" lon="3.39884">
        <ele>736</ele>
        <time>2012-10-21T07:35:12.000Z</time>
      </trkpt>
      <trkpt lat="45.54722" lon="3.39885">
        <ele>740</ele>
        <time>2012-10-21T07:35:13.000Z</time>
      </trkpt>
      <trkpt lat="45.5472" lon="3.39891">
        <ele>734</ele>
        <time>2012-10-21T07:35:16.000Z</time>
      </trkpt>
      <trkpt lat="45.54719" lon="3.39892">
        <ele>729</ele>
        <time>2012-10-21T07:35:17.000Z</time>
      </trkpt>
      <trkpt lat="45.54717" lon="3.39896">
        <ele>732</ele>
        <time>2012-10-21T07:35:19.000Z</time>
      </trkpt>
      <trkpt lat="45.54716" lon="3.39898">
        <ele>735</ele>
        <time>2012-10-21T07:35:20.000Z</time>
      </trkpt>
      <trkpt lat="45.54714" lon="3.39903">
        <ele>736</ele>
        <time>2012-10-21T07:35:23.000Z</time>
      </trkpt>
      <trkpt lat="45.54713" lon="3.39905">
        <ele>732</ele>
        <time>2012-10-21T07:35:24.000Z</time>
      </trkpt>
      <trkpt lat="45.54711" lon="3.39908">
        <ele>732</ele>
        <time>2012-10-21T07:35:27.000Z</time>
      </trkpt>
      <trkpt lat="45.5471" lon="3.3991">
        <ele>735</ele>
        <time>2012-10-21T07:35:28.000Z</time>
      </trkpt>
      <trkpt lat="45.54708" lon="3.39913">
        <ele>736</ele>
        <time>2012-10-21T07:35:30.000Z</time>
      </trkpt>
      <trkpt lat="45.54707" lon="3.39915">
        <ele>738</ele>
        <time>2012-10-21T07:35:31.000Z</time>
      </trkpt>
      <trkpt lat="45.54705" lon="3.39919">
        <ele>740</ele>
        <time>2012-10-21T07:35:33.000Z</time>
      </trkpt>
      <trkpt lat="45.54704" lon="3.39921">
        <ele>741</ele>
        <time>2012-10-21T07:35:34.000Z</time>
      </trkpt>
      <trkpt lat="45.54702" lon="3.39926">
        <ele>739</ele>
        <time>2012-10-21T07:35:36.000Z</time>
      </trkpt>
      <trkpt lat="45.547" lon="3.39928">
        <ele>739</ele>
        <time>2012-10-21T07:35:37.000Z</time>
      </trkpt>
      <trkpt lat="45.54698" lon="3.39933">
        <ele>734</ele>
        <time>2012-10-21T07:35:39.000Z</time>
      </trkpt>
      <trkpt lat="45.54696" lon="3.39935">
        <ele>736</ele>
        <time>2012-10-21T07:35:40.000Z</time>
      </trkpt>
      <trkpt lat="45.54694" lon="3.3994">
        <ele>738</ele>
        <time>2012-10-21T07:35:42.000Z</time>
      </trkpt>
      <trkpt lat="45.54693" lon="3.39943">
        <ele>736</ele>
        <time>2012-10-21T07:35:43.000Z</time>
      </trkpt>
      <trkpt lat="45.54692" lon="3.39946">
        <ele>737</ele>
        <time>2012-10-21T07:35:44.000Z</time>
      </trkpt>
      <trkpt lat="45.54691" lon="3.39949">
        <ele>739</ele>
        <time>2012-10-21T07:35:45.000Z</time>
      </trkpt>
      <trkpt lat="45.5469" lon="3.39952">
        <ele>739</ele>
        <time>2012-10-21T07:35:46.000Z</time>
      </trkpt>
      <trkpt lat="45.54688" lon="3.39955">
        <ele>738</ele>
        <time>2012-10-21T07:35:47.000Z</time>
      </trkpt>
      <trkpt lat="45.54687" lon="3.39959">
        <ele>738</ele>
        <time>2012-10-21T07:35:48.000Z</time>
      </trkpt>
      <trkpt lat="45.54685" lon="3.39962">
        <ele>736</ele>
        <time>2012-10-21T07:35:49.000Z</time>
      </trkpt>
      <trkpt lat="45.54683" lon="3.39966">
        <ele>737</ele>
        <time>2012-10-21T07:35:50.000Z</time>
      </trkpt>
      <trkpt lat="45.54681" lon="3.39971">
        <ele>736</ele>
        <time>2012-10-21T07:35:51.000Z</time>
      </trkpt>
      <trkpt lat="45.54679" lon="3.39975">
        <ele>735</ele>
        <time>2012-10-21T07:35:52.000Z</time>
      </trkpt>
      <trkpt lat="45.54675" lon="3.3998">
        <ele>738</ele>
        <time>2012-10-21T07:35:53.000Z</time>
      </trkpt>
      <trkpt lat="45.54672" lon="3.39984">
        <ele>733</ele>
        <time>2012-10-21T07:35:54.000Z</time>
      </trkpt>
      <trkpt lat="45.54668" lon="3.39988">
        <ele>734</ele>
        <time>2012-10-21T07:35:55.000Z</time>
      </trkpt>
      <trkpt lat="45.54663" lon="3.39991">
        <ele>736</ele>
        <time>2012-10-21T07:35:56.000Z</time>
      </trkpt>
      <trkpt lat="45.54659" lon="3.39995">
        <ele>736</ele>
        <time>2012-10-21T07:35:57.000Z</time>
      </trkpt>
      <trkpt lat="45.54655" lon="3.39999">
        <ele>736</ele>
        <time>2012-10-21T07:35:58.000Z</time>
      </trkpt>
      <trkpt lat="45.54651" lon="3.40002">
        <ele>735</ele>
        <time>2012-10-21T07:35:59.000Z</time>
      </trkpt>
      <trkpt lat="45.54647" lon="3.40005">
        <ele>736</ele>
        <time>2012-10-21T07:36:00.000Z</time>
      </trkpt>
      <trkpt lat="45.54644" lon="3.40007">
        <ele>732</ele>
        <time>2012-10-21T07:36:01.000Z</time>
      </trkpt>
      <trkpt lat="45.5464" lon="3.4001">
        <ele>731</ele>
        <time>2012-10-21T07:36:02.000Z</time>
      </trkpt>
      <trkpt lat="45.54637" lon="3.40013">
        <ele>729</ele>
        <time>2012-10-21T07:36:03.000Z</time>
      </trkpt>
      <trkpt lat="45.54633" lon="3.40015">
        <ele>725</ele>
        <time>2012-10-21T07:36:04.000Z</time>
      </trkpt>
      <trkpt lat="45.54628" lon="3.4002">
        <ele>730</ele>
        <time>2012-10-21T07:36:05.000Z</time>
      </trkpt>
      <trkpt lat="45.54625" lon="3.40023">
        <ele>726</ele>
        <time>2012-10-21T07:36:06.000Z</time>
      </trkpt>
      <trkpt lat="45.54621" lon="3.40027">
        <ele>728</ele>
        <time>2012-10-21T07:36:07.000Z</time>
      </trkpt>
      <trkpt lat="45.54618" lon="3.40029">
        <ele>728</ele>
        <time>2012-10-21T07:36:08.000Z</time>
      </trkpt>
      <trkpt lat="45.54615" lon="3.40031">
        <ele>730</ele>
        <time>2012-10-21T07:36:09.000Z</time>
      </trkpt>
      <trkpt lat="45.54612" lon="3.40035">
        <ele>728</ele>
        <time>2012-10-21T07:36:11.000Z</time>
      </trkpt>
      <trkpt lat="45.5461" lon="3.40037">
        <ele>726</ele>
        <time>2012-10-21T07:36:12.000Z</time>
      </trkpt>
      <trkpt lat="45.54607" lon="3.4004">
        <ele>730</ele>
        <time>2012-10-21T07:36:14.000Z</time>
      </trkpt>
      <trkpt lat="45.54605" lon="3.40042">
        <ele>728</ele>
        <time>2012-10-21T07:36:15.000Z</time>
      </trkpt>
      <trkpt lat="45.54602" lon="3.40045">
        <ele>723</ele>
        <time>2012-10-21T07:36:18.000Z</time>
      </trkpt>
      <trkpt lat="45.54601" lon="3.40045">
        <ele>726</ele>
        <time>2012-10-21T07:36:19.000Z</time>
      </trkpt>
      <trkpt lat="45.54601" lon="3.40039">
        <ele>736</ele>
        <time>2012-10-21T07:36:35.000Z</time>
      </trkpt>
      <trkpt lat="45.54601" lon="3.40038">
        <ele>739</ele>
        <time>2012-10-21T07:36:36.000Z</time>
      </trkpt>
      <trkpt lat="45.546" lon="3.40043">
        <ele>709</ele>
        <time>2012-10-21T07:37:09.000Z</time>
      </trkpt>
      <trkpt lat="45.546" lon="3.40044">
        <ele>709</ele>
        <time>2012-10-21T07:37:10.000Z</time>
      </trkpt>
      <trkpt lat="45.54601" lon="3.4005">
        <ele>720</ele>
        <time>2012-10-21T07:37:16.000Z</time>
      </trkpt>
      <trkpt lat="45.54602" lon="3.40051">
        <ele>723</ele>
        <time>2012-10-21T07:37:17.000Z</time>
      </trkpt>
      <trkpt lat="45.54604" lon="3.4005">
        <ele>730</ele>
        <time>2012-10-21T07:37:38.000Z</time>
      </trkpt>
      <trkpt lat="45.54605" lon="3.40046">
        <ele>732</ele>
        <time>2012-10-21T07:37:39.000Z</time>
      </trkpt>
      <trkpt lat="45.54602" lon="3.40042">
        <ele>716</ele>
        <time>2012-10-21T07:38:24.000Z</time>
      </trkpt>
      <trkpt lat="45.54601" lon="3.40042">
        <ele>717</ele>
        <time>2012-10-21T07:38:25.000Z</time>
      </trkpt>
      <trkpt lat="45.54596" lon="3.40041">
        <ele>718</ele>
        <time>2012-10-21T07:38:28.000Z</time>
      </trkpt>
      <trkpt lat="45.54595" lon="3.40039">
        <ele>719</ele>
        <time>2012-10-21T07:38:29.000Z</time>
      </trkpt>
      <trkpt lat="45.54593" lon="3.40037">
        <ele>717</ele>
        <time>2012-10-21T07:38:30.000Z</time>
      </trkpt>
      <trkpt lat="45.5459" lon="3.40035">
        <ele>716</ele>
        <time>2012-10-21T07:38:31.000Z</time>
      </trkpt>
      <trkpt lat="45.54588" lon="3.40033">
        <ele>715</ele>
        <time>2012-10-21T07:38:32.000Z</time>
      </trkpt>
      <trkpt lat="45.54584" lon="3.40032">
        <ele>718</ele>
        <time>2012-10-21T07:38:33.000Z</time>
      </trkpt>
      <trkpt lat="45.5458" lon="3.40032">
        <ele>717</ele>
        <time>2012-10-21T07:38:34.000Z</time>
      </trkpt>
      <trkpt lat="45.54575" lon="3.40032">
        <ele>719</ele>
        <time>2012-10-21T07:38:35.000Z</time>
      </trkpt>
      <trkpt lat="45.5457" lon="3.40033">
        <ele>721</ele>
        <time>2012-10-21T07:38:36.000Z</time>
      </trkpt>
      <trkpt lat="45.54565" lon="3.40035">
        <ele>718</ele>
        <time>2012-10-21T07:38:37.000Z</time>
      </trkpt>
      <trkpt lat="45.5456" lon="3.40037">
        <ele>714</ele>
        <time>2012-10-21T07:38:38.000Z</time>
      </trkpt>
      <trkpt lat="45.54555" lon="3.4004">
        <ele>713</ele>
        <time>2012-10-21T07:38:39.000Z</time>
      </trkpt>
      <trkpt lat="45.5455" lon="3.40044">
        <ele>711</ele>
        <time>2012-10-21T07:38:40.000Z</time>
      </trkpt>
      <trkpt lat="45.54545" lon="3.40048">
        <ele>713</ele>
        <time>2012-10-21T07:38:41.000Z</time>
      </trkpt>
      <trkpt lat="45.54539" lon="3.40052">
        <ele>714</ele>
        <time>2012-10-21T07:38:42.000Z</time>
      </trkpt>
      <trkpt lat="45.54532" lon="3.40056">
        <ele>712</ele>
        <time>2012-10-21T07:38:43.000Z</time>
      </trkpt>
      <trkpt lat="45.54526" lon="3.4006">
        <ele>711</ele>
        <time>2012-10-21T07:38:44.000Z</time>
      </trkpt>
      <trkpt lat="45.54519" lon="3.40064">
        <ele>712</ele>
        <time>2012-10-21T07:38:45.000Z</time>
      </trkpt>
      <trkpt lat="45.54512" lon="3.40069">
        <ele>714</ele>
        <time>2012-10-21T07:38:46.000Z</time>
      </trkpt>
      <trkpt lat="45.54504" lon="3.40075">
        <ele>715</ele>
        <time>2012-10-21T07:38:47.000Z</time>
      </trkpt>
      <trkpt lat="45.54496" lon="3.4008">
        <ele>717</ele>
        <time>2012-10-21T07:38:48.000Z</time>
      </trkpt>
      <trkpt lat="45.54488" lon="3.40085">
        <ele>718</ele>
        <time>2012-10-21T07:38:49.000Z</time>
      </trkpt>
      <trkpt lat="45.54481" lon="3.40091">
        <ele>716</ele>
        <time>2012-10-21T07:38:50.000Z</time>
      </trkpt>
      <trkpt lat="45.54475" lon="3.40098">
        <ele>714</ele>
        <time>2012-10-21T07:38:51.000Z</time>
      </trkpt>
      <trkpt lat="45.5447" lon="3.40104">
        <ele>716</ele>
        <time>2012-10-21T07:38:52.000Z</time>
      </trkpt>
      <trkpt lat="45.54463" lon="3.40112">
        <ele>713</ele>
        <time>2012-10-21T07:38:53.000Z</time>
      </trkpt>
      <trkpt lat="45.54458" lon="3.40118">
        <ele>709</ele>
        <time>2012-10-21T07:38:54.000Z</time>
      </trkpt>
      <trkpt lat="45.54453" lon="3.40125">
        <ele>711</ele>
        <time>2012-10-21T07:38:55.000Z</time>
      </trkpt>
      <trkpt lat="45.54448" lon="3.40132">
        <ele>714</ele>
        <time>2012-10-21T07:38:56.000Z</time>
      </trkpt>
      <trkpt lat="45.54442" lon="3.4014">
        <ele>714</ele>
        <time>2012-10-21T07:38:57.000Z</time>
      </trkpt>
      <trkpt lat="45.54436" lon="3.40146">
        <ele>714</ele>
        <time>2012-10-21T07:38:58.000Z</time>
      </trkpt>
      <trkpt lat="45.5443" lon="3.40153">
        <ele>713</ele>
        <time>2012-10-21T07:38:59.000Z</time>
      </trkpt>
      <trkpt lat="45.54424" lon="3.4016">
        <ele>711</ele>
        <time>2012-10-21T07:39:00.000Z</time>
      </trkpt>
      <trkpt lat="45.54418" lon="3.40166">
        <ele>711</ele>
        <time>2012-10-21T07:39:01.000Z</time>
      </trkpt>
      <trkpt lat="45.54412" lon="3.40172">
        <ele>712</ele>
        <time>2012-10-21T07:39:02.000Z</time>
      </trkpt>
      <trkpt lat="45.54406" lon="3.4018">
        <ele>710</ele>
        <time>2012-10-21T07:39:03.000Z</time>
      </trkpt>
      <trkpt lat="45.54398" lon="3.40187">
        <ele>709</ele>
        <time>2012-10-21T07:39:04.000Z</time>
      </trkpt>
      <trkpt lat="45.54391" lon="3.40193">
        <ele>711</ele>
        <time>2012-10-21T07:39:05.000Z</time>
      </trkpt>
      <trkpt lat="45.54384" lon="3.40198">
        <ele>708</ele>
        <time>2012-10-21T07:39:06.000Z</time>
      </trkpt>
      <trkpt lat="45.54377" lon="3.40203">
        <ele>708</ele>
        <time>2012-10-21T07:39:07.000Z</time>
      </trkpt>
      <trkpt lat="45.54369" lon="3.40203">
        <ele>705</ele>
        <time>2012-10-21T07:39:08.000Z</time>
      </trkpt>
      <trkpt lat="45.54363" lon="3.40201">
        <ele>706</ele>
        <time>2012-10-21T07:39:09.000Z</time>
      </trkpt>
      <trkpt lat="45.54357" lon="3.40198">
        <ele>705</ele>
        <time>2012-10-21T07:39:10.000Z</time>
      </trkpt>
      <trkpt lat="45.54352" lon="3.40192">
        <ele>709</ele>
        <time>2012-10-21T07:39:11.000Z</time>
      </trkpt>
      <trkpt lat="45.54351" lon="3.40184">
        <ele>708</ele>
        <time>2012-10-21T07:39:12.000Z</time>
      </trkpt>
      <trkpt lat="45.54351" lon="3.40178">
        <ele>709</ele>
        <time>2012-10-21T07:39:13.000Z</time>
      </trkpt>
      <trkpt lat="45.54351" lon="3.40172">
        <ele>710</ele>
        <time>2012-10-21T07:39:14.000Z</time>
      </trkpt>
      <trkpt lat="45.54349" lon="3.40168">
        <ele>710</ele>
        <time>2012-10-21T07:39:21.000Z</time>
      </trkpt>
      <trkpt lat="45.5434" lon="3.40163">
        <ele>713</ele>
        <time>2012-10-21T07:39:22.000Z</time>
      </trkpt>
      <trkpt lat="45.54331" lon="3.40163">
        <ele>714</ele>
        <time>2012-10-21T07:39:29.000Z</time>
      </trkpt>
      <trkpt lat="45.54322" lon="3.40165">
        <ele>714</ele>
        <time>2012-10-21T07:39:33.000Z</time>
      </trkpt>
      <trkpt lat="45.54313" lon="3.40168">
        <ele>716</ele>
        <time>2012-10-21T07:39:40.000Z</time>
      </trkpt>
      <trkpt lat="45.54303" lon="3.40168">
        <ele>713</ele>
        <time>2012-10-21T07:39:47.000Z</time>
      </trkpt>
      <trkpt lat="45.54296" lon="3.40168">
        <ele>714</ele>
        <time>2012-10-21T07:39:52.000Z</time>
      </trkpt>
      <trkpt lat="45.54286" lon="3.4017">
        <ele>720</ele>
        <time>2012-10-21T07:40:03.000Z</time>
      </trkpt>
      <trkpt lat="45.54274" lon="3.40168">
        <ele>716</ele>
        <time>2012-10-21T07:40:07.000Z</time>
      </trkpt>
      <trkpt lat="45.54263" lon="3.40167">
        <ele>717</ele>
        <time>2012-10-21T07:40:12.000Z</time>
      </trkpt>
      <trkpt lat="45.54255" lon="3.40165">
        <ele>719</ele>
        <time>2012-10-21T07:40:17.000Z</time>
      </trkpt>
      <trkpt lat="45.5425" lon="3.40164">
        <ele>718</ele>
        <time>2012-10-21T07:40:20.000Z</time>
      </trkpt>
      <trkpt lat="45.54249" lon="3.40164">
        <ele>716</ele>
        <time>2012-10-21T07:40:27.000Z</time>
      </trkpt>
      <trkpt lat="45.54239" lon="3.40163">
        <ele>707</ele>
        <time>2012-10-21T07:40:28.000Z</time>
      </trkpt>
      <trkpt lat="45.5423" lon="3.40163">
        <ele>716</ele>
        <time>2012-10-21T07:40:35.000Z</time>
      </trkpt>
      <trkpt lat="45.54219" lon="3.40164">
        <ele>714</ele>
        <time>2012-10-21T07:40:41.000Z</time>
      </trkpt>
      <trkpt lat="45.54209" lon="3.40166">
        <ele>723</ele>
        <time>2012-10-21T07:40:49.000Z</time>
      </trkpt>
      <trkpt lat="45.54199" lon="3.40173">
        <ele>717</ele>
        <time>2012-10-21T07:40:53.000Z</time>
      </trkpt>
      <trkpt lat="45.54193" lon="3.40182">
        <ele>713</ele>
        <time>2012-10-21T07:40:58.000Z</time>
      </trkpt>
      <trkpt lat="45.54185" lon="3.40193">
        <ele>714</ele>
        <time>2012-10-21T07:41:03.000Z</time>
      </trkpt>
      <trkpt lat="45.54179" lon="3.40202">
        <ele>721</ele>
        <time>2012-10-21T07:41:07.000Z</time>
      </trkpt>
      <trkpt lat="45.54177" lon="3.40205">
        <ele>722</ele>
        <time>2012-10-21T07:41:08.000Z</time>
      </trkpt>
      <trkpt lat="45.54175" lon="3.40207">
        <ele>722</ele>
        <time>2012-10-21T07:41:09.000Z</time>
      </trkpt>
      <trkpt lat="45.54173" lon="3.40209">
        <ele>726</ele>
        <time>2012-10-21T07:41:10.000Z</time>
      </trkpt>
      <trkpt lat="45.54171" lon="3.40212">
        <ele>722</ele>
        <time>2012-10-21T07:41:11.000Z</time>
      </trkpt>
      <trkpt lat="45.54168" lon="3.40217">
        <ele>717</ele>
        <time>2012-10-21T07:41:13.000Z</time>
      </trkpt>
      <trkpt lat="45.54165" lon="3.40222">
        <ele>717</ele>
        <time>2012-10-21T07:41:15.000Z</time>
      </trkpt>
      <trkpt lat="45.54164" lon="3.40224">
        <ele>718</ele>
        <time>2012-10-21T07:41:16.000Z</time>
      </trkpt>
      <trkpt lat="45.54161" lon="3.4023">
        <ele>722</ele>
        <time>2012-10-21T07:41:19.000Z</time>
      </trkpt>
      <trkpt lat="45.54159" lon="3.40233">
        <ele>722</ele>
        <time>2012-10-21T07:41:21.000Z</time>
      </trkpt>
      <trkpt lat="45.54158" lon="3.40234">
        <ele>725</ele>
        <time>2012-10-21T07:41:22.000Z</time>
      </trkpt>
      <trkpt lat="45.54154" lon="3.40238">
        <ele>725</ele>
        <time>2012-10-21T07:41:25.000Z</time>
      </trkpt>
      <trkpt lat="45.54151" lon="3.40242">
        <ele>723</ele>
        <time>2012-10-21T07:41:28.000Z</time>
      </trkpt>
      <trkpt lat="45.54149" lon="3.40243">
        <ele>725</ele>
        <time>2012-10-21T07:41:29.000Z</time>
      </trkpt>
      <trkpt lat="45.54147" lon="3.40245">
        <ele>727</ele>
        <time>2012-10-21T07:41:33.000Z</time>
      </trkpt>
      <trkpt lat="45.54143" lon="3.4025">
        <ele>729</ele>
        <time>2012-10-21T07:41:34.000Z</time>
      </trkpt>
      <trkpt lat="45.5414" lon="3.40253">
        <ele>726</ele>
        <time>2012-10-21T07:41:36.000Z</time>
      </trkpt>
      <trkpt lat="45.54139" lon="3.40255">
        <ele>727</ele>
        <time>2012-10-21T07:41:37.000Z</time>
      </trkpt>
      <trkpt lat="45.54135" lon="3.40259">
        <ele>731</ele>
        <time>2012-10-21T07:41:43.000Z</time>
      </trkpt>
      <trkpt lat="45.54131" lon="3.40262">
        <ele>737</ele>
        <time>2012-10-21T07:41:44.000Z</time>
      </trkpt>
      <trkpt lat="45.54127" lon="3.40264">
        <ele>736</ele>
        <time>2012-10-21T07:41:47.000Z</time>
      </trkpt>
      <trkpt lat="45.54126" lon="3.40265">
        <ele>737</ele>
        <time>2012-10-21T07:41:48.000Z</time>
      </trkpt>
      <trkpt lat="45.54122" lon="3.40268">
        <ele>738</ele>
        <time>2012-10-21T07:41:51.000Z</time>
      </trkpt>
      <trkpt lat="45.54121" lon="3.40269">
        <ele>736</ele>
        <time>2012-10-21T07:41:52.000Z</time>
      </trkpt>
      <trkpt lat="45.5412" lon="3.4027">
        <ele>736</ele>
        <time>2012-10-21T07:41:56.000Z</time>
      </trkpt>
      <trkpt lat="45.54116" lon="3.40275">
        <ele>738</ele>
        <time>2012-10-21T07:41:57.000Z</time>
      </trkpt>
      <trkpt lat="45.54114" lon="3.40276">
        <ele>737</ele>
        <time>2012-10-21T07:42:01.000Z</time>
      </trkpt>
      <trkpt lat="45.54109" lon="3.40281">
        <ele>736</ele>
        <time>2012-10-21T07:42:02.000Z</time>
      </trkpt>
      <trkpt lat="45.54105" lon="3.40284">
        <ele>735</ele>
        <time>2012-10-21T07:42:05.000Z</time>
      </trkpt>
      <trkpt lat="45.54103" lon="3.40285">
        <ele>730</ele>
        <time>2012-10-21T07:42:06.000Z</time>
      </trkpt>
      <trkpt lat="45.54101" lon="3.40286">
        <ele>731</ele>
        <time>2012-10-21T07:42:08.000Z</time>
      </trkpt>
      <trkpt lat="45.54098" lon="3.40289">
        <ele>736</ele>
        <time>2012-10-21T07:42:09.000Z</time>
      </trkpt>
      <trkpt lat="45.54095" lon="3.40292">
        <ele>735</ele>
        <time>2012-10-21T07:42:11.000Z</time>
      </trkpt>
      <trkpt lat="45.54093" lon="3.40293">
        <ele>736</ele>
        <time>2012-10-21T07:42:12.000Z</time>
      </trkpt>
      <trkpt lat="45.54089" lon="3.40296">
        <ele>735</ele>
        <time>2012-10-21T07:42:14.000Z</time>
      </trkpt>
      <trkpt lat="45.54087" lon="3.40297">
        <ele>736</ele>
        <time>2012-10-21T07:42:15.000Z</time>
      </trkpt>
      <trkpt lat="45.54082" lon="3.403">
        <ele>738</ele>
        <time>2012-10-21T07:42:18.000Z</time>
      </trkpt>
      <trkpt lat="45.54079" lon="3.40302">
        <ele>735</ele>
        <time>2012-10-21T07:42:20.000Z</time>
      </trkpt>
      <trkpt lat="45.54077" lon="3.40302">
        <ele>735</ele>
        <time>2012-10-21T07:42:21.000Z</time>
      </trkpt>
      <trkpt lat="45.54075" lon="3.40303">
        <ele>736</ele>
        <time>2012-10-21T07:42:24.000Z</time>
      </trkpt>
      <trkpt lat="45.5407" lon="3.40302">
        <ele>736</ele>
        <time>2012-10-21T07:42:25.000Z</time>
      </trkpt>
      <trkpt lat="45.54063" lon="3.40298">
        <ele>742</ele>
        <time>2012-10-21T07:42:29.000Z</time>
      </trkpt>
      <trkpt lat="45.54057" lon="3.40288">
        <ele>747</ele>
        <time>2012-10-21T07:42:35.000Z</time>
      </trkpt>
      <trkpt lat="45.54049" lon="3.40278">
        <ele>743</ele>
        <time>2012-10-21T07:42:41.000Z</time>
      </trkpt>
      <trkpt lat="45.54046" lon="3.40277">
        <ele>744</ele>
        <time>2012-10-21T07:42:42.000Z</time>
      </trkpt>
      <trkpt lat="45.54043" lon="3.40276">
        <ele>744</ele>
        <time>2012-10-21T07:42:43.000Z</time>
      </trkpt>
      <trkpt lat="45.54036" lon="3.40274">
        <ele>745</ele>
        <time>2012-10-21T07:42:45.000Z</time>
      </trkpt>
      <trkpt lat="45.54033" lon="3.40274">
        <ele>746</ele>
        <time>2012-10-21T07:42:48.000Z</time>
      </trkpt>
      <trkpt lat="45.54027" lon="3.40273">
        <ele>746</ele>
        <time>2012-10-21T07:42:49.000Z</time>
      </trkpt>
      <trkpt lat="45.54023" lon="3.40272">
        <ele>748</ele>
        <time>2012-10-21T07:42:56.000Z</time>
      </trkpt>
      <trkpt lat="45.54014" lon="3.40269">
        <ele>748</ele>
        <time>2012-10-21T07:42:57.000Z</time>
      </trkpt>
      <trkpt lat="45.54003" lon="3.40264">
        <ele>746</ele>
        <time>2012-10-21T07:43:07.000Z</time>
      </trkpt>
      <trkpt lat="45.53994" lon="3.40257">
        <ele>747</ele>
        <time>2012-10-21T07:43:14.000Z</time>
      </trkpt>
      <trkpt lat="45.53986" lon="3.40247">
        <ele>756</ele>
        <time>2012-10-21T07:43:19.000Z</time>
      </trkpt>
      <trkpt lat="45.5398" lon="3.40241">
        <ele>756</ele>
        <time>2012-10-21T07:43:23.000Z</time>
      </trkpt>
      <trkpt lat="45.53977" lon="3.40236">
        <ele>755</ele>
        <time>2012-10-21T07:43:26.000Z</time>
      </trkpt>
      <trkpt lat="45.53976" lon="3.40231">
        <ele>764</ele>
        <time>2012-10-21T07:43:31.000Z</time>
      </trkpt>
      <trkpt lat="45.53975" lon="3.40221">
        <ele>768</ele>
        <time>2012-10-21T07:43:32.000Z</time>
      </trkpt>
      <trkpt lat="45.53974" lon="3.40216">
        <ele>764</ele>
        <time>2012-10-21T07:43:34.000Z</time>
      </trkpt>
      <trkpt lat="45.53974" lon="3.40214">
        <ele>763</ele>
        <time>2012-10-21T07:43:35.000Z</time>
      </trkpt>
      <trkpt lat="45.53973" lon="3.402">
        <ele>763</ele>
        <time>2012-10-21T07:43:41.000Z</time>
      </trkpt>
      <trkpt lat="45.53976" lon="3.40194">
        <ele>765</ele>
        <time>2012-10-21T07:43:45.000Z</time>
      </trkpt>
      <trkpt lat="45.53979" lon="3.40191">
        <ele>760</ele>
        <time>2012-10-21T07:43:49.000Z</time>
      </trkpt>
      <trkpt lat="45.53981" lon="3.40187">
        <ele>761</ele>
        <time>2012-10-21T07:43:50.000Z</time>
      </trkpt>
      <trkpt lat="45.53983" lon="3.40185">
        <ele>760</ele>
        <time>2012-10-21T07:43:52.000Z</time>
      </trkpt>
      <trkpt lat="45.53986" lon="3.40181">
        <ele>761</ele>
        <time>2012-10-21T07:43:53.000Z</time>
      </trkpt>
      <trkpt lat="45.53989" lon="3.40178">
        <ele>758</ele>
        <time>2012-10-21T07:43:55.000Z</time>
      </trkpt>
      <trkpt lat="45.53992" lon="3.40176">
        <ele>760</ele>
        <time>2012-10-21T07:43:56.000Z</time>
      </trkpt>
      <trkpt lat="45.53995" lon="3.40174">
        <ele>763</ele>
        <time>2012-10-21T07:43:57.000Z</time>
      </trkpt>
      <trkpt lat="45.53999" lon="3.40172">
        <ele>757</ele>
        <time>2012-10-21T07:43:58.000Z</time>
      </trkpt>
      <trkpt lat="45.54005" lon="3.40169">
        <ele>756</ele>
        <time>2012-10-21T07:43:59.000Z</time>
      </trkpt>
      <trkpt lat="45.5401" lon="3.40165">
        <ele>755</ele>
        <time>2012-10-21T07:44:00.000Z</time>
      </trkpt>
      <trkpt lat="45.54016" lon="3.4016">
        <ele>758</ele>
        <time>2012-10-21T07:44:01.000Z</time>
      </trkpt>
      <trkpt lat="45.54023" lon="3.40155">
        <ele>758</ele>
        <time>2012-10-21T07:44:02.000Z</time>
      </trkpt>
      <trkpt lat="45.54031" lon="3.4015">
        <ele>755</ele>
        <time>2012-10-21T07:44:03.000Z</time>
      </trkpt>
      <trkpt lat="45.54038" lon="3.40145">
        <ele>757</ele>
        <time>2012-10-21T07:44:04.000Z</time>
      </trkpt>
      <trkpt lat="45.54046" lon="3.40139">
        <ele>756</ele>
        <time>2012-10-21T07:44:05.000Z</time>
      </trkpt>
      <trkpt lat="45.54055" lon="3.40134">
        <ele>755</ele>
        <time>2012-10-21T07:44:06.000Z</time>
      </trkpt>
      <trkpt lat="45.54063" lon="3.40128">
        <ele>756</ele>
        <time>2012-10-21T07:44:07.000Z</time>
      </trkpt>
      <trkpt lat="45.54071" lon="3.40122">
        <ele>754</ele>
        <time>2012-10-21T07:44:08.000Z</time>
      </trkpt>
      <trkpt lat="45.5408" lon="3.40115">
        <ele>754</ele>
        <time>2012-10-21T07:44:09.000Z</time>
      </trkpt>
      <trkpt lat="45.54088" lon="3.40109">
        <ele>755</ele>
        <time>2012-10-21T07:44:10.000Z</time>
      </trkpt>
      <trkpt lat="45.54097" lon="3.40103">
        <ele>754</ele>
        <time>2012-10-21T07:44:11.000Z</time>
      </trkpt>
      <trkpt lat="45.54106" lon="3.40097">
        <ele>756</ele>
        <time>2012-10-21T07:44:12.000Z</time>
      </trkpt>
      <trkpt lat="45.54115" lon="3.40093">
        <ele>752</ele>
        <time>2012-10-21T07:44:13.000Z</time>
      </trkpt>
      <trkpt lat="45.54124" lon="3.40089">
        <ele>751</ele>
        <time>2012-10-21T07:44:14.000Z</time>
      </trkpt>
      <trkpt lat="45.54133" lon="3.40086">
        <ele>749</ele>
        <time>2012-10-21T07:44:15.000Z</time>
      </trkpt>
      <trkpt lat="45.54142" lon="3.40083">
        <ele>749</ele>
        <time>2012-10-21T07:44:16.000Z</time>
      </trkpt>
      <trkpt lat="45.54152" lon="3.40081">
        <ele>748</ele>
        <time>2012-10-21T07:44:17.000Z</time>
      </trkpt>
      <trkpt lat="45.54162" lon="3.40079">
        <ele>747</ele>
        <time>2012-10-21T07:44:18.000Z</time>
      </trkpt>
      <trkpt lat="45.54172" lon="3.40076">
        <ele>747</ele>
        <time>2012-10-21T07:44:19.000Z</time>
      </trkpt>
      <trkpt lat="45.54181" lon="3.40074">
        <ele>746</ele>
        <time>2012-10-21T07:44:20.000Z</time>
      </trkpt>
      <trkpt lat="45.54191" lon="3.4007">
        <ele>746</ele>
        <time>2012-10-21T07:44:21.000Z</time>
      </trkpt>
      <trkpt lat="45.542" lon="3.40066">
        <ele>746</ele>
        <time>2012-10-21T07:44:22.000Z</time>
      </trkpt>
      <trkpt lat="45.54209" lon="3.40062">
        <ele>747</ele>
        <time>2012-10-21T07:44:23.000Z</time>
      </trkpt>
      <trkpt lat="45.54217" lon="3.40057">
        <ele>746</ele>
        <time>2012-10-21T07:44:24.000Z</time>
      </trkpt>
      <trkpt lat="45.54226" lon="3.4005">
        <ele>748</ele>
        <time>2012-10-21T07:44:25.000Z</time>
      </trkpt>
      <trkpt lat="45.54234" lon="3.40043">
        <ele>745</ele>
        <time>2012-10-21T07:44:26.000Z</time>
      </trkpt>
      <trkpt lat="45.54241" lon="3.40035">
        <ele>745</ele>
        <time>2012-10-21T07:44:27.000Z</time>
      </trkpt>
      <trkpt lat="45.54249" lon="3.40027">
        <ele>746</ele>
        <time>2012-10-21T07:44:28.000Z</time>
      </trkpt>
      <trkpt lat="45.54256" lon="3.40018">
        <ele>749</ele>
        <time>2012-10-21T07:44:29.000Z</time>
      </trkpt>
      <trkpt lat="45.54263" lon="3.4001">
        <ele>747</ele>
        <time>2012-10-21T07:44:30.000Z</time>
      </trkpt>
      <trkpt lat="45.5427" lon="3.40002">
        <ele>749</ele>
        <time>2012-10-21T07:44:31.000Z</time>
      </trkpt>
      <trkpt lat="45.54275" lon="3.39992">
        <ele>747</ele>
        <time>2012-10-21T07:44:32.000Z</time>
      </trkpt>
      <trkpt lat="45.54281" lon="3.39981">
        <ele>744</ele>
        <time>2012-10-21T07:44:33.000Z</time>
      </trkpt>
      <trkpt lat="45.54286" lon="3.3997">
        <ele>742</ele>
        <time>2012-10-21T07:44:34.000Z</time>
      </trkpt>
      <trkpt lat="45.54288" lon="3.39957">
        <ele>742</ele>
        <time>2012-10-21T07:44:35.000Z</time>
      </trkpt>
      <trkpt lat="45.54291" lon="3.39943">
        <ele>744</ele>
        <time>2012-10-21T07:44:36.000Z</time>
      </trkpt>
      <trkpt lat="45.54294" lon="3.39928">
        <ele>745</ele>
        <time>2012-10-21T07:44:37.000Z</time>
      </trkpt>
      <trkpt lat="45.54296" lon="3.39913">
        <ele>742</ele>
        <time>2012-10-21T07:44:38.000Z</time>
      </trkpt>
      <trkpt lat="45.54298" lon="3.399">
        <ele>741</ele>
        <time>2012-10-21T07:44:39.000Z</time>
      </trkpt>
      <trkpt lat="45.54298" lon="3.39886">
        <ele>743</ele>
        <time>2012-10-21T07:44:40.000Z</time>
      </trkpt>
      <trkpt lat="45.543" lon="3.39872">
        <ele>737</ele>
        <time>2012-10-21T07:44:41.000Z</time>
      </trkpt>
      <trkpt lat="45.543" lon="3.39859">
        <ele>736</ele>
        <time>2012-10-21T07:44:42.000Z</time>
      </trkpt>
      <trkpt lat="45.54299" lon="3.39843">
        <ele>742</ele>
        <time>2012-10-21T07:44:43.000Z</time>
      </trkpt>
      <trkpt lat="45.54297" lon="3.39827">
        <ele>726</ele>
        <time>2012-10-21T07:44:44.000Z</time>
      </trkpt>
      <trkpt lat="45.54295" lon="3.39813">
        <ele>727</ele>
        <time>2012-10-21T07:44:45.000Z</time>
      </trkpt>
      <trkpt lat="45.54293" lon="3.39802">
        <ele>727</ele>
        <time>2012-10-21T07:44:46.000Z</time>
      </trkpt>
      <trkpt lat="45.5429" lon="3.39791">
        <ele>726</ele>
        <time>2012-10-21T07:44:47.000Z</time>
      </trkpt>
      <trkpt lat="45.54287" lon="3.39783">
        <ele>725</ele>
        <time>2012-10-21T07:44:48.000Z</time>
      </trkpt>
      <trkpt lat="45.54285" lon="3.39778">
        <ele>727</ele>
        <time>2012-10-21T07:44:51.000Z</time>
      </trkpt>
      <trkpt lat="45.54285" lon="3.39773">
        <ele>727</ele>
        <time>2012-10-21T07:44:52.000Z</time>
      </trkpt>
      <trkpt lat="45.54273" lon="3.39771">
        <ele>735</ele>
        <time>2012-10-21T07:44:54.000Z</time>
      </trkpt>
      <trkpt lat="45.54263" lon="3.3977">
        <ele>734</ele>
        <time>2012-10-21T07:44:57.000Z</time>
      </trkpt>
      <trkpt lat="45.54254" lon="3.39771">
        <ele>736</ele>
        <time>2012-10-21T07:45:12.000Z</time>
      </trkpt>
      <trkpt lat="45.54246" lon="3.39765">
        <ele>732</ele>
        <time>2012-10-21T07:45:31.000Z</time>
      </trkpt>
      <trkpt lat="45.54244" lon="3.39763">
        <ele>731</ele>
        <time>2012-10-21T07:45:32.000Z</time>
      </trkpt>
      <trkpt lat="45.54242" lon="3.3976">
        <ele>731</ele>
        <time>2012-10-21T07:45:33.000Z</time>
      </trkpt>
      <trkpt lat="45.54239" lon="3.39758">
        <ele>730</ele>
        <time>2012-10-21T07:45:34.000Z</time>
      </trkpt>
      <trkpt lat="45.54236" lon="3.39756">
        <ele>731</ele>
        <time>2012-10-21T07:45:35.000Z</time>
      </trkpt>
      <trkpt lat="45.54233" lon="3.39754">
        <ele>730</ele>
        <time>2012-10-21T07:45:36.000Z</time>
      </trkpt>
      <trkpt lat="45.5423" lon="3.39751">
        <ele>728</ele>
        <time>2012-10-21T07:45:37.000Z</time>
      </trkpt>
      <trkpt lat="45.54226" lon="3.39748">
        <ele>728</ele>
        <time>2012-10-21T07:45:38.000Z</time>
      </trkpt>
      <trkpt lat="45.54221" lon="3.39744">
        <ele>728</ele>
        <time>2012-10-21T07:45:39.000Z</time>
      </trkpt>
      <trkpt lat="45.54216" lon="3.39741">
        <ele>727</ele>
        <time>2012-10-21T07:45:40.000Z</time>
      </trkpt>
      <trkpt lat="45.54213" lon="3.39735">
        <ele>727</ele>
        <time>2012-10-21T07:45:41.000Z</time>
      </trkpt>
      <trkpt lat="45.5421" lon="3.39729">
        <ele>725</ele>
        <time>2012-10-21T07:45:42.000Z</time>
      </trkpt>
      <trkpt lat="45.54208" lon="3.39721">
        <ele>725</ele>
        <time>2012-10-21T07:45:43.000Z</time>
      </trkpt>
      <trkpt lat="45.54208" lon="3.39711">
        <ele>724</ele>
        <time>2012-10-21T07:45:44.000Z</time>
      </trkpt>
      <trkpt lat="45.5421" lon="3.39698">
        <ele>725</ele>
        <time>2012-10-21T07:45:45.000Z</time>
      </trkpt>
      <trkpt lat="45.54213" lon="3.39688">
        <ele>726</ele>
        <time>2012-10-21T07:45:46.000Z</time>
      </trkpt>
      <trkpt lat="45.54216" lon="3.39679">
        <ele>729</ele>
        <time>2012-10-21T07:45:47.000Z</time>
      </trkpt>
      <trkpt lat="45.54217" lon="3.39673">
        <ele>728</ele>
        <time>2012-10-21T07:45:48.000Z</time>
      </trkpt>
      <trkpt lat="45.54218" lon="3.39668">
        <ele>727</ele>
        <time>2012-10-21T07:45:49.000Z</time>
      </trkpt>
      <trkpt lat="45.54218" lon="3.39663">
        <ele>726</ele>
        <time>2012-10-21T07:45:50.000Z</time>
      </trkpt>
      <trkpt lat="45.54217" lon="3.39657">
        <ele>721</ele>
        <time>2012-10-21T07:45:51.000Z</time>
      </trkpt>
      <trkpt lat="45.54216" lon="3.39652">
        <ele>718</ele>
        <time>2012-10-21T07:45:52.000Z</time>
      </trkpt>
      <trkpt lat="45.54214" lon="3.39647">
        <ele>716</ele>
        <time>2012-10-21T07:45:53.000Z</time>
      </trkpt>
      <trkpt lat="45.54212" lon="3.39643">
        <ele>714</ele>
        <time>2012-10-21T07:45:54.000Z</time>
      </trkpt>
      <trkpt lat="45.54209" lon="3.3964">
        <ele>714</ele>
        <time>2012-10-21T07:45:55.000Z</time>
      </trkpt>
      <trkpt lat="45.54204" lon="3.39638">
        <ele>721</ele>
        <time>2012-10-21T07:45:56.000Z</time>
      </trkpt>
      <trkpt lat="45.542" lon="3.39636">
        <ele>716</ele>
        <time>2012-10-21T07:45:57.000Z</time>
      </trkpt>
      <trkpt lat="45.5419" lon="3.39633">
        <ele>710</ele>
        <time>2012-10-21T07:45:58.000Z</time>
      </trkpt>
      <trkpt lat="45.54179" lon="3.3963">
        <ele>707</ele>
        <time>2012-10-21T07:45:59.000Z</time>
      </trkpt>
      <trkpt lat="45.54169" lon="3.39629">
        <ele>703</ele>
        <time>2012-10-21T07:46:00.000Z</time>
      </trkpt>
      <trkpt lat="45.5416" lon="3.39629">
        <ele>706</ele>
        <time>2012-10-21T07:46:01.000Z</time>
      </trkpt>
      <trkpt lat="45.54151" lon="3.3963">
        <ele>704</ele>
        <time>2012-10-21T07:46:02.000Z</time>
      </trkpt>
      <trkpt lat="45.5414" lon="3.39631">
        <ele>699</ele>
        <time>2012-10-21T07:46:03.000Z</time>
      </trkpt>
      <trkpt lat="45.5413" lon="3.39633">
        <ele>699</ele>
        <time>2012-10-21T07:46:04.000Z</time>
      </trkpt>
      <trkpt lat="45.54122" lon="3.39635">
        <ele>698</ele>
        <time>2012-10-21T07:46:05.000Z</time>
      </trkpt>
      <trkpt lat="45.54114" lon="3.39637">
        <ele>698</ele>
        <time>2012-10-21T07:46:06.000Z</time>
      </trkpt>
      <trkpt lat="45.54107" lon="3.39639">
        <ele>693</ele>
        <time>2012-10-21T07:46:07.000Z</time>
      </trkpt>
      <trkpt lat="45.541" lon="3.3964">
        <ele>692</ele>
        <time>2012-10-21T07:46:08.000Z</time>
      </trkpt>
      <trkpt lat="45.54092" lon="3.39642">
        <ele>692</ele>
        <time>2012-10-21T07:46:09.000Z</time>
      </trkpt>
      <trkpt lat="45.54084" lon="3.39641">
        <ele>696</ele>
        <time>2012-10-21T07:46:10.000Z</time>
      </trkpt>
      <trkpt lat="45.54077" lon="3.39641">
        <ele>696</ele>
        <time>2012-10-21T07:46:11.000Z</time>
      </trkpt>
      <trkpt lat="45.54071" lon="3.3964">
        <ele>693</ele>
        <time>2012-10-21T07:46:12.000Z</time>
      </trkpt>
      <trkpt lat="45.54065" lon="3.3964">
        <ele>694</ele>
        <time>2012-10-21T07:46:13.000Z</time>
      </trkpt>
      <trkpt lat="45.54061" lon="3.39639">
        <ele>694</ele>
        <time>2012-10-21T07:46:14.000Z</time>
      </trkpt>
      <trkpt lat="45.54056" lon="3.39638">
        <ele>694</ele>
        <time>2012-10-21T07:46:15.000Z</time>
      </trkpt>
      <trkpt lat="45.54048" lon="3.39637">
        <ele>695</ele>
        <time>2012-10-21T07:46:16.000Z</time>
      </trkpt>
      <trkpt lat="45.54039" lon="3.39634">
        <ele>693</ele>
        <time>2012-10-21T07:46:17.000Z</time>
      </trkpt>
      <trkpt lat="45.54029" lon="3.39631">
        <ele>689</ele>
        <time>2012-10-21T07:46:18.000Z</time>
      </trkpt>
      <trkpt lat="45.54019" lon="3.39627">
        <ele>688</ele>
        <time>2012-10-21T07:46:19.000Z</time>
      </trkpt>
      <trkpt lat="45.54007" lon="3.39623">
        <ele>687</ele>
        <time>2012-10-21T07:46:20.000Z</time>
      </trkpt>
      <trkpt lat="45.53996" lon="3.39615">
        <ele>688</ele>
        <time>2012-10-21T07:46:21.000Z</time>
      </trkpt>
      <trkpt lat="45.53988" lon="3.39607">
        <ele>688</ele>
        <time>2012-10-21T07:46:22.000Z</time>
      </trkpt>
      <trkpt lat="45.53979" lon="3.396">
        <ele>686</ele>
        <time>2012-10-21T07:46:23.000Z</time>
      </trkpt>
      <trkpt lat="45.53971" lon="3.39591">
        <ele>684</ele>
        <time>2012-10-21T07:46:24.000Z</time>
      </trkpt>
      <trkpt lat="45.53965" lon="3.39581">
        <ele>683</ele>
        <time>2012-10-21T07:46:25.000Z</time>
      </trkpt>
      <trkpt lat="45.53962" lon="3.39576">
        <ele>680</ele>
        <time>2012-10-21T07:46:26.000Z</time>
      </trkpt>
      <trkpt lat="45.5396" lon="3.3957">
        <ele>677</ele>
        <time>2012-10-21T07:46:27.000Z</time>
      </trkpt>
      <trkpt lat="45.53954" lon="3.39562">
        <ele>670</ele>
        <time>2012-10-21T07:46:28.000Z</time>
      </trkpt>
      <trkpt lat="45.53947" lon="3.39555">
        <ele>674</ele>
        <time>2012-10-21T07:46:29.000Z</time>
      </trkpt>
      <trkpt lat="45.53939" lon="3.39547">
        <ele>674</ele>
        <time>2012-10-21T07:46:30.000Z</time>
      </trkpt>
      <trkpt lat="45.53931" lon="3.3954">
        <ele>671</ele>
        <time>2012-10-21T07:46:31.000Z</time>
      </trkpt>
      <trkpt lat="45.53925" lon="3.39534">
        <ele>668</ele>
        <time>2012-10-21T07:46:32.000Z</time>
      </trkpt>
      <trkpt lat="45.53916" lon="3.3953">
        <ele>671</ele>
        <time>2012-10-21T07:46:33.000Z</time>
      </trkpt>
      <trkpt lat="45.53908" lon="3.39526">
        <ele>670</ele>
        <time>2012-10-21T07:46:34.000Z</time>
      </trkpt>
      <trkpt lat="45.53901" lon="3.39523">
        <ele>670</ele>
        <time>2012-10-21T07:46:35.000Z</time>
      </trkpt>
      <trkpt lat="45.53894" lon="3.39518">
        <ele>674</ele>
        <time>2012-10-21T07:46:38.000Z</time>
      </trkpt>
      <trkpt lat="45.53892" lon="3.39512">
        <ele>672</ele>
        <time>2012-10-21T07:46:39.000Z</time>
      </trkpt>
      <trkpt lat="45.5389" lon="3.39506">
        <ele>673</ele>
        <time>2012-10-21T07:46:43.000Z</time>
      </trkpt>
      <trkpt lat="45.5388" lon="3.39495">
        <ele>667</ele>
        <time>2012-10-21T07:46:44.000Z</time>
      </trkpt>
      <trkpt lat="45.53877" lon="3.3949">
        <ele>667</ele>
        <time>2012-10-21T07:46:45.000Z</time>
      </trkpt>
      <trkpt lat="45.53875" lon="3.39486">
        <ele>665</ele>
        <time>2012-10-21T07:46:46.000Z</time>
      </trkpt>
      <trkpt lat="45.53873" lon="3.39481">
        <ele>666</ele>
        <time>2012-10-21T07:46:47.000Z</time>
      </trkpt>
      <trkpt lat="45.53871" lon="3.39479">
        <ele>657</ele>
        <time>2012-10-21T07:46:56.000Z</time>
      </trkpt>
      <trkpt lat="45.53869" lon="3.39465">
        <ele>651</ele>
        <time>2012-10-21T07:46:57.000Z</time>
      </trkpt>
      <trkpt lat="45.53866" lon="3.39459">
        <ele>640</ele>
        <time>2012-10-21T07:46:59.000Z</time>
      </trkpt>
      <trkpt lat="45.53858" lon="3.39452">
        <ele>643</ele>
        <time>2012-10-21T07:47:01.000Z</time>
      </trkpt>
      <trkpt lat="45.53852" lon="3.39448">
        <ele>643</ele>
        <time>2012-10-21T07:47:02.000Z</time>
      </trkpt>
      <trkpt lat="45.53844" lon="3.39445">
        <ele>641</ele>
        <time>2012-10-21T07:47:03.000Z</time>
      </trkpt>
      <trkpt lat="45.53837" lon="3.39444">
        <ele>638</ele>
        <time>2012-10-21T07:47:04.000Z</time>
      </trkpt>
      <trkpt lat="45.53831" lon="3.39444">
        <ele>643</ele>
        <time>2012-10-21T07:47:05.000Z</time>
      </trkpt>
      <trkpt lat="45.53827" lon="3.39443">
        <ele>643</ele>
        <time>2012-10-21T07:47:06.000Z</time>
      </trkpt>
      <trkpt lat="45.53823" lon="3.39443">
        <ele>641</ele>
        <time>2012-10-21T07:47:07.000Z</time>
      </trkpt>
      <trkpt lat="45.53819" lon="3.39445">
        <ele>645</ele>
        <time>2012-10-21T07:47:13.000Z</time>
      </trkpt>
      <trkpt lat="45.53815" lon="3.39451">
        <ele>634</ele>
        <time>2012-10-21T07:47:14.000Z</time>
      </trkpt>
      <trkpt lat="45.53811" lon="3.39451">
        <ele>638</ele>
        <time>2012-10-21T07:47:17.000Z</time>
      </trkpt>
      <trkpt lat="45.53809" lon="3.39447">
        <ele>633</ele>
        <time>2012-10-21T07:47:19.000Z</time>
      </trkpt>
      <trkpt lat="45.53809" lon="3.39442">
        <ele>636</ele>
        <time>2012-10-21T07:47:20.000Z</time>
      </trkpt>
      <trkpt lat="45.5381" lon="3.39438">
        <ele>635</ele>
        <time>2012-10-21T07:47:21.000Z</time>
      </trkpt>
      <trkpt lat="45.53811" lon="3.39434">
        <ele>634</ele>
        <time>2012-10-21T07:47:22.000Z</time>
      </trkpt>
      <trkpt lat="45.5381" lon="3.39428">
        <ele>629</ele>
        <time>2012-10-21T07:47:25.000Z</time>
      </trkpt>
      <trkpt lat="45.53805" lon="3.39426">
        <ele>626</ele>
        <time>2012-10-21T07:47:26.000Z</time>
      </trkpt>
      <trkpt lat="45.53801" lon="3.39431">
        <ele>626</ele>
        <time>2012-10-21T07:47:27.000Z</time>
      </trkpt>
      <trkpt lat="45.53797" lon="3.39435">
        <ele>627</ele>
        <time>2012-10-21T07:47:28.000Z</time>
      </trkpt>
      <trkpt lat="45.53791" lon="3.39439">
        <ele>625</ele>
        <time>2012-10-21T07:47:29.000Z</time>
      </trkpt>
      <trkpt lat="45.53785" lon="3.39445">
        <ele>629</ele>
        <time>2012-10-21T07:47:30.000Z</time>
      </trkpt>
      <trkpt lat="45.5378" lon="3.39451">
        <ele>627</ele>
        <time>2012-10-21T07:47:31.000Z</time>
      </trkpt>
      <trkpt lat="45.53774" lon="3.39458">
        <ele>624</ele>
        <time>2012-10-21T07:47:32.000Z</time>
      </trkpt>
      <trkpt lat="45.53768" lon="3.39464">
        <ele>623</ele>
        <time>2012-10-21T07:47:33.000Z</time>
      </trkpt>
      <trkpt lat="45.53762" lon="3.39471">
        <ele>627</ele>
        <time>2012-10-21T07:47:34.000Z</time>
      </trkpt>
      <trkpt lat="45.53757" lon="3.39477">
        <ele>625</ele>
        <time>2012-10-21T07:47:35.000Z</time>
      </trkpt>
      <trkpt lat="45.53754" lon="3.39481">
        <ele>626</ele>
        <time>2012-10-21T07:47:36.000Z</time>
      </trkpt>
      <trkpt lat="45.5375" lon="3.39484">
        <ele>622</ele>
        <time>2012-10-21T07:47:37.000Z</time>
      </trkpt>
      <trkpt lat="45.53747" lon="3.39487">
        <ele>618</ele>
        <time>2012-10-21T07:47:38.000Z</time>
      </trkpt>
      <trkpt lat="45.53744" lon="3.3949">
        <ele>621</ele>
        <time>2012-10-21T07:47:39.000Z</time>
      </trkpt>
      <trkpt lat="45.53741" lon="3.39493">
        <ele>622</ele>
        <time>2012-10-21T07:47:40.000Z</time>
      </trkpt>
      <trkpt lat="45.53739" lon="3.39496">
        <ele>618</ele>
        <time>2012-10-21T07:47:41.000Z</time>
      </trkpt>
      <trkpt lat="45.53737" lon="3.39501">
        <ele>619</ele>
        <time>2012-10-21T07:47:42.000Z</time>
      </trkpt>
      <trkpt lat="45.53735" lon="3.39506">
        <ele>616</ele>
        <time>2012-10-21T07:47:43.000Z</time>
      </trkpt>
      <trkpt lat="45.53732" lon="3.39513">
        <ele>618</ele>
        <time>2012-10-21T07:47:44.000Z</time>
      </trkpt>
      <trkpt lat="45.53731" lon="3.39521">
        <ele>617</ele>
        <time>2012-10-21T07:47:45.000Z</time>
      </trkpt>
      <trkpt lat="45.5373" lon="3.3953">
        <ele>611</ele>
        <time>2012-10-21T07:47:46.000Z</time>
      </trkpt>
      <trkpt lat="45.53731" lon="3.39539">
        <ele>611</ele>
        <time>2012-10-21T07:47:47.000Z</time>
      </trkpt>
      <trkpt lat="45.53731" lon="3.39547">
        <ele>613</ele>
        <time>2012-10-21T07:47:48.000Z</time>
      </trkpt>
      <trkpt lat="45.53732" lon="3.39568">
        <ele>615</ele>
        <time>2012-10-21T07:47:51.000Z</time>
      </trkpt>
      <trkpt lat="45.5373" lon="3.39585">
        <ele>613</ele>
        <time>2012-10-21T07:47:54.000Z</time>
      </trkpt>
      <trkpt lat="45.53725" lon="3.39603">
        <ele>608</ele>
        <time>2012-10-21T07:47:57.000Z</time>
      </trkpt>
      <trkpt lat="45.5372" lon="3.39612">
        <ele>608</ele>
        <time>2012-10-21T07:47:59.000Z</time>
      </trkpt>
      <trkpt lat="45.53711" lon="3.39622">
        <ele>609</ele>
        <time>2012-10-21T07:48:01.000Z</time>
      </trkpt>
      <trkpt lat="45.53708" lon="3.39627">
        <ele>609</ele>
        <time>2012-10-21T07:48:02.000Z</time>
      </trkpt>
      <trkpt lat="45.53704" lon="3.39631">
        <ele>607</ele>
        <time>2012-10-21T07:48:03.000Z</time>
      </trkpt>
      <trkpt lat="45.537" lon="3.39636">
        <ele>606</ele>
        <time>2012-10-21T07:48:04.000Z</time>
      </trkpt>
      <trkpt lat="45.53697" lon="3.3964">
        <ele>605</ele>
        <time>2012-10-21T07:48:05.000Z</time>
      </trkpt>
      <trkpt lat="45.53693" lon="3.39644">
        <ele>603</ele>
        <time>2012-10-21T07:48:06.000Z</time>
      </trkpt>
      <trkpt lat="45.53689" lon="3.39648">
        <ele>599</ele>
        <time>2012-10-21T07:48:07.000Z</time>
      </trkpt>
      <trkpt lat="45.53685" lon="3.39652">
        <ele>597</ele>
        <time>2012-10-21T07:48:08.000Z</time>
      </trkpt>
      <trkpt lat="45.53682" lon="3.39654">
        <ele>595</ele>
        <time>2012-10-21T07:48:13.000Z</time>
      </trkpt>
      <trkpt lat="45.53674" lon="3.39663">
        <ele>586</ele>
        <time>2012-10-21T07:48:14.000Z</time>
      </trkpt>
      <trkpt lat="45.53667" lon="3.39665">
        <ele>592</ele>
        <time>2012-10-21T07:48:24.000Z</time>
      </trkpt>
      <trkpt lat="45.53674" lon="3.39654">
        <ele>579</ele>
        <time>2012-10-21T07:48:31.000Z</time>
      </trkpt>
      <trkpt lat="45.5368" lon="3.39643">
        <ele>561</ele>
        <time>2012-10-21T07:48:47.000Z</time>
      </trkpt>
      <trkpt lat="45.53679" lon="3.39641">
        <ele>564</ele>
        <time>2012-10-21T07:50:09.000Z</time>
      </trkpt>
      <trkpt lat="45.53689" lon="3.39642">
        <ele>572</ele>
        <time>2012-10-21T07:50:10.000Z</time>
      </trkpt>
      <trkpt lat="45.5368" lon="3.39638">
        <ele>569</ele>
        <time>2012-10-21T07:51:06.000Z</time>
      </trkpt>
      <trkpt lat="45.5369" lon="3.39635">
        <ele>570</ele>
        <time>2012-10-21T07:51:17.000Z</time>
      </trkpt>
      <trkpt lat="45.53696" lon="3.39646">
        <ele>588</ele>
        <time>2012-10-21T07:51:35.000Z</time>
      </trkpt>
      <trkpt lat="45.5369" lon="3.39656">
        <ele>597</ele>
        <time>2012-10-21T07:52:15.000Z</time>
      </trkpt>
      <trkpt lat="45.5369" lon="3.39668">
        <ele>595</ele>
        <time>2012-10-21T07:52:36.000Z</time>
      </trkpt>
      <trkpt lat="45.5369" lon="3.39663">
        <ele>602</ele>
        <time>2012-10-21T07:53:02.000Z</time>
      </trkpt>
      <trkpt lat="45.53689" lon="3.39661">
        <ele>601</ele>
        <time>2012-10-21T07:53:03.000Z</time>
      </trkpt>
      <trkpt lat="45.53688" lon="3.39658">
        <ele>604</ele>
        <time>2012-10-21T07:53:17.000Z</time>
      </trkpt>
      <trkpt lat="45.53689" lon="3.39654">
        <ele>606</ele>
        <time>2012-10-21T07:53:18.000Z</time>
      </trkpt>
      <trkpt lat="45.53689" lon="3.39648">
        <ele>583</ele>
        <time>2012-10-21T07:53:31.000Z</time>
      </trkpt>
      <trkpt lat="45.53691" lon="3.39646">
        <ele>581</ele>
        <time>2012-10-21T07:53:32.000Z</time>
      </trkpt>
      <trkpt lat="45.53693" lon="3.39643">
        <ele>578</ele>
        <time>2012-10-21T07:53:35.000Z</time>
      </trkpt>
      <trkpt lat="45.53694" lon="3.39641">
        <ele>578</ele>
        <time>2012-10-21T07:53:36.000Z</time>
      </trkpt>
      <trkpt lat="45.5369" lon="3.39637">
        <ele>584</ele>
        <time>2012-10-21T07:53:43.000Z</time>
      </trkpt>
      <trkpt lat="45.53687" lon="3.3964">
        <ele>567</ele>
        <time>2012-10-21T07:54:11.000Z</time>
      </trkpt>
      <trkpt lat="45.53684" lon="3.39644">
        <ele>567</ele>
        <time>2012-10-21T07:54:12.000Z</time>
      </trkpt>
      <trkpt lat="45.53681" lon="3.39644">
        <ele>571</ele>
        <time>2012-10-21T07:54:13.000Z</time>
      </trkpt>
      <trkpt lat="45.53678" lon="3.39643">
        <ele>577</ele>
        <time>2012-10-21T07:54:14.000Z</time>
      </trkpt>
      <trkpt lat="45.53678" lon="3.3964">
        <ele>583</ele>
        <time>2012-10-21T07:54:18.000Z</time>
      </trkpt>
      <trkpt lat="45.53677" lon="3.39633">
        <ele>586</ele>
        <time>2012-10-21T07:54:19.000Z</time>
      </trkpt>
      <trkpt lat="45.53676" lon="3.3963">
        <ele>588</ele>
        <time>2012-10-21T07:54:20.000Z</time>
      </trkpt>
      <trkpt lat="45.53675" lon="3.39627">
        <ele>585</ele>
        <time>2012-10-21T07:54:21.000Z</time>
      </trkpt>
      <trkpt lat="45.53672" lon="3.39625">
        <ele>583</ele>
        <time>2012-10-21T07:54:22.000Z</time>
      </trkpt>
      <trkpt lat="45.53669" lon="3.39623">
        <ele>583</ele>
        <time>2012-10-21T07:54:23.000Z</time>
      </trkpt>
      <trkpt lat="45.53668" lon="3.39621">
        <ele>579</ele>
        <time>2012-10-21T07:54:24.000Z</time>
      </trkpt>
      <trkpt lat="45.53665" lon="3.39619">
        <ele>580</ele>
        <time>2012-10-21T07:54:25.000Z</time>
      </trkpt>
      <trkpt lat="45.53661" lon="3.39617">
        <ele>583</ele>
        <time>2012-10-21T07:54:27.000Z</time>
      </trkpt>
      <trkpt lat="45.5366" lon="3.39618">
        <ele>586</ele>
        <time>2012-10-21T07:54:28.000Z</time>
      </trkpt>
      <trkpt lat="45.53658" lon="3.39621">
        <ele>591</ele>
        <time>2012-10-21T07:54:30.000Z</time>
      </trkpt>
      <trkpt lat="45.53656" lon="3.39622">
        <ele>588</ele>
        <time>2012-10-21T07:54:31.000Z</time>
      </trkpt>
      <trkpt lat="45.53652" lon="3.39623">
        <ele>588</ele>
        <time>2012-10-21T07:54:33.000Z</time>
      </trkpt>
      <trkpt lat="45.53651" lon="3.39625">
        <ele>590</ele>
        <time>2012-10-21T07:54:34.000Z</time>
      </trkpt>
      <trkpt lat="45.53647" lon="3.39628">
        <ele>592</ele>
        <time>2012-10-21T07:54:37.000Z</time>
      </trkpt>
      <trkpt lat="45.53646" lon="3.39629">
        <ele>590</ele>
        <time>2012-10-21T07:54:38.000Z</time>
      </trkpt>
      <trkpt lat="45.53644" lon="3.39633">
        <ele>588</ele>
        <time>2012-10-21T07:54:42.000Z</time>
      </trkpt>
      <trkpt lat="45.53643" lon="3.39633">
        <ele>590</ele>
        <time>2012-10-21T07:54:43.000Z</time>
      </trkpt>
      <trkpt lat="45.53641" lon="3.3964">
        <ele>590</ele>
        <time>2012-10-21T07:54:51.000Z</time>
      </trkpt>
      <trkpt lat="45.53639" lon="3.39642">
        <ele>588</ele>
        <time>2012-10-21T07:54:56.000Z</time>
      </trkpt>
      <trkpt lat="45.53636" lon="3.39642">
        <ele>591</ele>
        <time>2012-10-21T07:54:57.000Z</time>
      </trkpt>
      <trkpt lat="45.53634" lon="3.39643">
        <ele>593</ele>
        <time>2012-10-21T07:54:58.000Z</time>
      </trkpt>
      <trkpt lat="45.53631" lon="3.39644">
        <ele>592</ele>
        <time>2012-10-21T07:54:59.000Z</time>
      </trkpt>
      <trkpt lat="45.53629" lon="3.39644">
        <ele>592</ele>
        <time>2012-10-21T07:55:08.000Z</time>
      </trkpt>
      <trkpt lat="45.53626" lon="3.39645">
        <ele>593</ele>
        <time>2012-10-21T07:55:09.000Z</time>
      </trkpt>
      <trkpt lat="45.53622" lon="3.39645">
        <ele>590</ele>
        <time>2012-10-21T07:55:10.000Z</time>
      </trkpt>
      <trkpt lat="45.5362" lon="3.39645">
        <ele>590</ele>
        <time>2012-10-21T07:55:11.000Z</time>
      </trkpt>
      <trkpt lat="45.53617" lon="3.39646">
        <ele>585</ele>
        <time>2012-10-21T07:55:14.000Z</time>
      </trkpt>
      <trkpt lat="45.53616" lon="3.39646">
        <ele>583</ele>
        <time>2012-10-21T07:55:15.000Z</time>
      </trkpt>
      <trkpt lat="45.53613" lon="3.3965">
        <ele>590</ele>
        <time>2012-10-21T07:55:25.000Z</time>
      </trkpt>
      <trkpt lat="45.53612" lon="3.3965">
        <ele>592</ele>
        <time>2012-10-21T07:55:26.000Z</time>
      </trkpt>
      <trkpt lat="45.53609" lon="3.3965">
        <ele>598</ele>
        <time>2012-10-21T07:55:29.000Z</time>
      </trkpt>
      <trkpt lat="45.53608" lon="3.3965">
        <ele>594</ele>
        <time>2012-10-21T07:55:30.000Z</time>
      </trkpt>
      <trkpt lat="45.53603" lon="3.39652">
        <ele>592</ele>
        <time>2012-10-21T07:55:39.000Z</time>
      </trkpt>
      <trkpt lat="45.53602" lon="3.39651">
        <ele>593</ele>
        <time>2012-10-21T07:55:40.000Z</time>
      </trkpt>
      <trkpt lat="45.53597" lon="3.39651">
        <ele>593</ele>
        <time>2012-10-21T07:55:46.000Z</time>
      </trkpt>
      <trkpt lat="45.53599" lon="3.39653">
        <ele>586</ele>
        <time>2012-10-21T07:55:51.000Z</time>
      </trkpt>
      <trkpt lat="45.53601" lon="3.39654">
        <ele>587</ele>
        <time>2012-10-21T07:55:52.000Z</time>
      </trkpt>
      <trkpt lat="45.53604" lon="3.39656">
        <ele>592</ele>
        <time>2012-10-21T07:55:57.000Z</time>
      </trkpt>
      <trkpt lat="45.53606" lon="3.39657">
        <ele>596</ele>
        <time>2012-10-21T07:55:58.000Z</time>
      </trkpt>
      <trkpt lat="45.53602" lon="3.39658">
        <ele>586</ele>
        <time>2012-10-21T07:56:24.000Z</time>
      </trkpt>
      <trkpt lat="45.53601" lon="3.39658">
        <ele>588</ele>
        <time>2012-10-21T07:56:25.000Z</time>
      </trkpt>
      <trkpt lat="45.53597" lon="3.39658">
        <ele>599</ele>
        <time>2012-10-21T07:56:34.000Z</time>
      </trkpt>
      <trkpt lat="45.53594" lon="3.3966">
        <ele>597</ele>
        <time>2012-10-21T07:56:35.000Z</time>
      </trkpt>
      <trkpt lat="45.53592" lon="3.39664">
        <ele>598</ele>
        <time>2012-10-21T07:56:49.000Z</time>
      </trkpt>
      <trkpt lat="45.53589" lon="3.39666">
        <ele>595</ele>
        <time>2012-10-21T07:56:50.000Z</time>
      </trkpt>
      <trkpt lat="45.53585" lon="3.39669">
        <ele>595</ele>
        <time>2012-10-21T07:56:52.000Z</time>
      </trkpt>
      <trkpt lat="45.53581" lon="3.39673">
        <ele>594</ele>
        <time>2012-10-21T07:57:05.000Z</time>
      </trkpt>
      <trkpt lat="45.53581" lon="3.39674">
        <ele>596</ele>
        <time>2012-10-21T07:57:06.000Z</time>
      </trkpt>
      <trkpt lat="45.53578" lon="3.39678">
        <ele>597</ele>
        <time>2012-10-21T07:57:10.000Z</time>
      </trkpt>
      <trkpt lat="45.53575" lon="3.39681">
        <ele>598</ele>
        <time>2012-10-21T07:57:11.000Z</time>
      </trkpt>
      <trkpt lat="45.53572" lon="3.39684">
        <ele>596</ele>
        <time>2012-10-21T07:57:13.000Z</time>
      </trkpt>
      <trkpt lat="45.53571" lon="3.39685">
        <ele>595</ele>
        <time>2012-10-21T07:57:14.000Z</time>
      </trkpt>
      <trkpt lat="45.53567" lon="3.39687">
        <ele>598</ele>
        <time>2012-10-21T07:57:18.000Z</time>
      </trkpt>
      <trkpt lat="45.53565" lon="3.39687">
        <ele>598</ele>
        <time>2012-10-21T07:57:19.000Z</time>
      </trkpt>
      <trkpt lat="45.53561" lon="3.39686">
        <ele>594</ele>
        <time>2012-10-21T07:57:21.000Z</time>
      </trkpt>
      <trkpt lat="45.53559" lon="3.39687">
        <ele>597</ele>
        <time>2012-10-21T07:57:22.000Z</time>
      </trkpt>
      <trkpt lat="45.53555" lon="3.39689">
        <ele>588</ele>
        <time>2012-10-21T07:57:34.000Z</time>
      </trkpt>
      <trkpt lat="45.53554" lon="3.3969">
        <ele>591</ele>
        <time>2012-10-21T07:57:35.000Z</time>
      </trkpt>
      <trkpt lat="45.53552" lon="3.39685">
        <ele>596</ele>
        <time>2012-10-21T07:57:43.000Z</time>
      </trkpt>
      <trkpt lat="45.53552" lon="3.39683">
        <ele>598</ele>
        <time>2012-10-21T07:57:44.000Z</time>
      </trkpt>
      <trkpt lat="45.5355" lon="3.3968">
        <ele>595</ele>
        <time>2012-10-21T07:57:49.000Z</time>
      </trkpt>
      <trkpt lat="45.53549" lon="3.39676">
        <ele>600</ele>
        <time>2012-10-21T07:57:50.000Z</time>
      </trkpt>
      <trkpt lat="45.53546" lon="3.39674">
        <ele>597</ele>
        <time>2012-10-21T07:57:58.000Z</time>
      </trkpt>
      <trkpt lat="45.53545" lon="3.39673">
        <ele>600</ele>
        <time>2012-10-21T07:57:59.000Z</time>
      </trkpt>
      <trkpt lat="45.53542" lon="3.39674">
        <ele>602</ele>
        <time>2012-10-21T07:58:03.000Z</time>
      </trkpt>
      <trkpt lat="45.5354" lon="3.39674">
        <ele>600</ele>
        <time>2012-10-21T07:58:04.000Z</time>
      </trkpt>
      <trkpt lat="45.5354" lon="3.39668">
        <ele>594</ele>
        <time>2012-10-21T07:58:35.000Z</time>
      </trkpt>
      <trkpt lat="45.53541" lon="3.39668">
        <ele>591</ele>
        <time>2012-10-21T07:58:36.000Z</time>
      </trkpt>
      <trkpt lat="45.53544" lon="3.39664">
        <ele>595</ele>
        <time>2012-10-21T07:58:39.000Z</time>
      </trkpt>
      <trkpt lat="45.53545" lon="3.39664">
        <ele>594</ele>
        <time>2012-10-21T07:58:40.000Z</time>
      </trkpt>
      <trkpt lat="45.53547" lon="3.3966">
        <ele>593</ele>
        <time>2012-10-21T07:58:43.000Z</time>
      </trkpt>
      <trkpt lat="45.53548" lon="3.39658">
        <ele>596</ele>
        <time>2012-10-21T07:58:43.999Z</time>
      </trkpt>
      <trkpt lat="45.5355" lon="3.39653">
        <ele>595</ele>
        <time>2012-10-21T07:58:46.000Z</time>
      </trkpt>
      <trkpt lat="45.53551" lon="3.39652">
        <ele>593</ele>
        <time>2012-10-21T07:58:47.000Z</time>
      </trkpt>
      <trkpt lat="45.53555" lon="3.39648">
        <ele>593</ele>
        <time>2012-10-21T07:58:50.000Z</time>
      </trkpt>
      <trkpt lat="45.53556" lon="3.39647">
        <ele>596</ele>
        <time>2012-10-21T07:58:51.000Z</time>
      </trkpt>
      <trkpt lat="45.53558" lon="3.39643">
        <ele>596</ele>
        <time>2012-10-21T07:58:54.000Z</time>
      </trkpt>
      <trkpt lat="45.53559" lon="3.39641">
        <ele>597</ele>
        <time>2012-10-21T07:58:55.000Z</time>
      </trkpt>
      <trkpt lat="45.53562" lon="3.39638">
        <ele>598</ele>
        <time>2012-10-21T07:58:58.000Z</time>
      </trkpt>
      <trkpt lat="45.53563" lon="3.39635">
        <ele>599</ele>
        <time>2012-10-21T07:58:59.000Z</time>
      </trkpt>
      <trkpt lat="45.53565" lon="3.39631">
        <ele>598</ele>
        <time>2012-10-21T07:59:01.000Z</time>
      </trkpt>
      <trkpt lat="45.53566" lon="3.3963">
        <ele>596</ele>
        <time>2012-10-21T07:59:02.000Z</time>
      </trkpt>
      <trkpt lat="45.53568" lon="3.39625">
        <ele>596</ele>
        <time>2012-10-21T07:59:06.000Z</time>
      </trkpt>
      <trkpt lat="45.53569" lon="3.39622">
        <ele>596</ele>
        <time>2012-10-21T07:59:07.000Z</time>
      </trkpt>
      <trkpt lat="45.5357" lon="3.39616">
        <ele>601</ele>
        <time>2012-10-21T07:59:09.000Z</time>
      </trkpt>
      <trkpt lat="45.53571" lon="3.39614">
        <ele>601</ele>
        <time>2012-10-21T07:59:10.000Z</time>
      </trkpt>
      <trkpt lat="45.53571" lon="3.39608">
        <ele>598</ele>
        <time>2012-10-21T07:59:14.000Z</time>
      </trkpt>
      <trkpt lat="45.53573" lon="3.39604">
        <ele>603</ele>
        <time>2012-10-21T07:59:15.000Z</time>
      </trkpt>
      <trkpt lat="45.53574" lon="3.396">
        <ele>602</ele>
        <time>2012-10-21T07:59:16.000Z</time>
      </trkpt>
      <trkpt lat="45.53574" lon="3.39597">
        <ele>603</ele>
        <time>2012-10-21T07:59:17.000Z</time>
      </trkpt>
      <trkpt lat="45.53573" lon="3.39591">
        <ele>604</ele>
        <time>2012-10-21T07:59:19.000Z</time>
      </trkpt>
      <trkpt lat="45.53573" lon="3.39589">
        <ele>606</ele>
        <time>2012-10-21T07:59:20.000Z</time>
      </trkpt>
      <trkpt lat="45.53572" lon="3.39586">
        <ele>604</ele>
        <time>2012-10-21T07:59:21.000Z</time>
      </trkpt>
      <trkpt lat="45.53572" lon="3.39582">
        <ele>597</ele>
        <time>2012-10-21T07:59:22.000Z</time>
      </trkpt>
      <trkpt lat="45.53571" lon="3.39577">
        <ele>601</ele>
        <time>2012-10-21T07:59:23.000Z</time>
      </trkpt>
      <trkpt lat="45.5357" lon="3.39574">
        <ele>600</ele>
        <time>2012-10-21T07:59:24.000Z</time>
      </trkpt>
      <trkpt lat="45.53569" lon="3.3957">
        <ele>601</ele>
        <time>2012-10-21T07:59:25.000Z</time>
      </trkpt>
      <trkpt lat="45.53569" lon="3.39567">
        <ele>600</ele>
        <time>2012-10-21T07:59:26.000Z</time>
      </trkpt>
      <trkpt lat="45.53567" lon="3.39561">
        <ele>599</ele>
        <time>2012-10-21T07:59:28.000Z</time>
      </trkpt>
      <trkpt lat="45.53565" lon="3.39559">
        <ele>600</ele>
        <time>2012-10-21T07:59:29.000Z</time>
      </trkpt>
      <trkpt lat="45.53565" lon="3.39552">
        <ele>603</ele>
        <time>2012-10-21T07:59:31.000Z</time>
      </trkpt>
      <trkpt lat="45.53565" lon="3.39549">
        <ele>599</ele>
        <time>2012-10-21T07:59:32.000Z</time>
      </trkpt>
      <trkpt lat="45.53564" lon="3.39543">
        <ele>603</ele>
        <time>2012-10-21T07:59:34.000Z</time>
      </trkpt>
      <trkpt lat="45.53564" lon="3.3954">
        <ele>604</ele>
        <time>2012-10-21T07:59:35.000Z</time>
      </trkpt>
      <trkpt lat="45.53563" lon="3.39535">
        <ele>609</ele>
        <time>2012-10-21T07:59:37.000Z</time>
      </trkpt>
      <trkpt lat="45.53563" lon="3.39532">
        <ele>606</ele>
        <time>2012-10-21T07:59:38.000Z</time>
      </trkpt>
      <trkpt lat="45.53563" lon="3.39527">
        <ele>610</ele>
        <time>2012-10-21T07:59:40.000Z</time>
      </trkpt>
      <trkpt lat="45.53562" lon="3.39525">
        <ele>611</ele>
        <time>2012-10-21T07:59:41.000Z</time>
      </trkpt>
      <trkpt lat="45.53561" lon="3.39519">
        <ele>610</ele>
        <time>2012-10-21T07:59:44.000Z</time>
      </trkpt>
      <trkpt lat="45.5356" lon="3.39519">
        <ele>609</ele>
        <time>2012-10-21T07:59:45.000Z</time>
      </trkpt>
      <trkpt lat="45.53559" lon="3.39512">
        <ele>614</ele>
        <time>2012-10-21T07:59:48.000Z</time>
      </trkpt>
      <trkpt lat="45.53559" lon="3.3951">
        <ele>614</ele>
        <time>2012-10-21T07:59:49.000Z</time>
      </trkpt>
      <trkpt lat="45.53558" lon="3.39504">
        <ele>605</ele>
        <time>2012-10-21T07:59:51.000Z</time>
      </trkpt>
      <trkpt lat="45.53557" lon="3.395">
        <ele>607</ele>
        <time>2012-10-21T07:59:52.000Z</time>
      </trkpt>
      <trkpt lat="45.53557" lon="3.39497">
        <ele>609</ele>
        <time>2012-10-21T07:59:53.000Z</time>
      </trkpt>
      <trkpt lat="45.53555" lon="3.39494">
        <ele>608</ele>
        <time>2012-10-21T07:59:54.000Z</time>
      </trkpt>
      <trkpt lat="45.53553" lon="3.39489">
        <ele>610</ele>
        <time>2012-10-21T07:59:56.000Z</time>
      </trkpt>
      <trkpt lat="45.53552" lon="3.39486">
        <ele>612</ele>
        <time>2012-10-21T07:59:57.000Z</time>
      </trkpt>
      <trkpt lat="45.5355" lon="3.39481">
        <ele>615</ele>
        <time>2012-10-21T07:59:59.000Z</time>
      </trkpt>
      <trkpt lat="45.53549" lon="3.39479">
        <ele>612</ele>
        <time>2012-10-21T08:00:00.000Z</time>
      </trkpt>
      <trkpt lat="45.53548" lon="3.39474">
        <ele>607</ele>
        <time>2012-10-21T08:00:03.000Z</time>
      </trkpt>
      <trkpt lat="45.53547" lon="3.39472">
        <ele>610</ele>
        <time>2012-10-21T08:00:04.000Z</time>
      </trkpt>
      <trkpt lat="45.53547" lon="3.39468">
        <ele>618</ele>
        <time>2012-10-21T08:00:06.000Z</time>
      </trkpt>
      <trkpt lat="45.53546" lon="3.39465">
        <ele>617</ele>
        <time>2012-10-21T08:00:07.000Z</time>
      </trkpt>
      <trkpt lat="45.53545" lon="3.39461">
        <ele>613</ele>
        <time>2012-10-21T08:00:09.000Z</time>
      </trkpt>
      <trkpt lat="45.53544" lon="3.39459">
        <ele>612</ele>
        <time>2012-10-21T08:00:10.000Z</time>
      </trkpt>
      <trkpt lat="45.53541" lon="3.39455">
        <ele>619</ele>
        <time>2012-10-21T08:00:14.000Z</time>
      </trkpt>
      <trkpt lat="45.53541" lon="3.39453">
        <ele>619</ele>
        <time>2012-10-21T08:00:15.000Z</time>
      </trkpt>
      <trkpt lat="45.5354" lon="3.39447">
        <ele>623</ele>
        <time>2012-10-21T08:00:18.000Z</time>
      </trkpt>
      <trkpt lat="45.5354" lon="3.39445">
        <ele>623</ele>
        <time>2012-10-21T08:00:19.000Z</time>
      </trkpt>
      <trkpt lat="45.5354" lon="3.39439">
        <ele>630</ele>
        <time>2012-10-21T08:00:25.000Z</time>
      </trkpt>
      <trkpt lat="45.53541" lon="3.39438">
        <ele>627</ele>
        <time>2012-10-21T08:00:26.000Z</time>
      </trkpt>
      <trkpt lat="45.53541" lon="3.39433">
        <ele>626</ele>
        <time>2012-10-21T08:00:30.000Z</time>
      </trkpt>
      <trkpt lat="45.53542" lon="3.3943">
        <ele>626</ele>
        <time>2012-10-21T08:00:31.000Z</time>
      </trkpt>
      <trkpt lat="45.53543" lon="3.39425">
        <ele>632</ele>
        <time>2012-10-21T08:00:33.000Z</time>
      </trkpt>
      <trkpt lat="45.53543" lon="3.39423">
        <ele>633</ele>
        <time>2012-10-21T08:00:34.000Z</time>
      </trkpt>
      <trkpt lat="45.53544" lon="3.39417">
        <ele>638</ele>
        <time>2012-10-21T08:00:36.000Z</time>
      </trkpt>
      <trkpt lat="45.53544" lon="3.39414">
        <ele>634</ele>
        <time>2012-10-21T08:00:37.000Z</time>
      </trkpt>
      <trkpt lat="45.53544" lon="3.39409">
        <ele>635</ele>
        <time>2012-10-21T08:00:39.000Z</time>
      </trkpt>
      <trkpt lat="45.53544" lon="3.39407">
        <ele>632</ele>
        <time>2012-10-21T08:00:40.000Z</time>
      </trkpt>
      <trkpt lat="45.53543" lon="3.39402">
        <ele>628</ele>
        <time>2012-10-21T08:00:42.000Z</time>
      </trkpt>
      <trkpt lat="45.53543" lon="3.394">
        <ele>629</ele>
        <time>2012-10-21T08:00:43.000Z</time>
      </trkpt>
      <trkpt lat="45.53542" lon="3.39395">
        <ele>625</ele>
        <time>2012-10-21T08:00:45.000Z</time>
      </trkpt>
      <trkpt lat="45.53543" lon="3.39393">
        <ele>625</ele>
        <time>2012-10-21T08:00:46.000Z</time>
      </trkpt>
      <trkpt lat="45.53544" lon="3.39389">
        <ele>632</ele>
        <time>2012-10-21T08:00:48.000Z</time>
      </trkpt>
      <trkpt lat="45.53545" lon="3.39386">
        <ele>634</ele>
        <time>2012-10-21T08:00:49.000Z</time>
      </trkpt>
      <trkpt lat="45.53547" lon="3.39383">
        <ele>629</ele>
        <time>2012-10-21T08:00:50.000Z</time>
      </trkpt>
      <trkpt lat="45.53548" lon="3.3938">
        <ele>628</ele>
        <time>2012-10-21T08:00:51.000Z</time>
      </trkpt>
      <trkpt lat="45.5355" lon="3.39376">
        <ele>629</ele>
        <time>2012-10-21T08:00:53.000Z</time>
      </trkpt>
      <trkpt lat="45.53551" lon="3.39374">
        <ele>627</ele>
        <time>2012-10-21T08:00:54.000Z</time>
      </trkpt>
      <trkpt lat="45.53551" lon="3.39372">
        <ele>630</ele>
        <time>2012-10-21T08:00:55.000Z</time>
      </trkpt>
      <trkpt lat="45.5355" lon="3.39368">
        <ele>627</ele>
        <time>2012-10-21T08:00:56.000Z</time>
      </trkpt>
      <trkpt lat="45.53549" lon="3.39364">
        <ele>633</ele>
        <time>2012-10-21T08:00:57.000Z</time>
      </trkpt>
      <trkpt lat="45.53548" lon="3.39361">
        <ele>636</ele>
        <time>2012-10-21T08:00:58.000Z</time>
      </trkpt>
      <trkpt lat="45.53547" lon="3.39355">
        <ele>628</ele>
        <time>2012-10-21T08:01:00.000Z</time>
      </trkpt>
      <trkpt lat="45.53546" lon="3.39352">
        <ele>623</ele>
        <time>2012-10-21T08:01:01.000Z</time>
      </trkpt>
      <trkpt lat="45.53544" lon="3.39346">
        <ele>623</ele>
        <time>2012-10-21T08:01:05.000Z</time>
      </trkpt>
      <trkpt lat="45.53544" lon="3.39345">
        <ele>626</ele>
        <time>2012-10-21T08:01:06.000Z</time>
      </trkpt>
      <trkpt lat="45.53544" lon="3.39339">
        <ele>631</ele>
        <time>2012-10-21T08:01:11.000Z</time>
      </trkpt>
      <trkpt lat="45.53542" lon="3.39338">
        <ele>628</ele>
        <time>2012-10-21T08:01:12.000Z</time>
      </trkpt>
      <trkpt lat="45.53541" lon="3.39333">
        <ele>632</ele>
        <time>2012-10-21T08:01:17.000Z</time>
      </trkpt>
      <trkpt lat="45.53539" lon="3.39331">
        <ele>633</ele>
        <time>2012-10-21T08:01:18.000Z</time>
      </trkpt>
      <trkpt lat="45.53538" lon="3.39327">
        <ele>639</ele>
        <time>2012-10-21T08:01:26.000Z</time>
      </trkpt>
      <trkpt lat="45.53537" lon="3.39325">
        <ele>640</ele>
        <time>2012-10-21T08:01:27.000Z</time>
      </trkpt>
      <trkpt lat="45.53534" lon="3.39322">
        <ele>642</ele>
        <time>2012-10-21T08:01:30.000Z</time>
      </trkpt>
      <trkpt lat="45.53533" lon="3.39321">
        <ele>642</ele>
        <time>2012-10-21T08:01:31.000Z</time>
      </trkpt>
      <trkpt lat="45.5353" lon="3.39321">
        <ele>646</ele>
        <time>2012-10-21T08:01:33.000Z</time>
      </trkpt>
      <trkpt lat="45.53529" lon="3.39321">
        <ele>645</ele>
        <time>2012-10-21T08:01:34.000Z</time>
      </trkpt>
      <trkpt lat="45.53525" lon="3.39319">
        <ele>649</ele>
        <time>2012-10-21T08:01:36.000Z</time>
      </trkpt>
      <trkpt lat="45.53524" lon="3.39319">
        <ele>647</ele>
        <time>2012-10-21T08:01:37.000Z</time>
      </trkpt>
      <trkpt lat="45.5352" lon="3.39316">
        <ele>646</ele>
        <time>2012-10-21T08:01:41.000Z</time>
      </trkpt>
      <trkpt lat="45.5352" lon="3.39315">
        <ele>645</ele>
        <time>2012-10-21T08:01:42.000Z</time>
      </trkpt>
      <trkpt lat="45.53517" lon="3.39313">
        <ele>641</ele>
        <time>2012-10-21T08:01:44.000Z</time>
      </trkpt>
      <trkpt lat="45.53515" lon="3.39312">
        <ele>642</ele>
        <time>2012-10-21T08:01:45.000Z</time>
      </trkpt>
      <trkpt lat="45.53511" lon="3.39313">
        <ele>649</ele>
        <time>2012-10-21T08:01:54.000Z</time>
      </trkpt>
      <trkpt lat="45.5351" lon="3.39313">
        <ele>645</ele>
        <time>2012-10-21T08:01:55.000Z</time>
      </trkpt>
      <trkpt lat="45.53506" lon="3.39312">
        <ele>647</ele>
        <time>2012-10-21T08:02:00.000Z</time>
      </trkpt>
      <trkpt lat="45.53506" lon="3.39311">
        <ele>649</ele>
        <time>2012-10-21T08:02:01.000Z</time>
      </trkpt>
      <trkpt lat="45.53502" lon="3.39309">
        <ele>653</ele>
        <time>2012-10-21T08:02:05.000Z</time>
      </trkpt>
      <trkpt lat="45.53501" lon="3.39309">
        <ele>649</ele>
        <time>2012-10-21T08:02:06.000Z</time>
      </trkpt>
      <trkpt lat="45.53497" lon="3.3931">
        <ele>658</ele>
        <time>2012-10-21T08:02:09.000Z</time>
      </trkpt>
      <trkpt lat="45.53496" lon="3.3931">
        <ele>654</ele>
        <time>2012-10-21T08:02:10.000Z</time>
      </trkpt>
      <trkpt lat="45.53493" lon="3.39309">
        <ele>652</ele>
        <time>2012-10-21T08:02:12.000Z</time>
      </trkpt>
      <trkpt lat="45.53491" lon="3.39308">
        <ele>652</ele>
        <time>2012-10-21T08:02:13.000Z</time>
      </trkpt>
      <trkpt lat="45.53487" lon="3.39308">
        <ele>648</ele>
        <time>2012-10-21T08:02:18.000Z</time>
      </trkpt>
      <trkpt lat="45.53486" lon="3.39308">
        <ele>646</ele>
        <time>2012-10-21T08:02:19.000Z</time>
      </trkpt>
      <trkpt lat="45.53482" lon="3.39305">
        <ele>655</ele>
        <time>2012-10-21T08:02:29.000Z</time>
      </trkpt>
      <trkpt lat="45.53482" lon="3.39304">
        <ele>654</ele>
        <time>2012-10-21T08:02:30.000Z</time>
      </trkpt>
      <trkpt lat="45.53478" lon="3.39301">
        <ele>655</ele>
        <time>2012-10-21T08:02:38.000Z</time>
      </trkpt>
      <trkpt lat="45.53477" lon="3.39301">
        <ele>657</ele>
        <time>2012-10-21T08:02:39.000Z</time>
      </trkpt>
      <trkpt lat="45.53474" lon="3.39296">
        <ele>651</ele>
        <time>2012-10-21T08:02:43.000Z</time>
      </trkpt>
      <trkpt lat="45.53474" lon="3.39295">
        <ele>653</ele>
        <time>2012-10-21T08:02:44.000Z</time>
      </trkpt>
      <trkpt lat="45.5347" lon="3.39294">
        <ele>653</ele>
        <time>2012-10-21T08:02:50.000Z</time>
      </trkpt>
      <trkpt lat="45.53469" lon="3.39294">
        <ele>656</ele>
        <time>2012-10-21T08:02:51.000Z</time>
      </trkpt>
      <trkpt lat="45.53465" lon="3.3929">
        <ele>665</ele>
        <time>2012-10-21T08:02:58.000Z</time>
      </trkpt>
      <trkpt lat="45.53465" lon="3.39289">
        <ele>662</ele>
        <time>2012-10-21T08:02:59.000Z</time>
      </trkpt>
      <trkpt lat="45.53461" lon="3.39286">
        <ele>664</ele>
        <time>2012-10-21T08:03:04.000Z</time>
      </trkpt>
      <trkpt lat="45.5346" lon="3.39285">
        <ele>662</ele>
        <time>2012-10-21T08:03:05.000Z</time>
      </trkpt>
      <trkpt lat="45.53455" lon="3.39285">
        <ele>647</ele>
        <time>2012-10-21T08:03:19.000Z</time>
      </trkpt>
      <trkpt lat="45.53454" lon="3.39285">
        <ele>642</ele>
        <time>2012-10-21T08:03:20.000Z</time>
      </trkpt>
      <trkpt lat="45.53449" lon="3.39285">
        <ele>637</ele>
        <time>2012-10-21T08:03:23.000Z</time>
      </trkpt>
      <trkpt lat="45.53444" lon="3.39285">
        <ele>634</ele>
        <time>2012-10-21T08:03:27.000Z</time>
      </trkpt>
      <trkpt lat="45.53443" lon="3.39285">
        <ele>634</ele>
        <time>2012-10-21T08:03:28.000Z</time>
      </trkpt>
      <trkpt lat="45.53439" lon="3.39285">
        <ele>636</ele>
        <time>2012-10-21T08:03:30.000Z</time>
      </trkpt>
      <trkpt lat="45.53437" lon="3.39285">
        <ele>634</ele>
        <time>2012-10-21T08:03:31.000Z</time>
      </trkpt>
      <trkpt lat="45.53434" lon="3.39284">
        <ele>632</ele>
        <time>2012-10-21T08:03:34.000Z</time>
      </trkpt>
      <trkpt lat="45.53433" lon="3.39283">
        <ele>634</ele>
        <time>2012-10-21T08:03:35.000Z</time>
      </trkpt>
      <trkpt lat="45.53429" lon="3.3928">
        <ele>632</ele>
        <time>2012-10-21T08:03:39.000Z</time>
      </trkpt>
      <trkpt lat="45.53428" lon="3.39279">
        <ele>630</ele>
        <time>2012-10-21T08:03:40.000Z</time>
      </trkpt>
      <trkpt lat="45.53425" lon="3.39276">
        <ele>632</ele>
        <time>2012-10-21T08:03:43.000Z</time>
      </trkpt>
      <trkpt lat="45.53423" lon="3.39274">
        <ele>631</ele>
        <time>2012-10-21T08:03:44.000Z</time>
      </trkpt>
      <trkpt lat="45.53421" lon="3.39271">
        <ele>634</ele>
        <time>2012-10-21T08:03:45.000Z</time>
      </trkpt>
      <trkpt lat="45.53419" lon="3.39269">
        <ele>638</ele>
        <time>2012-10-21T08:03:46.000Z</time>
      </trkpt>
      <trkpt lat="45.53416" lon="3.39265">
        <ele>642</ele>
        <time>2012-10-21T08:03:48.000Z</time>
      </trkpt>
      <trkpt lat="45.53415" lon="3.39264">
        <ele>636</ele>
        <time>2012-10-21T08:03:49.000Z</time>
      </trkpt>
      <trkpt lat="45.53413" lon="3.39261">
        <ele>631</ele>
        <time>2012-10-21T08:03:51.000Z</time>
      </trkpt>
      <trkpt lat="45.53412" lon="3.3926">
        <ele>634</ele>
        <time>2012-10-21T08:03:52.000Z</time>
      </trkpt>
      <trkpt lat="45.53409" lon="3.39264">
        <ele>636</ele>
        <time>2012-10-21T08:04:14.000Z</time>
      </trkpt>
      <trkpt lat="45.53408" lon="3.39265">
        <ele>639</ele>
        <time>2012-10-21T08:04:15.000Z</time>
      </trkpt>
      <trkpt lat="45.53407" lon="3.3926">
        <ele>642</ele>
        <time>2012-10-21T08:04:19.000Z</time>
      </trkpt>
      <trkpt lat="45.53406" lon="3.39258">
        <ele>642</ele>
        <time>2012-10-21T08:04:20.000Z</time>
      </trkpt>
      <trkpt lat="45.53405" lon="3.39252">
        <ele>650</ele>
        <time>2012-10-21T08:04:26.000Z</time>
      </trkpt>
      <trkpt lat="45.53405" lon="3.3925">
        <ele>644</ele>
        <time>2012-10-21T08:04:27.000Z</time>
      </trkpt>
      <trkpt lat="45.53404" lon="3.39245">
        <ele>636</ele>
        <time>2012-10-21T08:04:30.000Z</time>
      </trkpt>
      <trkpt lat="45.53404" lon="3.39243">
        <ele>636</ele>
        <time>2012-10-21T08:04:31.000Z</time>
      </trkpt>
      <trkpt lat="45.53403" lon="3.39237">
        <ele>651</ele>
        <time>2012-10-21T08:04:36.000Z</time>
      </trkpt>
      <trkpt lat="45.53403" lon="3.39234">
        <ele>652</ele>
        <time>2012-10-21T08:04:37.000Z</time>
      </trkpt>
      <trkpt lat="45.53405" lon="3.39234">
        <ele>652</ele>
        <time>2012-10-21T08:04:39.000Z</time>
      </trkpt>
      <trkpt lat="45.53408" lon="3.39233">
        <ele>651</ele>
        <time>2012-10-21T08:04:40.000Z</time>
      </trkpt>
      <trkpt lat="45.53408" lon="3.39228">
        <ele>639</ele>
        <time>2012-10-21T08:04:44.000Z</time>
      </trkpt>
      <trkpt lat="45.53408" lon="3.39225">
        <ele>636</ele>
        <time>2012-10-21T08:04:45.000Z</time>
      </trkpt>
      <trkpt lat="45.53408" lon="3.3922">
        <ele>641</ele>
        <time>2012-10-21T08:04:49.000Z</time>
      </trkpt>
      <trkpt lat="45.53409" lon="3.39218">
        <ele>636</ele>
        <time>2012-10-21T08:04:50.000Z</time>
      </trkpt>
      <trkpt lat="45.53411" lon="3.39213">
        <ele>637</ele>
        <time>2012-10-21T08:04:53.000Z</time>
      </trkpt>
      <trkpt lat="45.53411" lon="3.39211">
        <ele>636</ele>
        <time>2012-10-21T08:04:54.000Z</time>
      </trkpt>
      <trkpt lat="45.53414" lon="3.39209">
        <ele>634</ele>
        <time>2012-10-21T08:04:58.000Z</time>
      </trkpt>
      <trkpt lat="45.53416" lon="3.39208">
        <ele>634</ele>
        <time>2012-10-21T08:04:59.000Z</time>
      </trkpt>
      <trkpt lat="45.5342" lon="3.39205">
        <ele>633</ele>
        <time>2012-10-21T08:05:02.000Z</time>
      </trkpt>
      <trkpt lat="45.53421" lon="3.39203">
        <ele>633</ele>
        <time>2012-10-21T08:05:03.000Z</time>
      </trkpt>
      <trkpt lat="45.53423" lon="3.39199">
        <ele>637</ele>
        <time>2012-10-21T08:05:05.000Z</time>
      </trkpt>
      <trkpt lat="45.53424" lon="3.39197">
        <ele>635</ele>
        <time>2012-10-21T08:05:06.000Z</time>
      </trkpt>
      <trkpt lat="45.53425" lon="3.39192">
        <ele>634</ele>
        <time>2012-10-21T08:05:10.000Z</time>
      </trkpt>
      <trkpt lat="45.53425" lon="3.3919">
        <ele>633</ele>
        <time>2012-10-21T08:05:11.000Z</time>
      </trkpt>
      <trkpt lat="45.53424" lon="3.39186">
        <ele>637</ele>
        <time>2012-10-21T08:05:14.000Z</time>
      </trkpt>
      <trkpt lat="45.53424" lon="3.39183">
        <ele>638</ele>
        <time>2012-10-21T08:05:15.000Z</time>
      </trkpt>
      <trkpt lat="45.53421" lon="3.39177">
        <ele>637</ele>
        <time>2012-10-21T08:05:17.000Z</time>
      </trkpt>
      <trkpt lat="45.5342" lon="3.39175">
        <ele>636</ele>
        <time>2012-10-21T08:05:18.000Z</time>
      </trkpt>
      <trkpt lat="45.53418" lon="3.39171">
        <ele>636</ele>
        <time>2012-10-21T08:05:20.000Z</time>
      </trkpt>
      <trkpt lat="45.53417" lon="3.3917">
        <ele>636</ele>
        <time>2012-10-21T08:05:21.000Z</time>
      </trkpt>
      <trkpt lat="45.53414" lon="3.39166">
        <ele>637</ele>
        <time>2012-10-21T08:05:23.000Z</time>
      </trkpt>
      <trkpt lat="45.53412" lon="3.39164">
        <ele>639</ele>
        <time>2012-10-21T08:05:24.000Z</time>
      </trkpt>
      <trkpt lat="45.53411" lon="3.39162">
        <ele>640</ele>
        <time>2012-10-21T08:05:25.000Z</time>
      </trkpt>
      <trkpt lat="45.53409" lon="3.3916">
        <ele>641</ele>
        <time>2012-10-21T08:05:26.000Z</time>
      </trkpt>
      <trkpt lat="45.53406" lon="3.39155">
        <ele>640</ele>
        <time>2012-10-21T08:05:28.000Z</time>
      </trkpt>
      <trkpt lat="45.53405" lon="3.39153">
        <ele>639</ele>
        <time>2012-10-21T08:05:29.000Z</time>
      </trkpt>
      <trkpt lat="45.53402" lon="3.39149">
        <ele>639</ele>
        <time>2012-10-21T08:05:31.000Z</time>
      </trkpt>
      <trkpt lat="45.53401" lon="3.39147">
        <ele>643</ele>
        <time>2012-10-21T08:05:32.000Z</time>
      </trkpt>
      <trkpt lat="45.53399" lon="3.39141">
        <ele>645</ele>
        <time>2012-10-21T08:05:34.000Z</time>
      </trkpt>
      <trkpt lat="45.53399" lon="3.39139">
        <ele>645</ele>
        <time>2012-10-21T08:05:35.000Z</time>
      </trkpt>
      <trkpt lat="45.53398" lon="3.39133">
        <ele>644</ele>
        <time>2012-10-21T08:05:37.000Z</time>
      </trkpt>
      <trkpt lat="45.53397" lon="3.39133">
        <ele>645</ele>
        <time>2012-10-21T08:05:38.000Z</time>
      </trkpt>
      <trkpt lat="45.53394" lon="3.39128">
        <ele>651</ele>
        <time>2012-10-21T08:05:44.000Z</time>
      </trkpt>
      <trkpt lat="45.53393" lon="3.39127">
        <ele>650</ele>
        <time>2012-10-21T08:05:45.000Z</time>
      </trkpt>
      <trkpt lat="45.5339" lon="3.39123">
        <ele>646</ele>
        <time>2012-10-21T08:05:48.000Z</time>
      </trkpt>
      <trkpt lat="45.53389" lon="3.39121">
        <ele>647</ele>
        <time>2012-10-21T08:05:49.000Z</time>
      </trkpt>
      <trkpt lat="45.53386" lon="3.39117">
        <ele>653</ele>
        <time>2012-10-21T08:05:52.000Z</time>
      </trkpt>
      <trkpt lat="45.53386" lon="3.39115">
        <ele>657</ele>
        <time>2012-10-21T08:05:53.000Z</time>
      </trkpt>
      <trkpt lat="45.53386" lon="3.39109">
        <ele>652</ele>
        <time>2012-10-21T08:05:56.000Z</time>
      </trkpt>
      <trkpt lat="45.53386" lon="3.39108">
        <ele>647</ele>
        <time>2012-10-21T08:05:57.000Z</time>
      </trkpt>
      <trkpt lat="45.53385" lon="3.39103">
        <ele>652</ele>
        <time>2012-10-21T08:06:00.000Z</time>
      </trkpt>
      <trkpt lat="45.53385" lon="3.39101">
        <ele>655</ele>
        <time>2012-10-21T08:06:01.000Z</time>
      </trkpt>
      <trkpt lat="45.53385" lon="3.39096">
        <ele>660</ele>
        <time>2012-10-21T08:06:03.000Z</time>
      </trkpt>
      <trkpt lat="45.53385" lon="3.39094">
        <ele>659</ele>
        <time>2012-10-21T08:06:04.000Z</time>
      </trkpt>
      <trkpt lat="45.53387" lon="3.3909">
        <ele>657</ele>
        <time>2012-10-21T08:06:06.000Z</time>
      </trkpt>
      <trkpt lat="45.53387" lon="3.39088">
        <ele>658</ele>
        <time>2012-10-21T08:06:07.000Z</time>
      </trkpt>
      <trkpt lat="45.53388" lon="3.39083">
        <ele>661</ele>
        <time>2012-10-21T08:06:10.000Z</time>
      </trkpt>
      <trkpt lat="45.53389" lon="3.3908">
        <ele>665</ele>
        <time>2012-10-21T08:06:11.000Z</time>
      </trkpt>
      <trkpt lat="45.5339" lon="3.39075">
        <ele>669</ele>
        <time>2012-10-21T08:06:13.000Z</time>
      </trkpt>
      <trkpt lat="45.5339" lon="3.39072">
        <ele>670</ele>
        <time>2012-10-21T08:06:14.000Z</time>
      </trkpt>
      <trkpt lat="45.5339" lon="3.39067">
        <ele>670</ele>
        <time>2012-10-21T08:06:16.000Z</time>
      </trkpt>
      <trkpt lat="45.5339" lon="3.39064">
        <ele>674</ele>
        <time>2012-10-21T08:06:17.000Z</time>
      </trkpt>
      <trkpt lat="45.5339" lon="3.3906">
        <ele>677</ele>
        <time>2012-10-21T08:06:19.000Z</time>
      </trkpt>
      <trkpt lat="45.5339" lon="3.39057">
        <ele>674</ele>
        <time>2012-10-21T08:06:20.000Z</time>
      </trkpt>
      <trkpt lat="45.5339" lon="3.39051">
        <ele>681</ele>
        <time>2012-10-21T08:06:23.000Z</time>
      </trkpt>
      <trkpt lat="45.5339" lon="3.3905">
        <ele>683</ele>
        <time>2012-10-21T08:06:24.000Z</time>
      </trkpt>
      <trkpt lat="45.5339" lon="3.39044">
        <ele>682</ele>
        <time>2012-10-21T08:06:27.000Z</time>
      </trkpt>
      <trkpt lat="45.53389" lon="3.39043">
        <ele>679</ele>
        <time>2012-10-21T08:06:28.000Z</time>
      </trkpt>
      <trkpt lat="45.53387" lon="3.39039">
        <ele>682</ele>
        <time>2012-10-21T08:06:31.000Z</time>
      </trkpt>
      <trkpt lat="45.53385" lon="3.39037">
        <ele>683</ele>
        <time>2012-10-21T08:06:32.000Z</time>
      </trkpt>
      <trkpt lat="45.53383" lon="3.39033">
        <ele>686</ele>
        <time>2012-10-21T08:06:34.000Z</time>
      </trkpt>
      <trkpt lat="45.53383" lon="3.39031">
        <ele>685</ele>
        <time>2012-10-21T08:06:35.000Z</time>
      </trkpt>
      <trkpt lat="45.53381" lon="3.39027">
        <ele>693</ele>
        <time>2012-10-21T08:06:38.000Z</time>
      </trkpt>
      <trkpt lat="45.53381" lon="3.39025">
        <ele>694</ele>
        <time>2012-10-21T08:06:39.000Z</time>
      </trkpt>
      <trkpt lat="45.53378" lon="3.39021">
        <ele>696</ele>
        <time>2012-10-21T08:06:42.000Z</time>
      </trkpt>
      <trkpt lat="45.53377" lon="3.3902">
        <ele>693</ele>
        <time>2012-10-21T08:06:43.000Z</time>
      </trkpt>
      <trkpt lat="45.53374" lon="3.39017">
        <ele>693</ele>
        <time>2012-10-21T08:06:45.000Z</time>
      </trkpt>
      <trkpt lat="45.53373" lon="3.39015">
        <ele>694</ele>
        <time>2012-10-21T08:06:46.000Z</time>
      </trkpt>
      <trkpt lat="45.53372" lon="3.39009">
        <ele>692</ele>
        <time>2012-10-21T08:06:48.000Z</time>
      </trkpt>
      <trkpt lat="45.53371" lon="3.39007">
        <ele>692</ele>
        <time>2012-10-21T08:06:49.000Z</time>
      </trkpt>
      <trkpt lat="45.53368" lon="3.39003">
        <ele>696</ele>
        <time>2012-10-21T08:06:52.000Z</time>
      </trkpt>
      <trkpt lat="45.53367" lon="3.39002">
        <ele>698</ele>
        <time>2012-10-21T08:06:53.000Z</time>
      </trkpt>
      <trkpt lat="45.53364" lon="3.38998">
        <ele>698</ele>
        <time>2012-10-21T08:06:56.000Z</time>
      </trkpt>
      <trkpt lat="45.53363" lon="3.38997">
        <ele>698</ele>
        <time>2012-10-21T08:06:57.000Z</time>
      </trkpt>
      <trkpt lat="45.53362" lon="3.38992">
        <ele>703</ele>
        <time>2012-10-21T08:07:01.000Z</time>
      </trkpt>
      <trkpt lat="45.53361" lon="3.38991">
        <ele>703</ele>
        <time>2012-10-21T08:07:02.000Z</time>
      </trkpt>
      <trkpt lat="45.53358" lon="3.38989">
        <ele>702</ele>
        <time>2012-10-21T08:07:04.000Z</time>
      </trkpt>
      <trkpt lat="45.53356" lon="3.38989">
        <ele>702</ele>
        <time>2012-10-21T08:07:05.000Z</time>
      </trkpt>
      <trkpt lat="45.53353" lon="3.38986">
        <ele>703</ele>
        <time>2012-10-21T08:07:07.000Z</time>
      </trkpt>
      <trkpt lat="45.53353" lon="3.38984">
        <ele>703</ele>
        <time>2012-10-21T08:07:08.000Z</time>
      </trkpt>
      <trkpt lat="45.53351" lon="3.3898">
        <ele>701</ele>
        <time>2012-10-21T08:07:13.000Z</time>
      </trkpt>
      <trkpt lat="45.53349" lon="3.38978">
        <ele>699</ele>
        <time>2012-10-21T08:07:14.000Z</time>
      </trkpt>
      <trkpt lat="45.53347" lon="3.38977">
        <ele>705</ele>
        <time>2012-10-21T08:07:18.000Z</time>
      </trkpt>
      <trkpt lat="45.53344" lon="3.38975">
        <ele>711</ele>
        <time>2012-10-21T08:07:19.000Z</time>
      </trkpt>
      <trkpt lat="45.5334" lon="3.38978">
        <ele>703</ele>
        <time>2012-10-21T08:07:52.000Z</time>
      </trkpt>
      <trkpt lat="45.53339" lon="3.38978">
        <ele>701</ele>
        <time>2012-10-21T08:07:53.000Z</time>
      </trkpt>
      <trkpt lat="45.53336" lon="3.38978">
        <ele>693</ele>
        <time>2012-10-21T08:08:18.000Z</time>
      </trkpt>
      <trkpt lat="45.53335" lon="3.38978">
        <ele>694</ele>
        <time>2012-10-21T08:08:19.000Z</time>
      </trkpt>
      <trkpt lat="45.53331" lon="3.38981">
        <ele>696</ele>
        <time>2012-10-21T08:08:28.000Z</time>
      </trkpt>
      <trkpt lat="45.5333" lon="3.38981">
        <ele>696</ele>
        <time>2012-10-21T08:08:29.000Z</time>
      </trkpt>
      <trkpt lat="45.53329" lon="3.38979">
        <ele>699</ele>
        <time>2012-10-21T08:08:32.000Z</time>
      </trkpt>
      <trkpt lat="45.53327" lon="3.38977">
        <ele>700</ele>
        <time>2012-10-21T08:08:33.000Z</time>
      </trkpt>
      <trkpt lat="45.53323" lon="3.38978">
        <ele>701</ele>
        <time>2012-10-21T08:08:35.000Z</time>
      </trkpt>
      <trkpt lat="45.53322" lon="3.38981">
        <ele>699</ele>
        <time>2012-10-21T08:08:36.000Z</time>
      </trkpt>
      <trkpt lat="45.53323" lon="3.38985">
        <ele>699</ele>
        <time>2012-10-21T08:08:37.000Z</time>
      </trkpt>
      <trkpt lat="45.53323" lon="3.38988">
        <ele>703</ele>
        <time>2012-10-21T08:08:38.000Z</time>
      </trkpt>
      <trkpt lat="45.53324" lon="3.38994">
        <ele>706</ele>
        <time>2012-10-21T08:08:40.000Z</time>
      </trkpt>
      <trkpt lat="45.53325" lon="3.38996">
        <ele>701</ele>
        <time>2012-10-21T08:08:41.000Z</time>
      </trkpt>
      <trkpt lat="45.53325" lon="3.39">
        <ele>702</ele>
        <time>2012-10-21T08:08:43.000Z</time>
      </trkpt>
      <trkpt lat="45.53326" lon="3.39003">
        <ele>699</ele>
        <time>2012-10-21T08:08:44.000Z</time>
      </trkpt>
      <trkpt lat="45.53326" lon="3.39008">
        <ele>697</ele>
        <time>2012-10-21T08:08:46.000Z</time>
      </trkpt>
      <trkpt lat="45.53326" lon="3.3901">
        <ele>699</ele>
        <time>2012-10-21T08:08:47.000Z</time>
      </trkpt>
      <trkpt lat="45.53327" lon="3.39015">
        <ele>704</ele>
        <time>2012-10-21T08:08:50.000Z</time>
      </trkpt>
      <trkpt lat="45.53327" lon="3.39017">
        <ele>702</ele>
        <time>2012-10-21T08:08:51.000Z</time>
      </trkpt>
      <trkpt lat="45.53327" lon="3.39022">
        <ele>699</ele>
        <time>2012-10-21T08:08:53.000Z</time>
      </trkpt>
      <trkpt lat="45.53326" lon="3.39025">
        <ele>698</ele>
        <time>2012-10-21T08:08:54.000Z</time>
      </trkpt>
      <trkpt lat="45.53326" lon="3.3903">
        <ele>700</ele>
        <time>2012-10-21T08:08:56.000Z</time>
      </trkpt>
      <trkpt lat="45.53325" lon="3.39033">
        <ele>700</ele>
        <time>2012-10-21T08:08:57.000Z</time>
      </trkpt>
      <trkpt lat="45.53323" lon="3.39039">
        <ele>702</ele>
        <time>2012-10-21T08:08:59.000Z</time>
      </trkpt>
      <trkpt lat="45.53323" lon="3.39042">
        <ele>700</ele>
        <time>2012-10-21T08:09:00.000Z</time>
      </trkpt>
      <trkpt lat="45.53322" lon="3.39046">
        <ele>703</ele>
        <time>2012-10-21T08:09:01.000Z</time>
      </trkpt>
      <trkpt lat="45.53321" lon="3.3905">
        <ele>704</ele>
        <time>2012-10-21T08:09:02.000Z</time>
      </trkpt>
      <trkpt lat="45.53319" lon="3.39055">
        <ele>702</ele>
        <time>2012-10-21T08:09:12.000Z</time>
      </trkpt>
      <trkpt lat="45.53318" lon="3.39055">
        <ele>703</ele>
        <time>2012-10-21T08:09:13.000Z</time>
      </trkpt>
      <trkpt lat="45.53314" lon="3.39057">
        <ele>709</ele>
        <time>2012-10-21T08:09:16.000Z</time>
      </trkpt>
      <trkpt lat="45.53314" lon="3.39058">
        <ele>711</ele>
        <time>2012-10-21T08:09:17.000Z</time>
      </trkpt>
      <trkpt lat="45.5331" lon="3.39061">
        <ele>712</ele>
        <time>2012-10-21T08:09:20.000Z</time>
      </trkpt>
      <trkpt lat="45.53309" lon="3.39062">
        <ele>712</ele>
        <time>2012-10-21T08:09:21.000Z</time>
      </trkpt>
      <trkpt lat="45.53307" lon="3.39066">
        <ele>712</ele>
        <time>2012-10-21T08:09:24.000Z</time>
      </trkpt>
      <trkpt lat="45.53306" lon="3.39068">
        <ele>712</ele>
        <time>2012-10-21T08:09:25.000Z</time>
      </trkpt>
      <trkpt lat="45.53304" lon="3.39072">
        <ele>715</ele>
        <time>2012-10-21T08:09:27.000Z</time>
      </trkpt>
      <trkpt lat="45.53303" lon="3.39074">
        <ele>715</ele>
        <time>2012-10-21T08:09:28.000Z</time>
      </trkpt>
      <trkpt lat="45.533" lon="3.39078">
        <ele>715</ele>
        <time>2012-10-21T08:09:31.000Z</time>
      </trkpt>
      <trkpt lat="45.533" lon="3.39079">
        <ele>713</ele>
        <time>2012-10-21T08:09:32.000Z</time>
      </trkpt>
      <trkpt lat="45.53297" lon="3.39084">
        <ele>712</ele>
        <time>2012-10-21T08:09:35.000Z</time>
      </trkpt>
      <trkpt lat="45.53297" lon="3.39086">
        <ele>713</ele>
        <time>2012-10-21T08:09:36.000Z</time>
      </trkpt>
      <trkpt lat="45.53296" lon="3.39091">
        <ele>716</ele>
        <time>2012-10-21T08:09:38.000Z</time>
      </trkpt>
      <trkpt lat="45.53295" lon="3.39093">
        <ele>715</ele>
        <time>2012-10-21T08:09:39.000Z</time>
      </trkpt>
      <trkpt lat="45.53295" lon="3.39099">
        <ele>718</ele>
        <time>2012-10-21T08:09:42.000Z</time>
      </trkpt>
      <trkpt lat="45.53294" lon="3.39102">
        <ele>719</ele>
        <time>2012-10-21T08:09:43.000Z</time>
      </trkpt>
      <trkpt lat="45.53293" lon="3.39107">
        <ele>720</ele>
        <time>2012-10-21T08:09:45.000Z</time>
      </trkpt>
      <trkpt lat="45.53292" lon="3.3911">
        <ele>719</ele>
        <time>2012-10-21T08:09:46.000Z</time>
      </trkpt>
      <trkpt lat="45.53291" lon="3.39116">
        <ele>720</ele>
        <time>2012-10-21T08:09:48.000Z</time>
      </trkpt>
      <trkpt lat="45.53291" lon="3.39119">
        <ele>720</ele>
        <time>2012-10-21T08:09:49.000Z</time>
      </trkpt>
      <trkpt lat="45.53289" lon="3.39124">
        <ele>719</ele>
        <time>2012-10-21T08:09:51.000Z</time>
      </trkpt>
      <trkpt lat="45.53289" lon="3.39127">
        <ele>717</ele>
        <time>2012-10-21T08:09:52.000Z</time>
      </trkpt>
      <trkpt lat="45.53288" lon="3.39131">
        <ele>717</ele>
        <time>2012-10-21T08:09:54.000Z</time>
      </trkpt>
      <trkpt lat="45.53288" lon="3.39134">
        <ele>717</ele>
        <time>2012-10-21T08:09:55.000Z</time>
      </trkpt>
      <trkpt lat="45.53287" lon="3.39139">
        <ele>713</ele>
        <time>2012-10-21T08:09:57.000Z</time>
      </trkpt>
      <trkpt lat="45.53286" lon="3.39142">
        <ele>710</ele>
        <time>2012-10-21T08:09:58.000Z</time>
      </trkpt>
      <trkpt lat="45.53285" lon="3.39147">
        <ele>710</ele>
        <time>2012-10-21T08:10:00.000Z</time>
      </trkpt>
      <trkpt lat="45.53285" lon="3.39149">
        <ele>710</ele>
        <time>2012-10-21T08:10:01.000Z</time>
      </trkpt>
      <trkpt lat="45.53284" lon="3.39155">
        <ele>709</ele>
        <time>2012-10-21T08:10:03.000Z</time>
      </trkpt>
      <trkpt lat="45.53284" lon="3.39157">
        <ele>708</ele>
        <time>2012-10-21T08:10:04.000Z</time>
      </trkpt>
      <trkpt lat="45.53283" lon="3.39162">
        <ele>706</ele>
        <time>2012-10-21T08:10:06.000Z</time>
      </trkpt>
      <trkpt lat="45.53282" lon="3.39164">
        <ele>705</ele>
        <time>2012-10-21T08:10:07.000Z</time>
      </trkpt>
      <trkpt lat="45.5328" lon="3.39169">
        <ele>706</ele>
        <time>2012-10-21T08:10:09.000Z</time>
      </trkpt>
      <trkpt lat="45.5328" lon="3.39171">
        <ele>706</ele>
        <time>2012-10-21T08:10:10.000Z</time>
      </trkpt>
      <trkpt lat="45.53278" lon="3.39177">
        <ele>705</ele>
        <time>2012-10-21T08:10:12.000Z</time>
      </trkpt>
      <trkpt lat="45.53277" lon="3.39179">
        <ele>703</ele>
        <time>2012-10-21T08:10:13.000Z</time>
      </trkpt>
      <trkpt lat="45.53276" lon="3.39184">
        <ele>705</ele>
        <time>2012-10-21T08:10:15.000Z</time>
      </trkpt>
      <trkpt lat="45.53274" lon="3.39186">
        <ele>704</ele>
        <time>2012-10-21T08:10:16.000Z</time>
      </trkpt>
      <trkpt lat="45.53273" lon="3.39192">
        <ele>705</ele>
        <time>2012-10-21T08:10:18.000Z</time>
      </trkpt>
      <trkpt lat="45.53272" lon="3.39195">
        <ele>705</ele>
        <time>2012-10-21T08:10:19.000Z</time>
      </trkpt>
      <trkpt lat="45.5327" lon="3.39199">
        <ele>703</ele>
        <time>2012-10-21T08:10:21.000Z</time>
      </trkpt>
      <trkpt lat="45.53269" lon="3.39202">
        <ele>702</ele>
        <time>2012-10-21T08:10:22.000Z</time>
      </trkpt>
      <trkpt lat="45.53266" lon="3.39207">
        <ele>706</ele>
        <time>2012-10-21T08:10:24.000Z</time>
      </trkpt>
      <trkpt lat="45.53265" lon="3.3921">
        <ele>705</ele>
        <time>2012-10-21T08:10:25.000Z</time>
      </trkpt>
      <trkpt lat="45.53263" lon="3.39215">
        <ele>702</ele>
        <time>2012-10-21T08:10:27.000Z</time>
      </trkpt>
      <trkpt lat="45.53262" lon="3.39218">
        <ele>703</ele>
        <time>2012-10-21T08:10:28.000Z</time>
      </trkpt>
      <trkpt lat="45.53261" lon="3.39221">
        <ele>703</ele>
        <time>2012-10-21T08:10:29.000Z</time>
      </trkpt>
      <trkpt lat="45.53261" lon="3.39224">
        <ele>699</ele>
        <time>2012-10-21T08:10:30.000Z</time>
      </trkpt>
      <trkpt lat="45.53259" lon="3.39229">
        <ele>700</ele>
        <time>2012-10-21T08:10:32.000Z</time>
      </trkpt>
      <trkpt lat="45.53258" lon="3.39231">
        <ele>701</ele>
        <time>2012-10-21T08:10:33.000Z</time>
      </trkpt>
      <trkpt lat="45.53256" lon="3.39235">
        <ele>702</ele>
        <time>2012-10-21T08:10:35.000Z</time>
      </trkpt>
      <trkpt lat="45.53255" lon="3.39238">
        <ele>703</ele>
        <time>2012-10-21T08:10:36.000Z</time>
      </trkpt>
      <trkpt lat="45.53253" lon="3.39243">
        <ele>700</ele>
        <time>2012-10-21T08:10:38.000Z</time>
      </trkpt>
      <trkpt lat="45.53253" lon="3.39246">
        <ele>697</ele>
        <time>2012-10-21T08:10:39.000Z</time>
      </trkpt>
      <trkpt lat="45.53251" lon="3.39251">
        <ele>698</ele>
        <time>2012-10-21T08:10:41.000Z</time>
      </trkpt>
      <trkpt lat="45.5325" lon="3.39254">
        <ele>699</ele>
        <time>2012-10-21T08:10:42.000Z</time>
      </trkpt>
      <trkpt lat="45.53249" lon="3.39257">
        <ele>702</ele>
        <time>2012-10-21T08:10:43.000Z</time>
      </trkpt>
      <trkpt lat="45.53249" lon="3.3926">
        <ele>704</ele>
        <time>2012-10-21T08:10:44.000Z</time>
      </trkpt>
      <trkpt lat="45.53248" lon="3.39263">
        <ele>703</ele>
        <time>2012-10-21T08:10:45.000Z</time>
      </trkpt>
      <trkpt lat="45.53246" lon="3.39266">
        <ele>702</ele>
        <time>2012-10-21T08:10:46.000Z</time>
      </trkpt>
      <trkpt lat="45.53244" lon="3.3927">
        <ele>698</ele>
        <time>2012-10-21T08:10:48.000Z</time>
      </trkpt>
      <trkpt lat="45.53243" lon="3.39273">
        <ele>696</ele>
        <time>2012-10-21T08:10:49.000Z</time>
      </trkpt>
      <trkpt lat="45.53241" lon="3.39276">
        <ele>698</ele>
        <time>2012-10-21T08:10:50.000Z</time>
      </trkpt>
      <trkpt lat="45.5324" lon="3.39279">
        <ele>694</ele>
        <time>2012-10-21T08:10:51.000Z</time>
      </trkpt>
      <trkpt lat="45.53238" lon="3.39283">
        <ele>701</ele>
        <time>2012-10-21T08:10:53.000Z</time>
      </trkpt>
      <trkpt lat="45.53236" lon="3.39286">
        <ele>700</ele>
        <time>2012-10-21T08:10:54.000Z</time>
      </trkpt>
      <trkpt lat="45.53232" lon="3.39288">
        <ele>700</ele>
        <time>2012-10-21T08:10:56.000Z</time>
      </trkpt>
      <trkpt lat="45.5323" lon="3.39288">
        <ele>703</ele>
        <time>2012-10-21T08:10:57.000Z</time>
      </trkpt>
      <trkpt lat="45.53228" lon="3.39287">
        <ele>702</ele>
        <time>2012-10-21T08:10:58.000Z</time>
      </trkpt>
      <trkpt lat="45.53225" lon="3.39286">
        <ele>702</ele>
        <time>2012-10-21T08:10:59.000Z</time>
      </trkpt>
      <trkpt lat="45.53223" lon="3.39285">
        <ele>703</ele>
        <time>2012-10-21T08:11:00.000Z</time>
      </trkpt>
      <trkpt lat="45.5322" lon="3.39284">
        <ele>704</ele>
        <time>2012-10-21T08:11:01.000Z</time>
      </trkpt>
      <trkpt lat="45.53217" lon="3.39283">
        <ele>704</ele>
        <time>2012-10-21T08:11:02.000Z</time>
      </trkpt>
      <trkpt lat="45.53215" lon="3.39282">
        <ele>698</ele>
        <time>2012-10-21T08:11:03.000Z</time>
      </trkpt>
      <trkpt lat="45.53212" lon="3.39282">
        <ele>700</ele>
        <time>2012-10-21T08:11:04.000Z</time>
      </trkpt>
      <trkpt lat="45.53209" lon="3.39282">
        <ele>702</ele>
        <time>2012-10-21T08:11:05.000Z</time>
      </trkpt>
      <trkpt lat="45.53206" lon="3.39283">
        <ele>702</ele>
        <time>2012-10-21T08:11:06.000Z</time>
      </trkpt>
      <trkpt lat="45.53203" lon="3.39284">
        <ele>703</ele>
        <time>2012-10-21T08:11:07.000Z</time>
      </trkpt>
      <trkpt lat="45.532" lon="3.39285">
        <ele>704</ele>
        <time>2012-10-21T08:11:08.000Z</time>
      </trkpt>
      <trkpt lat="45.53197" lon="3.39286">
        <ele>705</ele>
        <time>2012-10-21T08:11:09.000Z</time>
      </trkpt>
      <trkpt lat="45.53194" lon="3.39287">
        <ele>703</ele>
        <time>2012-10-21T08:11:10.000Z</time>
      </trkpt>
      <trkpt lat="45.53192" lon="3.39288">
        <ele>705</ele>
        <time>2012-10-21T08:11:11.000Z</time>
      </trkpt>
      <trkpt lat="45.53189" lon="3.39289">
        <ele>706</ele>
        <time>2012-10-21T08:11:12.000Z</time>
      </trkpt>
      <trkpt lat="45.53186" lon="3.39291">
        <ele>710</ele>
        <time>2012-10-21T08:11:13.000Z</time>
      </trkpt>
      <trkpt lat="45.53183" lon="3.39292">
        <ele>711</ele>
        <time>2012-10-21T08:11:14.000Z</time>
      </trkpt>
      <trkpt lat="45.53181" lon="3.39293">
        <ele>708</ele>
        <time>2012-10-21T08:11:15.000Z</time>
      </trkpt>
      <trkpt lat="45.53178" lon="3.39294">
        <ele>708</ele>
        <time>2012-10-21T08:11:16.000Z</time>
      </trkpt>
      <trkpt lat="45.53176" lon="3.39295">
        <ele>707</ele>
        <time>2012-10-21T08:11:17.000Z</time>
      </trkpt>
      <trkpt lat="45.53173" lon="3.39296">
        <ele>707</ele>
        <time>2012-10-21T08:11:18.000Z</time>
      </trkpt>
      <trkpt lat="45.53171" lon="3.39297">
        <ele>710</ele>
        <time>2012-10-21T08:11:19.000Z</time>
      </trkpt>
      <trkpt lat="45.53168" lon="3.39297">
        <ele>710</ele>
        <time>2012-10-21T08:11:20.000Z</time>
      </trkpt>
      <trkpt lat="45.53166" lon="3.39299">
        <ele>712</ele>
        <time>2012-10-21T08:11:21.000Z</time>
      </trkpt>
      <trkpt lat="45.53164" lon="3.39301">
        <ele>712</ele>
        <time>2012-10-21T08:11:22.000Z</time>
      </trkpt>
      <trkpt lat="45.53161" lon="3.39303">
        <ele>711</ele>
        <time>2012-10-21T08:11:23.000Z</time>
      </trkpt>
      <trkpt lat="45.53159" lon="3.39304">
        <ele>711</ele>
        <time>2012-10-21T08:11:24.000Z</time>
      </trkpt>
      <trkpt lat="45.53157" lon="3.39306">
        <ele>712</ele>
        <time>2012-10-21T08:11:25.000Z</time>
      </trkpt>
      <trkpt lat="45.53154" lon="3.39308">
        <ele>713</ele>
        <time>2012-10-21T08:11:26.000Z</time>
      </trkpt>
      <trkpt lat="45.53152" lon="3.3931">
        <ele>710</ele>
        <time>2012-10-21T08:11:27.000Z</time>
      </trkpt>
      <trkpt lat="45.5315" lon="3.39312">
        <ele>709</ele>
        <time>2012-10-21T08:11:28.000Z</time>
      </trkpt>
      <trkpt lat="45.53148" lon="3.39314">
        <ele>709</ele>
        <time>2012-10-21T08:11:29.000Z</time>
      </trkpt>
      <trkpt lat="45.53147" lon="3.39316">
        <ele>708</ele>
        <time>2012-10-21T08:11:30.000Z</time>
      </trkpt>
      <trkpt lat="45.53144" lon="3.39318">
        <ele>710</ele>
        <time>2012-10-21T08:11:31.000Z</time>
      </trkpt>
      <trkpt lat="45.53142" lon="3.3932">
        <ele>713</ele>
        <time>2012-10-21T08:11:32.000Z</time>
      </trkpt>
      <trkpt lat="45.5314" lon="3.39321">
        <ele>711</ele>
        <time>2012-10-21T08:11:33.000Z</time>
      </trkpt>
      <trkpt lat="45.53139" lon="3.39324">
        <ele>714</ele>
        <time>2012-10-21T08:11:34.000Z</time>
      </trkpt>
      <trkpt lat="45.53137" lon="3.39325">
        <ele>714</ele>
        <time>2012-10-21T08:11:35.000Z</time>
      </trkpt>
      <trkpt lat="45.53135" lon="3.39327">
        <ele>717</ele>
        <time>2012-10-21T08:11:36.000Z</time>
      </trkpt>
      <trkpt lat="45.53133" lon="3.39329">
        <ele>712</ele>
        <time>2012-10-21T08:11:37.000Z</time>
      </trkpt>
      <trkpt lat="45.53131" lon="3.39331">
        <ele>711</ele>
        <time>2012-10-21T08:11:38.000Z</time>
      </trkpt>
      <trkpt lat="45.53129" lon="3.39333">
        <ele>709</ele>
        <time>2012-10-21T08:11:39.000Z</time>
      </trkpt>
      <trkpt lat="45.53127" lon="3.39335">
        <ele>711</ele>
        <time>2012-10-21T08:11:40.000Z</time>
      </trkpt>
      <trkpt lat="45.53125" lon="3.39336">
        <ele>711</ele>
        <time>2012-10-21T08:11:41.000Z</time>
      </trkpt>
      <trkpt lat="45.53122" lon="3.39338">
        <ele>714</ele>
        <time>2012-10-21T08:11:42.000Z</time>
      </trkpt>
      <trkpt lat="45.5312" lon="3.39339">
        <ele>711</ele>
        <time>2012-10-21T08:11:43.000Z</time>
      </trkpt>
      <trkpt lat="45.53118" lon="3.3934">
        <ele>709</ele>
        <time>2012-10-21T08:11:44.000Z</time>
      </trkpt>
      <trkpt lat="45.53116" lon="3.39341">
        <ele>714</ele>
        <time>2012-10-21T08:11:45.000Z</time>
      </trkpt>
      <trkpt lat="45.53112" lon="3.39345">
        <ele>711</ele>
        <time>2012-10-21T08:11:47.000Z</time>
      </trkpt>
      <trkpt lat="45.5311" lon="3.39346">
        <ele>710</ele>
        <time>2012-10-21T08:11:48.000Z</time>
      </trkpt>
      <trkpt lat="45.53106" lon="3.39348">
        <ele>708</ele>
        <time>2012-10-21T08:11:50.000Z</time>
      </trkpt>
      <trkpt lat="45.53104" lon="3.3935">
        <ele>706</ele>
        <time>2012-10-21T08:11:51.000Z</time>
      </trkpt>
      <trkpt lat="45.53101" lon="3.39352">
        <ele>711</ele>
        <time>2012-10-21T08:11:53.000Z</time>
      </trkpt>
      <trkpt lat="45.53099" lon="3.39353">
        <ele>713</ele>
        <time>2012-10-21T08:11:54.000Z</time>
      </trkpt>
      <trkpt lat="45.53097" lon="3.39354">
        <ele>711</ele>
        <time>2012-10-21T08:11:55.000Z</time>
      </trkpt>
      <trkpt lat="45.53095" lon="3.39355">
        <ele>712</ele>
        <time>2012-10-21T08:11:56.000Z</time>
      </trkpt>
      <trkpt lat="45.5309" lon="3.39358">
        <ele>714</ele>
        <time>2012-10-21T08:11:58.000Z</time>
      </trkpt>
      <trkpt lat="45.53089" lon="3.39359">
        <ele>714</ele>
        <time>2012-10-21T08:11:59.000Z</time>
      </trkpt>
      <trkpt lat="45.53084" lon="3.39361">
        <ele>715</ele>
        <time>2012-10-21T08:12:01.000Z</time>
      </trkpt>
      <trkpt lat="45.53082" lon="3.39363">
        <ele>717</ele>
        <time>2012-10-21T08:12:02.000Z</time>
      </trkpt>
      <trkpt lat="45.5308" lon="3.39364">
        <ele>718</ele>
        <time>2012-10-21T08:12:03.000Z</time>
      </trkpt>
      <trkpt lat="45.53078" lon="3.39366">
        <ele>719</ele>
        <time>2012-10-21T08:12:04.000Z</time>
      </trkpt>
      <trkpt lat="45.53074" lon="3.39369">
        <ele>712</ele>
        <time>2012-10-21T08:12:06.000Z</time>
      </trkpt>
      <trkpt lat="45.53072" lon="3.39371">
        <ele>710</ele>
        <time>2012-10-21T08:12:07.000Z</time>
      </trkpt>
      <trkpt lat="45.5307" lon="3.39372">
        <ele>712</ele>
        <time>2012-10-21T08:12:08.000Z</time>
      </trkpt>
      <trkpt lat="45.53068" lon="3.39373">
        <ele>710</ele>
        <time>2012-10-21T08:12:09.000Z</time>
      </trkpt>
      <trkpt lat="45.53064" lon="3.39376">
        <ele>713</ele>
        <time>2012-10-21T08:12:11.000Z</time>
      </trkpt>
      <trkpt lat="45.53062" lon="3.39377">
        <ele>715</ele>
        <time>2012-10-21T08:12:12.000Z</time>
      </trkpt>
      <trkpt lat="45.53058" lon="3.3938">
        <ele>717</ele>
        <time>2012-10-21T08:12:14.000Z</time>
      </trkpt>
      <trkpt lat="45.53056" lon="3.39381">
        <ele>717</ele>
        <time>2012-10-21T08:12:15.000Z</time>
      </trkpt>
      <trkpt lat="45.53052" lon="3.39383">
        <ele>719</ele>
        <time>2012-10-21T08:12:17.000Z</time>
      </trkpt>
      <trkpt lat="45.5305" lon="3.39384">
        <ele>720</ele>
        <time>2012-10-21T08:12:18.000Z</time>
      </trkpt>
      <trkpt lat="45.53047" lon="3.39386">
        <ele>720</ele>
        <time>2012-10-21T08:12:20.000Z</time>
      </trkpt>
      <trkpt lat="45.53045" lon="3.39387">
        <ele>718</ele>
        <time>2012-10-21T08:12:21.000Z</time>
      </trkpt>
      <trkpt lat="45.53041" lon="3.3939">
        <ele>723</ele>
        <time>2012-10-21T08:12:23.000Z</time>
      </trkpt>
      <trkpt lat="45.53039" lon="3.39391">
        <ele>723</ele>
        <time>2012-10-21T08:12:24.000Z</time>
      </trkpt>
      <trkpt lat="45.53035" lon="3.39393">
        <ele>721</ele>
        <time>2012-10-21T08:12:26.000Z</time>
      </trkpt>
      <trkpt lat="45.53033" lon="3.39394">
        <ele>723</ele>
        <time>2012-10-21T08:12:27.000Z</time>
      </trkpt>
      <trkpt lat="45.53029" lon="3.39396">
        <ele>720</ele>
        <time>2012-10-21T08:12:29.000Z</time>
      </trkpt>
      <trkpt lat="45.53027" lon="3.39397">
        <ele>724</ele>
        <time>2012-10-21T08:12:30.000Z</time>
      </trkpt>
      <trkpt lat="45.53023" lon="3.394">
        <ele>725</ele>
        <time>2012-10-21T08:12:32.000Z</time>
      </trkpt>
      <trkpt lat="45.53021" lon="3.39401">
        <ele>722</ele>
        <time>2012-10-21T08:12:33.000Z</time>
      </trkpt>
      <trkpt lat="45.53018" lon="3.39403">
        <ele>722</ele>
        <time>2012-10-21T08:12:35.000Z</time>
      </trkpt>
      <trkpt lat="45.53016" lon="3.39404">
        <ele>722</ele>
        <time>2012-10-21T08:12:36.000Z</time>
      </trkpt>
      <trkpt lat="45.53012" lon="3.39406">
        <ele>724</ele>
        <time>2012-10-21T08:12:38.000Z</time>
      </trkpt>
      <trkpt lat="45.53011" lon="3.39408">
        <ele>725</ele>
        <time>2012-10-21T08:12:39.000Z</time>
      </trkpt>
      <trkpt lat="45.53007" lon="3.39411">
        <ele>726</ele>
        <time>2012-10-21T08:12:41.000Z</time>
      </trkpt>
      <trkpt lat="45.53005" lon="3.39412">
        <ele>727</ele>
        <time>2012-10-21T08:12:42.000Z</time>
      </trkpt>
      <trkpt lat="45.53002" lon="3.39415">
        <ele>726</ele>
        <time>2012-10-21T08:12:44.000Z</time>
      </trkpt>
      <trkpt lat="45.53" lon="3.39416">
        <ele>727</ele>
        <time>2012-10-21T08:12:45.000Z</time>
      </trkpt>
      <trkpt lat="45.52996" lon="3.39418">
        <ele>726</ele>
        <time>2012-10-21T08:12:47.000Z</time>
      </trkpt>
      <trkpt lat="45.52994" lon="3.3942">
        <ele>726</ele>
        <time>2012-10-21T08:12:48.000Z</time>
      </trkpt>
      <trkpt lat="45.5299" lon="3.39423">
        <ele>731</ele>
        <time>2012-10-21T08:12:50.000Z</time>
      </trkpt>
      <trkpt lat="45.52989" lon="3.39424">
        <ele>728</ele>
        <time>2012-10-21T08:12:51.000Z</time>
      </trkpt>
      <trkpt lat="45.52985" lon="3.39428">
        <ele>726</ele>
        <time>2012-10-21T08:12:53.000Z</time>
      </trkpt>
      <trkpt lat="45.52983" lon="3.3943">
        <ele>727</ele>
        <time>2012-10-21T08:12:54.000Z</time>
      </trkpt>
      <trkpt lat="45.5298" lon="3.39434">
        <ele>726</ele>
        <time>2012-10-21T08:12:56.000Z</time>
      </trkpt>
      <trkpt lat="45.52978" lon="3.39437">
        <ele>725</ele>
        <time>2012-10-21T08:12:57.000Z</time>
      </trkpt>
      <trkpt lat="45.52975" lon="3.39441">
        <ele>730</ele>
        <time>2012-10-21T08:12:59.000Z</time>
      </trkpt>
      <trkpt lat="45.52973" lon="3.39443">
        <ele>727</ele>
        <time>2012-10-21T08:13:00.000Z</time>
      </trkpt>
      <trkpt lat="45.5297" lon="3.39447">
        <ele>728</ele>
        <time>2012-10-21T08:13:02.000Z</time>
      </trkpt>
      <trkpt lat="45.52968" lon="3.39449">
        <ele>731</ele>
        <time>2012-10-21T08:13:03.000Z</time>
      </trkpt>
      <trkpt lat="45.52967" lon="3.39452">
        <ele>731</ele>
        <time>2012-10-21T08:13:04.000Z</time>
      </trkpt>
      <trkpt lat="45.52965" lon="3.39454">
        <ele>730</ele>
        <time>2012-10-21T08:13:05.000Z</time>
      </trkpt>
      <trkpt lat="45.52963" lon="3.39457">
        <ele>729</ele>
        <time>2012-10-21T08:13:06.000Z</time>
      </trkpt>
      <trkpt lat="45.52961" lon="3.39459">
        <ele>729</ele>
        <time>2012-10-21T08:13:07.000Z</time>
      </trkpt>
      <trkpt lat="45.52959" lon="3.39462">
        <ele>729</ele>
        <time>2012-10-21T08:13:08.000Z</time>
      </trkpt>
      <trkpt lat="45.52957" lon="3.39464">
        <ele>729</ele>
        <time>2012-10-21T08:13:09.000Z</time>
      </trkpt>
      <trkpt lat="45.52955" lon="3.39467">
        <ele>729</ele>
        <time>2012-10-21T08:13:10.000Z</time>
      </trkpt>
      <trkpt lat="45.52953" lon="3.3947">
        <ele>730</ele>
        <time>2012-10-21T08:13:11.000Z</time>
      </trkpt>
      <trkpt lat="45.52951" lon="3.39472">
        <ele>729</ele>
        <time>2012-10-21T08:13:12.000Z</time>
      </trkpt>
      <trkpt lat="45.52948" lon="3.39475">
        <ele>729</ele>
        <time>2012-10-21T08:13:13.000Z</time>
      </trkpt>
      <trkpt lat="45.52946" lon="3.39478">
        <ele>729</ele>
        <time>2012-10-21T08:13:14.000Z</time>
      </trkpt>
      <trkpt lat="45.52944" lon="3.39481">
        <ele>729</ele>
        <time>2012-10-21T08:13:15.000Z</time>
      </trkpt>
      <trkpt lat="45.52941" lon="3.39484">
        <ele>729</ele>
        <time>2012-10-21T08:13:16.000Z</time>
      </trkpt>
      <trkpt lat="45.52939" lon="3.39487">
        <ele>727</ele>
        <time>2012-10-21T08:13:17.000Z</time>
      </trkpt>
      <trkpt lat="45.52937" lon="3.3949">
        <ele>729</ele>
        <time>2012-10-21T08:13:18.000Z</time>
      </trkpt>
      <trkpt lat="45.52935" lon="3.39493">
        <ele>728</ele>
        <time>2012-10-21T08:13:19.000Z</time>
      </trkpt>
      <trkpt lat="45.52933" lon="3.39497">
        <ele>730</ele>
        <time>2012-10-21T08:13:20.000Z</time>
      </trkpt>
      <trkpt lat="45.52931" lon="3.39501">
        <ele>732</ele>
        <time>2012-10-21T08:13:21.000Z</time>
      </trkpt>
      <trkpt lat="45.52929" lon="3.39505">
        <ele>736</ele>
        <time>2012-10-21T08:13:22.000Z</time>
      </trkpt>
      <trkpt lat="45.52928" lon="3.39509">
        <ele>734</ele>
        <time>2012-10-21T08:13:23.000Z</time>
      </trkpt>
      <trkpt lat="45.52926" lon="3.39513">
        <ele>730</ele>
        <time>2012-10-21T08:13:24.000Z</time>
      </trkpt>
      <trkpt lat="45.52924" lon="3.39516">
        <ele>728</ele>
        <time>2012-10-21T08:13:25.000Z</time>
      </trkpt>
      <trkpt lat="45.52922" lon="3.39519">
        <ele>728</ele>
        <time>2012-10-21T08:13:26.000Z</time>
      </trkpt>
      <trkpt lat="45.5292" lon="3.39523">
        <ele>729</ele>
        <time>2012-10-21T08:13:27.000Z</time>
      </trkpt>
      <trkpt lat="45.52918" lon="3.39527">
        <ele>726</ele>
        <time>2012-10-21T08:13:28.000Z</time>
      </trkpt>
      <trkpt lat="45.52916" lon="3.3953">
        <ele>726</ele>
        <time>2012-10-21T08:13:29.000Z</time>
      </trkpt>
      <trkpt lat="45.52913" lon="3.39534">
        <ele>726</ele>
        <time>2012-10-21T08:13:30.000Z</time>
      </trkpt>
      <trkpt lat="45.52911" lon="3.39538">
        <ele>727</ele>
        <time>2012-10-21T08:13:31.000Z</time>
      </trkpt>
      <trkpt lat="45.52909" lon="3.39541">
        <ele>726</ele>
        <time>2012-10-21T08:13:32.000Z</time>
      </trkpt>
      <trkpt lat="45.52907" lon="3.39544">
        <ele>728</ele>
        <time>2012-10-21T08:13:33.000Z</time>
      </trkpt>
      <trkpt lat="45.52905" lon="3.39547">
        <ele>728</ele>
        <time>2012-10-21T08:13:34.000Z</time>
      </trkpt>
      <trkpt lat="45.52902" lon="3.3955">
        <ele>728</ele>
        <time>2012-10-21T08:13:35.000Z</time>
      </trkpt>
      <trkpt lat="45.52901" lon="3.39554">
        <ele>726</ele>
        <time>2012-10-21T08:13:36.000Z</time>
      </trkpt>
      <trkpt lat="45.529" lon="3.39556">
        <ele>722</ele>
        <time>2012-10-21T08:13:37.000Z</time>
      </trkpt>
      <trkpt lat="45.52898" lon="3.39562">
        <ele>723</ele>
        <time>2012-10-21T08:13:39.000Z</time>
      </trkpt>
      <trkpt lat="45.52898" lon="3.39565">
        <ele>724</ele>
        <time>2012-10-21T08:13:40.000Z</time>
      </trkpt>
      <trkpt lat="45.52898" lon="3.39568">
        <ele>725</ele>
        <time>2012-10-21T08:13:41.000Z</time>
      </trkpt>
      <trkpt lat="45.52898" lon="3.39572">
        <ele>729</ele>
        <time>2012-10-21T08:13:42.000Z</time>
      </trkpt>
      <trkpt lat="45.52897" lon="3.39577">
        <ele>727</ele>
        <time>2012-10-21T08:13:43.000Z</time>
      </trkpt>
      <trkpt lat="45.52897" lon="3.39583">
        <ele>728</ele>
        <time>2012-10-21T08:13:44.000Z</time>
      </trkpt>
      <trkpt lat="45.52896" lon="3.3959">
        <ele>728</ele>
        <time>2012-10-21T08:13:45.000Z</time>
      </trkpt>
      <trkpt lat="45.52895" lon="3.39597">
        <ele>728</ele>
        <time>2012-10-21T08:13:46.000Z</time>
      </trkpt>
      <trkpt lat="45.52893" lon="3.39605">
        <ele>729</ele>
        <time>2012-10-21T08:13:47.000Z</time>
      </trkpt>
      <trkpt lat="45.52891" lon="3.39612">
        <ele>729</ele>
        <time>2012-10-21T08:13:48.000Z</time>
      </trkpt>
      <trkpt lat="45.52888" lon="3.39619">
        <ele>732</ele>
        <time>2012-10-21T08:13:49.000Z</time>
      </trkpt>
      <trkpt lat="45.52885" lon="3.39626">
        <ele>733</ele>
        <time>2012-10-21T08:13:50.000Z</time>
      </trkpt>
      <trkpt lat="45.5288" lon="3.39631">
        <ele>732</ele>
        <time>2012-10-21T08:13:51.000Z</time>
      </trkpt>
      <trkpt lat="45.52874" lon="3.39634">
        <ele>730</ele>
        <time>2012-10-21T08:13:52.000Z</time>
      </trkpt>
      <trkpt lat="45.52869" lon="3.39638">
        <ele>732</ele>
        <time>2012-10-21T08:13:53.000Z</time>
      </trkpt>
      <trkpt lat="45.52864" lon="3.3964">
        <ele>736</ele>
        <time>2012-10-21T08:13:54.000Z</time>
      </trkpt>
      <trkpt lat="45.52859" lon="3.39643">
        <ele>732</ele>
        <time>2012-10-21T08:13:55.000Z</time>
      </trkpt>
      <trkpt lat="45.52854" lon="3.39645">
        <ele>736</ele>
        <time>2012-10-21T08:13:56.000Z</time>
      </trkpt>
      <trkpt lat="45.52849" lon="3.39647">
        <ele>733</ele>
        <time>2012-10-21T08:13:57.000Z</time>
      </trkpt>
      <trkpt lat="45.52844" lon="3.39649">
        <ele>732</ele>
        <time>2012-10-21T08:13:58.000Z</time>
      </trkpt>
      <trkpt lat="45.52839" lon="3.39653">
        <ele>733</ele>
        <time>2012-10-21T08:13:59.000Z</time>
      </trkpt>
      <trkpt lat="45.52834" lon="3.39656">
        <ele>732</ele>
        <time>2012-10-21T08:14:00.000Z</time>
      </trkpt>
      <trkpt lat="45.5283" lon="3.39661">
        <ele>735</ele>
        <time>2012-10-21T08:14:01.000Z</time>
      </trkpt>
      <trkpt lat="45.52825" lon="3.39664">
        <ele>735</ele>
        <time>2012-10-21T08:14:02.000Z</time>
      </trkpt>
      <trkpt lat="45.5282" lon="3.39668">
        <ele>734</ele>
        <time>2012-10-21T08:14:03.000Z</time>
      </trkpt>
      <trkpt lat="45.52815" lon="3.39671">
        <ele>733</ele>
        <time>2012-10-21T08:14:04.000Z</time>
      </trkpt>
      <trkpt lat="45.52811" lon="3.39674">
        <ele>732</ele>
        <time>2012-10-21T08:14:05.000Z</time>
      </trkpt>
      <trkpt lat="45.52807" lon="3.39677">
        <ele>734</ele>
        <time>2012-10-21T08:14:06.000Z</time>
      </trkpt>
      <trkpt lat="45.52803" lon="3.3968">
        <ele>731</ele>
        <time>2012-10-21T08:14:07.000Z</time>
      </trkpt>
      <trkpt lat="45.52799" lon="3.39683">
        <ele>729</ele>
        <time>2012-10-21T08:14:08.000Z</time>
      </trkpt>
      <trkpt lat="45.52796" lon="3.39685">
        <ele>732</ele>
        <time>2012-10-21T08:14:09.000Z</time>
      </trkpt>
      <trkpt lat="45.52792" lon="3.39688">
        <ele>733</ele>
        <time>2012-10-21T08:14:10.000Z</time>
      </trkpt>
      <trkpt lat="45.52788" lon="3.3969">
        <ele>730</ele>
        <time>2012-10-21T08:14:11.000Z</time>
      </trkpt>
      <trkpt lat="45.52785" lon="3.39692">
        <ele>729</ele>
        <time>2012-10-21T08:14:12.000Z</time>
      </trkpt>
      <trkpt lat="45.52782" lon="3.39693">
        <ele>728</ele>
        <time>2012-10-21T08:14:13.000Z</time>
      </trkpt>
      <trkpt lat="45.52778" lon="3.39695">
        <ele>731</ele>
        <time>2012-10-21T08:14:14.000Z</time>
      </trkpt>
      <trkpt lat="45.52775" lon="3.39696">
        <ele>732</ele>
        <time>2012-10-21T08:14:15.000Z</time>
      </trkpt>
      <trkpt lat="45.52772" lon="3.39697">
        <ele>734</ele>
        <time>2012-10-21T08:14:16.000Z</time>
      </trkpt>
      <trkpt lat="45.52769" lon="3.39698">
        <ele>734</ele>
        <time>2012-10-21T08:14:17.000Z</time>
      </trkpt>
      <trkpt lat="45.52767" lon="3.39698">
        <ele>734</ele>
        <time>2012-10-21T08:14:18.000Z</time>
      </trkpt>
      <trkpt lat="45.52764" lon="3.39698">
        <ele>737</ele>
        <time>2012-10-21T08:14:19.000Z</time>
      </trkpt>
      <trkpt lat="45.52761" lon="3.39698">
        <ele>739</ele>
        <time>2012-10-21T08:14:20.000Z</time>
      </trkpt>
      <trkpt lat="45.52758" lon="3.39697">
        <ele>736</ele>
        <time>2012-10-21T08:14:21.000Z</time>
      </trkpt>
      <trkpt lat="45.52756" lon="3.39696">
        <ele>736</ele>
        <time>2012-10-21T08:14:22.000Z</time>
      </trkpt>
      <trkpt lat="45.52753" lon="3.39695">
        <ele>738</ele>
        <time>2012-10-21T08:14:23.000Z</time>
      </trkpt>
      <trkpt lat="45.5275" lon="3.39694">
        <ele>738</ele>
        <time>2012-10-21T08:14:24.000Z</time>
      </trkpt>
      <trkpt lat="45.52746" lon="3.39694">
        <ele>739</ele>
        <time>2012-10-21T08:14:26.000Z</time>
      </trkpt>
      <trkpt lat="45.52744" lon="3.39692">
        <ele>739</ele>
        <time>2012-10-21T08:14:27.000Z</time>
      </trkpt>
      <trkpt lat="45.52741" lon="3.39692">
        <ele>738</ele>
        <time>2012-10-21T08:14:28.000Z</time>
      </trkpt>
      <trkpt lat="45.52739" lon="3.39691">
        <ele>737</ele>
        <time>2012-10-21T08:14:29.000Z</time>
      </trkpt>
      <trkpt lat="45.52736" lon="3.3969">
        <ele>735</ele>
        <time>2012-10-21T08:14:30.000Z</time>
      </trkpt>
      <trkpt lat="45.52733" lon="3.39689">
        <ele>735</ele>
        <time>2012-10-21T08:14:31.000Z</time>
      </trkpt>
      <trkpt lat="45.52731" lon="3.39688">
        <ele>736</ele>
        <time>2012-10-21T08:14:32.000Z</time>
      </trkpt>
      <trkpt lat="45.52728" lon="3.39687">
        <ele>736</ele>
        <time>2012-10-21T08:14:33.000Z</time>
      </trkpt>
      <trkpt lat="45.52726" lon="3.39686">
        <ele>737</ele>
        <time>2012-10-21T08:14:34.000Z</time>
      </trkpt>
      <trkpt lat="45.52724" lon="3.39686">
        <ele>738</ele>
        <time>2012-10-21T08:14:35.000Z</time>
      </trkpt>
      <trkpt lat="45.52721" lon="3.39685">
        <ele>738</ele>
        <time>2012-10-21T08:14:36.000Z</time>
      </trkpt>
      <trkpt lat="45.52719" lon="3.39684">
        <ele>739</ele>
        <time>2012-10-21T08:14:37.000Z</time>
      </trkpt>
      <trkpt lat="45.52714" lon="3.39684">
        <ele>736</ele>
        <time>2012-10-21T08:14:39.000Z</time>
      </trkpt>
      <trkpt lat="45.52712" lon="3.39684">
        <ele>735</ele>
        <time>2012-10-21T08:14:40.000Z</time>
      </trkpt>
      <trkpt lat="45.5271" lon="3.39683">
        <ele>734</ele>
        <time>2012-10-21T08:14:41.000Z</time>
      </trkpt>
      <trkpt lat="45.52705" lon="3.39682">
        <ele>735</ele>
        <time>2012-10-21T08:14:43.000Z</time>
      </trkpt>
      <trkpt lat="45.52703" lon="3.39681">
        <ele>738</ele>
        <time>2012-10-21T08:14:44.000Z</time>
      </trkpt>
      <trkpt lat="45.52701" lon="3.39681">
        <ele>738</ele>
        <time>2012-10-21T08:14:45.000Z</time>
      </trkpt>
      <trkpt lat="45.52696" lon="3.3968">
        <ele>740</ele>
        <time>2012-10-21T08:14:47.000Z</time>
      </trkpt>
      <trkpt lat="45.52694" lon="3.39679">
        <ele>740</ele>
        <time>2012-10-21T08:14:48.000Z</time>
      </trkpt>
      <trkpt lat="45.5269" lon="3.39678">
        <ele>738</ele>
        <time>2012-10-21T08:14:50.000Z</time>
      </trkpt>
      <trkpt lat="45.52688" lon="3.39677">
        <ele>735</ele>
        <time>2012-10-21T08:14:51.000Z</time>
      </trkpt>
      <trkpt lat="45.52684" lon="3.39677">
        <ele>737</ele>
        <time>2012-10-21T08:14:53.000Z</time>
      </trkpt>
      <trkpt lat="45.52682" lon="3.39676">
        <ele>741</ele>
        <time>2012-10-21T08:14:54.000Z</time>
      </trkpt>
      <trkpt lat="45.52679" lon="3.39676">
        <ele>740</ele>
        <time>2012-10-21T08:14:56.000Z</time>
      </trkpt>
      <trkpt lat="45.52677" lon="3.39677">
        <ele>741</ele>
        <time>2012-10-21T08:14:57.000Z</time>
      </trkpt>
      <trkpt lat="45.52674" lon="3.39678">
        <ele>744</ele>
        <time>2012-10-21T08:14:59.000Z</time>
      </trkpt>
      <trkpt lat="45.52673" lon="3.3968">
        <ele>743</ele>
        <time>2012-10-21T08:15:00.000Z</time>
      </trkpt>
      <trkpt lat="45.5267" lon="3.39682">
        <ele>741</ele>
        <time>2012-10-21T08:15:02.000Z</time>
      </trkpt>
      <trkpt lat="45.52668" lon="3.39684">
        <ele>741</ele>
        <time>2012-10-21T08:15:03.000Z</time>
      </trkpt>
      <trkpt lat="45.52664" lon="3.39686">
        <ele>744</ele>
        <time>2012-10-21T08:15:05.000Z</time>
      </trkpt>
      <trkpt lat="45.52662" lon="3.39687">
        <ele>744</ele>
        <time>2012-10-21T08:15:06.000Z</time>
      </trkpt>
      <trkpt lat="45.52659" lon="3.39689">
        <ele>744</ele>
        <time>2012-10-21T08:15:08.000Z</time>
      </trkpt>
      <trkpt lat="45.52657" lon="3.39691">
        <ele>746</ele>
        <time>2012-10-21T08:15:09.000Z</time>
      </trkpt>
      <trkpt lat="45.52653" lon="3.39695">
        <ele>746</ele>
        <time>2012-10-21T08:15:11.000Z</time>
      </trkpt>
      <trkpt lat="45.52652" lon="3.39696">
        <ele>745</ele>
        <time>2012-10-21T08:15:12.000Z</time>
      </trkpt>
      <trkpt lat="45.52649" lon="3.39699">
        <ele>745</ele>
        <time>2012-10-21T08:15:14.000Z</time>
      </trkpt>
      <trkpt lat="45.52647" lon="3.39701">
        <ele>746</ele>
        <time>2012-10-21T08:15:15.000Z</time>
      </trkpt>
      <trkpt lat="45.52645" lon="3.39703">
        <ele>745</ele>
        <time>2012-10-21T08:15:16.000Z</time>
      </trkpt>
      <trkpt lat="45.52643" lon="3.39705">
        <ele>746</ele>
        <time>2012-10-21T08:15:17.000Z</time>
      </trkpt>
      <trkpt lat="45.5264" lon="3.39707">
        <ele>749</ele>
        <time>2012-10-21T08:15:19.000Z</time>
      </trkpt>
      <trkpt lat="45.52638" lon="3.39708">
        <ele>751</ele>
        <time>2012-10-21T08:15:20.000Z</time>
      </trkpt>
      <trkpt lat="45.52635" lon="3.39712">
        <ele>751</ele>
        <time>2012-10-21T08:15:22.000Z</time>
      </trkpt>
      <trkpt lat="45.52633" lon="3.39713">
        <ele>750</ele>
        <time>2012-10-21T08:15:23.000Z</time>
      </trkpt>
      <trkpt lat="45.5263" lon="3.39717">
        <ele>747</ele>
        <time>2012-10-21T08:15:25.000Z</time>
      </trkpt>
      <trkpt lat="45.52628" lon="3.39718">
        <ele>750</ele>
        <time>2012-10-21T08:15:26.000Z</time>
      </trkpt>
      <trkpt lat="45.52625" lon="3.39721">
        <ele>748</ele>
        <time>2012-10-21T08:15:28.000Z</time>
      </trkpt>
      <trkpt lat="45.52623" lon="3.39723">
        <ele>748</ele>
        <time>2012-10-21T08:15:29.000Z</time>
      </trkpt>
      <trkpt lat="45.52621" lon="3.39725">
        <ele>751</ele>
        <time>2012-10-21T08:15:30.000Z</time>
      </trkpt>
      <trkpt lat="45.52619" lon="3.39727">
        <ele>750</ele>
        <time>2012-10-21T08:15:31.000Z</time>
      </trkpt>
      <trkpt lat="45.52616" lon="3.3973">
        <ele>751</ele>
        <time>2012-10-21T08:15:33.000Z</time>
      </trkpt>
      <trkpt lat="45.52614" lon="3.39732">
        <ele>750</ele>
        <time>2012-10-21T08:15:34.000Z</time>
      </trkpt>
      <trkpt lat="45.52612" lon="3.39738">
        <ele>744</ele>
        <time>2012-10-21T08:15:36.000Z</time>
      </trkpt>
      <trkpt lat="45.52611" lon="3.3974">
        <ele>745</ele>
        <time>2012-10-21T08:15:37.000Z</time>
      </trkpt>
      <trkpt lat="45.52608" lon="3.39745">
        <ele>743</ele>
        <time>2012-10-21T08:15:39.000Z</time>
      </trkpt>
      <trkpt lat="45.52607" lon="3.39747">
        <ele>747</ele>
        <time>2012-10-21T08:15:40.000Z</time>
      </trkpt>
      <trkpt lat="45.52606" lon="3.39749">
        <ele>744</ele>
        <time>2012-10-21T08:15:41.000Z</time>
      </trkpt>
      <trkpt lat="45.52603" lon="3.39755">
        <ele>747</ele>
        <time>2012-10-21T08:15:43.000Z</time>
      </trkpt>
      <trkpt lat="45.52602" lon="3.39758">
        <ele>746</ele>
        <time>2012-10-21T08:15:44.000Z</time>
      </trkpt>
      <trkpt lat="45.52601" lon="3.39761">
        <ele>744</ele>
        <time>2012-10-21T08:15:45.000Z</time>
      </trkpt>
      <trkpt lat="45.52597" lon="3.39763">
        <ele>746</ele>
        <time>2012-10-21T08:15:47.000Z</time>
      </trkpt>
      <trkpt lat="45.52596" lon="3.39764">
        <ele>741</ele>
        <time>2012-10-21T08:15:48.000Z</time>
      </trkpt>
      <trkpt lat="45.52593" lon="3.39763">
        <ele>750</ele>
        <time>2012-10-21T08:15:50.000Z</time>
      </trkpt>
      <trkpt lat="45.52591" lon="3.39762">
        <ele>748</ele>
        <time>2012-10-21T08:15:51.000Z</time>
      </trkpt>
      <trkpt lat="45.52589" lon="3.39761">
        <ele>756</ele>
        <time>2012-10-21T08:15:58.000Z</time>
      </trkpt>
      <trkpt lat="45.52587" lon="3.39759">
        <ele>758</ele>
        <time>2012-10-21T08:15:59.000Z</time>
      </trkpt>
      <trkpt lat="45.52584" lon="3.39758">
        <ele>759</ele>
        <time>2012-10-21T08:16:00.000Z</time>
      </trkpt>
      <trkpt lat="45.52581" lon="3.39757">
        <ele>757</ele>
        <time>2012-10-21T08:16:01.000Z</time>
      </trkpt>
      <trkpt lat="45.52579" lon="3.39756">
        <ele>757</ele>
        <time>2012-10-21T08:16:02.000Z</time>
      </trkpt>
      <trkpt lat="45.52576" lon="3.39755">
        <ele>757</ele>
        <time>2012-10-21T08:16:03.000Z</time>
      </trkpt>
      <trkpt lat="45.52574" lon="3.39754">
        <ele>759</ele>
        <time>2012-10-21T08:16:04.000Z</time>
      </trkpt>
      <trkpt lat="45.52571" lon="3.39752">
        <ele>757</ele>
        <time>2012-10-21T08:16:05.000Z</time>
      </trkpt>
      <trkpt lat="45.52568" lon="3.39752">
        <ele>756</ele>
        <time>2012-10-21T08:16:06.000Z</time>
      </trkpt>
      <trkpt lat="45.52566" lon="3.3975">
        <ele>756</ele>
        <time>2012-10-21T08:16:07.000Z</time>
      </trkpt>
      <trkpt lat="45.52564" lon="3.39749">
        <ele>755</ele>
        <time>2012-10-21T08:16:08.000Z</time>
      </trkpt>
      <trkpt lat="45.5256" lon="3.39749">
        <ele>756</ele>
        <time>2012-10-21T08:16:09.000Z</time>
      </trkpt>
      <trkpt lat="45.52556" lon="3.39748">
        <ele>756</ele>
        <time>2012-10-21T08:16:10.000Z</time>
      </trkpt>
      <trkpt lat="45.52553" lon="3.39748">
        <ele>754</ele>
        <time>2012-10-21T08:16:11.000Z</time>
      </trkpt>
      <trkpt lat="45.5255" lon="3.39747">
        <ele>755</ele>
        <time>2012-10-21T08:16:12.000Z</time>
      </trkpt>
      <trkpt lat="45.52547" lon="3.39746">
        <ele>757</ele>
        <time>2012-10-21T08:16:13.000Z</time>
      </trkpt>
      <trkpt lat="45.52543" lon="3.39744">
        <ele>757</ele>
        <time>2012-10-21T08:16:14.000Z</time>
      </trkpt>
      <trkpt lat="45.52539" lon="3.39743">
        <ele>757</ele>
        <time>2012-10-21T08:16:15.000Z</time>
      </trkpt>
      <trkpt lat="45.52535" lon="3.39742">
        <ele>756</ele>
        <time>2012-10-21T08:16:16.000Z</time>
      </trkpt>
      <trkpt lat="45.52531" lon="3.39741">
        <ele>757</ele>
        <time>2012-10-21T08:16:17.000Z</time>
      </trkpt>
      <trkpt lat="45.52527" lon="3.39741">
        <ele>756</ele>
        <time>2012-10-21T08:16:18.000Z</time>
      </trkpt>
      <trkpt lat="45.52522" lon="3.39741">
        <ele>756</ele>
        <time>2012-10-21T08:16:19.000Z</time>
      </trkpt>
      <trkpt lat="45.52518" lon="3.39741">
        <ele>756</ele>
        <time>2012-10-21T08:16:20.000Z</time>
      </trkpt>
      <trkpt lat="45.52514" lon="3.39741">
        <ele>757</ele>
        <time>2012-10-21T08:16:21.000Z</time>
      </trkpt>
      <trkpt lat="45.5251" lon="3.39742">
        <ele>761</ele>
        <time>2012-10-21T08:16:22.000Z</time>
      </trkpt>
      <trkpt lat="45.52506" lon="3.39742">
        <ele>759</ele>
        <time>2012-10-21T08:16:23.000Z</time>
      </trkpt>
      <trkpt lat="45.52503" lon="3.39741">
        <ele>762</ele>
        <time>2012-10-21T08:16:24.000Z</time>
      </trkpt>
      <trkpt lat="45.52499" lon="3.39741">
        <ele>760</ele>
        <time>2012-10-21T08:16:25.000Z</time>
      </trkpt>
      <trkpt lat="45.52495" lon="3.39742">
        <ele>756</ele>
        <time>2012-10-21T08:16:26.000Z</time>
      </trkpt>
      <trkpt lat="45.52491" lon="3.39743">
        <ele>755</ele>
        <time>2012-10-21T08:16:27.000Z</time>
      </trkpt>
      <trkpt lat="45.52488" lon="3.39744">
        <ele>756</ele>
        <time>2012-10-21T08:16:28.000Z</time>
      </trkpt>
      <trkpt lat="45.52484" lon="3.39744">
        <ele>754</ele>
        <time>2012-10-21T08:16:29.000Z</time>
      </trkpt>
      <trkpt lat="45.52481" lon="3.39746">
        <ele>755</ele>
        <time>2012-10-21T08:16:30.000Z</time>
      </trkpt>
      <trkpt lat="45.52479" lon="3.39747">
        <ele>757</ele>
        <time>2012-10-21T08:16:31.000Z</time>
      </trkpt>
      <trkpt lat="45.52477" lon="3.39749">
        <ele>752</ele>
        <time>2012-10-21T08:16:32.000Z</time>
      </trkpt>
      <trkpt lat="45.52474" lon="3.3975">
        <ele>755</ele>
        <time>2012-10-21T08:16:33.000Z</time>
      </trkpt>
      <trkpt lat="45.5247" lon="3.39752">
        <ele>752</ele>
        <time>2012-10-21T08:16:35.000Z</time>
      </trkpt>
      <trkpt lat="45.52468" lon="3.39752">
        <ele>754</ele>
        <time>2012-10-21T08:16:36.000Z</time>
      </trkpt>
      <trkpt lat="45.52465" lon="3.39754">
        <ele>751</ele>
        <time>2012-10-21T08:16:41.000Z</time>
      </trkpt>
      <trkpt lat="45.52462" lon="3.39756">
        <ele>754</ele>
        <time>2012-10-21T08:16:43.000Z</time>
      </trkpt>
      <trkpt lat="45.52459" lon="3.3976">
        <ele>755</ele>
        <time>2012-10-21T08:16:52.000Z</time>
      </trkpt>
      <trkpt lat="45.52455" lon="3.39764">
        <ele>760</ele>
        <time>2012-10-21T08:17:03.000Z</time>
      </trkpt>
      <trkpt lat="45.52455" lon="3.39768">
        <ele>757</ele>
        <time>2012-10-21T08:17:15.000Z</time>
      </trkpt>
      <trkpt lat="45.52454" lon="3.39772">
        <ele>757</ele>
        <time>2012-10-21T08:17:16.000Z</time>
      </trkpt>
      <trkpt lat="45.52452" lon="3.39776">
        <ele>760</ele>
        <time>2012-10-21T08:17:17.000Z</time>
      </trkpt>
      <trkpt lat="45.52451" lon="3.3978">
        <ele>761</ele>
        <time>2012-10-21T08:17:18.000Z</time>
      </trkpt>
      <trkpt lat="45.52448" lon="3.39784">
        <ele>762</ele>
        <time>2012-10-21T08:17:19.000Z</time>
      </trkpt>
      <trkpt lat="45.52445" lon="3.39789">
        <ele>762</ele>
        <time>2012-10-21T08:17:20.000Z</time>
      </trkpt>
      <trkpt lat="45.52442" lon="3.39793">
        <ele>761</ele>
        <time>2012-10-21T08:17:21.000Z</time>
      </trkpt>
      <trkpt lat="45.52438" lon="3.39798">
        <ele>759</ele>
        <time>2012-10-21T08:17:22.000Z</time>
      </trkpt>
      <trkpt lat="45.52435" lon="3.39804">
        <ele>761</ele>
        <time>2012-10-21T08:17:23.000Z</time>
      </trkpt>
      <trkpt lat="45.52434" lon="3.39809">
        <ele>761</ele>
        <time>2012-10-21T08:17:24.000Z</time>
      </trkpt>
      <trkpt lat="45.52435" lon="3.39815">
        <ele>762</ele>
        <time>2012-10-21T08:17:25.000Z</time>
      </trkpt>
      <trkpt lat="45.52437" lon="3.3982">
        <ele>760</ele>
        <time>2012-10-21T08:17:26.000Z</time>
      </trkpt>
      <trkpt lat="45.52439" lon="3.39824">
        <ele>758</ele>
        <time>2012-10-21T08:17:27.000Z</time>
      </trkpt>
      <trkpt lat="45.52441" lon="3.39829">
        <ele>759</ele>
        <time>2012-10-21T08:17:28.000Z</time>
      </trkpt>
      <trkpt lat="45.52444" lon="3.39833">
        <ele>760</ele>
        <time>2012-10-21T08:17:29.000Z</time>
      </trkpt>
      <trkpt lat="45.52447" lon="3.39836">
        <ele>757</ele>
        <time>2012-10-21T08:17:30.000Z</time>
      </trkpt>
      <trkpt lat="45.52449" lon="3.39839">
        <ele>758</ele>
        <time>2012-10-21T08:17:31.000Z</time>
      </trkpt>
      <trkpt lat="45.52451" lon="3.39841">
        <ele>757</ele>
        <time>2012-10-21T08:17:32.000Z</time>
      </trkpt>
      <trkpt lat="45.52453" lon="3.39844">
        <ele>756</ele>
        <time>2012-10-21T08:17:33.000Z</time>
      </trkpt>
      <trkpt lat="45.52455" lon="3.39847">
        <ele>756</ele>
        <time>2012-10-21T08:17:34.000Z</time>
      </trkpt>
      <trkpt lat="45.52457" lon="3.3985">
        <ele>756</ele>
        <time>2012-10-21T08:17:35.000Z</time>
      </trkpt>
      <trkpt lat="45.52459" lon="3.39852">
        <ele>755</ele>
        <time>2012-10-21T08:17:36.000Z</time>
      </trkpt>
      <trkpt lat="45.52461" lon="3.39855">
        <ele>758</ele>
        <time>2012-10-21T08:17:37.000Z</time>
      </trkpt>
      <trkpt lat="45.52463" lon="3.39857">
        <ele>760</ele>
        <time>2012-10-21T08:17:38.000Z</time>
      </trkpt>
      <trkpt lat="45.52465" lon="3.3986">
        <ele>759</ele>
        <time>2012-10-21T08:17:39.000Z</time>
      </trkpt>
      <trkpt lat="45.52468" lon="3.39863">
        <ele>759</ele>
        <time>2012-10-21T08:17:40.000Z</time>
      </trkpt>
      <trkpt lat="45.5247" lon="3.39865">
        <ele>757</ele>
        <time>2012-10-21T08:17:41.000Z</time>
      </trkpt>
      <trkpt lat="45.52472" lon="3.39867">
        <ele>754</ele>
        <time>2012-10-21T08:17:42.000Z</time>
      </trkpt>
      <trkpt lat="45.52474" lon="3.3987">
        <ele>752</ele>
        <time>2012-10-21T08:17:43.000Z</time>
      </trkpt>
      <trkpt lat="45.52476" lon="3.39873">
        <ele>752</ele>
        <time>2012-10-21T08:17:44.000Z</time>
      </trkpt>
      <trkpt lat="45.52477" lon="3.39876">
        <ele>753</ele>
        <time>2012-10-21T08:17:45.000Z</time>
      </trkpt>
      <trkpt lat="45.52479" lon="3.39879">
        <ele>753</ele>
        <time>2012-10-21T08:17:46.000Z</time>
      </trkpt>
      <trkpt lat="45.52481" lon="3.39882">
        <ele>755</ele>
        <time>2012-10-21T08:17:47.000Z</time>
      </trkpt>
      <trkpt lat="45.52483" lon="3.39884">
        <ele>754</ele>
        <time>2012-10-21T08:17:48.000Z</time>
      </trkpt>
      <trkpt lat="45.52486" lon="3.39885">
        <ele>755</ele>
        <time>2012-10-21T08:17:49.000Z</time>
      </trkpt>
      <trkpt lat="45.52488" lon="3.39887">
        <ele>756</ele>
        <time>2012-10-21T08:17:50.000Z</time>
      </trkpt>
      <trkpt lat="45.5249" lon="3.39889">
        <ele>757</ele>
        <time>2012-10-21T08:17:51.000Z</time>
      </trkpt>
      <trkpt lat="45.52492" lon="3.39892">
        <ele>756</ele>
        <time>2012-10-21T08:17:52.000Z</time>
      </trkpt>
      <trkpt lat="45.52494" lon="3.39894">
        <ele>757</ele>
        <time>2012-10-21T08:17:53.000Z</time>
      </trkpt>
      <trkpt lat="45.52496" lon="3.39897">
        <ele>756</ele>
        <time>2012-10-21T08:17:54.000Z</time>
      </trkpt>
      <trkpt lat="45.52498" lon="3.399">
        <ele>758</ele>
        <time>2012-10-21T08:17:55.000Z</time>
      </trkpt>
      <trkpt lat="45.525" lon="3.39903">
        <ele>757</ele>
        <time>2012-10-21T08:17:56.000Z</time>
      </trkpt>
      <trkpt lat="45.52502" lon="3.39905">
        <ele>757</ele>
        <time>2012-10-21T08:17:57.000Z</time>
      </trkpt>
      <trkpt lat="45.52504" lon="3.39909">
        <ele>757</ele>
        <time>2012-10-21T08:17:58.000Z</time>
      </trkpt>
      <trkpt lat="45.52506" lon="3.39912">
        <ele>756</ele>
        <time>2012-10-21T08:17:59.000Z</time>
      </trkpt>
      <trkpt lat="45.52508" lon="3.39915">
        <ele>755</ele>
        <time>2012-10-21T08:18:00.000Z</time>
      </trkpt>
      <trkpt lat="45.5251" lon="3.39918">
        <ele>753</ele>
        <time>2012-10-21T08:18:01.000Z</time>
      </trkpt>
      <trkpt lat="45.52512" lon="3.39921">
        <ele>753</ele>
        <time>2012-10-21T08:18:02.000Z</time>
      </trkpt>
      <trkpt lat="45.52513" lon="3.39925">
        <ele>754</ele>
        <time>2012-10-21T08:18:03.000Z</time>
      </trkpt>
      <trkpt lat="45.52515" lon="3.39928">
        <ele>752</ele>
        <time>2012-10-21T08:18:04.000Z</time>
      </trkpt>
      <trkpt lat="45.52516" lon="3.39933">
        <ele>753</ele>
        <time>2012-10-21T08:18:05.000Z</time>
      </trkpt>
      <trkpt lat="45.52517" lon="3.39937">
        <ele>755</ele>
        <time>2012-10-21T08:18:06.000Z</time>
      </trkpt>
      <trkpt lat="45.52519" lon="3.39941">
        <ele>754</ele>
        <time>2012-10-21T08:18:07.000Z</time>
      </trkpt>
      <trkpt lat="45.5252" lon="3.39945">
        <ele>754</ele>
        <time>2012-10-21T08:18:08.000Z</time>
      </trkpt>
      <trkpt lat="45.52521" lon="3.39949">
        <ele>757</ele>
        <time>2012-10-21T08:18:09.000Z</time>
      </trkpt>
      <trkpt lat="45.52522" lon="3.39952">
        <ele>757</ele>
        <time>2012-10-21T08:18:10.000Z</time>
      </trkpt>
      <trkpt lat="45.52524" lon="3.39956">
        <ele>757</ele>
        <time>2012-10-21T08:18:11.000Z</time>
      </trkpt>
      <trkpt lat="45.52525" lon="3.3996">
        <ele>758</ele>
        <time>2012-10-21T08:18:12.000Z</time>
      </trkpt>
      <trkpt lat="45.52525" lon="3.39964">
        <ele>758</ele>
        <time>2012-10-21T08:18:13.000Z</time>
      </trkpt>
      <trkpt lat="45.52526" lon="3.39969">
        <ele>759</ele>
        <time>2012-10-21T08:18:14.000Z</time>
      </trkpt>
      <trkpt lat="45.52527" lon="3.39973">
        <ele>758</ele>
        <time>2012-10-21T08:18:15.000Z</time>
      </trkpt>
      <trkpt lat="45.52527" lon="3.39978">
        <ele>755</ele>
        <time>2012-10-21T08:18:16.000Z</time>
      </trkpt>
      <trkpt lat="45.52528" lon="3.39983">
        <ele>755</ele>
        <time>2012-10-21T08:18:17.000Z</time>
      </trkpt>
      <trkpt lat="45.52527" lon="3.39986">
        <ele>755</ele>
        <time>2012-10-21T08:18:18.000Z</time>
      </trkpt>
      <trkpt lat="45.52527" lon="3.3999">
        <ele>757</ele>
        <time>2012-10-21T08:18:19.000Z</time>
      </trkpt>
      <trkpt lat="45.52527" lon="3.39993">
        <ele>758</ele>
        <time>2012-10-21T08:18:20.000Z</time>
      </trkpt>
      <trkpt lat="45.52527" lon="3.39997">
        <ele>759</ele>
        <time>2012-10-21T08:18:21.000Z</time>
      </trkpt>
      <trkpt lat="45.52527" lon="3.40001">
        <ele>761</ele>
        <time>2012-10-21T08:18:22.000Z</time>
      </trkpt>
      <trkpt lat="45.52528" lon="3.40005">
        <ele>761</ele>
        <time>2012-10-21T08:18:23.000Z</time>
      </trkpt>
      <trkpt lat="45.52528" lon="3.40009">
        <ele>761</ele>
        <time>2012-10-21T08:18:24.000Z</time>
      </trkpt>
      <trkpt lat="45.52529" lon="3.40013">
        <ele>763</ele>
        <time>2012-10-21T08:18:25.000Z</time>
      </trkpt>
      <trkpt lat="45.5253" lon="3.40018">
        <ele>762</ele>
        <time>2012-10-21T08:18:26.000Z</time>
      </trkpt>
      <trkpt lat="45.5253" lon="3.40022">
        <ele>764</ele>
        <time>2012-10-21T08:18:27.000Z</time>
      </trkpt>
      <trkpt lat="45.52531" lon="3.40027">
        <ele>761</ele>
        <time>2012-10-21T08:18:28.000Z</time>
      </trkpt>
      <trkpt lat="45.52531" lon="3.40031">
        <ele>761</ele>
        <time>2012-10-21T08:18:29.000Z</time>
      </trkpt>
      <trkpt lat="45.52532" lon="3.40035">
        <ele>760</ele>
        <time>2012-10-21T08:18:30.000Z</time>
      </trkpt>
      <trkpt lat="45.52534" lon="3.40039">
        <ele>758</ele>
        <time>2012-10-21T08:18:31.000Z</time>
      </trkpt>
      <trkpt lat="45.52535" lon="3.40043">
        <ele>758</ele>
        <time>2012-10-21T08:18:32.000Z</time>
      </trkpt>
      <trkpt lat="45.52536" lon="3.40047">
        <ele>758</ele>
        <time>2012-10-21T08:18:33.000Z</time>
      </trkpt>
      <trkpt lat="45.52537" lon="3.40052">
        <ele>757</ele>
        <time>2012-10-21T08:18:34.000Z</time>
      </trkpt>
      <trkpt lat="45.52539" lon="3.40057">
        <ele>756</ele>
        <time>2012-10-21T08:18:35.000Z</time>
      </trkpt>
      <trkpt lat="45.5254" lon="3.40062">
        <ele>755</ele>
        <time>2012-10-21T08:18:36.000Z</time>
      </trkpt>
      <trkpt lat="45.52541" lon="3.40066">
        <ele>755</ele>
        <time>2012-10-21T08:18:37.000Z</time>
      </trkpt>
      <trkpt lat="45.52542" lon="3.40071">
        <ele>758</ele>
        <time>2012-10-21T08:18:38.000Z</time>
      </trkpt>
      <trkpt lat="45.52544" lon="3.40076">
        <ele>758</ele>
        <time>2012-10-21T08:18:39.000Z</time>
      </trkpt>
      <trkpt lat="45.52545" lon="3.40081">
        <ele>759</ele>
        <time>2012-10-21T08:18:40.000Z</time>
      </trkpt>
      <trkpt lat="45.52546" lon="3.40084">
        <ele>759</ele>
        <time>2012-10-21T08:18:41.000Z</time>
      </trkpt>
      <trkpt lat="45.52548" lon="3.40087">
        <ele>758</ele>
        <time>2012-10-21T08:18:42.000Z</time>
      </trkpt>
      <trkpt lat="45.52549" lon="3.4009">
        <ele>758</ele>
        <time>2012-10-21T08:18:43.000Z</time>
      </trkpt>
      <trkpt lat="45.52551" lon="3.40095">
        <ele>760</ele>
        <time>2012-10-21T08:18:45.000Z</time>
      </trkpt>
      <trkpt lat="45.52553" lon="3.40097">
        <ele>761</ele>
        <time>2012-10-21T08:18:46.000Z</time>
      </trkpt>
      <trkpt lat="45.52554" lon="3.401">
        <ele>763</ele>
        <time>2012-10-21T08:18:47.000Z</time>
      </trkpt>
      <trkpt lat="45.52556" lon="3.40103">
        <ele>763</ele>
        <time>2012-10-21T08:18:48.000Z</time>
      </trkpt>
      <trkpt lat="45.52557" lon="3.40106">
        <ele>763</ele>
        <time>2012-10-21T08:18:49.000Z</time>
      </trkpt>
      <trkpt lat="45.52559" lon="3.40109">
        <ele>763</ele>
        <time>2012-10-21T08:18:50.000Z</time>
      </trkpt>
      <trkpt lat="45.5256" lon="3.40112">
        <ele>763</ele>
        <time>2012-10-21T08:18:51.000Z</time>
      </trkpt>
      <trkpt lat="45.52561" lon="3.40115">
        <ele>763</ele>
        <time>2012-10-21T08:18:52.000Z</time>
      </trkpt>
      <trkpt lat="45.52563" lon="3.40119">
        <ele>763</ele>
        <time>2012-10-21T08:18:53.000Z</time>
      </trkpt>
      <trkpt lat="45.52565" lon="3.40123">
        <ele>762</ele>
        <time>2012-10-21T08:18:54.000Z</time>
      </trkpt>
      <trkpt lat="45.52566" lon="3.40126">
        <ele>761</ele>
        <time>2012-10-21T08:18:55.000Z</time>
      </trkpt>
      <trkpt lat="45.52568" lon="3.40131">
        <ele>764</ele>
        <time>2012-10-21T08:18:56.000Z</time>
      </trkpt>
      <trkpt lat="45.5257" lon="3.40135">
        <ele>764</ele>
        <time>2012-10-21T08:18:57.000Z</time>
      </trkpt>
      <trkpt lat="45.52572" lon="3.40138">
        <ele>763</ele>
        <time>2012-10-21T08:18:58.000Z</time>
      </trkpt>
      <trkpt lat="45.52574" lon="3.40142">
        <ele>765</ele>
        <time>2012-10-21T08:18:59.000Z</time>
      </trkpt>
      <trkpt lat="45.52575" lon="3.40145">
        <ele>765</ele>
        <time>2012-10-21T08:19:00.000Z</time>
      </trkpt>
      <trkpt lat="45.52576" lon="3.40148">
        <ele>765</ele>
        <time>2012-10-21T08:19:01.000Z</time>
      </trkpt>
      <trkpt lat="45.52578" lon="3.40151">
        <ele>765</ele>
        <time>2012-10-21T08:19:02.000Z</time>
      </trkpt>
      <trkpt lat="45.5258" lon="3.40153">
        <ele>765</ele>
        <time>2012-10-21T08:19:03.000Z</time>
      </trkpt>
      <trkpt lat="45.52581" lon="3.40155">
        <ele>766</ele>
        <time>2012-10-21T08:19:04.000Z</time>
      </trkpt>
      <trkpt lat="45.52583" lon="3.40158">
        <ele>767</ele>
        <time>2012-10-21T08:19:05.000Z</time>
      </trkpt>
      <trkpt lat="45.52586" lon="3.40161">
        <ele>767</ele>
        <time>2012-10-21T08:19:06.000Z</time>
      </trkpt>
      <trkpt lat="45.52588" lon="3.40163">
        <ele>767</ele>
        <time>2012-10-21T08:19:07.000Z</time>
      </trkpt>
      <trkpt lat="45.5259" lon="3.40165">
        <ele>767</ele>
        <time>2012-10-21T08:19:08.000Z</time>
      </trkpt>
      <trkpt lat="45.52592" lon="3.40168">
        <ele>766</ele>
        <time>2012-10-21T08:19:09.000Z</time>
      </trkpt>
      <trkpt lat="45.52595" lon="3.40169">
        <ele>766</ele>
        <time>2012-10-21T08:19:10.000Z</time>
      </trkpt>
      <trkpt lat="45.52598" lon="3.40171">
        <ele>767</ele>
        <time>2012-10-21T08:19:11.000Z</time>
      </trkpt>
      <trkpt lat="45.52601" lon="3.40173">
        <ele>767</ele>
        <time>2012-10-21T08:19:12.000Z</time>
      </trkpt>
      <trkpt lat="45.52604" lon="3.40175">
        <ele>765</ele>
        <time>2012-10-21T08:19:13.000Z</time>
      </trkpt>
      <trkpt lat="45.52607" lon="3.40177">
        <ele>767</ele>
        <time>2012-10-21T08:19:14.000Z</time>
      </trkpt>
      <trkpt lat="45.52609" lon="3.4018">
        <ele>765</ele>
        <time>2012-10-21T08:19:15.000Z</time>
      </trkpt>
      <trkpt lat="45.52611" lon="3.40183">
        <ele>765</ele>
        <time>2012-10-21T08:19:16.000Z</time>
      </trkpt>
      <trkpt lat="45.52614" lon="3.40186">
        <ele>764</ele>
        <time>2012-10-21T08:19:17.000Z</time>
      </trkpt>
      <trkpt lat="45.52616" lon="3.40188">
        <ele>764</ele>
        <time>2012-10-21T08:19:18.000Z</time>
      </trkpt>
      <trkpt lat="45.52618" lon="3.40189">
        <ele>766</ele>
        <time>2012-10-21T08:19:19.000Z</time>
      </trkpt>
      <trkpt lat="45.5262" lon="3.40191">
        <ele>767</ele>
        <time>2012-10-21T08:19:20.000Z</time>
      </trkpt>
      <trkpt lat="45.52623" lon="3.40193">
        <ele>766</ele>
        <time>2012-10-21T08:19:21.000Z</time>
      </trkpt>
      <trkpt lat="45.52626" lon="3.40195">
        <ele>767</ele>
        <time>2012-10-21T08:19:22.000Z</time>
      </trkpt>
      <trkpt lat="45.52629" lon="3.40197">
        <ele>766</ele>
        <time>2012-10-21T08:19:23.000Z</time>
      </trkpt>
      <trkpt lat="45.52632" lon="3.40199">
        <ele>766</ele>
        <time>2012-10-21T08:19:24.000Z</time>
      </trkpt>
      <trkpt lat="45.52635" lon="3.40203">
        <ele>766</ele>
        <time>2012-10-21T08:19:25.000Z</time>
      </trkpt>
      <trkpt lat="45.52638" lon="3.40206">
        <ele>767</ele>
        <time>2012-10-21T08:19:26.000Z</time>
      </trkpt>
      <trkpt lat="45.5264" lon="3.4021">
        <ele>768</ele>
        <time>2012-10-21T08:19:27.000Z</time>
      </trkpt>
      <trkpt lat="45.52642" lon="3.40213">
        <ele>769</ele>
        <time>2012-10-21T08:19:28.000Z</time>
      </trkpt>
      <trkpt lat="45.52645" lon="3.40216">
        <ele>769</ele>
        <time>2012-10-21T08:19:29.000Z</time>
      </trkpt>
      <trkpt lat="45.52647" lon="3.40219">
        <ele>769</ele>
        <time>2012-10-21T08:19:30.000Z</time>
      </trkpt>
      <trkpt lat="45.52649" lon="3.40222">
        <ele>770</ele>
        <time>2012-10-21T08:19:31.000Z</time>
      </trkpt>
      <trkpt lat="45.5265" lon="3.40224">
        <ele>769</ele>
        <time>2012-10-21T08:19:32.000Z</time>
      </trkpt>
      <trkpt lat="45.52652" lon="3.40228">
        <ele>770</ele>
        <time>2012-10-21T08:19:34.000Z</time>
      </trkpt>
      <trkpt lat="45.52654" lon="3.4023">
        <ele>770</ele>
        <time>2012-10-21T08:19:35.000Z</time>
      </trkpt>
      <trkpt lat="45.52655" lon="3.40232">
        <ele>770</ele>
        <time>2012-10-21T08:19:36.000Z</time>
      </trkpt>
      <trkpt lat="45.52657" lon="3.40235">
        <ele>768</ele>
        <time>2012-10-21T08:19:37.000Z</time>
      </trkpt>
      <trkpt lat="45.52659" lon="3.40238">
        <ele>769</ele>
        <time>2012-10-21T08:19:38.000Z</time>
      </trkpt>
      <trkpt lat="45.52662" lon="3.40241">
        <ele>768</ele>
        <time>2012-10-21T08:19:39.000Z</time>
      </trkpt>
      <trkpt lat="45.52664" lon="3.40244">
        <ele>769</ele>
        <time>2012-10-21T08:19:40.000Z</time>
      </trkpt>
      <trkpt lat="45.52666" lon="3.40248">
        <ele>768</ele>
        <time>2012-10-21T08:19:41.000Z</time>
      </trkpt>
      <trkpt lat="45.52668" lon="3.40251">
        <ele>766</ele>
        <time>2012-10-21T08:19:42.000Z</time>
      </trkpt>
      <trkpt lat="45.5267" lon="3.40255">
        <ele>763</ele>
        <time>2012-10-21T08:19:43.000Z</time>
      </trkpt>
      <trkpt lat="45.52673" lon="3.40259">
        <ele>764</ele>
        <time>2012-10-21T08:19:44.000Z</time>
      </trkpt>
      <trkpt lat="45.52675" lon="3.40263">
        <ele>764</ele>
        <time>2012-10-21T08:19:45.000Z</time>
      </trkpt>
      <trkpt lat="45.52676" lon="3.40268">
        <ele>769</ele>
        <time>2012-10-21T08:19:46.000Z</time>
      </trkpt>
      <trkpt lat="45.52677" lon="3.40273">
        <ele>768</ele>
        <time>2012-10-21T08:19:47.000Z</time>
      </trkpt>
      <trkpt lat="45.52679" lon="3.40279">
        <ele>768</ele>
        <time>2012-10-21T08:19:48.000Z</time>
      </trkpt>
      <trkpt lat="45.5268" lon="3.40285">
        <ele>767</ele>
        <time>2012-10-21T08:19:49.000Z</time>
      </trkpt>
      <trkpt lat="45.5268" lon="3.40291">
        <ele>772</ele>
        <time>2012-10-21T08:19:50.000Z</time>
      </trkpt>
      <trkpt lat="45.52679" lon="3.40298">
        <ele>772</ele>
        <time>2012-10-21T08:19:51.000Z</time>
      </trkpt>
      <trkpt lat="45.52677" lon="3.40305">
        <ele>771</ele>
        <time>2012-10-21T08:19:52.000Z</time>
      </trkpt>
      <trkpt lat="45.52675" lon="3.40311">
        <ele>773</ele>
        <time>2012-10-21T08:19:53.000Z</time>
      </trkpt>
      <trkpt lat="45.52672" lon="3.40317">
        <ele>768</ele>
        <time>2012-10-21T08:19:54.000Z</time>
      </trkpt>
      <trkpt lat="45.5267" lon="3.40323">
        <ele>768</ele>
        <time>2012-10-21T08:19:55.000Z</time>
      </trkpt>
      <trkpt lat="45.52667" lon="3.40329">
        <ele>770</ele>
        <time>2012-10-21T08:19:56.000Z</time>
      </trkpt>
      <trkpt lat="45.52664" lon="3.40335">
        <ele>767</ele>
        <time>2012-10-21T08:19:57.000Z</time>
      </trkpt>
      <trkpt lat="45.52661" lon="3.40341">
        <ele>768</ele>
        <time>2012-10-21T08:19:58.000Z</time>
      </trkpt>
      <trkpt lat="45.52658" lon="3.40348">
        <ele>770</ele>
        <time>2012-10-21T08:19:59.000Z</time>
      </trkpt>
      <trkpt lat="45.52655" lon="3.40355">
        <ele>765</ele>
        <time>2012-10-21T08:20:00.000Z</time>
      </trkpt>
      <trkpt lat="45.52651" lon="3.40361">
        <ele>761</ele>
        <time>2012-10-21T08:20:01.000Z</time>
      </trkpt>
      <trkpt lat="45.52648" lon="3.40369">
        <ele>762</ele>
        <time>2012-10-21T08:20:02.000Z</time>
      </trkpt>
      <trkpt lat="45.52644" lon="3.40376">
        <ele>762</ele>
        <time>2012-10-21T08:20:03.000Z</time>
      </trkpt>
      <trkpt lat="45.52641" lon="3.40384">
        <ele>765</ele>
        <time>2012-10-21T08:20:04.000Z</time>
      </trkpt>
      <trkpt lat="45.52638" lon="3.4039">
        <ele>762</ele>
        <time>2012-10-21T08:20:05.000Z</time>
      </trkpt>
      <trkpt lat="45.52635" lon="3.40396">
        <ele>761</ele>
        <time>2012-10-21T08:20:06.000Z</time>
      </trkpt>
      <trkpt lat="45.52633" lon="3.40402">
        <ele>761</ele>
        <time>2012-10-21T08:20:07.000Z</time>
      </trkpt>
      <trkpt lat="45.5263" lon="3.40406">
        <ele>758</ele>
        <time>2012-10-21T08:20:08.000Z</time>
      </trkpt>
      <trkpt lat="45.52628" lon="3.40411">
        <ele>761</ele>
        <time>2012-10-21T08:20:09.000Z</time>
      </trkpt>
      <trkpt lat="45.52626" lon="3.40415">
        <ele>766</ele>
        <time>2012-10-21T08:20:10.000Z</time>
      </trkpt>
      <trkpt lat="45.52624" lon="3.40421">
        <ele>765</ele>
        <time>2012-10-21T08:20:11.000Z</time>
      </trkpt>
      <trkpt lat="45.52622" lon="3.40426">
        <ele>766</ele>
        <time>2012-10-21T08:20:12.000Z</time>
      </trkpt>
      <trkpt lat="45.5262" lon="3.40432">
        <ele>767</ele>
        <time>2012-10-21T08:20:13.000Z</time>
      </trkpt>
      <trkpt lat="45.52618" lon="3.40437">
        <ele>766</ele>
        <time>2012-10-21T08:20:14.000Z</time>
      </trkpt>
      <trkpt lat="45.52616" lon="3.40443">
        <ele>766</ele>
        <time>2012-10-21T08:20:15.000Z</time>
      </trkpt>
      <trkpt lat="45.52616" lon="3.40448">
        <ele>767</ele>
        <time>2012-10-21T08:20:16.000Z</time>
      </trkpt>
      <trkpt lat="45.52617" lon="3.40454">
        <ele>767</ele>
        <time>2012-10-21T08:20:17.000Z</time>
      </trkpt>
      <trkpt lat="45.52618" lon="3.40461">
        <ele>768</ele>
        <time>2012-10-21T08:20:18.000Z</time>
      </trkpt>
      <trkpt lat="45.52619" lon="3.40469">
        <ele>762</ele>
        <time>2012-10-21T08:20:19.000Z</time>
      </trkpt>
      <trkpt lat="45.5262" lon="3.40478">
        <ele>760</ele>
        <time>2012-10-21T08:20:20.000Z</time>
      </trkpt>
      <trkpt lat="45.52622" lon="3.40486">
        <ele>761</ele>
        <time>2012-10-21T08:20:21.000Z</time>
      </trkpt>
      <trkpt lat="45.52624" lon="3.40495">
        <ele>759</ele>
        <time>2012-10-21T08:20:22.000Z</time>
      </trkpt>
      <trkpt lat="45.52625" lon="3.40504">
        <ele>760</ele>
        <time>2012-10-21T08:20:23.000Z</time>
      </trkpt>
      <trkpt lat="45.52626" lon="3.40512">
        <ele>760</ele>
        <time>2012-10-21T08:20:24.000Z</time>
      </trkpt>
      <trkpt lat="45.52628" lon="3.4052">
        <ele>762</ele>
        <time>2012-10-21T08:20:25.000Z</time>
      </trkpt>
      <trkpt lat="45.52629" lon="3.40528">
        <ele>763</ele>
        <time>2012-10-21T08:20:26.000Z</time>
      </trkpt>
      <trkpt lat="45.52631" lon="3.40536">
        <ele>762</ele>
        <time>2012-10-21T08:20:27.000Z</time>
      </trkpt>
      <trkpt lat="45.52632" lon="3.40543">
        <ele>764</ele>
        <time>2012-10-21T08:20:28.000Z</time>
      </trkpt>
      <trkpt lat="45.52633" lon="3.40551">
        <ele>767</ele>
        <time>2012-10-21T08:20:29.000Z</time>
      </trkpt>
      <trkpt lat="45.52635" lon="3.40558">
        <ele>767</ele>
        <time>2012-10-21T08:20:30.000Z</time>
      </trkpt>
      <trkpt lat="45.52636" lon="3.40565">
        <ele>766</ele>
        <time>2012-10-21T08:20:31.000Z</time>
      </trkpt>
      <trkpt lat="45.52637" lon="3.40572">
        <ele>764</ele>
        <time>2012-10-21T08:20:32.000Z</time>
      </trkpt>
      <trkpt lat="45.52638" lon="3.40578">
        <ele>765</ele>
        <time>2012-10-21T08:20:33.000Z</time>
      </trkpt>
      <trkpt lat="45.52638" lon="3.40584">
        <ele>765</ele>
        <time>2012-10-21T08:20:34.000Z</time>
      </trkpt>
      <trkpt lat="45.52639" lon="3.4059">
        <ele>766</ele>
        <time>2012-10-21T08:20:35.000Z</time>
      </trkpt>
      <trkpt lat="45.5264" lon="3.40596">
        <ele>769</ele>
        <time>2012-10-21T08:20:36.000Z</time>
      </trkpt>
      <trkpt lat="45.52641" lon="3.40601">
        <ele>767</ele>
        <time>2012-10-21T08:20:37.000Z</time>
      </trkpt>
      <trkpt lat="45.52642" lon="3.40606">
        <ele>769</ele>
        <time>2012-10-21T08:20:38.000Z</time>
      </trkpt>
      <trkpt lat="45.52643" lon="3.40611">
        <ele>770</ele>
        <time>2012-10-21T08:20:39.000Z</time>
      </trkpt>
      <trkpt lat="45.52644" lon="3.40616">
        <ele>771</ele>
        <time>2012-10-21T08:20:40.000Z</time>
      </trkpt>
      <trkpt lat="45.52645" lon="3.40622">
        <ele>767</ele>
        <time>2012-10-21T08:20:41.000Z</time>
      </trkpt>
      <trkpt lat="45.52646" lon="3.40627">
        <ele>767</ele>
        <time>2012-10-21T08:20:42.000Z</time>
      </trkpt>
      <trkpt lat="45.52647" lon="3.40632">
        <ele>768</ele>
        <time>2012-10-21T08:20:43.000Z</time>
      </trkpt>
      <trkpt lat="45.52648" lon="3.40639">
        <ele>768</ele>
        <time>2012-10-21T08:20:44.000Z</time>
      </trkpt>
      <trkpt lat="45.52649" lon="3.40644">
        <ele>766</ele>
        <time>2012-10-21T08:20:45.000Z</time>
      </trkpt>
      <trkpt lat="45.52649" lon="3.40649">
        <ele>767</ele>
        <time>2012-10-21T08:20:46.000Z</time>
      </trkpt>
      <trkpt lat="45.5265" lon="3.40655">
        <ele>765</ele>
        <time>2012-10-21T08:20:47.000Z</time>
      </trkpt>
      <trkpt lat="45.52651" lon="3.40661">
        <ele>767</ele>
        <time>2012-10-21T08:20:48.000Z</time>
      </trkpt>
      <trkpt lat="45.52652" lon="3.40667">
        <ele>765</ele>
        <time>2012-10-21T08:20:49.000Z</time>
      </trkpt>
      <trkpt lat="45.52653" lon="3.40673">
        <ele>762</ele>
        <time>2012-10-21T08:20:50.000Z</time>
      </trkpt>
      <trkpt lat="45.52654" lon="3.40679">
        <ele>761</ele>
        <time>2012-10-21T08:20:51.000Z</time>
      </trkpt>
      <trkpt lat="45.52654" lon="3.40685">
        <ele>765</ele>
        <time>2012-10-21T08:20:52.000Z</time>
      </trkpt>
      <trkpt lat="45.52655" lon="3.4069">
        <ele>769</ele>
        <time>2012-10-21T08:20:53.000Z</time>
      </trkpt>
      <trkpt lat="45.52656" lon="3.40696">
        <ele>771</ele>
        <time>2012-10-21T08:20:54.000Z</time>
      </trkpt>
      <trkpt lat="45.52657" lon="3.40701">
        <ele>769</ele>
        <time>2012-10-21T08:20:55.000Z</time>
      </trkpt>
      <trkpt lat="45.52659" lon="3.40707">
        <ele>770</ele>
        <time>2012-10-21T08:20:56.000Z</time>
      </trkpt>
      <trkpt lat="45.5266" lon="3.40713">
        <ele>767</ele>
        <time>2012-10-21T08:20:57.000Z</time>
      </trkpt>
      <trkpt lat="45.52661" lon="3.40718">
        <ele>767</ele>
        <time>2012-10-21T08:20:58.000Z</time>
      </trkpt>
      <trkpt lat="45.52662" lon="3.40724">
        <ele>767</ele>
        <time>2012-10-21T08:20:59.000Z</time>
      </trkpt>
      <trkpt lat="45.52663" lon="3.4073">
        <ele>766</ele>
        <time>2012-10-21T08:21:00.000Z</time>
      </trkpt>
      <trkpt lat="45.52663" lon="3.40736">
        <ele>766</ele>
        <time>2012-10-21T08:21:01.000Z</time>
      </trkpt>
      <trkpt lat="45.52664" lon="3.40742">
        <ele>767</ele>
        <time>2012-10-21T08:21:02.000Z</time>
      </trkpt>
      <trkpt lat="45.52664" lon="3.40747">
        <ele>769</ele>
        <time>2012-10-21T08:21:03.000Z</time>
      </trkpt>
      <trkpt lat="45.52665" lon="3.40752">
        <ele>766</ele>
        <time>2012-10-21T08:21:04.000Z</time>
      </trkpt>
      <trkpt lat="45.52666" lon="3.40757">
        <ele>766</ele>
        <time>2012-10-21T08:21:05.000Z</time>
      </trkpt>
      <trkpt lat="45.52667" lon="3.40762">
        <ele>767</ele>
        <time>2012-10-21T08:21:06.000Z</time>
      </trkpt>
      <trkpt lat="45.52667" lon="3.40766">
        <ele>767</ele>
        <time>2012-10-21T08:21:07.000Z</time>
      </trkpt>
      <trkpt lat="45.52668" lon="3.40772">
        <ele>770</ele>
        <time>2012-10-21T08:21:08.000Z</time>
      </trkpt>
      <trkpt lat="45.52669" lon="3.40777">
        <ele>768</ele>
        <time>2012-10-21T08:21:09.000Z</time>
      </trkpt>
      <trkpt lat="45.5267" lon="3.40782">
        <ele>769</ele>
        <time>2012-10-21T08:21:10.000Z</time>
      </trkpt>
      <trkpt lat="45.52671" lon="3.40788">
        <ele>770</ele>
        <time>2012-10-21T08:21:11.000Z</time>
      </trkpt>
      <trkpt lat="45.52672" lon="3.40793">
        <ele>772</ele>
        <time>2012-10-21T08:21:12.000Z</time>
      </trkpt>
      <trkpt lat="45.52674" lon="3.40798">
        <ele>771</ele>
        <time>2012-10-21T08:21:13.000Z</time>
      </trkpt>
      <trkpt lat="45.52675" lon="3.40803">
        <ele>769</ele>
        <time>2012-10-21T08:21:14.000Z</time>
      </trkpt>
      <trkpt lat="45.52676" lon="3.40807">
        <ele>768</ele>
        <time>2012-10-21T08:21:15.000Z</time>
      </trkpt>
      <trkpt lat="45.52677" lon="3.40812">
        <ele>767</ele>
        <time>2012-10-21T08:21:16.000Z</time>
      </trkpt>
      <trkpt lat="45.52678" lon="3.40817">
        <ele>766</ele>
        <time>2012-10-21T08:21:17.000Z</time>
      </trkpt>
      <trkpt lat="45.52679" lon="3.40822">
        <ele>767</ele>
        <time>2012-10-21T08:21:18.000Z</time>
      </trkpt>
      <trkpt lat="45.5268" lon="3.40826">
        <ele>768</ele>
        <time>2012-10-21T08:21:19.000Z</time>
      </trkpt>
      <trkpt lat="45.52681" lon="3.40831">
        <ele>769</ele>
        <time>2012-10-21T08:21:20.000Z</time>
      </trkpt>
      <trkpt lat="45.52682" lon="3.40837">
        <ele>767</ele>
        <time>2012-10-21T08:21:21.000Z</time>
      </trkpt>
      <trkpt lat="45.52682" lon="3.40842">
        <ele>769</ele>
        <time>2012-10-21T08:21:22.000Z</time>
      </trkpt>
      <trkpt lat="45.52683" lon="3.40847">
        <ele>769</ele>
        <time>2012-10-21T08:21:23.000Z</time>
      </trkpt>
      <trkpt lat="45.52684" lon="3.40851">
        <ele>775</ele>
        <time>2012-10-21T08:21:24.000Z</time>
      </trkpt>
      <trkpt lat="45.52685" lon="3.40856">
        <ele>770</ele>
        <time>2012-10-21T08:21:25.000Z</time>
      </trkpt>
      <trkpt lat="45.52686" lon="3.40859">
        <ele>773</ele>
        <time>2012-10-21T08:21:26.000Z</time>
      </trkpt>
      <trkpt lat="45.52686" lon="3.40864">
        <ele>774</ele>
        <time>2012-10-21T08:21:27.000Z</time>
      </trkpt>
      <trkpt lat="45.52687" lon="3.4087">
        <ele>773</ele>
        <time>2012-10-21T08:21:28.000Z</time>
      </trkpt>
      <trkpt lat="45.52688" lon="3.40875">
        <ele>777</ele>
        <time>2012-10-21T08:21:29.000Z</time>
      </trkpt>
      <trkpt lat="45.52689" lon="3.4088">
        <ele>777</ele>
        <time>2012-10-21T08:21:30.000Z</time>
      </trkpt>
      <trkpt lat="45.5269" lon="3.40886">
        <ele>775</ele>
        <time>2012-10-21T08:21:31.000Z</time>
      </trkpt>
      <trkpt lat="45.52691" lon="3.40892">
        <ele>777</ele>
        <time>2012-10-21T08:21:32.000Z</time>
      </trkpt>
      <trkpt lat="45.52692" lon="3.40897">
        <ele>779</ele>
        <time>2012-10-21T08:21:33.000Z</time>
      </trkpt>
      <trkpt lat="45.52694" lon="3.40902">
        <ele>778</ele>
        <time>2012-10-21T08:21:34.000Z</time>
      </trkpt>
      <trkpt lat="45.52695" lon="3.40907">
        <ele>780</ele>
        <time>2012-10-21T08:21:35.000Z</time>
      </trkpt>
      <trkpt lat="45.52696" lon="3.40912">
        <ele>781</ele>
        <time>2012-10-21T08:21:36.000Z</time>
      </trkpt>
      <trkpt lat="45.52698" lon="3.40916">
        <ele>783</ele>
        <time>2012-10-21T08:21:37.000Z</time>
      </trkpt>
      <trkpt lat="45.527" lon="3.4092">
        <ele>780</ele>
        <time>2012-10-21T08:21:38.000Z</time>
      </trkpt>
      <trkpt lat="45.52702" lon="3.40924">
        <ele>779</ele>
        <time>2012-10-21T08:21:39.000Z</time>
      </trkpt>
      <trkpt lat="45.52704" lon="3.40929">
        <ele>781</ele>
        <time>2012-10-21T08:21:40.000Z</time>
      </trkpt>
      <trkpt lat="45.52707" lon="3.40933">
        <ele>781</ele>
        <time>2012-10-21T08:21:41.000Z</time>
      </trkpt>
      <trkpt lat="45.52709" lon="3.40937">
        <ele>780</ele>
        <time>2012-10-21T08:21:42.000Z</time>
      </trkpt>
      <trkpt lat="45.52712" lon="3.4094">
        <ele>780</ele>
        <time>2012-10-21T08:21:43.000Z</time>
      </trkpt>
      <trkpt lat="45.52714" lon="3.40944">
        <ele>780</ele>
        <time>2012-10-21T08:21:44.000Z</time>
      </trkpt>
      <trkpt lat="45.52716" lon="3.40948">
        <ele>779</ele>
        <time>2012-10-21T08:21:45.000Z</time>
      </trkpt>
      <trkpt lat="45.52719" lon="3.40951">
        <ele>779</ele>
        <time>2012-10-21T08:21:46.000Z</time>
      </trkpt>
      <trkpt lat="45.52721" lon="3.40955">
        <ele>778</ele>
        <time>2012-10-21T08:21:47.000Z</time>
      </trkpt>
      <trkpt lat="45.52724" lon="3.40959">
        <ele>777</ele>
        <time>2012-10-21T08:21:48.000Z</time>
      </trkpt>
      <trkpt lat="45.52726" lon="3.40963">
        <ele>777</ele>
        <time>2012-10-21T08:21:49.000Z</time>
      </trkpt>
      <trkpt lat="45.52729" lon="3.40967">
        <ele>777</ele>
        <time>2012-10-21T08:21:50.000Z</time>
      </trkpt>
      <trkpt lat="45.52731" lon="3.40971">
        <ele>777</ele>
        <time>2012-10-21T08:21:51.000Z</time>
      </trkpt>
      <trkpt lat="45.52734" lon="3.40975">
        <ele>778</ele>
        <time>2012-10-21T08:21:52.000Z</time>
      </trkpt>
      <trkpt lat="45.52736" lon="3.40979">
        <ele>778</ele>
        <time>2012-10-21T08:21:53.000Z</time>
      </trkpt>
      <trkpt lat="45.52738" lon="3.40983">
        <ele>779</ele>
        <time>2012-10-21T08:21:54.000Z</time>
      </trkpt>
      <trkpt lat="45.52741" lon="3.40987">
        <ele>779</ele>
        <time>2012-10-21T08:21:55.000Z</time>
      </trkpt>
      <trkpt lat="45.52743" lon="3.40992">
        <ele>779</ele>
        <time>2012-10-21T08:21:56.000Z</time>
      </trkpt>
      <trkpt lat="45.52746" lon="3.40996">
        <ele>779</ele>
        <time>2012-10-21T08:21:57.000Z</time>
      </trkpt>
      <trkpt lat="45.52748" lon="3.41">
        <ele>780</ele>
        <time>2012-10-21T08:21:58.000Z</time>
      </trkpt>
      <trkpt lat="45.5275" lon="3.41004">
        <ele>781</ele>
        <time>2012-10-21T08:21:59.000Z</time>
      </trkpt>
      <trkpt lat="45.52753" lon="3.41008">
        <ele>782</ele>
        <time>2012-10-21T08:22:00.000Z</time>
      </trkpt>
      <trkpt lat="45.52754" lon="3.41011">
        <ele>782</ele>
        <time>2012-10-21T08:22:01.000Z</time>
      </trkpt>
      <trkpt lat="45.52756" lon="3.41015">
        <ele>782</ele>
        <time>2012-10-21T08:22:02.000Z</time>
      </trkpt>
      <trkpt lat="45.52758" lon="3.41019">
        <ele>786</ele>
        <time>2012-10-21T08:22:03.000Z</time>
      </trkpt>
      <trkpt lat="45.52759" lon="3.41023">
        <ele>787</ele>
        <time>2012-10-21T08:22:04.000Z</time>
      </trkpt>
      <trkpt lat="45.5276" lon="3.41029">
        <ele>793</ele>
        <time>2012-10-21T08:22:05.000Z</time>
      </trkpt>
      <trkpt lat="45.52762" lon="3.41035">
        <ele>794</ele>
        <time>2012-10-21T08:22:06.000Z</time>
      </trkpt>
      <trkpt lat="45.52762" lon="3.41041">
        <ele>794</ele>
        <time>2012-10-21T08:22:07.000Z</time>
      </trkpt>
      <trkpt lat="45.52763" lon="3.41045">
        <ele>794</ele>
        <time>2012-10-21T08:22:08.000Z</time>
      </trkpt>
      <trkpt lat="45.52764" lon="3.41051">
        <ele>792</ele>
        <time>2012-10-21T08:22:09.000Z</time>
      </trkpt>
      <trkpt lat="45.52764" lon="3.41056">
        <ele>791</ele>
        <time>2012-10-21T08:22:10.000Z</time>
      </trkpt>
      <trkpt lat="45.52763" lon="3.41062">
        <ele>791</ele>
        <time>2012-10-21T08:22:11.000Z</time>
      </trkpt>
      <trkpt lat="45.52762" lon="3.41067">
        <ele>793</ele>
        <time>2012-10-21T08:22:12.000Z</time>
      </trkpt>
      <trkpt lat="45.52761" lon="3.41073">
        <ele>794</ele>
        <time>2012-10-21T08:22:13.000Z</time>
      </trkpt>
      <trkpt lat="45.5276" lon="3.41079">
        <ele>795</ele>
        <time>2012-10-21T08:22:14.000Z</time>
      </trkpt>
      <trkpt lat="45.52759" lon="3.41084">
        <ele>793</ele>
        <time>2012-10-21T08:22:15.000Z</time>
      </trkpt>
      <trkpt lat="45.52759" lon="3.41089">
        <ele>794</ele>
        <time>2012-10-21T08:22:16.000Z</time>
      </trkpt>
      <trkpt lat="45.52758" lon="3.41094">
        <ele>792</ele>
        <time>2012-10-21T08:22:17.000Z</time>
      </trkpt>
      <trkpt lat="45.52758" lon="3.411">
        <ele>789</ele>
        <time>2012-10-21T08:22:18.000Z</time>
      </trkpt>
      <trkpt lat="45.52759" lon="3.41107">
        <ele>789</ele>
        <time>2012-10-21T08:22:19.000Z</time>
      </trkpt>
      <trkpt lat="45.52758" lon="3.41113">
        <ele>790</ele>
        <time>2012-10-21T08:22:20.000Z</time>
      </trkpt>
      <trkpt lat="45.52758" lon="3.41121">
        <ele>791</ele>
        <time>2012-10-21T08:22:21.000Z</time>
      </trkpt>
      <trkpt lat="45.52758" lon="3.4113">
        <ele>788</ele>
        <time>2012-10-21T08:22:22.000Z</time>
      </trkpt>
      <trkpt lat="45.52757" lon="3.4114">
        <ele>787</ele>
        <time>2012-10-21T08:22:23.000Z</time>
      </trkpt>
      <trkpt lat="45.52757" lon="3.41149">
        <ele>786</ele>
        <time>2012-10-21T08:22:24.000Z</time>
      </trkpt>
      <trkpt lat="45.52756" lon="3.41156">
        <ele>786</ele>
        <time>2012-10-21T08:22:25.000Z</time>
      </trkpt>
      <trkpt lat="45.52755" lon="3.41164">
        <ele>783</ele>
        <time>2012-10-21T08:22:26.000Z</time>
      </trkpt>
      <trkpt lat="45.52753" lon="3.41171">
        <ele>781</ele>
        <time>2012-10-21T08:22:27.000Z</time>
      </trkpt>
      <trkpt lat="45.52751" lon="3.41178">
        <ele>785</ele>
        <time>2012-10-21T08:22:28.000Z</time>
      </trkpt>
      <trkpt lat="45.5275" lon="3.41185">
        <ele>784</ele>
        <time>2012-10-21T08:22:29.000Z</time>
      </trkpt>
      <trkpt lat="45.52748" lon="3.41192">
        <ele>784</ele>
        <time>2012-10-21T08:22:30.000Z</time>
      </trkpt>
      <trkpt lat="45.52749" lon="3.412">
        <ele>779</ele>
        <time>2012-10-21T08:22:31.000Z</time>
      </trkpt>
      <trkpt lat="45.52751" lon="3.41205">
        <ele>780</ele>
        <time>2012-10-21T08:22:32.000Z</time>
      </trkpt>
      <trkpt lat="45.52753" lon="3.41211">
        <ele>779</ele>
        <time>2012-10-21T08:22:33.000Z</time>
      </trkpt>
      <trkpt lat="45.52755" lon="3.41217">
        <ele>780</ele>
        <time>2012-10-21T08:22:34.000Z</time>
      </trkpt>
      <trkpt lat="45.52757" lon="3.41223">
        <ele>779</ele>
        <time>2012-10-21T08:22:35.000Z</time>
      </trkpt>
      <trkpt lat="45.52757" lon="3.41228">
        <ele>777</ele>
        <time>2012-10-21T08:22:36.000Z</time>
      </trkpt>
      <trkpt lat="45.52758" lon="3.41233">
        <ele>774</ele>
        <time>2012-10-21T08:22:37.000Z</time>
      </trkpt>
      <trkpt lat="45.52758" lon="3.41238">
        <ele>776</ele>
        <time>2012-10-21T08:22:38.000Z</time>
      </trkpt>
      <trkpt lat="45.52759" lon="3.41243">
        <ele>782</ele>
        <time>2012-10-21T08:22:39.000Z</time>
      </trkpt>
      <trkpt lat="45.5276" lon="3.41247">
        <ele>783</ele>
        <time>2012-10-21T08:22:40.000Z</time>
      </trkpt>
      <trkpt lat="45.5276" lon="3.41252">
        <ele>784</ele>
        <time>2012-10-21T08:22:41.000Z</time>
      </trkpt>
      <trkpt lat="45.52761" lon="3.41256">
        <ele>783</ele>
        <time>2012-10-21T08:22:42.000Z</time>
      </trkpt>
      <trkpt lat="45.52762" lon="3.4126">
        <ele>782</ele>
        <time>2012-10-21T08:22:43.000Z</time>
      </trkpt>
      <trkpt lat="45.52763" lon="3.41264">
        <ele>779</ele>
        <time>2012-10-21T08:22:44.000Z</time>
      </trkpt>
      <trkpt lat="45.52763" lon="3.41268">
        <ele>781</ele>
        <time>2012-10-21T08:22:45.000Z</time>
      </trkpt>
      <trkpt lat="45.52763" lon="3.41272">
        <ele>782</ele>
        <time>2012-10-21T08:22:46.000Z</time>
      </trkpt>
      <trkpt lat="45.52763" lon="3.41276">
        <ele>778</ele>
        <time>2012-10-21T08:22:47.000Z</time>
      </trkpt>
      <trkpt lat="45.52763" lon="3.4128">
        <ele>783</ele>
        <time>2012-10-21T08:22:48.000Z</time>
      </trkpt>
      <trkpt lat="45.52764" lon="3.41283">
        <ele>783</ele>
        <time>2012-10-21T08:22:49.000Z</time>
      </trkpt>
      <trkpt lat="45.52764" lon="3.41287">
        <ele>785</ele>
        <time>2012-10-21T08:22:50.000Z</time>
      </trkpt>
      <trkpt lat="45.52765" lon="3.41293">
        <ele>786</ele>
        <time>2012-10-21T08:22:52.000Z</time>
      </trkpt>
      <trkpt lat="45.52765" lon="3.41296">
        <ele>785</ele>
        <time>2012-10-21T08:22:53.000Z</time>
      </trkpt>
      <trkpt lat="45.52766" lon="3.413">
        <ele>784</ele>
        <time>2012-10-21T08:22:54.000Z</time>
      </trkpt>
      <trkpt lat="45.52767" lon="3.41303">
        <ele>780</ele>
        <time>2012-10-21T08:22:55.000Z</time>
      </trkpt>
      <trkpt lat="45.52767" lon="3.41306">
        <ele>780</ele>
        <time>2012-10-21T08:22:56.000Z</time>
      </trkpt>
      <trkpt lat="45.52769" lon="3.41309">
        <ele>779</ele>
        <time>2012-10-21T08:22:57.000Z</time>
      </trkpt>
      <trkpt lat="45.5277" lon="3.41312">
        <ele>780</ele>
        <time>2012-10-21T08:22:58.000Z</time>
      </trkpt>
      <trkpt lat="45.5277" lon="3.41315">
        <ele>781</ele>
        <time>2012-10-21T08:22:59.000Z</time>
      </trkpt>
      <trkpt lat="45.52772" lon="3.41319">
        <ele>785</ele>
        <time>2012-10-21T08:23:01.000Z</time>
      </trkpt>
      <trkpt lat="45.52773" lon="3.41322">
        <ele>789</ele>
        <time>2012-10-21T08:23:02.000Z</time>
      </trkpt>
      <trkpt lat="45.52775" lon="3.41326">
        <ele>793</ele>
        <time>2012-10-21T08:23:04.000Z</time>
      </trkpt>
      <trkpt lat="45.52776" lon="3.41328">
        <ele>793</ele>
        <time>2012-10-21T08:23:05.000Z</time>
      </trkpt>
      <trkpt lat="45.52778" lon="3.41333">
        <ele>793</ele>
        <time>2012-10-21T08:23:08.000Z</time>
      </trkpt>
      <trkpt lat="45.52779" lon="3.41335">
        <ele>788</ele>
        <time>2012-10-21T08:23:09.000Z</time>
      </trkpt>
      <trkpt lat="45.52781" lon="3.41339">
        <ele>789</ele>
        <time>2012-10-21T08:23:11.000Z</time>
      </trkpt>
      <trkpt lat="45.52783" lon="3.41341">
        <ele>790</ele>
        <time>2012-10-21T08:23:12.000Z</time>
      </trkpt>
      <trkpt lat="45.52785" lon="3.41346">
        <ele>792</ele>
        <time>2012-10-21T08:23:14.000Z</time>
      </trkpt>
      <trkpt lat="45.52786" lon="3.41347">
        <ele>792</ele>
        <time>2012-10-21T08:23:15.000Z</time>
      </trkpt>
      <trkpt lat="45.52788" lon="3.41351">
        <ele>791</ele>
        <time>2012-10-21T08:23:17.000Z</time>
      </trkpt>
      <trkpt lat="45.52789" lon="3.41353">
        <ele>792</ele>
        <time>2012-10-21T08:23:18.000Z</time>
      </trkpt>
      <trkpt lat="45.52791" lon="3.41357">
        <ele>794</ele>
        <time>2012-10-21T08:23:20.000Z</time>
      </trkpt>
      <trkpt lat="45.52792" lon="3.41359">
        <ele>796</ele>
        <time>2012-10-21T08:23:21.000Z</time>
      </trkpt>
      <trkpt lat="45.52794" lon="3.41362">
        <ele>795</ele>
        <time>2012-10-21T08:23:23.000Z</time>
      </trkpt>
      <trkpt lat="45.52795" lon="3.41364">
        <ele>796</ele>
        <time>2012-10-21T08:23:24.000Z</time>
      </trkpt>
      <trkpt lat="45.52797" lon="3.41368">
        <ele>794</ele>
        <time>2012-10-21T08:23:26.000Z</time>
      </trkpt>
      <trkpt lat="45.52798" lon="3.41371">
        <ele>793</ele>
        <time>2012-10-21T08:23:27.000Z</time>
      </trkpt>
      <trkpt lat="45.528" lon="3.41375">
        <ele>792</ele>
        <time>2012-10-21T08:23:29.000Z</time>
      </trkpt>
      <trkpt lat="45.52802" lon="3.41377">
        <ele>794</ele>
        <time>2012-10-21T08:23:30.000Z</time>
      </trkpt>
      <trkpt lat="45.52804" lon="3.41381">
        <ele>795</ele>
        <time>2012-10-21T08:23:32.000Z</time>
      </trkpt>
      <trkpt lat="45.52805" lon="3.41384">
        <ele>798</ele>
        <time>2012-10-21T08:23:33.000Z</time>
      </trkpt>
      <trkpt lat="45.52806" lon="3.41388">
        <ele>799</ele>
        <time>2012-10-21T08:23:34.000Z</time>
      </trkpt>
      <trkpt lat="45.52807" lon="3.4139">
        <ele>799</ele>
        <time>2012-10-21T08:23:35.000Z</time>
      </trkpt>
      <trkpt lat="45.52808" lon="3.41393">
        <ele>796</ele>
        <time>2012-10-21T08:23:36.000Z</time>
      </trkpt>
      <trkpt lat="45.52809" lon="3.41396">
        <ele>800</ele>
        <time>2012-10-21T08:23:37.000Z</time>
      </trkpt>
      <trkpt lat="45.52811" lon="3.41401">
        <ele>803</ele>
        <time>2012-10-21T08:23:39.000Z</time>
      </trkpt>
      <trkpt lat="45.52812" lon="3.41404">
        <ele>803</ele>
        <time>2012-10-21T08:23:40.000Z</time>
      </trkpt>
      <trkpt lat="45.52813" lon="3.4141">
        <ele>806</ele>
        <time>2012-10-21T08:23:42.000Z</time>
      </trkpt>
      <trkpt lat="45.52814" lon="3.41413">
        <ele>803</ele>
        <time>2012-10-21T08:23:43.000Z</time>
      </trkpt>
      <trkpt lat="45.52815" lon="3.41417">
        <ele>801</ele>
        <time>2012-10-21T08:23:44.000Z</time>
      </trkpt>
      <trkpt lat="45.52815" lon="3.4142">
        <ele>799</ele>
        <time>2012-10-21T08:23:45.000Z</time>
      </trkpt>
      <trkpt lat="45.52816" lon="3.41423">
        <ele>801</ele>
        <time>2012-10-21T08:23:46.000Z</time>
      </trkpt>
      <trkpt lat="45.52817" lon="3.41426">
        <ele>801</ele>
        <time>2012-10-21T08:23:47.000Z</time>
      </trkpt>
      <trkpt lat="45.52817" lon="3.4143">
        <ele>803</ele>
        <time>2012-10-21T08:23:48.000Z</time>
      </trkpt>
      <trkpt lat="45.52817" lon="3.41433">
        <ele>802</ele>
        <time>2012-10-21T08:23:49.000Z</time>
      </trkpt>
      <trkpt lat="45.52817" lon="3.41436">
        <ele>800</ele>
        <time>2012-10-21T08:23:50.000Z</time>
      </trkpt>
      <trkpt lat="45.52818" lon="3.41439">
        <ele>800</ele>
        <time>2012-10-21T08:23:51.000Z</time>
      </trkpt>
      <trkpt lat="45.52818" lon="3.41443">
        <ele>799</ele>
        <time>2012-10-21T08:23:52.000Z</time>
      </trkpt>
      <trkpt lat="45.52818" lon="3.41446">
        <ele>802</ele>
        <time>2012-10-21T08:23:53.000Z</time>
      </trkpt>
      <trkpt lat="45.52819" lon="3.41449">
        <ele>803</ele>
        <time>2012-10-21T08:23:54.000Z</time>
      </trkpt>
      <trkpt lat="45.52819" lon="3.41452">
        <ele>803</ele>
        <time>2012-10-21T08:23:55.000Z</time>
      </trkpt>
      <trkpt lat="45.5282" lon="3.41456">
        <ele>802</ele>
        <time>2012-10-21T08:23:56.000Z</time>
      </trkpt>
      <trkpt lat="45.5282" lon="3.4146">
        <ele>804</ele>
        <time>2012-10-21T08:23:57.000Z</time>
      </trkpt>
      <trkpt lat="45.5282" lon="3.41463">
        <ele>804</ele>
        <time>2012-10-21T08:23:58.000Z</time>
      </trkpt>
      <trkpt lat="45.52821" lon="3.41466">
        <ele>803</ele>
        <time>2012-10-21T08:23:59.000Z</time>
      </trkpt>
      <trkpt lat="45.52821" lon="3.4147">
        <ele>803</ele>
        <time>2012-10-21T08:24:00.000Z</time>
      </trkpt>
      <trkpt lat="45.52821" lon="3.41473">
        <ele>802</ele>
        <time>2012-10-21T08:24:01.000Z</time>
      </trkpt>
      <trkpt lat="45.52821" lon="3.41477">
        <ele>800</ele>
        <time>2012-10-21T08:24:02.000Z</time>
      </trkpt>
      <trkpt lat="45.52821" lon="3.4148">
        <ele>802</ele>
        <time>2012-10-21T08:24:03.000Z</time>
      </trkpt>
      <trkpt lat="45.52821" lon="3.41483">
        <ele>800</ele>
        <time>2012-10-21T08:24:04.000Z</time>
      </trkpt>
      <trkpt lat="45.52821" lon="3.41486">
        <ele>804</ele>
        <time>2012-10-21T08:24:05.000Z</time>
      </trkpt>
      <trkpt lat="45.52821" lon="3.4149">
        <ele>804</ele>
        <time>2012-10-21T08:24:06.000Z</time>
      </trkpt>
      <trkpt lat="45.52822" lon="3.41493">
        <ele>803</ele>
        <time>2012-10-21T08:24:07.000Z</time>
      </trkpt>
      <trkpt lat="45.52822" lon="3.41497">
        <ele>805</ele>
        <time>2012-10-21T08:24:08.000Z</time>
      </trkpt>
      <trkpt lat="45.52823" lon="3.415">
        <ele>805</ele>
        <time>2012-10-21T08:24:09.000Z</time>
      </trkpt>
      <trkpt lat="45.52823" lon="3.41504">
        <ele>808</ele>
        <time>2012-10-21T08:24:10.000Z</time>
      </trkpt>
      <trkpt lat="45.52824" lon="3.41508">
        <ele>807</ele>
        <time>2012-10-21T08:24:11.000Z</time>
      </trkpt>
      <trkpt lat="45.52824" lon="3.41512">
        <ele>807</ele>
        <time>2012-10-21T08:24:12.000Z</time>
      </trkpt>
      <trkpt lat="45.52825" lon="3.41515">
        <ele>806</ele>
        <time>2012-10-21T08:24:13.000Z</time>
      </trkpt>
      <trkpt lat="45.52826" lon="3.41519">
        <ele>806</ele>
        <time>2012-10-21T08:24:14.000Z</time>
      </trkpt>
      <trkpt lat="45.52826" lon="3.41523">
        <ele>807</ele>
        <time>2012-10-21T08:24:15.000Z</time>
      </trkpt>
      <trkpt lat="45.52827" lon="3.41527">
        <ele>808</ele>
        <time>2012-10-21T08:24:16.000Z</time>
      </trkpt>
      <trkpt lat="45.52827" lon="3.4153">
        <ele>806</ele>
        <time>2012-10-21T08:24:17.000Z</time>
      </trkpt>
      <trkpt lat="45.52828" lon="3.41535">
        <ele>805</ele>
        <time>2012-10-21T08:24:18.000Z</time>
      </trkpt>
      <trkpt lat="45.52828" lon="3.41539">
        <ele>803</ele>
        <time>2012-10-21T08:24:19.000Z</time>
      </trkpt>
      <trkpt lat="45.52828" lon="3.41544">
        <ele>801</ele>
        <time>2012-10-21T08:24:20.000Z</time>
      </trkpt>
      <trkpt lat="45.52828" lon="3.41549">
        <ele>800</ele>
        <time>2012-10-21T08:24:21.000Z</time>
      </trkpt>
      <trkpt lat="45.52828" lon="3.41553">
        <ele>799</ele>
        <time>2012-10-21T08:24:22.000Z</time>
      </trkpt>
      <trkpt lat="45.52829" lon="3.41557">
        <ele>798</ele>
        <time>2012-10-21T08:24:23.000Z</time>
      </trkpt>
      <trkpt lat="45.52829" lon="3.41561">
        <ele>797</ele>
        <time>2012-10-21T08:24:24.000Z</time>
      </trkpt>
      <trkpt lat="45.52829" lon="3.41565">
        <ele>797</ele>
        <time>2012-10-21T08:24:25.000Z</time>
      </trkpt>
      <trkpt lat="45.52829" lon="3.41569">
        <ele>796</ele>
        <time>2012-10-21T08:24:26.000Z</time>
      </trkpt>
      <trkpt lat="45.5283" lon="3.41572">
        <ele>797</ele>
        <time>2012-10-21T08:24:27.000Z</time>
      </trkpt>
      <trkpt lat="45.5283" lon="3.41576">
        <ele>797</ele>
        <time>2012-10-21T08:24:28.000Z</time>
      </trkpt>
      <trkpt lat="45.52831" lon="3.4158">
        <ele>804</ele>
        <time>2012-10-21T08:24:29.000Z</time>
      </trkpt>
      <trkpt lat="45.52832" lon="3.41583">
        <ele>805</ele>
        <time>2012-10-21T08:24:30.000Z</time>
      </trkpt>
      <trkpt lat="45.52833" lon="3.41586">
        <ele>806</ele>
        <time>2012-10-21T08:24:31.000Z</time>
      </trkpt>
      <trkpt lat="45.52834" lon="3.4159">
        <ele>805</ele>
        <time>2012-10-21T08:24:32.000Z</time>
      </trkpt>
      <trkpt lat="45.52834" lon="3.41594">
        <ele>805</ele>
        <time>2012-10-21T08:24:33.000Z</time>
      </trkpt>
      <trkpt lat="45.52835" lon="3.41599">
        <ele>804</ele>
        <time>2012-10-21T08:24:34.000Z</time>
      </trkpt>
      <trkpt lat="45.52836" lon="3.41603">
        <ele>805</ele>
        <time>2012-10-21T08:24:35.000Z</time>
      </trkpt>
      <trkpt lat="45.52837" lon="3.41607">
        <ele>803</ele>
        <time>2012-10-21T08:24:36.000Z</time>
      </trkpt>
      <trkpt lat="45.52838" lon="3.41612">
        <ele>804</ele>
        <time>2012-10-21T08:24:37.000Z</time>
      </trkpt>
      <trkpt lat="45.5284" lon="3.41617">
        <ele>806</ele>
        <time>2012-10-21T08:24:38.000Z</time>
      </trkpt>
      <trkpt lat="45.52842" lon="3.41622">
        <ele>806</ele>
        <time>2012-10-21T08:24:39.000Z</time>
      </trkpt>
      <trkpt lat="45.52843" lon="3.41627">
        <ele>806</ele>
        <time>2012-10-21T08:24:40.000Z</time>
      </trkpt>
      <trkpt lat="45.52844" lon="3.41632">
        <ele>806</ele>
        <time>2012-10-21T08:24:41.000Z</time>
      </trkpt>
      <trkpt lat="45.52846" lon="3.41636">
        <ele>809</ele>
        <time>2012-10-21T08:24:42.000Z</time>
      </trkpt>
      <trkpt lat="45.52848" lon="3.4164">
        <ele>810</ele>
        <time>2012-10-21T08:24:43.000Z</time>
      </trkpt>
      <trkpt lat="45.5285" lon="3.41645">
        <ele>813</ele>
        <time>2012-10-21T08:24:44.000Z</time>
      </trkpt>
      <trkpt lat="45.52852" lon="3.4165">
        <ele>813</ele>
        <time>2012-10-21T08:24:45.000Z</time>
      </trkpt>
      <trkpt lat="45.52853" lon="3.41656">
        <ele>813</ele>
        <time>2012-10-21T08:24:46.000Z</time>
      </trkpt>
      <trkpt lat="45.52855" lon="3.41661">
        <ele>813</ele>
        <time>2012-10-21T08:24:47.000Z</time>
      </trkpt>
      <trkpt lat="45.52856" lon="3.41667">
        <ele>812</ele>
        <time>2012-10-21T08:24:48.000Z</time>
      </trkpt>
      <trkpt lat="45.52857" lon="3.41673">
        <ele>810</ele>
        <time>2012-10-21T08:24:49.000Z</time>
      </trkpt>
      <trkpt lat="45.52858" lon="3.4168">
        <ele>809</ele>
        <time>2012-10-21T08:24:50.000Z</time>
      </trkpt>
      <trkpt lat="45.52859" lon="3.41686">
        <ele>808</ele>
        <time>2012-10-21T08:24:51.000Z</time>
      </trkpt>
      <trkpt lat="45.52858" lon="3.41692">
        <ele>803</ele>
        <time>2012-10-21T08:24:52.000Z</time>
      </trkpt>
      <trkpt lat="45.52858" lon="3.41699">
        <ele>803</ele>
        <time>2012-10-21T08:24:53.000Z</time>
      </trkpt>
      <trkpt lat="45.52857" lon="3.41706">
        <ele>804</ele>
        <time>2012-10-21T08:24:54.000Z</time>
      </trkpt>
      <trkpt lat="45.52856" lon="3.41713">
        <ele>805</ele>
        <time>2012-10-21T08:24:55.000Z</time>
      </trkpt>
      <trkpt lat="45.52855" lon="3.4172">
        <ele>805</ele>
        <time>2012-10-21T08:24:56.000Z</time>
      </trkpt>
      <trkpt lat="45.52854" lon="3.41727">
        <ele>805</ele>
        <time>2012-10-21T08:24:57.000Z</time>
      </trkpt>
      <trkpt lat="45.52853" lon="3.41733">
        <ele>806</ele>
        <time>2012-10-21T08:24:58.000Z</time>
      </trkpt>
      <trkpt lat="45.52852" lon="3.41739">
        <ele>807</ele>
        <time>2012-10-21T08:24:59.000Z</time>
      </trkpt>
      <trkpt lat="45.5285" lon="3.41745">
        <ele>807</ele>
        <time>2012-10-21T08:25:00.000Z</time>
      </trkpt>
      <trkpt lat="45.52849" lon="3.41751">
        <ele>810</ele>
        <time>2012-10-21T08:25:01.000Z</time>
      </trkpt>
      <trkpt lat="45.52847" lon="3.41756">
        <ele>807</ele>
        <time>2012-10-21T08:25:02.000Z</time>
      </trkpt>
      <trkpt lat="45.52846" lon="3.41761">
        <ele>805</ele>
        <time>2012-10-21T08:25:03.000Z</time>
      </trkpt>
      <trkpt lat="45.52845" lon="3.41766">
        <ele>804</ele>
        <time>2012-10-21T08:25:04.000Z</time>
      </trkpt>
      <trkpt lat="45.52843" lon="3.41773">
        <ele>808</ele>
        <time>2012-10-21T08:25:05.000Z</time>
      </trkpt>
      <trkpt lat="45.5284" lon="3.4178">
        <ele>805</ele>
        <time>2012-10-21T08:25:06.000Z</time>
      </trkpt>
      <trkpt lat="45.52838" lon="3.41788">
        <ele>802</ele>
        <time>2012-10-21T08:25:07.000Z</time>
      </trkpt>
      <trkpt lat="45.52836" lon="3.41795">
        <ele>799</ele>
        <time>2012-10-21T08:25:08.000Z</time>
      </trkpt>
      <trkpt lat="45.52836" lon="3.41803">
        <ele>800</ele>
        <time>2012-10-21T08:25:09.000Z</time>
      </trkpt>
      <trkpt lat="45.52835" lon="3.4181">
        <ele>793</ele>
        <time>2012-10-21T08:25:10.000Z</time>
      </trkpt>
      <trkpt lat="45.52834" lon="3.41817">
        <ele>796</ele>
        <time>2012-10-21T08:25:11.000Z</time>
      </trkpt>
      <trkpt lat="45.52834" lon="3.41824">
        <ele>796</ele>
        <time>2012-10-21T08:25:12.000Z</time>
      </trkpt>
      <trkpt lat="45.52833" lon="3.41831">
        <ele>795</ele>
        <time>2012-10-21T08:25:13.000Z</time>
      </trkpt>
      <trkpt lat="45.52833" lon="3.41839">
        <ele>794</ele>
        <time>2012-10-21T08:25:14.000Z</time>
      </trkpt>
      <trkpt lat="45.52832" lon="3.41845">
        <ele>797</ele>
        <time>2012-10-21T08:25:15.000Z</time>
      </trkpt>
      <trkpt lat="45.52832" lon="3.4185">
        <ele>796</ele>
        <time>2012-10-21T08:25:16.000Z</time>
      </trkpt>
      <trkpt lat="45.52831" lon="3.41855">
        <ele>796</ele>
        <time>2012-10-21T08:25:17.000Z</time>
      </trkpt>
      <trkpt lat="45.52831" lon="3.41859">
        <ele>796</ele>
        <time>2012-10-21T08:25:18.000Z</time>
      </trkpt>
      <trkpt lat="45.52831" lon="3.41864">
        <ele>796</ele>
        <time>2012-10-21T08:25:19.000Z</time>
      </trkpt>
      <trkpt lat="45.5283" lon="3.4187">
        <ele>798</ele>
        <time>2012-10-21T08:25:20.000Z</time>
      </trkpt>
      <trkpt lat="45.5283" lon="3.41876">
        <ele>806</ele>
        <time>2012-10-21T08:25:21.000Z</time>
      </trkpt>
      <trkpt lat="45.52831" lon="3.41881">
        <ele>802</ele>
        <time>2012-10-21T08:25:22.000Z</time>
      </trkpt>
      <trkpt lat="45.52831" lon="3.41887">
        <ele>800</ele>
        <time>2012-10-21T08:25:23.000Z</time>
      </trkpt>
      <trkpt lat="45.52833" lon="3.41893">
        <ele>801</ele>
        <time>2012-10-21T08:25:24.000Z</time>
      </trkpt>
      <trkpt lat="45.52835" lon="3.41898">
        <ele>803</ele>
        <time>2012-10-21T08:25:25.000Z</time>
      </trkpt>
      <trkpt lat="45.52838" lon="3.41905">
        <ele>802</ele>
        <time>2012-10-21T08:25:26.000Z</time>
      </trkpt>
      <trkpt lat="45.52839" lon="3.4191">
        <ele>799</ele>
        <time>2012-10-21T08:25:27.000Z</time>
      </trkpt>
      <trkpt lat="45.52839" lon="3.41915">
        <ele>800</ele>
        <time>2012-10-21T08:25:28.000Z</time>
      </trkpt>
      <trkpt lat="45.5284" lon="3.41919">
        <ele>800</ele>
        <time>2012-10-21T08:25:29.000Z</time>
      </trkpt>
      <trkpt lat="45.52841" lon="3.41924">
        <ele>800</ele>
        <time>2012-10-21T08:25:30.000Z</time>
      </trkpt>
      <trkpt lat="45.52842" lon="3.41928">
        <ele>801</ele>
        <time>2012-10-21T08:25:31.000Z</time>
      </trkpt>
      <trkpt lat="45.52843" lon="3.41931">
        <ele>802</ele>
        <time>2012-10-21T08:25:32.000Z</time>
      </trkpt>
      <trkpt lat="45.52843" lon="3.41935">
        <ele>804</ele>
        <time>2012-10-21T08:25:34.000Z</time>
      </trkpt>
      <trkpt lat="45.52844" lon="3.41937">
        <ele>804</ele>
        <time>2012-10-21T08:25:35.000Z</time>
      </trkpt>
      <trkpt lat="45.52845" lon="3.41942">
        <ele>808</ele>
        <time>2012-10-21T08:25:37.000Z</time>
      </trkpt>
      <trkpt lat="45.52846" lon="3.41945">
        <ele>808</ele>
        <time>2012-10-21T08:25:38.000Z</time>
      </trkpt>
      <trkpt lat="45.52848" lon="3.41951">
        <ele>806</ele>
        <time>2012-10-21T08:25:40.000Z</time>
      </trkpt>
      <trkpt lat="45.52848" lon="3.41953">
        <ele>806</ele>
        <time>2012-10-21T08:25:41.000Z</time>
      </trkpt>
      <trkpt lat="45.52849" lon="3.41957">
        <ele>805</ele>
        <time>2012-10-21T08:25:42.000Z</time>
      </trkpt>
      <trkpt lat="45.5285" lon="3.4196">
        <ele>806</ele>
        <time>2012-10-21T08:25:43.000Z</time>
      </trkpt>
      <trkpt lat="45.52851" lon="3.41965">
        <ele>809</ele>
        <time>2012-10-21T08:25:45.000Z</time>
      </trkpt>
      <trkpt lat="45.52852" lon="3.41967">
        <ele>809</ele>
        <time>2012-10-21T08:25:46.000Z</time>
      </trkpt>
      <trkpt lat="45.52854" lon="3.41972">
        <ele>806</ele>
        <time>2012-10-21T08:25:48.000Z</time>
      </trkpt>
      <trkpt lat="45.52854" lon="3.41974">
        <ele>804</ele>
        <time>2012-10-21T08:25:49.000Z</time>
      </trkpt>
      <trkpt lat="45.52855" lon="3.41978">
        <ele>812</ele>
        <time>2012-10-21T08:25:51.000Z</time>
      </trkpt>
      <trkpt lat="45.52856" lon="3.41981">
        <ele>809</ele>
        <time>2012-10-21T08:25:52.000Z</time>
      </trkpt>
      <trkpt lat="45.52856" lon="3.41985">
        <ele>812</ele>
        <time>2012-10-21T08:25:53.000Z</time>
      </trkpt>
      <trkpt lat="45.52857" lon="3.41988">
        <ele>809</ele>
        <time>2012-10-21T08:25:54.000Z</time>
      </trkpt>
      <trkpt lat="45.52857" lon="3.41991">
        <ele>807</ele>
        <time>2012-10-21T08:25:55.000Z</time>
      </trkpt>
      <trkpt lat="45.52858" lon="3.41994">
        <ele>806</ele>
        <time>2012-10-21T08:25:56.000Z</time>
      </trkpt>
      <trkpt lat="45.52859" lon="3.41999">
        <ele>802</ele>
        <time>2012-10-21T08:25:58.000Z</time>
      </trkpt>
      <trkpt lat="45.5286" lon="3.42001">
        <ele>808</ele>
        <time>2012-10-21T08:25:59.000Z</time>
      </trkpt>
      <trkpt lat="45.52861" lon="3.42006">
        <ele>811</ele>
        <time>2012-10-21T08:26:01.000Z</time>
      </trkpt>
      <trkpt lat="45.52861" lon="3.42008">
        <ele>810</ele>
        <time>2012-10-21T08:26:02.000Z</time>
      </trkpt>
      <trkpt lat="45.52863" lon="3.42012">
        <ele>806</ele>
        <time>2012-10-21T08:26:04.000Z</time>
      </trkpt>
      <trkpt lat="45.52864" lon="3.42014">
        <ele>807</ele>
        <time>2012-10-21T08:26:05.000Z</time>
      </trkpt>
      <trkpt lat="45.52866" lon="3.42019">
        <ele>806</ele>
        <time>2012-10-21T08:26:07.000Z</time>
      </trkpt>
      <trkpt lat="45.52867" lon="3.42021">
        <ele>806</ele>
        <time>2012-10-21T08:26:08.000Z</time>
      </trkpt>
      <trkpt lat="45.52868" lon="3.42027">
        <ele>808</ele>
        <time>2012-10-21T08:26:10.000Z</time>
      </trkpt>
      <trkpt lat="45.52869" lon="3.4203">
        <ele>810</ele>
        <time>2012-10-21T08:26:11.000Z</time>
      </trkpt>
      <trkpt lat="45.5287" lon="3.42035">
        <ele>812</ele>
        <time>2012-10-21T08:26:13.000Z</time>
      </trkpt>
      <trkpt lat="45.52871" lon="3.42037">
        <ele>810</ele>
        <time>2012-10-21T08:26:14.000Z</time>
      </trkpt>
      <trkpt lat="45.52873" lon="3.42042">
        <ele>812</ele>
        <time>2012-10-21T08:26:16.000Z</time>
      </trkpt>
      <trkpt lat="45.52873" lon="3.42045">
        <ele>813</ele>
        <time>2012-10-21T08:26:17.000Z</time>
      </trkpt>
      <trkpt lat="45.52876" lon="3.4205">
        <ele>812</ele>
        <time>2012-10-21T08:26:19.000Z</time>
      </trkpt>
      <trkpt lat="45.52877" lon="3.42052">
        <ele>811</ele>
        <time>2012-10-21T08:26:20.000Z</time>
      </trkpt>
      <trkpt lat="45.5288" lon="3.42056">
        <ele>819</ele>
        <time>2012-10-21T08:26:22.000Z</time>
      </trkpt>
      <trkpt lat="45.52882" lon="3.42058">
        <ele>822</ele>
        <time>2012-10-21T08:26:23.000Z</time>
      </trkpt>
      <trkpt lat="45.52884" lon="3.42059">
        <ele>821</ele>
        <time>2012-10-21T08:26:24.000Z</time>
      </trkpt>
      <trkpt lat="45.52886" lon="3.4206">
        <ele>820</ele>
        <time>2012-10-21T08:26:25.000Z</time>
      </trkpt>
      <trkpt lat="45.5289" lon="3.42062">
        <ele>820</ele>
        <time>2012-10-21T08:26:27.000Z</time>
      </trkpt>
      <trkpt lat="45.52892" lon="3.42062">
        <ele>819</ele>
        <time>2012-10-21T08:26:28.000Z</time>
      </trkpt>
      <trkpt lat="45.52896" lon="3.42063">
        <ele>822</ele>
        <time>2012-10-21T08:26:30.000Z</time>
      </trkpt>
      <trkpt lat="45.52898" lon="3.42065">
        <ele>822</ele>
        <time>2012-10-21T08:26:31.000Z</time>
      </trkpt>
      <trkpt lat="45.52901" lon="3.42069">
        <ele>821</ele>
        <time>2012-10-21T08:26:34.000Z</time>
      </trkpt>
      <trkpt lat="45.52902" lon="3.4207">
        <ele>821</ele>
        <time>2012-10-21T08:26:35.000Z</time>
      </trkpt>
      <trkpt lat="45.52903" lon="3.42075">
        <ele>822</ele>
        <time>2012-10-21T08:26:38.000Z</time>
      </trkpt>
      <trkpt lat="45.52903" lon="3.42078">
        <ele>822</ele>
        <time>2012-10-21T08:26:39.000Z</time>
      </trkpt>
      <trkpt lat="45.529" lon="3.42082">
        <ele>823</ele>
        <time>2012-10-21T08:26:41.000Z</time>
      </trkpt>
      <trkpt lat="45.52899" lon="3.42083">
        <ele>821</ele>
        <time>2012-10-21T08:26:42.000Z</time>
      </trkpt>
      <trkpt lat="45.52897" lon="3.42088">
        <ele>823</ele>
        <time>2012-10-21T08:26:45.000Z</time>
      </trkpt>
      <trkpt lat="45.52896" lon="3.42089">
        <ele>823</ele>
        <time>2012-10-21T08:26:46.000Z</time>
      </trkpt>
      <trkpt lat="45.52894" lon="3.42094">
        <ele>824</ele>
        <time>2012-10-21T08:26:48.000Z</time>
      </trkpt>
      <trkpt lat="45.52893" lon="3.42096">
        <ele>824</ele>
        <time>2012-10-21T08:26:49.000Z</time>
      </trkpt>
      <trkpt lat="45.52891" lon="3.421">
        <ele>823</ele>
        <time>2012-10-21T08:26:52.000Z</time>
      </trkpt>
      <trkpt lat="45.5289" lon="3.42102">
        <ele>822</ele>
        <time>2012-10-21T08:26:53.000Z</time>
      </trkpt>
      <trkpt lat="45.52888" lon="3.42106">
        <ele>821</ele>
        <time>2012-10-21T08:26:55.000Z</time>
      </trkpt>
      <trkpt lat="45.52888" lon="3.42108">
        <ele>821</ele>
        <time>2012-10-21T08:26:56.000Z</time>
      </trkpt>
      <trkpt lat="45.52886" lon="3.42113">
        <ele>819</ele>
        <time>2012-10-21T08:26:58.000Z</time>
      </trkpt>
      <trkpt lat="45.52886" lon="3.42116">
        <ele>817</ele>
        <time>2012-10-21T08:26:59.000Z</time>
      </trkpt>
      <trkpt lat="45.52886" lon="3.4212">
        <ele>814</ele>
        <time>2012-10-21T08:27:01.000Z</time>
      </trkpt>
      <trkpt lat="45.52886" lon="3.42122">
        <ele>815</ele>
        <time>2012-10-21T08:27:02.000Z</time>
      </trkpt>
      <trkpt lat="45.52884" lon="3.42127">
        <ele>815</ele>
        <time>2012-10-21T08:27:04.000Z</time>
      </trkpt>
      <trkpt lat="45.52883" lon="3.4213">
        <ele>816</ele>
        <time>2012-10-21T08:27:05.000Z</time>
      </trkpt>
      <trkpt lat="45.52882" lon="3.42135">
        <ele>816</ele>
        <time>2012-10-21T08:27:07.000Z</time>
      </trkpt>
      <trkpt lat="45.52881" lon="3.42137">
        <ele>817</ele>
        <time>2012-10-21T08:27:08.000Z</time>
      </trkpt>
      <trkpt lat="45.52881" lon="3.42142">
        <ele>819</ele>
        <time>2012-10-21T08:27:10.000Z</time>
      </trkpt>
      <trkpt lat="45.5288" lon="3.42145">
        <ele>819</ele>
        <time>2012-10-21T08:27:11.000Z</time>
      </trkpt>
      <trkpt lat="45.5288" lon="3.4215">
        <ele>818</ele>
        <time>2012-10-21T08:27:13.000Z</time>
      </trkpt>
      <trkpt lat="45.52879" lon="3.42153">
        <ele>818</ele>
        <time>2012-10-21T08:27:14.000Z</time>
      </trkpt>
      <trkpt lat="45.52879" lon="3.42159">
        <ele>816</ele>
        <time>2012-10-21T08:27:16.000Z</time>
      </trkpt>
      <trkpt lat="45.52878" lon="3.42162">
        <ele>815</ele>
        <time>2012-10-21T08:27:17.000Z</time>
      </trkpt>
      <trkpt lat="45.52878" lon="3.42167">
        <ele>817</ele>
        <time>2012-10-21T08:27:19.000Z</time>
      </trkpt>
      <trkpt lat="45.52877" lon="3.42169">
        <ele>819</ele>
        <time>2012-10-21T08:27:20.000Z</time>
      </trkpt>
      <trkpt lat="45.52878" lon="3.42173">
        <ele>819</ele>
        <time>2012-10-21T08:27:22.000Z</time>
      </trkpt>
      <trkpt lat="45.52878" lon="3.42175">
        <ele>820</ele>
        <time>2012-10-21T08:27:23.000Z</time>
      </trkpt>
      <trkpt lat="45.52878" lon="3.42181">
        <ele>823</ele>
        <time>2012-10-21T08:27:26.000Z</time>
      </trkpt>
      <trkpt lat="45.52878" lon="3.42183">
        <ele>825</ele>
        <time>2012-10-21T08:27:27.000Z</time>
      </trkpt>
      <trkpt lat="45.52878" lon="3.42188">
        <ele>827</ele>
        <time>2012-10-21T08:27:30.000Z</time>
      </trkpt>
      <trkpt lat="45.52878" lon="3.4219">
        <ele>829</ele>
        <time>2012-10-21T08:27:31.000Z</time>
      </trkpt>
      <trkpt lat="45.52879" lon="3.42196">
        <ele>829</ele>
        <time>2012-10-21T08:27:34.000Z</time>
      </trkpt>
      <trkpt lat="45.52879" lon="3.42199">
        <ele>832</ele>
        <time>2012-10-21T08:27:35.000Z</time>
      </trkpt>
      <trkpt lat="45.5288" lon="3.42204">
        <ele>832</ele>
        <time>2012-10-21T08:27:37.000Z</time>
      </trkpt>
      <trkpt lat="45.5288" lon="3.42206">
        <ele>831</ele>
        <time>2012-10-21T08:27:38.000Z</time>
      </trkpt>
      <trkpt lat="45.52882" lon="3.42212">
        <ele>830</ele>
        <time>2012-10-21T08:27:40.000Z</time>
      </trkpt>
      <trkpt lat="45.52883" lon="3.42215">
        <ele>835</ele>
        <time>2012-10-21T08:27:41.000Z</time>
      </trkpt>
      <trkpt lat="45.52883" lon="3.42218">
        <ele>835</ele>
        <time>2012-10-21T08:27:42.000Z</time>
      </trkpt>
      <trkpt lat="45.52884" lon="3.42223">
        <ele>837</ele>
        <time>2012-10-21T08:27:44.000Z</time>
      </trkpt>
      <trkpt lat="45.52885" lon="3.42226">
        <ele>833</ele>
        <time>2012-10-21T08:27:45.000Z</time>
      </trkpt>
      <trkpt lat="45.52885" lon="3.42229">
        <ele>833</ele>
        <time>2012-10-21T08:27:46.000Z</time>
      </trkpt>
      <trkpt lat="45.52886" lon="3.42235">
        <ele>835</ele>
        <time>2012-10-21T08:27:48.000Z</time>
      </trkpt>
      <trkpt lat="45.52886" lon="3.42238">
        <ele>834</ele>
        <time>2012-10-21T08:27:49.000Z</time>
      </trkpt>
      <trkpt lat="45.52887" lon="3.42241">
        <ele>832</ele>
        <time>2012-10-21T08:27:50.000Z</time>
      </trkpt>
      <trkpt lat="45.52888" lon="3.42244">
        <ele>833</ele>
        <time>2012-10-21T08:27:51.000Z</time>
      </trkpt>
      <trkpt lat="45.52889" lon="3.4225">
        <ele>836</ele>
        <time>2012-10-21T08:27:53.000Z</time>
      </trkpt>
      <trkpt lat="45.52889" lon="3.42252">
        <ele>838</ele>
        <time>2012-10-21T08:27:54.000Z</time>
      </trkpt>
      <trkpt lat="45.5289" lon="3.42257">
        <ele>838</ele>
        <time>2012-10-21T08:27:56.000Z</time>
      </trkpt>
      <trkpt lat="45.52891" lon="3.4226">
        <ele>841</ele>
        <time>2012-10-21T08:27:57.000Z</time>
      </trkpt>
      <trkpt lat="45.52892" lon="3.42266">
        <ele>838</ele>
        <time>2012-10-21T08:27:59.000Z</time>
      </trkpt>
      <trkpt lat="45.52893" lon="3.42269">
        <ele>837</ele>
        <time>2012-10-21T08:28:00.000Z</time>
      </trkpt>
      <trkpt lat="45.52893" lon="3.42272">
        <ele>836</ele>
        <time>2012-10-21T08:28:01.000Z</time>
      </trkpt>
      <trkpt lat="45.52894" lon="3.42276">
        <ele>835</ele>
        <time>2012-10-21T08:28:02.000Z</time>
      </trkpt>
      <trkpt lat="45.52894" lon="3.42279">
        <ele>835</ele>
        <time>2012-10-21T08:28:03.000Z</time>
      </trkpt>
      <trkpt lat="45.52894" lon="3.42283">
        <ele>836</ele>
        <time>2012-10-21T08:28:04.000Z</time>
      </trkpt>
      <trkpt lat="45.52895" lon="3.42287">
        <ele>840</ele>
        <time>2012-10-21T08:28:05.000Z</time>
      </trkpt>
      <trkpt lat="45.52895" lon="3.4229">
        <ele>838</ele>
        <time>2012-10-21T08:28:06.000Z</time>
      </trkpt>
      <trkpt lat="45.52895" lon="3.42294">
        <ele>839</ele>
        <time>2012-10-21T08:28:07.000Z</time>
      </trkpt>
      <trkpt lat="45.52895" lon="3.42298">
        <ele>840</ele>
        <time>2012-10-21T08:28:08.000Z</time>
      </trkpt>
      <trkpt lat="45.52895" lon="3.42302">
        <ele>839</ele>
        <time>2012-10-21T08:28:09.000Z</time>
      </trkpt>
      <trkpt lat="45.52895" lon="3.42305">
        <ele>840</ele>
        <time>2012-10-21T08:28:10.000Z</time>
      </trkpt>
      <trkpt lat="45.52894" lon="3.42308">
        <ele>839</ele>
        <time>2012-10-21T08:28:11.000Z</time>
      </trkpt>
      <trkpt lat="45.52894" lon="3.42312">
        <ele>838</ele>
        <time>2012-10-21T08:28:12.000Z</time>
      </trkpt>
      <trkpt lat="45.52893" lon="3.42316">
        <ele>839</ele>
        <time>2012-10-21T08:28:13.000Z</time>
      </trkpt>
      <trkpt lat="45.52893" lon="3.4232">
        <ele>839</ele>
        <time>2012-10-21T08:28:14.000Z</time>
      </trkpt>
      <trkpt lat="45.52892" lon="3.42324">
        <ele>838</ele>
        <time>2012-10-21T08:28:15.000Z</time>
      </trkpt>
      <trkpt lat="45.52892" lon="3.42328">
        <ele>839</ele>
        <time>2012-10-21T08:28:16.000Z</time>
      </trkpt>
      <trkpt lat="45.52891" lon="3.42332">
        <ele>839</ele>
        <time>2012-10-21T08:28:17.000Z</time>
      </trkpt>
      <trkpt lat="45.52891" lon="3.42335">
        <ele>839</ele>
        <time>2012-10-21T08:28:18.000Z</time>
      </trkpt>
      <trkpt lat="45.52892" lon="3.42339">
        <ele>840</ele>
        <time>2012-10-21T08:28:19.000Z</time>
      </trkpt>
      <trkpt lat="45.52893" lon="3.42342">
        <ele>842</ele>
        <time>2012-10-21T08:28:20.000Z</time>
      </trkpt>
      <trkpt lat="45.52893" lon="3.42346">
        <ele>841</ele>
        <time>2012-10-21T08:28:21.000Z</time>
      </trkpt>
      <trkpt lat="45.52894" lon="3.4235">
        <ele>841</ele>
        <time>2012-10-21T08:28:22.000Z</time>
      </trkpt>
      <trkpt lat="45.52895" lon="3.42354">
        <ele>840</ele>
        <time>2012-10-21T08:28:23.000Z</time>
      </trkpt>
      <trkpt lat="45.52896" lon="3.42359">
        <ele>839</ele>
        <time>2012-10-21T08:28:24.000Z</time>
      </trkpt>
      <trkpt lat="45.52896" lon="3.42363">
        <ele>839</ele>
        <time>2012-10-21T08:28:25.000Z</time>
      </trkpt>
      <trkpt lat="45.52896" lon="3.42368">
        <ele>838</ele>
        <time>2012-10-21T08:28:26.000Z</time>
      </trkpt>
      <trkpt lat="45.52897" lon="3.42373">
        <ele>837</ele>
        <time>2012-10-21T08:28:27.000Z</time>
      </trkpt>
      <trkpt lat="45.52897" lon="3.42377">
        <ele>840</ele>
        <time>2012-10-21T08:28:28.000Z</time>
      </trkpt>
      <trkpt lat="45.52897" lon="3.42381">
        <ele>842</ele>
        <time>2012-10-21T08:28:29.000Z</time>
      </trkpt>
      <trkpt lat="45.52897" lon="3.42385">
        <ele>841</ele>
        <time>2012-10-21T08:28:30.000Z</time>
      </trkpt>
      <trkpt lat="45.52897" lon="3.42389">
        <ele>840</ele>
        <time>2012-10-21T08:28:31.000Z</time>
      </trkpt>
      <trkpt lat="45.52898" lon="3.42394">
        <ele>839</ele>
        <time>2012-10-21T08:28:32.000Z</time>
      </trkpt>
      <trkpt lat="45.52898" lon="3.42398">
        <ele>836</ele>
        <time>2012-10-21T08:28:33.000Z</time>
      </trkpt>
      <trkpt lat="45.52898" lon="3.42401">
        <ele>836</ele>
        <time>2012-10-21T08:28:34.000Z</time>
      </trkpt>
      <trkpt lat="45.52898" lon="3.42405">
        <ele>839</ele>
        <time>2012-10-21T08:28:35.000Z</time>
      </trkpt>
      <trkpt lat="45.52899" lon="3.42409">
        <ele>838</ele>
        <time>2012-10-21T08:28:36.000Z</time>
      </trkpt>
      <trkpt lat="45.52899" lon="3.42413">
        <ele>837</ele>
        <time>2012-10-21T08:28:37.000Z</time>
      </trkpt>
      <trkpt lat="45.529" lon="3.42418">
        <ele>835</ele>
        <time>2012-10-21T08:28:38.000Z</time>
      </trkpt>
      <trkpt lat="45.52901" lon="3.42423">
        <ele>834</ele>
        <time>2012-10-21T08:28:39.000Z</time>
      </trkpt>
      <trkpt lat="45.52901" lon="3.42427">
        <ele>834</ele>
        <time>2012-10-21T08:28:40.000Z</time>
      </trkpt>
      <trkpt lat="45.52902" lon="3.42431">
        <ele>836</ele>
        <time>2012-10-21T08:28:41.000Z</time>
      </trkpt>
      <trkpt lat="45.52903" lon="3.42434">
        <ele>840</ele>
        <time>2012-10-21T08:28:42.000Z</time>
      </trkpt>
      <trkpt lat="45.52905" lon="3.42442">
        <ele>846</ele>
        <time>2012-10-21T08:28:44.000Z</time>
      </trkpt>
      <trkpt lat="45.52906" lon="3.42446">
        <ele>845</ele>
        <time>2012-10-21T08:28:45.000Z</time>
      </trkpt>
      <trkpt lat="45.52907" lon="3.42449">
        <ele>845</ele>
        <time>2012-10-21T08:28:46.000Z</time>
      </trkpt>
      <trkpt lat="45.52908" lon="3.42453">
        <ele>843</ele>
        <time>2012-10-21T08:28:47.000Z</time>
      </trkpt>
      <trkpt lat="45.52909" lon="3.42457">
        <ele>845</ele>
        <time>2012-10-21T08:28:48.000Z</time>
      </trkpt>
      <trkpt lat="45.52911" lon="3.4246">
        <ele>843</ele>
        <time>2012-10-21T08:28:49.000Z</time>
      </trkpt>
      <trkpt lat="45.52912" lon="3.42465">
        <ele>841</ele>
        <time>2012-10-21T08:28:50.000Z</time>
      </trkpt>
      <trkpt lat="45.52913" lon="3.42468">
        <ele>839</ele>
        <time>2012-10-21T08:28:51.000Z</time>
      </trkpt>
      <trkpt lat="45.52914" lon="3.42473">
        <ele>838</ele>
        <time>2012-10-21T08:28:52.000Z</time>
      </trkpt>
      <trkpt lat="45.52916" lon="3.42478">
        <ele>842</ele>
        <time>2012-10-21T08:28:53.000Z</time>
      </trkpt>
      <trkpt lat="45.52918" lon="3.42482">
        <ele>842</ele>
        <time>2012-10-21T08:28:54.000Z</time>
      </trkpt>
      <trkpt lat="45.52919" lon="3.42486">
        <ele>843</ele>
        <time>2012-10-21T08:28:55.000Z</time>
      </trkpt>
      <trkpt lat="45.52921" lon="3.42491">
        <ele>844</ele>
        <time>2012-10-21T08:28:56.000Z</time>
      </trkpt>
      <trkpt lat="45.52923" lon="3.42495">
        <ele>844</ele>
        <time>2012-10-21T08:28:57.000Z</time>
      </trkpt>
      <trkpt lat="45.52925" lon="3.42499">
        <ele>844</ele>
        <time>2012-10-21T08:28:57.999Z</time>
      </trkpt>
      <trkpt lat="45.52927" lon="3.42503">
        <ele>844</ele>
        <time>2012-10-21T08:28:59.000Z</time>
      </trkpt>
      <trkpt lat="45.52929" lon="3.42507">
        <ele>842</ele>
        <time>2012-10-21T08:29:00.000Z</time>
      </trkpt>
      <trkpt lat="45.52931" lon="3.42511">
        <ele>841</ele>
        <time>2012-10-21T08:29:01.000Z</time>
      </trkpt>
      <trkpt lat="45.52933" lon="3.42516">
        <ele>843</ele>
        <time>2012-10-21T08:29:02.000Z</time>
      </trkpt>
      <trkpt lat="45.52934" lon="3.4252">
        <ele>843</ele>
        <time>2012-10-21T08:29:03.000Z</time>
      </trkpt>
      <trkpt lat="45.52936" lon="3.42524">
        <ele>844</ele>
        <time>2012-10-21T08:29:04.000Z</time>
      </trkpt>
      <trkpt lat="45.52938" lon="3.42528">
        <ele>843</ele>
        <time>2012-10-21T08:29:05.000Z</time>
      </trkpt>
      <trkpt lat="45.5294" lon="3.42532">
        <ele>845</ele>
        <time>2012-10-21T08:29:06.000Z</time>
      </trkpt>
      <trkpt lat="45.52941" lon="3.42536">
        <ele>846</ele>
        <time>2012-10-21T08:29:07.000Z</time>
      </trkpt>
      <trkpt lat="45.52943" lon="3.4254">
        <ele>846</ele>
        <time>2012-10-21T08:29:08.000Z</time>
      </trkpt>
      <trkpt lat="45.52944" lon="3.42544">
        <ele>846</ele>
        <time>2012-10-21T08:29:09.000Z</time>
      </trkpt>
      <trkpt lat="45.52946" lon="3.42548">
        <ele>846</ele>
        <time>2012-10-21T08:29:10.000Z</time>
      </trkpt>
      <trkpt lat="45.52947" lon="3.42551">
        <ele>851</ele>
        <time>2012-10-21T08:29:11.000Z</time>
      </trkpt>
      <trkpt lat="45.52948" lon="3.42554">
        <ele>849</ele>
        <time>2012-10-21T08:29:12.000Z</time>
      </trkpt>
      <trkpt lat="45.52949" lon="3.42557">
        <ele>849</ele>
        <time>2012-10-21T08:29:13.000Z</time>
      </trkpt>
      <trkpt lat="45.5295" lon="3.42561">
        <ele>850</ele>
        <time>2012-10-21T08:29:14.000Z</time>
      </trkpt>
      <trkpt lat="45.52951" lon="3.42565">
        <ele>849</ele>
        <time>2012-10-21T08:29:15.000Z</time>
      </trkpt>
      <trkpt lat="45.52951" lon="3.4257">
        <ele>848</ele>
        <time>2012-10-21T08:29:16.000Z</time>
      </trkpt>
      <trkpt lat="45.52952" lon="3.42574">
        <ele>853</ele>
        <time>2012-10-21T08:29:17.000Z</time>
      </trkpt>
      <trkpt lat="45.52953" lon="3.42577">
        <ele>854</ele>
        <time>2012-10-21T08:29:18.000Z</time>
      </trkpt>
      <trkpt lat="45.52953" lon="3.42581">
        <ele>854</ele>
        <time>2012-10-21T08:29:19.000Z</time>
      </trkpt>
      <trkpt lat="45.52954" lon="3.42584">
        <ele>852</ele>
        <time>2012-10-21T08:29:20.000Z</time>
      </trkpt>
      <trkpt lat="45.52954" lon="3.4259">
        <ele>851</ele>
        <time>2012-10-21T08:29:22.000Z</time>
      </trkpt>
      <trkpt lat="45.52955" lon="3.42593">
        <ele>858</ele>
        <time>2012-10-21T08:29:23.000Z</time>
      </trkpt>
      <trkpt lat="45.52955" lon="3.42598">
        <ele>861</ele>
        <time>2012-10-21T08:29:25.000Z</time>
      </trkpt>
      <trkpt lat="45.52956" lon="3.42601">
        <ele>856</ele>
        <time>2012-10-21T08:29:26.000Z</time>
      </trkpt>
      <trkpt lat="45.52956" lon="3.42606">
        <ele>857</ele>
        <time>2012-10-21T08:29:28.000Z</time>
      </trkpt>
      <trkpt lat="45.52956" lon="3.42608">
        <ele>856</ele>
        <time>2012-10-21T08:29:29.000Z</time>
      </trkpt>
      <trkpt lat="45.52957" lon="3.42613">
        <ele>856</ele>
        <time>2012-10-21T08:29:31.000Z</time>
      </trkpt>
      <trkpt lat="45.52958" lon="3.42616">
        <ele>853</ele>
        <time>2012-10-21T08:29:32.000Z</time>
      </trkpt>
      <trkpt lat="45.52958" lon="3.42619">
        <ele>853</ele>
        <time>2012-10-21T08:29:33.000Z</time>
      </trkpt>
      <trkpt lat="45.52959" lon="3.42623">
        <ele>854</ele>
        <time>2012-10-21T08:29:34.000Z</time>
      </trkpt>
      <trkpt lat="45.52959" lon="3.42627">
        <ele>852</ele>
        <time>2012-10-21T08:29:35.000Z</time>
      </trkpt>
      <trkpt lat="45.5296" lon="3.42631">
        <ele>851</ele>
        <time>2012-10-21T08:29:36.000Z</time>
      </trkpt>
      <trkpt lat="45.52961" lon="3.42636">
        <ele>849</ele>
        <time>2012-10-21T08:29:37.000Z</time>
      </trkpt>
      <trkpt lat="45.52962" lon="3.4264">
        <ele>849</ele>
        <time>2012-10-21T08:29:38.000Z</time>
      </trkpt>
      <trkpt lat="45.52963" lon="3.42645">
        <ele>847</ele>
        <time>2012-10-21T08:29:39.000Z</time>
      </trkpt>
      <trkpt lat="45.52964" lon="3.42649">
        <ele>846</ele>
        <time>2012-10-21T08:29:40.000Z</time>
      </trkpt>
      <trkpt lat="45.52965" lon="3.42653">
        <ele>846</ele>
        <time>2012-10-21T08:29:41.000Z</time>
      </trkpt>
      <trkpt lat="45.52966" lon="3.42657">
        <ele>844</ele>
        <time>2012-10-21T08:29:42.000Z</time>
      </trkpt>
      <trkpt lat="45.52968" lon="3.42668">
        <ele>844</ele>
        <time>2012-10-21T08:29:44.000Z</time>
      </trkpt>
      <trkpt lat="45.52968" lon="3.42674">
        <ele>845</ele>
        <time>2012-10-21T08:29:45.000Z</time>
      </trkpt>
      <trkpt lat="45.52968" lon="3.42679">
        <ele>842</ele>
        <time>2012-10-21T08:29:46.000Z</time>
      </trkpt>
      <trkpt lat="45.52966" lon="3.42685">
        <ele>842</ele>
        <time>2012-10-21T08:29:47.000Z</time>
      </trkpt>
      <trkpt lat="45.52964" lon="3.42691">
        <ele>849</ele>
        <time>2012-10-21T08:29:48.000Z</time>
      </trkpt>
      <trkpt lat="45.52962" lon="3.42698">
        <ele>846</ele>
        <time>2012-10-21T08:29:49.000Z</time>
      </trkpt>
      <trkpt lat="45.52959" lon="3.42704">
        <ele>845</ele>
        <time>2012-10-21T08:29:50.000Z</time>
      </trkpt>
      <trkpt lat="45.52956" lon="3.42711">
        <ele>844</ele>
        <time>2012-10-21T08:29:51.000Z</time>
      </trkpt>
      <trkpt lat="45.52953" lon="3.42719">
        <ele>843</ele>
        <time>2012-10-21T08:29:52.000Z</time>
      </trkpt>
      <trkpt lat="45.5295" lon="3.42728">
        <ele>844</ele>
        <time>2012-10-21T08:29:53.000Z</time>
      </trkpt>
      <trkpt lat="45.52946" lon="3.42737">
        <ele>841</ele>
        <time>2012-10-21T08:29:54.000Z</time>
      </trkpt>
      <trkpt lat="45.52942" lon="3.42746">
        <ele>842</ele>
        <time>2012-10-21T08:29:55.000Z</time>
      </trkpt>
      <trkpt lat="45.52939" lon="3.42755">
        <ele>843</ele>
        <time>2012-10-21T08:29:56.000Z</time>
      </trkpt>
      <trkpt lat="45.52936" lon="3.42764">
        <ele>843</ele>
        <time>2012-10-21T08:29:57.000Z</time>
      </trkpt>
      <trkpt lat="45.52933" lon="3.42774">
        <ele>844</ele>
        <time>2012-10-21T08:29:58.000Z</time>
      </trkpt>
      <trkpt lat="45.52931" lon="3.42784">
        <ele>845</ele>
        <time>2012-10-21T08:29:59.000Z</time>
      </trkpt>
      <trkpt lat="45.52929" lon="3.42797">
        <ele>845</ele>
        <time>2012-10-21T08:30:00.000Z</time>
      </trkpt>
      <trkpt lat="45.52927" lon="3.42808">
        <ele>845</ele>
        <time>2012-10-21T08:30:01.000Z</time>
      </trkpt>
      <trkpt lat="45.52926" lon="3.42818">
        <ele>843</ele>
        <time>2012-10-21T08:30:02.000Z</time>
      </trkpt>
      <trkpt lat="45.52924" lon="3.42828">
        <ele>839</ele>
        <time>2012-10-21T08:30:03.000Z</time>
      </trkpt>
      <trkpt lat="45.52923" lon="3.42839">
        <ele>838</ele>
        <time>2012-10-21T08:30:04.000Z</time>
      </trkpt>
      <trkpt lat="45.52922" lon="3.4285">
        <ele>840</ele>
        <time>2012-10-21T08:30:05.000Z</time>
      </trkpt>
      <trkpt lat="45.52921" lon="3.42861">
        <ele>839</ele>
        <time>2012-10-21T08:30:06.000Z</time>
      </trkpt>
      <trkpt lat="45.52921" lon="3.42872">
        <ele>837</ele>
        <time>2012-10-21T08:30:07.000Z</time>
      </trkpt>
      <trkpt lat="45.52921" lon="3.42884">
        <ele>840</ele>
        <time>2012-10-21T08:30:08.000Z</time>
      </trkpt>
      <trkpt lat="45.52921" lon="3.42896">
        <ele>841</ele>
        <time>2012-10-21T08:30:09.000Z</time>
      </trkpt>
      <trkpt lat="45.52921" lon="3.42908">
        <ele>838</ele>
        <time>2012-10-21T08:30:10.000Z</time>
      </trkpt>
      <trkpt lat="45.52922" lon="3.42919">
        <ele>836</ele>
        <time>2012-10-21T08:30:11.000Z</time>
      </trkpt>
      <trkpt lat="45.52922" lon="3.4293">
        <ele>831</ele>
        <time>2012-10-21T08:30:12.000Z</time>
      </trkpt>
      <trkpt lat="45.52922" lon="3.42942">
        <ele>833</ele>
        <time>2012-10-21T08:30:13.000Z</time>
      </trkpt>
      <trkpt lat="45.52923" lon="3.42953">
        <ele>832</ele>
        <time>2012-10-21T08:30:14.000Z</time>
      </trkpt>
      <trkpt lat="45.52924" lon="3.42965">
        <ele>832</ele>
        <time>2012-10-21T08:30:15.000Z</time>
      </trkpt>
      <trkpt lat="45.52924" lon="3.42976">
        <ele>829</ele>
        <time>2012-10-21T08:30:16.000Z</time>
      </trkpt>
      <trkpt lat="45.52923" lon="3.42989">
        <ele>829</ele>
        <time>2012-10-21T08:30:17.000Z</time>
      </trkpt>
      <trkpt lat="45.5292" lon="3.43">
        <ele>826</ele>
        <time>2012-10-21T08:30:18.000Z</time>
      </trkpt>
      <trkpt lat="45.52915" lon="3.43011">
        <ele>828</ele>
        <time>2012-10-21T08:30:19.000Z</time>
      </trkpt>
      <trkpt lat="45.52911" lon="3.43022">
        <ele>829</ele>
        <time>2012-10-21T08:30:20.000Z</time>
      </trkpt>
      <trkpt lat="45.52907" lon="3.43033">
        <ele>829</ele>
        <time>2012-10-21T08:30:21.000Z</time>
      </trkpt>
      <trkpt lat="45.52903" lon="3.43043">
        <ele>829</ele>
        <time>2012-10-21T08:30:22.000Z</time>
      </trkpt>
      <trkpt lat="45.52899" lon="3.43053">
        <ele>828</ele>
        <time>2012-10-21T08:30:23.000Z</time>
      </trkpt>
      <trkpt lat="45.52896" lon="3.43062">
        <ele>826</ele>
        <time>2012-10-21T08:30:24.000Z</time>
      </trkpt>
      <trkpt lat="45.52892" lon="3.43072">
        <ele>829</ele>
        <time>2012-10-21T08:30:25.000Z</time>
      </trkpt>
      <trkpt lat="45.52889" lon="3.43079">
        <ele>829</ele>
        <time>2012-10-21T08:30:26.000Z</time>
      </trkpt>
      <trkpt lat="45.52887" lon="3.43086">
        <ele>827</ele>
        <time>2012-10-21T08:30:27.000Z</time>
      </trkpt>
      <trkpt lat="45.52883" lon="3.43092">
        <ele>824</ele>
        <time>2012-10-21T08:30:28.000Z</time>
      </trkpt>
      <trkpt lat="45.52881" lon="3.43099">
        <ele>824</ele>
        <time>2012-10-21T08:30:29.000Z</time>
      </trkpt>
      <trkpt lat="45.52878" lon="3.43103">
        <ele>825</ele>
        <time>2012-10-21T08:30:30.000Z</time>
      </trkpt>
      <trkpt lat="45.52875" lon="3.43108">
        <ele>827</ele>
        <time>2012-10-21T08:30:31.000Z</time>
      </trkpt>
      <trkpt lat="45.52872" lon="3.43113">
        <ele>828</ele>
        <time>2012-10-21T08:30:32.000Z</time>
      </trkpt>
      <trkpt lat="45.5287" lon="3.43118">
        <ele>827</ele>
        <time>2012-10-21T08:30:33.000Z</time>
      </trkpt>
      <trkpt lat="45.52868" lon="3.43125">
        <ele>823</ele>
        <time>2012-10-21T08:30:34.000Z</time>
      </trkpt>
      <trkpt lat="45.52865" lon="3.43132">
        <ele>822</ele>
        <time>2012-10-21T08:30:35.000Z</time>
      </trkpt>
      <trkpt lat="45.52863" lon="3.43138">
        <ele>823</ele>
        <time>2012-10-21T08:30:36.000Z</time>
      </trkpt>
      <trkpt lat="45.52859" lon="3.43145">
        <ele>826</ele>
        <time>2012-10-21T08:30:37.000Z</time>
      </trkpt>
      <trkpt lat="45.52855" lon="3.43151">
        <ele>827</ele>
        <time>2012-10-21T08:30:38.000Z</time>
      </trkpt>
      <trkpt lat="45.5285" lon="3.43156">
        <ele>823</ele>
        <time>2012-10-21T08:30:39.000Z</time>
      </trkpt>
      <trkpt lat="45.52844" lon="3.43161">
        <ele>822</ele>
        <time>2012-10-21T08:30:40.000Z</time>
      </trkpt>
      <trkpt lat="45.52838" lon="3.43165">
        <ele>821</ele>
        <time>2012-10-21T08:30:41.000Z</time>
      </trkpt>
      <trkpt lat="45.52833" lon="3.43171">
        <ele>823</ele>
        <time>2012-10-21T08:30:42.000Z</time>
      </trkpt>
      <trkpt lat="45.52827" lon="3.43176">
        <ele>823</ele>
        <time>2012-10-21T08:30:43.000Z</time>
      </trkpt>
      <trkpt lat="45.5282" lon="3.43182">
        <ele>822</ele>
        <time>2012-10-21T08:30:44.000Z</time>
      </trkpt>
      <trkpt lat="45.52814" lon="3.43186">
        <ele>825</ele>
        <time>2012-10-21T08:30:45.000Z</time>
      </trkpt>
      <trkpt lat="45.52807" lon="3.43188">
        <ele>824</ele>
        <time>2012-10-21T08:30:46.000Z</time>
      </trkpt>
      <trkpt lat="45.52799" lon="3.43188">
        <ele>818</ele>
        <time>2012-10-21T08:30:47.000Z</time>
      </trkpt>
      <trkpt lat="45.52792" lon="3.43186">
        <ele>817</ele>
        <time>2012-10-21T08:30:48.000Z</time>
      </trkpt>
      <trkpt lat="45.52785" lon="3.43184">
        <ele>817</ele>
        <time>2012-10-21T08:30:49.000Z</time>
      </trkpt>
      <trkpt lat="45.52777" lon="3.43182">
        <ele>821</ele>
        <time>2012-10-21T08:30:50.000Z</time>
      </trkpt>
      <trkpt lat="45.52768" lon="3.43178">
        <ele>820</ele>
        <time>2012-10-21T08:30:51.000Z</time>
      </trkpt>
      <trkpt lat="45.52761" lon="3.43172">
        <ele>818</ele>
        <time>2012-10-21T08:30:52.000Z</time>
      </trkpt>
      <trkpt lat="45.52752" lon="3.43168">
        <ele>821</ele>
        <time>2012-10-21T08:30:53.000Z</time>
      </trkpt>
      <trkpt lat="45.52744" lon="3.43165">
        <ele>819</ele>
        <time>2012-10-21T08:30:54.000Z</time>
      </trkpt>
      <trkpt lat="45.52736" lon="3.43169">
        <ele>818</ele>
        <time>2012-10-21T08:30:55.000Z</time>
      </trkpt>
      <trkpt lat="45.52728" lon="3.43173">
        <ele>817</ele>
        <time>2012-10-21T08:30:56.000Z</time>
      </trkpt>
      <trkpt lat="45.5272" lon="3.43177">
        <ele>824</ele>
        <time>2012-10-21T08:30:57.000Z</time>
      </trkpt>
      <trkpt lat="45.52713" lon="3.43181">
        <ele>820</ele>
        <time>2012-10-21T08:30:58.000Z</time>
      </trkpt>
      <trkpt lat="45.52706" lon="3.43183">
        <ele>820</ele>
        <time>2012-10-21T08:30:59.000Z</time>
      </trkpt>
      <trkpt lat="45.52699" lon="3.43186">
        <ele>822</ele>
        <time>2012-10-21T08:31:00.000Z</time>
      </trkpt>
      <trkpt lat="45.52692" lon="3.43187">
        <ele>821</ele>
        <time>2012-10-21T08:31:01.000Z</time>
      </trkpt>
      <trkpt lat="45.52687" lon="3.43188">
        <ele>822</ele>
        <time>2012-10-21T08:31:02.000Z</time>
      </trkpt>
      <trkpt lat="45.52673" lon="3.43186">
        <ele>829</ele>
        <time>2012-10-21T08:31:05.000Z</time>
      </trkpt>
      <trkpt lat="45.52665" lon="3.43185">
        <ele>829</ele>
        <time>2012-10-21T08:31:06.000Z</time>
      </trkpt>
      <trkpt lat="45.52657" lon="3.43185">
        <ele>827</ele>
        <time>2012-10-21T08:31:07.000Z</time>
      </trkpt>
      <trkpt lat="45.5265" lon="3.43185">
        <ele>823</ele>
        <time>2012-10-21T08:31:08.000Z</time>
      </trkpt>
      <trkpt lat="45.52641" lon="3.43185">
        <ele>826</ele>
        <time>2012-10-21T08:31:09.000Z</time>
      </trkpt>
      <trkpt lat="45.52633" lon="3.43187">
        <ele>828</ele>
        <time>2012-10-21T08:31:10.000Z</time>
      </trkpt>
      <trkpt lat="45.52626" lon="3.4319">
        <ele>828</ele>
        <time>2012-10-21T08:31:11.000Z</time>
      </trkpt>
      <trkpt lat="45.5262" lon="3.43193">
        <ele>826</ele>
        <time>2012-10-21T08:31:12.000Z</time>
      </trkpt>
      <trkpt lat="45.52614" lon="3.43197">
        <ele>825</ele>
        <time>2012-10-21T08:31:13.000Z</time>
      </trkpt>
      <trkpt lat="45.52608" lon="3.432">
        <ele>824</ele>
        <time>2012-10-21T08:31:14.000Z</time>
      </trkpt>
      <trkpt lat="45.52602" lon="3.43204">
        <ele>826</ele>
        <time>2012-10-21T08:31:15.000Z</time>
      </trkpt>
      <trkpt lat="45.52597" lon="3.43207">
        <ele>820</ele>
        <time>2012-10-21T08:31:16.000Z</time>
      </trkpt>
      <trkpt lat="45.52591" lon="3.43211">
        <ele>821</ele>
        <time>2012-10-21T08:31:17.000Z</time>
      </trkpt>
      <trkpt lat="45.52581" lon="3.43218">
        <ele>829</ele>
        <time>2012-10-21T08:31:20.000Z</time>
      </trkpt>
      <trkpt lat="45.52577" lon="3.43221">
        <ele>828</ele>
        <time>2012-10-21T08:31:21.000Z</time>
      </trkpt>
      <trkpt lat="45.52573" lon="3.43224">
        <ele>828</ele>
        <time>2012-10-21T08:31:27.000Z</time>
      </trkpt>
      <trkpt lat="45.52572" lon="3.43238">
        <ele>822</ele>
        <time>2012-10-21T08:31:28.000Z</time>
      </trkpt>
      <trkpt lat="45.52577" lon="3.43249">
        <ele>817</ele>
        <time>2012-10-21T08:31:32.000Z</time>
      </trkpt>
      <trkpt lat="45.52581" lon="3.43263">
        <ele>822</ele>
        <time>2012-10-21T08:31:38.000Z</time>
      </trkpt>
      <trkpt lat="45.52581" lon="3.43276">
        <ele>831</ele>
        <time>2012-10-21T08:31:44.000Z</time>
      </trkpt>
      <trkpt lat="45.52576" lon="3.43288">
        <ele>821</ele>
        <time>2012-10-21T08:31:55.000Z</time>
      </trkpt>
      <trkpt lat="45.52566" lon="3.43292">
        <ele>817</ele>
        <time>2012-10-21T08:32:03.000Z</time>
      </trkpt>
      <trkpt lat="45.52557" lon="3.43291">
        <ele>824</ele>
        <time>2012-10-21T08:32:10.000Z</time>
      </trkpt>
      <trkpt lat="45.52548" lon="3.43288">
        <ele>824</ele>
        <time>2012-10-21T08:32:16.000Z</time>
      </trkpt>
      <trkpt lat="45.52538" lon="3.43286">
        <ele>840</ele>
        <time>2012-10-21T08:32:22.000Z</time>
      </trkpt>
      <trkpt lat="45.52529" lon="3.43286">
        <ele>831</ele>
        <time>2012-10-21T08:32:28.000Z</time>
      </trkpt>
      <trkpt lat="45.5252" lon="3.43287">
        <ele>839</ele>
        <time>2012-10-21T08:32:32.000Z</time>
      </trkpt>
      <trkpt lat="45.52518" lon="3.43288">
        <ele>838</ele>
        <time>2012-10-21T08:32:37.000Z</time>
      </trkpt>
      <trkpt lat="45.52507" lon="3.43291">
        <ele>837</ele>
        <time>2012-10-21T08:32:38.000Z</time>
      </trkpt>
      <trkpt lat="45.52497" lon="3.43293">
        <ele>833</ele>
        <time>2012-10-21T08:32:43.000Z</time>
      </trkpt>
      <trkpt lat="45.52488" lon="3.43298">
        <ele>836</ele>
        <time>2012-10-21T08:32:48.000Z</time>
      </trkpt>
      <trkpt lat="45.5248" lon="3.43305">
        <ele>840</ele>
        <time>2012-10-21T08:32:54.000Z</time>
      </trkpt>
      <trkpt lat="45.5247" lon="3.4331">
        <ele>839</ele>
        <time>2012-10-21T08:33:01.000Z</time>
      </trkpt>
      <trkpt lat="45.52464" lon="3.4332">
        <ele>846</ele>
        <time>2012-10-21T08:33:07.000Z</time>
      </trkpt>
      <trkpt lat="45.52458" lon="3.4333">
        <ele>849</ele>
        <time>2012-10-21T08:33:13.000Z</time>
      </trkpt>
      <trkpt lat="45.52451" lon="3.43339">
        <ele>843</ele>
        <time>2012-10-21T08:33:19.000Z</time>
      </trkpt>
      <trkpt lat="45.52441" lon="3.43347">
        <ele>850</ele>
        <time>2012-10-21T08:33:26.000Z</time>
      </trkpt>
      <trkpt lat="45.52432" lon="3.43354">
        <ele>857</ele>
        <time>2012-10-21T08:33:31.000Z</time>
      </trkpt>
      <trkpt lat="45.52423" lon="3.4336">
        <ele>863</ele>
        <time>2012-10-21T08:33:37.000Z</time>
      </trkpt>
      <trkpt lat="45.52415" lon="3.43367">
        <ele>869</ele>
        <time>2012-10-21T08:33:53.000Z</time>
      </trkpt>
      <trkpt lat="45.52405" lon="3.43365">
        <ele>875</ele>
        <time>2012-10-21T08:34:15.000Z</time>
      </trkpt>
      <trkpt lat="45.52394" lon="3.43365">
        <ele>863</ele>
        <time>2012-10-21T08:34:38.000Z</time>
      </trkpt>
      <trkpt lat="45.52384" lon="3.43368">
        <ele>862</ele>
        <time>2012-10-21T08:34:42.000Z</time>
      </trkpt>
      <trkpt lat="45.52375" lon="3.43373">
        <ele>854</ele>
        <time>2012-10-21T08:34:48.000Z</time>
      </trkpt>
      <trkpt lat="45.52366" lon="3.4338">
        <ele>862</ele>
        <time>2012-10-21T08:34:53.000Z</time>
      </trkpt>
      <trkpt lat="45.52355" lon="3.43386">
        <ele>858</ele>
        <time>2012-10-21T08:34:56.000Z</time>
      </trkpt>
      <trkpt lat="45.52343" lon="3.43391">
        <ele>844</ele>
        <time>2012-10-21T08:34:59.000Z</time>
      </trkpt>
      <trkpt lat="45.52331" lon="3.43395">
        <ele>855</ele>
        <time>2012-10-21T08:35:02.000Z</time>
      </trkpt>
      <trkpt lat="45.52323" lon="3.43398">
        <ele>857</ele>
        <time>2012-10-21T08:35:04.000Z</time>
      </trkpt>
      <trkpt lat="45.52312" lon="3.43402">
        <ele>851</ele>
        <time>2012-10-21T08:35:07.000Z</time>
      </trkpt>
      <trkpt lat="45.52301" lon="3.43406">
        <ele>846</ele>
        <time>2012-10-21T08:35:11.000Z</time>
      </trkpt>
      <trkpt lat="45.52291" lon="3.4341">
        <ele>841</ele>
        <time>2012-10-21T08:35:15.000Z</time>
      </trkpt>
      <trkpt lat="45.5228" lon="3.43415">
        <ele>843</ele>
        <time>2012-10-21T08:35:19.000Z</time>
      </trkpt>
      <trkpt lat="45.52271" lon="3.43422">
        <ele>845</ele>
        <time>2012-10-21T08:35:23.000Z</time>
      </trkpt>
      <trkpt lat="45.52263" lon="3.43411">
        <ele>826</ele>
        <time>2012-10-21T08:35:35.000Z</time>
      </trkpt>
      <trkpt lat="45.52255" lon="3.43405">
        <ele>819</ele>
        <time>2012-10-21T08:35:43.000Z</time>
      </trkpt>
      <trkpt lat="45.52246" lon="3.43402">
        <ele>818</ele>
        <time>2012-10-21T08:35:52.000Z</time>
      </trkpt>
      <trkpt lat="45.5224" lon="3.43414">
        <ele>797</ele>
        <time>2012-10-21T08:35:57.000Z</time>
      </trkpt>
      <trkpt lat="45.52238" lon="3.43428">
        <ele>836</ele>
        <time>2012-10-21T08:36:03.000Z</time>
      </trkpt>
      <trkpt lat="45.5223" lon="3.43434">
        <ele>840</ele>
        <time>2012-10-21T08:36:12.000Z</time>
      </trkpt>
      <trkpt lat="45.52226" lon="3.43433">
        <ele>852</ele>
        <time>2012-10-21T08:36:21.000Z</time>
      </trkpt>
      <trkpt lat="45.52225" lon="3.43433">
        <ele>854</ele>
        <time>2012-10-21T08:36:22.000Z</time>
      </trkpt>
      <trkpt lat="45.52221" lon="3.43433">
        <ele>855</ele>
        <time>2012-10-21T08:36:24.000Z</time>
      </trkpt>
      <trkpt lat="45.52219" lon="3.43432">
        <ele>856</ele>
        <time>2012-10-21T08:36:25.000Z</time>
      </trkpt>
      <trkpt lat="45.52217" lon="3.4343">
        <ele>858</ele>
        <time>2012-10-21T08:36:31.000Z</time>
      </trkpt>
      <trkpt lat="45.52215" lon="3.43427">
        <ele>859</ele>
        <time>2012-10-21T08:36:32.000Z</time>
      </trkpt>
      <trkpt lat="45.52212" lon="3.43423">
        <ele>859</ele>
        <time>2012-10-21T08:36:34.000Z</time>
      </trkpt>
      <trkpt lat="45.5221" lon="3.43422">
        <ele>860</ele>
        <time>2012-10-21T08:36:35.000Z</time>
      </trkpt>
      <trkpt lat="45.52208" lon="3.43417">
        <ele>874</ele>
        <time>2012-10-21T08:36:40.000Z</time>
      </trkpt>
      <trkpt lat="45.52208" lon="3.43416">
        <ele>866</ele>
        <time>2012-10-21T08:36:41.000Z</time>
      </trkpt>
      <trkpt lat="45.52206" lon="3.43411">
        <ele>866</ele>
        <time>2012-10-21T08:36:43.000Z</time>
      </trkpt>
      <trkpt lat="45.52206" lon="3.43409">
        <ele>862</ele>
        <time>2012-10-21T08:36:44.000Z</time>
      </trkpt>
      <trkpt lat="45.52206" lon="3.43406">
        <ele>873</ele>
        <time>2012-10-21T08:36:50.000Z</time>
      </trkpt>
      <trkpt lat="45.52205" lon="3.43403">
        <ele>875</ele>
        <time>2012-10-21T08:36:51.000Z</time>
      </trkpt>
      <trkpt lat="45.52202" lon="3.43399">
        <ele>872</ele>
        <time>2012-10-21T08:36:56.000Z</time>
      </trkpt>
      <trkpt lat="45.522" lon="3.43396">
        <ele>876</ele>
        <time>2012-10-21T08:36:57.000Z</time>
      </trkpt>
      <trkpt lat="45.52197" lon="3.43392">
        <ele>880</ele>
        <time>2012-10-21T08:37:00.000Z</time>
      </trkpt>
      <trkpt lat="45.52196" lon="3.43391">
        <ele>880</ele>
        <time>2012-10-21T08:37:01.000Z</time>
      </trkpt>
      <trkpt lat="45.52193" lon="3.43388">
        <ele>879</ele>
        <time>2012-10-21T08:37:04.000Z</time>
      </trkpt>
      <trkpt lat="45.52192" lon="3.43386">
        <ele>879</ele>
        <time>2012-10-21T08:37:05.000Z</time>
      </trkpt>
      <trkpt lat="45.52189" lon="3.43384">
        <ele>874</ele>
        <time>2012-10-21T08:37:07.000Z</time>
      </trkpt>
      <trkpt lat="45.52188" lon="3.43382">
        <ele>879</ele>
        <time>2012-10-21T08:37:08.000Z</time>
      </trkpt>
      <trkpt lat="45.52185" lon="3.43378">
        <ele>870</ele>
        <time>2012-10-21T08:37:12.000Z</time>
      </trkpt>
      <trkpt lat="45.52184" lon="3.43376">
        <ele>872</ele>
        <time>2012-10-21T08:37:13.000Z</time>
      </trkpt>
      <trkpt lat="45.5218" lon="3.43373">
        <ele>872</ele>
        <time>2012-10-21T08:37:15.000Z</time>
      </trkpt>
      <trkpt lat="45.52179" lon="3.43372">
        <ele>874</ele>
        <time>2012-10-21T08:37:16.000Z</time>
      </trkpt>
      <trkpt lat="45.52175" lon="3.43369">
        <ele>875</ele>
        <time>2012-10-21T08:37:18.000Z</time>
      </trkpt>
      <trkpt lat="45.52172" lon="3.43369">
        <ele>877</ele>
        <time>2012-10-21T08:37:19.000Z</time>
      </trkpt>
      <trkpt lat="45.5217" lon="3.43368">
        <ele>876</ele>
        <time>2012-10-21T08:37:22.000Z</time>
      </trkpt>
      <trkpt lat="45.52166" lon="3.43366">
        <ele>883</ele>
        <time>2012-10-21T08:37:23.000Z</time>
      </trkpt>
      <trkpt lat="45.52163" lon="3.43365">
        <ele>887</ele>
        <time>2012-10-21T08:37:24.000Z</time>
      </trkpt>
      <trkpt lat="45.52161" lon="3.43364">
        <ele>890</ele>
        <time>2012-10-21T08:37:25.000Z</time>
      </trkpt>
      <trkpt lat="45.52158" lon="3.43363">
        <ele>891</ele>
        <time>2012-10-21T08:37:26.000Z</time>
      </trkpt>
      <trkpt lat="45.52155" lon="3.43362">
        <ele>889</ele>
        <time>2012-10-21T08:37:27.000Z</time>
      </trkpt>
      <trkpt lat="45.52153" lon="3.43361">
        <ele>887</ele>
        <time>2012-10-21T08:37:28.000Z</time>
      </trkpt>
      <trkpt lat="45.52151" lon="3.43361">
        <ele>886</ele>
        <time>2012-10-21T08:37:29.000Z</time>
      </trkpt>
      <trkpt lat="45.52147" lon="3.43361">
        <ele>890</ele>
        <time>2012-10-21T08:37:31.000Z</time>
      </trkpt>
      <trkpt lat="45.52145" lon="3.43361">
        <ele>891</ele>
        <time>2012-10-21T08:37:32.000Z</time>
      </trkpt>
      <trkpt lat="45.5214" lon="3.4336">
        <ele>890</ele>
        <time>2012-10-21T08:37:35.000Z</time>
      </trkpt>
      <trkpt lat="45.52139" lon="3.43359">
        <ele>893</ele>
        <time>2012-10-21T08:37:36.000Z</time>
      </trkpt>
      <trkpt lat="45.52135" lon="3.43356">
        <ele>898</ele>
        <time>2012-10-21T08:37:39.000Z</time>
      </trkpt>
      <trkpt lat="45.52133" lon="3.43355">
        <ele>895</ele>
        <time>2012-10-21T08:37:40.000Z</time>
      </trkpt>
      <trkpt lat="45.5213" lon="3.43352">
        <ele>889</ele>
        <time>2012-10-21T08:37:43.000Z</time>
      </trkpt>
      <trkpt lat="45.52128" lon="3.43351">
        <ele>891</ele>
        <time>2012-10-21T08:37:44.000Z</time>
      </trkpt>
      <trkpt lat="45.52125" lon="3.43349">
        <ele>893</ele>
        <time>2012-10-21T08:37:46.000Z</time>
      </trkpt>
      <trkpt lat="45.52123" lon="3.43348">
        <ele>894</ele>
        <time>2012-10-21T08:37:47.000Z</time>
      </trkpt>
      <trkpt lat="45.5212" lon="3.43347">
        <ele>892</ele>
        <time>2012-10-21T08:37:49.000Z</time>
      </trkpt>
      <trkpt lat="45.52118" lon="3.43346">
        <ele>896</ele>
        <time>2012-10-21T08:37:50.000Z</time>
      </trkpt>
      <trkpt lat="45.52114" lon="3.43344">
        <ele>897</ele>
        <time>2012-10-21T08:37:52.000Z</time>
      </trkpt>
      <trkpt lat="45.52112" lon="3.43342">
        <ele>894</ele>
        <time>2012-10-21T08:37:53.000Z</time>
      </trkpt>
      <trkpt lat="45.52109" lon="3.43339">
        <ele>897</ele>
        <time>2012-10-21T08:37:55.000Z</time>
      </trkpt>
      <trkpt lat="45.52106" lon="3.43338">
        <ele>896</ele>
        <time>2012-10-21T08:37:56.000Z</time>
      </trkpt>
      <trkpt lat="45.52103" lon="3.43337">
        <ele>888</ele>
        <time>2012-10-21T08:37:58.000Z</time>
      </trkpt>
      <trkpt lat="45.52101" lon="3.43336">
        <ele>891</ele>
        <time>2012-10-21T08:37:59.000Z</time>
      </trkpt>
      <trkpt lat="45.52096" lon="3.43335">
        <ele>890</ele>
        <time>2012-10-21T08:38:01.000Z</time>
      </trkpt>
      <trkpt lat="45.52094" lon="3.43335">
        <ele>893</ele>
        <time>2012-10-21T08:38:02.000Z</time>
      </trkpt>
      <trkpt lat="45.52091" lon="3.43333">
        <ele>896</ele>
        <time>2012-10-21T08:38:03.000Z</time>
      </trkpt>
      <trkpt lat="45.52088" lon="3.43332">
        <ele>895</ele>
        <time>2012-10-21T08:38:04.000Z</time>
      </trkpt>
      <trkpt lat="45.52086" lon="3.43331">
        <ele>893</ele>
        <time>2012-10-21T08:38:05.000Z</time>
      </trkpt>
      <trkpt lat="45.52084" lon="3.4333">
        <ele>895</ele>
        <time>2012-10-21T08:38:06.000Z</time>
      </trkpt>
      <trkpt lat="45.5208" lon="3.43327">
        <ele>890</ele>
        <time>2012-10-21T08:38:08.000Z</time>
      </trkpt>
      <trkpt lat="45.52078" lon="3.43326">
        <ele>885</ele>
        <time>2012-10-21T08:38:09.000Z</time>
      </trkpt>
      <trkpt lat="45.52076" lon="3.43325">
        <ele>889</ele>
        <time>2012-10-21T08:38:10.000Z</time>
      </trkpt>
      <trkpt lat="45.52074" lon="3.43323">
        <ele>888</ele>
        <time>2012-10-21T08:38:11.000Z</time>
      </trkpt>
      <trkpt lat="45.52071" lon="3.43322">
        <ele>886</ele>
        <time>2012-10-21T08:38:12.000Z</time>
      </trkpt>
      <trkpt lat="45.52069" lon="3.43319">
        <ele>891</ele>
        <time>2012-10-21T08:38:13.000Z</time>
      </trkpt>
      <trkpt lat="45.52067" lon="3.43317">
        <ele>890</ele>
        <time>2012-10-21T08:38:14.000Z</time>
      </trkpt>
      <trkpt lat="45.52065" lon="3.43315">
        <ele>892</ele>
        <time>2012-10-21T08:38:15.000Z</time>
      </trkpt>
      <trkpt lat="45.52062" lon="3.43312">
        <ele>894</ele>
        <time>2012-10-21T08:38:16.000Z</time>
      </trkpt>
      <trkpt lat="45.5206" lon="3.43309">
        <ele>892</ele>
        <time>2012-10-21T08:38:17.000Z</time>
      </trkpt>
      <trkpt lat="45.52057" lon="3.43306">
        <ele>892</ele>
        <time>2012-10-21T08:38:18.000Z</time>
      </trkpt>
      <trkpt lat="45.52054" lon="3.43301">
        <ele>892</ele>
        <time>2012-10-21T08:38:19.000Z</time>
      </trkpt>
      <trkpt lat="45.52051" lon="3.43297">
        <ele>891</ele>
        <time>2012-10-21T08:38:20.000Z</time>
      </trkpt>
      <trkpt lat="45.52048" lon="3.43294">
        <ele>891</ele>
        <time>2012-10-21T08:38:21.000Z</time>
      </trkpt>
      <trkpt lat="45.52046" lon="3.4329">
        <ele>891</ele>
        <time>2012-10-21T08:38:22.000Z</time>
      </trkpt>
      <trkpt lat="45.52043" lon="3.43286">
        <ele>890</ele>
        <time>2012-10-21T08:38:23.000Z</time>
      </trkpt>
      <trkpt lat="45.52039" lon="3.43281">
        <ele>889</ele>
        <time>2012-10-21T08:38:24.000Z</time>
      </trkpt>
      <trkpt lat="45.52035" lon="3.43275">
        <ele>891</ele>
        <time>2012-10-21T08:38:25.000Z</time>
      </trkpt>
      <trkpt lat="45.52031" lon="3.43269">
        <ele>890</ele>
        <time>2012-10-21T08:38:26.000Z</time>
      </trkpt>
      <trkpt lat="45.52027" lon="3.43264">
        <ele>893</ele>
        <time>2012-10-21T08:38:27.000Z</time>
      </trkpt>
      <trkpt lat="45.52024" lon="3.43257">
        <ele>894</ele>
        <time>2012-10-21T08:38:28.000Z</time>
      </trkpt>
      <trkpt lat="45.52021" lon="3.4325">
        <ele>895</ele>
        <time>2012-10-21T08:38:29.000Z</time>
      </trkpt>
      <trkpt lat="45.52018" lon="3.43244">
        <ele>895</ele>
        <time>2012-10-21T08:38:30.000Z</time>
      </trkpt>
      <trkpt lat="45.52014" lon="3.43238">
        <ele>895</ele>
        <time>2012-10-21T08:38:31.000Z</time>
      </trkpt>
      <trkpt lat="45.52011" lon="3.43231">
        <ele>899</ele>
        <time>2012-10-21T08:38:32.000Z</time>
      </trkpt>
      <trkpt lat="45.52008" lon="3.43225">
        <ele>899</ele>
        <time>2012-10-21T08:38:33.000Z</time>
      </trkpt>
      <trkpt lat="45.52005" lon="3.43218">
        <ele>898</ele>
        <time>2012-10-21T08:38:34.000Z</time>
      </trkpt>
      <trkpt lat="45.52002" lon="3.43212">
        <ele>897</ele>
        <time>2012-10-21T08:38:35.000Z</time>
      </trkpt>
      <trkpt lat="45.51998" lon="3.43205">
        <ele>895</ele>
        <time>2012-10-21T08:38:36.000Z</time>
      </trkpt>
      <trkpt lat="45.51995" lon="3.432">
        <ele>895</ele>
        <time>2012-10-21T08:38:37.000Z</time>
      </trkpt>
      <trkpt lat="45.51992" lon="3.43195">
        <ele>895</ele>
        <time>2012-10-21T08:38:38.000Z</time>
      </trkpt>
      <trkpt lat="45.51988" lon="3.43189">
        <ele>892</ele>
        <time>2012-10-21T08:38:39.000Z</time>
      </trkpt>
      <trkpt lat="45.51984" lon="3.43183">
        <ele>892</ele>
        <time>2012-10-21T08:38:40.000Z</time>
      </trkpt>
      <trkpt lat="45.51981" lon="3.43177">
        <ele>892</ele>
        <time>2012-10-21T08:38:41.000Z</time>
      </trkpt>
      <trkpt lat="45.51977" lon="3.43172">
        <ele>890</ele>
        <time>2012-10-21T08:38:42.000Z</time>
      </trkpt>
      <trkpt lat="45.51974" lon="3.43165">
        <ele>889</ele>
        <time>2012-10-21T08:38:43.000Z</time>
      </trkpt>
      <trkpt lat="45.5197" lon="3.43159">
        <ele>889</ele>
        <time>2012-10-21T08:38:44.000Z</time>
      </trkpt>
      <trkpt lat="45.51967" lon="3.43153">
        <ele>889</ele>
        <time>2012-10-21T08:38:45.000Z</time>
      </trkpt>
      <trkpt lat="45.51964" lon="3.43147">
        <ele>888</ele>
        <time>2012-10-21T08:38:46.000Z</time>
      </trkpt>
      <trkpt lat="45.51961" lon="3.43141">
        <ele>887</ele>
        <time>2012-10-21T08:38:47.000Z</time>
      </trkpt>
      <trkpt lat="45.51957" lon="3.43135">
        <ele>886</ele>
        <time>2012-10-21T08:38:48.000Z</time>
      </trkpt>
      <trkpt lat="45.51954" lon="3.4313">
        <ele>885</ele>
        <time>2012-10-21T08:38:49.000Z</time>
      </trkpt>
      <trkpt lat="45.5195" lon="3.43124">
        <ele>884</ele>
        <time>2012-10-21T08:38:50.000Z</time>
      </trkpt>
      <trkpt lat="45.51948" lon="3.43119">
        <ele>882</ele>
        <time>2012-10-21T08:38:51.000Z</time>
      </trkpt>
      <trkpt lat="45.51946" lon="3.43114">
        <ele>881</ele>
        <time>2012-10-21T08:38:52.000Z</time>
      </trkpt>
      <trkpt lat="45.51944" lon="3.43108">
        <ele>881</ele>
        <time>2012-10-21T08:38:53.000Z</time>
      </trkpt>
      <trkpt lat="45.51943" lon="3.43101">
        <ele>883</ele>
        <time>2012-10-21T08:38:54.000Z</time>
      </trkpt>
      <trkpt lat="45.5194" lon="3.43095">
        <ele>883</ele>
        <time>2012-10-21T08:38:55.000Z</time>
      </trkpt>
      <trkpt lat="45.51936" lon="3.43092">
        <ele>884</ele>
        <time>2012-10-21T08:38:56.000Z</time>
      </trkpt>
      <trkpt lat="45.51931" lon="3.43091">
        <ele>884</ele>
        <time>2012-10-21T08:38:57.000Z</time>
      </trkpt>
      <trkpt lat="45.51925" lon="3.4309">
        <ele>883</ele>
        <time>2012-10-21T08:38:58.000Z</time>
      </trkpt>
      <trkpt lat="45.5192" lon="3.43088">
        <ele>883</ele>
        <time>2012-10-21T08:38:59.000Z</time>
      </trkpt>
      <trkpt lat="45.51914" lon="3.43087">
        <ele>882</ele>
        <time>2012-10-21T08:39:00.000Z</time>
      </trkpt>
      <trkpt lat="45.51909" lon="3.43086">
        <ele>884</ele>
        <time>2012-10-21T08:39:01.000Z</time>
      </trkpt>
      <trkpt lat="45.51904" lon="3.43085">
        <ele>882</ele>
        <time>2012-10-21T08:39:02.000Z</time>
      </trkpt>
      <trkpt lat="45.51899" lon="3.43084">
        <ele>880</ele>
        <time>2012-10-21T08:39:03.000Z</time>
      </trkpt>
      <trkpt lat="45.51893" lon="3.43083">
        <ele>881</ele>
        <time>2012-10-21T08:39:04.000Z</time>
      </trkpt>
      <trkpt lat="45.51888" lon="3.43083">
        <ele>880</ele>
        <time>2012-10-21T08:39:05.000Z</time>
      </trkpt>
      <trkpt lat="45.51883" lon="3.43083">
        <ele>880</ele>
        <time>2012-10-21T08:39:06.000Z</time>
      </trkpt>
      <trkpt lat="45.51878" lon="3.43084">
        <ele>880</ele>
        <time>2012-10-21T08:39:07.000Z</time>
      </trkpt>
      <trkpt lat="45.51873" lon="3.43085">
        <ele>880</ele>
        <time>2012-10-21T08:39:08.000Z</time>
      </trkpt>
      <trkpt lat="45.51869" lon="3.43086">
        <ele>879</ele>
        <time>2012-10-21T08:39:09.000Z</time>
      </trkpt>
      <trkpt lat="45.51865" lon="3.43088">
        <ele>878</ele>
        <time>2012-10-21T08:39:10.000Z</time>
      </trkpt>
      <trkpt lat="45.5186" lon="3.4309">
        <ele>878</ele>
        <time>2012-10-21T08:39:11.000Z</time>
      </trkpt>
      <trkpt lat="45.51856" lon="3.43092">
        <ele>880</ele>
        <time>2012-10-21T08:39:12.000Z</time>
      </trkpt>
      <trkpt lat="45.51851" lon="3.43094">
        <ele>876</ele>
        <time>2012-10-21T08:39:13.000Z</time>
      </trkpt>
      <trkpt lat="45.51846" lon="3.43096">
        <ele>875</ele>
        <time>2012-10-21T08:39:14.000Z</time>
      </trkpt>
      <trkpt lat="45.51842" lon="3.43099">
        <ele>875</ele>
        <time>2012-10-21T08:39:15.000Z</time>
      </trkpt>
      <trkpt lat="45.51837" lon="3.43101">
        <ele>875</ele>
        <time>2012-10-21T08:39:16.000Z</time>
      </trkpt>
      <trkpt lat="45.51833" lon="3.43103">
        <ele>873</ele>
        <time>2012-10-21T08:39:17.000Z</time>
      </trkpt>
      <trkpt lat="45.51829" lon="3.43106">
        <ele>871</ele>
        <time>2012-10-21T08:39:18.000Z</time>
      </trkpt>
      <trkpt lat="45.51824" lon="3.43108">
        <ele>871</ele>
        <time>2012-10-21T08:39:19.000Z</time>
      </trkpt>
      <trkpt lat="45.5182" lon="3.4311">
        <ele>871</ele>
        <time>2012-10-21T08:39:20.000Z</time>
      </trkpt>
      <trkpt lat="45.51816" lon="3.43112">
        <ele>871</ele>
        <time>2012-10-21T08:39:21.000Z</time>
      </trkpt>
      <trkpt lat="45.51812" lon="3.43114">
        <ele>873</ele>
        <time>2012-10-21T08:39:22.000Z</time>
      </trkpt>
      <trkpt lat="45.51807" lon="3.43117">
        <ele>875</ele>
        <time>2012-10-21T08:39:23.000Z</time>
      </trkpt>
      <trkpt lat="45.51803" lon="3.4312">
        <ele>873</ele>
        <time>2012-10-21T08:39:24.000Z</time>
      </trkpt>
      <trkpt lat="45.51799" lon="3.43124">
        <ele>873</ele>
        <time>2012-10-21T08:39:25.000Z</time>
      </trkpt>
      <trkpt lat="45.51795" lon="3.43127">
        <ele>872</ele>
        <time>2012-10-21T08:39:26.000Z</time>
      </trkpt>
      <trkpt lat="45.51791" lon="3.4313">
        <ele>875</ele>
        <time>2012-10-21T08:39:27.000Z</time>
      </trkpt>
      <trkpt lat="45.51788" lon="3.43133">
        <ele>874</ele>
        <time>2012-10-21T08:39:28.000Z</time>
      </trkpt>
      <trkpt lat="45.51786" lon="3.43136">
        <ele>872</ele>
        <time>2012-10-21T08:39:29.000Z</time>
      </trkpt>
      <trkpt lat="45.51783" lon="3.43139">
        <ele>873</ele>
        <time>2012-10-21T08:39:30.000Z</time>
      </trkpt>
      <trkpt lat="45.51781" lon="3.43142">
        <ele>876</ele>
        <time>2012-10-21T08:39:31.000Z</time>
      </trkpt>
      <trkpt lat="45.51778" lon="3.43145">
        <ele>875</ele>
        <time>2012-10-21T08:39:32.000Z</time>
      </trkpt>
      <trkpt lat="45.51775" lon="3.43147">
        <ele>875</ele>
        <time>2012-10-21T08:39:33.000Z</time>
      </trkpt>
      <trkpt lat="45.51772" lon="3.43151">
        <ele>872</ele>
        <time>2012-10-21T08:39:34.000Z</time>
      </trkpt>
      <trkpt lat="45.51768" lon="3.43154">
        <ele>872</ele>
        <time>2012-10-21T08:39:35.000Z</time>
      </trkpt>
      <trkpt lat="45.51765" lon="3.43156">
        <ele>873</ele>
        <time>2012-10-21T08:39:36.000Z</time>
      </trkpt>
      <trkpt lat="45.51762" lon="3.43159">
        <ele>872</ele>
        <time>2012-10-21T08:39:37.000Z</time>
      </trkpt>
      <trkpt lat="45.51758" lon="3.43162">
        <ele>870</ele>
        <time>2012-10-21T08:39:38.000Z</time>
      </trkpt>
      <trkpt lat="45.51755" lon="3.43165">
        <ele>870</ele>
        <time>2012-10-21T08:39:39.000Z</time>
      </trkpt>
      <trkpt lat="45.51751" lon="3.43168">
        <ele>872</ele>
        <time>2012-10-21T08:39:40.000Z</time>
      </trkpt>
      <trkpt lat="45.51749" lon="3.4317">
        <ele>870</ele>
        <time>2012-10-21T08:39:41.000Z</time>
      </trkpt>
      <trkpt lat="45.51746" lon="3.43173">
        <ele>875</ele>
        <time>2012-10-21T08:39:42.000Z</time>
      </trkpt>
      <trkpt lat="45.51744" lon="3.43176">
        <ele>869</ele>
        <time>2012-10-21T08:39:43.000Z</time>
      </trkpt>
      <trkpt lat="45.51742" lon="3.43178">
        <ele>872</ele>
        <time>2012-10-21T08:39:44.000Z</time>
      </trkpt>
      <trkpt lat="45.51739" lon="3.43182">
        <ele>874</ele>
        <time>2012-10-21T08:39:45.000Z</time>
      </trkpt>
      <trkpt lat="45.51736" lon="3.43186">
        <ele>874</ele>
        <time>2012-10-21T08:39:46.000Z</time>
      </trkpt>
      <trkpt lat="45.51732" lon="3.4319">
        <ele>874</ele>
        <time>2012-10-21T08:39:47.000Z</time>
      </trkpt>
      <trkpt lat="45.51729" lon="3.43193">
        <ele>871</ele>
        <time>2012-10-21T08:39:48.000Z</time>
      </trkpt>
      <trkpt lat="45.51726" lon="3.43196">
        <ele>871</ele>
        <time>2012-10-21T08:39:49.000Z</time>
      </trkpt>
      <trkpt lat="45.51723" lon="3.43198">
        <ele>867</ele>
        <time>2012-10-21T08:39:50.000Z</time>
      </trkpt>
      <trkpt lat="45.51718" lon="3.43201">
        <ele>867</ele>
        <time>2012-10-21T08:39:51.000Z</time>
      </trkpt>
      <trkpt lat="45.51713" lon="3.43202">
        <ele>864</ele>
        <time>2012-10-21T08:39:52.000Z</time>
      </trkpt>
      <trkpt lat="45.51708" lon="3.43206">
        <ele>864</ele>
        <time>2012-10-21T08:39:53.000Z</time>
      </trkpt>
      <trkpt lat="45.51701" lon="3.4321">
        <ele>864</ele>
        <time>2012-10-21T08:39:54.000Z</time>
      </trkpt>
      <trkpt lat="45.51696" lon="3.43213">
        <ele>859</ele>
        <time>2012-10-21T08:39:55.000Z</time>
      </trkpt>
      <trkpt lat="45.5169" lon="3.43217">
        <ele>863</ele>
        <time>2012-10-21T08:39:56.000Z</time>
      </trkpt>
      <trkpt lat="45.51685" lon="3.43221">
        <ele>863</ele>
        <time>2012-10-21T08:39:57.000Z</time>
      </trkpt>
      <trkpt lat="45.51681" lon="3.43224">
        <ele>859</ele>
        <time>2012-10-21T08:39:58.000Z</time>
      </trkpt>
      <trkpt lat="45.51677" lon="3.43227">
        <ele>858</ele>
        <time>2012-10-21T08:39:59.000Z</time>
      </trkpt>
      <trkpt lat="45.51674" lon="3.4323">
        <ele>862</ele>
        <time>2012-10-21T08:40:00.000Z</time>
      </trkpt>
      <trkpt lat="45.5167" lon="3.43232">
        <ele>862</ele>
        <time>2012-10-21T08:40:01.000Z</time>
      </trkpt>
      <trkpt lat="45.51667" lon="3.43234">
        <ele>865</ele>
        <time>2012-10-21T08:40:02.000Z</time>
      </trkpt>
      <trkpt lat="45.51664" lon="3.43236">
        <ele>864</ele>
        <time>2012-10-21T08:40:03.000Z</time>
      </trkpt>
      <trkpt lat="45.51661" lon="3.43237">
        <ele>865</ele>
        <time>2012-10-21T08:40:04.000Z</time>
      </trkpt>
      <trkpt lat="45.51658" lon="3.43238">
        <ele>867</ele>
        <time>2012-10-21T08:40:05.000Z</time>
      </trkpt>
      <trkpt lat="45.51656" lon="3.43238">
        <ele>865</ele>
        <time>2012-10-21T08:40:06.000Z</time>
      </trkpt>
      <trkpt lat="45.51652" lon="3.43239">
        <ele>864</ele>
        <time>2012-10-21T08:40:09.000Z</time>
      </trkpt>
      <trkpt lat="45.5165" lon="3.4324">
        <ele>868</ele>
        <time>2012-10-21T08:40:10.000Z</time>
      </trkpt>
      <trkpt lat="45.51647" lon="3.4324">
        <ele>869</ele>
        <time>2012-10-21T08:40:11.000Z</time>
      </trkpt>
      <trkpt lat="45.51644" lon="3.4324">
        <ele>872</ele>
        <time>2012-10-21T08:40:12.000Z</time>
      </trkpt>
      <trkpt lat="45.51639" lon="3.43239">
        <ele>875</ele>
        <time>2012-10-21T08:40:13.000Z</time>
      </trkpt>
      <trkpt lat="45.51637" lon="3.4324">
        <ele>879</ele>
        <time>2012-10-21T08:40:14.000Z</time>
      </trkpt>
      <trkpt lat="45.51633" lon="3.4324">
        <ele>881</ele>
        <time>2012-10-21T08:40:15.000Z</time>
      </trkpt>
      <trkpt lat="45.5163" lon="3.4324">
        <ele>878</ele>
        <time>2012-10-21T08:40:16.000Z</time>
      </trkpt>
      <trkpt lat="45.51626" lon="3.43239">
        <ele>877</ele>
        <time>2012-10-21T08:40:17.000Z</time>
      </trkpt>
      <trkpt lat="45.51621" lon="3.43238">
        <ele>877</ele>
        <time>2012-10-21T08:40:18.000Z</time>
      </trkpt>
      <trkpt lat="45.51618" lon="3.43237">
        <ele>873</ele>
        <time>2012-10-21T08:40:19.000Z</time>
      </trkpt>
      <trkpt lat="45.51615" lon="3.43237">
        <ele>875</ele>
        <time>2012-10-21T08:40:20.000Z</time>
      </trkpt>
      <trkpt lat="45.51612" lon="3.43237">
        <ele>879</ele>
        <time>2012-10-21T08:40:21.000Z</time>
      </trkpt>
      <trkpt lat="45.51609" lon="3.43237">
        <ele>881</ele>
        <time>2012-10-21T08:40:22.000Z</time>
      </trkpt>
      <trkpt lat="45.51606" lon="3.43237">
        <ele>882</ele>
        <time>2012-10-21T08:40:23.000Z</time>
      </trkpt>
      <trkpt lat="45.51603" lon="3.43236">
        <ele>880</ele>
        <time>2012-10-21T08:40:24.000Z</time>
      </trkpt>
      <trkpt lat="45.51599" lon="3.43238">
        <ele>884</ele>
        <time>2012-10-21T08:40:26.000Z</time>
      </trkpt>
      <trkpt lat="45.51597" lon="3.43238">
        <ele>878</ele>
        <time>2012-10-21T08:40:27.000Z</time>
      </trkpt>
      <trkpt lat="45.51594" lon="3.43241">
        <ele>881</ele>
        <time>2012-10-21T08:40:29.000Z</time>
      </trkpt>
      <trkpt lat="45.51593" lon="3.43243">
        <ele>880</ele>
        <time>2012-10-21T08:40:30.000Z</time>
      </trkpt>
      <trkpt lat="45.51589" lon="3.43245">
        <ele>888</ele>
        <time>2012-10-21T08:40:32.000Z</time>
      </trkpt>
      <trkpt lat="45.51587" lon="3.43247">
        <ele>887</ele>
        <time>2012-10-21T08:40:33.000Z</time>
      </trkpt>
      <trkpt lat="45.51584" lon="3.43248">
        <ele>885</ele>
        <time>2012-10-21T08:40:35.000Z</time>
      </trkpt>
      <trkpt lat="45.51582" lon="3.43249">
        <ele>885</ele>
        <time>2012-10-21T08:40:36.000Z</time>
      </trkpt>
      <trkpt lat="45.5158" lon="3.43249">
        <ele>886</ele>
        <time>2012-10-21T08:40:37.000Z</time>
      </trkpt>
      <trkpt lat="45.51577" lon="3.4325">
        <ele>887</ele>
        <time>2012-10-21T08:40:38.000Z</time>
      </trkpt>
      <trkpt lat="45.51575" lon="3.4325">
        <ele>888</ele>
        <time>2012-10-21T08:40:39.000Z</time>
      </trkpt>
      <trkpt lat="45.51572" lon="3.43252">
        <ele>889</ele>
        <time>2012-10-21T08:40:40.000Z</time>
      </trkpt>
      <trkpt lat="45.51569" lon="3.43253">
        <ele>889</ele>
        <time>2012-10-21T08:40:41.000Z</time>
      </trkpt>
      <trkpt lat="45.51566" lon="3.43253">
        <ele>893</ele>
        <time>2012-10-21T08:40:42.000Z</time>
      </trkpt>
      <trkpt lat="45.51563" lon="3.43254">
        <ele>892</ele>
        <time>2012-10-21T08:40:43.000Z</time>
      </trkpt>
      <trkpt lat="45.5156" lon="3.43255">
        <ele>892</ele>
        <time>2012-10-21T08:40:44.000Z</time>
      </trkpt>
      <trkpt lat="45.51556" lon="3.43255">
        <ele>894</ele>
        <time>2012-10-21T08:40:45.000Z</time>
      </trkpt>
      <trkpt lat="45.51552" lon="3.43255">
        <ele>893</ele>
        <time>2012-10-21T08:40:46.000Z</time>
      </trkpt>
      <trkpt lat="45.51549" lon="3.43255">
        <ele>887</ele>
        <time>2012-10-21T08:40:47.000Z</time>
      </trkpt>
      <trkpt lat="45.51546" lon="3.43256">
        <ele>884</ele>
        <time>2012-10-21T08:40:48.000Z</time>
      </trkpt>
      <trkpt lat="45.51543" lon="3.43257">
        <ele>884</ele>
        <time>2012-10-21T08:40:49.000Z</time>
      </trkpt>
      <trkpt lat="45.51539" lon="3.43258">
        <ele>891</ele>
        <time>2012-10-21T08:40:50.000Z</time>
      </trkpt>
      <trkpt lat="45.51536" lon="3.4326">
        <ele>889</ele>
        <time>2012-10-21T08:40:51.000Z</time>
      </trkpt>
      <trkpt lat="45.51533" lon="3.43261">
        <ele>884</ele>
        <time>2012-10-21T08:40:52.000Z</time>
      </trkpt>
      <trkpt lat="45.51529" lon="3.43261">
        <ele>879</ele>
        <time>2012-10-21T08:40:53.000Z</time>
      </trkpt>
      <trkpt lat="45.51526" lon="3.43262">
        <ele>879</ele>
        <time>2012-10-21T08:40:54.000Z</time>
      </trkpt>
      <trkpt lat="45.51523" lon="3.43262">
        <ele>878</ele>
        <time>2012-10-21T08:40:55.000Z</time>
      </trkpt>
      <trkpt lat="45.5152" lon="3.43262">
        <ele>880</ele>
        <time>2012-10-21T08:40:56.000Z</time>
      </trkpt>
      <trkpt lat="45.51516" lon="3.43262">
        <ele>878</ele>
        <time>2012-10-21T08:40:57.000Z</time>
      </trkpt>
      <trkpt lat="45.51513" lon="3.43262">
        <ele>874</ele>
        <time>2012-10-21T08:40:58.000Z</time>
      </trkpt>
      <trkpt lat="45.5151" lon="3.43262">
        <ele>873</ele>
        <time>2012-10-21T08:40:59.000Z</time>
      </trkpt>
      <trkpt lat="45.51507" lon="3.43262">
        <ele>873</ele>
        <time>2012-10-21T08:41:00.000Z</time>
      </trkpt>
      <trkpt lat="45.51504" lon="3.43262">
        <ele>878</ele>
        <time>2012-10-21T08:41:01.000Z</time>
      </trkpt>
      <trkpt lat="45.515" lon="3.43262">
        <ele>878</ele>
        <time>2012-10-21T08:41:02.000Z</time>
      </trkpt>
      <trkpt lat="45.51497" lon="3.43262">
        <ele>880</ele>
        <time>2012-10-21T08:41:03.000Z</time>
      </trkpt>
      <trkpt lat="45.51494" lon="3.43262">
        <ele>881</ele>
        <time>2012-10-21T08:41:04.000Z</time>
      </trkpt>
      <trkpt lat="45.51491" lon="3.43262">
        <ele>876</ele>
        <time>2012-10-21T08:41:05.000Z</time>
      </trkpt>
      <trkpt lat="45.51488" lon="3.43262">
        <ele>879</ele>
        <time>2012-10-21T08:41:06.000Z</time>
      </trkpt>
      <trkpt lat="45.51485" lon="3.43263">
        <ele>878</ele>
        <time>2012-10-21T08:41:07.000Z</time>
      </trkpt>
      <trkpt lat="45.51482" lon="3.43263">
        <ele>875</ele>
        <time>2012-10-21T08:41:08.000Z</time>
      </trkpt>
      <trkpt lat="45.51479" lon="3.43263">
        <ele>874</ele>
        <time>2012-10-21T08:41:09.000Z</time>
      </trkpt>
      <trkpt lat="45.51474" lon="3.43264">
        <ele>866</ele>
        <time>2012-10-21T08:41:10.000Z</time>
      </trkpt>
      <trkpt lat="45.5147" lon="3.43264">
        <ele>865</ele>
        <time>2012-10-21T08:41:11.000Z</time>
      </trkpt>
      <trkpt lat="45.51466" lon="3.43264">
        <ele>863</ele>
        <time>2012-10-21T08:41:12.000Z</time>
      </trkpt>
      <trkpt lat="45.51462" lon="3.43264">
        <ele>863</ele>
        <time>2012-10-21T08:41:13.000Z</time>
      </trkpt>
      <trkpt lat="45.51457" lon="3.43265">
        <ele>863</ele>
        <time>2012-10-21T08:41:14.000Z</time>
      </trkpt>
      <trkpt lat="45.51453" lon="3.43266">
        <ele>862</ele>
        <time>2012-10-21T08:41:15.000Z</time>
      </trkpt>
      <trkpt lat="45.51449" lon="3.43267">
        <ele>856</ele>
        <time>2012-10-21T08:41:16.000Z</time>
      </trkpt>
      <trkpt lat="45.51445" lon="3.43268">
        <ele>860</ele>
        <time>2012-10-21T08:41:17.000Z</time>
      </trkpt>
      <trkpt lat="45.51441" lon="3.43269">
        <ele>861</ele>
        <time>2012-10-21T08:41:18.000Z</time>
      </trkpt>
      <trkpt lat="45.51438" lon="3.43269">
        <ele>857</ele>
        <time>2012-10-21T08:41:19.000Z</time>
      </trkpt>
      <trkpt lat="45.51434" lon="3.43269">
        <ele>860</ele>
        <time>2012-10-21T08:41:20.000Z</time>
      </trkpt>
      <trkpt lat="45.51432" lon="3.4327">
        <ele>857</ele>
        <time>2012-10-21T08:41:21.000Z</time>
      </trkpt>
      <trkpt lat="45.51429" lon="3.43271">
        <ele>857</ele>
        <time>2012-10-21T08:41:22.000Z</time>
      </trkpt>
      <trkpt lat="45.51425" lon="3.43271">
        <ele>857</ele>
        <time>2012-10-21T08:41:23.000Z</time>
      </trkpt>
      <trkpt lat="45.51421" lon="3.43271">
        <ele>856</ele>
        <time>2012-10-21T08:41:24.000Z</time>
      </trkpt>
      <trkpt lat="45.51417" lon="3.43271">
        <ele>856</ele>
        <time>2012-10-21T08:41:25.000Z</time>
      </trkpt>
      <trkpt lat="45.51413" lon="3.43272">
        <ele>858</ele>
        <time>2012-10-21T08:41:26.000Z</time>
      </trkpt>
      <trkpt lat="45.51407" lon="3.43273">
        <ele>866</ele>
        <time>2012-10-21T08:41:27.000Z</time>
      </trkpt>
      <trkpt lat="45.51402" lon="3.43273">
        <ele>866</ele>
        <time>2012-10-21T08:41:28.000Z</time>
      </trkpt>
      <trkpt lat="45.51397" lon="3.43275">
        <ele>866</ele>
        <time>2012-10-21T08:41:29.000Z</time>
      </trkpt>
      <trkpt lat="45.5139" lon="3.43276">
        <ele>866</ele>
        <time>2012-10-21T08:41:30.000Z</time>
      </trkpt>
      <trkpt lat="45.51385" lon="3.43275">
        <ele>864</ele>
        <time>2012-10-21T08:41:31.000Z</time>
      </trkpt>
      <trkpt lat="45.51381" lon="3.43275">
        <ele>863</ele>
        <time>2012-10-21T08:41:32.000Z</time>
      </trkpt>
      <trkpt lat="45.51377" lon="3.43275">
        <ele>864</ele>
        <time>2012-10-21T08:41:33.000Z</time>
      </trkpt>
      <trkpt lat="45.51374" lon="3.43275">
        <ele>864</ele>
        <time>2012-10-21T08:41:34.000Z</time>
      </trkpt>
      <trkpt lat="45.51372" lon="3.43275">
        <ele>866</ele>
        <time>2012-10-21T08:41:35.000Z</time>
      </trkpt>
      <trkpt lat="45.51368" lon="3.43276">
        <ele>864</ele>
        <time>2012-10-21T08:41:37.000Z</time>
      </trkpt>
      <trkpt lat="45.51365" lon="3.43275">
        <ele>867</ele>
        <time>2012-10-21T08:41:38.000Z</time>
      </trkpt>
      <trkpt lat="45.51361" lon="3.43273">
        <ele>868</ele>
        <time>2012-10-21T08:41:41.000Z</time>
      </trkpt>
      <trkpt lat="45.5136" lon="3.43272">
        <ele>867</ele>
        <time>2012-10-21T08:41:42.000Z</time>
      </trkpt>
      <trkpt lat="45.51358" lon="3.43268">
        <ele>867</ele>
        <time>2012-10-21T08:41:45.000Z</time>
      </trkpt>
      <trkpt lat="45.51356" lon="3.43266">
        <ele>866</ele>
        <time>2012-10-21T08:41:46.000Z</time>
      </trkpt>
      <trkpt lat="45.51352" lon="3.43263">
        <ele>870</ele>
        <time>2012-10-21T08:41:50.000Z</time>
      </trkpt>
      <trkpt lat="45.51351" lon="3.43262">
        <ele>867</ele>
        <time>2012-10-21T08:41:51.000Z</time>
      </trkpt>
      <trkpt lat="45.51347" lon="3.43262">
        <ele>870</ele>
        <time>2012-10-21T08:41:55.000Z</time>
      </trkpt>
      <trkpt lat="45.51346" lon="3.43262">
        <ele>874</ele>
        <time>2012-10-21T08:41:56.000Z</time>
      </trkpt>
      <trkpt lat="45.51342" lon="3.43262">
        <ele>875</ele>
        <time>2012-10-21T08:41:59.000Z</time>
      </trkpt>
      <trkpt lat="45.5134" lon="3.43263">
        <ele>866</ele>
        <time>2012-10-21T08:42:00.000Z</time>
      </trkpt>
      <trkpt lat="45.51336" lon="3.43264">
        <ele>875</ele>
        <time>2012-10-21T08:42:08.000Z</time>
      </trkpt>
      <trkpt lat="45.51336" lon="3.43265">
        <ele>873</ele>
        <time>2012-10-21T08:42:09.000Z</time>
      </trkpt>
      <trkpt lat="45.51332" lon="3.43266">
        <ele>870</ele>
        <time>2012-10-21T08:42:17.000Z</time>
      </trkpt>
      <trkpt lat="45.5133" lon="3.43266">
        <ele>869</ele>
        <time>2012-10-21T08:42:18.000Z</time>
      </trkpt>
      <trkpt lat="45.51327" lon="3.43268">
        <ele>851</ele>
        <time>2012-10-21T08:42:32.000Z</time>
      </trkpt>
      <trkpt lat="45.51324" lon="3.43269">
        <ele>858</ele>
        <time>2012-10-21T08:42:33.000Z</time>
      </trkpt>
      <trkpt lat="45.51321" lon="3.43268">
        <ele>862</ele>
        <time>2012-10-21T08:42:37.000Z</time>
      </trkpt>
      <trkpt lat="45.51319" lon="3.43269">
        <ele>865</ele>
        <time>2012-10-21T08:42:38.000Z</time>
      </trkpt>
      <trkpt lat="45.51316" lon="3.43267">
        <ele>864</ele>
        <time>2012-10-21T08:43:01.000Z</time>
      </trkpt>
      <trkpt lat="45.51315" lon="3.43267">
        <ele>863</ele>
        <time>2012-10-21T08:43:02.000Z</time>
      </trkpt>
      <trkpt lat="45.51311" lon="3.43266">
        <ele>864</ele>
        <time>2012-10-21T08:43:16.000Z</time>
      </trkpt>
      <trkpt lat="45.51309" lon="3.43265">
        <ele>866</ele>
        <time>2012-10-21T08:43:17.000Z</time>
      </trkpt>
      <trkpt lat="45.51307" lon="3.43263">
        <ele>862</ele>
        <time>2012-10-21T08:43:24.000Z</time>
      </trkpt>
      <trkpt lat="45.51305" lon="3.43261">
        <ele>862</ele>
        <time>2012-10-21T08:43:25.000Z</time>
      </trkpt>
      <trkpt lat="45.51301" lon="3.4326">
        <ele>870</ele>
        <time>2012-10-21T08:43:53.000Z</time>
      </trkpt>
      <trkpt lat="45.513" lon="3.43259">
        <ele>868</ele>
        <time>2012-10-21T08:43:54.000Z</time>
      </trkpt>
      <trkpt lat="45.51296" lon="3.43257">
        <ele>861</ele>
        <time>2012-10-21T08:44:38.000Z</time>
      </trkpt>
      <trkpt lat="45.51295" lon="3.43255">
        <ele>864</ele>
        <time>2012-10-21T08:44:39.000Z</time>
      </trkpt>
      <trkpt lat="45.51291" lon="3.43252">
        <ele>865</ele>
        <time>2012-10-21T08:44:41.000Z</time>
      </trkpt>
      <trkpt lat="45.5129" lon="3.4325">
        <ele>865</ele>
        <time>2012-10-21T08:44:42.000Z</time>
      </trkpt>
      <trkpt lat="45.51287" lon="3.43248">
        <ele>865</ele>
        <time>2012-10-21T08:44:43.000Z</time>
      </trkpt>
      <trkpt lat="45.51285" lon="3.43247">
        <ele>866</ele>
        <time>2012-10-21T08:44:44.000Z</time>
      </trkpt>
      <trkpt lat="45.51282" lon="3.43245">
        <ele>868</ele>
        <time>2012-10-21T08:44:45.000Z</time>
      </trkpt>
      <trkpt lat="45.51278" lon="3.43242">
        <ele>867</ele>
        <time>2012-10-21T08:44:46.000Z</time>
      </trkpt>
      <trkpt lat="45.51274" lon="3.43239">
        <ele>869</ele>
        <time>2012-10-21T08:44:47.000Z</time>
      </trkpt>
      <trkpt lat="45.51271" lon="3.43236">
        <ele>865</ele>
        <time>2012-10-21T08:44:48.000Z</time>
      </trkpt>
      <trkpt lat="45.51268" lon="3.43233">
        <ele>869</ele>
        <time>2012-10-21T08:44:49.000Z</time>
      </trkpt>
      <trkpt lat="45.51265" lon="3.43229">
        <ele>870</ele>
        <time>2012-10-21T08:44:50.000Z</time>
      </trkpt>
      <trkpt lat="45.51262" lon="3.43227">
        <ele>871</ele>
        <time>2012-10-21T08:44:51.000Z</time>
      </trkpt>
      <trkpt lat="45.51259" lon="3.43225">
        <ele>871</ele>
        <time>2012-10-21T08:44:52.000Z</time>
      </trkpt>
      <trkpt lat="45.51256" lon="3.43222">
        <ele>870</ele>
        <time>2012-10-21T08:44:53.000Z</time>
      </trkpt>
      <trkpt lat="45.51251" lon="3.4322">
        <ele>872</ele>
        <time>2012-10-21T08:44:54.000Z</time>
      </trkpt>
      <trkpt lat="45.51247" lon="3.43216">
        <ele>873</ele>
        <time>2012-10-21T08:44:55.000Z</time>
      </trkpt>
      <trkpt lat="45.51242" lon="3.43213">
        <ele>875</ele>
        <time>2012-10-21T08:44:56.000Z</time>
      </trkpt>
      <trkpt lat="45.51237" lon="3.43208">
        <ele>873</ele>
        <time>2012-10-21T08:44:57.000Z</time>
      </trkpt>
      <trkpt lat="45.51232" lon="3.43205">
        <ele>874</ele>
        <time>2012-10-21T08:44:58.000Z</time>
      </trkpt>
      <trkpt lat="45.51228" lon="3.43203">
        <ele>875</ele>
        <time>2012-10-21T08:44:59.000Z</time>
      </trkpt>
      <trkpt lat="45.51224" lon="3.43202">
        <ele>874</ele>
        <time>2012-10-21T08:45:00.000Z</time>
      </trkpt>
      <trkpt lat="45.51219" lon="3.432">
        <ele>871</ele>
        <time>2012-10-21T08:45:01.000Z</time>
      </trkpt>
      <trkpt lat="45.51212" lon="3.432">
        <ele>868</ele>
        <time>2012-10-21T08:45:02.000Z</time>
      </trkpt>
      <trkpt lat="45.51206" lon="3.432">
        <ele>865</ele>
        <time>2012-10-21T08:45:03.000Z</time>
      </trkpt>
      <trkpt lat="45.51201" lon="3.432">
        <ele>858</ele>
        <time>2012-10-21T08:45:04.000Z</time>
      </trkpt>
      <trkpt lat="45.51196" lon="3.432">
        <ele>863</ele>
        <time>2012-10-21T08:45:05.000Z</time>
      </trkpt>
      <trkpt lat="45.51191" lon="3.432">
        <ele>860</ele>
        <time>2012-10-21T08:45:06.000Z</time>
      </trkpt>
      <trkpt lat="45.51187" lon="3.432">
        <ele>861</ele>
        <time>2012-10-21T08:45:07.000Z</time>
      </trkpt>
      <trkpt lat="45.51184" lon="3.432">
        <ele>861</ele>
        <time>2012-10-21T08:45:08.000Z</time>
      </trkpt>
      <trkpt lat="45.51181" lon="3.432">
        <ele>861</ele>
        <time>2012-10-21T08:45:09.000Z</time>
      </trkpt>
      <trkpt lat="45.51179" lon="3.43201">
        <ele>861</ele>
        <time>2012-10-21T08:45:10.000Z</time>
      </trkpt>
      <trkpt lat="45.51174" lon="3.43201">
        <ele>860</ele>
        <time>2012-10-21T08:45:12.000Z</time>
      </trkpt>
      <trkpt lat="45.51172" lon="3.43201">
        <ele>860</ele>
        <time>2012-10-21T08:45:13.000Z</time>
      </trkpt>
      <trkpt lat="45.51169" lon="3.43203">
        <ele>860</ele>
        <time>2012-10-21T08:45:14.000Z</time>
      </trkpt>
      <trkpt lat="45.51166" lon="3.43205">
        <ele>862</ele>
        <time>2012-10-21T08:45:15.000Z</time>
      </trkpt>
      <trkpt lat="45.51164" lon="3.43207">
        <ele>857</ele>
        <time>2012-10-21T08:45:16.000Z</time>
      </trkpt>
      <trkpt lat="45.51162" lon="3.43208">
        <ele>854</ele>
        <time>2012-10-21T08:45:17.000Z</time>
      </trkpt>
      <trkpt lat="45.5116" lon="3.4321">
        <ele>853</ele>
        <time>2012-10-21T08:45:18.000Z</time>
      </trkpt>
      <trkpt lat="45.51157" lon="3.43209">
        <ele>857</ele>
        <time>2012-10-21T08:45:19.000Z</time>
      </trkpt>
      <trkpt lat="45.51153" lon="3.43208">
        <ele>854</ele>
        <time>2012-10-21T08:45:21.000Z</time>
      </trkpt>
      <trkpt lat="45.51152" lon="3.43207">
        <ele>854</ele>
        <time>2012-10-21T08:45:22.000Z</time>
      </trkpt>
      <trkpt lat="45.51148" lon="3.43207">
        <ele>854</ele>
        <time>2012-10-21T08:45:25.000Z</time>
      </trkpt>
      <trkpt lat="45.51147" lon="3.43207">
        <ele>856</ele>
        <time>2012-10-21T08:45:26.000Z</time>
      </trkpt>
      <trkpt lat="45.51142" lon="3.43206">
        <ele>860</ele>
        <time>2012-10-21T08:45:30.000Z</time>
      </trkpt>
      <trkpt lat="45.51141" lon="3.43206">
        <ele>863</ele>
        <time>2012-10-21T08:45:31.000Z</time>
      </trkpt>
      <trkpt lat="45.51138" lon="3.43204">
        <ele>860</ele>
        <time>2012-10-21T08:45:34.000Z</time>
      </trkpt>
      <trkpt lat="45.51137" lon="3.43203">
        <ele>859</ele>
        <time>2012-10-21T08:45:35.000Z</time>
      </trkpt>
      <trkpt lat="45.51134" lon="3.43201">
        <ele>859</ele>
        <time>2012-10-21T08:45:38.000Z</time>
      </trkpt>
      <trkpt lat="45.51132" lon="3.432">
        <ele>857</ele>
        <time>2012-10-21T08:45:39.000Z</time>
      </trkpt>
      <trkpt lat="45.51128" lon="3.43197">
        <ele>864</ele>
        <time>2012-10-21T08:45:41.000Z</time>
      </trkpt>
      <trkpt lat="45.51126" lon="3.43195">
        <ele>865</ele>
        <time>2012-10-21T08:45:42.000Z</time>
      </trkpt>
      <trkpt lat="45.51125" lon="3.43194">
        <ele>868</ele>
        <time>2012-10-21T08:45:43.000Z</time>
      </trkpt>
      <trkpt lat="45.51122" lon="3.43192">
        <ele>867</ele>
        <time>2012-10-21T08:45:44.000Z</time>
      </trkpt>
      <trkpt lat="45.5112" lon="3.4319">
        <ele>866</ele>
        <time>2012-10-21T08:45:45.000Z</time>
      </trkpt>
      <trkpt lat="45.51117" lon="3.43188">
        <ele>859</ele>
        <time>2012-10-21T08:45:46.000Z</time>
      </trkpt>
      <trkpt lat="45.51115" lon="3.43186">
        <ele>861</ele>
        <time>2012-10-21T08:45:47.000Z</time>
      </trkpt>
      <trkpt lat="45.51113" lon="3.43184">
        <ele>859</ele>
        <time>2012-10-21T08:45:48.000Z</time>
      </trkpt>
      <trkpt lat="45.5111" lon="3.43181">
        <ele>863</ele>
        <time>2012-10-21T08:45:49.000Z</time>
      </trkpt>
      <trkpt lat="45.51107" lon="3.43179">
        <ele>860</ele>
        <time>2012-10-21T08:45:50.000Z</time>
      </trkpt>
      <trkpt lat="45.51105" lon="3.43176">
        <ele>859</ele>
        <time>2012-10-21T08:45:51.000Z</time>
      </trkpt>
      <trkpt lat="45.51102" lon="3.43174">
        <ele>858</ele>
        <time>2012-10-21T08:45:52.000Z</time>
      </trkpt>
      <trkpt lat="45.511" lon="3.43172">
        <ele>863</ele>
        <time>2012-10-21T08:45:53.000Z</time>
      </trkpt>
      <trkpt lat="45.51096" lon="3.4317">
        <ele>863</ele>
        <time>2012-10-21T08:45:54.000Z</time>
      </trkpt>
      <trkpt lat="45.51093" lon="3.43168">
        <ele>862</ele>
        <time>2012-10-21T08:45:55.000Z</time>
      </trkpt>
      <trkpt lat="45.51091" lon="3.43165">
        <ele>862</ele>
        <time>2012-10-21T08:45:56.000Z</time>
      </trkpt>
      <trkpt lat="45.51088" lon="3.43162">
        <ele>862</ele>
        <time>2012-10-21T08:45:57.000Z</time>
      </trkpt>
      <trkpt lat="45.51084" lon="3.4316">
        <ele>862</ele>
        <time>2012-10-21T08:45:58.000Z</time>
      </trkpt>
      <trkpt lat="45.5108" lon="3.43158">
        <ele>861</ele>
        <time>2012-10-21T08:45:59.000Z</time>
      </trkpt>
      <trkpt lat="45.51077" lon="3.43156">
        <ele>863</ele>
        <time>2012-10-21T08:46:00.000Z</time>
      </trkpt>
      <trkpt lat="45.51073" lon="3.43153">
        <ele>861</ele>
        <time>2012-10-21T08:46:01.000Z</time>
      </trkpt>
      <trkpt lat="45.51069" lon="3.4315">
        <ele>860</ele>
        <time>2012-10-21T08:46:02.000Z</time>
      </trkpt>
      <trkpt lat="45.51065" lon="3.43147">
        <ele>862</ele>
        <time>2012-10-21T08:46:03.000Z</time>
      </trkpt>
      <trkpt lat="45.51061" lon="3.43144">
        <ele>862</ele>
        <time>2012-10-21T08:46:04.000Z</time>
      </trkpt>
      <trkpt lat="45.51057" lon="3.43141">
        <ele>859</ele>
        <time>2012-10-21T08:46:05.000Z</time>
      </trkpt>
      <trkpt lat="45.51053" lon="3.43138">
        <ele>857</ele>
        <time>2012-10-21T08:46:06.000Z</time>
      </trkpt>
      <trkpt lat="45.51049" lon="3.43134">
        <ele>859</ele>
        <time>2012-10-21T08:46:07.000Z</time>
      </trkpt>
      <trkpt lat="45.51046" lon="3.43131">
        <ele>860</ele>
        <time>2012-10-21T08:46:08.000Z</time>
      </trkpt>
      <trkpt lat="45.51042" lon="3.43127">
        <ele>855</ele>
        <time>2012-10-21T08:46:09.000Z</time>
      </trkpt>
      <trkpt lat="45.51038" lon="3.43123">
        <ele>857</ele>
        <time>2012-10-21T08:46:10.000Z</time>
      </trkpt>
      <trkpt lat="45.51035" lon="3.43119">
        <ele>859</ele>
        <time>2012-10-21T08:46:11.000Z</time>
      </trkpt>
      <trkpt lat="45.51032" lon="3.43115">
        <ele>858</ele>
        <time>2012-10-21T08:46:12.000Z</time>
      </trkpt>
      <trkpt lat="45.5103" lon="3.4311">
        <ele>860</ele>
        <time>2012-10-21T08:46:13.000Z</time>
      </trkpt>
      <trkpt lat="45.51027" lon="3.43104">
        <ele>860</ele>
        <time>2012-10-21T08:46:14.000Z</time>
      </trkpt>
      <trkpt lat="45.51025" lon="3.43098">
        <ele>861</ele>
        <time>2012-10-21T08:46:15.000Z</time>
      </trkpt>
      <trkpt lat="45.51023" lon="3.43094">
        <ele>860</ele>
        <time>2012-10-21T08:46:16.000Z</time>
      </trkpt>
      <trkpt lat="45.51021" lon="3.43088">
        <ele>861</ele>
        <time>2012-10-21T08:46:17.000Z</time>
      </trkpt>
      <trkpt lat="45.51018" lon="3.43082">
        <ele>856</ele>
        <time>2012-10-21T08:46:18.000Z</time>
      </trkpt>
      <trkpt lat="45.51016" lon="3.43076">
        <ele>854</ele>
        <time>2012-10-21T08:46:19.000Z</time>
      </trkpt>
      <trkpt lat="45.51013" lon="3.43071">
        <ele>858</ele>
        <time>2012-10-21T08:46:20.000Z</time>
      </trkpt>
      <trkpt lat="45.5101" lon="3.43068">
        <ele>856</ele>
        <time>2012-10-21T08:46:21.000Z</time>
      </trkpt>
      <trkpt lat="45.51006" lon="3.43063">
        <ele>856</ele>
        <time>2012-10-21T08:46:22.000Z</time>
      </trkpt>
      <trkpt lat="45.51002" lon="3.43058">
        <ele>856</ele>
        <time>2012-10-21T08:46:23.000Z</time>
      </trkpt>
      <trkpt lat="45.50999" lon="3.43053">
        <ele>857</ele>
        <time>2012-10-21T08:46:24.000Z</time>
      </trkpt>
      <trkpt lat="45.50996" lon="3.4305">
        <ele>854</ele>
        <time>2012-10-21T08:46:25.000Z</time>
      </trkpt>
      <trkpt lat="45.50993" lon="3.43047">
        <ele>856</ele>
        <time>2012-10-21T08:46:26.000Z</time>
      </trkpt>
      <trkpt lat="45.5099" lon="3.43044">
        <ele>851</ele>
        <time>2012-10-21T08:46:27.000Z</time>
      </trkpt>
      <trkpt lat="45.50986" lon="3.4304">
        <ele>854</ele>
        <time>2012-10-21T08:46:28.000Z</time>
      </trkpt>
      <trkpt lat="45.50981" lon="3.43036">
        <ele>853</ele>
        <time>2012-10-21T08:46:29.000Z</time>
      </trkpt>
      <trkpt lat="45.50975" lon="3.43032">
        <ele>851</ele>
        <time>2012-10-21T08:46:30.000Z</time>
      </trkpt>
      <trkpt lat="45.50971" lon="3.43028">
        <ele>851</ele>
        <time>2012-10-21T08:46:31.000Z</time>
      </trkpt>
      <trkpt lat="45.50967" lon="3.43023">
        <ele>850</ele>
        <time>2012-10-21T08:46:32.000Z</time>
      </trkpt>
      <trkpt lat="45.50963" lon="3.43018">
        <ele>851</ele>
        <time>2012-10-21T08:46:33.000Z</time>
      </trkpt>
      <trkpt lat="45.50959" lon="3.43013">
        <ele>846</ele>
        <time>2012-10-21T08:46:34.000Z</time>
      </trkpt>
      <trkpt lat="45.50955" lon="3.43008">
        <ele>848</ele>
        <time>2012-10-21T08:46:35.000Z</time>
      </trkpt>
      <trkpt lat="45.50951" lon="3.43003">
        <ele>847</ele>
        <time>2012-10-21T08:46:36.000Z</time>
      </trkpt>
      <trkpt lat="45.50948" lon="3.42999">
        <ele>849</ele>
        <time>2012-10-21T08:46:37.000Z</time>
      </trkpt>
      <trkpt lat="45.50944" lon="3.42994">
        <ele>848</ele>
        <time>2012-10-21T08:46:38.000Z</time>
      </trkpt>
      <trkpt lat="45.50941" lon="3.42989">
        <ele>853</ele>
        <time>2012-10-21T08:46:39.000Z</time>
      </trkpt>
      <trkpt lat="45.50935" lon="3.42983">
        <ele>855</ele>
        <time>2012-10-21T08:46:40.000Z</time>
      </trkpt>
      <trkpt lat="45.5093" lon="3.42977">
        <ele>854</ele>
        <time>2012-10-21T08:46:41.000Z</time>
      </trkpt>
      <trkpt lat="45.50925" lon="3.42972">
        <ele>854</ele>
        <time>2012-10-21T08:46:42.000Z</time>
      </trkpt>
      <trkpt lat="45.50918" lon="3.42967">
        <ele>853</ele>
        <time>2012-10-21T08:46:43.000Z</time>
      </trkpt>
      <trkpt lat="45.50912" lon="3.42962">
        <ele>849</ele>
        <time>2012-10-21T08:46:44.000Z</time>
      </trkpt>
      <trkpt lat="45.50905" lon="3.42958">
        <ele>847</ele>
        <time>2012-10-21T08:46:45.000Z</time>
      </trkpt>
      <trkpt lat="45.50899" lon="3.42955">
        <ele>848</ele>
        <time>2012-10-21T08:46:46.000Z</time>
      </trkpt>
      <trkpt lat="45.50892" lon="3.42951">
        <ele>850</ele>
        <time>2012-10-21T08:46:47.000Z</time>
      </trkpt>
      <trkpt lat="45.50886" lon="3.42947">
        <ele>850</ele>
        <time>2012-10-21T08:46:48.000Z</time>
      </trkpt>
      <trkpt lat="45.50879" lon="3.42944">
        <ele>851</ele>
        <time>2012-10-21T08:46:49.000Z</time>
      </trkpt>
      <trkpt lat="45.50873" lon="3.4294">
        <ele>850</ele>
        <time>2012-10-21T08:46:50.000Z</time>
      </trkpt>
      <trkpt lat="45.50867" lon="3.42937">
        <ele>855</ele>
        <time>2012-10-21T08:46:51.000Z</time>
      </trkpt>
      <trkpt lat="45.50861" lon="3.42935">
        <ele>852</ele>
        <time>2012-10-21T08:46:52.000Z</time>
      </trkpt>
      <trkpt lat="45.50856" lon="3.42932">
        <ele>852</ele>
        <time>2012-10-21T08:46:53.000Z</time>
      </trkpt>
      <trkpt lat="45.50851" lon="3.4293">
        <ele>850</ele>
        <time>2012-10-21T08:46:54.000Z</time>
      </trkpt>
      <trkpt lat="45.50846" lon="3.42927">
        <ele>849</ele>
        <time>2012-10-21T08:46:55.000Z</time>
      </trkpt>
      <trkpt lat="45.50841" lon="3.42925">
        <ele>851</ele>
        <time>2012-10-21T08:46:56.000Z</time>
      </trkpt>
      <trkpt lat="45.50836" lon="3.42922">
        <ele>855</ele>
        <time>2012-10-21T08:46:57.000Z</time>
      </trkpt>
      <trkpt lat="45.50831" lon="3.42919">
        <ele>856</ele>
        <time>2012-10-21T08:46:58.000Z</time>
      </trkpt>
      <trkpt lat="45.50826" lon="3.42917">
        <ele>857</ele>
        <time>2012-10-21T08:46:59.000Z</time>
      </trkpt>
      <trkpt lat="45.50821" lon="3.42914">
        <ele>854</ele>
        <time>2012-10-21T08:47:00.000Z</time>
      </trkpt>
      <trkpt lat="45.50816" lon="3.42912">
        <ele>855</ele>
        <time>2012-10-21T08:47:01.000Z</time>
      </trkpt>
      <trkpt lat="45.50812" lon="3.42909">
        <ele>855</ele>
        <time>2012-10-21T08:47:02.000Z</time>
      </trkpt>
      <trkpt lat="45.50807" lon="3.42906">
        <ele>855</ele>
        <time>2012-10-21T08:47:03.000Z</time>
      </trkpt>
      <trkpt lat="45.50802" lon="3.42904">
        <ele>853</ele>
        <time>2012-10-21T08:47:04.000Z</time>
      </trkpt>
      <trkpt lat="45.50797" lon="3.42901">
        <ele>851</ele>
        <time>2012-10-21T08:47:05.000Z</time>
      </trkpt>
      <trkpt lat="45.50792" lon="3.42899">
        <ele>851</ele>
        <time>2012-10-21T08:47:06.000Z</time>
      </trkpt>
      <trkpt lat="45.50787" lon="3.42895">
        <ele>850</ele>
        <time>2012-10-21T08:47:07.000Z</time>
      </trkpt>
      <trkpt lat="45.50782" lon="3.42891">
        <ele>848</ele>
        <time>2012-10-21T08:47:08.000Z</time>
      </trkpt>
      <trkpt lat="45.50778" lon="3.42887">
        <ele>849</ele>
        <time>2012-10-21T08:47:09.000Z</time>
      </trkpt>
      <trkpt lat="45.50773" lon="3.42881">
        <ele>850</ele>
        <time>2012-10-21T08:47:10.000Z</time>
      </trkpt>
      <trkpt lat="45.50769" lon="3.42874">
        <ele>852</ele>
        <time>2012-10-21T08:47:11.000Z</time>
      </trkpt>
      <trkpt lat="45.50764" lon="3.42867">
        <ele>852</ele>
        <time>2012-10-21T08:47:12.000Z</time>
      </trkpt>
      <trkpt lat="45.50758" lon="3.4286">
        <ele>851</ele>
        <time>2012-10-21T08:47:13.000Z</time>
      </trkpt>
      <trkpt lat="45.50752" lon="3.42852">
        <ele>848</ele>
        <time>2012-10-21T08:47:14.000Z</time>
      </trkpt>
      <trkpt lat="45.50746" lon="3.42844">
        <ele>844</ele>
        <time>2012-10-21T08:47:15.000Z</time>
      </trkpt>
      <trkpt lat="45.50739" lon="3.42835">
        <ele>844</ele>
        <time>2012-10-21T08:47:16.000Z</time>
      </trkpt>
      <trkpt lat="45.50731" lon="3.42825">
        <ele>843</ele>
        <time>2012-10-21T08:47:17.000Z</time>
      </trkpt>
      <trkpt lat="45.50724" lon="3.42816">
        <ele>841</ele>
        <time>2012-10-21T08:47:18.000Z</time>
      </trkpt>
      <trkpt lat="45.50715" lon="3.42806">
        <ele>842</ele>
        <time>2012-10-21T08:47:19.000Z</time>
      </trkpt>
      <trkpt lat="45.50707" lon="3.42797">
        <ele>840</ele>
        <time>2012-10-21T08:47:20.000Z</time>
      </trkpt>
      <trkpt lat="45.507" lon="3.42788">
        <ele>839</ele>
        <time>2012-10-21T08:47:21.000Z</time>
      </trkpt>
      <trkpt lat="45.50693" lon="3.42779">
        <ele>838</ele>
        <time>2012-10-21T08:47:22.000Z</time>
      </trkpt>
      <trkpt lat="45.50685" lon="3.4277">
        <ele>837</ele>
        <time>2012-10-21T08:47:23.000Z</time>
      </trkpt>
      <trkpt lat="45.50678" lon="3.42761">
        <ele>834</ele>
        <time>2012-10-21T08:47:24.000Z</time>
      </trkpt>
      <trkpt lat="45.50671" lon="3.4275">
        <ele>836</ele>
        <time>2012-10-21T08:47:25.000Z</time>
      </trkpt>
      <trkpt lat="45.50663" lon="3.4274">
        <ele>837</ele>
        <time>2012-10-21T08:47:26.000Z</time>
      </trkpt>
      <trkpt lat="45.50655" lon="3.42728">
        <ele>837</ele>
        <time>2012-10-21T08:47:27.000Z</time>
      </trkpt>
      <trkpt lat="45.50647" lon="3.42714">
        <ele>834</ele>
        <time>2012-10-21T08:47:28.000Z</time>
      </trkpt>
      <trkpt lat="45.50639" lon="3.427">
        <ele>832</ele>
        <time>2012-10-21T08:47:29.000Z</time>
      </trkpt>
      <trkpt lat="45.50631" lon="3.42685">
        <ele>833</ele>
        <time>2012-10-21T08:47:30.000Z</time>
      </trkpt>
      <trkpt lat="45.50624" lon="3.4267">
        <ele>831</ele>
        <time>2012-10-21T08:47:31.000Z</time>
      </trkpt>
      <trkpt lat="45.50616" lon="3.42655">
        <ele>829</ele>
        <time>2012-10-21T08:47:32.000Z</time>
      </trkpt>
      <trkpt lat="45.50609" lon="3.42641">
        <ele>830</ele>
        <time>2012-10-21T08:47:33.000Z</time>
      </trkpt>
      <trkpt lat="45.50601" lon="3.42627">
        <ele>829</ele>
        <time>2012-10-21T08:47:34.000Z</time>
      </trkpt>
      <trkpt lat="45.50594" lon="3.42613">
        <ele>830</ele>
        <time>2012-10-21T08:47:35.000Z</time>
      </trkpt>
      <trkpt lat="45.50587" lon="3.42599">
        <ele>830</ele>
        <time>2012-10-21T08:47:36.000Z</time>
      </trkpt>
      <trkpt lat="45.50579" lon="3.42587">
        <ele>827</ele>
        <time>2012-10-21T08:47:37.000Z</time>
      </trkpt>
      <trkpt lat="45.50571" lon="3.42574">
        <ele>824</ele>
        <time>2012-10-21T08:47:38.000Z</time>
      </trkpt>
      <trkpt lat="45.50563" lon="3.42561">
        <ele>822</ele>
        <time>2012-10-21T08:47:39.000Z</time>
      </trkpt>
      <trkpt lat="45.50556" lon="3.42549">
        <ele>823</ele>
        <time>2012-10-21T08:47:40.000Z</time>
      </trkpt>
      <trkpt lat="45.50549" lon="3.42538">
        <ele>824</ele>
        <time>2012-10-21T08:47:41.000Z</time>
      </trkpt>
      <trkpt lat="45.50541" lon="3.42526">
        <ele>824</ele>
        <time>2012-10-21T08:47:42.000Z</time>
      </trkpt>
      <trkpt lat="45.50535" lon="3.42514">
        <ele>824</ele>
        <time>2012-10-21T08:47:43.000Z</time>
      </trkpt>
      <trkpt lat="45.50528" lon="3.42501">
        <ele>822</ele>
        <time>2012-10-21T08:47:44.000Z</time>
      </trkpt>
      <trkpt lat="45.50521" lon="3.42489">
        <ele>819</ele>
        <time>2012-10-21T08:47:45.000Z</time>
      </trkpt>
      <trkpt lat="45.50515" lon="3.42478">
        <ele>820</ele>
        <time>2012-10-21T08:47:46.000Z</time>
      </trkpt>
      <trkpt lat="45.50508" lon="3.42466">
        <ele>820</ele>
        <time>2012-10-21T08:47:47.000Z</time>
      </trkpt>
      <trkpt lat="45.50503" lon="3.42457">
        <ele>819</ele>
        <time>2012-10-21T08:47:48.000Z</time>
      </trkpt>
      <trkpt lat="45.50498" lon="3.42449">
        <ele>817</ele>
        <time>2012-10-21T08:47:49.000Z</time>
      </trkpt>
      <trkpt lat="45.50493" lon="3.42442">
        <ele>817</ele>
        <time>2012-10-21T08:47:50.000Z</time>
      </trkpt>
      <trkpt lat="45.50489" lon="3.42437">
        <ele>814</ele>
        <time>2012-10-21T08:47:51.000Z</time>
      </trkpt>
      <trkpt lat="45.50487" lon="3.42433">
        <ele>815</ele>
        <time>2012-10-21T08:47:52.000Z</time>
      </trkpt>
      <trkpt lat="45.50484" lon="3.4243">
        <ele>814</ele>
        <time>2012-10-21T08:47:53.000Z</time>
      </trkpt>
      <trkpt lat="45.50481" lon="3.42428">
        <ele>813</ele>
        <time>2012-10-21T08:47:54.000Z</time>
      </trkpt>
      <trkpt lat="45.50478" lon="3.42426">
        <ele>814</ele>
        <time>2012-10-21T08:47:55.000Z</time>
      </trkpt>
      <trkpt lat="45.50475" lon="3.42425">
        <ele>813</ele>
        <time>2012-10-21T08:47:56.000Z</time>
      </trkpt>
      <trkpt lat="45.50473" lon="3.42425">
        <ele>813</ele>
        <time>2012-10-21T08:47:57.000Z</time>
      </trkpt>
      <trkpt lat="45.50466" lon="3.42427">
        <ele>821</ele>
        <time>2012-10-21T08:48:00.000Z</time>
      </trkpt>
      <trkpt lat="45.50461" lon="3.42428">
        <ele>818</ele>
        <time>2012-10-21T08:48:01.000Z</time>
      </trkpt>
      <trkpt lat="45.50456" lon="3.42428">
        <ele>813</ele>
        <time>2012-10-21T08:48:02.000Z</time>
      </trkpt>
      <trkpt lat="45.50451" lon="3.42426">
        <ele>810</ele>
        <time>2012-10-21T08:48:03.000Z</time>
      </trkpt>
      <trkpt lat="45.50446" lon="3.42424">
        <ele>807</ele>
        <time>2012-10-21T08:48:04.000Z</time>
      </trkpt>
      <trkpt lat="45.5044" lon="3.42421">
        <ele>806</ele>
        <time>2012-10-21T08:48:05.000Z</time>
      </trkpt>
      <trkpt lat="45.50434" lon="3.42418">
        <ele>804</ele>
        <time>2012-10-21T08:48:06.000Z</time>
      </trkpt>
      <trkpt lat="45.50428" lon="3.42414">
        <ele>805</ele>
        <time>2012-10-21T08:48:07.000Z</time>
      </trkpt>
      <trkpt lat="45.50424" lon="3.4241">
        <ele>810</ele>
        <time>2012-10-21T08:48:08.000Z</time>
      </trkpt>
      <trkpt lat="45.5042" lon="3.42406">
        <ele>808</ele>
        <time>2012-10-21T08:48:09.000Z</time>
      </trkpt>
      <trkpt lat="45.50416" lon="3.42401">
        <ele>807</ele>
        <time>2012-10-21T08:48:10.000Z</time>
      </trkpt>
      <trkpt lat="45.50411" lon="3.42396">
        <ele>808</ele>
        <time>2012-10-21T08:48:11.000Z</time>
      </trkpt>
      <trkpt lat="45.50409" lon="3.42389">
        <ele>807</ele>
        <time>2012-10-21T08:48:12.000Z</time>
      </trkpt>
      <trkpt lat="45.50407" lon="3.42383">
        <ele>805</ele>
        <time>2012-10-21T08:48:13.000Z</time>
      </trkpt>
      <trkpt lat="45.50407" lon="3.42378">
        <ele>804</ele>
        <time>2012-10-21T08:48:14.000Z</time>
      </trkpt>
      <trkpt lat="45.50409" lon="3.42374">
        <ele>804</ele>
        <time>2012-10-21T08:48:15.000Z</time>
      </trkpt>
      <trkpt lat="45.50409" lon="3.42368">
        <ele>796</ele>
        <time>2012-10-21T08:48:16.000Z</time>
      </trkpt>
      <trkpt lat="45.5041" lon="3.42364">
        <ele>798</ele>
        <time>2012-10-21T08:48:17.000Z</time>
      </trkpt>
      <trkpt lat="45.50409" lon="3.42359">
        <ele>799</ele>
        <time>2012-10-21T08:48:18.000Z</time>
      </trkpt>
      <trkpt lat="45.50407" lon="3.42354">
        <ele>799</ele>
        <time>2012-10-21T08:48:19.000Z</time>
      </trkpt>
      <trkpt lat="45.50406" lon="3.4235">
        <ele>797</ele>
        <time>2012-10-21T08:48:20.000Z</time>
      </trkpt>
      <trkpt lat="45.50403" lon="3.42346">
        <ele>796</ele>
        <time>2012-10-21T08:48:21.000Z</time>
      </trkpt>
      <trkpt lat="45.50399" lon="3.42341">
        <ele>799</ele>
        <time>2012-10-21T08:48:22.000Z</time>
      </trkpt>
      <trkpt lat="45.50396" lon="3.42338">
        <ele>798</ele>
        <time>2012-10-21T08:48:23.000Z</time>
      </trkpt>
      <trkpt lat="45.50394" lon="3.42334">
        <ele>798</ele>
        <time>2012-10-21T08:48:24.000Z</time>
      </trkpt>
      <trkpt lat="45.50392" lon="3.42329">
        <ele>796</ele>
        <time>2012-10-21T08:48:25.000Z</time>
      </trkpt>
      <trkpt lat="45.5039" lon="3.42321">
        <ele>797</ele>
        <time>2012-10-21T08:48:26.000Z</time>
      </trkpt>
      <trkpt lat="45.50389" lon="3.42313">
        <ele>797</ele>
        <time>2012-10-21T08:48:27.000Z</time>
      </trkpt>
      <trkpt lat="45.5039" lon="3.42303">
        <ele>798</ele>
        <time>2012-10-21T08:48:28.000Z</time>
      </trkpt>
      <trkpt lat="45.50393" lon="3.42293">
        <ele>798</ele>
        <time>2012-10-21T08:48:29.000Z</time>
      </trkpt>
      <trkpt lat="45.50397" lon="3.42284">
        <ele>801</ele>
        <time>2012-10-21T08:48:30.000Z</time>
      </trkpt>
      <trkpt lat="45.50402" lon="3.42276">
        <ele>800</ele>
        <time>2012-10-21T08:48:31.000Z</time>
      </trkpt>
      <trkpt lat="45.50407" lon="3.42268">
        <ele>799</ele>
        <time>2012-10-21T08:48:32.000Z</time>
      </trkpt>
      <trkpt lat="45.50413" lon="3.42259">
        <ele>797</ele>
        <time>2012-10-21T08:48:33.000Z</time>
      </trkpt>
      <trkpt lat="45.50417" lon="3.42252">
        <ele>796</ele>
        <time>2012-10-21T08:48:34.000Z</time>
      </trkpt>
      <trkpt lat="45.50426" lon="3.4224">
        <ele>790</ele>
        <time>2012-10-21T08:48:37.000Z</time>
      </trkpt>
      <trkpt lat="45.50429" lon="3.42235">
        <ele>792</ele>
        <time>2012-10-21T08:48:38.000Z</time>
      </trkpt>
      <trkpt lat="45.50431" lon="3.42218">
        <ele>790</ele>
        <time>2012-10-21T08:48:42.000Z</time>
      </trkpt>
      <trkpt lat="45.50425" lon="3.42208">
        <ele>791</ele>
        <time>2012-10-21T08:48:46.000Z</time>
      </trkpt>
      <trkpt lat="45.50414" lon="3.42205">
        <ele>798</ele>
        <time>2012-10-21T08:48:50.000Z</time>
      </trkpt>
      <trkpt lat="45.50403" lon="3.42208">
        <ele>794</ele>
        <time>2012-10-21T08:48:53.000Z</time>
      </trkpt>
      <trkpt lat="45.504" lon="3.42209">
        <ele>791</ele>
        <time>2012-10-21T08:48:56.000Z</time>
      </trkpt>
      <trkpt lat="45.50389" lon="3.42209">
        <ele>796</ele>
        <time>2012-10-21T08:48:57.000Z</time>
      </trkpt>
      <trkpt lat="45.50385" lon="3.42207">
        <ele>791</ele>
        <time>2012-10-21T08:48:59.000Z</time>
      </trkpt>
      <trkpt lat="45.50382" lon="3.42204">
        <ele>793</ele>
        <time>2012-10-21T08:49:00.000Z</time>
      </trkpt>
      <trkpt lat="45.5038" lon="3.42201">
        <ele>794</ele>
        <time>2012-10-21T08:49:01.000Z</time>
      </trkpt>
      <trkpt lat="45.50379" lon="3.42188">
        <ele>787</ele>
        <time>2012-10-21T08:49:06.000Z</time>
      </trkpt>
      <trkpt lat="45.50384" lon="3.42172">
        <ele>782</ele>
        <time>2012-10-21T08:49:09.000Z</time>
      </trkpt>
      <trkpt lat="45.50386" lon="3.42166">
        <ele>777</ele>
        <time>2012-10-21T08:49:10.000Z</time>
      </trkpt>
      <trkpt lat="45.50387" lon="3.42158">
        <ele>772</ele>
        <time>2012-10-21T08:49:11.000Z</time>
      </trkpt>
      <trkpt lat="45.50388" lon="3.42149">
        <ele>771</ele>
        <time>2012-10-21T08:49:12.000Z</time>
      </trkpt>
      <trkpt lat="45.50389" lon="3.42135">
        <ele>765</ele>
        <time>2012-10-21T08:49:16.000Z</time>
      </trkpt>
      <trkpt lat="45.50391" lon="3.42148">
        <ele>784</ele>
        <time>2012-10-21T08:49:47.000Z</time>
      </trkpt>
      <trkpt lat="45.5039" lon="3.42135">
        <ele>778</ele>
        <time>2012-10-21T08:50:12.000Z</time>
      </trkpt>
      <trkpt lat="45.50393" lon="3.42123">
        <ele>784</ele>
        <time>2012-10-21T08:50:21.000Z</time>
      </trkpt>
      <trkpt lat="45.504" lon="3.42113">
        <ele>782</ele>
        <time>2012-10-21T08:50:30.000Z</time>
      </trkpt>
      <trkpt lat="45.50406" lon="3.42101">
        <ele>789</ele>
        <time>2012-10-21T08:50:36.000Z</time>
      </trkpt>
      <trkpt lat="45.50405" lon="3.42085">
        <ele>790</ele>
        <time>2012-10-21T08:50:41.000Z</time>
      </trkpt>
      <trkpt lat="45.50401" lon="3.42073">
        <ele>783</ele>
        <time>2012-10-21T08:50:47.000Z</time>
      </trkpt>
      <trkpt lat="45.50393" lon="3.42067">
        <ele>787</ele>
        <time>2012-10-21T08:51:01.000Z</time>
      </trkpt>
      <trkpt lat="45.50384" lon="3.42065">
        <ele>801</ele>
        <time>2012-10-21T08:51:09.000Z</time>
      </trkpt>
      <trkpt lat="45.50375" lon="3.42061">
        <ele>811</ele>
        <time>2012-10-21T08:51:20.000Z</time>
      </trkpt>
      <trkpt lat="45.50366" lon="3.42054">
        <ele>807</ele>
        <time>2012-10-21T08:51:28.000Z</time>
      </trkpt>
      <trkpt lat="45.50359" lon="3.42044">
        <ele>809</ele>
        <time>2012-10-21T08:51:34.000Z</time>
      </trkpt>
      <trkpt lat="45.50352" lon="3.42032">
        <ele>805</ele>
        <time>2012-10-21T08:51:39.000Z</time>
      </trkpt>
      <trkpt lat="45.50344" lon="3.42023">
        <ele>816</ele>
        <time>2012-10-21T08:51:48.000Z</time>
      </trkpt>
      <trkpt lat="45.50339" lon="3.42011">
        <ele>808</ele>
        <time>2012-10-21T08:51:56.000Z</time>
      </trkpt>
      <trkpt lat="45.50332" lon="3.42">
        <ele>813</ele>
        <time>2012-10-21T08:52:03.000Z</time>
      </trkpt>
      <trkpt lat="45.50326" lon="3.4199">
        <ele>818</ele>
        <time>2012-10-21T08:52:10.000Z</time>
      </trkpt>
      <trkpt lat="45.50319" lon="3.41979">
        <ele>821</ele>
        <time>2012-10-21T08:52:19.000Z</time>
      </trkpt>
      <trkpt lat="45.50315" lon="3.41967">
        <ele>828</ele>
        <time>2012-10-21T08:52:28.000Z</time>
      </trkpt>
      <trkpt lat="45.50316" lon="3.41954">
        <ele>822</ele>
        <time>2012-10-21T08:52:34.000Z</time>
      </trkpt>
      <trkpt lat="45.50315" lon="3.41938">
        <ele>819</ele>
        <time>2012-10-21T08:52:42.000Z</time>
      </trkpt>
      <trkpt lat="45.50311" lon="3.41927">
        <ele>817</ele>
        <time>2012-10-21T08:52:49.000Z</time>
      </trkpt>
      <trkpt lat="45.50303" lon="3.41915">
        <ele>819</ele>
        <time>2012-10-21T08:52:55.000Z</time>
      </trkpt>
      <trkpt lat="45.50297" lon="3.41904">
        <ele>822</ele>
        <time>2012-10-21T08:52:59.000Z</time>
      </trkpt>
      <trkpt lat="45.50296" lon="3.41901">
        <ele>822</ele>
        <time>2012-10-21T08:53:00.000Z</time>
      </trkpt>
      <trkpt lat="45.50294" lon="3.41898">
        <ele>821</ele>
        <time>2012-10-21T08:53:01.000Z</time>
      </trkpt>
      <trkpt lat="45.50292" lon="3.41894">
        <ele>822</ele>
        <time>2012-10-21T08:53:02.000Z</time>
      </trkpt>
      <trkpt lat="45.5029" lon="3.4189">
        <ele>820</ele>
        <time>2012-10-21T08:53:03.000Z</time>
      </trkpt>
      <trkpt lat="45.50289" lon="3.41887">
        <ele>821</ele>
        <time>2012-10-21T08:53:04.000Z</time>
      </trkpt>
      <trkpt lat="45.50287" lon="3.41884">
        <ele>822</ele>
        <time>2012-10-21T08:53:05.000Z</time>
      </trkpt>
      <trkpt lat="45.50286" lon="3.41882">
        <ele>822</ele>
        <time>2012-10-21T08:53:06.000Z</time>
      </trkpt>
      <trkpt lat="45.50285" lon="3.41879">
        <ele>822</ele>
        <time>2012-10-21T08:53:07.000Z</time>
      </trkpt>
      <trkpt lat="45.50283" lon="3.41876">
        <ele>822</ele>
        <time>2012-10-21T08:53:08.000Z</time>
      </trkpt>
      <trkpt lat="45.50282" lon="3.41873">
        <ele>822</ele>
        <time>2012-10-21T08:53:09.000Z</time>
      </trkpt>
      <trkpt lat="45.5028" lon="3.4187">
        <ele>822</ele>
        <time>2012-10-21T08:53:10.000Z</time>
      </trkpt>
      <trkpt lat="45.50279" lon="3.41868">
        <ele>820</ele>
        <time>2012-10-21T08:53:11.000Z</time>
      </trkpt>
      <trkpt lat="45.50277" lon="3.41864">
        <ele>820</ele>
        <time>2012-10-21T08:53:12.000Z</time>
      </trkpt>
      <trkpt lat="45.50276" lon="3.41861">
        <ele>821</ele>
        <time>2012-10-21T08:53:13.000Z</time>
      </trkpt>
      <trkpt lat="45.50274" lon="3.41858">
        <ele>820</ele>
        <time>2012-10-21T08:53:14.000Z</time>
      </trkpt>
      <trkpt lat="45.50272" lon="3.41854">
        <ele>820</ele>
        <time>2012-10-21T08:53:15.000Z</time>
      </trkpt>
      <trkpt lat="45.5027" lon="3.41851">
        <ele>816</ele>
        <time>2012-10-21T08:53:16.000Z</time>
      </trkpt>
      <trkpt lat="45.50268" lon="3.41848">
        <ele>815</ele>
        <time>2012-10-21T08:53:17.000Z</time>
      </trkpt>
      <trkpt lat="45.50267" lon="3.41845">
        <ele>815</ele>
        <time>2012-10-21T08:53:18.000Z</time>
      </trkpt>
      <trkpt lat="45.50265" lon="3.41842">
        <ele>816</ele>
        <time>2012-10-21T08:53:19.000Z</time>
      </trkpt>
      <trkpt lat="45.50264" lon="3.41839">
        <ele>814</ele>
        <time>2012-10-21T08:53:20.000Z</time>
      </trkpt>
      <trkpt lat="45.50262" lon="3.41836">
        <ele>818</ele>
        <time>2012-10-21T08:53:21.000Z</time>
      </trkpt>
      <trkpt lat="45.5026" lon="3.41833">
        <ele>819</ele>
        <time>2012-10-21T08:53:22.000Z</time>
      </trkpt>
      <trkpt lat="45.50258" lon="3.41829">
        <ele>819</ele>
        <time>2012-10-21T08:53:23.000Z</time>
      </trkpt>
      <trkpt lat="45.50256" lon="3.41826">
        <ele>818</ele>
        <time>2012-10-21T08:53:24.000Z</time>
      </trkpt>
      <trkpt lat="45.50254" lon="3.41823">
        <ele>815</ele>
        <time>2012-10-21T08:53:25.000Z</time>
      </trkpt>
      <trkpt lat="45.50252" lon="3.41819">
        <ele>813</ele>
        <time>2012-10-21T08:53:26.000Z</time>
      </trkpt>
      <trkpt lat="45.5025" lon="3.41814">
        <ele>811</ele>
        <time>2012-10-21T08:53:27.000Z</time>
      </trkpt>
      <trkpt lat="45.50249" lon="3.4181">
        <ele>811</ele>
        <time>2012-10-21T08:53:28.000Z</time>
      </trkpt>
      <trkpt lat="45.50248" lon="3.41806">
        <ele>811</ele>
        <time>2012-10-21T08:53:29.000Z</time>
      </trkpt>
      <trkpt lat="45.50246" lon="3.41803">
        <ele>811</ele>
        <time>2012-10-21T08:53:30.000Z</time>
      </trkpt>
      <trkpt lat="45.50245" lon="3.41799">
        <ele>812</ele>
        <time>2012-10-21T08:53:31.000Z</time>
      </trkpt>
      <trkpt lat="45.50242" lon="3.41794">
        <ele>817</ele>
        <time>2012-10-21T08:53:33.000Z</time>
      </trkpt>
      <trkpt lat="45.50241" lon="3.41791">
        <ele>817</ele>
        <time>2012-10-21T08:53:34.000Z</time>
      </trkpt>
      <trkpt lat="45.50239" lon="3.41786">
        <ele>814</ele>
        <time>2012-10-21T08:53:36.000Z</time>
      </trkpt>
      <trkpt lat="45.50238" lon="3.41784">
        <ele>814</ele>
        <time>2012-10-21T08:53:37.000Z</time>
      </trkpt>
      <trkpt lat="45.50236" lon="3.41778">
        <ele>812</ele>
        <time>2012-10-21T08:53:39.000Z</time>
      </trkpt>
      <trkpt lat="45.50234" lon="3.41775">
        <ele>813</ele>
        <time>2012-10-21T08:53:40.000Z</time>
      </trkpt>
      <trkpt lat="45.50232" lon="3.4177">
        <ele>815</ele>
        <time>2012-10-21T08:53:42.000Z</time>
      </trkpt>
      <trkpt lat="45.50231" lon="3.41768">
        <ele>817</ele>
        <time>2012-10-21T08:53:43.000Z</time>
      </trkpt>
      <trkpt lat="45.50228" lon="3.41765">
        <ele>818</ele>
        <time>2012-10-21T08:53:45.000Z</time>
      </trkpt>
      <trkpt lat="45.50227" lon="3.41763">
        <ele>821</ele>
        <time>2012-10-21T08:53:46.000Z</time>
      </trkpt>
      <trkpt lat="45.50225" lon="3.41759">
        <ele>822</ele>
        <time>2012-10-21T08:53:49.000Z</time>
      </trkpt>
      <trkpt lat="45.50224" lon="3.41757">
        <ele>821</ele>
        <time>2012-10-21T08:53:50.000Z</time>
      </trkpt>
      <trkpt lat="45.50223" lon="3.41754">
        <ele>818</ele>
        <time>2012-10-21T08:53:51.000Z</time>
      </trkpt>
      <trkpt lat="45.50223" lon="3.4175">
        <ele>820</ele>
        <time>2012-10-21T08:53:52.000Z</time>
      </trkpt>
      <trkpt lat="45.50223" lon="3.41747">
        <ele>820</ele>
        <time>2012-10-21T08:53:53.000Z</time>
      </trkpt>
      <trkpt lat="45.50223" lon="3.41743">
        <ele>821</ele>
        <time>2012-10-21T08:53:54.000Z</time>
      </trkpt>
      <trkpt lat="45.50223" lon="3.41737">
        <ele>813</ele>
        <time>2012-10-21T08:53:56.000Z</time>
      </trkpt>
      <trkpt lat="45.50223" lon="3.41734">
        <ele>810</ele>
        <time>2012-10-21T08:53:57.000Z</time>
      </trkpt>
      <trkpt lat="45.50225" lon="3.4173">
        <ele>814</ele>
        <time>2012-10-21T08:53:59.000Z</time>
      </trkpt>
      <trkpt lat="45.50227" lon="3.41727">
        <ele>817</ele>
        <time>2012-10-21T08:54:00.000Z</time>
      </trkpt>
      <trkpt lat="45.50231" lon="3.41723">
        <ele>819</ele>
        <time>2012-10-21T08:54:02.000Z</time>
      </trkpt>
      <trkpt lat="45.50232" lon="3.41722">
        <ele>822</ele>
        <time>2012-10-21T08:54:03.000Z</time>
      </trkpt>
      <trkpt lat="45.50235" lon="3.41721">
        <ele>826</ele>
        <time>2012-10-21T08:54:05.000Z</time>
      </trkpt>
      <trkpt lat="45.50236" lon="3.4172">
        <ele>825</ele>
        <time>2012-10-21T08:54:06.000Z</time>
      </trkpt>
      <trkpt lat="45.5024" lon="3.41719">
        <ele>823</ele>
        <time>2012-10-21T08:54:09.000Z</time>
      </trkpt>
      <trkpt lat="45.50241" lon="3.41718">
        <ele>820</ele>
        <time>2012-10-21T08:54:10.000Z</time>
      </trkpt>
      <trkpt lat="45.50244" lon="3.41717">
        <ele>825</ele>
        <time>2012-10-21T08:54:14.000Z</time>
      </trkpt>
      <trkpt lat="45.50246" lon="3.41716">
        <ele>823</ele>
        <time>2012-10-21T08:54:15.000Z</time>
      </trkpt>
      <trkpt lat="45.50249" lon="3.41715">
        <ele>822</ele>
        <time>2012-10-21T08:54:17.000Z</time>
      </trkpt>
      <trkpt lat="45.5025" lon="3.41715">
        <ele>821</ele>
        <time>2012-10-21T08:54:18.000Z</time>
      </trkpt>
      <trkpt lat="45.50254" lon="3.41715">
        <ele>817</ele>
        <time>2012-10-21T08:54:20.000Z</time>
      </trkpt>
      <trkpt lat="45.50256" lon="3.41715">
        <ele>819</ele>
        <time>2012-10-21T08:54:21.000Z</time>
      </trkpt>
      <trkpt lat="45.50258" lon="3.41715">
        <ele>822</ele>
        <time>2012-10-21T08:54:22.000Z</time>
      </trkpt>
      <trkpt lat="45.50261" lon="3.41715">
        <ele>824</ele>
        <time>2012-10-21T08:54:23.000Z</time>
      </trkpt>
      <trkpt lat="45.50264" lon="3.41715">
        <ele>818</ele>
        <time>2012-10-21T08:54:24.000Z</time>
      </trkpt>
      <trkpt lat="45.50267" lon="3.41714">
        <ele>820</ele>
        <time>2012-10-21T08:54:25.000Z</time>
      </trkpt>
      <trkpt lat="45.5027" lon="3.41713">
        <ele>822</ele>
        <time>2012-10-21T08:54:26.000Z</time>
      </trkpt>
      <trkpt lat="45.50272" lon="3.41712">
        <ele>826</ele>
        <time>2012-10-21T08:54:27.000Z</time>
      </trkpt>
      <trkpt lat="45.50274" lon="3.41711">
        <ele>826</ele>
        <time>2012-10-21T08:54:28.000Z</time>
      </trkpt>
      <trkpt lat="45.50277" lon="3.4171">
        <ele>827</ele>
        <time>2012-10-21T08:54:29.000Z</time>
      </trkpt>
      <trkpt lat="45.50279" lon="3.41708">
        <ele>827</ele>
        <time>2012-10-21T08:54:30.000Z</time>
      </trkpt>
      <trkpt lat="45.50281" lon="3.41705">
        <ele>827</ele>
        <time>2012-10-21T08:54:31.000Z</time>
      </trkpt>
      <trkpt lat="45.50284" lon="3.41701">
        <ele>825</ele>
        <time>2012-10-21T08:54:33.000Z</time>
      </trkpt>
      <trkpt lat="45.50285" lon="3.41698">
        <ele>826</ele>
        <time>2012-10-21T08:54:34.000Z</time>
      </trkpt>
      <trkpt lat="45.50288" lon="3.41693">
        <ele>826</ele>
        <time>2012-10-21T08:54:36.000Z</time>
      </trkpt>
      <trkpt lat="45.50289" lon="3.41691">
        <ele>826</ele>
        <time>2012-10-21T08:54:37.000Z</time>
      </trkpt>
      <trkpt lat="45.50291" lon="3.41686">
        <ele>826</ele>
        <time>2012-10-21T08:54:39.000Z</time>
      </trkpt>
      <trkpt lat="45.50292" lon="3.41683">
        <ele>826</ele>
        <time>2012-10-21T08:54:40.000Z</time>
      </trkpt>
      <trkpt lat="45.50294" lon="3.41678">
        <ele>828</ele>
        <time>2012-10-21T08:54:42.000Z</time>
      </trkpt>
      <trkpt lat="45.50295" lon="3.41675">
        <ele>829</ele>
        <time>2012-10-21T08:54:43.000Z</time>
      </trkpt>
      <trkpt lat="45.50296" lon="3.41672">
        <ele>829</ele>
        <time>2012-10-21T08:54:44.000Z</time>
      </trkpt>
      <trkpt lat="45.50297" lon="3.41669">
        <ele>828</ele>
        <time>2012-10-21T08:54:45.000Z</time>
      </trkpt>
      <trkpt lat="45.50298" lon="3.41666">
        <ele>827</ele>
        <time>2012-10-21T08:54:46.000Z</time>
      </trkpt>
      <trkpt lat="45.503" lon="3.41663">
        <ele>826</ele>
        <time>2012-10-21T08:54:47.000Z</time>
      </trkpt>
      <trkpt lat="45.50301" lon="3.4166">
        <ele>825</ele>
        <time>2012-10-21T08:54:48.000Z</time>
      </trkpt>
      <trkpt lat="45.50302" lon="3.41657">
        <ele>824</ele>
        <time>2012-10-21T08:54:49.000Z</time>
      </trkpt>
      <trkpt lat="45.50304" lon="3.41652">
        <ele>822</ele>
        <time>2012-10-21T08:54:51.000Z</time>
      </trkpt>
      <trkpt lat="45.50306" lon="3.4165">
        <ele>823</ele>
        <time>2012-10-21T08:54:52.000Z</time>
      </trkpt>
      <trkpt lat="45.50307" lon="3.41647">
        <ele>823</ele>
        <time>2012-10-21T08:54:53.000Z</time>
      </trkpt>
      <trkpt lat="45.50308" lon="3.41644">
        <ele>823</ele>
        <time>2012-10-21T08:54:54.000Z</time>
      </trkpt>
      <trkpt lat="45.5031" lon="3.41638">
        <ele>825</ele>
        <time>2012-10-21T08:54:56.000Z</time>
      </trkpt>
      <trkpt lat="45.50311" lon="3.41637">
        <ele>824</ele>
        <time>2012-10-21T08:54:57.000Z</time>
      </trkpt>
      <trkpt lat="45.50314" lon="3.41633">
        <ele>829</ele>
        <time>2012-10-21T08:54:59.000Z</time>
      </trkpt>
      <trkpt lat="45.50314" lon="3.41631">
        <ele>828</ele>
        <time>2012-10-21T08:55:00.000Z</time>
      </trkpt>
      <trkpt lat="45.50313" lon="3.41625">
        <ele>827</ele>
        <time>2012-10-21T08:55:03.000Z</time>
      </trkpt>
      <trkpt lat="45.50313" lon="3.41623">
        <ele>826</ele>
        <time>2012-10-21T08:55:04.000Z</time>
      </trkpt>
      <trkpt lat="45.50311" lon="3.41618">
        <ele>831</ele>
        <time>2012-10-21T08:55:08.000Z</time>
      </trkpt>
      <trkpt lat="45.5031" lon="3.41617">
        <ele>830</ele>
        <time>2012-10-21T08:55:09.000Z</time>
      </trkpt>
      <trkpt lat="45.50307" lon="3.4162">
        <ele>835</ele>
        <time>2012-10-21T08:57:38.000Z</time>
      </trkpt>
      <trkpt lat="45.50305" lon="3.4162">
        <ele>834</ele>
        <time>2012-10-21T08:57:39.000Z</time>
      </trkpt>
      <trkpt lat="45.50303" lon="3.4162">
        <ele>832</ele>
        <time>2012-10-21T08:57:40.000Z</time>
      </trkpt>
      <trkpt lat="45.503" lon="3.4162">
        <ele>832</ele>
        <time>2012-10-21T08:57:41.000Z</time>
      </trkpt>
      <trkpt lat="45.50296" lon="3.41619">
        <ele>831</ele>
        <time>2012-10-21T08:57:42.000Z</time>
      </trkpt>
      <trkpt lat="45.50293" lon="3.41618">
        <ele>830</ele>
        <time>2012-10-21T08:57:43.000Z</time>
      </trkpt>
      <trkpt lat="45.50288" lon="3.41616">
        <ele>831</ele>
        <time>2012-10-21T08:57:44.000Z</time>
      </trkpt>
      <trkpt lat="45.50285" lon="3.41615">
        <ele>831</ele>
        <time>2012-10-21T08:57:45.000Z</time>
      </trkpt>
      <trkpt lat="45.50282" lon="3.41613">
        <ele>831</ele>
        <time>2012-10-21T08:57:46.000Z</time>
      </trkpt>
      <trkpt lat="45.50278" lon="3.41612">
        <ele>831</ele>
        <time>2012-10-21T08:57:47.000Z</time>
      </trkpt>
      <trkpt lat="45.50275" lon="3.4161">
        <ele>831</ele>
        <time>2012-10-21T08:57:48.000Z</time>
      </trkpt>
      <trkpt lat="45.50271" lon="3.41609">
        <ele>830</ele>
        <time>2012-10-21T08:57:49.000Z</time>
      </trkpt>
      <trkpt lat="45.50267" lon="3.41606">
        <ele>830</ele>
        <time>2012-10-21T08:57:50.000Z</time>
      </trkpt>
      <trkpt lat="45.50264" lon="3.41604">
        <ele>831</ele>
        <time>2012-10-21T08:57:51.000Z</time>
      </trkpt>
      <trkpt lat="45.5026" lon="3.41602">
        <ele>832</ele>
        <time>2012-10-21T08:57:52.000Z</time>
      </trkpt>
      <trkpt lat="45.50255" lon="3.416">
        <ele>832</ele>
        <time>2012-10-21T08:57:53.000Z</time>
      </trkpt>
      <trkpt lat="45.5025" lon="3.416">
        <ele>833</ele>
        <time>2012-10-21T08:57:54.000Z</time>
      </trkpt>
      <trkpt lat="45.50244" lon="3.41601">
        <ele>832</ele>
        <time>2012-10-21T08:57:55.000Z</time>
      </trkpt>
      <trkpt lat="45.50239" lon="3.41604">
        <ele>831</ele>
        <time>2012-10-21T08:57:56.000Z</time>
      </trkpt>
      <trkpt lat="45.50234" lon="3.41609">
        <ele>831</ele>
        <time>2012-10-21T08:57:57.000Z</time>
      </trkpt>
      <trkpt lat="45.50229" lon="3.41615">
        <ele>830</ele>
        <time>2012-10-21T08:57:58.000Z</time>
      </trkpt>
      <trkpt lat="45.50224" lon="3.4162">
        <ele>829</ele>
        <time>2012-10-21T08:57:59.000Z</time>
      </trkpt>
      <trkpt lat="45.5022" lon="3.41625">
        <ele>828</ele>
        <time>2012-10-21T08:58:00.000Z</time>
      </trkpt>
      <trkpt lat="45.50217" lon="3.4163">
        <ele>826</ele>
        <time>2012-10-21T08:58:01.000Z</time>
      </trkpt>
      <trkpt lat="45.50213" lon="3.41635">
        <ele>825</ele>
        <time>2012-10-21T08:58:02.000Z</time>
      </trkpt>
      <trkpt lat="45.5021" lon="3.4164">
        <ele>823</ele>
        <time>2012-10-21T08:58:03.000Z</time>
      </trkpt>
      <trkpt lat="45.50206" lon="3.41644">
        <ele>822</ele>
        <time>2012-10-21T08:58:04.000Z</time>
      </trkpt>
      <trkpt lat="45.50202" lon="3.41648">
        <ele>824</ele>
        <time>2012-10-21T08:58:05.000Z</time>
      </trkpt>
      <trkpt lat="45.50198" lon="3.41653">
        <ele>828</ele>
        <time>2012-10-21T08:58:06.000Z</time>
      </trkpt>
      <trkpt lat="45.50194" lon="3.41656">
        <ele>829</ele>
        <time>2012-10-21T08:58:07.000Z</time>
      </trkpt>
      <trkpt lat="45.5019" lon="3.41658">
        <ele>829</ele>
        <time>2012-10-21T08:58:08.000Z</time>
      </trkpt>
      <trkpt lat="45.50187" lon="3.4166">
        <ele>830</ele>
        <time>2012-10-21T08:58:09.000Z</time>
      </trkpt>
      <trkpt lat="45.50183" lon="3.4166">
        <ele>829</ele>
        <time>2012-10-21T08:58:10.000Z</time>
      </trkpt>
      <trkpt lat="45.50181" lon="3.41658">
        <ele>830</ele>
        <time>2012-10-21T08:58:11.000Z</time>
      </trkpt>
      <trkpt lat="45.50179" lon="3.41655">
        <ele>829</ele>
        <time>2012-10-21T08:58:12.000Z</time>
      </trkpt>
      <trkpt lat="45.50178" lon="3.41652">
        <ele>832</ele>
        <time>2012-10-21T08:58:13.000Z</time>
      </trkpt>
      <trkpt lat="45.50177" lon="3.41649">
        <ele>831</ele>
        <time>2012-10-21T08:58:14.000Z</time>
      </trkpt>
      <trkpt lat="45.50176" lon="3.41644">
        <ele>832</ele>
        <time>2012-10-21T08:58:15.000Z</time>
      </trkpt>
      <trkpt lat="45.50175" lon="3.4164">
        <ele>833</ele>
        <time>2012-10-21T08:58:16.000Z</time>
      </trkpt>
      <trkpt lat="45.50174" lon="3.41635">
        <ele>834</ele>
        <time>2012-10-21T08:58:17.000Z</time>
      </trkpt>
      <trkpt lat="45.50173" lon="3.41629">
        <ele>834</ele>
        <time>2012-10-21T08:58:18.000Z</time>
      </trkpt>
      <trkpt lat="45.50172" lon="3.41624">
        <ele>835</ele>
        <time>2012-10-21T08:58:19.000Z</time>
      </trkpt>
      <trkpt lat="45.50171" lon="3.41619">
        <ele>836</ele>
        <time>2012-10-21T08:58:20.000Z</time>
      </trkpt>
      <trkpt lat="45.5017" lon="3.41614">
        <ele>836</ele>
        <time>2012-10-21T08:58:21.000Z</time>
      </trkpt>
      <trkpt lat="45.50169" lon="3.41609">
        <ele>835</ele>
        <time>2012-10-21T08:58:22.000Z</time>
      </trkpt>
      <trkpt lat="45.50168" lon="3.41604">
        <ele>836</ele>
        <time>2012-10-21T08:58:23.000Z</time>
      </trkpt>
      <trkpt lat="45.50168" lon="3.41599">
        <ele>833</ele>
        <time>2012-10-21T08:58:24.000Z</time>
      </trkpt>
      <trkpt lat="45.50167" lon="3.41594">
        <ele>834</ele>
        <time>2012-10-21T08:58:25.000Z</time>
      </trkpt>
      <trkpt lat="45.50166" lon="3.4159">
        <ele>835</ele>
        <time>2012-10-21T08:58:26.000Z</time>
      </trkpt>
      <trkpt lat="45.50166" lon="3.41585">
        <ele>836</ele>
        <time>2012-10-21T08:58:27.000Z</time>
      </trkpt>
      <trkpt lat="45.50165" lon="3.41581">
        <ele>837</ele>
        <time>2012-10-21T08:58:28.000Z</time>
      </trkpt>
      <trkpt lat="45.50164" lon="3.41577">
        <ele>838</ele>
        <time>2012-10-21T08:58:29.000Z</time>
      </trkpt>
      <trkpt lat="45.50164" lon="3.41572">
        <ele>838</ele>
        <time>2012-10-21T08:58:30.000Z</time>
      </trkpt>
      <trkpt lat="45.50164" lon="3.41568">
        <ele>838</ele>
        <time>2012-10-21T08:58:31.000Z</time>
      </trkpt>
      <trkpt lat="45.50164" lon="3.41563">
        <ele>836</ele>
        <time>2012-10-21T08:58:32.000Z</time>
      </trkpt>
      <trkpt lat="45.50164" lon="3.41558">
        <ele>836</ele>
        <time>2012-10-21T08:58:33.000Z</time>
      </trkpt>
      <trkpt lat="45.50163" lon="3.41554">
        <ele>836</ele>
        <time>2012-10-21T08:58:34.000Z</time>
      </trkpt>
      <trkpt lat="45.50163" lon="3.41549">
        <ele>836</ele>
        <time>2012-10-21T08:58:35.000Z</time>
      </trkpt>
      <trkpt lat="45.50163" lon="3.41545">
        <ele>837</ele>
        <time>2012-10-21T08:58:36.000Z</time>
      </trkpt>
      <trkpt lat="45.50162" lon="3.4154">
        <ele>838</ele>
        <time>2012-10-21T08:58:37.000Z</time>
      </trkpt>
      <trkpt lat="45.50161" lon="3.41536">
        <ele>838</ele>
        <time>2012-10-21T08:58:38.000Z</time>
      </trkpt>
      <trkpt lat="45.50161" lon="3.41532">
        <ele>841</ele>
        <time>2012-10-21T08:58:39.000Z</time>
      </trkpt>
      <trkpt lat="45.5016" lon="3.41527">
        <ele>840</ele>
        <time>2012-10-21T08:58:40.000Z</time>
      </trkpt>
      <trkpt lat="45.50159" lon="3.41522">
        <ele>838</ele>
        <time>2012-10-21T08:58:41.000Z</time>
      </trkpt>
      <trkpt lat="45.50158" lon="3.41517">
        <ele>837</ele>
        <time>2012-10-21T08:58:42.000Z</time>
      </trkpt>
      <trkpt lat="45.50157" lon="3.41513">
        <ele>838</ele>
        <time>2012-10-21T08:58:43.000Z</time>
      </trkpt>
      <trkpt lat="45.50157" lon="3.41508">
        <ele>838</ele>
        <time>2012-10-21T08:58:44.000Z</time>
      </trkpt>
      <trkpt lat="45.50156" lon="3.41504">
        <ele>838</ele>
        <time>2012-10-21T08:58:45.000Z</time>
      </trkpt>
      <trkpt lat="45.50155" lon="3.415">
        <ele>840</ele>
        <time>2012-10-21T08:58:46.000Z</time>
      </trkpt>
      <trkpt lat="45.50154" lon="3.41496">
        <ele>839</ele>
        <time>2012-10-21T08:58:47.000Z</time>
      </trkpt>
      <trkpt lat="45.50153" lon="3.41491">
        <ele>838</ele>
        <time>2012-10-21T08:58:48.000Z</time>
      </trkpt>
      <trkpt lat="45.50153" lon="3.41487">
        <ele>839</ele>
        <time>2012-10-21T08:58:49.000Z</time>
      </trkpt>
      <trkpt lat="45.50152" lon="3.41482">
        <ele>840</ele>
        <time>2012-10-21T08:58:50.000Z</time>
      </trkpt>
      <trkpt lat="45.50152" lon="3.41478">
        <ele>839</ele>
        <time>2012-10-21T08:58:51.000Z</time>
      </trkpt>
      <trkpt lat="45.50151" lon="3.41474">
        <ele>840</ele>
        <time>2012-10-21T08:58:52.000Z</time>
      </trkpt>
      <trkpt lat="45.5015" lon="3.4147">
        <ele>839</ele>
        <time>2012-10-21T08:58:53.000Z</time>
      </trkpt>
      <trkpt lat="45.5015" lon="3.41465">
        <ele>839</ele>
        <time>2012-10-21T08:58:54.000Z</time>
      </trkpt>
      <trkpt lat="45.50149" lon="3.41462">
        <ele>840</ele>
        <time>2012-10-21T08:58:55.000Z</time>
      </trkpt>
      <trkpt lat="45.50148" lon="3.41458">
        <ele>840</ele>
        <time>2012-10-21T08:58:56.000Z</time>
      </trkpt>
      <trkpt lat="45.50147" lon="3.41454">
        <ele>840</ele>
        <time>2012-10-21T08:58:57.000Z</time>
      </trkpt>
      <trkpt lat="45.50146" lon="3.4145">
        <ele>840</ele>
        <time>2012-10-21T08:58:58.000Z</time>
      </trkpt>
      <trkpt lat="45.50146" lon="3.41446">
        <ele>841</ele>
        <time>2012-10-21T08:58:59.000Z</time>
      </trkpt>
      <trkpt lat="45.50145" lon="3.41441">
        <ele>842</ele>
        <time>2012-10-21T08:59:00.000Z</time>
      </trkpt>
      <trkpt lat="45.50144" lon="3.41437">
        <ele>841</ele>
        <time>2012-10-21T08:59:01.000Z</time>
      </trkpt>
      <trkpt lat="45.50143" lon="3.41433">
        <ele>842</ele>
        <time>2012-10-21T08:59:02.000Z</time>
      </trkpt>
      <trkpt lat="45.50142" lon="3.41429">
        <ele>842</ele>
        <time>2012-10-21T08:59:03.000Z</time>
      </trkpt>
      <trkpt lat="45.50142" lon="3.41425">
        <ele>842</ele>
        <time>2012-10-21T08:59:04.000Z</time>
      </trkpt>
      <trkpt lat="45.50141" lon="3.41421">
        <ele>842</ele>
        <time>2012-10-21T08:59:05.000Z</time>
      </trkpt>
      <trkpt lat="45.5014" lon="3.41416">
        <ele>841</ele>
        <time>2012-10-21T08:59:06.000Z</time>
      </trkpt>
      <trkpt lat="45.50138" lon="3.41413">
        <ele>842</ele>
        <time>2012-10-21T08:59:07.000Z</time>
      </trkpt>
      <trkpt lat="45.50137" lon="3.41408">
        <ele>843</ele>
        <time>2012-10-21T08:59:08.000Z</time>
      </trkpt>
      <trkpt lat="45.50136" lon="3.41405">
        <ele>842</ele>
        <time>2012-10-21T08:59:09.000Z</time>
      </trkpt>
      <trkpt lat="45.50134" lon="3.41401">
        <ele>843</ele>
        <time>2012-10-21T08:59:10.000Z</time>
      </trkpt>
      <trkpt lat="45.50134" lon="3.41398">
        <ele>846</ele>
        <time>2012-10-21T08:59:11.000Z</time>
      </trkpt>
      <trkpt lat="45.50133" lon="3.41395">
        <ele>845</ele>
        <time>2012-10-21T08:59:12.000Z</time>
      </trkpt>
      <trkpt lat="45.50131" lon="3.41391">
        <ele>845</ele>
        <time>2012-10-21T08:59:13.000Z</time>
      </trkpt>
      <trkpt lat="45.5013" lon="3.41387">
        <ele>845</ele>
        <time>2012-10-21T08:59:14.000Z</time>
      </trkpt>
      <trkpt lat="45.50128" lon="3.41383">
        <ele>846</ele>
        <time>2012-10-21T08:59:15.000Z</time>
      </trkpt>
      <trkpt lat="45.50127" lon="3.41379">
        <ele>846</ele>
        <time>2012-10-21T08:59:16.000Z</time>
      </trkpt>
      <trkpt lat="45.50125" lon="3.41375">
        <ele>847</ele>
        <time>2012-10-21T08:59:17.000Z</time>
      </trkpt>
      <trkpt lat="45.50124" lon="3.41371">
        <ele>849</ele>
        <time>2012-10-21T08:59:18.000Z</time>
      </trkpt>
      <trkpt lat="45.50124" lon="3.41366">
        <ele>847</ele>
        <time>2012-10-21T08:59:19.000Z</time>
      </trkpt>
      <trkpt lat="45.50123" lon="3.41361">
        <ele>846</ele>
        <time>2012-10-21T08:59:20.000Z</time>
      </trkpt>
      <trkpt lat="45.50123" lon="3.41357">
        <ele>846</ele>
        <time>2012-10-21T08:59:21.000Z</time>
      </trkpt>
      <trkpt lat="45.50123" lon="3.41351">
        <ele>846</ele>
        <time>2012-10-21T08:59:22.000Z</time>
      </trkpt>
      <trkpt lat="45.50123" lon="3.41346">
        <ele>844</ele>
        <time>2012-10-21T08:59:23.000Z</time>
      </trkpt>
      <trkpt lat="45.50122" lon="3.4134">
        <ele>841</ele>
        <time>2012-10-21T08:59:24.000Z</time>
      </trkpt>
      <trkpt lat="45.50122" lon="3.41335">
        <ele>845</ele>
        <time>2012-10-21T08:59:25.000Z</time>
      </trkpt>
      <trkpt lat="45.50122" lon="3.41328">
        <ele>846</ele>
        <time>2012-10-21T08:59:26.000Z</time>
      </trkpt>
      <trkpt lat="45.50121" lon="3.41322">
        <ele>847</ele>
        <time>2012-10-21T08:59:27.000Z</time>
      </trkpt>
      <trkpt lat="45.50119" lon="3.41316">
        <ele>845</ele>
        <time>2012-10-21T08:59:28.000Z</time>
      </trkpt>
      <trkpt lat="45.50118" lon="3.4131">
        <ele>843</ele>
        <time>2012-10-21T08:59:29.000Z</time>
      </trkpt>
      <trkpt lat="45.50117" lon="3.41304">
        <ele>843</ele>
        <time>2012-10-21T08:59:30.000Z</time>
      </trkpt>
      <trkpt lat="45.50116" lon="3.41297">
        <ele>843</ele>
        <time>2012-10-21T08:59:31.000Z</time>
      </trkpt>
      <trkpt lat="45.50114" lon="3.41291">
        <ele>843</ele>
        <time>2012-10-21T08:59:32.000Z</time>
      </trkpt>
      <trkpt lat="45.50113" lon="3.41285">
        <ele>842</ele>
        <time>2012-10-21T08:59:33.000Z</time>
      </trkpt>
      <trkpt lat="45.50112" lon="3.4128">
        <ele>840</ele>
        <time>2012-10-21T08:59:34.000Z</time>
      </trkpt>
      <trkpt lat="45.50111" lon="3.41275">
        <ele>841</ele>
        <time>2012-10-21T08:59:35.000Z</time>
      </trkpt>
      <trkpt lat="45.50109" lon="3.4127">
        <ele>840</ele>
        <time>2012-10-21T08:59:36.000Z</time>
      </trkpt>
      <trkpt lat="45.50108" lon="3.41267">
        <ele>841</ele>
        <time>2012-10-21T08:59:37.000Z</time>
      </trkpt>
      <trkpt lat="45.50107" lon="3.41263">
        <ele>846</ele>
        <time>2012-10-21T08:59:38.000Z</time>
      </trkpt>
      <trkpt lat="45.50106" lon="3.4126">
        <ele>842</ele>
        <time>2012-10-21T08:59:39.000Z</time>
      </trkpt>
      <trkpt lat="45.50104" lon="3.41256">
        <ele>843</ele>
        <time>2012-10-21T08:59:40.000Z</time>
      </trkpt>
      <trkpt lat="45.50102" lon="3.41252">
        <ele>843</ele>
        <time>2012-10-21T08:59:41.000Z</time>
      </trkpt>
      <trkpt lat="45.501" lon="3.41249">
        <ele>843</ele>
        <time>2012-10-21T08:59:42.000Z</time>
      </trkpt>
      <trkpt lat="45.50097" lon="3.41246">
        <ele>840</ele>
        <time>2012-10-21T08:59:43.000Z</time>
      </trkpt>
      <trkpt lat="45.50098" lon="3.41243">
        <ele>838</ele>
        <time>2012-10-21T08:59:44.000Z</time>
      </trkpt>
      <trkpt lat="45.501" lon="3.41239">
        <ele>842</ele>
        <time>2012-10-21T08:59:45.000Z</time>
      </trkpt>
      <trkpt lat="45.50103" lon="3.41236">
        <ele>842</ele>
        <time>2012-10-21T08:59:46.000Z</time>
      </trkpt>
      <trkpt lat="45.50107" lon="3.41233">
        <ele>836</ele>
        <time>2012-10-21T08:59:47.000Z</time>
      </trkpt>
      <trkpt lat="45.5011" lon="3.41229">
        <ele>844</ele>
        <time>2012-10-21T08:59:48.000Z</time>
      </trkpt>
      <trkpt lat="45.50114" lon="3.41226">
        <ele>843</ele>
        <time>2012-10-21T08:59:49.000Z</time>
      </trkpt>
      <trkpt lat="45.50119" lon="3.41222">
        <ele>844</ele>
        <time>2012-10-21T08:59:50.000Z</time>
      </trkpt>
      <trkpt lat="45.50122" lon="3.41218">
        <ele>844</ele>
        <time>2012-10-21T08:59:51.000Z</time>
      </trkpt>
      <trkpt lat="45.50126" lon="3.41214">
        <ele>844</ele>
        <time>2012-10-21T08:59:52.000Z</time>
      </trkpt>
      <trkpt lat="45.50128" lon="3.41211">
        <ele>844</ele>
        <time>2012-10-21T08:59:53.000Z</time>
      </trkpt>
      <trkpt lat="45.50131" lon="3.41206">
        <ele>844</ele>
        <time>2012-10-21T08:59:54.000Z</time>
      </trkpt>
      <trkpt lat="45.50134" lon="3.41203">
        <ele>843</ele>
        <time>2012-10-21T08:59:55.000Z</time>
      </trkpt>
      <trkpt lat="45.50138" lon="3.41201">
        <ele>843</ele>
        <time>2012-10-21T08:59:56.000Z</time>
      </trkpt>
      <trkpt lat="45.50142" lon="3.41199">
        <ele>842</ele>
        <time>2012-10-21T08:59:57.000Z</time>
      </trkpt>
      <trkpt lat="45.50146" lon="3.41199">
        <ele>843</ele>
        <time>2012-10-21T08:59:58.000Z</time>
      </trkpt>
      <trkpt lat="45.50149" lon="3.412">
        <ele>843</ele>
        <time>2012-10-21T08:59:59.000Z</time>
      </trkpt>
      <trkpt lat="45.50153" lon="3.412">
        <ele>843</ele>
        <time>2012-10-21T09:00:01.000Z</time>
      </trkpt>
      <trkpt lat="45.50155" lon="3.41199">
        <ele>845</ele>
        <time>2012-10-21T09:00:02.000Z</time>
      </trkpt>
      <trkpt lat="45.50158" lon="3.412">
        <ele>844</ele>
        <time>2012-10-21T09:00:04.000Z</time>
      </trkpt>
      <trkpt lat="45.5016" lon="3.41201">
        <ele>845</ele>
        <time>2012-10-21T09:00:05.000Z</time>
      </trkpt>
      <trkpt lat="45.50164" lon="3.41203">
        <ele>844</ele>
        <time>2012-10-21T09:00:07.000Z</time>
      </trkpt>
      <trkpt lat="45.50166" lon="3.41204">
        <ele>842</ele>
        <time>2012-10-21T09:00:08.000Z</time>
      </trkpt>
      <trkpt lat="45.50168" lon="3.41206">
        <ele>843</ele>
        <time>2012-10-21T09:00:09.000Z</time>
      </trkpt>
      <trkpt lat="45.5017" lon="3.41207">
        <ele>843</ele>
        <time>2012-10-21T09:00:10.000Z</time>
      </trkpt>
      <trkpt lat="45.50173" lon="3.41208">
        <ele>846</ele>
        <time>2012-10-21T09:00:11.000Z</time>
      </trkpt>
      <trkpt lat="45.50176" lon="3.41209">
        <ele>847</ele>
        <time>2012-10-21T09:00:12.000Z</time>
      </trkpt>
      <trkpt lat="45.50179" lon="3.4121">
        <ele>847</ele>
        <time>2012-10-21T09:00:13.000Z</time>
      </trkpt>
      <trkpt lat="45.50183" lon="3.41211">
        <ele>846</ele>
        <time>2012-10-21T09:00:14.000Z</time>
      </trkpt>
      <trkpt lat="45.50185" lon="3.41211">
        <ele>845</ele>
        <time>2012-10-21T09:00:15.000Z</time>
      </trkpt>
      <trkpt lat="45.50189" lon="3.41211">
        <ele>845</ele>
        <time>2012-10-21T09:00:16.000Z</time>
      </trkpt>
      <trkpt lat="45.50192" lon="3.41211">
        <ele>845</ele>
        <time>2012-10-21T09:00:17.000Z</time>
      </trkpt>
      <trkpt lat="45.50195" lon="3.4121">
        <ele>844</ele>
        <time>2012-10-21T09:00:18.000Z</time>
      </trkpt>
      <trkpt lat="45.50198" lon="3.4121">
        <ele>843</ele>
        <time>2012-10-21T09:00:19.000Z</time>
      </trkpt>
      <trkpt lat="45.50201" lon="3.4121">
        <ele>843</ele>
        <time>2012-10-21T09:00:20.000Z</time>
      </trkpt>
      <trkpt lat="45.50205" lon="3.4121">
        <ele>843</ele>
        <time>2012-10-21T09:00:21.000Z</time>
      </trkpt>
      <trkpt lat="45.50208" lon="3.4121">
        <ele>843</ele>
        <time>2012-10-21T09:00:22.000Z</time>
      </trkpt>
      <trkpt lat="45.50212" lon="3.41209">
        <ele>845</ele>
        <time>2012-10-21T09:00:23.000Z</time>
      </trkpt>
      <trkpt lat="45.50216" lon="3.41209">
        <ele>845</ele>
        <time>2012-10-21T09:00:24.000Z</time>
      </trkpt>
      <trkpt lat="45.5022" lon="3.41209">
        <ele>845</ele>
        <time>2012-10-21T09:00:25.000Z</time>
      </trkpt>
      <trkpt lat="45.50223" lon="3.41209">
        <ele>845</ele>
        <time>2012-10-21T09:00:26.000Z</time>
      </trkpt>
      <trkpt lat="45.50227" lon="3.4121">
        <ele>846</ele>
        <time>2012-10-21T09:00:27.000Z</time>
      </trkpt>
      <trkpt lat="45.50232" lon="3.4121">
        <ele>847</ele>
        <time>2012-10-21T09:00:28.000Z</time>
      </trkpt>
      <trkpt lat="45.50236" lon="3.4121">
        <ele>847</ele>
        <time>2012-10-21T09:00:29.000Z</time>
      </trkpt>
      <trkpt lat="45.50239" lon="3.4121">
        <ele>848</ele>
        <time>2012-10-21T09:00:30.000Z</time>
      </trkpt>
      <trkpt lat="45.50243" lon="3.41211">
        <ele>848</ele>
        <time>2012-10-21T09:00:31.000Z</time>
      </trkpt>
      <trkpt lat="45.50246" lon="3.4121">
        <ele>848</ele>
        <time>2012-10-21T09:00:32.000Z</time>
      </trkpt>
      <trkpt lat="45.5025" lon="3.4121">
        <ele>848</ele>
        <time>2012-10-21T09:00:33.000Z</time>
      </trkpt>
      <trkpt lat="45.50254" lon="3.4121">
        <ele>848</ele>
        <time>2012-10-21T09:00:34.000Z</time>
      </trkpt>
      <trkpt lat="45.50257" lon="3.4121">
        <ele>849</ele>
        <time>2012-10-21T09:00:35.000Z</time>
      </trkpt>
      <trkpt lat="45.50261" lon="3.4121">
        <ele>849</ele>
        <time>2012-10-21T09:00:36.000Z</time>
      </trkpt>
      <trkpt lat="45.50265" lon="3.4121">
        <ele>849</ele>
        <time>2012-10-21T09:00:36.999Z</time>
      </trkpt>
      <trkpt lat="45.50269" lon="3.4121">
        <ele>846</ele>
        <time>2012-10-21T09:00:38.000Z</time>
      </trkpt>
      <trkpt lat="45.50273" lon="3.4121">
        <ele>844</ele>
        <time>2012-10-21T09:00:39.000Z</time>
      </trkpt>
      <trkpt lat="45.50277" lon="3.41209">
        <ele>844</ele>
        <time>2012-10-21T09:00:40.000Z</time>
      </trkpt>
      <trkpt lat="45.50281" lon="3.41209">
        <ele>844</ele>
        <time>2012-10-21T09:00:41.000Z</time>
      </trkpt>
      <trkpt lat="45.50284" lon="3.41209">
        <ele>844</ele>
        <time>2012-10-21T09:00:42.000Z</time>
      </trkpt>
      <trkpt lat="45.50288" lon="3.41209">
        <ele>846</ele>
        <time>2012-10-21T09:00:43.000Z</time>
      </trkpt>
      <trkpt lat="45.50293" lon="3.41209">
        <ele>848</ele>
        <time>2012-10-21T09:00:44.000Z</time>
      </trkpt>
      <trkpt lat="45.50297" lon="3.41209">
        <ele>849</ele>
        <time>2012-10-21T09:00:45.000Z</time>
      </trkpt>
      <trkpt lat="45.50302" lon="3.41208">
        <ele>850</ele>
        <time>2012-10-21T09:00:46.000Z</time>
      </trkpt>
      <trkpt lat="45.50306" lon="3.41208">
        <ele>849</ele>
        <time>2012-10-21T09:00:47.000Z</time>
      </trkpt>
      <trkpt lat="45.5031" lon="3.41208">
        <ele>847</ele>
        <time>2012-10-21T09:00:48.000Z</time>
      </trkpt>
      <trkpt lat="45.50314" lon="3.41208">
        <ele>845</ele>
        <time>2012-10-21T09:00:49.000Z</time>
      </trkpt>
      <trkpt lat="45.50318" lon="3.41208">
        <ele>845</ele>
        <time>2012-10-21T09:00:50.000Z</time>
      </trkpt>
      <trkpt lat="45.50322" lon="3.41208">
        <ele>845</ele>
        <time>2012-10-21T09:00:51.000Z</time>
      </trkpt>
      <trkpt lat="45.50325" lon="3.41207">
        <ele>844</ele>
        <time>2012-10-21T09:00:52.000Z</time>
      </trkpt>
      <trkpt lat="45.50329" lon="3.41208">
        <ele>844</ele>
        <time>2012-10-21T09:00:53.000Z</time>
      </trkpt>
      <trkpt lat="45.50333" lon="3.41207">
        <ele>844</ele>
        <time>2012-10-21T09:00:54.000Z</time>
      </trkpt>
      <trkpt lat="45.50337" lon="3.41208">
        <ele>845</ele>
        <time>2012-10-21T09:00:55.000Z</time>
      </trkpt>
      <trkpt lat="45.50341" lon="3.41208">
        <ele>845</ele>
        <time>2012-10-21T09:00:56.000Z</time>
      </trkpt>
      <trkpt lat="45.50345" lon="3.41208">
        <ele>845</ele>
        <time>2012-10-21T09:00:57.000Z</time>
      </trkpt>
      <trkpt lat="45.50349" lon="3.41209">
        <ele>846</ele>
        <time>2012-10-21T09:00:58.000Z</time>
      </trkpt>
      <trkpt lat="45.50353" lon="3.41209">
        <ele>846</ele>
        <time>2012-10-21T09:00:59.000Z</time>
      </trkpt>
      <trkpt lat="45.50358" lon="3.4121">
        <ele>846</ele>
        <time>2012-10-21T09:01:00.000Z</time>
      </trkpt>
      <trkpt lat="45.50362" lon="3.4121">
        <ele>846</ele>
        <time>2012-10-21T09:01:01.000Z</time>
      </trkpt>
      <trkpt lat="45.50366" lon="3.4121">
        <ele>846</ele>
        <time>2012-10-21T09:01:02.000Z</time>
      </trkpt>
      <trkpt lat="45.50371" lon="3.4121">
        <ele>846</ele>
        <time>2012-10-21T09:01:03.000Z</time>
      </trkpt>
      <trkpt lat="45.50374" lon="3.4121">
        <ele>846</ele>
        <time>2012-10-21T09:01:04.000Z</time>
      </trkpt>
      <trkpt lat="45.50378" lon="3.4121">
        <ele>846</ele>
        <time>2012-10-21T09:01:05.000Z</time>
      </trkpt>
      <trkpt lat="45.50382" lon="3.4121">
        <ele>846</ele>
        <time>2012-10-21T09:01:06.000Z</time>
      </trkpt>
      <trkpt lat="45.50386" lon="3.41209">
        <ele>846</ele>
        <time>2012-10-21T09:01:07.000Z</time>
      </trkpt>
      <trkpt lat="45.5039" lon="3.41208">
        <ele>847</ele>
        <time>2012-10-21T09:01:08.000Z</time>
      </trkpt>
      <trkpt lat="45.50392" lon="3.41206">
        <ele>848</ele>
        <time>2012-10-21T09:01:09.000Z</time>
      </trkpt>
      <trkpt lat="45.50394" lon="3.41203">
        <ele>848</ele>
        <time>2012-10-21T09:01:10.000Z</time>
      </trkpt>
      <trkpt lat="45.50396" lon="3.41199">
        <ele>849</ele>
        <time>2012-10-21T09:01:11.000Z</time>
      </trkpt>
      <trkpt lat="45.50397" lon="3.41194">
        <ele>849</ele>
        <time>2012-10-21T09:01:12.000Z</time>
      </trkpt>
      <trkpt lat="45.50399" lon="3.4119">
        <ele>851</ele>
        <time>2012-10-21T09:01:13.000Z</time>
      </trkpt>
      <trkpt lat="45.504" lon="3.41185">
        <ele>847</ele>
        <time>2012-10-21T09:01:14.000Z</time>
      </trkpt>
      <trkpt lat="45.50401" lon="3.4118">
        <ele>848</ele>
        <time>2012-10-21T09:01:15.000Z</time>
      </trkpt>
      <trkpt lat="45.50402" lon="3.41174">
        <ele>847</ele>
        <time>2012-10-21T09:01:16.000Z</time>
      </trkpt>
      <trkpt lat="45.50404" lon="3.41168">
        <ele>847</ele>
        <time>2012-10-21T09:01:17.000Z</time>
      </trkpt>
      <trkpt lat="45.50405" lon="3.41161">
        <ele>848</ele>
        <time>2012-10-21T09:01:18.000Z</time>
      </trkpt>
      <trkpt lat="45.50406" lon="3.41154">
        <ele>848</ele>
        <time>2012-10-21T09:01:19.000Z</time>
      </trkpt>
      <trkpt lat="45.50408" lon="3.41148">
        <ele>846</ele>
        <time>2012-10-21T09:01:20.000Z</time>
      </trkpt>
      <trkpt lat="45.5041" lon="3.41142">
        <ele>844</ele>
        <time>2012-10-21T09:01:21.000Z</time>
      </trkpt>
      <trkpt lat="45.50412" lon="3.41136">
        <ele>844</ele>
        <time>2012-10-21T09:01:22.000Z</time>
      </trkpt>
      <trkpt lat="45.50414" lon="3.41128">
        <ele>843</ele>
        <time>2012-10-21T09:01:23.000Z</time>
      </trkpt>
      <trkpt lat="45.50415" lon="3.4112">
        <ele>844</ele>
        <time>2012-10-21T09:01:24.000Z</time>
      </trkpt>
      <trkpt lat="45.50418" lon="3.41113">
        <ele>843</ele>
        <time>2012-10-21T09:01:25.000Z</time>
      </trkpt>
      <trkpt lat="45.50419" lon="3.41105">
        <ele>841</ele>
        <time>2012-10-21T09:01:26.000Z</time>
      </trkpt>
      <trkpt lat="45.5042" lon="3.41096">
        <ele>846</ele>
        <time>2012-10-21T09:01:27.000Z</time>
      </trkpt>
      <trkpt lat="45.50422" lon="3.41089">
        <ele>845</ele>
        <time>2012-10-21T09:01:28.000Z</time>
      </trkpt>
      <trkpt lat="45.50422" lon="3.41082">
        <ele>849</ele>
        <time>2012-10-21T09:01:29.000Z</time>
      </trkpt>
      <trkpt lat="45.50422" lon="3.41073">
        <ele>846</ele>
        <time>2012-10-21T09:01:30.000Z</time>
      </trkpt>
      <trkpt lat="45.5042" lon="3.41066">
        <ele>845</ele>
        <time>2012-10-21T09:01:31.000Z</time>
      </trkpt>
      <trkpt lat="45.50417" lon="3.41057">
        <ele>845</ele>
        <time>2012-10-21T09:01:32.000Z</time>
      </trkpt>
      <trkpt lat="45.50415" lon="3.41046">
        <ele>843</ele>
        <time>2012-10-21T09:01:33.000Z</time>
      </trkpt>
      <trkpt lat="45.50415" lon="3.41036">
        <ele>842</ele>
        <time>2012-10-21T09:01:34.000Z</time>
      </trkpt>
      <trkpt lat="45.50413" lon="3.41026">
        <ele>840</ele>
        <time>2012-10-21T09:01:35.000Z</time>
      </trkpt>
      <trkpt lat="45.50413" lon="3.41016">
        <ele>838</ele>
        <time>2012-10-21T09:01:36.000Z</time>
      </trkpt>
      <trkpt lat="45.50412" lon="3.41008">
        <ele>838</ele>
        <time>2012-10-21T09:01:37.000Z</time>
      </trkpt>
      <trkpt lat="45.50411" lon="3.40999">
        <ele>841</ele>
        <time>2012-10-21T09:01:38.000Z</time>
      </trkpt>
      <trkpt lat="45.50411" lon="3.4099">
        <ele>840</ele>
        <time>2012-10-21T09:01:39.000Z</time>
      </trkpt>
      <trkpt lat="45.5041" lon="3.40982">
        <ele>840</ele>
        <time>2012-10-21T09:01:40.000Z</time>
      </trkpt>
      <trkpt lat="45.5041" lon="3.40976">
        <ele>837</ele>
        <time>2012-10-21T09:01:41.000Z</time>
      </trkpt>
      <trkpt lat="45.50411" lon="3.40971">
        <ele>835</ele>
        <time>2012-10-21T09:01:42.000Z</time>
      </trkpt>
      <trkpt lat="45.50413" lon="3.40967">
        <ele>836</ele>
        <time>2012-10-21T09:01:43.000Z</time>
      </trkpt>
      <trkpt lat="45.50414" lon="3.40962">
        <ele>836</ele>
        <time>2012-10-21T09:01:44.000Z</time>
      </trkpt>
      <trkpt lat="45.50416" lon="3.40958">
        <ele>834</ele>
        <time>2012-10-21T09:01:45.000Z</time>
      </trkpt>
      <trkpt lat="45.50417" lon="3.40952">
        <ele>834</ele>
        <time>2012-10-21T09:01:46.000Z</time>
      </trkpt>
      <trkpt lat="45.50419" lon="3.40946">
        <ele>836</ele>
        <time>2012-10-21T09:01:47.000Z</time>
      </trkpt>
      <trkpt lat="45.5042" lon="3.4094">
        <ele>831</ele>
        <time>2012-10-21T09:01:48.000Z</time>
      </trkpt>
      <trkpt lat="45.50422" lon="3.40931">
        <ele>832</ele>
        <time>2012-10-21T09:01:49.000Z</time>
      </trkpt>
      <trkpt lat="45.50425" lon="3.40922">
        <ele>830</ele>
        <time>2012-10-21T09:01:50.000Z</time>
      </trkpt>
      <trkpt lat="45.50428" lon="3.40912">
        <ele>828</ele>
        <time>2012-10-21T09:01:51.000Z</time>
      </trkpt>
      <trkpt lat="45.50432" lon="3.40903">
        <ele>827</ele>
        <time>2012-10-21T09:01:52.000Z</time>
      </trkpt>
      <trkpt lat="45.50436" lon="3.40893">
        <ele>828</ele>
        <time>2012-10-21T09:01:53.000Z</time>
      </trkpt>
      <trkpt lat="45.50439" lon="3.40884">
        <ele>824</ele>
        <time>2012-10-21T09:01:54.000Z</time>
      </trkpt>
      <trkpt lat="45.50443" lon="3.40874">
        <ele>823</ele>
        <time>2012-10-21T09:01:55.000Z</time>
      </trkpt>
      <trkpt lat="45.50447" lon="3.40865">
        <ele>827</ele>
        <time>2012-10-21T09:01:56.000Z</time>
      </trkpt>
      <trkpt lat="45.50451" lon="3.40856">
        <ele>825</ele>
        <time>2012-10-21T09:01:57.000Z</time>
      </trkpt>
      <trkpt lat="45.50454" lon="3.40848">
        <ele>822</ele>
        <time>2012-10-21T09:01:58.000Z</time>
      </trkpt>
      <trkpt lat="45.50456" lon="3.40842">
        <ele>819</ele>
        <time>2012-10-21T09:01:59.000Z</time>
      </trkpt>
      <trkpt lat="45.50458" lon="3.40838">
        <ele>820</ele>
        <time>2012-10-21T09:02:00.000Z</time>
      </trkpt>
      <trkpt lat="45.50459" lon="3.40834">
        <ele>822</ele>
        <time>2012-10-21T09:02:01.000Z</time>
      </trkpt>
      <trkpt lat="45.5046" lon="3.40831">
        <ele>821</ele>
        <time>2012-10-21T09:02:02.000Z</time>
      </trkpt>
      <trkpt lat="45.50462" lon="3.40827">
        <ele>820</ele>
        <time>2012-10-21T09:02:03.000Z</time>
      </trkpt>
      <trkpt lat="45.50463" lon="3.40823">
        <ele>817</ele>
        <time>2012-10-21T09:02:04.000Z</time>
      </trkpt>
      <trkpt lat="45.50464" lon="3.40817">
        <ele>816</ele>
        <time>2012-10-21T09:02:05.000Z</time>
      </trkpt>
      <trkpt lat="45.50465" lon="3.40811">
        <ele>815</ele>
        <time>2012-10-21T09:02:06.000Z</time>
      </trkpt>
      <trkpt lat="45.50467" lon="3.40806">
        <ele>814</ele>
        <time>2012-10-21T09:02:07.000Z</time>
      </trkpt>
      <trkpt lat="45.50468" lon="3.40799">
        <ele>811</ele>
        <time>2012-10-21T09:02:08.000Z</time>
      </trkpt>
      <trkpt lat="45.50467" lon="3.40791">
        <ele>810</ele>
        <time>2012-10-21T09:02:09.000Z</time>
      </trkpt>
      <trkpt lat="45.50467" lon="3.40783">
        <ele>810</ele>
        <time>2012-10-21T09:02:10.000Z</time>
      </trkpt>
      <trkpt lat="45.50466" lon="3.40775">
        <ele>809</ele>
        <time>2012-10-21T09:02:11.000Z</time>
      </trkpt>
      <trkpt lat="45.50465" lon="3.40766">
        <ele>811</ele>
        <time>2012-10-21T09:02:12.000Z</time>
      </trkpt>
      <trkpt lat="45.50464" lon="3.40757">
        <ele>810</ele>
        <time>2012-10-21T09:02:13.000Z</time>
      </trkpt>
      <trkpt lat="45.50462" lon="3.40748">
        <ele>812</ele>
        <time>2012-10-21T09:02:14.000Z</time>
      </trkpt>
      <trkpt lat="45.5046" lon="3.40742">
        <ele>810</ele>
        <time>2012-10-21T09:02:15.000Z</time>
      </trkpt>
      <trkpt lat="45.50459" lon="3.40735">
        <ele>810</ele>
        <time>2012-10-21T09:02:16.000Z</time>
      </trkpt>
      <trkpt lat="45.50458" lon="3.4073">
        <ele>809</ele>
        <time>2012-10-21T09:02:17.000Z</time>
      </trkpt>
      <trkpt lat="45.50456" lon="3.40726">
        <ele>808</ele>
        <time>2012-10-21T09:02:18.000Z</time>
      </trkpt>
      <trkpt lat="45.50455" lon="3.40723">
        <ele>806</ele>
        <time>2012-10-21T09:02:25.000Z</time>
      </trkpt>
      <trkpt lat="45.50448" lon="3.40713">
        <ele>804</ele>
        <time>2012-10-21T09:02:26.000Z</time>
      </trkpt>
      <trkpt lat="45.50444" lon="3.40702">
        <ele>790</ele>
        <time>2012-10-21T09:02:44.000Z</time>
      </trkpt>
      <trkpt lat="45.50445" lon="3.40688">
        <ele>796</ele>
        <time>2012-10-21T09:03:10.000Z</time>
      </trkpt>
      <trkpt lat="45.50448" lon="3.40683">
        <ele>793</ele>
        <time>2012-10-21T09:03:21.000Z</time>
      </trkpt>
      <trkpt lat="45.5045" lon="3.40668">
        <ele>788</ele>
        <time>2012-10-21T09:03:31.000Z</time>
      </trkpt>
      <trkpt lat="45.5045" lon="3.40658">
        <ele>781</ele>
        <time>2012-10-21T09:03:34.000Z</time>
      </trkpt>
      <trkpt lat="45.50451" lon="3.40652">
        <ele>782</ele>
        <time>2012-10-21T09:03:36.000Z</time>
      </trkpt>
      <trkpt lat="45.50451" lon="3.40644">
        <ele>785</ele>
        <time>2012-10-21T09:03:38.000Z</time>
      </trkpt>
      <trkpt lat="45.50451" lon="3.40631">
        <ele>780</ele>
        <time>2012-10-21T09:03:41.000Z</time>
      </trkpt>
      <trkpt lat="45.50451" lon="3.40624">
        <ele>779</ele>
        <time>2012-10-21T09:03:42.000Z</time>
      </trkpt>
      <trkpt lat="45.50451" lon="3.40618">
        <ele>781</ele>
        <time>2012-10-21T09:03:43.000Z</time>
      </trkpt>
      <trkpt lat="45.5045" lon="3.40612">
        <ele>779</ele>
        <time>2012-10-21T09:03:44.000Z</time>
      </trkpt>
      <trkpt lat="45.5045" lon="3.40607">
        <ele>778</ele>
        <time>2012-10-21T09:03:45.000Z</time>
      </trkpt>
      <trkpt lat="45.5045" lon="3.40601">
        <ele>777</ele>
        <time>2012-10-21T09:03:46.000Z</time>
      </trkpt>
      <trkpt lat="45.5045" lon="3.40595">
        <ele>778</ele>
        <time>2012-10-21T09:03:47.000Z</time>
      </trkpt>
      <trkpt lat="45.5045" lon="3.40589">
        <ele>776</ele>
        <time>2012-10-21T09:03:48.000Z</time>
      </trkpt>
      <trkpt lat="45.50452" lon="3.40583">
        <ele>777</ele>
        <time>2012-10-21T09:03:53.000Z</time>
      </trkpt>
      <trkpt lat="45.50455" lon="3.40569">
        <ele>773</ele>
        <time>2012-10-21T09:03:54.000Z</time>
      </trkpt>
      <trkpt lat="45.50457" lon="3.40561">
        <ele>779</ele>
        <time>2012-10-21T09:03:56.000Z</time>
      </trkpt>
      <trkpt lat="45.5046" lon="3.40548">
        <ele>781</ele>
        <time>2012-10-21T09:04:00.000Z</time>
      </trkpt>
      <trkpt lat="45.50465" lon="3.40541">
        <ele>780</ele>
        <time>2012-10-21T09:04:02.000Z</time>
      </trkpt>
      <trkpt lat="45.50469" lon="3.40538">
        <ele>778</ele>
        <time>2012-10-21T09:04:03.000Z</time>
      </trkpt>
      <trkpt lat="45.50474" lon="3.40536">
        <ele>778</ele>
        <time>2012-10-21T09:04:04.000Z</time>
      </trkpt>
      <trkpt lat="45.5048" lon="3.40535">
        <ele>778</ele>
        <time>2012-10-21T09:04:05.000Z</time>
      </trkpt>
      <trkpt lat="45.50486" lon="3.40534">
        <ele>773</ele>
        <time>2012-10-21T09:04:06.000Z</time>
      </trkpt>
      <trkpt lat="45.50492" lon="3.40534">
        <ele>774</ele>
        <time>2012-10-21T09:04:07.000Z</time>
      </trkpt>
      <trkpt lat="45.50498" lon="3.40531">
        <ele>775</ele>
        <time>2012-10-21T09:04:08.000Z</time>
      </trkpt>
      <trkpt lat="45.50504" lon="3.40528">
        <ele>776</ele>
        <time>2012-10-21T09:04:09.000Z</time>
      </trkpt>
      <trkpt lat="45.50509" lon="3.40525">
        <ele>775</ele>
        <time>2012-10-21T09:04:10.000Z</time>
      </trkpt>
      <trkpt lat="45.50514" lon="3.40522">
        <ele>775</ele>
        <time>2012-10-21T09:04:11.000Z</time>
      </trkpt>
      <trkpt lat="45.50519" lon="3.40516">
        <ele>774</ele>
        <time>2012-10-21T09:04:12.000Z</time>
      </trkpt>
      <trkpt lat="45.50523" lon="3.4051">
        <ele>773</ele>
        <time>2012-10-21T09:04:13.000Z</time>
      </trkpt>
      <trkpt lat="45.50527" lon="3.405">
        <ele>776</ele>
        <time>2012-10-21T09:04:14.000Z</time>
      </trkpt>
      <trkpt lat="45.5053" lon="3.40491">
        <ele>773</ele>
        <time>2012-10-21T09:04:15.000Z</time>
      </trkpt>
      <trkpt lat="45.50533" lon="3.40482">
        <ele>772</ele>
        <time>2012-10-21T09:04:16.000Z</time>
      </trkpt>
      <trkpt lat="45.50536" lon="3.40472">
        <ele>766</ele>
        <time>2012-10-21T09:04:17.000Z</time>
      </trkpt>
      <trkpt lat="45.50538" lon="3.40466">
        <ele>765</ele>
        <time>2012-10-21T09:04:18.000Z</time>
      </trkpt>
      <trkpt lat="45.50535" lon="3.40453">
        <ele>759</ele>
        <time>2012-10-21T09:04:31.000Z</time>
      </trkpt>
      <trkpt lat="45.50527" lon="3.40444">
        <ele>737</ele>
        <time>2012-10-21T09:04:44.000Z</time>
      </trkpt>
      <trkpt lat="45.50529" lon="3.40431">
        <ele>765</ele>
        <time>2012-10-21T09:05:13.000Z</time>
      </trkpt>
      <trkpt lat="45.50532" lon="3.40426">
        <ele>766</ele>
        <time>2012-10-21T09:05:14.000Z</time>
      </trkpt>
      <trkpt lat="45.50534" lon="3.40419">
        <ele>763</ele>
        <time>2012-10-21T09:05:15.000Z</time>
      </trkpt>
      <trkpt lat="45.50537" lon="3.40416">
        <ele>763</ele>
        <time>2012-10-21T09:05:16.000Z</time>
      </trkpt>
      <trkpt lat="45.50541" lon="3.40412">
        <ele>759</ele>
        <time>2012-10-21T09:05:17.000Z</time>
      </trkpt>
      <trkpt lat="45.50543" lon="3.40409">
        <ele>763</ele>
        <time>2012-10-21T09:05:18.000Z</time>
      </trkpt>
      <trkpt lat="45.50545" lon="3.40406">
        <ele>759</ele>
        <time>2012-10-21T09:05:19.000Z</time>
      </trkpt>
      <trkpt lat="45.50552" lon="3.40393">
        <ele>755</ele>
        <time>2012-10-21T09:05:22.000Z</time>
      </trkpt>
      <trkpt lat="45.50555" lon="3.40387">
        <ele>750</ele>
        <time>2012-10-21T09:05:23.000Z</time>
      </trkpt>
      <trkpt lat="45.50557" lon="3.40382">
        <ele>749</ele>
        <time>2012-10-21T09:05:24.000Z</time>
      </trkpt>
      <trkpt lat="45.5056" lon="3.40376">
        <ele>750</ele>
        <time>2012-10-21T09:05:25.000Z</time>
      </trkpt>
      <trkpt lat="45.5056" lon="3.40367">
        <ele>751</ele>
        <time>2012-10-21T09:05:26.000Z</time>
      </trkpt>
      <trkpt lat="45.50561" lon="3.40357">
        <ele>744</ele>
        <time>2012-10-21T09:05:27.000Z</time>
      </trkpt>
      <trkpt lat="45.5056" lon="3.40347">
        <ele>739</ele>
        <time>2012-10-21T09:05:28.000Z</time>
      </trkpt>
      <trkpt lat="45.50558" lon="3.40339">
        <ele>742</ele>
        <time>2012-10-21T09:05:29.000Z</time>
      </trkpt>
      <trkpt lat="45.50556" lon="3.40333">
        <ele>740</ele>
        <time>2012-10-21T09:05:30.000Z</time>
      </trkpt>
      <trkpt lat="45.50551" lon="3.40328">
        <ele>738</ele>
        <time>2012-10-21T09:05:31.000Z</time>
      </trkpt>
      <trkpt lat="45.50545" lon="3.40325">
        <ele>740</ele>
        <time>2012-10-21T09:05:32.000Z</time>
      </trkpt>
      <trkpt lat="45.50538" lon="3.40324">
        <ele>738</ele>
        <time>2012-10-21T09:05:33.000Z</time>
      </trkpt>
      <trkpt lat="45.50532" lon="3.40322">
        <ele>736</ele>
        <time>2012-10-21T09:05:34.000Z</time>
      </trkpt>
      <trkpt lat="45.50525" lon="3.40321">
        <ele>738</ele>
        <time>2012-10-21T09:05:35.000Z</time>
      </trkpt>
      <trkpt lat="45.5052" lon="3.40321">
        <ele>738</ele>
        <time>2012-10-21T09:05:36.000Z</time>
      </trkpt>
      <trkpt lat="45.50514" lon="3.40323">
        <ele>736</ele>
        <time>2012-10-21T09:05:37.000Z</time>
      </trkpt>
      <trkpt lat="45.50509" lon="3.40325">
        <ele>737</ele>
        <time>2012-10-21T09:05:38.000Z</time>
      </trkpt>
      <trkpt lat="45.50504" lon="3.40327">
        <ele>735</ele>
        <time>2012-10-21T09:05:39.000Z</time>
      </trkpt>
      <trkpt lat="45.50501" lon="3.40328">
        <ele>731</ele>
        <time>2012-10-21T09:05:40.000Z</time>
      </trkpt>
      <trkpt lat="45.50495" lon="3.40328">
        <ele>730</ele>
        <time>2012-10-21T09:05:41.000Z</time>
      </trkpt>
      <trkpt lat="45.50488" lon="3.40328">
        <ele>735</ele>
        <time>2012-10-21T09:05:42.000Z</time>
      </trkpt>
      <trkpt lat="45.50482" lon="3.4033">
        <ele>735</ele>
        <time>2012-10-21T09:05:43.000Z</time>
      </trkpt>
      <trkpt lat="45.50471" lon="3.40332">
        <ele>734</ele>
        <time>2012-10-21T09:05:45.000Z</time>
      </trkpt>
      <trkpt lat="45.50466" lon="3.40331">
        <ele>734</ele>
        <time>2012-10-21T09:05:46.000Z</time>
      </trkpt>
      <trkpt lat="45.50462" lon="3.40331">
        <ele>732</ele>
        <time>2012-10-21T09:05:47.000Z</time>
      </trkpt>
      <trkpt lat="45.50458" lon="3.40329">
        <ele>734</ele>
        <time>2012-10-21T09:05:48.000Z</time>
      </trkpt>
      <trkpt lat="45.50456" lon="3.40326">
        <ele>736</ele>
        <time>2012-10-21T09:05:49.000Z</time>
      </trkpt>
      <trkpt lat="45.50453" lon="3.40324">
        <ele>735</ele>
        <time>2012-10-21T09:05:50.000Z</time>
      </trkpt>
      <trkpt lat="45.50451" lon="3.40321">
        <ele>738</ele>
        <time>2012-10-21T09:05:51.000Z</time>
      </trkpt>
      <trkpt lat="45.50449" lon="3.40318">
        <ele>737</ele>
        <time>2012-10-21T09:05:52.000Z</time>
      </trkpt>
      <trkpt lat="45.50446" lon="3.40315">
        <ele>737</ele>
        <time>2012-10-21T09:05:53.000Z</time>
      </trkpt>
      <trkpt lat="45.50443" lon="3.40312">
        <ele>739</ele>
        <time>2012-10-21T09:05:54.000Z</time>
      </trkpt>
      <trkpt lat="45.50438" lon="3.40309">
        <ele>737</ele>
        <time>2012-10-21T09:05:55.000Z</time>
      </trkpt>
      <trkpt lat="45.50434" lon="3.40306">
        <ele>734</ele>
        <time>2012-10-21T09:05:56.000Z</time>
      </trkpt>
      <trkpt lat="45.50431" lon="3.40304">
        <ele>732</ele>
        <time>2012-10-21T09:05:57.000Z</time>
      </trkpt>
      <trkpt lat="45.50427" lon="3.40303">
        <ele>732</ele>
        <time>2012-10-21T09:05:58.000Z</time>
      </trkpt>
      <trkpt lat="45.50424" lon="3.40301">
        <ele>740</ele>
        <time>2012-10-21T09:05:59.000Z</time>
      </trkpt>
      <trkpt lat="45.5042" lon="3.40299">
        <ele>738</ele>
        <time>2012-10-21T09:06:00.000Z</time>
      </trkpt>
      <trkpt lat="45.50416" lon="3.40299">
        <ele>737</ele>
        <time>2012-10-21T09:06:01.000Z</time>
      </trkpt>
      <trkpt lat="45.50413" lon="3.40298">
        <ele>737</ele>
        <time>2012-10-21T09:06:02.000Z</time>
      </trkpt>
      <trkpt lat="45.50409" lon="3.40297">
        <ele>739</ele>
        <time>2012-10-21T09:06:03.000Z</time>
      </trkpt>
      <trkpt lat="45.50405" lon="3.40296">
        <ele>741</ele>
        <time>2012-10-21T09:06:04.000Z</time>
      </trkpt>
      <trkpt lat="45.50401" lon="3.40295">
        <ele>742</ele>
        <time>2012-10-21T09:06:05.000Z</time>
      </trkpt>
      <trkpt lat="45.50397" lon="3.40294">
        <ele>742</ele>
        <time>2012-10-21T09:06:06.000Z</time>
      </trkpt>
      <trkpt lat="45.50393" lon="3.40293">
        <ele>742</ele>
        <time>2012-10-21T09:06:07.000Z</time>
      </trkpt>
      <trkpt lat="45.50388" lon="3.40292">
        <ele>742</ele>
        <time>2012-10-21T09:06:08.000Z</time>
      </trkpt>
      <trkpt lat="45.50384" lon="3.40291">
        <ele>741</ele>
        <time>2012-10-21T09:06:09.000Z</time>
      </trkpt>
      <trkpt lat="45.5038" lon="3.4029">
        <ele>742</ele>
        <time>2012-10-21T09:06:10.000Z</time>
      </trkpt>
      <trkpt lat="45.50376" lon="3.40289">
        <ele>741</ele>
        <time>2012-10-21T09:06:11.000Z</time>
      </trkpt>
      <trkpt lat="45.50372" lon="3.40287">
        <ele>740</ele>
        <time>2012-10-21T09:06:12.000Z</time>
      </trkpt>
      <trkpt lat="45.50369" lon="3.40285">
        <ele>739</ele>
        <time>2012-10-21T09:06:13.000Z</time>
      </trkpt>
      <trkpt lat="45.50365" lon="3.40284">
        <ele>739</ele>
        <time>2012-10-21T09:06:14.000Z</time>
      </trkpt>
      <trkpt lat="45.50362" lon="3.40283">
        <ele>740</ele>
        <time>2012-10-21T09:06:15.000Z</time>
      </trkpt>
      <trkpt lat="45.50358" lon="3.40282">
        <ele>742</ele>
        <time>2012-10-21T09:06:16.000Z</time>
      </trkpt>
      <trkpt lat="45.50355" lon="3.40281">
        <ele>743</ele>
        <time>2012-10-21T09:06:17.000Z</time>
      </trkpt>
      <trkpt lat="45.50351" lon="3.40281">
        <ele>742</ele>
        <time>2012-10-21T09:06:18.000Z</time>
      </trkpt>
      <trkpt lat="45.50348" lon="3.4028">
        <ele>741</ele>
        <time>2012-10-21T09:06:19.000Z</time>
      </trkpt>
      <trkpt lat="45.50345" lon="3.4028">
        <ele>743</ele>
        <time>2012-10-21T09:06:20.000Z</time>
      </trkpt>
      <trkpt lat="45.50342" lon="3.4028">
        <ele>741</ele>
        <time>2012-10-21T09:06:21.000Z</time>
      </trkpt>
      <trkpt lat="45.50339" lon="3.4028">
        <ele>743</ele>
        <time>2012-10-21T09:06:22.000Z</time>
      </trkpt>
      <trkpt lat="45.50337" lon="3.40279">
        <ele>740</ele>
        <time>2012-10-21T09:06:23.000Z</time>
      </trkpt>
      <trkpt lat="45.50334" lon="3.40279">
        <ele>738</ele>
        <time>2012-10-21T09:06:24.000Z</time>
      </trkpt>
      <trkpt lat="45.50331" lon="3.40279">
        <ele>742</ele>
        <time>2012-10-21T09:06:25.000Z</time>
      </trkpt>
      <trkpt lat="45.50328" lon="3.40279">
        <ele>745</ele>
        <time>2012-10-21T09:06:26.000Z</time>
      </trkpt>
      <trkpt lat="45.50324" lon="3.40279">
        <ele>749</ele>
        <time>2012-10-21T09:06:27.000Z</time>
      </trkpt>
      <trkpt lat="45.50322" lon="3.40279">
        <ele>749</ele>
        <time>2012-10-21T09:06:28.000Z</time>
      </trkpt>
      <trkpt lat="45.50319" lon="3.40278">
        <ele>748</ele>
        <time>2012-10-21T09:06:29.000Z</time>
      </trkpt>
      <trkpt lat="45.50316" lon="3.40278">
        <ele>748</ele>
        <time>2012-10-21T09:06:30.000Z</time>
      </trkpt>
      <trkpt lat="45.50313" lon="3.40278">
        <ele>750</ele>
        <time>2012-10-21T09:06:31.000Z</time>
      </trkpt>
      <trkpt lat="45.5031" lon="3.40279">
        <ele>753</ele>
        <time>2012-10-21T09:06:32.000Z</time>
      </trkpt>
      <trkpt lat="45.50306" lon="3.40279">
        <ele>756</ele>
        <time>2012-10-21T09:06:33.000Z</time>
      </trkpt>
      <trkpt lat="45.50302" lon="3.4028">
        <ele>756</ele>
        <time>2012-10-21T09:06:34.000Z</time>
      </trkpt>
      <trkpt lat="45.50298" lon="3.40281">
        <ele>754</ele>
        <time>2012-10-21T09:06:35.000Z</time>
      </trkpt>
      <trkpt lat="45.50295" lon="3.40282">
        <ele>756</ele>
        <time>2012-10-21T09:06:36.000Z</time>
      </trkpt>
      <trkpt lat="45.50291" lon="3.40283">
        <ele>757</ele>
        <time>2012-10-21T09:06:37.000Z</time>
      </trkpt>
      <trkpt lat="45.50287" lon="3.40284">
        <ele>758</ele>
        <time>2012-10-21T09:06:38.000Z</time>
      </trkpt>
      <trkpt lat="45.50283" lon="3.40285">
        <ele>758</ele>
        <time>2012-10-21T09:06:39.000Z</time>
      </trkpt>
      <trkpt lat="45.5028" lon="3.40287">
        <ele>758</ele>
        <time>2012-10-21T09:06:40.000Z</time>
      </trkpt>
      <trkpt lat="45.50277" lon="3.40289">
        <ele>757</ele>
        <time>2012-10-21T09:06:41.000Z</time>
      </trkpt>
      <trkpt lat="45.50273" lon="3.4029">
        <ele>757</ele>
        <time>2012-10-21T09:06:42.000Z</time>
      </trkpt>
      <trkpt lat="45.50269" lon="3.40291">
        <ele>756</ele>
        <time>2012-10-21T09:06:43.000Z</time>
      </trkpt>
      <trkpt lat="45.50266" lon="3.40293">
        <ele>757</ele>
        <time>2012-10-21T09:06:44.000Z</time>
      </trkpt>
      <trkpt lat="45.50262" lon="3.40294">
        <ele>756</ele>
        <time>2012-10-21T09:06:45.000Z</time>
      </trkpt>
      <trkpt lat="45.50259" lon="3.40296">
        <ele>756</ele>
        <time>2012-10-21T09:06:46.000Z</time>
      </trkpt>
      <trkpt lat="45.50256" lon="3.40299">
        <ele>754</ele>
        <time>2012-10-21T09:06:47.000Z</time>
      </trkpt>
      <trkpt lat="45.50253" lon="3.40301">
        <ele>753</ele>
        <time>2012-10-21T09:06:48.000Z</time>
      </trkpt>
      <trkpt lat="45.5025" lon="3.40303">
        <ele>754</ele>
        <time>2012-10-21T09:06:49.000Z</time>
      </trkpt>
      <trkpt lat="45.50247" lon="3.40305">
        <ele>756</ele>
        <time>2012-10-21T09:06:50.000Z</time>
      </trkpt>
      <trkpt lat="45.50244" lon="3.40307">
        <ele>755</ele>
        <time>2012-10-21T09:06:51.000Z</time>
      </trkpt>
      <trkpt lat="45.50241" lon="3.40309">
        <ele>753</ele>
        <time>2012-10-21T09:06:52.000Z</time>
      </trkpt>
      <trkpt lat="45.50236" lon="3.40311">
        <ele>755</ele>
        <time>2012-10-21T09:06:54.000Z</time>
      </trkpt>
      <trkpt lat="45.50232" lon="3.40311">
        <ele>753</ele>
        <time>2012-10-21T09:06:55.000Z</time>
      </trkpt>
      <trkpt lat="45.50228" lon="3.40312">
        <ele>755</ele>
        <time>2012-10-21T09:06:56.000Z</time>
      </trkpt>
      <trkpt lat="45.50224" lon="3.40313">
        <ele>755</ele>
        <time>2012-10-21T09:06:57.000Z</time>
      </trkpt>
      <trkpt lat="45.5022" lon="3.40313">
        <ele>757</ele>
        <time>2012-10-21T09:06:58.000Z</time>
      </trkpt>
      <trkpt lat="45.50216" lon="3.40313">
        <ele>758</ele>
        <time>2012-10-21T09:06:59.000Z</time>
      </trkpt>
      <trkpt lat="45.50212" lon="3.40313">
        <ele>757</ele>
        <time>2012-10-21T09:07:00.000Z</time>
      </trkpt>
      <trkpt lat="45.50209" lon="3.40313">
        <ele>756</ele>
        <time>2012-10-21T09:07:01.000Z</time>
      </trkpt>
      <trkpt lat="45.50206" lon="3.40313">
        <ele>755</ele>
        <time>2012-10-21T09:07:02.000Z</time>
      </trkpt>
      <trkpt lat="45.50203" lon="3.40313">
        <ele>755</ele>
        <time>2012-10-21T09:07:03.000Z</time>
      </trkpt>
      <trkpt lat="45.502" lon="3.40313">
        <ele>753</ele>
        <time>2012-10-21T09:07:04.000Z</time>
      </trkpt>
      <trkpt lat="45.50198" lon="3.40312">
        <ele>753</ele>
        <time>2012-10-21T09:07:05.000Z</time>
      </trkpt>
      <trkpt lat="45.50195" lon="3.40312">
        <ele>754</ele>
        <time>2012-10-21T09:07:06.000Z</time>
      </trkpt>
      <trkpt lat="45.50192" lon="3.40311">
        <ele>755</ele>
        <time>2012-10-21T09:07:07.000Z</time>
      </trkpt>
      <trkpt lat="45.5019" lon="3.40311">
        <ele>755</ele>
        <time>2012-10-21T09:07:08.000Z</time>
      </trkpt>
      <trkpt lat="45.50187" lon="3.4031">
        <ele>755</ele>
        <time>2012-10-21T09:07:09.000Z</time>
      </trkpt>
      <trkpt lat="45.50184" lon="3.4031">
        <ele>757</ele>
        <time>2012-10-21T09:07:10.000Z</time>
      </trkpt>
      <trkpt lat="45.50181" lon="3.4031">
        <ele>758</ele>
        <time>2012-10-21T09:07:11.000Z</time>
      </trkpt>
      <trkpt lat="45.50177" lon="3.40311">
        <ele>759</ele>
        <time>2012-10-21T09:07:12.000Z</time>
      </trkpt>
      <trkpt lat="45.50174" lon="3.40312">
        <ele>760</ele>
        <time>2012-10-21T09:07:13.000Z</time>
      </trkpt>
      <trkpt lat="45.5017" lon="3.40313">
        <ele>758</ele>
        <time>2012-10-21T09:07:14.000Z</time>
      </trkpt>
      <trkpt lat="45.50167" lon="3.40314">
        <ele>756</ele>
        <time>2012-10-21T09:07:15.000Z</time>
      </trkpt>
      <trkpt lat="45.50163" lon="3.40314">
        <ele>755</ele>
        <time>2012-10-21T09:07:16.000Z</time>
      </trkpt>
      <trkpt lat="45.5016" lon="3.40315">
        <ele>755</ele>
        <time>2012-10-21T09:07:17.000Z</time>
      </trkpt>
      <trkpt lat="45.50156" lon="3.40316">
        <ele>755</ele>
        <time>2012-10-21T09:07:18.000Z</time>
      </trkpt>
      <trkpt lat="45.50153" lon="3.40316">
        <ele>756</ele>
        <time>2012-10-21T09:07:19.000Z</time>
      </trkpt>
      <trkpt lat="45.5015" lon="3.40316">
        <ele>755</ele>
        <time>2012-10-21T09:07:20.000Z</time>
      </trkpt>
      <trkpt lat="45.50147" lon="3.40315">
        <ele>754</ele>
        <time>2012-10-21T09:07:21.000Z</time>
      </trkpt>
      <trkpt lat="45.50144" lon="3.40314">
        <ele>754</ele>
        <time>2012-10-21T09:07:22.000Z</time>
      </trkpt>
      <trkpt lat="45.50142" lon="3.40312">
        <ele>754</ele>
        <time>2012-10-21T09:07:23.000Z</time>
      </trkpt>
      <trkpt lat="45.5014" lon="3.4031">
        <ele>753</ele>
        <time>2012-10-21T09:07:24.000Z</time>
      </trkpt>
      <trkpt lat="45.50138" lon="3.40308">
        <ele>753</ele>
        <time>2012-10-21T09:07:25.000Z</time>
      </trkpt>
      <trkpt lat="45.50137" lon="3.40305">
        <ele>754</ele>
        <time>2012-10-21T09:07:26.000Z</time>
      </trkpt>
      <trkpt lat="45.50136" lon="3.40302">
        <ele>755</ele>
        <time>2012-10-21T09:07:27.000Z</time>
      </trkpt>
      <trkpt lat="45.50135" lon="3.40299">
        <ele>755</ele>
        <time>2012-10-21T09:07:28.000Z</time>
      </trkpt>
      <trkpt lat="45.50135" lon="3.40296">
        <ele>754</ele>
        <time>2012-10-21T09:07:30.000Z</time>
      </trkpt>
      <trkpt lat="45.50135" lon="3.40289">
        <ele>756</ele>
        <time>2012-10-21T09:07:31.000Z</time>
      </trkpt>
      <trkpt lat="45.50135" lon="3.40286">
        <ele>755</ele>
        <time>2012-10-21T09:07:36.000Z</time>
      </trkpt>
      <trkpt lat="45.50136" lon="3.40271">
        <ele>752</ele>
        <time>2012-10-21T09:07:37.000Z</time>
      </trkpt>
      <trkpt lat="45.50139" lon="3.40261">
        <ele>751</ele>
        <time>2012-10-21T09:07:40.000Z</time>
      </trkpt>
      <trkpt lat="45.50139" lon="3.40257">
        <ele>746</ele>
        <time>2012-10-21T09:07:41.000Z</time>
      </trkpt>
      <trkpt lat="45.5014" lon="3.40254">
        <ele>748</ele>
        <time>2012-10-21T09:07:42.000Z</time>
      </trkpt>
      <trkpt lat="45.50141" lon="3.40247">
        <ele>746</ele>
        <time>2012-10-21T09:07:44.000Z</time>
      </trkpt>
      <trkpt lat="45.50141" lon="3.40241">
        <ele>743</ele>
        <time>2012-10-21T09:07:45.000Z</time>
      </trkpt>
      <trkpt lat="45.50141" lon="3.40236">
        <ele>743</ele>
        <time>2012-10-21T09:07:46.000Z</time>
      </trkpt>
      <trkpt lat="45.5014" lon="3.4023">
        <ele>743</ele>
        <time>2012-10-21T09:07:47.000Z</time>
      </trkpt>
      <trkpt lat="45.5014" lon="3.40225">
        <ele>746</ele>
        <time>2012-10-21T09:07:48.000Z</time>
      </trkpt>
      <trkpt lat="45.50139" lon="3.4022">
        <ele>748</ele>
        <time>2012-10-21T09:07:49.000Z</time>
      </trkpt>
      <trkpt lat="45.50137" lon="3.40215">
        <ele>751</ele>
        <time>2012-10-21T09:07:50.000Z</time>
      </trkpt>
      <trkpt lat="45.50136" lon="3.4021">
        <ele>750</ele>
        <time>2012-10-21T09:07:51.000Z</time>
      </trkpt>
      <trkpt lat="45.50134" lon="3.40205">
        <ele>750</ele>
        <time>2012-10-21T09:07:52.000Z</time>
      </trkpt>
      <trkpt lat="45.50133" lon="3.40201">
        <ele>753</ele>
        <time>2012-10-21T09:07:53.000Z</time>
      </trkpt>
      <trkpt lat="45.50131" lon="3.40197">
        <ele>751</ele>
        <time>2012-10-21T09:07:54.000Z</time>
      </trkpt>
      <trkpt lat="45.50129" lon="3.40194">
        <ele>751</ele>
        <time>2012-10-21T09:07:55.000Z</time>
      </trkpt>
      <trkpt lat="45.50127" lon="3.40191">
        <ele>753</ele>
        <time>2012-10-21T09:07:56.000Z</time>
      </trkpt>
      <trkpt lat="45.50125" lon="3.40189">
        <ele>753</ele>
        <time>2012-10-21T09:07:57.000Z</time>
      </trkpt>
      <trkpt lat="45.50123" lon="3.40186">
        <ele>754</ele>
        <time>2012-10-21T09:07:58.000Z</time>
      </trkpt>
      <trkpt lat="45.5012" lon="3.40184">
        <ele>756</ele>
        <time>2012-10-21T09:07:59.000Z</time>
      </trkpt>
      <trkpt lat="45.50118" lon="3.40182">
        <ele>757</ele>
        <time>2012-10-21T09:08:00.000Z</time>
      </trkpt>
      <trkpt lat="45.50116" lon="3.4018">
        <ele>758</ele>
        <time>2012-10-21T09:08:01.000Z</time>
      </trkpt>
      <trkpt lat="45.50114" lon="3.40178">
        <ele>758</ele>
        <time>2012-10-21T09:08:02.000Z</time>
      </trkpt>
      <trkpt lat="45.50112" lon="3.40176">
        <ele>758</ele>
        <time>2012-10-21T09:08:03.000Z</time>
      </trkpt>
      <trkpt lat="45.5011" lon="3.40175">
        <ele>758</ele>
        <time>2012-10-21T09:08:04.000Z</time>
      </trkpt>
      <trkpt lat="45.50108" lon="3.40173">
        <ele>758</ele>
        <time>2012-10-21T09:08:05.000Z</time>
      </trkpt>
      <trkpt lat="45.50105" lon="3.40172">
        <ele>757</ele>
        <time>2012-10-21T09:08:06.000Z</time>
      </trkpt>
      <trkpt lat="45.50102" lon="3.40171">
        <ele>758</ele>
        <time>2012-10-21T09:08:07.000Z</time>
      </trkpt>
      <trkpt lat="45.50099" lon="3.40171">
        <ele>759</ele>
        <time>2012-10-21T09:08:08.000Z</time>
      </trkpt>
      <trkpt lat="45.50096" lon="3.4017">
        <ele>758</ele>
        <time>2012-10-21T09:08:09.000Z</time>
      </trkpt>
      <trkpt lat="45.50094" lon="3.40169">
        <ele>760</ele>
        <time>2012-10-21T09:08:10.000Z</time>
      </trkpt>
      <trkpt lat="45.50091" lon="3.40168">
        <ele>762</ele>
        <time>2012-10-21T09:08:11.000Z</time>
      </trkpt>
      <trkpt lat="45.50088" lon="3.40167">
        <ele>762</ele>
        <time>2012-10-21T09:08:12.000Z</time>
      </trkpt>
      <trkpt lat="45.50086" lon="3.40166">
        <ele>763</ele>
        <time>2012-10-21T09:08:13.000Z</time>
      </trkpt>
      <trkpt lat="45.50084" lon="3.40165">
        <ele>764</ele>
        <time>2012-10-21T09:08:14.000Z</time>
      </trkpt>
      <trkpt lat="45.50081" lon="3.40162">
        <ele>768</ele>
        <time>2012-10-21T09:08:16.000Z</time>
      </trkpt>
      <trkpt lat="45.50082" lon="3.4016">
        <ele>767</ele>
        <time>2012-10-21T09:08:17.000Z</time>
      </trkpt>
      <trkpt lat="45.50082" lon="3.40156">
        <ele>767</ele>
        <time>2012-10-21T09:08:18.000Z</time>
      </trkpt>
      <trkpt lat="45.50084" lon="3.40151">
        <ele>765</ele>
        <time>2012-10-21T09:08:19.000Z</time>
      </trkpt>
      <trkpt lat="45.50085" lon="3.40147">
        <ele>764</ele>
        <time>2012-10-21T09:08:20.000Z</time>
      </trkpt>
      <trkpt lat="45.50086" lon="3.40142">
        <ele>763</ele>
        <time>2012-10-21T09:08:21.000Z</time>
      </trkpt>
      <trkpt lat="45.50089" lon="3.40136">
        <ele>768</ele>
        <time>2012-10-21T09:08:22.000Z</time>
      </trkpt>
      <trkpt lat="45.50091" lon="3.40131">
        <ele>766</ele>
        <time>2012-10-21T09:08:23.000Z</time>
      </trkpt>
      <trkpt lat="45.50094" lon="3.40126">
        <ele>766</ele>
        <time>2012-10-21T09:08:24.000Z</time>
      </trkpt>
      <trkpt lat="45.50096" lon="3.40121">
        <ele>766</ele>
        <time>2012-10-21T09:08:25.000Z</time>
      </trkpt>
      <trkpt lat="45.50099" lon="3.40117">
        <ele>763</ele>
        <time>2012-10-21T09:08:26.000Z</time>
      </trkpt>
      <trkpt lat="45.50101" lon="3.40113">
        <ele>762</ele>
        <time>2012-10-21T09:08:27.000Z</time>
      </trkpt>
      <trkpt lat="45.50102" lon="3.4011">
        <ele>763</ele>
        <time>2012-10-21T09:08:28.000Z</time>
      </trkpt>
      <trkpt lat="45.50104" lon="3.40107">
        <ele>761</ele>
        <time>2012-10-21T09:08:40.000Z</time>
      </trkpt>
      <trkpt lat="45.50107" lon="3.40095">
        <ele>761</ele>
        <time>2012-10-21T09:08:41.000Z</time>
      </trkpt>
      <trkpt lat="45.50111" lon="3.40093">
        <ele>765</ele>
        <time>2012-10-21T09:11:18.000Z</time>
      </trkpt>
      <trkpt lat="45.50112" lon="3.40093">
        <ele>765</ele>
        <time>2012-10-21T09:11:19.000Z</time>
      </trkpt>
      <trkpt lat="45.50115" lon="3.40094">
        <ele>764</ele>
        <time>2012-10-21T09:11:21.000Z</time>
      </trkpt>
      <trkpt lat="45.50117" lon="3.40093">
        <ele>762</ele>
        <time>2012-10-21T09:11:22.000Z</time>
      </trkpt>
      <trkpt lat="45.50119" lon="3.4009">
        <ele>761</ele>
        <time>2012-10-21T09:11:23.000Z</time>
      </trkpt>
      <trkpt lat="45.50122" lon="3.40088">
        <ele>763</ele>
        <time>2012-10-21T09:11:24.000Z</time>
      </trkpt>
      <trkpt lat="45.50125" lon="3.40086">
        <ele>761</ele>
        <time>2012-10-21T09:11:25.000Z</time>
      </trkpt>
      <trkpt lat="45.50128" lon="3.40083">
        <ele>759</ele>
        <time>2012-10-21T09:11:26.000Z</time>
      </trkpt>
      <trkpt lat="45.50131" lon="3.4008">
        <ele>760</ele>
        <time>2012-10-21T09:11:27.000Z</time>
      </trkpt>
      <trkpt lat="45.50133" lon="3.40078">
        <ele>760</ele>
        <time>2012-10-21T09:11:28.000Z</time>
      </trkpt>
      <trkpt lat="45.50136" lon="3.40076">
        <ele>762</ele>
        <time>2012-10-21T09:11:29.000Z</time>
      </trkpt>
      <trkpt lat="45.50138" lon="3.40073">
        <ele>760</ele>
        <time>2012-10-21T09:11:30.000Z</time>
      </trkpt>
      <trkpt lat="45.50141" lon="3.40069">
        <ele>758</ele>
        <time>2012-10-21T09:11:31.000Z</time>
      </trkpt>
      <trkpt lat="45.50143" lon="3.40066">
        <ele>756</ele>
        <time>2012-10-21T09:11:32.000Z</time>
      </trkpt>
      <trkpt lat="45.50145" lon="3.40063">
        <ele>758</ele>
        <time>2012-10-21T09:11:33.000Z</time>
      </trkpt>
      <trkpt lat="45.50148" lon="3.40058">
        <ele>758</ele>
        <time>2012-10-21T09:11:34.000Z</time>
      </trkpt>
      <trkpt lat="45.50151" lon="3.40052">
        <ele>758</ele>
        <time>2012-10-21T09:11:35.000Z</time>
      </trkpt>
      <trkpt lat="45.50155" lon="3.40046">
        <ele>758</ele>
        <time>2012-10-21T09:11:36.000Z</time>
      </trkpt>
      <trkpt lat="45.5016" lon="3.4004">
        <ele>756</ele>
        <time>2012-10-21T09:11:37.000Z</time>
      </trkpt>
      <trkpt lat="45.50166" lon="3.40034">
        <ele>756</ele>
        <time>2012-10-21T09:11:38.000Z</time>
      </trkpt>
      <trkpt lat="45.50173" lon="3.40029">
        <ele>754</ele>
        <time>2012-10-21T09:11:39.000Z</time>
      </trkpt>
      <trkpt lat="45.50179" lon="3.40023">
        <ele>754</ele>
        <time>2012-10-21T09:11:40.000Z</time>
      </trkpt>
      <trkpt lat="45.50186" lon="3.40017">
        <ele>754</ele>
        <time>2012-10-21T09:11:41.000Z</time>
      </trkpt>
      <trkpt lat="45.50192" lon="3.40011">
        <ele>753</ele>
        <time>2012-10-21T09:11:42.000Z</time>
      </trkpt>
      <trkpt lat="45.50199" lon="3.40004">
        <ele>752</ele>
        <time>2012-10-21T09:11:43.000Z</time>
      </trkpt>
      <trkpt lat="45.50206" lon="3.39997">
        <ele>752</ele>
        <time>2012-10-21T09:11:44.000Z</time>
      </trkpt>
      <trkpt lat="45.50213" lon="3.3999">
        <ele>752</ele>
        <time>2012-10-21T09:11:45.000Z</time>
      </trkpt>
      <trkpt lat="45.50219" lon="3.39985">
        <ele>753</ele>
        <time>2012-10-21T09:11:46.000Z</time>
      </trkpt>
      <trkpt lat="45.50224" lon="3.3998">
        <ele>752</ele>
        <time>2012-10-21T09:11:47.000Z</time>
      </trkpt>
      <trkpt lat="45.50229" lon="3.39974">
        <ele>751</ele>
        <time>2012-10-21T09:11:48.000Z</time>
      </trkpt>
      <trkpt lat="45.50234" lon="3.39968">
        <ele>749</ele>
        <time>2012-10-21T09:11:49.000Z</time>
      </trkpt>
      <trkpt lat="45.50238" lon="3.39962">
        <ele>748</ele>
        <time>2012-10-21T09:11:50.000Z</time>
      </trkpt>
      <trkpt lat="45.50242" lon="3.39955">
        <ele>749</ele>
        <time>2012-10-21T09:11:51.000Z</time>
      </trkpt>
      <trkpt lat="45.50247" lon="3.39946">
        <ele>749</ele>
        <time>2012-10-21T09:11:52.000Z</time>
      </trkpt>
      <trkpt lat="45.50252" lon="3.39936">
        <ele>748</ele>
        <time>2012-10-21T09:11:53.000Z</time>
      </trkpt>
      <trkpt lat="45.50257" lon="3.39925">
        <ele>747</ele>
        <time>2012-10-21T09:11:54.000Z</time>
      </trkpt>
      <trkpt lat="45.50261" lon="3.39915">
        <ele>743</ele>
        <time>2012-10-21T09:11:55.000Z</time>
      </trkpt>
      <trkpt lat="45.50266" lon="3.39904">
        <ele>741</ele>
        <time>2012-10-21T09:11:56.000Z</time>
      </trkpt>
      <trkpt lat="45.50271" lon="3.39895">
        <ele>742</ele>
        <time>2012-10-21T09:11:57.000Z</time>
      </trkpt>
      <trkpt lat="45.50275" lon="3.39886">
        <ele>743</ele>
        <time>2012-10-21T09:11:58.000Z</time>
      </trkpt>
      <trkpt lat="45.50279" lon="3.39877">
        <ele>744</ele>
        <time>2012-10-21T09:11:59.000Z</time>
      </trkpt>
      <trkpt lat="45.50283" lon="3.39869">
        <ele>747</ele>
        <time>2012-10-21T09:12:00.000Z</time>
      </trkpt>
      <trkpt lat="45.50288" lon="3.3986">
        <ele>745</ele>
        <time>2012-10-21T09:12:01.000Z</time>
      </trkpt>
      <trkpt lat="45.50294" lon="3.39848">
        <ele>746</ele>
        <time>2012-10-21T09:12:02.000Z</time>
      </trkpt>
      <trkpt lat="45.503" lon="3.39836">
        <ele>743</ele>
        <time>2012-10-21T09:12:03.000Z</time>
      </trkpt>
      <trkpt lat="45.50306" lon="3.39825">
        <ele>739</ele>
        <time>2012-10-21T09:12:04.000Z</time>
      </trkpt>
      <trkpt lat="45.50313" lon="3.39814">
        <ele>737</ele>
        <time>2012-10-21T09:12:05.000Z</time>
      </trkpt>
      <trkpt lat="45.50322" lon="3.39803">
        <ele>737</ele>
        <time>2012-10-21T09:12:06.000Z</time>
      </trkpt>
      <trkpt lat="45.50331" lon="3.39793">
        <ele>737</ele>
        <time>2012-10-21T09:12:07.000Z</time>
      </trkpt>
      <trkpt lat="45.50341" lon="3.39783">
        <ele>739</ele>
        <time>2012-10-21T09:12:08.000Z</time>
      </trkpt>
      <trkpt lat="45.50353" lon="3.39773">
        <ele>739</ele>
        <time>2012-10-21T09:12:09.000Z</time>
      </trkpt>
      <trkpt lat="45.50364" lon="3.39762">
        <ele>736</ele>
        <time>2012-10-21T09:12:10.000Z</time>
      </trkpt>
      <trkpt lat="45.50375" lon="3.3975">
        <ele>735</ele>
        <time>2012-10-21T09:12:11.000Z</time>
      </trkpt>
      <trkpt lat="45.50384" lon="3.39739">
        <ele>735</ele>
        <time>2012-10-21T09:12:12.000Z</time>
      </trkpt>
      <trkpt lat="45.50392" lon="3.3973">
        <ele>735</ele>
        <time>2012-10-21T09:12:13.000Z</time>
      </trkpt>
      <trkpt lat="45.50399" lon="3.39721">
        <ele>734</ele>
        <time>2012-10-21T09:12:14.000Z</time>
      </trkpt>
      <trkpt lat="45.50407" lon="3.39712">
        <ele>727</ele>
        <time>2012-10-21T09:12:15.000Z</time>
      </trkpt>
      <trkpt lat="45.50415" lon="3.39702">
        <ele>725</ele>
        <time>2012-10-21T09:12:16.000Z</time>
      </trkpt>
      <trkpt lat="45.50423" lon="3.3969">
        <ele>726</ele>
        <time>2012-10-21T09:12:17.000Z</time>
      </trkpt>
      <trkpt lat="45.50431" lon="3.39679">
        <ele>725</ele>
        <time>2012-10-21T09:12:18.000Z</time>
      </trkpt>
      <trkpt lat="45.50439" lon="3.39665">
        <ele>721</ele>
        <time>2012-10-21T09:12:19.000Z</time>
      </trkpt>
      <trkpt lat="45.50447" lon="3.39651">
        <ele>718</ele>
        <time>2012-10-21T09:12:20.000Z</time>
      </trkpt>
      <trkpt lat="45.50451" lon="3.39638">
        <ele>719</ele>
        <time>2012-10-21T09:12:21.000Z</time>
      </trkpt>
      <trkpt lat="45.50456" lon="3.39628">
        <ele>718</ele>
        <time>2012-10-21T09:12:22.000Z</time>
      </trkpt>
      <trkpt lat="45.50461" lon="3.39618">
        <ele>721</ele>
        <time>2012-10-21T09:12:23.000Z</time>
      </trkpt>
      <trkpt lat="45.50465" lon="3.39609">
        <ele>719</ele>
        <time>2012-10-21T09:12:24.000Z</time>
      </trkpt>
      <trkpt lat="45.5047" lon="3.39596">
        <ele>716</ele>
        <time>2012-10-21T09:12:25.000Z</time>
      </trkpt>
      <trkpt lat="45.50472" lon="3.3958">
        <ele>716</ele>
        <time>2012-10-21T09:12:26.000Z</time>
      </trkpt>
      <trkpt lat="45.50474" lon="3.39563">
        <ele>716</ele>
        <time>2012-10-21T09:12:27.000Z</time>
      </trkpt>
      <trkpt lat="45.50474" lon="3.39546">
        <ele>715</ele>
        <time>2012-10-21T09:12:28.000Z</time>
      </trkpt>
      <trkpt lat="45.50473" lon="3.3953">
        <ele>714</ele>
        <time>2012-10-21T09:12:29.000Z</time>
      </trkpt>
      <trkpt lat="45.50471" lon="3.39516">
        <ele>710</ele>
        <time>2012-10-21T09:12:30.000Z</time>
      </trkpt>
      <trkpt lat="45.50471" lon="3.39501">
        <ele>705</ele>
        <time>2012-10-21T09:12:31.000Z</time>
      </trkpt>
      <trkpt lat="45.5047" lon="3.39486">
        <ele>704</ele>
        <time>2012-10-21T09:12:32.000Z</time>
      </trkpt>
      <trkpt lat="45.50469" lon="3.39471">
        <ele>703</ele>
        <time>2012-10-21T09:12:33.000Z</time>
      </trkpt>
      <trkpt lat="45.5047" lon="3.39456">
        <ele>707</ele>
        <time>2012-10-21T09:12:34.000Z</time>
      </trkpt>
      <trkpt lat="45.50471" lon="3.39442">
        <ele>706</ele>
        <time>2012-10-21T09:12:35.000Z</time>
      </trkpt>
      <trkpt lat="45.50472" lon="3.39427">
        <ele>708</ele>
        <time>2012-10-21T09:12:36.000Z</time>
      </trkpt>
      <trkpt lat="45.50472" lon="3.39413">
        <ele>711</ele>
        <time>2012-10-21T09:12:37.000Z</time>
      </trkpt>
      <trkpt lat="45.50471" lon="3.39399">
        <ele>707</ele>
        <time>2012-10-21T09:12:38.000Z</time>
      </trkpt>
      <trkpt lat="45.50471" lon="3.39385">
        <ele>705</ele>
        <time>2012-10-21T09:12:39.000Z</time>
      </trkpt>
      <trkpt lat="45.50471" lon="3.39371">
        <ele>703</ele>
        <time>2012-10-21T09:12:40.000Z</time>
      </trkpt>
      <trkpt lat="45.5047" lon="3.39356">
        <ele>700</ele>
        <time>2012-10-21T09:12:41.000Z</time>
      </trkpt>
      <trkpt lat="45.5047" lon="3.39342">
        <ele>698</ele>
        <time>2012-10-21T09:12:42.000Z</time>
      </trkpt>
      <trkpt lat="45.5047" lon="3.39326">
        <ele>696</ele>
        <time>2012-10-21T09:12:43.000Z</time>
      </trkpt>
      <trkpt lat="45.50472" lon="3.39311">
        <ele>693</ele>
        <time>2012-10-21T09:12:44.000Z</time>
      </trkpt>
      <trkpt lat="45.50474" lon="3.39294">
        <ele>687</ele>
        <time>2012-10-21T09:12:45.000Z</time>
      </trkpt>
      <trkpt lat="45.50471" lon="3.39276">
        <ele>680</ele>
        <time>2012-10-21T09:12:46.000Z</time>
      </trkpt>
      <trkpt lat="45.50464" lon="3.39259">
        <ele>672</ele>
        <time>2012-10-21T09:12:47.000Z</time>
      </trkpt>
      <trkpt lat="45.50454" lon="3.39242">
        <ele>667</ele>
        <time>2012-10-21T09:12:48.000Z</time>
      </trkpt>
      <trkpt lat="45.50443" lon="3.39228">
        <ele>664</ele>
        <time>2012-10-21T09:12:49.000Z</time>
      </trkpt>
      <trkpt lat="45.50428" lon="3.39214">
        <ele>661</ele>
        <time>2012-10-21T09:12:50.000Z</time>
      </trkpt>
      <trkpt lat="45.50412" lon="3.39198">
        <ele>657</ele>
        <time>2012-10-21T09:12:51.000Z</time>
      </trkpt>
      <trkpt lat="45.504" lon="3.39187">
        <ele>657</ele>
        <time>2012-10-21T09:12:52.000Z</time>
      </trkpt>
      <trkpt lat="45.5039" lon="3.39179">
        <ele>655</ele>
        <time>2012-10-21T09:12:53.000Z</time>
      </trkpt>
      <trkpt lat="45.50379" lon="3.39171">
        <ele>653</ele>
        <time>2012-10-21T09:12:54.000Z</time>
      </trkpt>
      <trkpt lat="45.50367" lon="3.39168">
        <ele>655</ele>
        <time>2012-10-21T09:12:55.000Z</time>
      </trkpt>
      <trkpt lat="45.50357" lon="3.39165">
        <ele>655</ele>
        <time>2012-10-21T09:12:56.000Z</time>
      </trkpt>
      <trkpt lat="45.50345" lon="3.39162">
        <ele>650</ele>
        <time>2012-10-21T09:12:57.000Z</time>
      </trkpt>
      <trkpt lat="45.50332" lon="3.39159">
        <ele>651</ele>
        <time>2012-10-21T09:12:58.000Z</time>
      </trkpt>
      <trkpt lat="45.50319" lon="3.39156">
        <ele>651</ele>
        <time>2012-10-21T09:12:59.000Z</time>
      </trkpt>
      <trkpt lat="45.50304" lon="3.39154">
        <ele>652</ele>
        <time>2012-10-21T09:13:00.000Z</time>
      </trkpt>
      <trkpt lat="45.50289" lon="3.39154">
        <ele>650</ele>
        <time>2012-10-21T09:13:01.000Z</time>
      </trkpt>
      <trkpt lat="45.50275" lon="3.39155">
        <ele>649</ele>
        <time>2012-10-21T09:13:02.000Z</time>
      </trkpt>
      <trkpt lat="45.50264" lon="3.39156">
        <ele>650</ele>
        <time>2012-10-21T09:13:03.000Z</time>
      </trkpt>
      <trkpt lat="45.50255" lon="3.39157">
        <ele>652</ele>
        <time>2012-10-21T09:13:04.000Z</time>
      </trkpt>
      <trkpt lat="45.50248" lon="3.39158">
        <ele>655</ele>
        <time>2012-10-21T09:13:05.000Z</time>
      </trkpt>
      <trkpt lat="45.50243" lon="3.39161">
        <ele>654</ele>
        <time>2012-10-21T09:13:06.000Z</time>
      </trkpt>
      <trkpt lat="45.50236" lon="3.39164">
        <ele>651</ele>
        <time>2012-10-21T09:13:07.000Z</time>
      </trkpt>
      <trkpt lat="45.50226" lon="3.39171">
        <ele>649</ele>
        <time>2012-10-21T09:13:08.000Z</time>
      </trkpt>
      <trkpt lat="45.50215" lon="3.39181">
        <ele>647</ele>
        <time>2012-10-21T09:13:09.000Z</time>
      </trkpt>
      <trkpt lat="45.50207" lon="3.3919">
        <ele>645</ele>
        <time>2012-10-21T09:13:10.000Z</time>
      </trkpt>
      <trkpt lat="45.50198" lon="3.39199">
        <ele>645</ele>
        <time>2012-10-21T09:13:11.000Z</time>
      </trkpt>
      <trkpt lat="45.5019" lon="3.39207">
        <ele>644</ele>
        <time>2012-10-21T09:13:12.000Z</time>
      </trkpt>
      <trkpt lat="45.50183" lon="3.39215">
        <ele>643</ele>
        <time>2012-10-21T09:13:13.000Z</time>
      </trkpt>
      <trkpt lat="45.50174" lon="3.3922">
        <ele>643</ele>
        <time>2012-10-21T09:13:14.000Z</time>
      </trkpt>
      <trkpt lat="45.50165" lon="3.39225">
        <ele>638</ele>
        <time>2012-10-21T09:13:15.000Z</time>
      </trkpt>
      <trkpt lat="45.50154" lon="3.39229">
        <ele>636</ele>
        <time>2012-10-21T09:13:16.000Z</time>
      </trkpt>
      <trkpt lat="45.50144" lon="3.39231">
        <ele>632</ele>
        <time>2012-10-21T09:13:17.000Z</time>
      </trkpt>
      <trkpt lat="45.50135" lon="3.39234">
        <ele>627</ele>
        <time>2012-10-21T09:13:18.000Z</time>
      </trkpt>
      <trkpt lat="45.50125" lon="3.39236">
        <ele>627</ele>
        <time>2012-10-21T09:13:19.000Z</time>
      </trkpt>
      <trkpt lat="45.50114" lon="3.39239">
        <ele>627</ele>
        <time>2012-10-21T09:13:20.000Z</time>
      </trkpt>
      <trkpt lat="45.501" lon="3.39238">
        <ele>624</ele>
        <time>2012-10-21T09:13:21.000Z</time>
      </trkpt>
      <trkpt lat="45.50087" lon="3.39237">
        <ele>625</ele>
        <time>2012-10-21T09:13:22.000Z</time>
      </trkpt>
      <trkpt lat="45.50073" lon="3.39237">
        <ele>626</ele>
        <time>2012-10-21T09:13:23.000Z</time>
      </trkpt>
      <trkpt lat="45.5006" lon="3.39237">
        <ele>627</ele>
        <time>2012-10-21T09:13:24.000Z</time>
      </trkpt>
      <trkpt lat="45.50048" lon="3.39238">
        <ele>627</ele>
        <time>2012-10-21T09:13:25.000Z</time>
      </trkpt>
      <trkpt lat="45.50038" lon="3.39239">
        <ele>623</ele>
        <time>2012-10-21T09:13:26.000Z</time>
      </trkpt>
      <trkpt lat="45.50028" lon="3.3924">
        <ele>622</ele>
        <time>2012-10-21T09:13:27.000Z</time>
      </trkpt>
      <trkpt lat="45.50019" lon="3.39242">
        <ele>623</ele>
        <time>2012-10-21T09:13:28.000Z</time>
      </trkpt>
      <trkpt lat="45.50006" lon="3.39246">
        <ele>624</ele>
        <time>2012-10-21T09:13:29.000Z</time>
      </trkpt>
      <trkpt lat="45.49994" lon="3.3925">
        <ele>621</ele>
        <time>2012-10-21T09:13:30.000Z</time>
      </trkpt>
      <trkpt lat="45.49984" lon="3.39255">
        <ele>616</ele>
        <time>2012-10-21T09:13:31.000Z</time>
      </trkpt>
      <trkpt lat="45.49972" lon="3.39259">
        <ele>609</ele>
        <time>2012-10-21T09:13:32.000Z</time>
      </trkpt>
      <trkpt lat="45.4996" lon="3.39262">
        <ele>606</ele>
        <time>2012-10-21T09:13:33.000Z</time>
      </trkpt>
      <trkpt lat="45.49949" lon="3.39265">
        <ele>606</ele>
        <time>2012-10-21T09:13:34.000Z</time>
      </trkpt>
      <trkpt lat="45.49938" lon="3.39267">
        <ele>603</ele>
        <time>2012-10-21T09:13:35.000Z</time>
      </trkpt>
      <trkpt lat="45.49927" lon="3.39272">
        <ele>602</ele>
        <time>2012-10-21T09:13:36.000Z</time>
      </trkpt>
      <trkpt lat="45.49917" lon="3.39284">
        <ele>600</ele>
        <time>2012-10-21T09:13:37.000Z</time>
      </trkpt>
      <trkpt lat="45.49907" lon="3.39299">
        <ele>598</ele>
        <time>2012-10-21T09:13:38.000Z</time>
      </trkpt>
      <trkpt lat="45.49899" lon="3.39312">
        <ele>596</ele>
        <time>2012-10-21T09:13:39.000Z</time>
      </trkpt>
      <trkpt lat="45.49893" lon="3.39325">
        <ele>594</ele>
        <time>2012-10-21T09:13:40.000Z</time>
      </trkpt>
      <trkpt lat="45.49887" lon="3.39338">
        <ele>593</ele>
        <time>2012-10-21T09:13:41.000Z</time>
      </trkpt>
      <trkpt lat="45.4988" lon="3.3935">
        <ele>592</ele>
        <time>2012-10-21T09:13:42.000Z</time>
      </trkpt>
      <trkpt lat="45.49874" lon="3.39359">
        <ele>591</ele>
        <time>2012-10-21T09:13:43.000Z</time>
      </trkpt>
      <trkpt lat="45.49868" lon="3.39366">
        <ele>593</ele>
        <time>2012-10-21T09:13:44.000Z</time>
      </trkpt>
      <trkpt lat="45.49863" lon="3.39373">
        <ele>592</ele>
        <time>2012-10-21T09:13:45.000Z</time>
      </trkpt>
      <trkpt lat="45.49859" lon="3.39374">
        <ele>594</ele>
        <time>2012-10-21T09:13:46.000Z</time>
      </trkpt>
      <trkpt lat="45.49857" lon="3.39372">
        <ele>593</ele>
        <time>2012-10-21T09:13:47.000Z</time>
      </trkpt>
      <trkpt lat="45.49854" lon="3.39367">
        <ele>594</ele>
        <time>2012-10-21T09:13:48.000Z</time>
      </trkpt>
      <trkpt lat="45.49852" lon="3.39361">
        <ele>592</ele>
        <time>2012-10-21T09:13:49.000Z</time>
      </trkpt>
      <trkpt lat="45.49852" lon="3.39351">
        <ele>591</ele>
        <time>2012-10-21T09:13:50.000Z</time>
      </trkpt>
      <trkpt lat="45.49848" lon="3.3934">
        <ele>588</ele>
        <time>2012-10-21T09:13:51.000Z</time>
      </trkpt>
      <trkpt lat="45.49844" lon="3.39332">
        <ele>586</ele>
        <time>2012-10-21T09:13:52.000Z</time>
      </trkpt>
      <trkpt lat="45.49842" lon="3.39326">
        <ele>580</ele>
        <time>2012-10-21T09:13:53.000Z</time>
      </trkpt>
      <trkpt lat="45.4984" lon="3.39323">
        <ele>578</ele>
        <time>2012-10-21T09:13:54.000Z</time>
      </trkpt>
      <trkpt lat="45.49837" lon="3.3932">
        <ele>578</ele>
        <time>2012-10-21T09:13:55.000Z</time>
      </trkpt>
      <trkpt lat="45.49834" lon="3.3932">
        <ele>579</ele>
        <time>2012-10-21T09:13:56.000Z</time>
      </trkpt>
      <trkpt lat="45.4983" lon="3.3932">
        <ele>578</ele>
        <time>2012-10-21T09:13:57.000Z</time>
      </trkpt>
      <trkpt lat="45.49827" lon="3.39321">
        <ele>579</ele>
        <time>2012-10-21T09:13:58.000Z</time>
      </trkpt>
      <trkpt lat="45.49824" lon="3.39323">
        <ele>579</ele>
        <time>2012-10-21T09:13:59.000Z</time>
      </trkpt>
      <trkpt lat="45.4982" lon="3.39326">
        <ele>577</ele>
        <time>2012-10-21T09:14:00.000Z</time>
      </trkpt>
      <trkpt lat="45.49816" lon="3.39328">
        <ele>578</ele>
        <time>2012-10-21T09:14:01.000Z</time>
      </trkpt>
      <trkpt lat="45.49813" lon="3.3933">
        <ele>578</ele>
        <time>2012-10-21T09:14:02.000Z</time>
      </trkpt>
      <trkpt lat="45.4981" lon="3.39333">
        <ele>574</ele>
        <time>2012-10-21T09:14:03.000Z</time>
      </trkpt>
      <trkpt lat="45.49806" lon="3.39335">
        <ele>576</ele>
        <time>2012-10-21T09:14:04.000Z</time>
      </trkpt>
      <trkpt lat="45.49803" lon="3.39338">
        <ele>577</ele>
        <time>2012-10-21T09:14:05.000Z</time>
      </trkpt>
      <trkpt lat="45.49799" lon="3.3934">
        <ele>579</ele>
        <time>2012-10-21T09:14:06.000Z</time>
      </trkpt>
      <trkpt lat="45.49796" lon="3.39343">
        <ele>575</ele>
        <time>2012-10-21T09:14:07.000Z</time>
      </trkpt>
      <trkpt lat="45.49792" lon="3.39346">
        <ele>575</ele>
        <time>2012-10-21T09:14:08.000Z</time>
      </trkpt>
      <trkpt lat="45.49785" lon="3.39346">
        <ele>577</ele>
        <time>2012-10-21T09:14:09.000Z</time>
      </trkpt>
      <trkpt lat="45.49781" lon="3.39352">
        <ele>571</ele>
        <time>2012-10-21T09:14:10.000Z</time>
      </trkpt>
      <trkpt lat="45.49777" lon="3.39355">
        <ele>576</ele>
        <time>2012-10-21T09:14:11.000Z</time>
      </trkpt>
      <trkpt lat="45.49773" lon="3.39358">
        <ele>577</ele>
        <time>2012-10-21T09:14:12.000Z</time>
      </trkpt>
      <trkpt lat="45.49769" lon="3.3936">
        <ele>578</ele>
        <time>2012-10-21T09:14:13.000Z</time>
      </trkpt>
      <trkpt lat="45.49765" lon="3.39362">
        <ele>577</ele>
        <time>2012-10-21T09:14:14.000Z</time>
      </trkpt>
      <trkpt lat="45.49761" lon="3.39364">
        <ele>580</ele>
        <time>2012-10-21T09:14:15.000Z</time>
      </trkpt>
      <trkpt lat="45.49756" lon="3.39366">
        <ele>583</ele>
        <time>2012-10-21T09:14:16.000Z</time>
      </trkpt>
      <trkpt lat="45.49752" lon="3.39368">
        <ele>583</ele>
        <time>2012-10-21T09:14:17.000Z</time>
      </trkpt>
      <trkpt lat="45.49745" lon="3.3937">
        <ele>583</ele>
        <time>2012-10-21T09:14:18.000Z</time>
      </trkpt>
      <trkpt lat="45.49739" lon="3.39372">
        <ele>580</ele>
        <time>2012-10-21T09:14:19.000Z</time>
      </trkpt>
      <trkpt lat="45.49733" lon="3.39375">
        <ele>576</ele>
        <time>2012-10-21T09:14:20.000Z</time>
      </trkpt>
      <trkpt lat="45.49726" lon="3.39377">
        <ele>572</ele>
        <time>2012-10-21T09:14:21.000Z</time>
      </trkpt>
      <trkpt lat="45.49719" lon="3.3938">
        <ele>572</ele>
        <time>2012-10-21T09:14:22.000Z</time>
      </trkpt>
      <trkpt lat="45.49713" lon="3.39381">
        <ele>572</ele>
        <time>2012-10-21T09:14:23.000Z</time>
      </trkpt>
      <trkpt lat="45.49706" lon="3.39383">
        <ele>571</ele>
        <time>2012-10-21T09:14:24.000Z</time>
      </trkpt>
      <trkpt lat="45.49701" lon="3.39384">
        <ele>569</ele>
        <time>2012-10-21T09:14:25.000Z</time>
      </trkpt>
      <trkpt lat="45.49695" lon="3.39385">
        <ele>570</ele>
        <time>2012-10-21T09:14:26.000Z</time>
      </trkpt>
      <trkpt lat="45.49689" lon="3.39386">
        <ele>570</ele>
        <time>2012-10-21T09:14:27.000Z</time>
      </trkpt>
      <trkpt lat="45.49683" lon="3.39386">
        <ele>570</ele>
        <time>2012-10-21T09:14:28.000Z</time>
      </trkpt>
      <trkpt lat="45.49677" lon="3.39386">
        <ele>570</ele>
        <time>2012-10-21T09:14:29.000Z</time>
      </trkpt>
      <trkpt lat="45.4967" lon="3.39385">
        <ele>571</ele>
        <time>2012-10-21T09:14:30.000Z</time>
      </trkpt>
      <trkpt lat="45.49663" lon="3.39381">
        <ele>572</ele>
        <time>2012-10-21T09:14:31.000Z</time>
      </trkpt>
      <trkpt lat="45.49655" lon="3.39376">
        <ele>572</ele>
        <time>2012-10-21T09:14:32.000Z</time>
      </trkpt>
      <trkpt lat="45.49649" lon="3.39374">
        <ele>572</ele>
        <time>2012-10-21T09:14:33.000Z</time>
      </trkpt>
      <trkpt lat="45.49642" lon="3.3937">
        <ele>572</ele>
        <time>2012-10-21T09:14:34.000Z</time>
      </trkpt>
      <trkpt lat="45.49637" lon="3.39366">
        <ele>574</ele>
        <time>2012-10-21T09:14:35.000Z</time>
      </trkpt>
      <trkpt lat="45.49633" lon="3.39361">
        <ele>572</ele>
        <time>2012-10-21T09:14:36.000Z</time>
      </trkpt>
      <trkpt lat="45.49628" lon="3.39357">
        <ele>575</ele>
        <time>2012-10-21T09:14:37.000Z</time>
      </trkpt>
      <trkpt lat="45.49625" lon="3.39352">
        <ele>578</ele>
        <time>2012-10-21T09:14:38.000Z</time>
      </trkpt>
      <trkpt lat="45.49621" lon="3.39348">
        <ele>578</ele>
        <time>2012-10-21T09:14:39.000Z</time>
      </trkpt>
      <trkpt lat="45.49619" lon="3.39344">
        <ele>578</ele>
        <time>2012-10-21T09:14:41.000Z</time>
      </trkpt>
      <trkpt lat="45.49617" lon="3.39338">
        <ele>577</ele>
        <time>2012-10-21T09:14:42.000Z</time>
      </trkpt>
      <trkpt lat="45.49616" lon="3.39323">
        <ele>570</ele>
        <time>2012-10-21T09:14:47.000Z</time>
      </trkpt>
      <trkpt lat="45.49615" lon="3.39307">
        <ele>569</ele>
        <time>2012-10-21T09:14:51.000Z</time>
      </trkpt>
      <trkpt lat="45.49613" lon="3.39294">
        <ele>568</ele>
        <time>2012-10-21T09:14:55.000Z</time>
      </trkpt>
      <trkpt lat="45.4961" lon="3.39279">
        <ele>570</ele>
        <time>2012-10-21T09:15:00.000Z</time>
      </trkpt>
      <trkpt lat="45.49605" lon="3.39267">
        <ele>576</ele>
        <time>2012-10-21T09:15:06.000Z</time>
      </trkpt>
      <trkpt lat="45.49599" lon="3.39255">
        <ele>576</ele>
        <time>2012-10-21T09:15:12.000Z</time>
      </trkpt>
      <trkpt lat="45.49594" lon="3.39241">
        <ele>572</ele>
        <time>2012-10-21T09:15:17.000Z</time>
      </trkpt>
      <trkpt lat="45.49591" lon="3.39229">
        <ele>580</ele>
        <time>2012-10-21T09:15:22.000Z</time>
      </trkpt>
      <trkpt lat="45.49588" lon="3.39217">
        <ele>579</ele>
        <time>2012-10-21T09:15:27.000Z</time>
      </trkpt>
      <trkpt lat="45.49586" lon="3.39203">
        <ele>582</ele>
        <time>2012-10-21T09:15:39.000Z</time>
      </trkpt>
      <trkpt lat="45.4958" lon="3.39191">
        <ele>570</ele>
        <time>2012-10-21T09:15:47.000Z</time>
      </trkpt>
      <trkpt lat="45.49576" lon="3.39179">
        <ele>576</ele>
        <time>2012-10-21T09:15:56.000Z</time>
      </trkpt>
      <trkpt lat="45.49573" lon="3.39166">
        <ele>572</ele>
        <time>2012-10-21T09:16:06.000Z</time>
      </trkpt>
      <trkpt lat="45.49567" lon="3.39155">
        <ele>588</ele>
        <time>2012-10-21T09:16:15.000Z</time>
      </trkpt>
      <trkpt lat="45.49559" lon="3.39149">
        <ele>592</ele>
        <time>2012-10-21T09:16:21.000Z</time>
      </trkpt>
      <trkpt lat="45.49553" lon="3.39137">
        <ele>596</ele>
        <time>2012-10-21T09:16:28.000Z</time>
      </trkpt>
      <trkpt lat="45.49551" lon="3.39124">
        <ele>595</ele>
        <time>2012-10-21T09:16:39.000Z</time>
      </trkpt>
      <trkpt lat="45.49548" lon="3.39112">
        <ele>591</ele>
        <time>2012-10-21T09:16:47.000Z</time>
      </trkpt>
      <trkpt lat="45.49547" lon="3.39109">
        <ele>596</ele>
        <time>2012-10-21T09:16:53.000Z</time>
      </trkpt>
      <trkpt lat="45.49545" lon="3.39102">
        <ele>598</ele>
        <time>2012-10-21T09:16:54.000Z</time>
      </trkpt>
      <trkpt lat="45.49544" lon="3.39101">
        <ele>599</ele>
        <time>2012-10-21T09:16:58.000Z</time>
      </trkpt>
      <trkpt lat="45.49541" lon="3.39094">
        <ele>598</ele>
        <time>2012-10-21T09:16:59.000Z</time>
      </trkpt>
      <trkpt lat="45.49541" lon="3.39093">
        <ele>602</ele>
        <time>2012-10-21T09:17:07.000Z</time>
      </trkpt>
      <trkpt lat="45.49535" lon="3.3908">
        <ele>599</ele>
        <time>2012-10-21T09:17:08.000Z</time>
      </trkpt>
      <trkpt lat="45.49534" lon="3.3907">
        <ele>604</ele>
        <time>2012-10-21T09:17:15.000Z</time>
      </trkpt>
      <trkpt lat="45.49529" lon="3.39058">
        <ele>605</ele>
        <time>2012-10-21T09:17:24.000Z</time>
      </trkpt>
      <trkpt lat="45.49526" lon="3.39046">
        <ele>604</ele>
        <time>2012-10-21T09:17:32.000Z</time>
      </trkpt>
      <trkpt lat="45.49525" lon="3.39042">
        <ele>600</ele>
        <time>2012-10-21T09:17:41.000Z</time>
      </trkpt>
      <trkpt lat="45.49519" lon="3.39031">
        <ele>610</ele>
        <time>2012-10-21T09:17:42.000Z</time>
      </trkpt>
      <trkpt lat="45.49512" lon="3.39022">
        <ele>603</ele>
        <time>2012-10-21T09:17:51.000Z</time>
      </trkpt>
      <trkpt lat="45.49511" lon="3.39021">
        <ele>609</ele>
        <time>2012-10-21T09:17:59.000Z</time>
      </trkpt>
      <trkpt lat="45.49504" lon="3.3901">
        <ele>616</ele>
        <time>2012-10-21T09:18:00.000Z</time>
      </trkpt>
      <trkpt lat="45.49497" lon="3.39">
        <ele>611</ele>
        <time>2012-10-21T09:18:09.000Z</time>
      </trkpt>
      <trkpt lat="45.4949" lon="3.38991">
        <ele>603</ele>
        <time>2012-10-21T09:18:18.000Z</time>
      </trkpt>
      <trkpt lat="45.49486" lon="3.38978">
        <ele>607</ele>
        <time>2012-10-21T09:18:25.000Z</time>
      </trkpt>
      <trkpt lat="45.49483" lon="3.38965">
        <ele>618</ele>
        <time>2012-10-21T09:18:34.000Z</time>
      </trkpt>
      <trkpt lat="45.49478" lon="3.38953">
        <ele>624</ele>
        <time>2012-10-21T09:18:47.000Z</time>
      </trkpt>
      <trkpt lat="45.49472" lon="3.38942">
        <ele>613</ele>
        <time>2012-10-21T09:18:56.000Z</time>
      </trkpt>
      <trkpt lat="45.49466" lon="3.38931">
        <ele>619</ele>
        <time>2012-10-21T09:19:06.000Z</time>
      </trkpt>
      <trkpt lat="45.49459" lon="3.38922">
        <ele>626</ele>
        <time>2012-10-21T09:19:17.000Z</time>
      </trkpt>
      <trkpt lat="45.4945" lon="3.38916">
        <ele>627</ele>
        <time>2012-10-21T09:19:25.000Z</time>
      </trkpt>
      <trkpt lat="45.49441" lon="3.38912">
        <ele>632</ele>
        <time>2012-10-21T09:19:31.000Z</time>
      </trkpt>
      <trkpt lat="45.49437" lon="3.38911">
        <ele>626</ele>
        <time>2012-10-21T09:19:35.000Z</time>
      </trkpt>
      <trkpt lat="45.49435" lon="3.38911">
        <ele>627</ele>
        <time>2012-10-21T09:19:36.000Z</time>
      </trkpt>
      <trkpt lat="45.49431" lon="3.38908">
        <ele>628</ele>
        <time>2012-10-21T09:19:40.000Z</time>
      </trkpt>
      <trkpt lat="45.4943" lon="3.38907">
        <ele>627</ele>
        <time>2012-10-21T09:19:41.000Z</time>
      </trkpt>
      <trkpt lat="45.49427" lon="3.38904">
        <ele>629</ele>
        <time>2012-10-21T09:19:44.000Z</time>
      </trkpt>
      <trkpt lat="45.49425" lon="3.38903">
        <ele>629</ele>
        <time>2012-10-21T09:19:45.000Z</time>
      </trkpt>
      <trkpt lat="45.49422" lon="3.389">
        <ele>634</ele>
        <time>2012-10-21T09:19:49.000Z</time>
      </trkpt>
      <trkpt lat="45.49421" lon="3.38899">
        <ele>635</ele>
        <time>2012-10-21T09:19:50.000Z</time>
      </trkpt>
      <trkpt lat="45.49418" lon="3.38897">
        <ele>635</ele>
        <time>2012-10-21T09:19:54.000Z</time>
      </trkpt>
      <trkpt lat="45.49416" lon="3.38897">
        <ele>639</ele>
        <time>2012-10-21T09:19:55.000Z</time>
      </trkpt>
      <trkpt lat="45.49413" lon="3.38896">
        <ele>635</ele>
        <time>2012-10-21T09:19:57.000Z</time>
      </trkpt>
      <trkpt lat="45.49411" lon="3.38897">
        <ele>645</ele>
        <time>2012-10-21T09:19:58.000Z</time>
      </trkpt>
      <trkpt lat="45.49408" lon="3.38899">
        <ele>638</ele>
        <time>2012-10-21T09:20:02.000Z</time>
      </trkpt>
      <trkpt lat="45.49407" lon="3.38899">
        <ele>638</ele>
        <time>2012-10-21T09:20:03.000Z</time>
      </trkpt>
      <trkpt lat="45.49403" lon="3.38898">
        <ele>643</ele>
        <time>2012-10-21T09:20:06.000Z</time>
      </trkpt>
      <trkpt lat="45.49401" lon="3.38898">
        <ele>644</ele>
        <time>2012-10-21T09:20:07.000Z</time>
      </trkpt>
      <trkpt lat="45.49397" lon="3.38897">
        <ele>646</ele>
        <time>2012-10-21T09:20:09.000Z</time>
      </trkpt>
      <trkpt lat="45.49396" lon="3.38896">
        <ele>641</ele>
        <time>2012-10-21T09:20:10.000Z</time>
      </trkpt>
      <trkpt lat="45.49393" lon="3.38894">
        <ele>644</ele>
        <time>2012-10-21T09:20:13.000Z</time>
      </trkpt>
      <trkpt lat="45.49391" lon="3.38892">
        <ele>638</ele>
        <time>2012-10-21T09:20:14.000Z</time>
      </trkpt>
      <trkpt lat="45.49388" lon="3.38889">
        <ele>645</ele>
        <time>2012-10-21T09:20:17.000Z</time>
      </trkpt>
      <trkpt lat="45.49387" lon="3.38889">
        <ele>643</ele>
        <time>2012-10-21T09:20:18.000Z</time>
      </trkpt>
      <trkpt lat="45.49383" lon="3.38887">
        <ele>644</ele>
        <time>2012-10-21T09:20:21.000Z</time>
      </trkpt>
      <trkpt lat="45.49382" lon="3.38886">
        <ele>647</ele>
        <time>2012-10-21T09:20:22.000Z</time>
      </trkpt>
      <trkpt lat="45.49377" lon="3.38885">
        <ele>650</ele>
        <time>2012-10-21T09:20:25.000Z</time>
      </trkpt>
      <trkpt lat="45.49376" lon="3.38884">
        <ele>652</ele>
        <time>2012-10-21T09:20:26.000Z</time>
      </trkpt>
      <trkpt lat="45.49373" lon="3.38883">
        <ele>655</ele>
        <time>2012-10-21T09:20:28.000Z</time>
      </trkpt>
      <trkpt lat="45.49371" lon="3.38881">
        <ele>634</ele>
        <time>2012-10-21T09:20:29.000Z</time>
      </trkpt>
      <trkpt lat="45.49369" lon="3.38878">
        <ele>624</ele>
        <time>2012-10-21T09:20:32.000Z</time>
      </trkpt>
      <trkpt lat="45.49367" lon="3.38876">
        <ele>617</ele>
        <time>2012-10-21T09:20:33.000Z</time>
      </trkpt>
      <trkpt lat="45.49363" lon="3.38873">
        <ele>626</ele>
        <time>2012-10-21T09:20:36.000Z</time>
      </trkpt>
      <trkpt lat="45.49363" lon="3.38872">
        <ele>627</ele>
        <time>2012-10-21T09:20:37.000Z</time>
      </trkpt>
      <trkpt lat="45.49359" lon="3.38869">
        <ele>623</ele>
        <time>2012-10-21T09:20:41.000Z</time>
      </trkpt>
      <trkpt lat="45.49357" lon="3.38867">
        <ele>620</ele>
        <time>2012-10-21T09:20:44.000Z</time>
      </trkpt>
      <trkpt lat="45.49355" lon="3.38864">
        <ele>625</ele>
        <time>2012-10-21T09:20:45.000Z</time>
      </trkpt>
      <trkpt lat="45.49353" lon="3.38863">
        <ele>627</ele>
        <time>2012-10-21T09:20:46.000Z</time>
      </trkpt>
      <trkpt lat="45.49351" lon="3.38861">
        <ele>628</ele>
        <time>2012-10-21T09:20:47.000Z</time>
      </trkpt>
      <trkpt lat="45.49347" lon="3.38858">
        <ele>625</ele>
        <time>2012-10-21T09:20:52.000Z</time>
      </trkpt>
      <trkpt lat="45.49346" lon="3.38858">
        <ele>630</ele>
        <time>2012-10-21T09:20:53.000Z</time>
      </trkpt>
      <trkpt lat="45.49343" lon="3.38855">
        <ele>622</ele>
        <time>2012-10-21T09:20:56.000Z</time>
      </trkpt>
      <trkpt lat="45.49342" lon="3.38853">
        <ele>620</ele>
        <time>2012-10-21T09:20:57.000Z</time>
      </trkpt>
      <trkpt lat="45.49339" lon="3.38851">
        <ele>635</ele>
        <time>2012-10-21T09:21:00.000Z</time>
      </trkpt>
      <trkpt lat="45.49338" lon="3.38852">
        <ele>642</ele>
        <time>2012-10-21T09:21:01.000Z</time>
      </trkpt>
      <trkpt lat="45.49334" lon="3.38853">
        <ele>654</ele>
        <time>2012-10-21T09:21:06.000Z</time>
      </trkpt>
      <trkpt lat="45.49332" lon="3.38853">
        <ele>656</ele>
        <time>2012-10-21T09:21:07.000Z</time>
      </trkpt>
      <trkpt lat="45.49327" lon="3.38852">
        <ele>654</ele>
        <time>2012-10-21T09:21:10.000Z</time>
      </trkpt>
      <trkpt lat="45.49326" lon="3.38851">
        <ele>656</ele>
        <time>2012-10-21T09:21:11.000Z</time>
      </trkpt>
      <trkpt lat="45.49323" lon="3.38846">
        <ele>661</ele>
        <time>2012-10-21T09:21:15.000Z</time>
      </trkpt>
      <trkpt lat="45.49319" lon="3.38842">
        <ele>666</ele>
        <time>2012-10-21T09:21:22.000Z</time>
      </trkpt>
      <trkpt lat="45.49319" lon="3.3884">
        <ele>665</ele>
        <time>2012-10-21T09:21:23.000Z</time>
      </trkpt>
      <trkpt lat="45.49316" lon="3.38836">
        <ele>668</ele>
        <time>2012-10-21T09:21:28.000Z</time>
      </trkpt>
      <trkpt lat="45.49315" lon="3.38835">
        <ele>667</ele>
        <time>2012-10-21T09:21:29.000Z</time>
      </trkpt>
      <trkpt lat="45.49311" lon="3.38835">
        <ele>670</ele>
        <time>2012-10-21T09:21:35.000Z</time>
      </trkpt>
      <trkpt lat="45.49308" lon="3.38832">
        <ele>667</ele>
        <time>2012-10-21T09:21:40.000Z</time>
      </trkpt>
      <trkpt lat="45.49307" lon="3.38831">
        <ele>665</ele>
        <time>2012-10-21T09:21:41.000Z</time>
      </trkpt>
      <trkpt lat="45.49304" lon="3.38828">
        <ele>668</ele>
        <time>2012-10-21T09:21:44.000Z</time>
      </trkpt>
      <trkpt lat="45.49303" lon="3.38827">
        <ele>662</ele>
        <time>2012-10-21T09:21:45.000Z</time>
      </trkpt>
      <trkpt lat="45.49301" lon="3.38823">
        <ele>666</ele>
        <time>2012-10-21T09:21:49.000Z</time>
      </trkpt>
      <trkpt lat="45.493" lon="3.38822">
        <ele>668</ele>
        <time>2012-10-21T09:21:50.000Z</time>
      </trkpt>
      <trkpt lat="45.49296" lon="3.3882">
        <ele>667</ele>
        <time>2012-10-21T09:21:55.000Z</time>
      </trkpt>
      <trkpt lat="45.49296" lon="3.38819">
        <ele>668</ele>
        <time>2012-10-21T09:21:56.000Z</time>
      </trkpt>
      <trkpt lat="45.49292" lon="3.38816">
        <ele>668</ele>
        <time>2012-10-21T09:22:00.000Z</time>
      </trkpt>
      <trkpt lat="45.49291" lon="3.38815">
        <ele>667</ele>
        <time>2012-10-21T09:22:01.000Z</time>
      </trkpt>
      <trkpt lat="45.49288" lon="3.38812">
        <ele>667</ele>
        <time>2012-10-21T09:22:06.000Z</time>
      </trkpt>
      <trkpt lat="45.49287" lon="3.38811">
        <ele>670</ele>
        <time>2012-10-21T09:22:07.000Z</time>
      </trkpt>
      <trkpt lat="45.49284" lon="3.38808">
        <ele>671</ele>
        <time>2012-10-21T09:22:11.000Z</time>
      </trkpt>
      <trkpt lat="45.49283" lon="3.38807">
        <ele>671</ele>
        <time>2012-10-21T09:22:12.000Z</time>
      </trkpt>
      <trkpt lat="45.4928" lon="3.38803">
        <ele>669</ele>
        <time>2012-10-21T09:22:18.000Z</time>
      </trkpt>
      <trkpt lat="45.49278" lon="3.38802">
        <ele>668</ele>
        <time>2012-10-21T09:22:19.000Z</time>
      </trkpt>
      <trkpt lat="45.49275" lon="3.388">
        <ele>668</ele>
        <time>2012-10-21T09:22:21.000Z</time>
      </trkpt>
      <trkpt lat="45.49274" lon="3.38799">
        <ele>672</ele>
        <time>2012-10-21T09:22:22.000Z</time>
      </trkpt>
      <trkpt lat="45.49271" lon="3.38796">
        <ele>679</ele>
        <time>2012-10-21T09:22:27.000Z</time>
      </trkpt>
      <trkpt lat="45.4927" lon="3.38795">
        <ele>678</ele>
        <time>2012-10-21T09:22:28.000Z</time>
      </trkpt>
      <trkpt lat="45.49266" lon="3.38792">
        <ele>682</ele>
        <time>2012-10-21T09:22:32.000Z</time>
      </trkpt>
      <trkpt lat="45.49265" lon="3.38791">
        <ele>681</ele>
        <time>2012-10-21T09:22:33.000Z</time>
      </trkpt>
      <trkpt lat="45.49262" lon="3.38789">
        <ele>682</ele>
        <time>2012-10-21T09:22:38.000Z</time>
      </trkpt>
      <trkpt lat="45.4926" lon="3.38788">
        <ele>684</ele>
        <time>2012-10-21T09:22:39.000Z</time>
      </trkpt>
      <trkpt lat="45.49256" lon="3.38786">
        <ele>685</ele>
        <time>2012-10-21T09:22:41.000Z</time>
      </trkpt>
      <trkpt lat="45.49255" lon="3.38786">
        <ele>683</ele>
        <time>2012-10-21T09:22:42.000Z</time>
      </trkpt>
      <trkpt lat="45.49252" lon="3.38785">
        <ele>685</ele>
        <time>2012-10-21T09:22:45.000Z</time>
      </trkpt>
      <trkpt lat="45.49251" lon="3.38784">
        <ele>685</ele>
        <time>2012-10-21T09:22:46.000Z</time>
      </trkpt>
      <trkpt lat="45.49248" lon="3.3878">
        <ele>675</ele>
        <time>2012-10-21T09:22:51.000Z</time>
      </trkpt>
      <trkpt lat="45.49247" lon="3.3878">
        <ele>677</ele>
        <time>2012-10-21T09:22:52.000Z</time>
      </trkpt>
      <trkpt lat="45.49246" lon="3.38774">
        <ele>678</ele>
        <time>2012-10-21T09:22:57.000Z</time>
      </trkpt>
      <trkpt lat="45.49247" lon="3.38773">
        <ele>683</ele>
        <time>2012-10-21T09:22:58.000Z</time>
      </trkpt>
      <trkpt lat="45.49249" lon="3.38769">
        <ele>685</ele>
        <time>2012-10-21T09:23:02.000Z</time>
      </trkpt>
      <trkpt lat="45.49249" lon="3.38767">
        <ele>686</ele>
        <time>2012-10-21T09:23:03.000Z</time>
      </trkpt>
      <trkpt lat="45.49251" lon="3.38763">
        <ele>683</ele>
        <time>2012-10-21T09:23:07.000Z</time>
      </trkpt>
      <trkpt lat="45.49252" lon="3.38762">
        <ele>683</ele>
        <time>2012-10-21T09:23:08.000Z</time>
      </trkpt>
      <trkpt lat="45.49255" lon="3.38758">
        <ele>685</ele>
        <time>2012-10-21T09:23:12.000Z</time>
      </trkpt>
      <trkpt lat="45.49256" lon="3.38757">
        <ele>685</ele>
        <time>2012-10-21T09:23:13.000Z</time>
      </trkpt>
      <trkpt lat="45.49259" lon="3.38754">
        <ele>686</ele>
        <time>2012-10-21T09:23:16.000Z</time>
      </trkpt>
      <trkpt lat="45.4926" lon="3.38753">
        <ele>686</ele>
        <time>2012-10-21T09:23:17.000Z</time>
      </trkpt>
      <trkpt lat="45.49264" lon="3.38751">
        <ele>685</ele>
        <time>2012-10-21T09:23:20.000Z</time>
      </trkpt>
      <trkpt lat="45.49265" lon="3.3875">
        <ele>685</ele>
        <time>2012-10-21T09:23:21.000Z</time>
      </trkpt>
      <trkpt lat="45.49269" lon="3.38748">
        <ele>685</ele>
        <time>2012-10-21T09:23:24.000Z</time>
      </trkpt>
      <trkpt lat="45.4927" lon="3.38748">
        <ele>686</ele>
        <time>2012-10-21T09:23:25.000Z</time>
      </trkpt>
      <trkpt lat="45.49274" lon="3.38746">
        <ele>687</ele>
        <time>2012-10-21T09:23:28.000Z</time>
      </trkpt>
      <trkpt lat="45.49275" lon="3.38746">
        <ele>687</ele>
        <time>2012-10-21T09:23:29.000Z</time>
      </trkpt>
      <trkpt lat="45.49279" lon="3.38747">
        <ele>689</ele>
        <time>2012-10-21T09:23:32.000Z</time>
      </trkpt>
      <trkpt lat="45.4928" lon="3.38746">
        <ele>689</ele>
        <time>2012-10-21T09:23:33.000Z</time>
      </trkpt>
      <trkpt lat="45.49283" lon="3.38744">
        <ele>689</ele>
        <time>2012-10-21T09:23:36.000Z</time>
      </trkpt>
      <trkpt lat="45.49285" lon="3.38744">
        <ele>689</ele>
        <time>2012-10-21T09:23:37.000Z</time>
      </trkpt>
      <trkpt lat="45.49289" lon="3.38745">
        <ele>690</ele>
        <time>2012-10-21T09:23:40.000Z</time>
      </trkpt>
      <trkpt lat="45.4929" lon="3.38746">
        <ele>692</ele>
        <time>2012-10-21T09:23:41.000Z</time>
      </trkpt>
      <trkpt lat="45.49294" lon="3.38744">
        <ele>691</ele>
        <time>2012-10-21T09:23:45.000Z</time>
      </trkpt>
      <trkpt lat="45.49296" lon="3.38744">
        <ele>691</ele>
        <time>2012-10-21T09:23:46.000Z</time>
      </trkpt>
      <trkpt lat="45.49299" lon="3.38742">
        <ele>691</ele>
        <time>2012-10-21T09:23:48.000Z</time>
      </trkpt>
      <trkpt lat="45.493" lon="3.38741">
        <ele>691</ele>
        <time>2012-10-21T09:23:49.000Z</time>
      </trkpt>
      <trkpt lat="45.49304" lon="3.3874">
        <ele>689</ele>
        <time>2012-10-21T09:23:52.000Z</time>
      </trkpt>
      <trkpt lat="45.49305" lon="3.38739">
        <ele>688</ele>
        <time>2012-10-21T09:23:53.000Z</time>
      </trkpt>
      <trkpt lat="45.49309" lon="3.38738">
        <ele>690</ele>
        <time>2012-10-21T09:23:57.000Z</time>
      </trkpt>
      <trkpt lat="45.49311" lon="3.38738">
        <ele>691</ele>
        <time>2012-10-21T09:23:58.000Z</time>
      </trkpt>
      <trkpt lat="45.49314" lon="3.38737">
        <ele>691</ele>
        <time>2012-10-21T09:24:00.000Z</time>
      </trkpt>
      <trkpt lat="45.49316" lon="3.38736">
        <ele>692</ele>
        <time>2012-10-21T09:24:01.000Z</time>
      </trkpt>
      <trkpt lat="45.49318" lon="3.38733">
        <ele>693</ele>
        <time>2012-10-21T09:24:03.000Z</time>
      </trkpt>
      <trkpt lat="45.49319" lon="3.38732">
        <ele>693</ele>
        <time>2012-10-21T09:24:04.000Z</time>
      </trkpt>
      <trkpt lat="45.49323" lon="3.38729">
        <ele>693</ele>
        <time>2012-10-21T09:24:06.000Z</time>
      </trkpt>
      <trkpt lat="45.49324" lon="3.38728">
        <ele>693</ele>
        <time>2012-10-21T09:24:07.000Z</time>
      </trkpt>
      <trkpt lat="45.49328" lon="3.38727">
        <ele>694</ele>
        <time>2012-10-21T09:24:09.000Z</time>
      </trkpt>
      <trkpt lat="45.49329" lon="3.38727">
        <ele>694</ele>
        <time>2012-10-21T09:24:10.000Z</time>
      </trkpt>
      <trkpt lat="45.49332" lon="3.38725">
        <ele>694</ele>
        <time>2012-10-21T09:24:12.000Z</time>
      </trkpt>
      <trkpt lat="45.49334" lon="3.38723">
        <ele>695</ele>
        <time>2012-10-21T09:24:13.000Z</time>
      </trkpt>
      <trkpt lat="45.49337" lon="3.38722">
        <ele>695</ele>
        <time>2012-10-21T09:24:15.000Z</time>
      </trkpt>
      <trkpt lat="45.49339" lon="3.38721">
        <ele>695</ele>
        <time>2012-10-21T09:24:16.000Z</time>
      </trkpt>
      <trkpt lat="45.49342" lon="3.3872">
        <ele>695</ele>
        <time>2012-10-21T09:24:18.000Z</time>
      </trkpt>
      <trkpt lat="45.49344" lon="3.38719">
        <ele>695</ele>
        <time>2012-10-21T09:24:19.000Z</time>
      </trkpt>
      <trkpt lat="45.49348" lon="3.38718">
        <ele>697</ele>
        <time>2012-10-21T09:24:22.000Z</time>
      </trkpt>
      <trkpt lat="45.4935" lon="3.38718">
        <ele>697</ele>
        <time>2012-10-21T09:24:23.000Z</time>
      </trkpt>
      <trkpt lat="45.49354" lon="3.38717">
        <ele>697</ele>
        <time>2012-10-21T09:24:25.000Z</time>
      </trkpt>
      <trkpt lat="45.49356" lon="3.38717">
        <ele>697</ele>
        <time>2012-10-21T09:24:26.000Z</time>
      </trkpt>
      <trkpt lat="45.4936" lon="3.38715">
        <ele>697</ele>
        <time>2012-10-21T09:24:28.000Z</time>
      </trkpt>
      <trkpt lat="45.49362" lon="3.38715">
        <ele>698</ele>
        <time>2012-10-21T09:24:29.000Z</time>
      </trkpt>
      <trkpt lat="45.49367" lon="3.38714">
        <ele>698</ele>
        <time>2012-10-21T09:24:31.000Z</time>
      </trkpt>
      <trkpt lat="45.49369" lon="3.38714">
        <ele>698</ele>
        <time>2012-10-21T09:24:32.000Z</time>
      </trkpt>
      <trkpt lat="45.49373" lon="3.38713">
        <ele>698</ele>
        <time>2012-10-21T09:24:34.000Z</time>
      </trkpt>
      <trkpt lat="45.49375" lon="3.38713">
        <ele>698</ele>
        <time>2012-10-21T09:24:35.000Z</time>
      </trkpt>
      <trkpt lat="45.49378" lon="3.38713">
        <ele>698</ele>
        <time>2012-10-21T09:24:36.000Z</time>
      </trkpt>
      <trkpt lat="45.4938" lon="3.38713">
        <ele>698</ele>
        <time>2012-10-21T09:24:37.000Z</time>
      </trkpt>
      <trkpt lat="45.49384" lon="3.38712">
        <ele>698</ele>
        <time>2012-10-21T09:24:39.000Z</time>
      </trkpt>
      <trkpt lat="45.49386" lon="3.38712">
        <ele>698</ele>
        <time>2012-10-21T09:24:40.000Z</time>
      </trkpt>
      <trkpt lat="45.4939" lon="3.38711">
        <ele>699</ele>
        <time>2012-10-21T09:24:42.000Z</time>
      </trkpt>
      <trkpt lat="45.49392" lon="3.3871">
        <ele>699</ele>
        <time>2012-10-21T09:24:43.000Z</time>
      </trkpt>
      <trkpt lat="45.49396" lon="3.38711">
        <ele>700</ele>
        <time>2012-10-21T09:24:45.000Z</time>
      </trkpt>
      <trkpt lat="45.49398" lon="3.38711">
        <ele>701</ele>
        <time>2012-10-21T09:24:46.000Z</time>
      </trkpt>
      <trkpt lat="45.49402" lon="3.38712">
        <ele>702</ele>
        <time>2012-10-21T09:24:48.000Z</time>
      </trkpt>
      <trkpt lat="45.49403" lon="3.38712">
        <ele>703</ele>
        <time>2012-10-21T09:24:49.000Z</time>
      </trkpt>
      <trkpt lat="45.49407" lon="3.38713">
        <ele>700</ele>
        <time>2012-10-21T09:24:51.000Z</time>
      </trkpt>
      <trkpt lat="45.49409" lon="3.38713">
        <ele>700</ele>
        <time>2012-10-21T09:24:52.000Z</time>
      </trkpt>
      <trkpt lat="45.49412" lon="3.38713">
        <ele>700</ele>
        <time>2012-10-21T09:24:54.000Z</time>
      </trkpt>
      <trkpt lat="45.49414" lon="3.38713">
        <ele>701</ele>
        <time>2012-10-21T09:24:55.000Z</time>
      </trkpt>
      <trkpt lat="45.49417" lon="3.38714">
        <ele>702</ele>
        <time>2012-10-21T09:24:57.000Z</time>
      </trkpt>
      <trkpt lat="45.49421" lon="3.38714">
        <ele>702</ele>
        <time>2012-10-21T09:24:58.000Z</time>
      </trkpt>
      <trkpt lat="45.49423" lon="3.38714">
        <ele>704</ele>
        <time>2012-10-21T09:24:59.000Z</time>
      </trkpt>
      <trkpt lat="45.49426" lon="3.38713">
        <ele>705</ele>
        <time>2012-10-21T09:25:00.000Z</time>
      </trkpt>
      <trkpt lat="45.49429" lon="3.38712">
        <ele>705</ele>
        <time>2012-10-21T09:25:01.000Z</time>
      </trkpt>
      <trkpt lat="45.49431" lon="3.38712">
        <ele>706</ele>
        <time>2012-10-21T09:25:02.000Z</time>
      </trkpt>
      <trkpt lat="45.49435" lon="3.38709">
        <ele>707</ele>
        <time>2012-10-21T09:25:04.000Z</time>
      </trkpt>
      <trkpt lat="45.49436" lon="3.38708">
        <ele>707</ele>
        <time>2012-10-21T09:25:05.000Z</time>
      </trkpt>
      <trkpt lat="45.4944" lon="3.38705">
        <ele>707</ele>
        <time>2012-10-21T09:25:08.000Z</time>
      </trkpt>
      <trkpt lat="45.49441" lon="3.38705">
        <ele>706</ele>
        <time>2012-10-21T09:25:09.000Z</time>
      </trkpt>
      <trkpt lat="45.49445" lon="3.38705">
        <ele>707</ele>
        <time>2012-10-21T09:25:13.000Z</time>
      </trkpt>
      <trkpt lat="45.49447" lon="3.38705">
        <ele>707</ele>
        <time>2012-10-21T09:25:14.000Z</time>
      </trkpt>
      <trkpt lat="45.4945" lon="3.38705">
        <ele>707</ele>
        <time>2012-10-21T09:25:17.000Z</time>
      </trkpt>
      <trkpt lat="45.49451" lon="3.38706">
        <ele>708</ele>
        <time>2012-10-21T09:25:18.000Z</time>
      </trkpt>
      <trkpt lat="45.49454" lon="3.38707">
        <ele>708</ele>
        <time>2012-10-21T09:25:20.000Z</time>
      </trkpt>
      <trkpt lat="45.49456" lon="3.38707">
        <ele>708</ele>
        <time>2012-10-21T09:25:21.000Z</time>
      </trkpt>
      <trkpt lat="45.49459" lon="3.38707">
        <ele>709</ele>
        <time>2012-10-21T09:25:23.000Z</time>
      </trkpt>
      <trkpt lat="45.49461" lon="3.38707">
        <ele>709</ele>
        <time>2012-10-21T09:25:24.000Z</time>
      </trkpt>
      <trkpt lat="45.49464" lon="3.38707">
        <ele>709</ele>
        <time>2012-10-21T09:25:26.000Z</time>
      </trkpt>
      <trkpt lat="45.49466" lon="3.38706">
        <ele>709</ele>
        <time>2012-10-21T09:25:27.000Z</time>
      </trkpt>
      <trkpt lat="45.49469" lon="3.38704">
        <ele>710</ele>
        <time>2012-10-21T09:25:29.000Z</time>
      </trkpt>
      <trkpt lat="45.49471" lon="3.38703">
        <ele>710</ele>
        <time>2012-10-21T09:25:30.000Z</time>
      </trkpt>
      <trkpt lat="45.49474" lon="3.38703">
        <ele>710</ele>
        <time>2012-10-21T09:25:32.000Z</time>
      </trkpt>
      <trkpt lat="45.49475" lon="3.38702">
        <ele>711</ele>
        <time>2012-10-21T09:25:33.000Z</time>
      </trkpt>
      <trkpt lat="45.49479" lon="3.38701">
        <ele>711</ele>
        <time>2012-10-21T09:25:35.000Z</time>
      </trkpt>
      <trkpt lat="45.49481" lon="3.387">
        <ele>711</ele>
        <time>2012-10-21T09:25:36.000Z</time>
      </trkpt>
      <trkpt lat="45.49483" lon="3.38698">
        <ele>711</ele>
        <time>2012-10-21T09:25:37.000Z</time>
      </trkpt>
      <trkpt lat="45.49485" lon="3.38697">
        <ele>712</ele>
        <time>2012-10-21T09:25:38.000Z</time>
      </trkpt>
      <trkpt lat="45.49487" lon="3.38696">
        <ele>712</ele>
        <time>2012-10-21T09:25:39.000Z</time>
      </trkpt>
      <trkpt lat="45.4949" lon="3.38694">
        <ele>712</ele>
        <time>2012-10-21T09:25:40.000Z</time>
      </trkpt>
      <trkpt lat="45.49493" lon="3.38691">
        <ele>712</ele>
        <time>2012-10-21T09:25:41.000Z</time>
      </trkpt>
      <trkpt lat="45.49495" lon="3.38687">
        <ele>713</ele>
        <time>2012-10-21T09:25:42.000Z</time>
      </trkpt>
      <trkpt lat="45.49497" lon="3.38684">
        <ele>713</ele>
        <time>2012-10-21T09:25:43.000Z</time>
      </trkpt>
      <trkpt lat="45.49499" lon="3.38681">
        <ele>714</ele>
        <time>2012-10-21T09:25:44.000Z</time>
      </trkpt>
      <trkpt lat="45.49501" lon="3.38677">
        <ele>714</ele>
        <time>2012-10-21T09:25:45.000Z</time>
      </trkpt>
      <trkpt lat="45.49503" lon="3.38673">
        <ele>713</ele>
        <time>2012-10-21T09:25:46.000Z</time>
      </trkpt>
      <trkpt lat="45.49505" lon="3.38669">
        <ele>713</ele>
        <time>2012-10-21T09:25:47.000Z</time>
      </trkpt>
      <trkpt lat="45.49506" lon="3.38666">
        <ele>714</ele>
        <time>2012-10-21T09:25:48.000Z</time>
      </trkpt>
      <trkpt lat="45.49508" lon="3.38661">
        <ele>715</ele>
        <time>2012-10-21T09:25:50.000Z</time>
      </trkpt>
      <trkpt lat="45.49509" lon="3.38657">
        <ele>713</ele>
        <time>2012-10-21T09:25:51.000Z</time>
      </trkpt>
      <trkpt lat="45.49511" lon="3.38652">
        <ele>713</ele>
        <time>2012-10-21T09:25:52.000Z</time>
      </trkpt>
      <trkpt lat="45.49512" lon="3.38649">
        <ele>714</ele>
        <time>2012-10-21T09:25:53.000Z</time>
      </trkpt>
      <trkpt lat="45.49514" lon="3.38645">
        <ele>714</ele>
        <time>2012-10-21T09:25:54.000Z</time>
      </trkpt>
      <trkpt lat="45.49515" lon="3.38641">
        <ele>714</ele>
        <time>2012-10-21T09:25:55.000Z</time>
      </trkpt>
      <trkpt lat="45.49516" lon="3.38638">
        <ele>713</ele>
        <time>2012-10-21T09:25:56.000Z</time>
      </trkpt>
      <trkpt lat="45.49518" lon="3.38634">
        <ele>714</ele>
        <time>2012-10-21T09:25:57.000Z</time>
      </trkpt>
      <trkpt lat="45.49521" lon="3.38629">
        <ele>718</ele>
        <time>2012-10-21T09:25:59.000Z</time>
      </trkpt>
      <trkpt lat="45.49523" lon="3.38627">
        <ele>719</ele>
        <time>2012-10-21T09:26:00.000Z</time>
      </trkpt>
      <trkpt lat="45.49525" lon="3.38623">
        <ele>719</ele>
        <time>2012-10-21T09:26:03.000Z</time>
      </trkpt>
      <trkpt lat="45.49526" lon="3.38622">
        <ele>719</ele>
        <time>2012-10-21T09:26:04.000Z</time>
      </trkpt>
      <trkpt lat="45.49527" lon="3.38618">
        <ele>721</ele>
        <time>2012-10-21T09:26:18.000Z</time>
      </trkpt>
      <trkpt lat="45.49527" lon="3.38616">
        <ele>721</ele>
        <time>2012-10-21T09:26:19.000Z</time>
      </trkpt>
      <trkpt lat="45.49527" lon="3.38612">
        <ele>718</ele>
        <time>2012-10-21T09:27:29.000Z</time>
      </trkpt>
      <trkpt lat="45.49527" lon="3.38609">
        <ele>717</ele>
        <time>2012-10-21T09:27:30.000Z</time>
      </trkpt>
      <trkpt lat="45.49527" lon="3.38606">
        <ele>717</ele>
        <time>2012-10-21T09:27:31.000Z</time>
      </trkpt>
      <trkpt lat="45.49525" lon="3.38601">
        <ele>715</ele>
        <time>2012-10-21T09:27:32.000Z</time>
      </trkpt>
      <trkpt lat="45.49521" lon="3.38596">
        <ele>716</ele>
        <time>2012-10-21T09:27:33.000Z</time>
      </trkpt>
      <trkpt lat="45.49516" lon="3.38592">
        <ele>716</ele>
        <time>2012-10-21T09:27:34.000Z</time>
      </trkpt>
      <trkpt lat="45.49509" lon="3.3859">
        <ele>716</ele>
        <time>2012-10-21T09:27:35.000Z</time>
      </trkpt>
      <trkpt lat="45.49503" lon="3.38589">
        <ele>715</ele>
        <time>2012-10-21T09:27:36.000Z</time>
      </trkpt>
      <trkpt lat="45.49496" lon="3.38588">
        <ele>714</ele>
        <time>2012-10-21T09:27:37.000Z</time>
      </trkpt>
      <trkpt lat="45.49489" lon="3.38588">
        <ele>713</ele>
        <time>2012-10-21T09:27:38.000Z</time>
      </trkpt>
      <trkpt lat="45.49481" lon="3.38588">
        <ele>713</ele>
        <time>2012-10-21T09:27:39.000Z</time>
      </trkpt>
      <trkpt lat="45.49474" lon="3.38587">
        <ele>712</ele>
        <time>2012-10-21T09:27:40.000Z</time>
      </trkpt>
      <trkpt lat="45.49468" lon="3.38586">
        <ele>712</ele>
        <time>2012-10-21T09:27:41.000Z</time>
      </trkpt>
      <trkpt lat="45.49462" lon="3.38584">
        <ele>713</ele>
        <time>2012-10-21T09:27:42.000Z</time>
      </trkpt>
      <trkpt lat="45.49456" lon="3.38583">
        <ele>712</ele>
        <time>2012-10-21T09:27:43.000Z</time>
      </trkpt>
      <trkpt lat="45.49451" lon="3.38581">
        <ele>710</ele>
        <time>2012-10-21T09:27:44.000Z</time>
      </trkpt>
      <trkpt lat="45.49446" lon="3.38579">
        <ele>712</ele>
        <time>2012-10-21T09:27:45.000Z</time>
      </trkpt>
      <trkpt lat="45.49441" lon="3.38578">
        <ele>713</ele>
        <time>2012-10-21T09:27:46.000Z</time>
      </trkpt>
      <trkpt lat="45.49436" lon="3.38576">
        <ele>712</ele>
        <time>2012-10-21T09:27:47.000Z</time>
      </trkpt>
      <trkpt lat="45.49432" lon="3.38575">
        <ele>712</ele>
        <time>2012-10-21T09:27:48.000Z</time>
      </trkpt>
      <trkpt lat="45.49427" lon="3.38573">
        <ele>711</ele>
        <time>2012-10-21T09:27:49.000Z</time>
      </trkpt>
      <trkpt lat="45.49422" lon="3.38572">
        <ele>710</ele>
        <time>2012-10-21T09:27:50.000Z</time>
      </trkpt>
      <trkpt lat="45.49418" lon="3.38571">
        <ele>711</ele>
        <time>2012-10-21T09:27:51.000Z</time>
      </trkpt>
      <trkpt lat="45.49412" lon="3.3857">
        <ele>710</ele>
        <time>2012-10-21T09:27:52.000Z</time>
      </trkpt>
      <trkpt lat="45.49407" lon="3.38569">
        <ele>710</ele>
        <time>2012-10-21T09:27:53.000Z</time>
      </trkpt>
      <trkpt lat="45.49402" lon="3.38569">
        <ele>710</ele>
        <time>2012-10-21T09:27:54.000Z</time>
      </trkpt>
      <trkpt lat="45.49398" lon="3.38568">
        <ele>710</ele>
        <time>2012-10-21T09:27:55.000Z</time>
      </trkpt>
      <trkpt lat="45.49393" lon="3.38568">
        <ele>710</ele>
        <time>2012-10-21T09:27:56.000Z</time>
      </trkpt>
      <trkpt lat="45.49388" lon="3.38568">
        <ele>710</ele>
        <time>2012-10-21T09:27:57.000Z</time>
      </trkpt>
      <trkpt lat="45.49384" lon="3.38568">
        <ele>711</ele>
        <time>2012-10-21T09:27:58.000Z</time>
      </trkpt>
      <trkpt lat="45.4938" lon="3.38569">
        <ele>711</ele>
        <time>2012-10-21T09:27:59.000Z</time>
      </trkpt>
      <trkpt lat="45.49375" lon="3.38568">
        <ele>710</ele>
        <time>2012-10-21T09:28:00.000Z</time>
      </trkpt>
      <trkpt lat="45.49371" lon="3.38568">
        <ele>712</ele>
        <time>2012-10-21T09:28:01.000Z</time>
      </trkpt>
      <trkpt lat="45.49366" lon="3.38567">
        <ele>711</ele>
        <time>2012-10-21T09:28:02.000Z</time>
      </trkpt>
      <trkpt lat="45.49362" lon="3.38567">
        <ele>710</ele>
        <time>2012-10-21T09:28:03.000Z</time>
      </trkpt>
      <trkpt lat="45.49358" lon="3.38566">
        <ele>711</ele>
        <time>2012-10-21T09:28:04.000Z</time>
      </trkpt>
      <trkpt lat="45.49354" lon="3.38564">
        <ele>712</ele>
        <time>2012-10-21T09:28:05.000Z</time>
      </trkpt>
      <trkpt lat="45.4935" lon="3.38563">
        <ele>712</ele>
        <time>2012-10-21T09:28:06.000Z</time>
      </trkpt>
      <trkpt lat="45.49347" lon="3.38562">
        <ele>711</ele>
        <time>2012-10-21T09:28:07.000Z</time>
      </trkpt>
      <trkpt lat="45.49343" lon="3.38561">
        <ele>712</ele>
        <time>2012-10-21T09:28:08.000Z</time>
      </trkpt>
      <trkpt lat="45.49339" lon="3.38559">
        <ele>712</ele>
        <time>2012-10-21T09:28:09.000Z</time>
      </trkpt>
      <trkpt lat="45.49336" lon="3.38558">
        <ele>713</ele>
        <time>2012-10-21T09:28:10.000Z</time>
      </trkpt>
      <trkpt lat="45.49333" lon="3.38557">
        <ele>713</ele>
        <time>2012-10-21T09:28:11.000Z</time>
      </trkpt>
      <trkpt lat="45.49329" lon="3.38556">
        <ele>713</ele>
        <time>2012-10-21T09:28:12.000Z</time>
      </trkpt>
      <trkpt lat="45.49327" lon="3.38555">
        <ele>713</ele>
        <time>2012-10-21T09:28:13.000Z</time>
      </trkpt>
      <trkpt lat="45.49323" lon="3.38553">
        <ele>714</ele>
        <time>2012-10-21T09:28:14.000Z</time>
      </trkpt>
      <trkpt lat="45.4932" lon="3.38552">
        <ele>714</ele>
        <time>2012-10-21T09:28:15.000Z</time>
      </trkpt>
      <trkpt lat="45.49317" lon="3.38551">
        <ele>714</ele>
        <time>2012-10-21T09:28:16.000Z</time>
      </trkpt>
      <trkpt lat="45.49313" lon="3.3855">
        <ele>714</ele>
        <time>2012-10-21T09:28:17.000Z</time>
      </trkpt>
      <trkpt lat="45.4931" lon="3.3855">
        <ele>715</ele>
        <time>2012-10-21T09:28:18.000Z</time>
      </trkpt>
      <trkpt lat="45.49307" lon="3.38549">
        <ele>715</ele>
        <time>2012-10-21T09:28:19.000Z</time>
      </trkpt>
      <trkpt lat="45.49304" lon="3.38548">
        <ele>716</ele>
        <time>2012-10-21T09:28:20.000Z</time>
      </trkpt>
      <trkpt lat="45.493" lon="3.38547">
        <ele>716</ele>
        <time>2012-10-21T09:28:21.000Z</time>
      </trkpt>
      <trkpt lat="45.49297" lon="3.38546">
        <ele>717</ele>
        <time>2012-10-21T09:28:22.000Z</time>
      </trkpt>
      <trkpt lat="45.49294" lon="3.38546">
        <ele>715</ele>
        <time>2012-10-21T09:28:23.000Z</time>
      </trkpt>
      <trkpt lat="45.4929" lon="3.38545">
        <ele>715</ele>
        <time>2012-10-21T09:28:24.000Z</time>
      </trkpt>
      <trkpt lat="45.49286" lon="3.38543">
        <ele>715</ele>
        <time>2012-10-21T09:28:25.000Z</time>
      </trkpt>
      <trkpt lat="45.49281" lon="3.38542">
        <ele>713</ele>
        <time>2012-10-21T09:28:26.000Z</time>
      </trkpt>
      <trkpt lat="45.49278" lon="3.3854">
        <ele>717</ele>
        <time>2012-10-21T09:28:27.000Z</time>
      </trkpt>
      <trkpt lat="45.49274" lon="3.38538">
        <ele>722</ele>
        <time>2012-10-21T09:28:28.000Z</time>
      </trkpt>
      <trkpt lat="45.49271" lon="3.38536">
        <ele>722</ele>
        <time>2012-10-21T09:28:29.000Z</time>
      </trkpt>
      <trkpt lat="45.49268" lon="3.38534">
        <ele>722</ele>
        <time>2012-10-21T09:28:30.000Z</time>
      </trkpt>
      <trkpt lat="45.49265" lon="3.38531">
        <ele>722</ele>
        <time>2012-10-21T09:28:31.000Z</time>
      </trkpt>
      <trkpt lat="45.49262" lon="3.38529">
        <ele>719</ele>
        <time>2012-10-21T09:28:32.000Z</time>
      </trkpt>
      <trkpt lat="45.49259" lon="3.38526">
        <ele>718</ele>
        <time>2012-10-21T09:28:33.000Z</time>
      </trkpt>
      <trkpt lat="45.49256" lon="3.38523">
        <ele>720</ele>
        <time>2012-10-21T09:28:34.000Z</time>
      </trkpt>
      <trkpt lat="45.49252" lon="3.3852">
        <ele>721</ele>
        <time>2012-10-21T09:28:35.000Z</time>
      </trkpt>
      <trkpt lat="45.49249" lon="3.38516">
        <ele>722</ele>
        <time>2012-10-21T09:28:36.000Z</time>
      </trkpt>
      <trkpt lat="45.49245" lon="3.38511">
        <ele>723</ele>
        <time>2012-10-21T09:28:37.000Z</time>
      </trkpt>
      <trkpt lat="45.49242" lon="3.38507">
        <ele>723</ele>
        <time>2012-10-21T09:28:38.000Z</time>
      </trkpt>
      <trkpt lat="45.49239" lon="3.38503">
        <ele>723</ele>
        <time>2012-10-21T09:28:39.000Z</time>
      </trkpt>
      <trkpt lat="45.49236" lon="3.38499">
        <ele>722</ele>
        <time>2012-10-21T09:28:40.000Z</time>
      </trkpt>
      <trkpt lat="45.49232" lon="3.38495">
        <ele>723</ele>
        <time>2012-10-21T09:28:41.000Z</time>
      </trkpt>
      <trkpt lat="45.49229" lon="3.38492">
        <ele>722</ele>
        <time>2012-10-21T09:28:42.000Z</time>
      </trkpt>
      <trkpt lat="45.49225" lon="3.38488">
        <ele>722</ele>
        <time>2012-10-21T09:28:43.000Z</time>
      </trkpt>
      <trkpt lat="45.49221" lon="3.38484">
        <ele>722</ele>
        <time>2012-10-21T09:28:44.000Z</time>
      </trkpt>
      <trkpt lat="45.49216" lon="3.3848">
        <ele>722</ele>
        <time>2012-10-21T09:28:45.000Z</time>
      </trkpt>
      <trkpt lat="45.49212" lon="3.38477">
        <ele>722</ele>
        <time>2012-10-21T09:28:46.000Z</time>
      </trkpt>
      <trkpt lat="45.49206" lon="3.38473">
        <ele>724</ele>
        <time>2012-10-21T09:28:47.000Z</time>
      </trkpt>
      <trkpt lat="45.49202" lon="3.38469">
        <ele>723</ele>
        <time>2012-10-21T09:28:48.000Z</time>
      </trkpt>
      <trkpt lat="45.49197" lon="3.38465">
        <ele>722</ele>
        <time>2012-10-21T09:28:49.000Z</time>
      </trkpt>
      <trkpt lat="45.49192" lon="3.38461">
        <ele>721</ele>
        <time>2012-10-21T09:28:50.000Z</time>
      </trkpt>
      <trkpt lat="45.49187" lon="3.38457">
        <ele>723</ele>
        <time>2012-10-21T09:28:51.000Z</time>
      </trkpt>
      <trkpt lat="45.49183" lon="3.38452">
        <ele>721</ele>
        <time>2012-10-21T09:28:52.000Z</time>
      </trkpt>
      <trkpt lat="45.49179" lon="3.38446">
        <ele>720</ele>
        <time>2012-10-21T09:28:53.000Z</time>
      </trkpt>
      <trkpt lat="45.49175" lon="3.38441">
        <ele>718</ele>
        <time>2012-10-21T09:28:54.000Z</time>
      </trkpt>
      <trkpt lat="45.49172" lon="3.38435">
        <ele>717</ele>
        <time>2012-10-21T09:28:55.000Z</time>
      </trkpt>
      <trkpt lat="45.49168" lon="3.38428">
        <ele>720</ele>
        <time>2012-10-21T09:28:56.000Z</time>
      </trkpt>
      <trkpt lat="45.49165" lon="3.38421">
        <ele>719</ele>
        <time>2012-10-21T09:28:57.000Z</time>
      </trkpt>
      <trkpt lat="45.49163" lon="3.38415">
        <ele>719</ele>
        <time>2012-10-21T09:28:58.000Z</time>
      </trkpt>
      <trkpt lat="45.49159" lon="3.38407">
        <ele>721</ele>
        <time>2012-10-21T09:28:59.000Z</time>
      </trkpt>
      <trkpt lat="45.49156" lon="3.38399">
        <ele>720</ele>
        <time>2012-10-21T09:29:00.000Z</time>
      </trkpt>
      <trkpt lat="45.49152" lon="3.38392">
        <ele>718</ele>
        <time>2012-10-21T09:29:01.000Z</time>
      </trkpt>
      <trkpt lat="45.49148" lon="3.38385">
        <ele>718</ele>
        <time>2012-10-21T09:29:02.000Z</time>
      </trkpt>
      <trkpt lat="45.49144" lon="3.38378">
        <ele>717</ele>
        <time>2012-10-21T09:29:03.000Z</time>
      </trkpt>
      <trkpt lat="45.49139" lon="3.38372">
        <ele>717</ele>
        <time>2012-10-21T09:29:04.000Z</time>
      </trkpt>
      <trkpt lat="45.49133" lon="3.38366">
        <ele>716</ele>
        <time>2012-10-21T09:29:05.000Z</time>
      </trkpt>
      <trkpt lat="45.49128" lon="3.3836">
        <ele>715</ele>
        <time>2012-10-21T09:29:06.000Z</time>
      </trkpt>
      <trkpt lat="45.49122" lon="3.38354">
        <ele>715</ele>
        <time>2012-10-21T09:29:07.000Z</time>
      </trkpt>
      <trkpt lat="45.49116" lon="3.38348">
        <ele>714</ele>
        <time>2012-10-21T09:29:08.000Z</time>
      </trkpt>
      <trkpt lat="45.49109" lon="3.38343">
        <ele>713</ele>
        <time>2012-10-21T09:29:09.000Z</time>
      </trkpt>
      <trkpt lat="45.49103" lon="3.38338">
        <ele>714</ele>
        <time>2012-10-21T09:29:10.000Z</time>
      </trkpt>
      <trkpt lat="45.49096" lon="3.38334">
        <ele>714</ele>
        <time>2012-10-21T09:29:11.000Z</time>
      </trkpt>
      <trkpt lat="45.4909" lon="3.3833">
        <ele>714</ele>
        <time>2012-10-21T09:29:12.000Z</time>
      </trkpt>
      <trkpt lat="45.49084" lon="3.38326">
        <ele>713</ele>
        <time>2012-10-21T09:29:13.000Z</time>
      </trkpt>
      <trkpt lat="45.49079" lon="3.38322">
        <ele>713</ele>
        <time>2012-10-21T09:29:14.000Z</time>
      </trkpt>
      <trkpt lat="45.49073" lon="3.38318">
        <ele>713</ele>
        <time>2012-10-21T09:29:15.000Z</time>
      </trkpt>
      <trkpt lat="45.49068" lon="3.38314">
        <ele>713</ele>
        <time>2012-10-21T09:29:16.000Z</time>
      </trkpt>
      <trkpt lat="45.49062" lon="3.3831">
        <ele>711</ele>
        <time>2012-10-21T09:29:17.000Z</time>
      </trkpt>
      <trkpt lat="45.49057" lon="3.38305">
        <ele>711</ele>
        <time>2012-10-21T09:29:18.000Z</time>
      </trkpt>
      <trkpt lat="45.49052" lon="3.383">
        <ele>709</ele>
        <time>2012-10-21T09:29:19.000Z</time>
      </trkpt>
      <trkpt lat="45.49048" lon="3.38296">
        <ele>708</ele>
        <time>2012-10-21T09:29:20.000Z</time>
      </trkpt>
      <trkpt lat="45.49043" lon="3.38292">
        <ele>708</ele>
        <time>2012-10-21T09:29:21.000Z</time>
      </trkpt>
      <trkpt lat="45.49037" lon="3.38288">
        <ele>709</ele>
        <time>2012-10-21T09:29:22.000Z</time>
      </trkpt>
      <trkpt lat="45.4903" lon="3.38286">
        <ele>709</ele>
        <time>2012-10-21T09:29:23.000Z</time>
      </trkpt>
      <trkpt lat="45.49023" lon="3.38285">
        <ele>710</ele>
        <time>2012-10-21T09:29:24.000Z</time>
      </trkpt>
      <trkpt lat="45.49016" lon="3.38283">
        <ele>710</ele>
        <time>2012-10-21T09:29:25.000Z</time>
      </trkpt>
      <trkpt lat="45.49009" lon="3.38283">
        <ele>706</ele>
        <time>2012-10-21T09:29:26.000Z</time>
      </trkpt>
      <trkpt lat="45.49003" lon="3.38283">
        <ele>706</ele>
        <time>2012-10-21T09:29:27.000Z</time>
      </trkpt>
      <trkpt lat="45.48996" lon="3.38281">
        <ele>705</ele>
        <time>2012-10-21T09:29:28.000Z</time>
      </trkpt>
      <trkpt lat="45.48988" lon="3.38278">
        <ele>706</ele>
        <time>2012-10-21T09:29:29.000Z</time>
      </trkpt>
      <trkpt lat="45.4898" lon="3.38273">
        <ele>704</ele>
        <time>2012-10-21T09:29:30.000Z</time>
      </trkpt>
      <trkpt lat="45.48973" lon="3.38269">
        <ele>700</ele>
        <time>2012-10-21T09:29:31.000Z</time>
      </trkpt>
      <trkpt lat="45.48965" lon="3.38264">
        <ele>699</ele>
        <time>2012-10-21T09:29:32.000Z</time>
      </trkpt>
      <trkpt lat="45.48956" lon="3.38259">
        <ele>699</ele>
        <time>2012-10-21T09:29:33.000Z</time>
      </trkpt>
      <trkpt lat="45.48947" lon="3.38255">
        <ele>698</ele>
        <time>2012-10-21T09:29:34.000Z</time>
      </trkpt>
      <trkpt lat="45.48937" lon="3.38251">
        <ele>698</ele>
        <time>2012-10-21T09:29:35.000Z</time>
      </trkpt>
      <trkpt lat="45.48926" lon="3.38246">
        <ele>698</ele>
        <time>2012-10-21T09:29:36.000Z</time>
      </trkpt>
      <trkpt lat="45.48916" lon="3.38242">
        <ele>699</ele>
        <time>2012-10-21T09:29:37.000Z</time>
      </trkpt>
      <trkpt lat="45.48908" lon="3.38238">
        <ele>698</ele>
        <time>2012-10-21T09:29:38.000Z</time>
      </trkpt>
      <trkpt lat="45.48902" lon="3.38235">
        <ele>695</ele>
        <time>2012-10-21T09:29:39.000Z</time>
      </trkpt>
      <trkpt lat="45.48897" lon="3.38232">
        <ele>695</ele>
        <time>2012-10-21T09:29:40.000Z</time>
      </trkpt>
      <trkpt lat="45.48892" lon="3.38229">
        <ele>695</ele>
        <time>2012-10-21T09:29:41.000Z</time>
      </trkpt>
      <trkpt lat="45.48889" lon="3.38226">
        <ele>696</ele>
        <time>2012-10-21T09:29:42.000Z</time>
      </trkpt>
      <trkpt lat="45.48887" lon="3.38224">
        <ele>695</ele>
        <time>2012-10-21T09:29:43.000Z</time>
      </trkpt>
      <trkpt lat="45.48884" lon="3.38222">
        <ele>695</ele>
        <time>2012-10-21T09:29:44.000Z</time>
      </trkpt>
      <trkpt lat="45.48882" lon="3.38219">
        <ele>696</ele>
        <time>2012-10-21T09:29:45.000Z</time>
      </trkpt>
      <trkpt lat="45.4888" lon="3.38217">
        <ele>696</ele>
        <time>2012-10-21T09:29:46.000Z</time>
      </trkpt>
      <trkpt lat="45.48879" lon="3.38214">
        <ele>694</ele>
        <time>2012-10-21T09:29:47.000Z</time>
      </trkpt>
      <trkpt lat="45.48877" lon="3.38212">
        <ele>695</ele>
        <time>2012-10-21T09:29:48.000Z</time>
      </trkpt>
      <trkpt lat="45.48875" lon="3.38207">
        <ele>697</ele>
        <time>2012-10-21T09:29:49.000Z</time>
      </trkpt>
      <trkpt lat="45.48874" lon="3.382">
        <ele>697</ele>
        <time>2012-10-21T09:29:50.000Z</time>
      </trkpt>
      <trkpt lat="45.48873" lon="3.38192">
        <ele>698</ele>
        <time>2012-10-21T09:29:51.000Z</time>
      </trkpt>
      <trkpt lat="45.48871" lon="3.38183">
        <ele>696</ele>
        <time>2012-10-21T09:29:52.000Z</time>
      </trkpt>
      <trkpt lat="45.48868" lon="3.38174">
        <ele>696</ele>
        <time>2012-10-21T09:29:53.000Z</time>
      </trkpt>
      <trkpt lat="45.48866" lon="3.38166">
        <ele>695</ele>
        <time>2012-10-21T09:29:54.000Z</time>
      </trkpt>
      <trkpt lat="45.48863" lon="3.38157">
        <ele>693</ele>
        <time>2012-10-21T09:29:55.000Z</time>
      </trkpt>
      <trkpt lat="45.4886" lon="3.38148">
        <ele>692</ele>
        <time>2012-10-21T09:29:56.000Z</time>
      </trkpt>
      <trkpt lat="45.48857" lon="3.38138">
        <ele>692</ele>
        <time>2012-10-21T09:29:57.000Z</time>
      </trkpt>
      <trkpt lat="45.48855" lon="3.38128">
        <ele>692</ele>
        <time>2012-10-21T09:29:58.000Z</time>
      </trkpt>
      <trkpt lat="45.48853" lon="3.38118">
        <ele>693</ele>
        <time>2012-10-21T09:29:59.000Z</time>
      </trkpt>
      <trkpt lat="45.48852" lon="3.38107">
        <ele>693</ele>
        <time>2012-10-21T09:30:00.000Z</time>
      </trkpt>
      <trkpt lat="45.4885" lon="3.38097">
        <ele>691</ele>
        <time>2012-10-21T09:30:01.000Z</time>
      </trkpt>
      <trkpt lat="45.48848" lon="3.38086">
        <ele>690</ele>
        <time>2012-10-21T09:30:02.000Z</time>
      </trkpt>
      <trkpt lat="45.48847" lon="3.38076">
        <ele>689</ele>
        <time>2012-10-21T09:30:03.000Z</time>
      </trkpt>
      <trkpt lat="45.48846" lon="3.38066">
        <ele>690</ele>
        <time>2012-10-21T09:30:04.000Z</time>
      </trkpt>
      <trkpt lat="45.48844" lon="3.38056">
        <ele>690</ele>
        <time>2012-10-21T09:30:05.000Z</time>
      </trkpt>
      <trkpt lat="45.48844" lon="3.38046">
        <ele>690</ele>
        <time>2012-10-21T09:30:06.000Z</time>
      </trkpt>
      <trkpt lat="45.48843" lon="3.38037">
        <ele>689</ele>
        <time>2012-10-21T09:30:07.000Z</time>
      </trkpt>
      <trkpt lat="45.48843" lon="3.38028">
        <ele>689</ele>
        <time>2012-10-21T09:30:08.000Z</time>
      </trkpt>
      <trkpt lat="45.48843" lon="3.38019">
        <ele>688</ele>
        <time>2012-10-21T09:30:09.000Z</time>
      </trkpt>
      <trkpt lat="45.48843" lon="3.38011">
        <ele>687</ele>
        <time>2012-10-21T09:30:10.000Z</time>
      </trkpt>
      <trkpt lat="45.48844" lon="3.38002">
        <ele>687</ele>
        <time>2012-10-21T09:30:11.000Z</time>
      </trkpt>
      <trkpt lat="45.48845" lon="3.37994">
        <ele>686</ele>
        <time>2012-10-21T09:30:12.000Z</time>
      </trkpt>
      <trkpt lat="45.48846" lon="3.37986">
        <ele>686</ele>
        <time>2012-10-21T09:30:13.000Z</time>
      </trkpt>
      <trkpt lat="45.48847" lon="3.37977">
        <ele>686</ele>
        <time>2012-10-21T09:30:14.000Z</time>
      </trkpt>
      <trkpt lat="45.48848" lon="3.37968">
        <ele>687</ele>
        <time>2012-10-21T09:30:15.000Z</time>
      </trkpt>
      <trkpt lat="45.48848" lon="3.3796">
        <ele>688</ele>
        <time>2012-10-21T09:30:16.000Z</time>
      </trkpt>
      <trkpt lat="45.48849" lon="3.37953">
        <ele>689</ele>
        <time>2012-10-21T09:30:17.000Z</time>
      </trkpt>
      <trkpt lat="45.4885" lon="3.37946">
        <ele>690</ele>
        <time>2012-10-21T09:30:18.000Z</time>
      </trkpt>
      <trkpt lat="45.48851" lon="3.37939">
        <ele>692</ele>
        <time>2012-10-21T09:30:19.000Z</time>
      </trkpt>
      <trkpt lat="45.48851" lon="3.37933">
        <ele>692</ele>
        <time>2012-10-21T09:30:20.000Z</time>
      </trkpt>
      <trkpt lat="45.48852" lon="3.37926">
        <ele>692</ele>
        <time>2012-10-21T09:30:21.000Z</time>
      </trkpt>
      <trkpt lat="45.48852" lon="3.37919">
        <ele>691</ele>
        <time>2012-10-21T09:30:22.000Z</time>
      </trkpt>
      <trkpt lat="45.48852" lon="3.37912">
        <ele>691</ele>
        <time>2012-10-21T09:30:23.000Z</time>
      </trkpt>
      <trkpt lat="45.48852" lon="3.37905">
        <ele>692</ele>
        <time>2012-10-21T09:30:24.000Z</time>
      </trkpt>
      <trkpt lat="45.48852" lon="3.37897">
        <ele>692</ele>
        <time>2012-10-21T09:30:25.000Z</time>
      </trkpt>
      <trkpt lat="45.48851" lon="3.3789">
        <ele>694</ele>
        <time>2012-10-21T09:30:26.000Z</time>
      </trkpt>
      <trkpt lat="45.48851" lon="3.37883">
        <ele>694</ele>
        <time>2012-10-21T09:30:27.000Z</time>
      </trkpt>
      <trkpt lat="45.4885" lon="3.37876">
        <ele>695</ele>
        <time>2012-10-21T09:30:28.000Z</time>
      </trkpt>
      <trkpt lat="45.48849" lon="3.37868">
        <ele>694</ele>
        <time>2012-10-21T09:30:29.000Z</time>
      </trkpt>
      <trkpt lat="45.48847" lon="3.3786">
        <ele>692</ele>
        <time>2012-10-21T09:30:30.000Z</time>
      </trkpt>
      <trkpt lat="45.48846" lon="3.37853">
        <ele>691</ele>
        <time>2012-10-21T09:30:31.000Z</time>
      </trkpt>
      <trkpt lat="45.48845" lon="3.37846">
        <ele>688</ele>
        <time>2012-10-21T09:30:32.000Z</time>
      </trkpt>
      <trkpt lat="45.48844" lon="3.37839">
        <ele>689</ele>
        <time>2012-10-21T09:30:33.000Z</time>
      </trkpt>
      <trkpt lat="45.48842" lon="3.37831">
        <ele>688</ele>
        <time>2012-10-21T09:30:34.000Z</time>
      </trkpt>
      <trkpt lat="45.48841" lon="3.37823">
        <ele>688</ele>
        <time>2012-10-21T09:30:35.000Z</time>
      </trkpt>
      <trkpt lat="45.48839" lon="3.37815">
        <ele>686</ele>
        <time>2012-10-21T09:30:36.000Z</time>
      </trkpt>
      <trkpt lat="45.48838" lon="3.37808">
        <ele>687</ele>
        <time>2012-10-21T09:30:37.000Z</time>
      </trkpt>
      <trkpt lat="45.48837" lon="3.378">
        <ele>687</ele>
        <time>2012-10-21T09:30:38.000Z</time>
      </trkpt>
      <trkpt lat="45.48835" lon="3.37793">
        <ele>688</ele>
        <time>2012-10-21T09:30:39.000Z</time>
      </trkpt>
      <trkpt lat="45.48834" lon="3.37785">
        <ele>687</ele>
        <time>2012-10-21T09:30:40.000Z</time>
      </trkpt>
      <trkpt lat="45.48833" lon="3.37777">
        <ele>687</ele>
        <time>2012-10-21T09:30:41.000Z</time>
      </trkpt>
      <trkpt lat="45.48831" lon="3.37769">
        <ele>687</ele>
        <time>2012-10-21T09:30:42.000Z</time>
      </trkpt>
      <trkpt lat="45.4883" lon="3.37761">
        <ele>687</ele>
        <time>2012-10-21T09:30:43.000Z</time>
      </trkpt>
      <trkpt lat="45.48829" lon="3.37753">
        <ele>688</ele>
        <time>2012-10-21T09:30:44.000Z</time>
      </trkpt>
      <trkpt lat="45.48827" lon="3.37743">
        <ele>687</ele>
        <time>2012-10-21T09:30:45.000Z</time>
      </trkpt>
      <trkpt lat="45.48825" lon="3.37734">
        <ele>686</ele>
        <time>2012-10-21T09:30:46.000Z</time>
      </trkpt>
      <trkpt lat="45.48823" lon="3.37724">
        <ele>686</ele>
        <time>2012-10-21T09:30:47.000Z</time>
      </trkpt>
      <trkpt lat="45.48821" lon="3.37714">
        <ele>686</ele>
        <time>2012-10-21T09:30:48.000Z</time>
      </trkpt>
      <trkpt lat="45.48819" lon="3.37703">
        <ele>686</ele>
        <time>2012-10-21T09:30:49.000Z</time>
      </trkpt>
      <trkpt lat="45.48817" lon="3.37693">
        <ele>685</ele>
        <time>2012-10-21T09:30:50.000Z</time>
      </trkpt>
      <trkpt lat="45.48816" lon="3.37683">
        <ele>685</ele>
        <time>2012-10-21T09:30:51.000Z</time>
      </trkpt>
      <trkpt lat="45.48815" lon="3.37673">
        <ele>682</ele>
        <time>2012-10-21T09:30:52.000Z</time>
      </trkpt>
      <trkpt lat="45.48815" lon="3.37663">
        <ele>681</ele>
        <time>2012-10-21T09:30:53.000Z</time>
      </trkpt>
      <trkpt lat="45.48814" lon="3.37653">
        <ele>682</ele>
        <time>2012-10-21T09:30:54.000Z</time>
      </trkpt>
      <trkpt lat="45.48812" lon="3.37643">
        <ele>681</ele>
        <time>2012-10-21T09:30:55.000Z</time>
      </trkpt>
      <trkpt lat="45.48811" lon="3.37633">
        <ele>681</ele>
        <time>2012-10-21T09:30:56.000Z</time>
      </trkpt>
      <trkpt lat="45.48809" lon="3.37623">
        <ele>682</ele>
        <time>2012-10-21T09:30:57.000Z</time>
      </trkpt>
      <trkpt lat="45.48807" lon="3.37614">
        <ele>683</ele>
        <time>2012-10-21T09:30:58.000Z</time>
      </trkpt>
      <trkpt lat="45.48806" lon="3.37605">
        <ele>684</ele>
        <time>2012-10-21T09:30:59.000Z</time>
      </trkpt>
      <trkpt lat="45.48804" lon="3.37597">
        <ele>685</ele>
        <time>2012-10-21T09:31:00.000Z</time>
      </trkpt>
      <trkpt lat="45.48803" lon="3.3759">
        <ele>686</ele>
        <time>2012-10-21T09:31:01.000Z</time>
      </trkpt>
      <trkpt lat="45.48801" lon="3.37581">
        <ele>681</ele>
        <time>2012-10-21T09:31:02.000Z</time>
      </trkpt>
      <trkpt lat="45.488" lon="3.37573">
        <ele>678</ele>
        <time>2012-10-21T09:31:03.000Z</time>
      </trkpt>
      <trkpt lat="45.48799" lon="3.37563">
        <ele>677</ele>
        <time>2012-10-21T09:31:04.000Z</time>
      </trkpt>
      <trkpt lat="45.48798" lon="3.37552">
        <ele>675</ele>
        <time>2012-10-21T09:31:05.000Z</time>
      </trkpt>
      <trkpt lat="45.48797" lon="3.37541">
        <ele>674</ele>
        <time>2012-10-21T09:31:06.000Z</time>
      </trkpt>
      <trkpt lat="45.48797" lon="3.3753">
        <ele>675</ele>
        <time>2012-10-21T09:31:07.000Z</time>
      </trkpt>
      <trkpt lat="45.48796" lon="3.37519">
        <ele>675</ele>
        <time>2012-10-21T09:31:08.000Z</time>
      </trkpt>
      <trkpt lat="45.48796" lon="3.37509">
        <ele>676</ele>
        <time>2012-10-21T09:31:09.000Z</time>
      </trkpt>
      <trkpt lat="45.48795" lon="3.37498">
        <ele>675</ele>
        <time>2012-10-21T09:31:10.000Z</time>
      </trkpt>
      <trkpt lat="45.48795" lon="3.37487">
        <ele>675</ele>
        <time>2012-10-21T09:31:11.000Z</time>
      </trkpt>
      <trkpt lat="45.48794" lon="3.37477">
        <ele>674</ele>
        <time>2012-10-21T09:31:12.000Z</time>
      </trkpt>
      <trkpt lat="45.48795" lon="3.37467">
        <ele>674</ele>
        <time>2012-10-21T09:31:13.000Z</time>
      </trkpt>
      <trkpt lat="45.48795" lon="3.37456">
        <ele>674</ele>
        <time>2012-10-21T09:31:14.000Z</time>
      </trkpt>
      <trkpt lat="45.48796" lon="3.37445">
        <ele>678</ele>
        <time>2012-10-21T09:31:15.000Z</time>
      </trkpt>
      <trkpt lat="45.488" lon="3.37434">
        <ele>678</ele>
        <time>2012-10-21T09:31:16.000Z</time>
      </trkpt>
      <trkpt lat="45.48804" lon="3.37424">
        <ele>677</ele>
        <time>2012-10-21T09:31:17.000Z</time>
      </trkpt>
      <trkpt lat="45.4881" lon="3.37417">
        <ele>678</ele>
        <time>2012-10-21T09:31:18.000Z</time>
      </trkpt>
      <trkpt lat="45.48816" lon="3.37409">
        <ele>678</ele>
        <time>2012-10-21T09:31:19.000Z</time>
      </trkpt>
      <trkpt lat="45.48821" lon="3.37403">
        <ele>680</ele>
        <time>2012-10-21T09:31:20.000Z</time>
      </trkpt>
      <trkpt lat="45.48827" lon="3.37397">
        <ele>681</ele>
        <time>2012-10-21T09:31:21.000Z</time>
      </trkpt>
      <trkpt lat="45.48832" lon="3.3739">
        <ele>682</ele>
        <time>2012-10-21T09:31:22.000Z</time>
      </trkpt>
      <trkpt lat="45.48838" lon="3.37384">
        <ele>684</ele>
        <time>2012-10-21T09:31:23.000Z</time>
      </trkpt>
      <trkpt lat="45.48843" lon="3.37377">
        <ele>683</ele>
        <time>2012-10-21T09:31:24.000Z</time>
      </trkpt>
      <trkpt lat="45.48849" lon="3.3737">
        <ele>682</ele>
        <time>2012-10-21T09:31:25.000Z</time>
      </trkpt>
      <trkpt lat="45.48854" lon="3.37364">
        <ele>681</ele>
        <time>2012-10-21T09:31:26.000Z</time>
      </trkpt>
      <trkpt lat="45.48859" lon="3.37358">
        <ele>680</ele>
        <time>2012-10-21T09:31:27.000Z</time>
      </trkpt>
      <trkpt lat="45.48863" lon="3.37351">
        <ele>680</ele>
        <time>2012-10-21T09:31:28.000Z</time>
      </trkpt>
      <trkpt lat="45.48866" lon="3.37346">
        <ele>680</ele>
        <time>2012-10-21T09:31:29.000Z</time>
      </trkpt>
      <trkpt lat="45.48869" lon="3.37341">
        <ele>680</ele>
        <time>2012-10-21T09:31:30.000Z</time>
      </trkpt>
      <trkpt lat="45.48871" lon="3.37334">
        <ele>680</ele>
        <time>2012-10-21T09:31:31.000Z</time>
      </trkpt>
      <trkpt lat="45.48873" lon="3.37328">
        <ele>680</ele>
        <time>2012-10-21T09:31:32.000Z</time>
      </trkpt>
      <trkpt lat="45.48875" lon="3.37322">
        <ele>679</ele>
        <time>2012-10-21T09:31:33.000Z</time>
      </trkpt>
      <trkpt lat="45.48876" lon="3.37315">
        <ele>678</ele>
        <time>2012-10-21T09:31:34.000Z</time>
      </trkpt>
      <trkpt lat="45.48878" lon="3.37307">
        <ele>677</ele>
        <time>2012-10-21T09:31:35.000Z</time>
      </trkpt>
      <trkpt lat="45.4888" lon="3.37299">
        <ele>677</ele>
        <time>2012-10-21T09:31:36.000Z</time>
      </trkpt>
      <trkpt lat="45.48881" lon="3.3729">
        <ele>677</ele>
        <time>2012-10-21T09:31:37.000Z</time>
      </trkpt>
      <trkpt lat="45.48882" lon="3.37281">
        <ele>676</ele>
        <time>2012-10-21T09:31:38.000Z</time>
      </trkpt>
      <trkpt lat="45.48884" lon="3.37271">
        <ele>675</ele>
        <time>2012-10-21T09:31:39.000Z</time>
      </trkpt>
      <trkpt lat="45.48886" lon="3.3726">
        <ele>674</ele>
        <time>2012-10-21T09:31:40.000Z</time>
      </trkpt>
      <trkpt lat="45.48888" lon="3.37248">
        <ele>674</ele>
        <time>2012-10-21T09:31:41.000Z</time>
      </trkpt>
      <trkpt lat="45.48891" lon="3.37237">
        <ele>673</ele>
        <time>2012-10-21T09:31:41.999Z</time>
      </trkpt>
      <trkpt lat="45.48893" lon="3.37227">
        <ele>673</ele>
        <time>2012-10-21T09:31:43.000Z</time>
      </trkpt>
      <trkpt lat="45.48895" lon="3.37217">
        <ele>674</ele>
        <time>2012-10-21T09:31:44.000Z</time>
      </trkpt>
      <trkpt lat="45.48898" lon="3.37206">
        <ele>675</ele>
        <time>2012-10-21T09:31:45.000Z</time>
      </trkpt>
      <trkpt lat="45.48901" lon="3.37194">
        <ele>676</ele>
        <time>2012-10-21T09:31:46.000Z</time>
      </trkpt>
      <trkpt lat="45.48904" lon="3.37182">
        <ele>675</ele>
        <time>2012-10-21T09:31:47.000Z</time>
      </trkpt>
      <trkpt lat="45.48907" lon="3.3717">
        <ele>674</ele>
        <time>2012-10-21T09:31:48.000Z</time>
      </trkpt>
      <trkpt lat="45.4891" lon="3.37159">
        <ele>673</ele>
        <time>2012-10-21T09:31:49.000Z</time>
      </trkpt>
      <trkpt lat="45.48912" lon="3.37149">
        <ele>673</ele>
        <time>2012-10-21T09:31:50.000Z</time>
      </trkpt>
      <trkpt lat="45.48914" lon="3.37139">
        <ele>674</ele>
        <time>2012-10-21T09:31:51.000Z</time>
      </trkpt>
      <trkpt lat="45.48916" lon="3.37129">
        <ele>674</ele>
        <time>2012-10-21T09:31:52.000Z</time>
      </trkpt>
      <trkpt lat="45.48918" lon="3.37119">
        <ele>675</ele>
        <time>2012-10-21T09:31:53.000Z</time>
      </trkpt>
      <trkpt lat="45.4892" lon="3.3711">
        <ele>672</ele>
        <time>2012-10-21T09:31:54.000Z</time>
      </trkpt>
      <trkpt lat="45.48923" lon="3.37101">
        <ele>672</ele>
        <time>2012-10-21T09:31:55.000Z</time>
      </trkpt>
      <trkpt lat="45.48926" lon="3.37094">
        <ele>671</ele>
        <time>2012-10-21T09:31:56.000Z</time>
      </trkpt>
      <trkpt lat="45.48929" lon="3.37089">
        <ele>670</ele>
        <time>2012-10-21T09:31:57.000Z</time>
      </trkpt>
      <trkpt lat="45.48933" lon="3.37086">
        <ele>670</ele>
        <time>2012-10-21T09:31:58.000Z</time>
      </trkpt>
      <trkpt lat="45.48937" lon="3.37085">
        <ele>670</ele>
        <time>2012-10-21T09:31:59.000Z</time>
      </trkpt>
      <trkpt lat="45.48941" lon="3.37085">
        <ele>669</ele>
        <time>2012-10-21T09:32:00.000Z</time>
      </trkpt>
      <trkpt lat="45.48945" lon="3.37087">
        <ele>670</ele>
        <time>2012-10-21T09:32:01.000Z</time>
      </trkpt>
      <trkpt lat="45.48948" lon="3.37088">
        <ele>670</ele>
        <time>2012-10-21T09:32:02.000Z</time>
      </trkpt>
      <trkpt lat="45.48951" lon="3.3709">
        <ele>670</ele>
        <time>2012-10-21T09:32:03.000Z</time>
      </trkpt>
      <trkpt lat="45.48956" lon="3.37093">
        <ele>669</ele>
        <time>2012-10-21T09:32:04.000Z</time>
      </trkpt>
      <trkpt lat="45.4896" lon="3.37097">
        <ele>670</ele>
        <time>2012-10-21T09:32:05.000Z</time>
      </trkpt>
      <trkpt lat="45.48965" lon="3.371">
        <ele>671</ele>
        <time>2012-10-21T09:32:06.000Z</time>
      </trkpt>
      <trkpt lat="45.4897" lon="3.37105">
        <ele>673</ele>
        <time>2012-10-21T09:32:07.000Z</time>
      </trkpt>
      <trkpt lat="45.48975" lon="3.37109">
        <ele>673</ele>
        <time>2012-10-21T09:32:08.000Z</time>
      </trkpt>
      <trkpt lat="45.48981" lon="3.37114">
        <ele>673</ele>
        <time>2012-10-21T09:32:09.000Z</time>
      </trkpt>
      <trkpt lat="45.48987" lon="3.37118">
        <ele>676</ele>
        <time>2012-10-21T09:32:10.000Z</time>
      </trkpt>
      <trkpt lat="45.48994" lon="3.37123">
        <ele>674</ele>
        <time>2012-10-21T09:32:11.000Z</time>
      </trkpt>
      <trkpt lat="45.49001" lon="3.37129">
        <ele>675</ele>
        <time>2012-10-21T09:32:12.000Z</time>
      </trkpt>
      <trkpt lat="45.49006" lon="3.37134">
        <ele>676</ele>
        <time>2012-10-21T09:32:13.000Z</time>
      </trkpt>
      <trkpt lat="45.49011" lon="3.37139">
        <ele>672</ele>
        <time>2012-10-21T09:32:14.000Z</time>
      </trkpt>
      <trkpt lat="45.49016" lon="3.37144">
        <ele>670</ele>
        <time>2012-10-21T09:32:15.000Z</time>
      </trkpt>
      <trkpt lat="45.4902" lon="3.37149">
        <ele>671</ele>
        <time>2012-10-21T09:32:16.000Z</time>
      </trkpt>
      <trkpt lat="45.49026" lon="3.37155">
        <ele>672</ele>
        <time>2012-10-21T09:32:17.000Z</time>
      </trkpt>
      <trkpt lat="45.4903" lon="3.3716">
        <ele>673</ele>
        <time>2012-10-21T09:32:18.000Z</time>
      </trkpt>
      <trkpt lat="45.49035" lon="3.37165">
        <ele>673</ele>
        <time>2012-10-21T09:32:19.000Z</time>
      </trkpt>
      <trkpt lat="45.49038" lon="3.3717">
        <ele>670</ele>
        <time>2012-10-21T09:32:20.000Z</time>
      </trkpt>
      <trkpt lat="45.49041" lon="3.37174">
        <ele>667</ele>
        <time>2012-10-21T09:32:21.000Z</time>
      </trkpt>
      <trkpt lat="45.49045" lon="3.37176">
        <ele>666</ele>
        <time>2012-10-21T09:32:22.000Z</time>
      </trkpt>
      <trkpt lat="45.49048" lon="3.37178">
        <ele>664</ele>
        <time>2012-10-21T09:32:23.000Z</time>
      </trkpt>
      <trkpt lat="45.49051" lon="3.3718">
        <ele>665</ele>
        <time>2012-10-21T09:32:24.000Z</time>
      </trkpt>
      <trkpt lat="45.49054" lon="3.37183">
        <ele>662</ele>
        <time>2012-10-21T09:32:25.000Z</time>
      </trkpt>
      <trkpt lat="45.49058" lon="3.37186">
        <ele>662</ele>
        <time>2012-10-21T09:32:26.000Z</time>
      </trkpt>
      <trkpt lat="45.49063" lon="3.37188">
        <ele>663</ele>
        <time>2012-10-21T09:32:27.000Z</time>
      </trkpt>
      <trkpt lat="45.4907" lon="3.37192">
        <ele>657</ele>
        <time>2012-10-21T09:32:28.000Z</time>
      </trkpt>
      <trkpt lat="45.49076" lon="3.37196">
        <ele>659</ele>
        <time>2012-10-21T09:32:29.000Z</time>
      </trkpt>
      <trkpt lat="45.49084" lon="3.37202">
        <ele>658</ele>
        <time>2012-10-21T09:32:30.000Z</time>
      </trkpt>
      <trkpt lat="45.49096" lon="3.3721">
        <ele>655</ele>
        <time>2012-10-21T09:32:31.000Z</time>
      </trkpt>
      <trkpt lat="45.49109" lon="3.37216">
        <ele>653</ele>
        <time>2012-10-21T09:32:32.000Z</time>
      </trkpt>
      <trkpt lat="45.4912" lon="3.37222">
        <ele>654</ele>
        <time>2012-10-21T09:32:33.000Z</time>
      </trkpt>
      <trkpt lat="45.4913" lon="3.37226">
        <ele>655</ele>
        <time>2012-10-21T09:32:34.000Z</time>
      </trkpt>
      <trkpt lat="45.4914" lon="3.37229">
        <ele>657</ele>
        <time>2012-10-21T09:32:35.000Z</time>
      </trkpt>
      <trkpt lat="45.49147" lon="3.37231">
        <ele>658</ele>
        <time>2012-10-21T09:32:36.000Z</time>
      </trkpt>
      <trkpt lat="45.49155" lon="3.37233">
        <ele>656</ele>
        <time>2012-10-21T09:32:37.000Z</time>
      </trkpt>
      <trkpt lat="45.49162" lon="3.37234">
        <ele>657</ele>
        <time>2012-10-21T09:32:38.000Z</time>
      </trkpt>
      <trkpt lat="45.49169" lon="3.37234">
        <ele>658</ele>
        <time>2012-10-21T09:32:39.000Z</time>
      </trkpt>
      <trkpt lat="45.49176" lon="3.37235">
        <ele>657</ele>
        <time>2012-10-21T09:32:40.000Z</time>
      </trkpt>
      <trkpt lat="45.49183" lon="3.37235">
        <ele>660</ele>
        <time>2012-10-21T09:32:41.000Z</time>
      </trkpt>
      <trkpt lat="45.49189" lon="3.37234">
        <ele>659</ele>
        <time>2012-10-21T09:32:42.000Z</time>
      </trkpt>
      <trkpt lat="45.49195" lon="3.37234">
        <ele>663</ele>
        <time>2012-10-21T09:32:43.000Z</time>
      </trkpt>
      <trkpt lat="45.492" lon="3.37233">
        <ele>660</ele>
        <time>2012-10-21T09:32:44.000Z</time>
      </trkpt>
      <trkpt lat="45.49205" lon="3.37233">
        <ele>660</ele>
        <time>2012-10-21T09:32:45.000Z</time>
      </trkpt>
      <trkpt lat="45.4921" lon="3.37232">
        <ele>660</ele>
        <time>2012-10-21T09:32:46.000Z</time>
      </trkpt>
      <trkpt lat="45.49215" lon="3.37231">
        <ele>665</ele>
        <time>2012-10-21T09:32:47.000Z</time>
      </trkpt>
      <trkpt lat="45.4922" lon="3.37228">
        <ele>670</ele>
        <time>2012-10-21T09:32:48.000Z</time>
      </trkpt>
      <trkpt lat="45.49226" lon="3.37225">
        <ele>673</ele>
        <time>2012-10-21T09:32:49.000Z</time>
      </trkpt>
      <trkpt lat="45.4923" lon="3.37224">
        <ele>670</ele>
        <time>2012-10-21T09:32:50.000Z</time>
      </trkpt>
      <trkpt lat="45.49235" lon="3.37222">
        <ele>669</ele>
        <time>2012-10-21T09:32:51.000Z</time>
      </trkpt>
      <trkpt lat="45.4924" lon="3.3722">
        <ele>671</ele>
        <time>2012-10-21T09:32:52.000Z</time>
      </trkpt>
      <trkpt lat="45.49245" lon="3.37218">
        <ele>674</ele>
        <time>2012-10-21T09:32:53.000Z</time>
      </trkpt>
      <trkpt lat="45.4925" lon="3.37217">
        <ele>672</ele>
        <time>2012-10-21T09:32:54.000Z</time>
      </trkpt>
      <trkpt lat="45.49255" lon="3.37216">
        <ele>672</ele>
        <time>2012-10-21T09:32:55.000Z</time>
      </trkpt>
      <trkpt lat="45.49258" lon="3.37216">
        <ele>667</ele>
        <time>2012-10-21T09:32:56.000Z</time>
      </trkpt>
      <trkpt lat="45.49262" lon="3.37216">
        <ele>667</ele>
        <time>2012-10-21T09:32:57.000Z</time>
      </trkpt>
      <trkpt lat="45.49266" lon="3.37216">
        <ele>668</ele>
        <time>2012-10-21T09:33:00.000Z</time>
      </trkpt>
      <trkpt lat="45.49276" lon="3.37217">
        <ele>670</ele>
        <time>2012-10-21T09:33:01.000Z</time>
      </trkpt>
      <trkpt lat="45.49281" lon="3.37217">
        <ele>677</ele>
        <time>2012-10-21T09:33:02.000Z</time>
      </trkpt>
      <trkpt lat="45.49286" lon="3.37217">
        <ele>676</ele>
        <time>2012-10-21T09:33:03.000Z</time>
      </trkpt>
      <trkpt lat="45.49291" lon="3.37218">
        <ele>674</ele>
        <time>2012-10-21T09:33:04.000Z</time>
      </trkpt>
      <trkpt lat="45.49295" lon="3.37218">
        <ele>671</ele>
        <time>2012-10-21T09:33:05.000Z</time>
      </trkpt>
      <trkpt lat="45.493" lon="3.37217">
        <ele>672</ele>
        <time>2012-10-21T09:33:06.000Z</time>
      </trkpt>
      <trkpt lat="45.49304" lon="3.37217">
        <ele>673</ele>
        <time>2012-10-21T09:33:07.000Z</time>
      </trkpt>
      <trkpt lat="45.4931" lon="3.37216">
        <ele>668</ele>
        <time>2012-10-21T09:33:08.000Z</time>
      </trkpt>
      <trkpt lat="45.49314" lon="3.37215">
        <ele>671</ele>
        <time>2012-10-21T09:33:09.000Z</time>
      </trkpt>
      <trkpt lat="45.49319" lon="3.37213">
        <ele>671</ele>
        <time>2012-10-21T09:33:10.000Z</time>
      </trkpt>
      <trkpt lat="45.49324" lon="3.37211">
        <ele>667</ele>
        <time>2012-10-21T09:33:11.000Z</time>
      </trkpt>
      <trkpt lat="45.49329" lon="3.37208">
        <ele>670</ele>
        <time>2012-10-21T09:33:12.000Z</time>
      </trkpt>
      <trkpt lat="45.49335" lon="3.37205">
        <ele>671</ele>
        <time>2012-10-21T09:33:13.000Z</time>
      </trkpt>
      <trkpt lat="45.49341" lon="3.37203">
        <ele>671</ele>
        <time>2012-10-21T09:33:14.000Z</time>
      </trkpt>
      <trkpt lat="45.49348" lon="3.37198">
        <ele>653</ele>
        <time>2012-10-21T09:33:15.000Z</time>
      </trkpt>
      <trkpt lat="45.49354" lon="3.37194">
        <ele>650</ele>
        <time>2012-10-21T09:33:16.000Z</time>
      </trkpt>
      <trkpt lat="45.49359" lon="3.37189">
        <ele>651</ele>
        <time>2012-10-21T09:33:17.000Z</time>
      </trkpt>
      <trkpt lat="45.49365" lon="3.37183">
        <ele>648</ele>
        <time>2012-10-21T09:33:18.000Z</time>
      </trkpt>
      <trkpt lat="45.49373" lon="3.37176">
        <ele>647</ele>
        <time>2012-10-21T09:33:19.000Z</time>
      </trkpt>
      <trkpt lat="45.49381" lon="3.3717">
        <ele>647</ele>
        <time>2012-10-21T09:33:20.000Z</time>
      </trkpt>
      <trkpt lat="45.49389" lon="3.37166">
        <ele>645</ele>
        <time>2012-10-21T09:33:21.000Z</time>
      </trkpt>
      <trkpt lat="45.49396" lon="3.3716">
        <ele>641</ele>
        <time>2012-10-21T09:33:22.000Z</time>
      </trkpt>
      <trkpt lat="45.49405" lon="3.3715">
        <ele>637</ele>
        <time>2012-10-21T09:33:24.000Z</time>
      </trkpt>
      <trkpt lat="45.49415" lon="3.37136">
        <ele>643</ele>
        <time>2012-10-21T09:33:25.000Z</time>
      </trkpt>
      <trkpt lat="45.49427" lon="3.37118">
        <ele>636</ele>
        <time>2012-10-21T09:33:26.000Z</time>
      </trkpt>
      <trkpt lat="45.49434" lon="3.37106">
        <ele>630</ele>
        <time>2012-10-21T09:33:27.000Z</time>
      </trkpt>
      <trkpt lat="45.49443" lon="3.37088">
        <ele>633</ele>
        <time>2012-10-21T09:33:28.000Z</time>
      </trkpt>
      <trkpt lat="45.49452" lon="3.37069">
        <ele>634</ele>
        <time>2012-10-21T09:33:29.000Z</time>
      </trkpt>
      <trkpt lat="45.49459" lon="3.37052">
        <ele>632</ele>
        <time>2012-10-21T09:33:30.000Z</time>
      </trkpt>
      <trkpt lat="45.49465" lon="3.37038">
        <ele>631</ele>
        <time>2012-10-21T09:33:31.000Z</time>
      </trkpt>
      <trkpt lat="45.4947" lon="3.37024">
        <ele>628</ele>
        <time>2012-10-21T09:33:32.000Z</time>
      </trkpt>
      <trkpt lat="45.49475" lon="3.37011">
        <ele>627</ele>
        <time>2012-10-21T09:33:33.000Z</time>
      </trkpt>
      <trkpt lat="45.49479" lon="3.36999">
        <ele>625</ele>
        <time>2012-10-21T09:33:34.000Z</time>
      </trkpt>
      <trkpt lat="45.49483" lon="3.36986">
        <ele>623</ele>
        <time>2012-10-21T09:33:35.000Z</time>
      </trkpt>
      <trkpt lat="45.49488" lon="3.36973">
        <ele>620</ele>
        <time>2012-10-21T09:33:36.000Z</time>
      </trkpt>
      <trkpt lat="45.49491" lon="3.3696">
        <ele>619</ele>
        <time>2012-10-21T09:33:37.000Z</time>
      </trkpt>
      <trkpt lat="45.49494" lon="3.3695">
        <ele>616</ele>
        <time>2012-10-21T09:33:38.000Z</time>
      </trkpt>
      <trkpt lat="45.49498" lon="3.3694">
        <ele>615</ele>
        <time>2012-10-21T09:33:39.000Z</time>
      </trkpt>
      <trkpt lat="45.49501" lon="3.36931">
        <ele>614</ele>
        <time>2012-10-21T09:33:40.000Z</time>
      </trkpt>
      <trkpt lat="45.49504" lon="3.36922">
        <ele>614</ele>
        <time>2012-10-21T09:33:41.000Z</time>
      </trkpt>
      <trkpt lat="45.49508" lon="3.36913">
        <ele>614</ele>
        <time>2012-10-21T09:33:42.000Z</time>
      </trkpt>
      <trkpt lat="45.49513" lon="3.36905">
        <ele>613</ele>
        <time>2012-10-21T09:33:43.000Z</time>
      </trkpt>
      <trkpt lat="45.49519" lon="3.36897">
        <ele>612</ele>
        <time>2012-10-21T09:33:44.000Z</time>
      </trkpt>
      <trkpt lat="45.49525" lon="3.3689">
        <ele>610</ele>
        <time>2012-10-21T09:33:45.000Z</time>
      </trkpt>
      <trkpt lat="45.49541" lon="3.36878">
        <ele>608</ele>
        <time>2012-10-21T09:33:47.000Z</time>
      </trkpt>
      <trkpt lat="45.49549" lon="3.36872">
        <ele>607</ele>
        <time>2012-10-21T09:33:48.000Z</time>
      </trkpt>
      <trkpt lat="45.49556" lon="3.36866">
        <ele>606</ele>
        <time>2012-10-21T09:33:49.000Z</time>
      </trkpt>
      <trkpt lat="45.49562" lon="3.3686">
        <ele>604</ele>
        <time>2012-10-21T09:33:50.000Z</time>
      </trkpt>
      <trkpt lat="45.49569" lon="3.36854">
        <ele>602</ele>
        <time>2012-10-21T09:33:51.000Z</time>
      </trkpt>
      <trkpt lat="45.49577" lon="3.36846">
        <ele>601</ele>
        <time>2012-10-21T09:33:52.000Z</time>
      </trkpt>
      <trkpt lat="45.49586" lon="3.36838">
        <ele>603</ele>
        <time>2012-10-21T09:33:53.000Z</time>
      </trkpt>
      <trkpt lat="45.49595" lon="3.36829">
        <ele>602</ele>
        <time>2012-10-21T09:33:54.000Z</time>
      </trkpt>
      <trkpt lat="45.49605" lon="3.3682">
        <ele>599</ele>
        <time>2012-10-21T09:33:55.000Z</time>
      </trkpt>
      <trkpt lat="45.49615" lon="3.36809">
        <ele>597</ele>
        <time>2012-10-21T09:33:56.000Z</time>
      </trkpt>
      <trkpt lat="45.49624" lon="3.36798">
        <ele>594</ele>
        <time>2012-10-21T09:33:57.000Z</time>
      </trkpt>
      <trkpt lat="45.49632" lon="3.36789">
        <ele>592</ele>
        <time>2012-10-21T09:33:58.000Z</time>
      </trkpt>
      <trkpt lat="45.49638" lon="3.36783">
        <ele>591</ele>
        <time>2012-10-21T09:33:59.000Z</time>
      </trkpt>
      <trkpt lat="45.49642" lon="3.36777">
        <ele>590</ele>
        <time>2012-10-21T09:34:00.000Z</time>
      </trkpt>
      <trkpt lat="45.49645" lon="3.36771">
        <ele>588</ele>
        <time>2012-10-21T09:34:01.000Z</time>
      </trkpt>
      <trkpt lat="45.49648" lon="3.36766">
        <ele>587</ele>
        <time>2012-10-21T09:34:02.000Z</time>
      </trkpt>
      <trkpt lat="45.49651" lon="3.36761">
        <ele>587</ele>
        <time>2012-10-21T09:34:03.000Z</time>
      </trkpt>
      <trkpt lat="45.49654" lon="3.36755">
        <ele>587</ele>
        <time>2012-10-21T09:34:04.000Z</time>
      </trkpt>
      <trkpt lat="45.49657" lon="3.36749">
        <ele>586</ele>
        <time>2012-10-21T09:34:05.000Z</time>
      </trkpt>
      <trkpt lat="45.49659" lon="3.36744">
        <ele>586</ele>
        <time>2012-10-21T09:34:06.000Z</time>
      </trkpt>
      <trkpt lat="45.49661" lon="3.3674">
        <ele>586</ele>
        <time>2012-10-21T09:34:07.000Z</time>
      </trkpt>
      <trkpt lat="45.49663" lon="3.36734">
        <ele>585</ele>
        <time>2012-10-21T09:34:08.000Z</time>
      </trkpt>
      <trkpt lat="45.49665" lon="3.36728">
        <ele>585</ele>
        <time>2012-10-21T09:34:09.000Z</time>
      </trkpt>
      <trkpt lat="45.49667" lon="3.36722">
        <ele>585</ele>
        <time>2012-10-21T09:34:10.000Z</time>
      </trkpt>
      <trkpt lat="45.4967" lon="3.36715">
        <ele>584</ele>
        <time>2012-10-21T09:34:11.000Z</time>
      </trkpt>
      <trkpt lat="45.49671" lon="3.3671">
        <ele>583</ele>
        <time>2012-10-21T09:34:12.000Z</time>
      </trkpt>
      <trkpt lat="45.49673" lon="3.36704">
        <ele>582</ele>
        <time>2012-10-21T09:34:13.000Z</time>
      </trkpt>
      <trkpt lat="45.49675" lon="3.367">
        <ele>582</ele>
        <time>2012-10-21T09:34:15.000Z</time>
      </trkpt>
      <trkpt lat="45.49676" lon="3.36699">
        <ele>582</ele>
        <time>2012-10-21T09:34:16.000Z</time>
      </trkpt>
      <trkpt lat="45.49678" lon="3.36703">
        <ele>587</ele>
        <time>2012-10-21T09:34:21.000Z</time>
      </trkpt>
      <trkpt lat="45.49678" lon="3.36706">
        <ele>588</ele>
        <time>2012-10-21T09:34:22.000Z</time>
      </trkpt>
      <trkpt lat="45.49678" lon="3.36711">
        <ele>588</ele>
        <time>2012-10-21T09:34:24.000Z</time>
      </trkpt>
      <trkpt lat="45.49678" lon="3.36714">
        <ele>587</ele>
        <time>2012-10-21T09:34:25.000Z</time>
      </trkpt>
      <trkpt lat="45.49679" lon="3.3672">
        <ele>594</ele>
        <time>2012-10-21T09:34:27.000Z</time>
      </trkpt>
      <trkpt lat="45.49678" lon="3.36723">
        <ele>594</ele>
        <time>2012-10-21T09:34:28.000Z</time>
      </trkpt>
      <trkpt lat="45.49678" lon="3.36727">
        <ele>591</ele>
        <time>2012-10-21T09:34:29.000Z</time>
      </trkpt>
      <trkpt lat="45.49677" lon="3.36732">
        <ele>589</ele>
        <time>2012-10-21T09:34:30.000Z</time>
      </trkpt>
      <trkpt lat="45.49676" lon="3.36736">
        <ele>590</ele>
        <time>2012-10-21T09:34:31.000Z</time>
      </trkpt>
      <trkpt lat="45.49675" lon="3.3674">
        <ele>589</ele>
        <time>2012-10-21T09:34:32.000Z</time>
      </trkpt>
      <trkpt lat="45.49673" lon="3.36744">
        <ele>587</ele>
        <time>2012-10-21T09:34:33.000Z</time>
      </trkpt>
      <trkpt lat="45.49672" lon="3.36749">
        <ele>590</ele>
        <time>2012-10-21T09:34:34.000Z</time>
      </trkpt>
      <trkpt lat="45.49671" lon="3.36754">
        <ele>589</ele>
        <time>2012-10-21T09:34:35.000Z</time>
      </trkpt>
      <trkpt lat="45.49669" lon="3.36759">
        <ele>588</ele>
        <time>2012-10-21T09:34:36.000Z</time>
      </trkpt>
      <trkpt lat="45.49667" lon="3.36764">
        <ele>585</ele>
        <time>2012-10-21T09:34:37.000Z</time>
      </trkpt>
      <trkpt lat="45.49666" lon="3.36769">
        <ele>585</ele>
        <time>2012-10-21T09:34:38.000Z</time>
      </trkpt>
      <trkpt lat="45.49665" lon="3.36772">
        <ele>584</ele>
        <time>2012-10-21T09:34:39.000Z</time>
      </trkpt>
      <trkpt lat="45.49664" lon="3.36776">
        <ele>583</ele>
        <time>2012-10-21T09:34:40.000Z</time>
      </trkpt>
      <trkpt lat="45.49663" lon="3.3678">
        <ele>584</ele>
        <time>2012-10-21T09:34:41.000Z</time>
      </trkpt>
      <trkpt lat="45.49662" lon="3.36785">
        <ele>582</ele>
        <time>2012-10-21T09:34:42.000Z</time>
      </trkpt>
      <trkpt lat="45.49662" lon="3.3679">
        <ele>582</ele>
        <time>2012-10-21T09:34:43.000Z</time>
      </trkpt>
      <trkpt lat="45.49662" lon="3.36797">
        <ele>581</ele>
        <time>2012-10-21T09:34:44.000Z</time>
      </trkpt>
      <trkpt lat="45.49662" lon="3.36802">
        <ele>584</ele>
        <time>2012-10-21T09:34:45.000Z</time>
      </trkpt>
      <trkpt lat="45.49663" lon="3.36815">
        <ele>580</ele>
        <time>2012-10-21T09:34:47.000Z</time>
      </trkpt>
      <trkpt lat="45.49664" lon="3.3682">
        <ele>579</ele>
        <time>2012-10-21T09:34:48.000Z</time>
      </trkpt>
      <trkpt lat="45.49665" lon="3.36825">
        <ele>579</ele>
        <time>2012-10-21T09:34:49.000Z</time>
      </trkpt>
      <trkpt lat="45.49666" lon="3.36829">
        <ele>579</ele>
        <time>2012-10-21T09:34:50.000Z</time>
      </trkpt>
      <trkpt lat="45.49668" lon="3.36833">
        <ele>580</ele>
        <time>2012-10-21T09:34:51.000Z</time>
      </trkpt>
      <trkpt lat="45.4967" lon="3.36837">
        <ele>578</ele>
        <time>2012-10-21T09:34:52.000Z</time>
      </trkpt>
      <trkpt lat="45.49672" lon="3.3684">
        <ele>580</ele>
        <time>2012-10-21T09:34:53.000Z</time>
      </trkpt>
      <trkpt lat="45.49675" lon="3.36844">
        <ele>579</ele>
        <time>2012-10-21T09:34:54.000Z</time>
      </trkpt>
      <trkpt lat="45.49677" lon="3.36845">
        <ele>579</ele>
        <time>2012-10-21T09:34:55.000Z</time>
      </trkpt>
      <trkpt lat="45.4968" lon="3.36847">
        <ele>580</ele>
        <time>2012-10-21T09:34:56.000Z</time>
      </trkpt>
      <trkpt lat="45.49683" lon="3.3685">
        <ele>581</ele>
        <time>2012-10-21T09:34:57.000Z</time>
      </trkpt>
      <trkpt lat="45.49686" lon="3.36852">
        <ele>582</ele>
        <time>2012-10-21T09:34:58.000Z</time>
      </trkpt>
      <trkpt lat="45.4969" lon="3.36854">
        <ele>584</ele>
        <time>2012-10-21T09:34:59.000Z</time>
      </trkpt>
      <trkpt lat="45.49693" lon="3.36856">
        <ele>583</ele>
        <time>2012-10-21T09:35:00.000Z</time>
      </trkpt>
      <trkpt lat="45.49696" lon="3.36857">
        <ele>585</ele>
        <time>2012-10-21T09:35:01.000Z</time>
      </trkpt>
      <trkpt lat="45.49699" lon="3.36859">
        <ele>584</ele>
        <time>2012-10-21T09:35:02.000Z</time>
      </trkpt>
      <trkpt lat="45.49702" lon="3.3686">
        <ele>585</ele>
        <time>2012-10-21T09:35:03.000Z</time>
      </trkpt>
      <trkpt lat="45.49704" lon="3.36861">
        <ele>586</ele>
        <time>2012-10-21T09:35:05.000Z</time>
      </trkpt>
      <trkpt lat="45.4971" lon="3.36862">
        <ele>585</ele>
        <time>2012-10-21T09:35:06.000Z</time>
      </trkpt>
      <trkpt lat="45.49713" lon="3.36863">
        <ele>585</ele>
        <time>2012-10-21T09:35:07.000Z</time>
      </trkpt>
      <trkpt lat="45.49715" lon="3.36864">
        <ele>586</ele>
        <time>2012-10-21T09:35:08.000Z</time>
      </trkpt>
      <trkpt lat="45.49717" lon="3.36865">
        <ele>588</ele>
        <time>2012-10-21T09:35:09.000Z</time>
      </trkpt>
      <trkpt lat="45.4972" lon="3.36866">
        <ele>589</ele>
        <time>2012-10-21T09:35:10.000Z</time>
      </trkpt>
      <trkpt lat="45.49723" lon="3.36867">
        <ele>589</ele>
        <time>2012-10-21T09:35:11.000Z</time>
      </trkpt>
      <trkpt lat="45.49725" lon="3.36867">
        <ele>590</ele>
        <time>2012-10-21T09:35:12.000Z</time>
      </trkpt>
      <trkpt lat="45.49728" lon="3.36868">
        <ele>592</ele>
        <time>2012-10-21T09:35:13.000Z</time>
      </trkpt>
      <trkpt lat="45.4973" lon="3.3687">
        <ele>593</ele>
        <time>2012-10-21T09:35:14.000Z</time>
      </trkpt>
      <trkpt lat="45.49733" lon="3.36872">
        <ele>592</ele>
        <time>2012-10-21T09:35:15.000Z</time>
      </trkpt>
      <trkpt lat="45.49736" lon="3.36874">
        <ele>591</ele>
        <time>2012-10-21T09:35:16.000Z</time>
      </trkpt>
      <trkpt lat="45.49738" lon="3.36876">
        <ele>590</ele>
        <time>2012-10-21T09:35:17.000Z</time>
      </trkpt>
      <trkpt lat="45.49741" lon="3.36878">
        <ele>587</ele>
        <time>2012-10-21T09:35:18.000Z</time>
      </trkpt>
      <trkpt lat="45.49744" lon="3.3688">
        <ele>588</ele>
        <time>2012-10-21T09:35:19.000Z</time>
      </trkpt>
      <trkpt lat="45.49747" lon="3.36882">
        <ele>588</ele>
        <time>2012-10-21T09:35:20.000Z</time>
      </trkpt>
      <trkpt lat="45.49749" lon="3.36883">
        <ele>590</ele>
        <time>2012-10-21T09:35:21.000Z</time>
      </trkpt>
      <trkpt lat="45.49751" lon="3.36885">
        <ele>588</ele>
        <time>2012-10-21T09:35:22.000Z</time>
      </trkpt>
      <trkpt lat="45.49754" lon="3.36887">
        <ele>588</ele>
        <time>2012-10-21T09:35:23.000Z</time>
      </trkpt>
      <trkpt lat="45.49757" lon="3.36889">
        <ele>590</ele>
        <time>2012-10-21T09:35:24.000Z</time>
      </trkpt>
      <trkpt lat="45.49759" lon="3.36891">
        <ele>590</ele>
        <time>2012-10-21T09:35:25.000Z</time>
      </trkpt>
      <trkpt lat="45.49761" lon="3.36892">
        <ele>590</ele>
        <time>2012-10-21T09:35:26.000Z</time>
      </trkpt>
      <trkpt lat="45.49763" lon="3.36894">
        <ele>589</ele>
        <time>2012-10-21T09:35:27.000Z</time>
      </trkpt>
      <trkpt lat="45.49765" lon="3.36896">
        <ele>588</ele>
        <time>2012-10-21T09:35:28.000Z</time>
      </trkpt>
      <trkpt lat="45.49767" lon="3.36898">
        <ele>586</ele>
        <time>2012-10-21T09:35:29.000Z</time>
      </trkpt>
      <trkpt lat="45.49769" lon="3.369">
        <ele>587</ele>
        <time>2012-10-21T09:35:30.000Z</time>
      </trkpt>
      <trkpt lat="45.49773" lon="3.36903">
        <ele>585</ele>
        <time>2012-10-21T09:35:32.000Z</time>
      </trkpt>
      <trkpt lat="45.49774" lon="3.36905">
        <ele>584</ele>
        <time>2012-10-21T09:35:33.000Z</time>
      </trkpt>
      <trkpt lat="45.49778" lon="3.36911">
        <ele>584</ele>
        <time>2012-10-21T09:35:36.000Z</time>
      </trkpt>
      <trkpt lat="45.49787" lon="3.36921">
        <ele>593</ele>
        <time>2012-10-21T09:35:41.000Z</time>
      </trkpt>
      <trkpt lat="45.4979" lon="3.36925">
        <ele>593</ele>
        <time>2012-10-21T09:35:43.000Z</time>
      </trkpt>
      <trkpt lat="45.49794" lon="3.36932">
        <ele>594</ele>
        <time>2012-10-21T09:35:47.000Z</time>
      </trkpt>
      <trkpt lat="45.49796" lon="3.36938">
        <ele>589</ele>
        <time>2012-10-21T09:35:48.000Z</time>
      </trkpt>
      <trkpt lat="45.49799" lon="3.36943">
        <ele>590</ele>
        <time>2012-10-21T09:35:50.000Z</time>
      </trkpt>
      <trkpt lat="45.49801" lon="3.36952">
        <ele>597</ele>
        <time>2012-10-21T09:35:54.000Z</time>
      </trkpt>
      <trkpt lat="45.49801" lon="3.36964">
        <ele>600</ele>
        <time>2012-10-21T09:36:03.000Z</time>
      </trkpt>
      <trkpt lat="45.49801" lon="3.36965">
        <ele>602</ele>
        <time>2012-10-21T09:36:11.000Z</time>
      </trkpt>
      <trkpt lat="45.49811" lon="3.36968">
        <ele>603</ele>
        <time>2012-10-21T09:36:12.000Z</time>
      </trkpt>
      <trkpt lat="45.49817" lon="3.36967">
        <ele>598</ele>
        <time>2012-10-21T09:36:14.000Z</time>
      </trkpt>
      <trkpt lat="45.49821" lon="3.36966">
        <ele>595</ele>
        <time>2012-10-21T09:36:15.000Z</time>
      </trkpt>
      <trkpt lat="45.49826" lon="3.36965">
        <ele>591</ele>
        <time>2012-10-21T09:36:16.000Z</time>
      </trkpt>
      <trkpt lat="45.4983" lon="3.36964">
        <ele>588</ele>
        <time>2012-10-21T09:36:17.000Z</time>
      </trkpt>
      <trkpt lat="45.49834" lon="3.36963">
        <ele>591</ele>
        <time>2012-10-21T09:36:18.000Z</time>
      </trkpt>
      <trkpt lat="45.49838" lon="3.36962">
        <ele>589</ele>
        <time>2012-10-21T09:36:19.000Z</time>
      </trkpt>
      <trkpt lat="45.49842" lon="3.36961">
        <ele>591</ele>
        <time>2012-10-21T09:36:20.000Z</time>
      </trkpt>
      <trkpt lat="45.49848" lon="3.3696">
        <ele>589</ele>
        <time>2012-10-21T09:36:22.000Z</time>
      </trkpt>
      <trkpt lat="45.49854" lon="3.36959">
        <ele>590</ele>
        <time>2012-10-21T09:36:24.000Z</time>
      </trkpt>
      <trkpt lat="45.49858" lon="3.36958">
        <ele>590</ele>
        <time>2012-10-21T09:36:25.000Z</time>
      </trkpt>
      <trkpt lat="45.49862" lon="3.36958">
        <ele>590</ele>
        <time>2012-10-21T09:36:26.000Z</time>
      </trkpt>
      <trkpt lat="45.49864" lon="3.36958">
        <ele>589</ele>
        <time>2012-10-21T09:36:27.000Z</time>
      </trkpt>
      <trkpt lat="45.49867" lon="3.36957">
        <ele>591</ele>
        <time>2012-10-21T09:36:28.000Z</time>
      </trkpt>
      <trkpt lat="45.49871" lon="3.36957">
        <ele>588</ele>
        <time>2012-10-21T09:36:29.000Z</time>
      </trkpt>
      <trkpt lat="45.49873" lon="3.36956">
        <ele>590</ele>
        <time>2012-10-21T09:36:30.000Z</time>
      </trkpt>
      <trkpt lat="45.49875" lon="3.36955">
        <ele>591</ele>
        <time>2012-10-21T09:36:41.000Z</time>
      </trkpt>
      <trkpt lat="45.49884" lon="3.36951">
        <ele>588</ele>
        <time>2012-10-21T09:36:42.000Z</time>
      </trkpt>
      <trkpt lat="45.49892" lon="3.36945">
        <ele>584</ele>
        <time>2012-10-21T09:37:05.000Z</time>
      </trkpt>
      <trkpt lat="45.49904" lon="3.36945">
        <ele>579</ele>
        <time>2012-10-21T09:37:11.000Z</time>
      </trkpt>
      <trkpt lat="45.49914" lon="3.36945">
        <ele>579</ele>
        <time>2012-10-21T09:37:15.000Z</time>
      </trkpt>
      <trkpt lat="45.49923" lon="3.36945">
        <ele>578</ele>
        <time>2012-10-21T09:37:18.000Z</time>
      </trkpt>
      <trkpt lat="45.49933" lon="3.36943">
        <ele>580</ele>
        <time>2012-10-21T09:37:26.000Z</time>
      </trkpt>
      <trkpt lat="45.49942" lon="3.36941">
        <ele>579</ele>
        <time>2012-10-21T09:37:30.000Z</time>
      </trkpt>
      <trkpt lat="45.49945" lon="3.3694">
        <ele>578</ele>
        <time>2012-10-21T09:37:31.000Z</time>
      </trkpt>
      <trkpt lat="45.49949" lon="3.36939">
        <ele>579</ele>
        <time>2012-10-21T09:37:32.000Z</time>
      </trkpt>
      <trkpt lat="45.49953" lon="3.36938">
        <ele>577</ele>
        <time>2012-10-21T09:37:33.000Z</time>
      </trkpt>
      <trkpt lat="45.49956" lon="3.36938">
        <ele>580</ele>
        <time>2012-10-21T09:37:34.000Z</time>
      </trkpt>
      <trkpt lat="45.4996" lon="3.3694">
        <ele>581</ele>
        <time>2012-10-21T09:37:35.000Z</time>
      </trkpt>
      <trkpt lat="45.49965" lon="3.36941">
        <ele>579</ele>
        <time>2012-10-21T09:37:36.000Z</time>
      </trkpt>
      <trkpt lat="45.4997" lon="3.36941">
        <ele>578</ele>
        <time>2012-10-21T09:37:37.000Z</time>
      </trkpt>
      <trkpt lat="45.49975" lon="3.36941">
        <ele>580</ele>
        <time>2012-10-21T09:37:38.000Z</time>
      </trkpt>
      <trkpt lat="45.49979" lon="3.36942">
        <ele>582</ele>
        <time>2012-10-21T09:37:39.000Z</time>
      </trkpt>
      <trkpt lat="45.49985" lon="3.36942">
        <ele>581</ele>
        <time>2012-10-21T09:37:40.000Z</time>
      </trkpt>
      <trkpt lat="45.49991" lon="3.36944">
        <ele>578</ele>
        <time>2012-10-21T09:37:41.000Z</time>
      </trkpt>
      <trkpt lat="45.49996" lon="3.36944">
        <ele>576</ele>
        <time>2012-10-21T09:37:42.000Z</time>
      </trkpt>
      <trkpt lat="45.50001" lon="3.36945">
        <ele>573</ele>
        <time>2012-10-21T09:37:43.000Z</time>
      </trkpt>
      <trkpt lat="45.50004" lon="3.36946">
        <ele>573</ele>
        <time>2012-10-21T09:37:45.000Z</time>
      </trkpt>
      <trkpt lat="45.50014" lon="3.36949">
        <ele>577</ele>
        <time>2012-10-21T09:37:47.000Z</time>
      </trkpt>
      <trkpt lat="45.50018" lon="3.36952">
        <ele>577</ele>
        <time>2012-10-21T09:37:48.000Z</time>
      </trkpt>
      <trkpt lat="45.50022" lon="3.36955">
        <ele>573</ele>
        <time>2012-10-21T09:37:49.000Z</time>
      </trkpt>
      <trkpt lat="45.50025" lon="3.36959">
        <ele>573</ele>
        <time>2012-10-21T09:37:50.000Z</time>
      </trkpt>
      <trkpt lat="45.50027" lon="3.36962">
        <ele>575</ele>
        <time>2012-10-21T09:37:51.000Z</time>
      </trkpt>
      <trkpt lat="45.50029" lon="3.36966">
        <ele>569</ele>
        <time>2012-10-21T09:37:52.000Z</time>
      </trkpt>
      <trkpt lat="45.50031" lon="3.36969">
        <ele>565</ele>
        <time>2012-10-21T09:37:53.000Z</time>
      </trkpt>
      <trkpt lat="45.50034" lon="3.36973">
        <ele>565</ele>
        <time>2012-10-21T09:37:54.000Z</time>
      </trkpt>
      <trkpt lat="45.50037" lon="3.36976">
        <ele>563</ele>
        <time>2012-10-21T09:37:55.000Z</time>
      </trkpt>
      <trkpt lat="45.50041" lon="3.3698">
        <ele>559</ele>
        <time>2012-10-21T09:37:56.000Z</time>
      </trkpt>
      <trkpt lat="45.50046" lon="3.36984">
        <ele>561</ele>
        <time>2012-10-21T09:37:57.000Z</time>
      </trkpt>
      <trkpt lat="45.50054" lon="3.36987">
        <ele>564</ele>
        <time>2012-10-21T09:37:59.000Z</time>
      </trkpt>
      <trkpt lat="45.50058" lon="3.36988">
        <ele>558</ele>
        <time>2012-10-21T09:38:00.000Z</time>
      </trkpt>
      <trkpt lat="45.50061" lon="3.36991">
        <ele>556</ele>
        <time>2012-10-21T09:38:01.000Z</time>
      </trkpt>
      <trkpt lat="45.50064" lon="3.36995">
        <ele>554</ele>
        <time>2012-10-21T09:38:03.000Z</time>
      </trkpt>
      <trkpt lat="45.50061" lon="3.36998">
        <ele>553</ele>
        <time>2012-10-21T09:38:04.000Z</time>
      </trkpt>
      <trkpt lat="45.50057" lon="3.36999">
        <ele>551</ele>
        <time>2012-10-21T09:38:05.000Z</time>
      </trkpt>
      <trkpt lat="45.50054" lon="3.36999">
        <ele>553</ele>
        <time>2012-10-21T09:38:06.000Z</time>
      </trkpt>
      <trkpt lat="45.5005" lon="3.37">
        <ele>552</ele>
        <time>2012-10-21T09:38:07.000Z</time>
      </trkpt>
      <trkpt lat="45.50046" lon="3.37001">
        <ele>548</ele>
        <time>2012-10-21T09:38:08.000Z</time>
      </trkpt>
      <trkpt lat="45.50043" lon="3.37003">
        <ele>548</ele>
        <time>2012-10-21T09:38:09.000Z</time>
      </trkpt>
      <trkpt lat="45.50039" lon="3.37004">
        <ele>546</ele>
        <time>2012-10-21T09:38:10.000Z</time>
      </trkpt>
      <trkpt lat="45.50035" lon="3.37006">
        <ele>546</ele>
        <time>2012-10-21T09:38:11.000Z</time>
      </trkpt>
      <trkpt lat="45.50031" lon="3.37007">
        <ele>548</ele>
        <time>2012-10-21T09:38:12.000Z</time>
      </trkpt>
      <trkpt lat="45.50028" lon="3.37008">
        <ele>551</ele>
        <time>2012-10-21T09:38:13.000Z</time>
      </trkpt>
      <trkpt lat="45.50023" lon="3.37009">
        <ele>550</ele>
        <time>2012-10-21T09:38:14.000Z</time>
      </trkpt>
      <trkpt lat="45.50019" lon="3.37011">
        <ele>548</ele>
        <time>2012-10-21T09:38:15.000Z</time>
      </trkpt>
      <trkpt lat="45.50014" lon="3.37013">
        <ele>546</ele>
        <time>2012-10-21T09:38:16.000Z</time>
      </trkpt>
      <trkpt lat="45.50008" lon="3.37014">
        <ele>546</ele>
        <time>2012-10-21T09:38:17.000Z</time>
      </trkpt>
      <trkpt lat="45.50003" lon="3.37016">
        <ele>544</ele>
        <time>2012-10-21T09:38:18.000Z</time>
      </trkpt>
      <trkpt lat="45.49998" lon="3.37017">
        <ele>544</ele>
        <time>2012-10-21T09:38:19.000Z</time>
      </trkpt>
      <trkpt lat="45.49993" lon="3.37018">
        <ele>545</ele>
        <time>2012-10-21T09:38:20.000Z</time>
      </trkpt>
      <trkpt lat="45.49988" lon="3.37018">
        <ele>542</ele>
        <time>2012-10-21T09:38:21.000Z</time>
      </trkpt>
      <trkpt lat="45.49983" lon="3.37019">
        <ele>543</ele>
        <time>2012-10-21T09:38:22.000Z</time>
      </trkpt>
      <trkpt lat="45.49979" lon="3.3702">
        <ele>539</ele>
        <time>2012-10-21T09:38:23.000Z</time>
      </trkpt>
      <trkpt lat="45.49974" lon="3.37021">
        <ele>538</ele>
        <time>2012-10-21T09:38:24.000Z</time>
      </trkpt>
      <trkpt lat="45.4997" lon="3.37023">
        <ele>537</ele>
        <time>2012-10-21T09:38:25.000Z</time>
      </trkpt>
      <trkpt lat="45.49967" lon="3.37025">
        <ele>540</ele>
        <time>2012-10-21T09:38:26.000Z</time>
      </trkpt>
      <trkpt lat="45.49957" lon="3.37029">
        <ele>534</ele>
        <time>2012-10-21T09:38:32.000Z</time>
      </trkpt>
      <trkpt lat="45.49951" lon="3.37041">
        <ele>526</ele>
        <time>2012-10-21T09:38:36.000Z</time>
      </trkpt>
      <trkpt lat="45.49959" lon="3.37045">
        <ele>522</ele>
        <time>2012-10-21T09:38:38.000Z</time>
      </trkpt>
      <trkpt lat="45.49962" lon="3.37047">
        <ele>517</ele>
        <time>2012-10-21T09:38:39.000Z</time>
      </trkpt>
      <trkpt lat="45.49967" lon="3.37049">
        <ele>520</ele>
        <time>2012-10-21T09:38:40.000Z</time>
      </trkpt>
      <trkpt lat="45.49973" lon="3.37051">
        <ele>517</ele>
        <time>2012-10-21T09:38:41.000Z</time>
      </trkpt>
      <trkpt lat="45.49978" lon="3.37053">
        <ele>520</ele>
        <time>2012-10-21T09:38:42.000Z</time>
      </trkpt>
      <trkpt lat="45.49985" lon="3.37055">
        <ele>520</ele>
        <time>2012-10-21T09:38:43.000Z</time>
      </trkpt>
      <trkpt lat="45.49991" lon="3.37058">
        <ele>518</ele>
        <time>2012-10-21T09:38:44.000Z</time>
      </trkpt>
      <trkpt lat="45.49998" lon="3.37061">
        <ele>521</ele>
        <time>2012-10-21T09:38:45.000Z</time>
      </trkpt>
      <trkpt lat="45.50003" lon="3.37064">
        <ele>523</ele>
        <time>2012-10-21T09:38:46.000Z</time>
      </trkpt>
      <trkpt lat="45.5001" lon="3.37068">
        <ele>523</ele>
        <time>2012-10-21T09:38:47.000Z</time>
      </trkpt>
      <trkpt lat="45.50017" lon="3.37072">
        <ele>523</ele>
        <time>2012-10-21T09:38:48.000Z</time>
      </trkpt>
      <trkpt lat="45.50023" lon="3.37076">
        <ele>521</ele>
        <time>2012-10-21T09:38:49.000Z</time>
      </trkpt>
      <trkpt lat="45.50029" lon="3.37079">
        <ele>522</ele>
        <time>2012-10-21T09:38:50.000Z</time>
      </trkpt>
      <trkpt lat="45.50034" lon="3.37082">
        <ele>523</ele>
        <time>2012-10-21T09:38:51.000Z</time>
      </trkpt>
      <trkpt lat="45.50042" lon="3.37089">
        <ele>520</ele>
        <time>2012-10-21T09:38:54.000Z</time>
      </trkpt>
      <trkpt lat="45.50044" lon="3.37092">
        <ele>518</ele>
        <time>2012-10-21T09:38:55.000Z</time>
      </trkpt>
      <trkpt lat="45.50046" lon="3.37092">
        <ele>517</ele>
        <time>2012-10-21T09:38:56.000Z</time>
      </trkpt>
      <trkpt lat="45.50045" lon="3.37093">
        <ele>540</ele>
        <time>2012-10-21T09:39:13.000Z</time>
      </trkpt>
      <trkpt lat="45.50042" lon="3.37088">
        <ele>536</ele>
        <time>2012-10-21T09:39:14.000Z</time>
      </trkpt>
      <trkpt lat="45.50039" lon="3.37083">
        <ele>511</ele>
        <time>2012-10-21T09:39:32.000Z</time>
      </trkpt>
      <trkpt lat="45.50038" lon="3.37083">
        <ele>512</ele>
        <time>2012-10-21T09:39:33.000Z</time>
      </trkpt>
      <trkpt lat="45.50042" lon="3.37087">
        <ele>515</ele>
        <time>2012-10-21T09:39:37.000Z</time>
      </trkpt>
      <trkpt lat="45.50046" lon="3.37089">
        <ele>499</ele>
        <time>2012-10-21T09:39:46.000Z</time>
      </trkpt>
      <trkpt lat="45.50047" lon="3.3709">
        <ele>501</ele>
        <time>2012-10-21T09:39:47.000Z</time>
      </trkpt>
      <trkpt lat="45.5005" lon="3.37094">
        <ele>499</ele>
        <time>2012-10-21T09:39:49.000Z</time>
      </trkpt>
      <trkpt lat="45.50053" lon="3.37096">
        <ele>502</ele>
        <time>2012-10-21T09:39:50.000Z</time>
      </trkpt>
      <trkpt lat="45.50055" lon="3.37097">
        <ele>504</ele>
        <time>2012-10-21T09:39:51.000Z</time>
      </trkpt>
      <trkpt lat="45.5006" lon="3.37099">
        <ele>506</ele>
        <time>2012-10-21T09:39:52.000Z</time>
      </trkpt>
      <trkpt lat="45.50063" lon="3.37101">
        <ele>505</ele>
        <time>2012-10-21T09:39:53.000Z</time>
      </trkpt>
      <trkpt lat="45.50067" lon="3.37103">
        <ele>503</ele>
        <time>2012-10-21T09:39:54.000Z</time>
      </trkpt>
      <trkpt lat="45.50071" lon="3.37105">
        <ele>501</ele>
        <time>2012-10-21T09:39:55.000Z</time>
      </trkpt>
      <trkpt lat="45.50075" lon="3.37107">
        <ele>504</ele>
        <time>2012-10-21T09:39:56.000Z</time>
      </trkpt>
      <trkpt lat="45.50078" lon="3.37108">
        <ele>504</ele>
        <time>2012-10-21T09:39:57.000Z</time>
      </trkpt>
      <trkpt lat="45.50081" lon="3.37108">
        <ele>502</ele>
        <time>2012-10-21T09:39:58.000Z</time>
      </trkpt>
      <trkpt lat="45.50084" lon="3.37107">
        <ele>502</ele>
        <time>2012-10-21T09:39:59.000Z</time>
      </trkpt>
      <trkpt lat="45.50086" lon="3.37108">
        <ele>508</ele>
        <time>2012-10-21T09:40:00.000Z</time>
      </trkpt>
      <trkpt lat="45.5009" lon="3.37108">
        <ele>505</ele>
        <time>2012-10-21T09:40:01.000Z</time>
      </trkpt>
      <trkpt lat="45.50094" lon="3.37109">
        <ele>507</ele>
        <time>2012-10-21T09:40:02.000Z</time>
      </trkpt>
      <trkpt lat="45.50098" lon="3.3711">
        <ele>512</ele>
        <time>2012-10-21T09:40:03.000Z</time>
      </trkpt>
      <trkpt lat="45.50103" lon="3.37112">
        <ele>511</ele>
        <time>2012-10-21T09:40:04.000Z</time>
      </trkpt>
      <trkpt lat="45.50107" lon="3.37113">
        <ele>511</ele>
        <time>2012-10-21T09:40:05.000Z</time>
      </trkpt>
      <trkpt lat="45.50111" lon="3.37114">
        <ele>515</ele>
        <time>2012-10-21T09:40:06.000Z</time>
      </trkpt>
      <trkpt lat="45.50116" lon="3.37114">
        <ele>516</ele>
        <time>2012-10-21T09:40:07.000Z</time>
      </trkpt>
      <trkpt lat="45.50121" lon="3.37112">
        <ele>514</ele>
        <time>2012-10-21T09:40:08.000Z</time>
      </trkpt>
      <trkpt lat="45.50127" lon="3.37108">
        <ele>527</ele>
        <time>2012-10-21T09:40:09.000Z</time>
      </trkpt>
      <trkpt lat="45.50132" lon="3.37104">
        <ele>522</ele>
        <time>2012-10-21T09:40:10.000Z</time>
      </trkpt>
      <trkpt lat="45.50136" lon="3.371">
        <ele>524</ele>
        <time>2012-10-21T09:40:11.000Z</time>
      </trkpt>
      <trkpt lat="45.5014" lon="3.37095">
        <ele>531</ele>
        <time>2012-10-21T09:40:12.000Z</time>
      </trkpt>
      <trkpt lat="45.50143" lon="3.37091">
        <ele>535</ele>
        <time>2012-10-21T09:40:13.000Z</time>
      </trkpt>
      <trkpt lat="45.50145" lon="3.37086">
        <ele>542</ele>
        <time>2012-10-21T09:40:14.000Z</time>
      </trkpt>
      <trkpt lat="45.50147" lon="3.37082">
        <ele>544</ele>
        <time>2012-10-21T09:40:15.000Z</time>
      </trkpt>
      <trkpt lat="45.5015" lon="3.37079">
        <ele>548</ele>
        <time>2012-10-21T09:40:16.000Z</time>
      </trkpt>
      <trkpt lat="45.50152" lon="3.37076">
        <ele>550</ele>
        <time>2012-10-21T09:40:17.000Z</time>
      </trkpt>
      <trkpt lat="45.50155" lon="3.37072">
        <ele>551</ele>
        <time>2012-10-21T09:40:18.000Z</time>
      </trkpt>
      <trkpt lat="45.50158" lon="3.37068">
        <ele>547</ele>
        <time>2012-10-21T09:40:19.000Z</time>
      </trkpt>
      <trkpt lat="45.5016" lon="3.37065">
        <ele>547</ele>
        <time>2012-10-21T09:40:20.000Z</time>
      </trkpt>
      <trkpt lat="45.50162" lon="3.37062">
        <ele>545</ele>
        <time>2012-10-21T09:40:21.000Z</time>
      </trkpt>
      <trkpt lat="45.50164" lon="3.3706">
        <ele>555</ele>
        <time>2012-10-21T09:40:22.000Z</time>
      </trkpt>
      <trkpt lat="45.50167" lon="3.37059">
        <ele>554</ele>
        <time>2012-10-21T09:40:24.000Z</time>
      </trkpt>
      <trkpt lat="45.50169" lon="3.3706">
        <ele>559</ele>
        <time>2012-10-21T09:40:25.000Z</time>
      </trkpt>
      <trkpt lat="45.50171" lon="3.37062">
        <ele>549</ele>
        <time>2012-10-21T09:40:26.000Z</time>
      </trkpt>
      <trkpt lat="45.50175" lon="3.37067">
        <ele>539</ele>
        <time>2012-10-21T09:40:27.000Z</time>
      </trkpt>
      <trkpt lat="45.50177" lon="3.37069">
        <ele>538</ele>
        <time>2012-10-21T09:40:28.000Z</time>
      </trkpt>
      <trkpt lat="45.5018" lon="3.3707">
        <ele>537</ele>
        <time>2012-10-21T09:40:29.000Z</time>
      </trkpt>
      <trkpt lat="45.50183" lon="3.37072">
        <ele>538</ele>
        <time>2012-10-21T09:40:31.000Z</time>
      </trkpt>
      <trkpt lat="45.50185" lon="3.37074">
        <ele>534</ele>
        <time>2012-10-21T09:40:32.000Z</time>
      </trkpt>
      <trkpt lat="45.50186" lon="3.37076">
        <ele>531</ele>
        <time>2012-10-21T09:40:33.000Z</time>
      </trkpt>
      <trkpt lat="45.50189" lon="3.37079">
        <ele>530</ele>
        <time>2012-10-21T09:40:34.000Z</time>
      </trkpt>
      <trkpt lat="45.50191" lon="3.37082">
        <ele>534</ele>
        <time>2012-10-21T09:40:35.000Z</time>
      </trkpt>
      <trkpt lat="45.50194" lon="3.37085">
        <ele>534</ele>
        <time>2012-10-21T09:40:36.000Z</time>
      </trkpt>
      <trkpt lat="45.50197" lon="3.37088">
        <ele>530</ele>
        <time>2012-10-21T09:40:37.000Z</time>
      </trkpt>
      <trkpt lat="45.502" lon="3.37091">
        <ele>528</ele>
        <time>2012-10-21T09:40:38.000Z</time>
      </trkpt>
      <trkpt lat="45.50203" lon="3.37095">
        <ele>528</ele>
        <time>2012-10-21T09:40:39.000Z</time>
      </trkpt>
      <trkpt lat="45.50205" lon="3.37098">
        <ele>529</ele>
        <time>2012-10-21T09:40:40.000Z</time>
      </trkpt>
      <trkpt lat="45.50208" lon="3.37101">
        <ele>527</ele>
        <time>2012-10-21T09:40:41.000Z</time>
      </trkpt>
      <trkpt lat="45.50211" lon="3.37105">
        <ele>524</ele>
        <time>2012-10-21T09:40:42.000Z</time>
      </trkpt>
      <trkpt lat="45.50213" lon="3.3711">
        <ele>520</ele>
        <time>2012-10-21T09:40:43.000Z</time>
      </trkpt>
      <trkpt lat="45.50216" lon="3.37115">
        <ele>524</ele>
        <time>2012-10-21T09:40:44.000Z</time>
      </trkpt>
      <trkpt lat="45.5022" lon="3.37119">
        <ele>524</ele>
        <time>2012-10-21T09:40:45.000Z</time>
      </trkpt>
      <trkpt lat="45.50228" lon="3.37127">
        <ele>520</ele>
        <time>2012-10-21T09:40:47.000Z</time>
      </trkpt>
      <trkpt lat="45.50231" lon="3.37134">
        <ele>515</ele>
        <time>2012-10-21T09:40:48.000Z</time>
      </trkpt>
      <trkpt lat="45.50235" lon="3.3714">
        <ele>513</ele>
        <time>2012-10-21T09:40:49.000Z</time>
      </trkpt>
      <trkpt lat="45.50241" lon="3.37146">
        <ele>503</ele>
        <time>2012-10-21T09:40:50.000Z</time>
      </trkpt>
      <trkpt lat="45.50247" lon="3.37153">
        <ele>499</ele>
        <time>2012-10-21T09:40:51.000Z</time>
      </trkpt>
      <trkpt lat="45.5025" lon="3.37157">
        <ele>493</ele>
        <time>2012-10-21T09:40:52.000Z</time>
      </trkpt>
      <trkpt lat="45.50252" lon="3.37158">
        <ele>494</ele>
        <time>2012-10-21T09:40:53.000Z</time>
      </trkpt>
      <trkpt lat="45.50254" lon="3.37154">
        <ele>498</ele>
        <time>2012-10-21T09:40:54.000Z</time>
      </trkpt>
      <trkpt lat="45.50255" lon="3.3715">
        <ele>497</ele>
        <time>2012-10-21T09:40:55.000Z</time>
      </trkpt>
      <trkpt lat="45.50257" lon="3.37144">
        <ele>498</ele>
        <time>2012-10-21T09:40:56.000Z</time>
      </trkpt>
      <trkpt lat="45.50258" lon="3.3714">
        <ele>495</ele>
        <time>2012-10-21T09:40:57.000Z</time>
      </trkpt>
      <trkpt lat="45.50258" lon="3.37134">
        <ele>497</ele>
        <time>2012-10-21T09:41:00.000Z</time>
      </trkpt>
      <trkpt lat="45.50257" lon="3.37133">
        <ele>496</ele>
        <time>2012-10-21T09:41:01.000Z</time>
      </trkpt>
      <trkpt lat="45.50257" lon="3.37127">
        <ele>507</ele>
        <time>2012-10-21T09:41:22.000Z</time>
      </trkpt>
      <trkpt lat="45.50258" lon="3.37125">
        <ele>507</ele>
        <time>2012-10-21T09:41:23.000Z</time>
      </trkpt>
      <trkpt lat="45.50259" lon="3.37119">
        <ele>503</ele>
        <time>2012-10-21T09:41:26.000Z</time>
      </trkpt>
      <trkpt lat="45.50259" lon="3.37117">
        <ele>502</ele>
        <time>2012-10-21T09:41:27.000Z</time>
      </trkpt>
      <trkpt lat="45.50258" lon="3.37112">
        <ele>501</ele>
        <time>2012-10-21T09:41:28.000Z</time>
      </trkpt>
      <trkpt lat="45.50258" lon="3.37108">
        <ele>499</ele>
        <time>2012-10-21T09:41:29.000Z</time>
      </trkpt>
      <trkpt lat="45.50257" lon="3.37102">
        <ele>504</ele>
        <time>2012-10-21T09:41:30.000Z</time>
      </trkpt>
      <trkpt lat="45.50256" lon="3.37097">
        <ele>505</ele>
        <time>2012-10-21T09:41:31.000Z</time>
      </trkpt>
      <trkpt lat="45.50254" lon="3.37092">
        <ele>502</ele>
        <time>2012-10-21T09:41:32.000Z</time>
      </trkpt>
      <trkpt lat="45.50252" lon="3.37086">
        <ele>505</ele>
        <time>2012-10-21T09:41:33.000Z</time>
      </trkpt>
      <trkpt lat="45.50251" lon="3.37079">
        <ele>505</ele>
        <time>2012-10-21T09:41:34.000Z</time>
      </trkpt>
      <trkpt lat="45.5025" lon="3.37072">
        <ele>501</ele>
        <time>2012-10-21T09:41:35.000Z</time>
      </trkpt>
      <trkpt lat="45.50249" lon="3.37066">
        <ele>503</ele>
        <time>2012-10-21T09:41:36.000Z</time>
      </trkpt>
      <trkpt lat="45.50249" lon="3.37059">
        <ele>502</ele>
        <time>2012-10-21T09:41:37.000Z</time>
      </trkpt>
      <trkpt lat="45.50248" lon="3.37053">
        <ele>503</ele>
        <time>2012-10-21T09:41:38.000Z</time>
      </trkpt>
      <trkpt lat="45.50247" lon="3.37046">
        <ele>503</ele>
        <time>2012-10-21T09:41:39.000Z</time>
      </trkpt>
      <trkpt lat="45.50245" lon="3.37038">
        <ele>503</ele>
        <time>2012-10-21T09:41:40.000Z</time>
      </trkpt>
      <trkpt lat="45.50243" lon="3.37031">
        <ele>505</ele>
        <time>2012-10-21T09:41:41.000Z</time>
      </trkpt>
      <trkpt lat="45.50241" lon="3.37023">
        <ele>504</ele>
        <time>2012-10-21T09:41:42.000Z</time>
      </trkpt>
      <trkpt lat="45.50239" lon="3.37016">
        <ele>503</ele>
        <time>2012-10-21T09:41:43.000Z</time>
      </trkpt>
      <trkpt lat="45.50237" lon="3.37008">
        <ele>503</ele>
        <time>2012-10-21T09:41:44.000Z</time>
      </trkpt>
      <trkpt lat="45.50235" lon="3.37">
        <ele>502</ele>
        <time>2012-10-21T09:41:45.000Z</time>
      </trkpt>
      <trkpt lat="45.50229" lon="3.36986">
        <ele>504</ele>
        <time>2012-10-21T09:41:47.000Z</time>
      </trkpt>
      <trkpt lat="45.50225" lon="3.36977">
        <ele>503</ele>
        <time>2012-10-21T09:41:48.000Z</time>
      </trkpt>
      <trkpt lat="45.50222" lon="3.3697">
        <ele>503</ele>
        <time>2012-10-21T09:41:49.000Z</time>
      </trkpt>
      <trkpt lat="45.5022" lon="3.36962">
        <ele>505</ele>
        <time>2012-10-21T09:41:50.000Z</time>
      </trkpt>
      <trkpt lat="45.50218" lon="3.36953">
        <ele>506</ele>
        <time>2012-10-21T09:41:51.000Z</time>
      </trkpt>
      <trkpt lat="45.50216" lon="3.36945">
        <ele>507</ele>
        <time>2012-10-21T09:41:52.000Z</time>
      </trkpt>
      <trkpt lat="45.50215" lon="3.36937">
        <ele>509</ele>
        <time>2012-10-21T09:41:53.000Z</time>
      </trkpt>
      <trkpt lat="45.50213" lon="3.36928">
        <ele>513</ele>
        <time>2012-10-21T09:41:54.000Z</time>
      </trkpt>
      <trkpt lat="45.50212" lon="3.36919">
        <ele>515</ele>
        <time>2012-10-21T09:41:55.000Z</time>
      </trkpt>
      <trkpt lat="45.50211" lon="3.3691">
        <ele>516</ele>
        <time>2012-10-21T09:41:56.000Z</time>
      </trkpt>
      <trkpt lat="45.50209" lon="3.36902">
        <ele>522</ele>
        <time>2012-10-21T09:41:57.000Z</time>
      </trkpt>
      <trkpt lat="45.50207" lon="3.36894">
        <ele>522</ele>
        <time>2012-10-21T09:41:58.000Z</time>
      </trkpt>
      <trkpt lat="45.50205" lon="3.36887">
        <ele>523</ele>
        <time>2012-10-21T09:41:59.000Z</time>
      </trkpt>
      <trkpt lat="45.50204" lon="3.36879">
        <ele>519</ele>
        <time>2012-10-21T09:42:00.000Z</time>
      </trkpt>
      <trkpt lat="45.50202" lon="3.36871">
        <ele>521</ele>
        <time>2012-10-21T09:42:01.000Z</time>
      </trkpt>
      <trkpt lat="45.50201" lon="3.36863">
        <ele>516</ele>
        <time>2012-10-21T09:42:02.000Z</time>
      </trkpt>
      <trkpt lat="45.502" lon="3.36855">
        <ele>511</ele>
        <time>2012-10-21T09:42:03.000Z</time>
      </trkpt>
      <trkpt lat="45.50199" lon="3.36846">
        <ele>510</ele>
        <time>2012-10-21T09:42:04.000Z</time>
      </trkpt>
      <trkpt lat="45.50198" lon="3.36838">
        <ele>509</ele>
        <time>2012-10-21T09:42:05.000Z</time>
      </trkpt>
      <trkpt lat="45.50196" lon="3.36829">
        <ele>510</ele>
        <time>2012-10-21T09:42:06.000Z</time>
      </trkpt>
      <trkpt lat="45.50194" lon="3.36822">
        <ele>509</ele>
        <time>2012-10-21T09:42:07.000Z</time>
      </trkpt>
      <trkpt lat="45.50192" lon="3.36813">
        <ele>507</ele>
        <time>2012-10-21T09:42:08.000Z</time>
      </trkpt>
      <trkpt lat="45.5019" lon="3.36805">
        <ele>508</ele>
        <time>2012-10-21T09:42:09.000Z</time>
      </trkpt>
      <trkpt lat="45.50188" lon="3.36797">
        <ele>505</ele>
        <time>2012-10-21T09:42:10.000Z</time>
      </trkpt>
      <trkpt lat="45.50186" lon="3.36789">
        <ele>500</ele>
        <time>2012-10-21T09:42:11.000Z</time>
      </trkpt>
      <trkpt lat="45.50184" lon="3.36781">
        <ele>495</ele>
        <time>2012-10-21T09:42:12.000Z</time>
      </trkpt>
      <trkpt lat="45.50181" lon="3.36773">
        <ele>502</ele>
        <time>2012-10-21T09:42:13.000Z</time>
      </trkpt>
      <trkpt lat="45.50178" lon="3.36764">
        <ele>502</ele>
        <time>2012-10-21T09:42:14.000Z</time>
      </trkpt>
      <trkpt lat="45.50177" lon="3.36755">
        <ele>499</ele>
        <time>2012-10-21T09:42:15.000Z</time>
      </trkpt>
      <trkpt lat="45.50174" lon="3.36744">
        <ele>499</ele>
        <time>2012-10-21T09:42:16.000Z</time>
      </trkpt>
      <trkpt lat="45.50172" lon="3.36736">
        <ele>497</ele>
        <time>2012-10-21T09:42:17.000Z</time>
      </trkpt>
      <trkpt lat="45.5017" lon="3.36728">
        <ele>496</ele>
        <time>2012-10-21T09:42:18.000Z</time>
      </trkpt>
      <trkpt lat="45.50168" lon="3.3672">
        <ele>496</ele>
        <time>2012-10-21T09:42:19.000Z</time>
      </trkpt>
      <trkpt lat="45.50166" lon="3.36712">
        <ele>496</ele>
        <time>2012-10-21T09:42:20.000Z</time>
      </trkpt>
      <trkpt lat="45.50162" lon="3.36698">
        <ele>494</ele>
        <time>2012-10-21T09:42:21.000Z</time>
      </trkpt>
      <trkpt lat="45.50159" lon="3.36687">
        <ele>494</ele>
        <time>2012-10-21T09:42:22.000Z</time>
      </trkpt>
      <trkpt lat="45.50156" lon="3.36679">
        <ele>494</ele>
        <time>2012-10-21T09:42:23.000Z</time>
      </trkpt>
      <trkpt lat="45.50152" lon="3.36669">
        <ele>491</ele>
        <time>2012-10-21T09:42:24.000Z</time>
      </trkpt>
      <trkpt lat="45.50147" lon="3.36658">
        <ele>489</ele>
        <time>2012-10-21T09:42:25.000Z</time>
      </trkpt>
      <trkpt lat="45.50143" lon="3.3665">
        <ele>487</ele>
        <time>2012-10-21T09:42:26.000Z</time>
      </trkpt>
      <trkpt lat="45.50139" lon="3.36642">
        <ele>489</ele>
        <time>2012-10-21T09:42:27.000Z</time>
      </trkpt>
      <trkpt lat="45.50136" lon="3.36635">
        <ele>489</ele>
        <time>2012-10-21T09:42:28.000Z</time>
      </trkpt>
      <trkpt lat="45.50132" lon="3.36628">
        <ele>490</ele>
        <time>2012-10-21T09:42:29.000Z</time>
      </trkpt>
      <trkpt lat="45.50128" lon="3.36621">
        <ele>492</ele>
        <time>2012-10-21T09:42:30.000Z</time>
      </trkpt>
      <trkpt lat="45.50125" lon="3.36616">
        <ele>491</ele>
        <time>2012-10-21T09:42:31.000Z</time>
      </trkpt>
      <trkpt lat="45.50122" lon="3.36609">
        <ele>491</ele>
        <time>2012-10-21T09:42:32.000Z</time>
      </trkpt>
      <trkpt lat="45.5012" lon="3.36602">
        <ele>490</ele>
        <time>2012-10-21T09:42:33.000Z</time>
      </trkpt>
      <trkpt lat="45.50117" lon="3.36594">
        <ele>489</ele>
        <time>2012-10-21T09:42:34.000Z</time>
      </trkpt>
      <trkpt lat="45.50115" lon="3.36586">
        <ele>489</ele>
        <time>2012-10-21T09:42:35.000Z</time>
      </trkpt>
      <trkpt lat="45.50113" lon="3.36578">
        <ele>487</ele>
        <time>2012-10-21T09:42:36.000Z</time>
      </trkpt>
      <trkpt lat="45.50111" lon="3.36568">
        <ele>489</ele>
        <time>2012-10-21T09:42:37.000Z</time>
      </trkpt>
      <trkpt lat="45.50108" lon="3.36558">
        <ele>490</ele>
        <time>2012-10-21T09:42:38.000Z</time>
      </trkpt>
      <trkpt lat="45.50103" lon="3.36546">
        <ele>495</ele>
        <time>2012-10-21T09:42:39.000Z</time>
      </trkpt>
      <trkpt lat="45.50096" lon="3.36532">
        <ele>495</ele>
        <time>2012-10-21T09:42:40.000Z</time>
      </trkpt>
      <trkpt lat="45.50091" lon="3.3652">
        <ele>491</ele>
        <time>2012-10-21T09:42:41.000Z</time>
      </trkpt>
      <trkpt lat="45.50086" lon="3.3651">
        <ele>493</ele>
        <time>2012-10-21T09:42:42.000Z</time>
      </trkpt>
      <trkpt lat="45.50082" lon="3.365">
        <ele>495</ele>
        <time>2012-10-21T09:42:43.000Z</time>
      </trkpt>
      <trkpt lat="45.50079" lon="3.36489">
        <ele>498</ele>
        <time>2012-10-21T09:42:44.000Z</time>
      </trkpt>
      <trkpt lat="45.50076" lon="3.3648">
        <ele>501</ele>
        <time>2012-10-21T09:42:45.000Z</time>
      </trkpt>
      <trkpt lat="45.50072" lon="3.36461">
        <ele>502</ele>
        <time>2012-10-21T09:42:47.000Z</time>
      </trkpt>
      <trkpt lat="45.5007" lon="3.36452">
        <ele>503</ele>
        <time>2012-10-21T09:42:48.000Z</time>
      </trkpt>
      <trkpt lat="45.50068" lon="3.36444">
        <ele>504</ele>
        <time>2012-10-21T09:42:49.000Z</time>
      </trkpt>
      <trkpt lat="45.50065" lon="3.36435">
        <ele>502</ele>
        <time>2012-10-21T09:42:50.000Z</time>
      </trkpt>
      <trkpt lat="45.50064" lon="3.36427">
        <ele>494</ele>
        <time>2012-10-21T09:42:51.000Z</time>
      </trkpt>
      <trkpt lat="45.50065" lon="3.36417">
        <ele>493</ele>
        <time>2012-10-21T09:42:52.000Z</time>
      </trkpt>
      <trkpt lat="45.50065" lon="3.36406">
        <ele>496</ele>
        <time>2012-10-21T09:42:53.000Z</time>
      </trkpt>
      <trkpt lat="45.50064" lon="3.36394">
        <ele>492</ele>
        <time>2012-10-21T09:42:54.000Z</time>
      </trkpt>
      <trkpt lat="45.50063" lon="3.36382">
        <ele>488</ele>
        <time>2012-10-21T09:42:55.000Z</time>
      </trkpt>
      <trkpt lat="45.50061" lon="3.36374">
        <ele>488</ele>
        <time>2012-10-21T09:42:56.000Z</time>
      </trkpt>
      <trkpt lat="45.50057" lon="3.36366">
        <ele>487</ele>
        <time>2012-10-21T09:42:57.000Z</time>
      </trkpt>
      <trkpt lat="45.50051" lon="3.36357">
        <ele>485</ele>
        <time>2012-10-21T09:42:58.000Z</time>
      </trkpt>
      <trkpt lat="45.50047" lon="3.36352">
        <ele>489</ele>
        <time>2012-10-21T09:42:59.000Z</time>
      </trkpt>
      <trkpt lat="45.50052" lon="3.36354">
        <ele>483</ele>
        <time>2012-10-21T09:43:05.000Z</time>
      </trkpt>
      <trkpt lat="45.50056" lon="3.36355">
        <ele>485</ele>
        <time>2012-10-21T09:43:06.000Z</time>
      </trkpt>
      <trkpt lat="45.5006" lon="3.36357">
        <ele>488</ele>
        <time>2012-10-21T09:43:07.000Z</time>
      </trkpt>
      <trkpt lat="45.50064" lon="3.36359">
        <ele>492</ele>
        <time>2012-10-21T09:43:08.000Z</time>
      </trkpt>
      <trkpt lat="45.50068" lon="3.36361">
        <ele>489</ele>
        <time>2012-10-21T09:43:09.000Z</time>
      </trkpt>
      <trkpt lat="45.50071" lon="3.36361">
        <ele>488</ele>
        <time>2012-10-21T09:43:10.000Z</time>
      </trkpt>
      <trkpt lat="45.50073" lon="3.36362">
        <ele>485</ele>
        <time>2012-10-21T09:43:11.000Z</time>
      </trkpt>
      <trkpt lat="45.50076" lon="3.36363">
        <ele>484</ele>
        <time>2012-10-21T09:43:12.000Z</time>
      </trkpt>
      <trkpt lat="45.50078" lon="3.36364">
        <ele>486</ele>
        <time>2012-10-21T09:43:13.000Z</time>
      </trkpt>
      <trkpt lat="45.50081" lon="3.36367">
        <ele>483</ele>
        <time>2012-10-21T09:43:16.000Z</time>
      </trkpt>
      <trkpt lat="45.50083" lon="3.36369">
        <ele>488</ele>
        <time>2012-10-21T09:43:17.000Z</time>
      </trkpt>
      <trkpt lat="45.50084" lon="3.36365">
        <ele>479</ele>
        <time>2012-10-21T09:43:27.000Z</time>
      </trkpt>
      <trkpt lat="45.50085" lon="3.36363">
        <ele>479</ele>
        <time>2012-10-21T09:43:28.000Z</time>
      </trkpt>
      <trkpt lat="45.50088" lon="3.36361">
        <ele>483</ele>
        <time>2012-10-21T09:43:35.000Z</time>
      </trkpt>
      <trkpt lat="45.5009" lon="3.36358">
        <ele>484</ele>
        <time>2012-10-21T09:43:36.000Z</time>
      </trkpt>
      <trkpt lat="45.50091" lon="3.36355">
        <ele>485</ele>
        <time>2012-10-21T09:43:37.000Z</time>
      </trkpt>
      <trkpt lat="45.50093" lon="3.36352">
        <ele>483</ele>
        <time>2012-10-21T09:43:38.000Z</time>
      </trkpt>
      <trkpt lat="45.50094" lon="3.36349">
        <ele>484</ele>
        <time>2012-10-21T09:43:39.000Z</time>
      </trkpt>
      <trkpt lat="45.50096" lon="3.36345">
        <ele>482</ele>
        <time>2012-10-21T09:43:40.000Z</time>
      </trkpt>
      <trkpt lat="45.50098" lon="3.36342">
        <ele>487</ele>
        <time>2012-10-21T09:43:41.000Z</time>
      </trkpt>
      <trkpt lat="45.501" lon="3.36339">
        <ele>487</ele>
        <time>2012-10-21T09:43:42.000Z</time>
      </trkpt>
      <trkpt lat="45.50102" lon="3.36336">
        <ele>489</ele>
        <time>2012-10-21T09:43:43.000Z</time>
      </trkpt>
      <trkpt lat="45.50104" lon="3.36333">
        <ele>489</ele>
        <time>2012-10-21T09:43:44.000Z</time>
      </trkpt>
      <trkpt lat="45.50106" lon="3.3633">
        <ele>485</ele>
        <time>2012-10-21T09:43:45.000Z</time>
      </trkpt>
      <trkpt lat="45.50111" lon="3.36324">
        <ele>487</ele>
        <time>2012-10-21T09:43:47.000Z</time>
      </trkpt>
      <trkpt lat="45.50113" lon="3.36321">
        <ele>488</ele>
        <time>2012-10-21T09:43:48.000Z</time>
      </trkpt>
      <trkpt lat="45.50115" lon="3.36318">
        <ele>490</ele>
        <time>2012-10-21T09:43:49.000Z</time>
      </trkpt>
      <trkpt lat="45.50116" lon="3.36315">
        <ele>491</ele>
        <time>2012-10-21T09:43:50.000Z</time>
      </trkpt>
      <trkpt lat="45.50119" lon="3.3631">
        <ele>494</ele>
        <time>2012-10-21T09:43:51.000Z</time>
      </trkpt>
      <trkpt lat="45.5012" lon="3.36303">
        <ele>497</ele>
        <time>2012-10-21T09:43:52.000Z</time>
      </trkpt>
      <trkpt lat="45.5012" lon="3.36296">
        <ele>499</ele>
        <time>2012-10-21T09:43:53.000Z</time>
      </trkpt>
      <trkpt lat="45.5012" lon="3.36288">
        <ele>498</ele>
        <time>2012-10-21T09:43:54.000Z</time>
      </trkpt>
      <trkpt lat="45.5012" lon="3.36281">
        <ele>501</ele>
        <time>2012-10-21T09:43:55.000Z</time>
      </trkpt>
      <trkpt lat="45.50121" lon="3.36274">
        <ele>502</ele>
        <time>2012-10-21T09:43:56.000Z</time>
      </trkpt>
      <trkpt lat="45.50122" lon="3.36268">
        <ele>501</ele>
        <time>2012-10-21T09:43:57.000Z</time>
      </trkpt>
      <trkpt lat="45.50123" lon="3.36262">
        <ele>500</ele>
        <time>2012-10-21T09:43:58.000Z</time>
      </trkpt>
      <trkpt lat="45.50126" lon="3.36252">
        <ele>501</ele>
        <time>2012-10-21T09:43:59.000Z</time>
      </trkpt>
      <trkpt lat="45.50128" lon="3.36243">
        <ele>500</ele>
        <time>2012-10-21T09:44:00.000Z</time>
      </trkpt>
      <trkpt lat="45.5013" lon="3.36234">
        <ele>498</ele>
        <time>2012-10-21T09:44:01.000Z</time>
      </trkpt>
      <trkpt lat="45.50131" lon="3.36225">
        <ele>497</ele>
        <time>2012-10-21T09:44:02.000Z</time>
      </trkpt>
      <trkpt lat="45.50132" lon="3.36215">
        <ele>500</ele>
        <time>2012-10-21T09:44:03.000Z</time>
      </trkpt>
      <trkpt lat="45.50132" lon="3.36205">
        <ele>497</ele>
        <time>2012-10-21T09:44:04.000Z</time>
      </trkpt>
      <trkpt lat="45.50133" lon="3.36195">
        <ele>500</ele>
        <time>2012-10-21T09:44:05.000Z</time>
      </trkpt>
      <trkpt lat="45.50134" lon="3.36187">
        <ele>492</ele>
        <time>2012-10-21T09:44:06.000Z</time>
      </trkpt>
      <trkpt lat="45.50136" lon="3.36179">
        <ele>489</ele>
        <time>2012-10-21T09:44:07.000Z</time>
      </trkpt>
      <trkpt lat="45.50137" lon="3.36173">
        <ele>485</ele>
        <time>2012-10-21T09:44:08.000Z</time>
      </trkpt>
      <trkpt lat="45.50138" lon="3.36168">
        <ele>490</ele>
        <time>2012-10-21T09:44:09.000Z</time>
      </trkpt>
      <trkpt lat="45.50139" lon="3.36163">
        <ele>492</ele>
        <time>2012-10-21T09:44:10.000Z</time>
      </trkpt>
      <trkpt lat="45.5014" lon="3.36158">
        <ele>489</ele>
        <time>2012-10-21T09:44:11.000Z</time>
      </trkpt>
      <trkpt lat="45.50141" lon="3.36151">
        <ele>487</ele>
        <time>2012-10-21T09:44:12.000Z</time>
      </trkpt>
      <trkpt lat="45.50142" lon="3.36145">
        <ele>487</ele>
        <time>2012-10-21T09:44:13.000Z</time>
      </trkpt>
      <trkpt lat="45.50144" lon="3.3614">
        <ele>492</ele>
        <time>2012-10-21T09:44:14.000Z</time>
      </trkpt>
      <trkpt lat="45.50145" lon="3.36134">
        <ele>495</ele>
        <time>2012-10-21T09:44:15.000Z</time>
      </trkpt>
      <trkpt lat="45.50147" lon="3.36127">
        <ele>493</ele>
        <time>2012-10-21T09:44:16.000Z</time>
      </trkpt>
      <trkpt lat="45.50148" lon="3.3612">
        <ele>491</ele>
        <time>2012-10-21T09:44:17.000Z</time>
      </trkpt>
      <trkpt lat="45.5015" lon="3.36114">
        <ele>492</ele>
        <time>2012-10-21T09:44:18.000Z</time>
      </trkpt>
      <trkpt lat="45.50152" lon="3.36108">
        <ele>488</ele>
        <time>2012-10-21T09:44:19.000Z</time>
      </trkpt>
      <trkpt lat="45.50153" lon="3.36101">
        <ele>489</ele>
        <time>2012-10-21T09:44:20.000Z</time>
      </trkpt>
      <trkpt lat="45.50154" lon="3.36095">
        <ele>485</ele>
        <time>2012-10-21T09:44:21.000Z</time>
      </trkpt>
      <trkpt lat="45.50156" lon="3.36088">
        <ele>489</ele>
        <time>2012-10-21T09:44:22.000Z</time>
      </trkpt>
      <trkpt lat="45.50157" lon="3.36082">
        <ele>490</ele>
        <time>2012-10-21T09:44:23.000Z</time>
      </trkpt>
      <trkpt lat="45.50158" lon="3.36075">
        <ele>492</ele>
        <time>2012-10-21T09:44:24.000Z</time>
      </trkpt>
      <trkpt lat="45.50159" lon="3.36069">
        <ele>490</ele>
        <time>2012-10-21T09:44:25.000Z</time>
      </trkpt>
      <trkpt lat="45.50159" lon="3.36062">
        <ele>487</ele>
        <time>2012-10-21T09:44:26.000Z</time>
      </trkpt>
      <trkpt lat="45.5016" lon="3.36057">
        <ele>484</ele>
        <time>2012-10-21T09:44:27.000Z</time>
      </trkpt>
      <trkpt lat="45.50161" lon="3.36051">
        <ele>483</ele>
        <time>2012-10-21T09:44:28.000Z</time>
      </trkpt>
      <trkpt lat="45.50163" lon="3.36045">
        <ele>481</ele>
        <time>2012-10-21T09:44:29.000Z</time>
      </trkpt>
      <trkpt lat="45.50164" lon="3.36039">
        <ele>477</ele>
        <time>2012-10-21T09:44:30.000Z</time>
      </trkpt>
      <trkpt lat="45.50166" lon="3.36033">
        <ele>484</ele>
        <time>2012-10-21T09:44:31.000Z</time>
      </trkpt>
      <trkpt lat="45.50167" lon="3.36026">
        <ele>488</ele>
        <time>2012-10-21T09:44:32.000Z</time>
      </trkpt>
      <trkpt lat="45.50168" lon="3.36017">
        <ele>493</ele>
        <time>2012-10-21T09:44:33.000Z</time>
      </trkpt>
      <trkpt lat="45.50169" lon="3.36008">
        <ele>495</ele>
        <time>2012-10-21T09:44:34.000Z</time>
      </trkpt>
      <trkpt lat="45.50171" lon="3.36">
        <ele>490</ele>
        <time>2012-10-21T09:44:35.000Z</time>
      </trkpt>
      <trkpt lat="45.50174" lon="3.35992">
        <ele>492</ele>
        <time>2012-10-21T09:44:36.000Z</time>
      </trkpt>
      <trkpt lat="45.50177" lon="3.35985">
        <ele>492</ele>
        <time>2012-10-21T09:44:37.000Z</time>
      </trkpt>
      <trkpt lat="45.5018" lon="3.35978">
        <ele>491</ele>
        <time>2012-10-21T09:44:38.000Z</time>
      </trkpt>
      <trkpt lat="45.50183" lon="3.35971">
        <ele>489</ele>
        <time>2012-10-21T09:44:39.000Z</time>
      </trkpt>
      <trkpt lat="45.50186" lon="3.35967">
        <ele>493</ele>
        <time>2012-10-21T09:44:40.000Z</time>
      </trkpt>
      <trkpt lat="45.50189" lon="3.35961">
        <ele>495</ele>
        <time>2012-10-21T09:44:41.000Z</time>
      </trkpt>
      <trkpt lat="45.50192" lon="3.35956">
        <ele>492</ele>
        <time>2012-10-21T09:44:42.000Z</time>
      </trkpt>
      <trkpt lat="45.50194" lon="3.35951">
        <ele>493</ele>
        <time>2012-10-21T09:44:43.000Z</time>
      </trkpt>
      <trkpt lat="45.50196" lon="3.35946">
        <ele>494</ele>
        <time>2012-10-21T09:44:44.000Z</time>
      </trkpt>
      <trkpt lat="45.50199" lon="3.35938">
        <ele>494</ele>
        <time>2012-10-21T09:44:45.000Z</time>
      </trkpt>
      <trkpt lat="45.50204" lon="3.35922">
        <ele>497</ele>
        <time>2012-10-21T09:44:47.000Z</time>
      </trkpt>
      <trkpt lat="45.50206" lon="3.35914">
        <ele>499</ele>
        <time>2012-10-21T09:44:48.000Z</time>
      </trkpt>
      <trkpt lat="45.50208" lon="3.35905">
        <ele>498</ele>
        <time>2012-10-21T09:44:49.000Z</time>
      </trkpt>
      <trkpt lat="45.5021" lon="3.35896">
        <ele>497</ele>
        <time>2012-10-21T09:44:50.000Z</time>
      </trkpt>
      <trkpt lat="45.50212" lon="3.35887">
        <ele>498</ele>
        <time>2012-10-21T09:44:51.000Z</time>
      </trkpt>
      <trkpt lat="45.50213" lon="3.35876">
        <ele>499</ele>
        <time>2012-10-21T09:44:52.000Z</time>
      </trkpt>
      <trkpt lat="45.50214" lon="3.35864">
        <ele>500</ele>
        <time>2012-10-21T09:44:53.000Z</time>
      </trkpt>
      <trkpt lat="45.50216" lon="3.35852">
        <ele>496</ele>
        <time>2012-10-21T09:44:54.000Z</time>
      </trkpt>
      <trkpt lat="45.50215" lon="3.35841">
        <ele>499</ele>
        <time>2012-10-21T09:44:55.000Z</time>
      </trkpt>
      <trkpt lat="45.50215" lon="3.3583">
        <ele>501</ele>
        <time>2012-10-21T09:44:56.000Z</time>
      </trkpt>
      <trkpt lat="45.50216" lon="3.35819">
        <ele>508</ele>
        <time>2012-10-21T09:44:57.000Z</time>
      </trkpt>
      <trkpt lat="45.50216" lon="3.35807">
        <ele>507</ele>
        <time>2012-10-21T09:44:58.000Z</time>
      </trkpt>
      <trkpt lat="45.50215" lon="3.35792">
        <ele>500</ele>
        <time>2012-10-21T09:44:59.000Z</time>
      </trkpt>
      <trkpt lat="45.50216" lon="3.35775">
        <ele>498</ele>
        <time>2012-10-21T09:45:00.000Z</time>
      </trkpt>
      <trkpt lat="45.50216" lon="3.35762">
        <ele>493</ele>
        <time>2012-10-21T09:45:01.000Z</time>
      </trkpt>
      <trkpt lat="45.50216" lon="3.35749">
        <ele>491</ele>
        <time>2012-10-21T09:45:02.000Z</time>
      </trkpt>
      <trkpt lat="45.50215" lon="3.35736">
        <ele>492</ele>
        <time>2012-10-21T09:45:03.000Z</time>
      </trkpt>
      <trkpt lat="45.50213" lon="3.35723">
        <ele>492</ele>
        <time>2012-10-21T09:45:04.000Z</time>
      </trkpt>
      <trkpt lat="45.50212" lon="3.35712">
        <ele>490</ele>
        <time>2012-10-21T09:45:05.000Z</time>
      </trkpt>
      <trkpt lat="45.5021" lon="3.35701">
        <ele>488</ele>
        <time>2012-10-21T09:45:06.000Z</time>
      </trkpt>
      <trkpt lat="45.50207" lon="3.35691">
        <ele>482</ele>
        <time>2012-10-21T09:45:07.000Z</time>
      </trkpt>
      <trkpt lat="45.50206" lon="3.35681">
        <ele>480</ele>
        <time>2012-10-21T09:45:08.000Z</time>
      </trkpt>
      <trkpt lat="45.50204" lon="3.35673">
        <ele>483</ele>
        <time>2012-10-21T09:45:09.000Z</time>
      </trkpt>
      <trkpt lat="45.50201" lon="3.35664">
        <ele>486</ele>
        <time>2012-10-21T09:45:10.000Z</time>
      </trkpt>
      <trkpt lat="45.502" lon="3.35656">
        <ele>479</ele>
        <time>2012-10-21T09:45:11.000Z</time>
      </trkpt>
      <trkpt lat="45.50198" lon="3.35648">
        <ele>477</ele>
        <time>2012-10-21T09:45:12.000Z</time>
      </trkpt>
      <trkpt lat="45.50197" lon="3.3564">
        <ele>485</ele>
        <time>2012-10-21T09:45:13.000Z</time>
      </trkpt>
      <trkpt lat="45.50197" lon="3.35633">
        <ele>482</ele>
        <time>2012-10-21T09:45:14.000Z</time>
      </trkpt>
      <trkpt lat="45.50197" lon="3.35626">
        <ele>480</ele>
        <time>2012-10-21T09:45:15.000Z</time>
      </trkpt>
      <trkpt lat="45.50197" lon="3.35621">
        <ele>481</ele>
        <time>2012-10-21T09:45:16.000Z</time>
      </trkpt>
      <trkpt lat="45.50197" lon="3.35614">
        <ele>481</ele>
        <time>2012-10-21T09:45:17.000Z</time>
      </trkpt>
      <trkpt lat="45.50197" lon="3.35609">
        <ele>486</ele>
        <time>2012-10-21T09:45:18.000Z</time>
      </trkpt>
      <trkpt lat="45.50196" lon="3.35603">
        <ele>485</ele>
        <time>2012-10-21T09:45:19.000Z</time>
      </trkpt>
      <trkpt lat="45.50195" lon="3.35597">
        <ele>488</ele>
        <time>2012-10-21T09:45:20.000Z</time>
      </trkpt>
      <trkpt lat="45.50195" lon="3.35592">
        <ele>488</ele>
        <time>2012-10-21T09:45:21.000Z</time>
      </trkpt>
      <trkpt lat="45.50194" lon="3.35586">
        <ele>487</ele>
        <time>2012-10-21T09:45:22.000Z</time>
      </trkpt>
      <trkpt lat="45.50195" lon="3.3558">
        <ele>484</ele>
        <time>2012-10-21T09:45:23.000Z</time>
      </trkpt>
      <trkpt lat="45.50195" lon="3.35573">
        <ele>483</ele>
        <time>2012-10-21T09:45:24.000Z</time>
      </trkpt>
      <trkpt lat="45.50195" lon="3.35568">
        <ele>484</ele>
        <time>2012-10-21T09:45:25.000Z</time>
      </trkpt>
      <trkpt lat="45.50197" lon="3.35562">
        <ele>484</ele>
        <time>2012-10-21T09:45:26.000Z</time>
      </trkpt>
      <trkpt lat="45.502" lon="3.35556">
        <ele>486</ele>
        <time>2012-10-21T09:45:27.000Z</time>
      </trkpt>
      <trkpt lat="45.50204" lon="3.3555">
        <ele>483</ele>
        <time>2012-10-21T09:45:28.000Z</time>
      </trkpt>
      <trkpt lat="45.50208" lon="3.35544">
        <ele>482</ele>
        <time>2012-10-21T09:45:29.000Z</time>
      </trkpt>
      <trkpt lat="45.50211" lon="3.35537">
        <ele>478</ele>
        <time>2012-10-21T09:45:30.000Z</time>
      </trkpt>
      <trkpt lat="45.50214" lon="3.3553">
        <ele>477</ele>
        <time>2012-10-21T09:45:31.000Z</time>
      </trkpt>
      <trkpt lat="45.50218" lon="3.35524">
        <ele>477</ele>
        <time>2012-10-21T09:45:32.000Z</time>
      </trkpt>
      <trkpt lat="45.50222" lon="3.35517">
        <ele>478</ele>
        <time>2012-10-21T09:45:33.000Z</time>
      </trkpt>
      <trkpt lat="45.50227" lon="3.35508">
        <ele>477</ele>
        <time>2012-10-21T09:45:34.000Z</time>
      </trkpt>
      <trkpt lat="45.50231" lon="3.35501">
        <ele>477</ele>
        <time>2012-10-21T09:45:35.000Z</time>
      </trkpt>
      <trkpt lat="45.50235" lon="3.35494">
        <ele>477</ele>
        <time>2012-10-21T09:45:36.000Z</time>
      </trkpt>
      <trkpt lat="45.50239" lon="3.35487">
        <ele>476</ele>
        <time>2012-10-21T09:45:37.000Z</time>
      </trkpt>
      <trkpt lat="45.50243" lon="3.3548">
        <ele>476</ele>
        <time>2012-10-21T09:45:38.000Z</time>
      </trkpt>
      <trkpt lat="45.50247" lon="3.35473">
        <ele>476</ele>
        <time>2012-10-21T09:45:39.000Z</time>
      </trkpt>
      <trkpt lat="45.50251" lon="3.35466">
        <ele>476</ele>
        <time>2012-10-21T09:45:40.000Z</time>
      </trkpt>
      <trkpt lat="45.50255" lon="3.35459">
        <ele>475</ele>
        <time>2012-10-21T09:45:41.000Z</time>
      </trkpt>
      <trkpt lat="45.50259" lon="3.35452">
        <ele>475</ele>
        <time>2012-10-21T09:45:42.000Z</time>
      </trkpt>
      <trkpt lat="45.50262" lon="3.35446">
        <ele>474</ele>
        <time>2012-10-21T09:45:43.000Z</time>
      </trkpt>
      <trkpt lat="45.50266" lon="3.3544">
        <ele>474</ele>
        <time>2012-10-21T09:45:44.000Z</time>
      </trkpt>
      <trkpt lat="45.50269" lon="3.35433">
        <ele>474</ele>
        <time>2012-10-21T09:45:45.000Z</time>
      </trkpt>
      <trkpt lat="45.50276" lon="3.3542">
        <ele>474</ele>
        <time>2012-10-21T09:45:47.000Z</time>
      </trkpt>
      <trkpt lat="45.5028" lon="3.35412">
        <ele>473</ele>
        <time>2012-10-21T09:45:48.000Z</time>
      </trkpt>
      <trkpt lat="45.50285" lon="3.35407">
        <ele>472</ele>
        <time>2012-10-21T09:45:49.000Z</time>
      </trkpt>
      <trkpt lat="45.5029" lon="3.35401">
        <ele>472</ele>
        <time>2012-10-21T09:45:50.000Z</time>
      </trkpt>
      <trkpt lat="45.50295" lon="3.35397">
        <ele>471</ele>
        <time>2012-10-21T09:45:51.000Z</time>
      </trkpt>
      <trkpt lat="45.503" lon="3.35393">
        <ele>471</ele>
        <time>2012-10-21T09:45:52.000Z</time>
      </trkpt>
      <trkpt lat="45.50305" lon="3.35389">
        <ele>471</ele>
        <time>2012-10-21T09:45:53.000Z</time>
      </trkpt>
      <trkpt lat="45.50311" lon="3.35384">
        <ele>471</ele>
        <time>2012-10-21T09:45:54.000Z</time>
      </trkpt>
      <trkpt lat="45.50317" lon="3.35379">
        <ele>471</ele>
        <time>2012-10-21T09:45:55.000Z</time>
      </trkpt>
      <trkpt lat="45.50323" lon="3.35374">
        <ele>471</ele>
        <time>2012-10-21T09:45:56.000Z</time>
      </trkpt>
      <trkpt lat="45.50329" lon="3.3537">
        <ele>471</ele>
        <time>2012-10-21T09:45:57.000Z</time>
      </trkpt>
      <trkpt lat="45.50335" lon="3.35366">
        <ele>471</ele>
        <time>2012-10-21T09:45:58.000Z</time>
      </trkpt>
      <trkpt lat="45.50341" lon="3.35362">
        <ele>471</ele>
        <time>2012-10-21T09:45:59.000Z</time>
      </trkpt>
      <trkpt lat="45.50347" lon="3.35358">
        <ele>471</ele>
        <time>2012-10-21T09:46:00.000Z</time>
      </trkpt>
      <trkpt lat="45.50352" lon="3.35354">
        <ele>471</ele>
        <time>2012-10-21T09:46:01.000Z</time>
      </trkpt>
      <trkpt lat="45.50358" lon="3.3535">
        <ele>471</ele>
        <time>2012-10-21T09:46:02.000Z</time>
      </trkpt>
      <trkpt lat="45.50364" lon="3.35345">
        <ele>471</ele>
        <time>2012-10-21T09:46:03.000Z</time>
      </trkpt>
      <trkpt lat="45.50371" lon="3.35342">
        <ele>471</ele>
        <time>2012-10-21T09:46:04.000Z</time>
      </trkpt>
      <trkpt lat="45.50377" lon="3.35339">
        <ele>471</ele>
        <time>2012-10-21T09:46:05.000Z</time>
      </trkpt>
      <trkpt lat="45.50384" lon="3.35335">
        <ele>471</ele>
        <time>2012-10-21T09:46:06.000Z</time>
      </trkpt>
      <trkpt lat="45.50391" lon="3.35332">
        <ele>471</ele>
        <time>2012-10-21T09:46:07.000Z</time>
      </trkpt>
      <trkpt lat="45.50398" lon="3.35328">
        <ele>471</ele>
        <time>2012-10-21T09:46:08.000Z</time>
      </trkpt>
      <trkpt lat="45.50405" lon="3.35325">
        <ele>471</ele>
        <time>2012-10-21T09:46:09.000Z</time>
      </trkpt>
      <trkpt lat="45.50411" lon="3.35322">
        <ele>471</ele>
        <time>2012-10-21T09:46:10.000Z</time>
      </trkpt>
      <trkpt lat="45.50418" lon="3.35319">
        <ele>470</ele>
        <time>2012-10-21T09:46:11.000Z</time>
      </trkpt>
      <trkpt lat="45.50425" lon="3.35316">
        <ele>471</ele>
        <time>2012-10-21T09:46:12.000Z</time>
      </trkpt>
      <trkpt lat="45.50432" lon="3.35313">
        <ele>470</ele>
        <time>2012-10-21T09:46:13.000Z</time>
      </trkpt>
      <trkpt lat="45.50438" lon="3.35307">
        <ele>469</ele>
        <time>2012-10-21T09:46:14.000Z</time>
      </trkpt>
      <trkpt lat="45.50445" lon="3.35301">
        <ele>468</ele>
        <time>2012-10-21T09:46:15.000Z</time>
      </trkpt>
      <trkpt lat="45.50452" lon="3.35296">
        <ele>467</ele>
        <time>2012-10-21T09:46:16.000Z</time>
      </trkpt>
      <trkpt lat="45.50459" lon="3.35292">
        <ele>469</ele>
        <time>2012-10-21T09:46:17.000Z</time>
      </trkpt>
      <trkpt lat="45.50466" lon="3.35287">
        <ele>467</ele>
        <time>2012-10-21T09:46:18.000Z</time>
      </trkpt>
      <trkpt lat="45.50474" lon="3.35282">
        <ele>469</ele>
        <time>2012-10-21T09:46:19.000Z</time>
      </trkpt>
      <trkpt lat="45.50482" lon="3.35278">
        <ele>467</ele>
        <time>2012-10-21T09:46:20.000Z</time>
      </trkpt>
      <trkpt lat="45.50489" lon="3.35273">
        <ele>466</ele>
        <time>2012-10-21T09:46:21.000Z</time>
      </trkpt>
      <trkpt lat="45.50496" lon="3.35268">
        <ele>466</ele>
        <time>2012-10-21T09:46:22.000Z</time>
      </trkpt>
      <trkpt lat="45.50504" lon="3.35263">
        <ele>466</ele>
        <time>2012-10-21T09:46:23.000Z</time>
      </trkpt>
      <trkpt lat="45.50511" lon="3.35259">
        <ele>465</ele>
        <time>2012-10-21T09:46:24.000Z</time>
      </trkpt>
      <trkpt lat="45.50518" lon="3.35254">
        <ele>465</ele>
        <time>2012-10-21T09:46:25.000Z</time>
      </trkpt>
      <trkpt lat="45.50526" lon="3.3525">
        <ele>464</ele>
        <time>2012-10-21T09:46:26.000Z</time>
      </trkpt>
      <trkpt lat="45.50534" lon="3.35246">
        <ele>464</ele>
        <time>2012-10-21T09:46:27.000Z</time>
      </trkpt>
      <trkpt lat="45.50541" lon="3.35241">
        <ele>463</ele>
        <time>2012-10-21T09:46:28.000Z</time>
      </trkpt>
      <trkpt lat="45.50548" lon="3.35237">
        <ele>463</ele>
        <time>2012-10-21T09:46:29.000Z</time>
      </trkpt>
      <trkpt lat="45.50555" lon="3.35231">
        <ele>464</ele>
        <time>2012-10-21T09:46:30.000Z</time>
      </trkpt>
      <trkpt lat="45.50562" lon="3.35225">
        <ele>463</ele>
        <time>2012-10-21T09:46:31.000Z</time>
      </trkpt>
      <trkpt lat="45.50569" lon="3.35219">
        <ele>463</ele>
        <time>2012-10-21T09:46:32.000Z</time>
      </trkpt>
      <trkpt lat="45.50576" lon="3.35214">
        <ele>463</ele>
        <time>2012-10-21T09:46:33.000Z</time>
      </trkpt>
      <trkpt lat="45.50583" lon="3.35209">
        <ele>462</ele>
        <time>2012-10-21T09:46:34.000Z</time>
      </trkpt>
      <trkpt lat="45.5059" lon="3.35204">
        <ele>462</ele>
        <time>2012-10-21T09:46:35.000Z</time>
      </trkpt>
      <trkpt lat="45.50597" lon="3.35199">
        <ele>462</ele>
        <time>2012-10-21T09:46:36.000Z</time>
      </trkpt>
      <trkpt lat="45.50604" lon="3.35195">
        <ele>462</ele>
        <time>2012-10-21T09:46:37.000Z</time>
      </trkpt>
      <trkpt lat="45.5061" lon="3.35191">
        <ele>462</ele>
        <time>2012-10-21T09:46:38.000Z</time>
      </trkpt>
      <trkpt lat="45.50617" lon="3.35186">
        <ele>463</ele>
        <time>2012-10-21T09:46:39.000Z</time>
      </trkpt>
      <trkpt lat="45.50623" lon="3.35182">
        <ele>463</ele>
        <time>2012-10-21T09:46:40.000Z</time>
      </trkpt>
      <trkpt lat="45.50629" lon="3.35177">
        <ele>463</ele>
        <time>2012-10-21T09:46:41.000Z</time>
      </trkpt>
      <trkpt lat="45.50635" lon="3.35172">
        <ele>462</ele>
        <time>2012-10-21T09:46:42.000Z</time>
      </trkpt>
      <trkpt lat="45.50642" lon="3.35167">
        <ele>462</ele>
        <time>2012-10-21T09:46:43.000Z</time>
      </trkpt>
      <trkpt lat="45.50648" lon="3.35161">
        <ele>462</ele>
        <time>2012-10-21T09:46:44.000Z</time>
      </trkpt>
      <trkpt lat="45.50654" lon="3.35155">
        <ele>462</ele>
        <time>2012-10-21T09:46:45.000Z</time>
      </trkpt>
      <trkpt lat="45.50666" lon="3.35142">
        <ele>462</ele>
        <time>2012-10-21T09:46:47.000Z</time>
      </trkpt>
      <trkpt lat="45.50672" lon="3.35134">
        <ele>462</ele>
        <time>2012-10-21T09:46:48.000Z</time>
      </trkpt>
      <trkpt lat="45.50678" lon="3.35126">
        <ele>462</ele>
        <time>2012-10-21T09:46:49.000Z</time>
      </trkpt>
      <trkpt lat="45.50685" lon="3.35118">
        <ele>462</ele>
        <time>2012-10-21T09:46:50.000Z</time>
      </trkpt>
      <trkpt lat="45.50691" lon="3.35111">
        <ele>461</ele>
        <time>2012-10-21T09:46:51.000Z</time>
      </trkpt>
      <trkpt lat="45.50697" lon="3.35104">
        <ele>461</ele>
        <time>2012-10-21T09:46:52.000Z</time>
      </trkpt>
      <trkpt lat="45.50704" lon="3.35096">
        <ele>461</ele>
        <time>2012-10-21T09:46:53.000Z</time>
      </trkpt>
      <trkpt lat="45.5071" lon="3.35089">
        <ele>461</ele>
        <time>2012-10-21T09:46:54.000Z</time>
      </trkpt>
      <trkpt lat="45.50716" lon="3.35082">
        <ele>460</ele>
        <time>2012-10-21T09:46:55.000Z</time>
      </trkpt>
      <trkpt lat="45.50723" lon="3.35075">
        <ele>460</ele>
        <time>2012-10-21T09:46:56.000Z</time>
      </trkpt>
      <trkpt lat="45.50729" lon="3.35067">
        <ele>460</ele>
        <time>2012-10-21T09:46:57.000Z</time>
      </trkpt>
      <trkpt lat="45.50736" lon="3.3506">
        <ele>460</ele>
        <time>2012-10-21T09:46:58.000Z</time>
      </trkpt>
      <trkpt lat="45.50743" lon="3.35053">
        <ele>460</ele>
        <time>2012-10-21T09:46:59.000Z</time>
      </trkpt>
      <trkpt lat="45.5075" lon="3.35046">
        <ele>460</ele>
        <time>2012-10-21T09:47:00.000Z</time>
      </trkpt>
      <trkpt lat="45.50756" lon="3.3504">
        <ele>461</ele>
        <time>2012-10-21T09:47:01.000Z</time>
      </trkpt>
      <trkpt lat="45.50762" lon="3.35033">
        <ele>461</ele>
        <time>2012-10-21T09:47:02.000Z</time>
      </trkpt>
      <trkpt lat="45.50768" lon="3.35028">
        <ele>461</ele>
        <time>2012-10-21T09:47:03.000Z</time>
      </trkpt>
      <trkpt lat="45.50773" lon="3.35022">
        <ele>461</ele>
        <time>2012-10-21T09:47:04.000Z</time>
      </trkpt>
      <trkpt lat="45.50778" lon="3.35017">
        <ele>461</ele>
        <time>2012-10-21T09:47:05.000Z</time>
      </trkpt>
      <trkpt lat="45.50783" lon="3.35013">
        <ele>461</ele>
        <time>2012-10-21T09:47:06.000Z</time>
      </trkpt>
      <trkpt lat="45.50787" lon="3.35008">
        <ele>461</ele>
        <time>2012-10-21T09:47:07.000Z</time>
      </trkpt>
      <trkpt lat="45.50792" lon="3.35003">
        <ele>460</ele>
        <time>2012-10-21T09:47:08.000Z</time>
      </trkpt>
      <trkpt lat="45.50797" lon="3.34998">
        <ele>460</ele>
        <time>2012-10-21T09:47:09.000Z</time>
      </trkpt>
      <trkpt lat="45.50802" lon="3.34994">
        <ele>462</ele>
        <time>2012-10-21T09:47:10.000Z</time>
      </trkpt>
      <trkpt lat="45.50806" lon="3.34989">
        <ele>461</ele>
        <time>2012-10-21T09:47:11.000Z</time>
      </trkpt>
      <trkpt lat="45.5081" lon="3.34986">
        <ele>460</ele>
        <time>2012-10-21T09:47:12.000Z</time>
      </trkpt>
      <trkpt lat="45.50813" lon="3.34982">
        <ele>460</ele>
        <time>2012-10-21T09:47:13.000Z</time>
      </trkpt>
      <trkpt lat="45.50816" lon="3.34978">
        <ele>464</ele>
        <time>2012-10-21T09:47:14.000Z</time>
      </trkpt>
      <trkpt lat="45.50819" lon="3.34975">
        <ele>464</ele>
        <time>2012-10-21T09:47:15.000Z</time>
      </trkpt>
      <trkpt lat="45.50822" lon="3.34972">
        <ele>464</ele>
        <time>2012-10-21T09:47:16.000Z</time>
      </trkpt>
      <trkpt lat="45.50824" lon="3.34969">
        <ele>466</ele>
        <time>2012-10-21T09:47:17.000Z</time>
      </trkpt>
      <trkpt lat="45.50827" lon="3.34965">
        <ele>465</ele>
        <time>2012-10-21T09:47:18.000Z</time>
      </trkpt>
      <trkpt lat="45.5083" lon="3.34962">
        <ele>465</ele>
        <time>2012-10-21T09:47:19.000Z</time>
      </trkpt>
      <trkpt lat="45.50834" lon="3.3496">
        <ele>465</ele>
        <time>2012-10-21T09:47:20.000Z</time>
      </trkpt>
      <trkpt lat="45.50838" lon="3.34958">
        <ele>466</ele>
        <time>2012-10-21T09:47:21.000Z</time>
      </trkpt>
      <trkpt lat="45.50843" lon="3.34956">
        <ele>468</ele>
        <time>2012-10-21T09:47:22.000Z</time>
      </trkpt>
      <trkpt lat="45.50848" lon="3.34953">
        <ele>468</ele>
        <time>2012-10-21T09:47:23.000Z</time>
      </trkpt>
      <trkpt lat="45.50854" lon="3.3495">
        <ele>466</ele>
        <time>2012-10-21T09:47:24.000Z</time>
      </trkpt>
      <trkpt lat="45.50859" lon="3.34948">
        <ele>464</ele>
        <time>2012-10-21T09:47:25.000Z</time>
      </trkpt>
      <trkpt lat="45.50865" lon="3.34946">
        <ele>465</ele>
        <time>2012-10-21T09:47:26.000Z</time>
      </trkpt>
      <trkpt lat="45.5087" lon="3.34944">
        <ele>466</ele>
        <time>2012-10-21T09:47:27.000Z</time>
      </trkpt>
      <trkpt lat="45.50875" lon="3.34941">
        <ele>467</ele>
        <time>2012-10-21T09:47:28.000Z</time>
      </trkpt>
      <trkpt lat="45.5088" lon="3.34939">
        <ele>468</ele>
        <time>2012-10-21T09:47:29.000Z</time>
      </trkpt>
      <trkpt lat="45.50886" lon="3.34936">
        <ele>467</ele>
        <time>2012-10-21T09:47:30.000Z</time>
      </trkpt>
      <trkpt lat="45.50891" lon="3.34933">
        <ele>466</ele>
        <time>2012-10-21T09:47:31.000Z</time>
      </trkpt>
      <trkpt lat="45.50896" lon="3.3493">
        <ele>465</ele>
        <time>2012-10-21T09:47:32.000Z</time>
      </trkpt>
      <trkpt lat="45.50902" lon="3.34925">
        <ele>464</ele>
        <time>2012-10-21T09:47:33.000Z</time>
      </trkpt>
      <trkpt lat="45.50908" lon="3.34919">
        <ele>461</ele>
        <time>2012-10-21T09:47:34.000Z</time>
      </trkpt>
      <trkpt lat="45.50915" lon="3.34914">
        <ele>459</ele>
        <time>2012-10-21T09:47:35.000Z</time>
      </trkpt>
      <trkpt lat="45.50922" lon="3.34907">
        <ele>458</ele>
        <time>2012-10-21T09:47:36.000Z</time>
      </trkpt>
      <trkpt lat="45.50929" lon="3.34901">
        <ele>459</ele>
        <time>2012-10-21T09:47:37.000Z</time>
      </trkpt>
      <trkpt lat="45.50936" lon="3.34894">
        <ele>458</ele>
        <time>2012-10-21T09:47:38.000Z</time>
      </trkpt>
      <trkpt lat="45.50943" lon="3.34889">
        <ele>458</ele>
        <time>2012-10-21T09:47:39.000Z</time>
      </trkpt>
      <trkpt lat="45.50951" lon="3.34886">
        <ele>458</ele>
        <time>2012-10-21T09:47:40.000Z</time>
      </trkpt>
      <trkpt lat="45.50959" lon="3.34884">
        <ele>459</ele>
        <time>2012-10-21T09:47:41.000Z</time>
      </trkpt>
      <trkpt lat="45.50967" lon="3.34886">
        <ele>462</ele>
        <time>2012-10-21T09:47:42.000Z</time>
      </trkpt>
      <trkpt lat="45.50974" lon="3.34889">
        <ele>461</ele>
        <time>2012-10-21T09:47:43.000Z</time>
      </trkpt>
      <trkpt lat="45.50982" lon="3.34892">
        <ele>462</ele>
        <time>2012-10-21T09:47:44.000Z</time>
      </trkpt>
      <trkpt lat="45.50989" lon="3.34896">
        <ele>461</ele>
        <time>2012-10-21T09:47:45.000Z</time>
      </trkpt>
      <trkpt lat="45.51" lon="3.34903">
        <ele>459</ele>
        <time>2012-10-21T09:47:47.000Z</time>
      </trkpt>
      <trkpt lat="45.51005" lon="3.34907">
        <ele>459</ele>
        <time>2012-10-21T09:47:48.000Z</time>
      </trkpt>
      <trkpt lat="45.5101" lon="3.34911">
        <ele>459</ele>
        <time>2012-10-21T09:47:49.000Z</time>
      </trkpt>
      <trkpt lat="45.51014" lon="3.34914">
        <ele>463</ele>
        <time>2012-10-21T09:47:50.000Z</time>
      </trkpt>
      <trkpt lat="45.51019" lon="3.34917">
        <ele>464</ele>
        <time>2012-10-21T09:47:51.000Z</time>
      </trkpt>
      <trkpt lat="45.51024" lon="3.34921">
        <ele>464</ele>
        <time>2012-10-21T09:47:52.000Z</time>
      </trkpt>
      <trkpt lat="45.51029" lon="3.34924">
        <ele>463</ele>
        <time>2012-10-21T09:47:53.000Z</time>
      </trkpt>
      <trkpt lat="45.51034" lon="3.34924">
        <ele>464</ele>
        <time>2012-10-21T09:47:54.000Z</time>
      </trkpt>
      <trkpt lat="45.51039" lon="3.3492">
        <ele>460</ele>
        <time>2012-10-21T09:47:55.000Z</time>
      </trkpt>
      <trkpt lat="45.51042" lon="3.34915">
        <ele>457</ele>
        <time>2012-10-21T09:47:56.000Z</time>
      </trkpt>
      <trkpt lat="45.51045" lon="3.34909">
        <ele>457</ele>
        <time>2012-10-21T09:47:57.000Z</time>
      </trkpt>
      <trkpt lat="45.51047" lon="3.34902">
        <ele>456</ele>
        <time>2012-10-21T09:47:58.000Z</time>
      </trkpt>
      <trkpt lat="45.5105" lon="3.34895">
        <ele>458</ele>
        <time>2012-10-21T09:47:59.000Z</time>
      </trkpt>
      <trkpt lat="45.51052" lon="3.34889">
        <ele>456</ele>
        <time>2012-10-21T09:48:00.000Z</time>
      </trkpt>
      <trkpt lat="45.51057" lon="3.34884">
        <ele>453</ele>
        <time>2012-10-21T09:48:01.000Z</time>
      </trkpt>
      <trkpt lat="45.51061" lon="3.3488">
        <ele>451</ele>
        <time>2012-10-21T09:48:02.000Z</time>
      </trkpt>
      <trkpt lat="45.51065" lon="3.34874">
        <ele>456</ele>
        <time>2012-10-21T09:48:03.000Z</time>
      </trkpt>
      <trkpt lat="45.5107" lon="3.34868">
        <ele>459</ele>
        <time>2012-10-21T09:48:04.000Z</time>
      </trkpt>
      <trkpt lat="45.51075" lon="3.34863">
        <ele>460</ele>
        <time>2012-10-21T09:48:05.000Z</time>
      </trkpt>
      <trkpt lat="45.51079" lon="3.34857">
        <ele>460</ele>
        <time>2012-10-21T09:48:06.000Z</time>
      </trkpt>
      <trkpt lat="45.51083" lon="3.34852">
        <ele>462</ele>
        <time>2012-10-21T09:48:07.000Z</time>
      </trkpt>
      <trkpt lat="45.51086" lon="3.34847">
        <ele>462</ele>
        <time>2012-10-21T09:48:08.000Z</time>
      </trkpt>
      <trkpt lat="45.51089" lon="3.34842">
        <ele>462</ele>
        <time>2012-10-21T09:48:09.000Z</time>
      </trkpt>
      <trkpt lat="45.51094" lon="3.34837">
        <ele>465</ele>
        <time>2012-10-21T09:48:10.000Z</time>
      </trkpt>
      <trkpt lat="45.51098" lon="3.34831">
        <ele>466</ele>
        <time>2012-10-21T09:48:11.000Z</time>
      </trkpt>
      <trkpt lat="45.51102" lon="3.34825">
        <ele>465</ele>
        <time>2012-10-21T09:48:12.000Z</time>
      </trkpt>
      <trkpt lat="45.51105" lon="3.34819">
        <ele>463</ele>
        <time>2012-10-21T09:48:13.000Z</time>
      </trkpt>
      <trkpt lat="45.51109" lon="3.34815">
        <ele>463</ele>
        <time>2012-10-21T09:48:14.000Z</time>
      </trkpt>
      <trkpt lat="45.51112" lon="3.3481">
        <ele>460</ele>
        <time>2012-10-21T09:48:15.000Z</time>
      </trkpt>
      <trkpt lat="45.51116" lon="3.34805">
        <ele>460</ele>
        <time>2012-10-21T09:48:16.000Z</time>
      </trkpt>
      <trkpt lat="45.51119" lon="3.34799">
        <ele>456</ele>
        <time>2012-10-21T09:48:17.000Z</time>
      </trkpt>
      <trkpt lat="45.51123" lon="3.34793">
        <ele>459</ele>
        <time>2012-10-21T09:48:18.000Z</time>
      </trkpt>
      <trkpt lat="45.51125" lon="3.34787">
        <ele>456</ele>
        <time>2012-10-21T09:48:19.000Z</time>
      </trkpt>
      <trkpt lat="45.51129" lon="3.34782">
        <ele>454</ele>
        <time>2012-10-21T09:48:20.000Z</time>
      </trkpt>
      <trkpt lat="45.51132" lon="3.34775">
        <ele>452</ele>
        <time>2012-10-21T09:48:21.000Z</time>
      </trkpt>
      <trkpt lat="45.51136" lon="3.34769">
        <ele>449</ele>
        <time>2012-10-21T09:48:22.000Z</time>
      </trkpt>
      <trkpt lat="45.5114" lon="3.34762">
        <ele>448</ele>
        <time>2012-10-21T09:48:23.000Z</time>
      </trkpt>
      <trkpt lat="45.51143" lon="3.34756">
        <ele>452</ele>
        <time>2012-10-21T09:48:24.000Z</time>
      </trkpt>
      <trkpt lat="45.51147" lon="3.3475">
        <ele>456</ele>
        <time>2012-10-21T09:48:25.000Z</time>
      </trkpt>
      <trkpt lat="45.5115" lon="3.34745">
        <ele>456</ele>
        <time>2012-10-21T09:48:26.000Z</time>
      </trkpt>
      <trkpt lat="45.51154" lon="3.34739">
        <ele>454</ele>
        <time>2012-10-21T09:48:27.000Z</time>
      </trkpt>
      <trkpt lat="45.51158" lon="3.34733">
        <ele>452</ele>
        <time>2012-10-21T09:48:28.000Z</time>
      </trkpt>
      <trkpt lat="45.51161" lon="3.34727">
        <ele>451</ele>
        <time>2012-10-21T09:48:29.000Z</time>
      </trkpt>
      <trkpt lat="45.51165" lon="3.34721">
        <ele>453</ele>
        <time>2012-10-21T09:48:30.000Z</time>
      </trkpt>
      <trkpt lat="45.51169" lon="3.34715">
        <ele>454</ele>
        <time>2012-10-21T09:48:31.000Z</time>
      </trkpt>
      <trkpt lat="45.51173" lon="3.34709">
        <ele>453</ele>
        <time>2012-10-21T09:48:32.000Z</time>
      </trkpt>
      <trkpt lat="45.51176" lon="3.34703">
        <ele>446</ele>
        <time>2012-10-21T09:48:33.000Z</time>
      </trkpt>
      <trkpt lat="45.51179" lon="3.34696">
        <ele>455</ele>
        <time>2012-10-21T09:48:34.000Z</time>
      </trkpt>
      <trkpt lat="45.51182" lon="3.34689">
        <ele>457</ele>
        <time>2012-10-21T09:48:35.000Z</time>
      </trkpt>
      <trkpt lat="45.51185" lon="3.34683">
        <ele>459</ele>
        <time>2012-10-21T09:48:36.000Z</time>
      </trkpt>
      <trkpt lat="45.51189" lon="3.34678">
        <ele>457</ele>
        <time>2012-10-21T09:48:37.000Z</time>
      </trkpt>
      <trkpt lat="45.51193" lon="3.34671">
        <ele>460</ele>
        <time>2012-10-21T09:48:38.000Z</time>
      </trkpt>
      <trkpt lat="45.51197" lon="3.34665">
        <ele>462</ele>
        <time>2012-10-21T09:48:39.000Z</time>
      </trkpt>
      <trkpt lat="45.51201" lon="3.34659">
        <ele>461</ele>
        <time>2012-10-21T09:48:40.000Z</time>
      </trkpt>
      <trkpt lat="45.51204" lon="3.34655">
        <ele>461</ele>
        <time>2012-10-21T09:48:41.000Z</time>
      </trkpt>
      <trkpt lat="45.51207" lon="3.3465">
        <ele>461</ele>
        <time>2012-10-21T09:48:42.000Z</time>
      </trkpt>
      <trkpt lat="45.51211" lon="3.34644">
        <ele>461</ele>
        <time>2012-10-21T09:48:43.000Z</time>
      </trkpt>
      <trkpt lat="45.51214" lon="3.34639">
        <ele>460</ele>
        <time>2012-10-21T09:48:44.000Z</time>
      </trkpt>
      <trkpt lat="45.51217" lon="3.34634">
        <ele>461</ele>
        <time>2012-10-21T09:48:45.000Z</time>
      </trkpt>
      <trkpt lat="45.5122" lon="3.34629">
        <ele>458</ele>
        <time>2012-10-21T09:48:46.000Z</time>
      </trkpt>
      <trkpt lat="45.51223" lon="3.34624">
        <ele>458</ele>
        <time>2012-10-21T09:48:47.000Z</time>
      </trkpt>
      <trkpt lat="45.51226" lon="3.34619">
        <ele>458</ele>
        <time>2012-10-21T09:48:48.000Z</time>
      </trkpt>
      <trkpt lat="45.51229" lon="3.34614">
        <ele>457</ele>
        <time>2012-10-21T09:48:49.000Z</time>
      </trkpt>
      <trkpt lat="45.51232" lon="3.34609">
        <ele>459</ele>
        <time>2012-10-21T09:48:50.000Z</time>
      </trkpt>
      <trkpt lat="45.51235" lon="3.34604">
        <ele>460</ele>
        <time>2012-10-21T09:48:51.000Z</time>
      </trkpt>
      <trkpt lat="45.51238" lon="3.346">
        <ele>465</ele>
        <time>2012-10-21T09:48:52.000Z</time>
      </trkpt>
      <trkpt lat="45.51241" lon="3.34595">
        <ele>462</ele>
        <time>2012-10-21T09:48:53.000Z</time>
      </trkpt>
      <trkpt lat="45.51244" lon="3.3459">
        <ele>460</ele>
        <time>2012-10-21T09:48:54.000Z</time>
      </trkpt>
      <trkpt lat="45.51248" lon="3.34584">
        <ele>462</ele>
        <time>2012-10-21T09:48:55.000Z</time>
      </trkpt>
      <trkpt lat="45.51251" lon="3.34578">
        <ele>465</ele>
        <time>2012-10-21T09:48:56.000Z</time>
      </trkpt>
      <trkpt lat="45.51256" lon="3.34572">
        <ele>465</ele>
        <time>2012-10-21T09:48:57.000Z</time>
      </trkpt>
      <trkpt lat="45.5126" lon="3.34566">
        <ele>462</ele>
        <time>2012-10-21T09:48:58.000Z</time>
      </trkpt>
      <trkpt lat="45.51265" lon="3.3456">
        <ele>460</ele>
        <time>2012-10-21T09:48:59.000Z</time>
      </trkpt>
      <trkpt lat="45.51269" lon="3.34553">
        <ele>459</ele>
        <time>2012-10-21T09:49:00.000Z</time>
      </trkpt>
      <trkpt lat="45.51274" lon="3.34548">
        <ele>457</ele>
        <time>2012-10-21T09:49:01.000Z</time>
      </trkpt>
      <trkpt lat="45.51278" lon="3.34541">
        <ele>461</ele>
        <time>2012-10-21T09:49:02.000Z</time>
      </trkpt>
      <trkpt lat="45.51282" lon="3.34535">
        <ele>460</ele>
        <time>2012-10-21T09:49:03.000Z</time>
      </trkpt>
      <trkpt lat="45.51286" lon="3.3453">
        <ele>458</ele>
        <time>2012-10-21T09:49:04.000Z</time>
      </trkpt>
      <trkpt lat="45.5129" lon="3.34525">
        <ele>455</ele>
        <time>2012-10-21T09:49:05.000Z</time>
      </trkpt>
      <trkpt lat="45.51293" lon="3.34518">
        <ele>462</ele>
        <time>2012-10-21T09:49:06.000Z</time>
      </trkpt>
      <trkpt lat="45.51297" lon="3.34512">
        <ele>461</ele>
        <time>2012-10-21T09:49:07.000Z</time>
      </trkpt>
      <trkpt lat="45.51299" lon="3.34505">
        <ele>460</ele>
        <time>2012-10-21T09:49:08.000Z</time>
      </trkpt>
      <trkpt lat="45.51301" lon="3.34501">
        <ele>457</ele>
        <time>2012-10-21T09:49:11.000Z</time>
      </trkpt>
      <trkpt lat="45.51305" lon="3.34483">
        <ele>449</ele>
        <time>2012-10-21T09:49:12.000Z</time>
      </trkpt>
      <trkpt lat="45.51304" lon="3.34474">
        <ele>446</ele>
        <time>2012-10-21T09:49:13.000Z</time>
      </trkpt>
      <trkpt lat="45.51303" lon="3.34466">
        <ele>446</ele>
        <time>2012-10-21T09:49:14.000Z</time>
      </trkpt>
      <trkpt lat="45.51301" lon="3.34457">
        <ele>446</ele>
        <time>2012-10-21T09:49:15.000Z</time>
      </trkpt>
      <trkpt lat="45.51299" lon="3.34451">
        <ele>447</ele>
        <time>2012-10-21T09:49:16.000Z</time>
      </trkpt>
      <trkpt lat="45.51296" lon="3.34445">
        <ele>446</ele>
        <time>2012-10-21T09:49:17.000Z</time>
      </trkpt>
      <trkpt lat="45.51294" lon="3.34439">
        <ele>445</ele>
        <time>2012-10-21T09:49:18.000Z</time>
      </trkpt>
      <trkpt lat="45.51292" lon="3.34434">
        <ele>446</ele>
        <time>2012-10-21T09:49:19.000Z</time>
      </trkpt>
      <trkpt lat="45.5129" lon="3.34427">
        <ele>447</ele>
        <time>2012-10-21T09:49:20.000Z</time>
      </trkpt>
      <trkpt lat="45.51288" lon="3.3442">
        <ele>446</ele>
        <time>2012-10-21T09:49:21.000Z</time>
      </trkpt>
      <trkpt lat="45.51287" lon="3.34413">
        <ele>449</ele>
        <time>2012-10-21T09:49:22.000Z</time>
      </trkpt>
      <trkpt lat="45.51285" lon="3.34406">
        <ele>449</ele>
        <time>2012-10-21T09:49:23.000Z</time>
      </trkpt>
      <trkpt lat="45.51283" lon="3.34399">
        <ele>447</ele>
        <time>2012-10-21T09:49:24.000Z</time>
      </trkpt>
      <trkpt lat="45.51281" lon="3.34393">
        <ele>447</ele>
        <time>2012-10-21T09:49:25.000Z</time>
      </trkpt>
      <trkpt lat="45.51279" lon="3.34386">
        <ele>446</ele>
        <time>2012-10-21T09:49:26.000Z</time>
      </trkpt>
      <trkpt lat="45.51277" lon="3.3438">
        <ele>444</ele>
        <time>2012-10-21T09:49:27.000Z</time>
      </trkpt>
      <trkpt lat="45.51277" lon="3.34375">
        <ele>444</ele>
        <time>2012-10-21T09:49:28.000Z</time>
      </trkpt>
      <trkpt lat="45.51277" lon="3.34369">
        <ele>443</ele>
        <time>2012-10-21T09:49:29.000Z</time>
      </trkpt>
      <trkpt lat="45.51278" lon="3.34364">
        <ele>442</ele>
        <time>2012-10-21T09:49:30.000Z</time>
      </trkpt>
      <trkpt lat="45.5128" lon="3.3436">
        <ele>442</ele>
        <time>2012-10-21T09:49:31.000Z</time>
      </trkpt>
      <trkpt lat="45.51281" lon="3.34356">
        <ele>440</ele>
        <time>2012-10-21T09:49:32.000Z</time>
      </trkpt>
      <trkpt lat="45.51283" lon="3.34351">
        <ele>440</ele>
        <time>2012-10-21T09:49:33.000Z</time>
      </trkpt>
      <trkpt lat="45.51285" lon="3.34348">
        <ele>441</ele>
        <time>2012-10-21T09:49:34.000Z</time>
      </trkpt>
      <trkpt lat="45.51288" lon="3.34344">
        <ele>441</ele>
        <time>2012-10-21T09:49:35.000Z</time>
      </trkpt>
      <trkpt lat="45.5129" lon="3.3434">
        <ele>443</ele>
        <time>2012-10-21T09:49:36.000Z</time>
      </trkpt>
      <trkpt lat="45.51293" lon="3.34336">
        <ele>443</ele>
        <time>2012-10-21T09:49:37.000Z</time>
      </trkpt>
      <trkpt lat="45.51295" lon="3.34333">
        <ele>442</ele>
        <time>2012-10-21T09:49:38.000Z</time>
      </trkpt>
      <trkpt lat="45.51297" lon="3.3433">
        <ele>440</ele>
        <time>2012-10-21T09:49:39.000Z</time>
      </trkpt>
      <trkpt lat="45.513" lon="3.34327">
        <ele>440</ele>
        <time>2012-10-21T09:49:40.000Z</time>
      </trkpt>
      <trkpt lat="45.51304" lon="3.34324">
        <ele>440</ele>
        <time>2012-10-21T09:49:41.000Z</time>
      </trkpt>
      <trkpt lat="45.51308" lon="3.34321">
        <ele>440</ele>
        <time>2012-10-21T09:49:42.000Z</time>
      </trkpt>
      <trkpt lat="45.51312" lon="3.34318">
        <ele>440</ele>
        <time>2012-10-21T09:49:43.000Z</time>
      </trkpt>
      <trkpt lat="45.51316" lon="3.34316">
        <ele>440</ele>
        <time>2012-10-21T09:49:44.000Z</time>
      </trkpt>
      <trkpt lat="45.5132" lon="3.34314">
        <ele>440</ele>
        <time>2012-10-21T09:49:45.000Z</time>
      </trkpt>
      <trkpt lat="45.51329" lon="3.3431">
        <ele>440</ele>
        <time>2012-10-21T09:49:47.000Z</time>
      </trkpt>
      <trkpt lat="45.51332" lon="3.34309">
        <ele>440</ele>
        <time>2012-10-21T09:49:48.000Z</time>
      </trkpt>
      <trkpt lat="45.51336" lon="3.34307">
        <ele>440</ele>
        <time>2012-10-21T09:49:49.000Z</time>
      </trkpt>
      <trkpt lat="45.51339" lon="3.34306">
        <ele>440</ele>
        <time>2012-10-21T09:49:50.000Z</time>
      </trkpt>
      <trkpt lat="45.51343" lon="3.34305">
        <ele>440</ele>
        <time>2012-10-21T09:49:51.000Z</time>
      </trkpt>
      <trkpt lat="45.51347" lon="3.34304">
        <ele>439</ele>
        <time>2012-10-21T09:49:52.000Z</time>
      </trkpt>
      <trkpt lat="45.5135" lon="3.34303">
        <ele>440</ele>
        <time>2012-10-21T09:49:53.000Z</time>
      </trkpt>
      <trkpt lat="45.51353" lon="3.34301">
        <ele>441</ele>
        <time>2012-10-21T09:49:54.000Z</time>
      </trkpt>
      <trkpt lat="45.51355" lon="3.34299">
        <ele>441</ele>
        <time>2012-10-21T09:49:55.000Z</time>
      </trkpt>
      <trkpt lat="45.51358" lon="3.34296">
        <ele>440</ele>
        <time>2012-10-21T09:49:58.000Z</time>
      </trkpt>
      <trkpt lat="45.5136" lon="3.34293">
        <ele>438</ele>
        <time>2012-10-21T09:49:59.000Z</time>
      </trkpt>
      <trkpt lat="45.51365" lon="3.34284">
        <ele>442</ele>
        <time>2012-10-21T09:50:02.000Z</time>
      </trkpt>
      <trkpt lat="45.51364" lon="3.34279">
        <ele>446</ele>
        <time>2012-10-21T09:50:03.000Z</time>
      </trkpt>
      <trkpt lat="45.51362" lon="3.34275">
        <ele>448</ele>
        <time>2012-10-21T09:50:04.000Z</time>
      </trkpt>
      <trkpt lat="45.51359" lon="3.34271">
        <ele>448</ele>
        <time>2012-10-21T09:50:05.000Z</time>
      </trkpt>
      <trkpt lat="45.51356" lon="3.34266">
        <ele>448</ele>
        <time>2012-10-21T09:50:06.000Z</time>
      </trkpt>
      <trkpt lat="45.51355" lon="3.34261">
        <ele>448</ele>
        <time>2012-10-21T09:50:07.000Z</time>
      </trkpt>
      <trkpt lat="45.51353" lon="3.34256">
        <ele>450</ele>
        <time>2012-10-21T09:50:08.000Z</time>
      </trkpt>
      <trkpt lat="45.5135" lon="3.34251">
        <ele>446</ele>
        <time>2012-10-21T09:50:09.000Z</time>
      </trkpt>
      <trkpt lat="45.51347" lon="3.34246">
        <ele>445</ele>
        <time>2012-10-21T09:50:10.000Z</time>
      </trkpt>
      <trkpt lat="45.51345" lon="3.3424">
        <ele>442</ele>
        <time>2012-10-21T09:50:11.000Z</time>
      </trkpt>
      <trkpt lat="45.51342" lon="3.34232">
        <ele>444</ele>
        <time>2012-10-21T09:50:12.000Z</time>
      </trkpt>
      <trkpt lat="45.51339" lon="3.34225">
        <ele>441</ele>
        <time>2012-10-21T09:50:13.000Z</time>
      </trkpt>
      <trkpt lat="45.51337" lon="3.34218">
        <ele>441</ele>
        <time>2012-10-21T09:50:14.000Z</time>
      </trkpt>
      <trkpt lat="45.51335" lon="3.34212">
        <ele>440</ele>
        <time>2012-10-21T09:50:15.000Z</time>
      </trkpt>
      <trkpt lat="45.51333" lon="3.34205">
        <ele>440</ele>
        <time>2012-10-21T09:50:16.000Z</time>
      </trkpt>
      <trkpt lat="45.51331" lon="3.34199">
        <ele>440</ele>
        <time>2012-10-21T09:50:17.000Z</time>
      </trkpt>
      <trkpt lat="45.5133" lon="3.34194">
        <ele>442</ele>
        <time>2012-10-21T09:50:18.000Z</time>
      </trkpt>
      <trkpt lat="45.51328" lon="3.34188">
        <ele>441</ele>
        <time>2012-10-21T09:50:19.000Z</time>
      </trkpt>
      <trkpt lat="45.51326" lon="3.34183">
        <ele>441</ele>
        <time>2012-10-21T09:50:20.000Z</time>
      </trkpt>
      <trkpt lat="45.51325" lon="3.34178">
        <ele>441</ele>
        <time>2012-10-21T09:50:21.000Z</time>
      </trkpt>
      <trkpt lat="45.51323" lon="3.34174">
        <ele>441</ele>
        <time>2012-10-21T09:50:22.000Z</time>
      </trkpt>
      <trkpt lat="45.51323" lon="3.3417">
        <ele>440</ele>
        <time>2012-10-21T09:50:23.000Z</time>
      </trkpt>
      <trkpt lat="45.51323" lon="3.34166">
        <ele>444</ele>
        <time>2012-10-21T09:50:24.000Z</time>
      </trkpt>
      <trkpt lat="45.51322" lon="3.34161">
        <ele>441</ele>
        <time>2012-10-21T09:50:25.000Z</time>
      </trkpt>
      <trkpt lat="45.51321" lon="3.34156">
        <ele>441</ele>
        <time>2012-10-21T09:50:26.000Z</time>
      </trkpt>
      <trkpt lat="45.5132" lon="3.34152">
        <ele>445</ele>
        <time>2012-10-21T09:50:27.000Z</time>
      </trkpt>
      <trkpt lat="45.5132" lon="3.34146">
        <ele>447</ele>
        <time>2012-10-21T09:50:28.000Z</time>
      </trkpt>
      <trkpt lat="45.51319" lon="3.3414">
        <ele>445</ele>
        <time>2012-10-21T09:50:29.000Z</time>
      </trkpt>
      <trkpt lat="45.51319" lon="3.34134">
        <ele>447</ele>
        <time>2012-10-21T09:50:30.000Z</time>
      </trkpt>
      <trkpt lat="45.51319" lon="3.34129">
        <ele>449</ele>
        <time>2012-10-21T09:50:31.000Z</time>
      </trkpt>
      <trkpt lat="45.51318" lon="3.34124">
        <ele>448</ele>
        <time>2012-10-21T09:50:32.000Z</time>
      </trkpt>
      <trkpt lat="45.51317" lon="3.34118">
        <ele>449</ele>
        <time>2012-10-21T09:50:33.000Z</time>
      </trkpt>
      <trkpt lat="45.51316" lon="3.34113">
        <ele>450</ele>
        <time>2012-10-21T09:50:34.000Z</time>
      </trkpt>
      <trkpt lat="45.51315" lon="3.34106">
        <ele>447</ele>
        <time>2012-10-21T09:50:35.000Z</time>
      </trkpt>
      <trkpt lat="45.51314" lon="3.34098">
        <ele>443</ele>
        <time>2012-10-21T09:50:36.000Z</time>
      </trkpt>
      <trkpt lat="45.51311" lon="3.34088">
        <ele>443</ele>
        <time>2012-10-21T09:50:37.000Z</time>
      </trkpt>
      <trkpt lat="45.51309" lon="3.3408">
        <ele>442</ele>
        <time>2012-10-21T09:50:38.000Z</time>
      </trkpt>
      <trkpt lat="45.51306" lon="3.34073">
        <ele>441</ele>
        <time>2012-10-21T09:50:39.000Z</time>
      </trkpt>
      <trkpt lat="45.51304" lon="3.34066">
        <ele>444</ele>
        <time>2012-10-21T09:50:40.000Z</time>
      </trkpt>
      <trkpt lat="45.51302" lon="3.34059">
        <ele>445</ele>
        <time>2012-10-21T09:50:41.000Z</time>
      </trkpt>
      <trkpt lat="45.513" lon="3.34051">
        <ele>444</ele>
        <time>2012-10-21T09:50:42.000Z</time>
      </trkpt>
      <trkpt lat="45.51298" lon="3.34044">
        <ele>444</ele>
        <time>2012-10-21T09:50:43.000Z</time>
      </trkpt>
      <trkpt lat="45.51295" lon="3.34035">
        <ele>441</ele>
        <time>2012-10-21T09:50:44.000Z</time>
      </trkpt>
      <trkpt lat="45.51293" lon="3.34027">
        <ele>439</ele>
        <time>2012-10-21T09:50:45.000Z</time>
      </trkpt>
      <trkpt lat="45.51289" lon="3.34014">
        <ele>443</ele>
        <time>2012-10-21T09:50:47.000Z</time>
      </trkpt>
      <trkpt lat="45.51287" lon="3.34008">
        <ele>443</ele>
        <time>2012-10-21T09:50:48.000Z</time>
      </trkpt>
      <trkpt lat="45.51285" lon="3.34002">
        <ele>444</ele>
        <time>2012-10-21T09:50:49.000Z</time>
      </trkpt>
      <trkpt lat="45.51283" lon="3.33996">
        <ele>445</ele>
        <time>2012-10-21T09:50:50.000Z</time>
      </trkpt>
      <trkpt lat="45.51281" lon="3.33992">
        <ele>445</ele>
        <time>2012-10-21T09:50:51.000Z</time>
      </trkpt>
      <trkpt lat="45.5128" lon="3.33987">
        <ele>446</ele>
        <time>2012-10-21T09:50:52.000Z</time>
      </trkpt>
      <trkpt lat="45.51278" lon="3.33982">
        <ele>444</ele>
        <time>2012-10-21T09:50:53.000Z</time>
      </trkpt>
      <trkpt lat="45.51276" lon="3.33976">
        <ele>441</ele>
        <time>2012-10-21T09:50:54.000Z</time>
      </trkpt>
      <trkpt lat="45.51274" lon="3.3397">
        <ele>445</ele>
        <time>2012-10-21T09:50:55.000Z</time>
      </trkpt>
      <trkpt lat="45.51271" lon="3.33964">
        <ele>443</ele>
        <time>2012-10-21T09:50:56.000Z</time>
      </trkpt>
      <trkpt lat="45.51269" lon="3.33958">
        <ele>443</ele>
        <time>2012-10-21T09:50:57.000Z</time>
      </trkpt>
      <trkpt lat="45.51266" lon="3.33952">
        <ele>448</ele>
        <time>2012-10-21T09:50:58.000Z</time>
      </trkpt>
      <trkpt lat="45.51263" lon="3.33947">
        <ele>448</ele>
        <time>2012-10-21T09:50:59.000Z</time>
      </trkpt>
      <trkpt lat="45.51261" lon="3.33942">
        <ele>450</ele>
        <time>2012-10-21T09:51:00.000Z</time>
      </trkpt>
      <trkpt lat="45.51258" lon="3.33936">
        <ele>451</ele>
        <time>2012-10-21T09:51:01.000Z</time>
      </trkpt>
      <trkpt lat="45.51256" lon="3.3393">
        <ele>452</ele>
        <time>2012-10-21T09:51:02.000Z</time>
      </trkpt>
      <trkpt lat="45.51253" lon="3.33924">
        <ele>448</ele>
        <time>2012-10-21T09:51:03.000Z</time>
      </trkpt>
      <trkpt lat="45.5125" lon="3.33917">
        <ele>445</ele>
        <time>2012-10-21T09:51:04.000Z</time>
      </trkpt>
      <trkpt lat="45.51248" lon="3.3391">
        <ele>443</ele>
        <time>2012-10-21T09:51:05.000Z</time>
      </trkpt>
      <trkpt lat="45.51245" lon="3.33905">
        <ele>445</ele>
        <time>2012-10-21T09:51:06.000Z</time>
      </trkpt>
      <trkpt lat="45.51243" lon="3.339">
        <ele>444</ele>
        <time>2012-10-21T09:51:07.000Z</time>
      </trkpt>
      <trkpt lat="45.51241" lon="3.33894">
        <ele>445</ele>
        <time>2012-10-21T09:51:08.000Z</time>
      </trkpt>
      <trkpt lat="45.51239" lon="3.3389">
        <ele>445</ele>
        <time>2012-10-21T09:51:09.000Z</time>
      </trkpt>
      <trkpt lat="45.51236" lon="3.33884">
        <ele>444</ele>
        <time>2012-10-21T09:51:10.000Z</time>
      </trkpt>
      <trkpt lat="45.51233" lon="3.33878">
        <ele>447</ele>
        <time>2012-10-21T09:51:11.000Z</time>
      </trkpt>
      <trkpt lat="45.51231" lon="3.33872">
        <ele>449</ele>
        <time>2012-10-21T09:51:12.000Z</time>
      </trkpt>
      <trkpt lat="45.51228" lon="3.33866">
        <ele>451</ele>
        <time>2012-10-21T09:51:13.000Z</time>
      </trkpt>
      <trkpt lat="45.51224" lon="3.3386">
        <ele>448</ele>
        <time>2012-10-21T09:51:14.000Z</time>
      </trkpt>
      <trkpt lat="45.51222" lon="3.33854">
        <ele>450</ele>
        <time>2012-10-21T09:51:15.000Z</time>
      </trkpt>
      <trkpt lat="45.5122" lon="3.33848">
        <ele>453</ele>
        <time>2012-10-21T09:51:16.000Z</time>
      </trkpt>
      <trkpt lat="45.51218" lon="3.33843">
        <ele>456</ele>
        <time>2012-10-21T09:51:17.000Z</time>
      </trkpt>
      <trkpt lat="45.51215" lon="3.33837">
        <ele>451</ele>
        <time>2012-10-21T09:51:18.000Z</time>
      </trkpt>
      <trkpt lat="45.51213" lon="3.3383">
        <ele>452</ele>
        <time>2012-10-21T09:51:19.000Z</time>
      </trkpt>
      <trkpt lat="45.51211" lon="3.33823">
        <ele>451</ele>
        <time>2012-10-21T09:51:20.000Z</time>
      </trkpt>
      <trkpt lat="45.51209" lon="3.33815">
        <ele>450</ele>
        <time>2012-10-21T09:51:21.000Z</time>
      </trkpt>
      <trkpt lat="45.51206" lon="3.33808">
        <ele>449</ele>
        <time>2012-10-21T09:51:22.000Z</time>
      </trkpt>
      <trkpt lat="45.51203" lon="3.338">
        <ele>450</ele>
        <time>2012-10-21T09:51:23.000Z</time>
      </trkpt>
      <trkpt lat="45.512" lon="3.33793">
        <ele>448</ele>
        <time>2012-10-21T09:51:24.000Z</time>
      </trkpt>
      <trkpt lat="45.51197" lon="3.33785">
        <ele>450</ele>
        <time>2012-10-21T09:51:25.000Z</time>
      </trkpt>
      <trkpt lat="45.51195" lon="3.33778">
        <ele>447</ele>
        <time>2012-10-21T09:51:26.000Z</time>
      </trkpt>
      <trkpt lat="45.51192" lon="3.3377">
        <ele>447</ele>
        <time>2012-10-21T09:51:27.000Z</time>
      </trkpt>
      <trkpt lat="45.51189" lon="3.33763">
        <ele>444</ele>
        <time>2012-10-21T09:51:28.000Z</time>
      </trkpt>
      <trkpt lat="45.51186" lon="3.33756">
        <ele>443</ele>
        <time>2012-10-21T09:51:29.000Z</time>
      </trkpt>
      <trkpt lat="45.51183" lon="3.33749">
        <ele>442</ele>
        <time>2012-10-21T09:51:30.000Z</time>
      </trkpt>
      <trkpt lat="45.51181" lon="3.33742">
        <ele>443</ele>
        <time>2012-10-21T09:51:31.000Z</time>
      </trkpt>
      <trkpt lat="45.51179" lon="3.33735">
        <ele>444</ele>
        <time>2012-10-21T09:51:32.000Z</time>
      </trkpt>
      <trkpt lat="45.51177" lon="3.33729">
        <ele>443</ele>
        <time>2012-10-21T09:51:33.000Z</time>
      </trkpt>
      <trkpt lat="45.51175" lon="3.33722">
        <ele>444</ele>
        <time>2012-10-21T09:51:34.000Z</time>
      </trkpt>
      <trkpt lat="45.51173" lon="3.33715">
        <ele>444</ele>
        <time>2012-10-21T09:51:35.000Z</time>
      </trkpt>
      <trkpt lat="45.51172" lon="3.33709">
        <ele>444</ele>
        <time>2012-10-21T09:51:36.000Z</time>
      </trkpt>
      <trkpt lat="45.5117" lon="3.33703">
        <ele>443</ele>
        <time>2012-10-21T09:51:37.000Z</time>
      </trkpt>
      <trkpt lat="45.51168" lon="3.33696">
        <ele>442</ele>
        <time>2012-10-21T09:51:38.000Z</time>
      </trkpt>
      <trkpt lat="45.51167" lon="3.33689">
        <ele>443</ele>
        <time>2012-10-21T09:51:39.000Z</time>
      </trkpt>
      <trkpt lat="45.51166" lon="3.33682">
        <ele>442</ele>
        <time>2012-10-21T09:51:40.000Z</time>
      </trkpt>
      <trkpt lat="45.51165" lon="3.33675">
        <ele>444</ele>
        <time>2012-10-21T09:51:41.000Z</time>
      </trkpt>
      <trkpt lat="45.51164" lon="3.3367">
        <ele>444</ele>
        <time>2012-10-21T09:51:42.000Z</time>
      </trkpt>
      <trkpt lat="45.51164" lon="3.33664">
        <ele>446</ele>
        <time>2012-10-21T09:51:43.000Z</time>
      </trkpt>
      <trkpt lat="45.51163" lon="3.33655">
        <ele>443</ele>
        <time>2012-10-21T09:51:44.000Z</time>
      </trkpt>
      <trkpt lat="45.51162" lon="3.33647">
        <ele>444</ele>
        <time>2012-10-21T09:51:45.000Z</time>
      </trkpt>
      <trkpt lat="45.51161" lon="3.33631">
        <ele>447</ele>
        <time>2012-10-21T09:51:47.000Z</time>
      </trkpt>
      <trkpt lat="45.51161" lon="3.33622">
        <ele>449</ele>
        <time>2012-10-21T09:51:48.000Z</time>
      </trkpt>
      <trkpt lat="45.51162" lon="3.33612">
        <ele>448</ele>
        <time>2012-10-21T09:51:49.000Z</time>
      </trkpt>
      <trkpt lat="45.51162" lon="3.33602">
        <ele>448</ele>
        <time>2012-10-21T09:51:50.000Z</time>
      </trkpt>
      <trkpt lat="45.51162" lon="3.33593">
        <ele>448</ele>
        <time>2012-10-21T09:51:51.000Z</time>
      </trkpt>
      <trkpt lat="45.51162" lon="3.33584">
        <ele>445</ele>
        <time>2012-10-21T09:51:52.000Z</time>
      </trkpt>
      <trkpt lat="45.51164" lon="3.33576">
        <ele>447</ele>
        <time>2012-10-21T09:51:53.000Z</time>
      </trkpt>
      <trkpt lat="45.51166" lon="3.33568">
        <ele>447</ele>
        <time>2012-10-21T09:51:54.000Z</time>
      </trkpt>
      <trkpt lat="45.51167" lon="3.3356">
        <ele>447</ele>
        <time>2012-10-21T09:51:55.000Z</time>
      </trkpt>
      <trkpt lat="45.51168" lon="3.33553">
        <ele>449</ele>
        <time>2012-10-21T09:51:56.000Z</time>
      </trkpt>
      <trkpt lat="45.51169" lon="3.33547">
        <ele>446</ele>
        <time>2012-10-21T09:51:57.000Z</time>
      </trkpt>
      <trkpt lat="45.51171" lon="3.33538">
        <ele>446</ele>
        <time>2012-10-21T09:51:58.000Z</time>
      </trkpt>
      <trkpt lat="45.51173" lon="3.3353">
        <ele>448</ele>
        <time>2012-10-21T09:51:59.000Z</time>
      </trkpt>
      <trkpt lat="45.51176" lon="3.33523">
        <ele>446</ele>
        <time>2012-10-21T09:52:00.000Z</time>
      </trkpt>
      <trkpt lat="45.51179" lon="3.33515">
        <ele>449</ele>
        <time>2012-10-21T09:52:01.000Z</time>
      </trkpt>
      <trkpt lat="45.51183" lon="3.33507">
        <ele>448</ele>
        <time>2012-10-21T09:52:02.000Z</time>
      </trkpt>
      <trkpt lat="45.51188" lon="3.335">
        <ele>447</ele>
        <time>2012-10-21T09:52:03.000Z</time>
      </trkpt>
      <trkpt lat="45.51192" lon="3.33492">
        <ele>443</ele>
        <time>2012-10-21T09:52:04.000Z</time>
      </trkpt>
      <trkpt lat="45.51196" lon="3.33486">
        <ele>444</ele>
        <time>2012-10-21T09:52:05.000Z</time>
      </trkpt>
      <trkpt lat="45.512" lon="3.33479">
        <ele>443</ele>
        <time>2012-10-21T09:52:06.000Z</time>
      </trkpt>
      <trkpt lat="45.51204" lon="3.33473">
        <ele>445</ele>
        <time>2012-10-21T09:52:07.000Z</time>
      </trkpt>
      <trkpt lat="45.51208" lon="3.33466">
        <ele>444</ele>
        <time>2012-10-21T09:52:08.000Z</time>
      </trkpt>
      <trkpt lat="45.51212" lon="3.3346">
        <ele>444</ele>
        <time>2012-10-21T09:52:09.000Z</time>
      </trkpt>
      <trkpt lat="45.51217" lon="3.33453">
        <ele>445</ele>
        <time>2012-10-21T09:52:10.000Z</time>
      </trkpt>
      <trkpt lat="45.51221" lon="3.33447">
        <ele>447</ele>
        <time>2012-10-21T09:52:11.000Z</time>
      </trkpt>
      <trkpt lat="45.51226" lon="3.3344">
        <ele>447</ele>
        <time>2012-10-21T09:52:12.000Z</time>
      </trkpt>
      <trkpt lat="45.51231" lon="3.33434">
        <ele>448</ele>
        <time>2012-10-21T09:52:13.000Z</time>
      </trkpt>
      <trkpt lat="45.51235" lon="3.33429">
        <ele>448</ele>
        <time>2012-10-21T09:52:14.000Z</time>
      </trkpt>
      <trkpt lat="45.5124" lon="3.33422">
        <ele>448</ele>
        <time>2012-10-21T09:52:15.000Z</time>
      </trkpt>
      <trkpt lat="45.51244" lon="3.33416">
        <ele>448</ele>
        <time>2012-10-21T09:52:16.000Z</time>
      </trkpt>
      <trkpt lat="45.51247" lon="3.33409">
        <ele>448</ele>
        <time>2012-10-21T09:52:17.000Z</time>
      </trkpt>
      <trkpt lat="45.51251" lon="3.33403">
        <ele>448</ele>
        <time>2012-10-21T09:52:18.000Z</time>
      </trkpt>
      <trkpt lat="45.51254" lon="3.33396">
        <ele>448</ele>
        <time>2012-10-21T09:52:19.000Z</time>
      </trkpt>
      <trkpt lat="45.51257" lon="3.33389">
        <ele>447</ele>
        <time>2012-10-21T09:52:20.000Z</time>
      </trkpt>
      <trkpt lat="45.5126" lon="3.33383">
        <ele>447</ele>
        <time>2012-10-21T09:52:21.000Z</time>
      </trkpt>
      <trkpt lat="45.51263" lon="3.33375">
        <ele>446</ele>
        <time>2012-10-21T09:52:22.000Z</time>
      </trkpt>
      <trkpt lat="45.51265" lon="3.33366">
        <ele>443</ele>
        <time>2012-10-21T09:52:23.000Z</time>
      </trkpt>
      <trkpt lat="45.51268" lon="3.33357">
        <ele>440</ele>
        <time>2012-10-21T09:52:24.000Z</time>
      </trkpt>
      <trkpt lat="45.5127" lon="3.33348">
        <ele>439</ele>
        <time>2012-10-21T09:52:25.000Z</time>
      </trkpt>
      <trkpt lat="45.51273" lon="3.33339">
        <ele>437</ele>
        <time>2012-10-21T09:52:26.000Z</time>
      </trkpt>
      <trkpt lat="45.51275" lon="3.3333">
        <ele>439</ele>
        <time>2012-10-21T09:52:27.000Z</time>
      </trkpt>
      <trkpt lat="45.51277" lon="3.33321">
        <ele>437</ele>
        <time>2012-10-21T09:52:28.000Z</time>
      </trkpt>
      <trkpt lat="45.5128" lon="3.33312">
        <ele>436</ele>
        <time>2012-10-21T09:52:29.000Z</time>
      </trkpt>
      <trkpt lat="45.51282" lon="3.33304">
        <ele>437</ele>
        <time>2012-10-21T09:52:30.000Z</time>
      </trkpt>
      <trkpt lat="45.51285" lon="3.33295">
        <ele>436</ele>
        <time>2012-10-21T09:52:31.000Z</time>
      </trkpt>
      <trkpt lat="45.51288" lon="3.33287">
        <ele>435</ele>
        <time>2012-10-21T09:52:32.000Z</time>
      </trkpt>
      <trkpt lat="45.51292" lon="3.33279">
        <ele>436</ele>
        <time>2012-10-21T09:52:33.000Z</time>
      </trkpt>
      <trkpt lat="45.51296" lon="3.33271">
        <ele>435</ele>
        <time>2012-10-21T09:52:34.000Z</time>
      </trkpt>
      <trkpt lat="45.513" lon="3.33263">
        <ele>434</ele>
        <time>2012-10-21T09:52:35.000Z</time>
      </trkpt>
      <trkpt lat="45.51304" lon="3.33255">
        <ele>433</ele>
        <time>2012-10-21T09:52:36.000Z</time>
      </trkpt>
      <trkpt lat="45.51307" lon="3.33246">
        <ele>436</ele>
        <time>2012-10-21T09:52:37.000Z</time>
      </trkpt>
      <trkpt lat="45.5131" lon="3.33237">
        <ele>437</ele>
        <time>2012-10-21T09:52:38.000Z</time>
      </trkpt>
      <trkpt lat="45.51313" lon="3.33229">
        <ele>439</ele>
        <time>2012-10-21T09:52:39.000Z</time>
      </trkpt>
      <trkpt lat="45.51316" lon="3.33221">
        <ele>439</ele>
        <time>2012-10-21T09:52:40.000Z</time>
      </trkpt>
      <trkpt lat="45.51319" lon="3.33212">
        <ele>441</ele>
        <time>2012-10-21T09:52:41.000Z</time>
      </trkpt>
      <trkpt lat="45.51323" lon="3.33204">
        <ele>440</ele>
        <time>2012-10-21T09:52:42.000Z</time>
      </trkpt>
      <trkpt lat="45.51326" lon="3.33196">
        <ele>440</ele>
        <time>2012-10-21T09:52:43.000Z</time>
      </trkpt>
      <trkpt lat="45.51329" lon="3.33187">
        <ele>440</ele>
        <time>2012-10-21T09:52:44.000Z</time>
      </trkpt>
      <trkpt lat="45.51333" lon="3.33179">
        <ele>439</ele>
        <time>2012-10-21T09:52:45.000Z</time>
      </trkpt>
      <trkpt lat="45.5134" lon="3.33163">
        <ele>436</ele>
        <time>2012-10-21T09:52:47.000Z</time>
      </trkpt>
      <trkpt lat="45.51344" lon="3.33154">
        <ele>436</ele>
        <time>2012-10-21T09:52:48.000Z</time>
      </trkpt>
      <trkpt lat="45.51348" lon="3.33145">
        <ele>438</ele>
        <time>2012-10-21T09:52:49.000Z</time>
      </trkpt>
      <trkpt lat="45.51351" lon="3.33138">
        <ele>439</ele>
        <time>2012-10-21T09:52:50.000Z</time>
      </trkpt>
      <trkpt lat="45.51354" lon="3.3313">
        <ele>438</ele>
        <time>2012-10-21T09:52:51.000Z</time>
      </trkpt>
      <trkpt lat="45.51357" lon="3.33123">
        <ele>437</ele>
        <time>2012-10-21T09:52:52.000Z</time>
      </trkpt>
      <trkpt lat="45.51361" lon="3.33116">
        <ele>438</ele>
        <time>2012-10-21T09:52:53.000Z</time>
      </trkpt>
      <trkpt lat="45.51364" lon="3.3311">
        <ele>437</ele>
        <time>2012-10-21T09:52:54.000Z</time>
      </trkpt>
      <trkpt lat="45.51368" lon="3.33103">
        <ele>438</ele>
        <time>2012-10-21T09:52:55.000Z</time>
      </trkpt>
      <trkpt lat="45.51371" lon="3.33094">
        <ele>438</ele>
        <time>2012-10-21T09:52:56.000Z</time>
      </trkpt>
      <trkpt lat="45.51376" lon="3.33086">
        <ele>438</ele>
        <time>2012-10-21T09:52:57.000Z</time>
      </trkpt>
      <trkpt lat="45.51381" lon="3.33079">
        <ele>438</ele>
        <time>2012-10-21T09:52:58.000Z</time>
      </trkpt>
      <trkpt lat="45.51385" lon="3.33071">
        <ele>438</ele>
        <time>2012-10-21T09:52:59.000Z</time>
      </trkpt>
      <trkpt lat="45.51389" lon="3.33064">
        <ele>438</ele>
        <time>2012-10-21T09:53:00.000Z</time>
      </trkpt>
      <trkpt lat="45.51394" lon="3.33057">
        <ele>438</ele>
        <time>2012-10-21T09:53:01.000Z</time>
      </trkpt>
      <trkpt lat="45.51398" lon="3.3305">
        <ele>438</ele>
        <time>2012-10-21T09:53:02.000Z</time>
      </trkpt>
      <trkpt lat="45.51402" lon="3.33043">
        <ele>437</ele>
        <time>2012-10-21T09:53:03.000Z</time>
      </trkpt>
      <trkpt lat="45.51406" lon="3.33036">
        <ele>437</ele>
        <time>2012-10-21T09:53:04.000Z</time>
      </trkpt>
      <trkpt lat="45.5141" lon="3.33029">
        <ele>437</ele>
        <time>2012-10-21T09:53:05.000Z</time>
      </trkpt>
      <trkpt lat="45.51415" lon="3.33021">
        <ele>437</ele>
        <time>2012-10-21T09:53:06.000Z</time>
      </trkpt>
      <trkpt lat="45.51419" lon="3.33014">
        <ele>438</ele>
        <time>2012-10-21T09:53:07.000Z</time>
      </trkpt>
      <trkpt lat="45.51424" lon="3.33006">
        <ele>438</ele>
        <time>2012-10-21T09:53:08.000Z</time>
      </trkpt>
      <trkpt lat="45.51429" lon="3.33">
        <ele>438</ele>
        <time>2012-10-21T09:53:09.000Z</time>
      </trkpt>
      <trkpt lat="45.51433" lon="3.32993">
        <ele>438</ele>
        <time>2012-10-21T09:53:10.000Z</time>
      </trkpt>
      <trkpt lat="45.51438" lon="3.32985">
        <ele>439</ele>
        <time>2012-10-21T09:53:11.000Z</time>
      </trkpt>
      <trkpt lat="45.51443" lon="3.32978">
        <ele>439</ele>
        <time>2012-10-21T09:53:12.000Z</time>
      </trkpt>
      <trkpt lat="45.51448" lon="3.32971">
        <ele>439</ele>
        <time>2012-10-21T09:53:13.000Z</time>
      </trkpt>
      <trkpt lat="45.51452" lon="3.32964">
        <ele>438</ele>
        <time>2012-10-21T09:53:14.000Z</time>
      </trkpt>
      <trkpt lat="45.51457" lon="3.32957">
        <ele>439</ele>
        <time>2012-10-21T09:53:15.000Z</time>
      </trkpt>
      <trkpt lat="45.51461" lon="3.3295">
        <ele>439</ele>
        <time>2012-10-21T09:53:16.000Z</time>
      </trkpt>
      <trkpt lat="45.51466" lon="3.32944">
        <ele>438</ele>
        <time>2012-10-21T09:53:17.000Z</time>
      </trkpt>
      <trkpt lat="45.51471" lon="3.32937">
        <ele>438</ele>
        <time>2012-10-21T09:53:18.000Z</time>
      </trkpt>
      <trkpt lat="45.51475" lon="3.3293">
        <ele>438</ele>
        <time>2012-10-21T09:53:19.000Z</time>
      </trkpt>
      <trkpt lat="45.5148" lon="3.32923">
        <ele>439</ele>
        <time>2012-10-21T09:53:20.000Z</time>
      </trkpt>
      <trkpt lat="45.51485" lon="3.32916">
        <ele>439</ele>
        <time>2012-10-21T09:53:21.000Z</time>
      </trkpt>
      <trkpt lat="45.51489" lon="3.32909">
        <ele>438</ele>
        <time>2012-10-21T09:53:22.000Z</time>
      </trkpt>
      <trkpt lat="45.51494" lon="3.32902">
        <ele>439</ele>
        <time>2012-10-21T09:53:23.000Z</time>
      </trkpt>
      <trkpt lat="45.51499" lon="3.32895">
        <ele>439</ele>
        <time>2012-10-21T09:53:24.000Z</time>
      </trkpt>
      <trkpt lat="45.51503" lon="3.32888">
        <ele>439</ele>
        <time>2012-10-21T09:53:25.000Z</time>
      </trkpt>
      <trkpt lat="45.51508" lon="3.32881">
        <ele>440</ele>
        <time>2012-10-21T09:53:26.000Z</time>
      </trkpt>
      <trkpt lat="45.51512" lon="3.32874">
        <ele>440</ele>
        <time>2012-10-21T09:53:27.000Z</time>
      </trkpt>
      <trkpt lat="45.51516" lon="3.32867">
        <ele>440</ele>
        <time>2012-10-21T09:53:28.000Z</time>
      </trkpt>
      <trkpt lat="45.51521" lon="3.3286">
        <ele>439</ele>
        <time>2012-10-21T09:53:29.000Z</time>
      </trkpt>
      <trkpt lat="45.51525" lon="3.32854">
        <ele>440</ele>
        <time>2012-10-21T09:53:30.000Z</time>
      </trkpt>
      <trkpt lat="45.51529" lon="3.32846">
        <ele>440</ele>
        <time>2012-10-21T09:53:31.000Z</time>
      </trkpt>
      <trkpt lat="45.51533" lon="3.3284">
        <ele>440</ele>
        <time>2012-10-21T09:53:32.000Z</time>
      </trkpt>
      <trkpt lat="45.51538" lon="3.32833">
        <ele>440</ele>
        <time>2012-10-21T09:53:33.000Z</time>
      </trkpt>
      <trkpt lat="45.51541" lon="3.32827">
        <ele>440</ele>
        <time>2012-10-21T09:53:34.000Z</time>
      </trkpt>
      <trkpt lat="45.51546" lon="3.3282">
        <ele>440</ele>
        <time>2012-10-21T09:53:35.000Z</time>
      </trkpt>
      <trkpt lat="45.5155" lon="3.32814">
        <ele>440</ele>
        <time>2012-10-21T09:53:36.000Z</time>
      </trkpt>
      <trkpt lat="45.51554" lon="3.32807">
        <ele>439</ele>
        <time>2012-10-21T09:53:37.000Z</time>
      </trkpt>
      <trkpt lat="45.51559" lon="3.328">
        <ele>439</ele>
        <time>2012-10-21T09:53:38.000Z</time>
      </trkpt>
      <trkpt lat="45.51563" lon="3.32793">
        <ele>439</ele>
        <time>2012-10-21T09:53:39.000Z</time>
      </trkpt>
      <trkpt lat="45.51567" lon="3.32787">
        <ele>439</ele>
        <time>2012-10-21T09:53:40.000Z</time>
      </trkpt>
      <trkpt lat="45.51571" lon="3.3278">
        <ele>439</ele>
        <time>2012-10-21T09:53:41.000Z</time>
      </trkpt>
      <trkpt lat="45.51575" lon="3.32773">
        <ele>439</ele>
        <time>2012-10-21T09:53:42.000Z</time>
      </trkpt>
      <trkpt lat="45.51579" lon="3.32766">
        <ele>439</ele>
        <time>2012-10-21T09:53:43.000Z</time>
      </trkpt>
      <trkpt lat="45.51582" lon="3.3276">
        <ele>439</ele>
        <time>2012-10-21T09:53:44.000Z</time>
      </trkpt>
      <trkpt lat="45.51585" lon="3.32754">
        <ele>440</ele>
        <time>2012-10-21T09:53:45.000Z</time>
      </trkpt>
      <trkpt lat="45.51591" lon="3.32743">
        <ele>440</ele>
        <time>2012-10-21T09:53:47.000Z</time>
      </trkpt>
      <trkpt lat="45.51593" lon="3.32738">
        <ele>439</ele>
        <time>2012-10-21T09:53:48.000Z</time>
      </trkpt>
      <trkpt lat="45.51595" lon="3.32735">
        <ele>440</ele>
        <time>2012-10-21T09:53:49.000Z</time>
      </trkpt>
      <trkpt lat="45.51596" lon="3.32729">
        <ele>444</ele>
        <time>2012-10-21T09:54:15.000Z</time>
      </trkpt>
      <trkpt lat="45.51596" lon="3.32727">
        <ele>441</ele>
        <time>2012-10-21T09:54:16.000Z</time>
      </trkpt>
      <trkpt lat="45.51597" lon="3.32726">
        <ele>447</ele>
        <time>2012-10-21T09:54:50.000Z</time>
      </trkpt>
      <trkpt lat="45.51599" lon="3.32721">
        <ele>447</ele>
        <time>2012-10-21T09:54:51.000Z</time>
      </trkpt>
      <trkpt lat="45.51601" lon="3.32718">
        <ele>445</ele>
        <time>2012-10-21T09:54:52.000Z</time>
      </trkpt>
      <trkpt lat="45.51602" lon="3.32713">
        <ele>446</ele>
        <time>2012-10-21T09:54:53.000Z</time>
      </trkpt>
      <trkpt lat="45.51604" lon="3.3271">
        <ele>443</ele>
        <time>2012-10-21T09:54:54.000Z</time>
      </trkpt>
      <trkpt lat="45.51606" lon="3.32706">
        <ele>441</ele>
        <time>2012-10-21T09:54:55.000Z</time>
      </trkpt>
      <trkpt lat="45.51608" lon="3.32702">
        <ele>438</ele>
        <time>2012-10-21T09:54:56.000Z</time>
      </trkpt>
      <trkpt lat="45.51611" lon="3.32697">
        <ele>440</ele>
        <time>2012-10-21T09:54:57.000Z</time>
      </trkpt>
      <trkpt lat="45.51614" lon="3.32691">
        <ele>441</ele>
        <time>2012-10-21T09:54:58.000Z</time>
      </trkpt>
      <trkpt lat="45.51616" lon="3.32686">
        <ele>441</ele>
        <time>2012-10-21T09:54:59.000Z</time>
      </trkpt>
      <trkpt lat="45.51619" lon="3.32681">
        <ele>442</ele>
        <time>2012-10-21T09:55:00.000Z</time>
      </trkpt>
      <trkpt lat="45.51622" lon="3.32676">
        <ele>441</ele>
        <time>2012-10-21T09:55:01.000Z</time>
      </trkpt>
      <trkpt lat="45.51624" lon="3.3267">
        <ele>441</ele>
        <time>2012-10-21T09:55:02.000Z</time>
      </trkpt>
      <trkpt lat="45.51627" lon="3.32664">
        <ele>437</ele>
        <time>2012-10-21T09:55:03.000Z</time>
      </trkpt>
      <trkpt lat="45.51629" lon="3.32659">
        <ele>438</ele>
        <time>2012-10-21T09:55:04.000Z</time>
      </trkpt>
      <trkpt lat="45.51631" lon="3.32654">
        <ele>439</ele>
        <time>2012-10-21T09:55:05.000Z</time>
      </trkpt>
      <trkpt lat="45.51634" lon="3.32649">
        <ele>437</ele>
        <time>2012-10-21T09:55:06.000Z</time>
      </trkpt>
      <trkpt lat="45.51636" lon="3.32644">
        <ele>436</ele>
        <time>2012-10-21T09:55:07.000Z</time>
      </trkpt>
      <trkpt lat="45.51638" lon="3.32639">
        <ele>436</ele>
        <time>2012-10-21T09:55:08.000Z</time>
      </trkpt>
      <trkpt lat="45.5164" lon="3.32635">
        <ele>436</ele>
        <time>2012-10-21T09:55:09.000Z</time>
      </trkpt>
      <trkpt lat="45.51643" lon="3.32629">
        <ele>434</ele>
        <time>2012-10-21T09:55:10.000Z</time>
      </trkpt>
      <trkpt lat="45.51646" lon="3.32624">
        <ele>434</ele>
        <time>2012-10-21T09:55:11.000Z</time>
      </trkpt>
      <trkpt lat="45.5165" lon="3.32619">
        <ele>435</ele>
        <time>2012-10-21T09:55:12.000Z</time>
      </trkpt>
      <trkpt lat="45.51654" lon="3.32613">
        <ele>435</ele>
        <time>2012-10-21T09:55:13.000Z</time>
      </trkpt>
      <trkpt lat="45.51659" lon="3.32606">
        <ele>436</ele>
        <time>2012-10-21T09:55:14.000Z</time>
      </trkpt>
      <trkpt lat="45.51663" lon="3.32599">
        <ele>437</ele>
        <time>2012-10-21T09:55:15.000Z</time>
      </trkpt>
      <trkpt lat="45.51667" lon="3.32593">
        <ele>437</ele>
        <time>2012-10-21T09:55:16.000Z</time>
      </trkpt>
      <trkpt lat="45.5167" lon="3.32586">
        <ele>437</ele>
        <time>2012-10-21T09:55:17.000Z</time>
      </trkpt>
      <trkpt lat="45.51674" lon="3.32579">
        <ele>437</ele>
        <time>2012-10-21T09:55:18.000Z</time>
      </trkpt>
      <trkpt lat="45.51677" lon="3.32572">
        <ele>438</ele>
        <time>2012-10-21T09:55:19.000Z</time>
      </trkpt>
      <trkpt lat="45.51681" lon="3.32565">
        <ele>438</ele>
        <time>2012-10-21T09:55:20.000Z</time>
      </trkpt>
      <trkpt lat="45.51684" lon="3.32558">
        <ele>437</ele>
        <time>2012-10-21T09:55:21.000Z</time>
      </trkpt>
      <trkpt lat="45.51687" lon="3.32551">
        <ele>437</ele>
        <time>2012-10-21T09:55:22.000Z</time>
      </trkpt>
      <trkpt lat="45.51691" lon="3.32545">
        <ele>437</ele>
        <time>2012-10-21T09:55:23.000Z</time>
      </trkpt>
      <trkpt lat="45.51694" lon="3.32538">
        <ele>436</ele>
        <time>2012-10-21T09:55:24.000Z</time>
      </trkpt>
      <trkpt lat="45.51698" lon="3.32531">
        <ele>437</ele>
        <time>2012-10-21T09:55:25.000Z</time>
      </trkpt>
      <trkpt lat="45.51702" lon="3.32524">
        <ele>437</ele>
        <time>2012-10-21T09:55:26.000Z</time>
      </trkpt>
      <trkpt lat="45.51705" lon="3.32517">
        <ele>437</ele>
        <time>2012-10-21T09:55:27.000Z</time>
      </trkpt>
      <trkpt lat="45.51708" lon="3.3251">
        <ele>439</ele>
        <time>2012-10-21T09:55:28.000Z</time>
      </trkpt>
      <trkpt lat="45.51712" lon="3.32502">
        <ele>438</ele>
        <time>2012-10-21T09:55:29.000Z</time>
      </trkpt>
      <trkpt lat="45.51716" lon="3.32495">
        <ele>436</ele>
        <time>2012-10-21T09:55:30.000Z</time>
      </trkpt>
      <trkpt lat="45.5172" lon="3.32488">
        <ele>436</ele>
        <time>2012-10-21T09:55:31.000Z</time>
      </trkpt>
      <trkpt lat="45.51723" lon="3.32481">
        <ele>435</ele>
        <time>2012-10-21T09:55:32.000Z</time>
      </trkpt>
      <trkpt lat="45.51727" lon="3.32473">
        <ele>436</ele>
        <time>2012-10-21T09:55:33.000Z</time>
      </trkpt>
      <trkpt lat="45.51731" lon="3.32466">
        <ele>436</ele>
        <time>2012-10-21T09:55:34.000Z</time>
      </trkpt>
      <trkpt lat="45.51736" lon="3.32459">
        <ele>436</ele>
        <time>2012-10-21T09:55:35.000Z</time>
      </trkpt>
      <trkpt lat="45.5174" lon="3.32451">
        <ele>437</ele>
        <time>2012-10-21T09:55:36.000Z</time>
      </trkpt>
      <trkpt lat="45.51745" lon="3.32445">
        <ele>437</ele>
        <time>2012-10-21T09:55:37.000Z</time>
      </trkpt>
      <trkpt lat="45.5175" lon="3.32438">
        <ele>437</ele>
        <time>2012-10-21T09:55:38.000Z</time>
      </trkpt>
      <trkpt lat="45.51755" lon="3.32432">
        <ele>438</ele>
        <time>2012-10-21T09:55:39.000Z</time>
      </trkpt>
      <trkpt lat="45.5176" lon="3.32427">
        <ele>437</ele>
        <time>2012-10-21T09:55:40.000Z</time>
      </trkpt>
      <trkpt lat="45.51765" lon="3.32421">
        <ele>438</ele>
        <time>2012-10-21T09:55:41.000Z</time>
      </trkpt>
      <trkpt lat="45.5177" lon="3.32416">
        <ele>438</ele>
        <time>2012-10-21T09:55:42.000Z</time>
      </trkpt>
      <trkpt lat="45.51775" lon="3.32412">
        <ele>438</ele>
        <time>2012-10-21T09:55:43.000Z</time>
      </trkpt>
      <trkpt lat="45.5178" lon="3.32407">
        <ele>437</ele>
        <time>2012-10-21T09:55:44.000Z</time>
      </trkpt>
      <trkpt lat="45.51785" lon="3.32403">
        <ele>437</ele>
        <time>2012-10-21T09:55:45.000Z</time>
      </trkpt>
      <trkpt lat="45.51796" lon="3.32396">
        <ele>436</ele>
        <time>2012-10-21T09:55:47.000Z</time>
      </trkpt>
      <trkpt lat="45.51802" lon="3.32392">
        <ele>436</ele>
        <time>2012-10-21T09:55:48.000Z</time>
      </trkpt>
      <trkpt lat="45.51808" lon="3.32391">
        <ele>436</ele>
        <time>2012-10-21T09:55:49.000Z</time>
      </trkpt>
      <trkpt lat="45.51814" lon="3.32389">
        <ele>436</ele>
        <time>2012-10-21T09:55:50.000Z</time>
      </trkpt>
      <trkpt lat="45.51821" lon="3.32387">
        <ele>436</ele>
        <time>2012-10-21T09:55:51.000Z</time>
      </trkpt>
      <trkpt lat="45.51827" lon="3.32387">
        <ele>436</ele>
        <time>2012-10-21T09:55:52.000Z</time>
      </trkpt>
      <trkpt lat="45.51833" lon="3.32386">
        <ele>436</ele>
        <time>2012-10-21T09:55:53.000Z</time>
      </trkpt>
      <trkpt lat="45.51839" lon="3.32386">
        <ele>436</ele>
        <time>2012-10-21T09:55:54.000Z</time>
      </trkpt>
      <trkpt lat="45.51845" lon="3.32386">
        <ele>436</ele>
        <time>2012-10-21T09:55:55.000Z</time>
      </trkpt>
      <trkpt lat="45.51852" lon="3.32386">
        <ele>436</ele>
        <time>2012-10-21T09:55:56.000Z</time>
      </trkpt>
      <trkpt lat="45.51858" lon="3.32386">
        <ele>436</ele>
        <time>2012-10-21T09:55:57.000Z</time>
      </trkpt>
      <trkpt lat="45.51864" lon="3.32385">
        <ele>438</ele>
        <time>2012-10-21T09:55:58.000Z</time>
      </trkpt>
      <trkpt lat="45.5187" lon="3.32385">
        <ele>438</ele>
        <time>2012-10-21T09:55:59.000Z</time>
      </trkpt>
      <trkpt lat="45.51877" lon="3.32384">
        <ele>437</ele>
        <time>2012-10-21T09:56:00.000Z</time>
      </trkpt>
      <trkpt lat="45.51883" lon="3.32383">
        <ele>438</ele>
        <time>2012-10-21T09:56:01.000Z</time>
      </trkpt>
      <trkpt lat="45.51889" lon="3.32381">
        <ele>438</ele>
        <time>2012-10-21T09:56:02.000Z</time>
      </trkpt>
      <trkpt lat="45.51895" lon="3.32379">
        <ele>438</ele>
        <time>2012-10-21T09:56:03.000Z</time>
      </trkpt>
      <trkpt lat="45.51902" lon="3.32377">
        <ele>436</ele>
        <time>2012-10-21T09:56:04.000Z</time>
      </trkpt>
      <trkpt lat="45.51908" lon="3.32373">
        <ele>437</ele>
        <time>2012-10-21T09:56:05.000Z</time>
      </trkpt>
      <trkpt lat="45.51913" lon="3.3237">
        <ele>437</ele>
        <time>2012-10-21T09:56:06.000Z</time>
      </trkpt>
      <trkpt lat="45.51919" lon="3.32366">
        <ele>437</ele>
        <time>2012-10-21T09:56:07.000Z</time>
      </trkpt>
      <trkpt lat="45.51925" lon="3.32361">
        <ele>437</ele>
        <time>2012-10-21T09:56:08.000Z</time>
      </trkpt>
      <trkpt lat="45.51931" lon="3.32357">
        <ele>436</ele>
        <time>2012-10-21T09:56:09.000Z</time>
      </trkpt>
      <trkpt lat="45.51936" lon="3.32352">
        <ele>438</ele>
        <time>2012-10-21T09:56:10.000Z</time>
      </trkpt>
      <trkpt lat="45.51941" lon="3.32346">
        <ele>439</ele>
        <time>2012-10-21T09:56:11.000Z</time>
      </trkpt>
      <trkpt lat="45.51946" lon="3.32341">
        <ele>439</ele>
        <time>2012-10-21T09:56:12.000Z</time>
      </trkpt>
      <trkpt lat="45.51951" lon="3.32335">
        <ele>438</ele>
        <time>2012-10-21T09:56:13.000Z</time>
      </trkpt>
      <trkpt lat="45.51956" lon="3.3233">
        <ele>438</ele>
        <time>2012-10-21T09:56:14.000Z</time>
      </trkpt>
      <trkpt lat="45.51961" lon="3.32324">
        <ele>438</ele>
        <time>2012-10-21T09:56:15.000Z</time>
      </trkpt>
      <trkpt lat="45.51965" lon="3.32319">
        <ele>438</ele>
        <time>2012-10-21T09:56:16.000Z</time>
      </trkpt>
      <trkpt lat="45.5197" lon="3.32314">
        <ele>437</ele>
        <time>2012-10-21T09:56:17.000Z</time>
      </trkpt>
      <trkpt lat="45.51975" lon="3.32309">
        <ele>438</ele>
        <time>2012-10-21T09:56:18.000Z</time>
      </trkpt>
      <trkpt lat="45.5198" lon="3.32304">
        <ele>437</ele>
        <time>2012-10-21T09:56:19.000Z</time>
      </trkpt>
      <trkpt lat="45.51985" lon="3.32298">
        <ele>437</ele>
        <time>2012-10-21T09:56:20.000Z</time>
      </trkpt>
      <trkpt lat="45.51991" lon="3.32293">
        <ele>438</ele>
        <time>2012-10-21T09:56:21.000Z</time>
      </trkpt>
      <trkpt lat="45.51996" lon="3.32288">
        <ele>438</ele>
        <time>2012-10-21T09:56:22.000Z</time>
      </trkpt>
      <trkpt lat="45.52002" lon="3.32283">
        <ele>438</ele>
        <time>2012-10-21T09:56:23.000Z</time>
      </trkpt>
      <trkpt lat="45.52008" lon="3.32278">
        <ele>438</ele>
        <time>2012-10-21T09:56:24.000Z</time>
      </trkpt>
      <trkpt lat="45.52013" lon="3.32273">
        <ele>437</ele>
        <time>2012-10-21T09:56:25.000Z</time>
      </trkpt>
      <trkpt lat="45.52019" lon="3.32269">
        <ele>437</ele>
        <time>2012-10-21T09:56:26.000Z</time>
      </trkpt>
      <trkpt lat="45.52025" lon="3.32264">
        <ele>437</ele>
        <time>2012-10-21T09:56:27.000Z</time>
      </trkpt>
      <trkpt lat="45.5203" lon="3.32261">
        <ele>438</ele>
        <time>2012-10-21T09:56:28.000Z</time>
      </trkpt>
      <trkpt lat="45.52036" lon="3.32258">
        <ele>437</ele>
        <time>2012-10-21T09:56:29.000Z</time>
      </trkpt>
      <trkpt lat="45.52042" lon="3.32255">
        <ele>437</ele>
        <time>2012-10-21T09:56:30.000Z</time>
      </trkpt>
      <trkpt lat="45.52048" lon="3.32252">
        <ele>437</ele>
        <time>2012-10-21T09:56:31.000Z</time>
      </trkpt>
      <trkpt lat="45.52054" lon="3.32249">
        <ele>436</ele>
        <time>2012-10-21T09:56:32.000Z</time>
      </trkpt>
      <trkpt lat="45.5206" lon="3.32247">
        <ele>437</ele>
        <time>2012-10-21T09:56:33.000Z</time>
      </trkpt>
      <trkpt lat="45.52066" lon="3.32244">
        <ele>437</ele>
        <time>2012-10-21T09:56:34.000Z</time>
      </trkpt>
      <trkpt lat="45.52072" lon="3.32241">
        <ele>437</ele>
        <time>2012-10-21T09:56:35.000Z</time>
      </trkpt>
      <trkpt lat="45.52078" lon="3.32238">
        <ele>438</ele>
        <time>2012-10-21T09:56:36.000Z</time>
      </trkpt>
      <trkpt lat="45.52084" lon="3.32236">
        <ele>437</ele>
        <time>2012-10-21T09:56:37.000Z</time>
      </trkpt>
      <trkpt lat="45.5209" lon="3.32233">
        <ele>438</ele>
        <time>2012-10-21T09:56:38.000Z</time>
      </trkpt>
      <trkpt lat="45.52096" lon="3.3223">
        <ele>436</ele>
        <time>2012-10-21T09:56:39.000Z</time>
      </trkpt>
      <trkpt lat="45.52102" lon="3.32226">
        <ele>436</ele>
        <time>2012-10-21T09:56:40.000Z</time>
      </trkpt>
      <trkpt lat="45.52107" lon="3.32221">
        <ele>437</ele>
        <time>2012-10-21T09:56:41.000Z</time>
      </trkpt>
      <trkpt lat="45.52113" lon="3.32216">
        <ele>436</ele>
        <time>2012-10-21T09:56:42.000Z</time>
      </trkpt>
      <trkpt lat="45.52118" lon="3.3221">
        <ele>435</ele>
        <time>2012-10-21T09:56:43.000Z</time>
      </trkpt>
      <trkpt lat="45.52122" lon="3.32203">
        <ele>435</ele>
        <time>2012-10-21T09:56:44.000Z</time>
      </trkpt>
      <trkpt lat="45.52126" lon="3.32196">
        <ele>435</ele>
        <time>2012-10-21T09:56:45.000Z</time>
      </trkpt>
      <trkpt lat="45.5213" lon="3.32188">
        <ele>434</ele>
        <time>2012-10-21T09:56:46.000Z</time>
      </trkpt>
      <trkpt lat="45.52133" lon="3.3218">
        <ele>435</ele>
        <time>2012-10-21T09:56:47.000Z</time>
      </trkpt>
      <trkpt lat="45.52136" lon="3.3217">
        <ele>435</ele>
        <time>2012-10-21T09:56:48.000Z</time>
      </trkpt>
      <trkpt lat="45.5214" lon="3.32161">
        <ele>435</ele>
        <time>2012-10-21T09:56:49.000Z</time>
      </trkpt>
      <trkpt lat="45.52143" lon="3.3215">
        <ele>435</ele>
        <time>2012-10-21T09:56:50.000Z</time>
      </trkpt>
      <trkpt lat="45.52147" lon="3.32141">
        <ele>436</ele>
        <time>2012-10-21T09:56:51.000Z</time>
      </trkpt>
      <trkpt lat="45.52151" lon="3.32131">
        <ele>435</ele>
        <time>2012-10-21T09:56:52.000Z</time>
      </trkpt>
      <trkpt lat="45.52154" lon="3.32121">
        <ele>435</ele>
        <time>2012-10-21T09:56:53.000Z</time>
      </trkpt>
      <trkpt lat="45.52158" lon="3.3211">
        <ele>436</ele>
        <time>2012-10-21T09:56:54.000Z</time>
      </trkpt>
      <trkpt lat="45.52161" lon="3.321">
        <ele>435</ele>
        <time>2012-10-21T09:56:55.000Z</time>
      </trkpt>
      <trkpt lat="45.52164" lon="3.3209">
        <ele>435</ele>
        <time>2012-10-21T09:56:56.000Z</time>
      </trkpt>
      <trkpt lat="45.52168" lon="3.3208">
        <ele>435</ele>
        <time>2012-10-21T09:56:57.000Z</time>
      </trkpt>
      <trkpt lat="45.52171" lon="3.3207">
        <ele>435</ele>
        <time>2012-10-21T09:56:58.000Z</time>
      </trkpt>
      <trkpt lat="45.52174" lon="3.3206">
        <ele>435</ele>
        <time>2012-10-21T09:56:59.000Z</time>
      </trkpt>
      <trkpt lat="45.52177" lon="3.32051">
        <ele>436</ele>
        <time>2012-10-21T09:57:00.000Z</time>
      </trkpt>
      <trkpt lat="45.5218" lon="3.32041">
        <ele>437</ele>
        <time>2012-10-21T09:57:01.000Z</time>
      </trkpt>
      <trkpt lat="45.52183" lon="3.32031">
        <ele>436</ele>
        <time>2012-10-21T09:57:02.000Z</time>
      </trkpt>
      <trkpt lat="45.52186" lon="3.32021">
        <ele>436</ele>
        <time>2012-10-21T09:57:03.000Z</time>
      </trkpt>
      <trkpt lat="45.52189" lon="3.32012">
        <ele>435</ele>
        <time>2012-10-21T09:57:04.000Z</time>
      </trkpt>
      <trkpt lat="45.52193" lon="3.32003">
        <ele>435</ele>
        <time>2012-10-21T09:57:05.000Z</time>
      </trkpt>
      <trkpt lat="45.52197" lon="3.31994">
        <ele>436</ele>
        <time>2012-10-21T09:57:06.000Z</time>
      </trkpt>
      <trkpt lat="45.52201" lon="3.31985">
        <ele>437</ele>
        <time>2012-10-21T09:57:07.000Z</time>
      </trkpt>
      <trkpt lat="45.52205" lon="3.31976">
        <ele>437</ele>
        <time>2012-10-21T09:57:08.000Z</time>
      </trkpt>
      <trkpt lat="45.52209" lon="3.31968">
        <ele>437</ele>
        <time>2012-10-21T09:57:09.000Z</time>
      </trkpt>
      <trkpt lat="45.52214" lon="3.31959">
        <ele>435</ele>
        <time>2012-10-21T09:57:10.000Z</time>
      </trkpt>
      <trkpt lat="45.52219" lon="3.31951">
        <ele>434</ele>
        <time>2012-10-21T09:57:11.000Z</time>
      </trkpt>
      <trkpt lat="45.52223" lon="3.31943">
        <ele>434</ele>
        <time>2012-10-21T09:57:12.000Z</time>
      </trkpt>
      <trkpt lat="45.52228" lon="3.31934">
        <ele>433</ele>
        <time>2012-10-21T09:57:13.000Z</time>
      </trkpt>
      <trkpt lat="45.52232" lon="3.31927">
        <ele>433</ele>
        <time>2012-10-21T09:57:14.000Z</time>
      </trkpt>
      <trkpt lat="45.52237" lon="3.31919">
        <ele>432</ele>
        <time>2012-10-21T09:57:15.000Z</time>
      </trkpt>
      <trkpt lat="45.52241" lon="3.31911">
        <ele>433</ele>
        <time>2012-10-21T09:57:16.000Z</time>
      </trkpt>
      <trkpt lat="45.52245" lon="3.31903">
        <ele>432</ele>
        <time>2012-10-21T09:57:17.000Z</time>
      </trkpt>
      <trkpt lat="45.5225" lon="3.31895">
        <ele>431</ele>
        <time>2012-10-21T09:57:18.000Z</time>
      </trkpt>
      <trkpt lat="45.52254" lon="3.31886">
        <ele>431</ele>
        <time>2012-10-21T09:57:19.000Z</time>
      </trkpt>
      <trkpt lat="45.52258" lon="3.31878">
        <ele>431</ele>
        <time>2012-10-21T09:57:20.000Z</time>
      </trkpt>
      <trkpt lat="45.52262" lon="3.3187">
        <ele>432</ele>
        <time>2012-10-21T09:57:21.000Z</time>
      </trkpt>
      <trkpt lat="45.52266" lon="3.31861">
        <ele>433</ele>
        <time>2012-10-21T09:57:22.000Z</time>
      </trkpt>
      <trkpt lat="45.52271" lon="3.31852">
        <ele>432</ele>
        <time>2012-10-21T09:57:23.000Z</time>
      </trkpt>
      <trkpt lat="45.52276" lon="3.31843">
        <ele>431</ele>
        <time>2012-10-21T09:57:24.000Z</time>
      </trkpt>
      <trkpt lat="45.52281" lon="3.31834">
        <ele>431</ele>
        <time>2012-10-21T09:57:25.000Z</time>
      </trkpt>
      <trkpt lat="45.52286" lon="3.31826">
        <ele>431</ele>
        <time>2012-10-21T09:57:26.000Z</time>
      </trkpt>
      <trkpt lat="45.5229" lon="3.31817">
        <ele>431</ele>
        <time>2012-10-21T09:57:27.000Z</time>
      </trkpt>
      <trkpt lat="45.52295" lon="3.31809">
        <ele>431</ele>
        <time>2012-10-21T09:57:28.000Z</time>
      </trkpt>
      <trkpt lat="45.52301" lon="3.318">
        <ele>431</ele>
        <time>2012-10-21T09:57:29.000Z</time>
      </trkpt>
      <trkpt lat="45.52306" lon="3.31791">
        <ele>431</ele>
        <time>2012-10-21T09:57:30.000Z</time>
      </trkpt>
      <trkpt lat="45.52312" lon="3.31782">
        <ele>432</ele>
        <time>2012-10-21T09:57:31.000Z</time>
      </trkpt>
      <trkpt lat="45.52317" lon="3.31774">
        <ele>431</ele>
        <time>2012-10-21T09:57:32.000Z</time>
      </trkpt>
      <trkpt lat="45.52322" lon="3.31766">
        <ele>430</ele>
        <time>2012-10-21T09:57:33.000Z</time>
      </trkpt>
      <trkpt lat="45.52328" lon="3.31757">
        <ele>430</ele>
        <time>2012-10-21T09:57:34.000Z</time>
      </trkpt>
      <trkpt lat="45.52333" lon="3.31749">
        <ele>430</ele>
        <time>2012-10-21T09:57:35.000Z</time>
      </trkpt>
      <trkpt lat="45.52339" lon="3.31741">
        <ele>430</ele>
        <time>2012-10-21T09:57:36.000Z</time>
      </trkpt>
      <trkpt lat="45.52344" lon="3.31733">
        <ele>430</ele>
        <time>2012-10-21T09:57:37.000Z</time>
      </trkpt>
      <trkpt lat="45.5235" lon="3.31725">
        <ele>430</ele>
        <time>2012-10-21T09:57:38.000Z</time>
      </trkpt>
      <trkpt lat="45.52355" lon="3.31717">
        <ele>430</ele>
        <time>2012-10-21T09:57:39.000Z</time>
      </trkpt>
      <trkpt lat="45.52361" lon="3.3171">
        <ele>430</ele>
        <time>2012-10-21T09:57:40.000Z</time>
      </trkpt>
      <trkpt lat="45.52366" lon="3.31702">
        <ele>430</ele>
        <time>2012-10-21T09:57:41.000Z</time>
      </trkpt>
      <trkpt lat="45.52372" lon="3.31695">
        <ele>430</ele>
        <time>2012-10-21T09:57:42.000Z</time>
      </trkpt>
      <trkpt lat="45.52378" lon="3.31687">
        <ele>430</ele>
        <time>2012-10-21T09:57:43.000Z</time>
      </trkpt>
      <trkpt lat="45.52384" lon="3.31682">
        <ele>429</ele>
        <time>2012-10-21T09:57:44.000Z</time>
      </trkpt>
      <trkpt lat="45.52391" lon="3.31676">
        <ele>429</ele>
        <time>2012-10-21T09:57:45.000Z</time>
      </trkpt>
      <trkpt lat="45.52405" lon="3.31666">
        <ele>429</ele>
        <time>2012-10-21T09:57:47.000Z</time>
      </trkpt>
      <trkpt lat="45.52412" lon="3.31662">
        <ele>430</ele>
        <time>2012-10-21T09:57:48.000Z</time>
      </trkpt>
      <trkpt lat="45.52419" lon="3.31658">
        <ele>430</ele>
        <time>2012-10-21T09:57:49.000Z</time>
      </trkpt>
      <trkpt lat="45.52426" lon="3.31654">
        <ele>431</ele>
        <time>2012-10-21T09:57:50.000Z</time>
      </trkpt>
      <trkpt lat="45.52433" lon="3.31651">
        <ele>431</ele>
        <time>2012-10-21T09:57:51.000Z</time>
      </trkpt>
      <trkpt lat="45.5244" lon="3.31646">
        <ele>431</ele>
        <time>2012-10-21T09:57:52.000Z</time>
      </trkpt>
      <trkpt lat="45.52446" lon="3.31642">
        <ele>430</ele>
        <time>2012-10-21T09:57:53.000Z</time>
      </trkpt>
      <trkpt lat="45.52453" lon="3.31638">
        <ele>430</ele>
        <time>2012-10-21T09:57:54.000Z</time>
      </trkpt>
      <trkpt lat="45.5246" lon="3.31633">
        <ele>430</ele>
        <time>2012-10-21T09:57:55.000Z</time>
      </trkpt>
      <trkpt lat="45.52466" lon="3.31629">
        <ele>430</ele>
        <time>2012-10-21T09:57:56.000Z</time>
      </trkpt>
      <trkpt lat="45.52472" lon="3.31624">
        <ele>431</ele>
        <time>2012-10-21T09:57:57.000Z</time>
      </trkpt>
      <trkpt lat="45.52478" lon="3.3162">
        <ele>430</ele>
        <time>2012-10-21T09:57:58.000Z</time>
      </trkpt>
      <trkpt lat="45.52484" lon="3.31615">
        <ele>431</ele>
        <time>2012-10-21T09:57:59.000Z</time>
      </trkpt>
      <trkpt lat="45.5249" lon="3.3161">
        <ele>430</ele>
        <time>2012-10-21T09:58:00.000Z</time>
      </trkpt>
      <trkpt lat="45.52496" lon="3.31606">
        <ele>430</ele>
        <time>2012-10-21T09:58:01.000Z</time>
      </trkpt>
      <trkpt lat="45.52502" lon="3.31601">
        <ele>431</ele>
        <time>2012-10-21T09:58:02.000Z</time>
      </trkpt>
      <trkpt lat="45.52507" lon="3.31596">
        <ele>431</ele>
        <time>2012-10-21T09:58:03.000Z</time>
      </trkpt>
      <trkpt lat="45.52513" lon="3.31591">
        <ele>431</ele>
        <time>2012-10-21T09:58:04.000Z</time>
      </trkpt>
      <trkpt lat="45.52519" lon="3.31586">
        <ele>431</ele>
        <time>2012-10-21T09:58:05.000Z</time>
      </trkpt>
      <trkpt lat="45.52525" lon="3.3158">
        <ele>431</ele>
        <time>2012-10-21T09:58:06.000Z</time>
      </trkpt>
      <trkpt lat="45.52531" lon="3.31575">
        <ele>431</ele>
        <time>2012-10-21T09:58:07.000Z</time>
      </trkpt>
      <trkpt lat="45.52537" lon="3.3157">
        <ele>431</ele>
        <time>2012-10-21T09:58:08.000Z</time>
      </trkpt>
      <trkpt lat="45.52543" lon="3.31564">
        <ele>432</ele>
        <time>2012-10-21T09:58:09.000Z</time>
      </trkpt>
      <trkpt lat="45.52549" lon="3.31559">
        <ele>432</ele>
        <time>2012-10-21T09:58:10.000Z</time>
      </trkpt>
      <trkpt lat="45.52554" lon="3.31554">
        <ele>432</ele>
        <time>2012-10-21T09:58:11.000Z</time>
      </trkpt>
      <trkpt lat="45.5256" lon="3.31548">
        <ele>431</ele>
        <time>2012-10-21T09:58:12.000Z</time>
      </trkpt>
      <trkpt lat="45.52565" lon="3.31542">
        <ele>431</ele>
        <time>2012-10-21T09:58:13.000Z</time>
      </trkpt>
      <trkpt lat="45.5257" lon="3.31536">
        <ele>431</ele>
        <time>2012-10-21T09:58:14.000Z</time>
      </trkpt>
      <trkpt lat="45.52576" lon="3.31529">
        <ele>431</ele>
        <time>2012-10-21T09:58:15.000Z</time>
      </trkpt>
      <trkpt lat="45.52581" lon="3.31522">
        <ele>431</ele>
        <time>2012-10-21T09:58:16.000Z</time>
      </trkpt>
      <trkpt lat="45.52585" lon="3.31514">
        <ele>431</ele>
        <time>2012-10-21T09:58:17.000Z</time>
      </trkpt>
      <trkpt lat="45.5259" lon="3.31507">
        <ele>431</ele>
        <time>2012-10-21T09:58:18.000Z</time>
      </trkpt>
      <trkpt lat="45.52595" lon="3.31499">
        <ele>432</ele>
        <time>2012-10-21T09:58:19.000Z</time>
      </trkpt>
      <trkpt lat="45.526" lon="3.31491">
        <ele>434</ele>
        <time>2012-10-21T09:58:20.000Z</time>
      </trkpt>
      <trkpt lat="45.52605" lon="3.31481">
        <ele>432</ele>
        <time>2012-10-21T09:58:21.000Z</time>
      </trkpt>
      <trkpt lat="45.5261" lon="3.31472">
        <ele>431</ele>
        <time>2012-10-21T09:58:22.000Z</time>
      </trkpt>
      <trkpt lat="45.52615" lon="3.31464">
        <ele>430</ele>
        <time>2012-10-21T09:58:23.000Z</time>
      </trkpt>
      <trkpt lat="45.52619" lon="3.31456">
        <ele>430</ele>
        <time>2012-10-21T09:58:24.000Z</time>
      </trkpt>
      <trkpt lat="45.52623" lon="3.31449">
        <ele>431</ele>
        <time>2012-10-21T09:58:25.000Z</time>
      </trkpt>
      <trkpt lat="45.52627" lon="3.31441">
        <ele>429</ele>
        <time>2012-10-21T09:58:26.000Z</time>
      </trkpt>
      <trkpt lat="45.52632" lon="3.31433">
        <ele>428</ele>
        <time>2012-10-21T09:58:27.000Z</time>
      </trkpt>
      <trkpt lat="45.52637" lon="3.31426">
        <ele>428</ele>
        <time>2012-10-21T09:58:28.000Z</time>
      </trkpt>
      <trkpt lat="45.52641" lon="3.31418">
        <ele>427</ele>
        <time>2012-10-21T09:58:29.000Z</time>
      </trkpt>
      <trkpt lat="45.52645" lon="3.3141">
        <ele>427</ele>
        <time>2012-10-21T09:58:30.000Z</time>
      </trkpt>
      <trkpt lat="45.5265" lon="3.31403">
        <ele>425</ele>
        <time>2012-10-21T09:58:31.000Z</time>
      </trkpt>
      <trkpt lat="45.52655" lon="3.31395">
        <ele>426</ele>
        <time>2012-10-21T09:58:32.000Z</time>
      </trkpt>
      <trkpt lat="45.52659" lon="3.31387">
        <ele>428</ele>
        <time>2012-10-21T09:58:33.000Z</time>
      </trkpt>
      <trkpt lat="45.52664" lon="3.3138">
        <ele>430</ele>
        <time>2012-10-21T09:58:34.000Z</time>
      </trkpt>
      <trkpt lat="45.52668" lon="3.31372">
        <ele>429</ele>
        <time>2012-10-21T09:58:35.000Z</time>
      </trkpt>
      <trkpt lat="45.52672" lon="3.31365">
        <ele>428</ele>
        <time>2012-10-21T09:58:36.000Z</time>
      </trkpt>
      <trkpt lat="45.52676" lon="3.31357">
        <ele>428</ele>
        <time>2012-10-21T09:58:37.000Z</time>
      </trkpt>
      <trkpt lat="45.5268" lon="3.31349">
        <ele>427</ele>
        <time>2012-10-21T09:58:38.000Z</time>
      </trkpt>
      <trkpt lat="45.52684" lon="3.3134">
        <ele>426</ele>
        <time>2012-10-21T09:58:39.000Z</time>
      </trkpt>
      <trkpt lat="45.52688" lon="3.31331">
        <ele>426</ele>
        <time>2012-10-21T09:58:40.000Z</time>
      </trkpt>
      <trkpt lat="45.52691" lon="3.31323">
        <ele>427</ele>
        <time>2012-10-21T09:58:41.000Z</time>
      </trkpt>
      <trkpt lat="45.52695" lon="3.31314">
        <ele>427</ele>
        <time>2012-10-21T09:58:42.000Z</time>
      </trkpt>
      <trkpt lat="45.52698" lon="3.31305">
        <ele>427</ele>
        <time>2012-10-21T09:58:43.000Z</time>
      </trkpt>
      <trkpt lat="45.527" lon="3.31297">
        <ele>429</ele>
        <time>2012-10-21T09:58:44.000Z</time>
      </trkpt>
      <trkpt lat="45.52703" lon="3.31288">
        <ele>428</ele>
        <time>2012-10-21T09:58:45.000Z</time>
      </trkpt>
      <trkpt lat="45.52706" lon="3.31279">
        <ele>429</ele>
        <time>2012-10-21T09:58:46.000Z</time>
      </trkpt>
      <trkpt lat="45.52709" lon="3.31271">
        <ele>428</ele>
        <time>2012-10-21T09:58:47.000Z</time>
      </trkpt>
      <trkpt lat="45.52712" lon="3.31262">
        <ele>428</ele>
        <time>2012-10-21T09:58:48.000Z</time>
      </trkpt>
      <trkpt lat="45.52715" lon="3.31254">
        <ele>429</ele>
        <time>2012-10-21T09:58:49.000Z</time>
      </trkpt>
      <trkpt lat="45.52718" lon="3.31246">
        <ele>429</ele>
        <time>2012-10-21T09:58:50.000Z</time>
      </trkpt>
      <trkpt lat="45.52722" lon="3.31237">
        <ele>429</ele>
        <time>2012-10-21T09:58:51.000Z</time>
      </trkpt>
      <trkpt lat="45.52725" lon="3.31228">
        <ele>428</ele>
        <time>2012-10-21T09:58:52.000Z</time>
      </trkpt>
      <trkpt lat="45.52729" lon="3.3122">
        <ele>428</ele>
        <time>2012-10-21T09:58:53.000Z</time>
      </trkpt>
      <trkpt lat="45.52733" lon="3.31212">
        <ele>429</ele>
        <time>2012-10-21T09:58:54.000Z</time>
      </trkpt>
      <trkpt lat="45.52737" lon="3.31205">
        <ele>429</ele>
        <time>2012-10-21T09:58:55.000Z</time>
      </trkpt>
      <trkpt lat="45.52742" lon="3.31197">
        <ele>429</ele>
        <time>2012-10-21T09:58:56.000Z</time>
      </trkpt>
      <trkpt lat="45.52746" lon="3.3119">
        <ele>427</ele>
        <time>2012-10-21T09:58:57.000Z</time>
      </trkpt>
      <trkpt lat="45.52751" lon="3.31183">
        <ele>428</ele>
        <time>2012-10-21T09:58:58.000Z</time>
      </trkpt>
      <trkpt lat="45.52755" lon="3.31176">
        <ele>429</ele>
        <time>2012-10-21T09:58:59.000Z</time>
      </trkpt>
      <trkpt lat="45.52761" lon="3.3117">
        <ele>428</ele>
        <time>2012-10-21T09:59:00.000Z</time>
      </trkpt>
      <trkpt lat="45.52766" lon="3.31164">
        <ele>430</ele>
        <time>2012-10-21T09:59:01.000Z</time>
      </trkpt>
      <trkpt lat="45.52771" lon="3.31158">
        <ele>431</ele>
        <time>2012-10-21T09:59:02.000Z</time>
      </trkpt>
      <trkpt lat="45.52776" lon="3.31152">
        <ele>430</ele>
        <time>2012-10-21T09:59:03.000Z</time>
      </trkpt>
      <trkpt lat="45.52782" lon="3.31149">
        <ele>430</ele>
        <time>2012-10-21T09:59:04.000Z</time>
      </trkpt>
      <trkpt lat="45.52787" lon="3.31146">
        <ele>429</ele>
        <time>2012-10-21T09:59:05.000Z</time>
      </trkpt>
      <trkpt lat="45.52794" lon="3.31142">
        <ele>431</ele>
        <time>2012-10-21T09:59:06.000Z</time>
      </trkpt>
      <trkpt lat="45.52799" lon="3.31139">
        <ele>430</ele>
        <time>2012-10-21T09:59:07.000Z</time>
      </trkpt>
      <trkpt lat="45.52806" lon="3.31137">
        <ele>430</ele>
        <time>2012-10-21T09:59:08.000Z</time>
      </trkpt>
      <trkpt lat="45.52812" lon="3.31134">
        <ele>429</ele>
        <time>2012-10-21T09:59:09.000Z</time>
      </trkpt>
      <trkpt lat="45.52819" lon="3.31131">
        <ele>428</ele>
        <time>2012-10-21T09:59:10.000Z</time>
      </trkpt>
      <trkpt lat="45.52826" lon="3.31128">
        <ele>427</ele>
        <time>2012-10-21T09:59:11.000Z</time>
      </trkpt>
      <trkpt lat="45.52833" lon="3.31125">
        <ele>427</ele>
        <time>2012-10-21T09:59:12.000Z</time>
      </trkpt>
      <trkpt lat="45.5284" lon="3.31122">
        <ele>428</ele>
        <time>2012-10-21T09:59:13.000Z</time>
      </trkpt>
      <trkpt lat="45.52846" lon="3.31118">
        <ele>428</ele>
        <time>2012-10-21T09:59:14.000Z</time>
      </trkpt>
      <trkpt lat="45.52852" lon="3.31115">
        <ele>430</ele>
        <time>2012-10-21T09:59:15.000Z</time>
      </trkpt>
      <trkpt lat="45.52858" lon="3.31111">
        <ele>431</ele>
        <time>2012-10-21T09:59:16.000Z</time>
      </trkpt>
      <trkpt lat="45.52863" lon="3.31107">
        <ele>432</ele>
        <time>2012-10-21T09:59:17.000Z</time>
      </trkpt>
      <trkpt lat="45.52869" lon="3.31104">
        <ele>429</ele>
        <time>2012-10-21T09:59:18.000Z</time>
      </trkpt>
      <trkpt lat="45.52874" lon="3.311">
        <ele>430</ele>
        <time>2012-10-21T09:59:19.000Z</time>
      </trkpt>
      <trkpt lat="45.5288" lon="3.31095">
        <ele>431</ele>
        <time>2012-10-21T09:59:20.000Z</time>
      </trkpt>
      <trkpt lat="45.52886" lon="3.31091">
        <ele>430</ele>
        <time>2012-10-21T09:59:21.000Z</time>
      </trkpt>
      <trkpt lat="45.52891" lon="3.31087">
        <ele>429</ele>
        <time>2012-10-21T09:59:22.000Z</time>
      </trkpt>
      <trkpt lat="45.52896" lon="3.31083">
        <ele>429</ele>
        <time>2012-10-21T09:59:23.000Z</time>
      </trkpt>
      <trkpt lat="45.52902" lon="3.31078">
        <ele>427</ele>
        <time>2012-10-21T09:59:24.000Z</time>
      </trkpt>
      <trkpt lat="45.52906" lon="3.31071">
        <ele>427</ele>
        <time>2012-10-21T09:59:25.000Z</time>
      </trkpt>
      <trkpt lat="45.52909" lon="3.31065">
        <ele>427</ele>
        <time>2012-10-21T09:59:26.000Z</time>
      </trkpt>
      <trkpt lat="45.52912" lon="3.31056">
        <ele>428</ele>
        <time>2012-10-21T09:59:27.000Z</time>
      </trkpt>
      <trkpt lat="45.52914" lon="3.31048">
        <ele>428</ele>
        <time>2012-10-21T09:59:28.000Z</time>
      </trkpt>
      <trkpt lat="45.52916" lon="3.3104">
        <ele>427</ele>
        <time>2012-10-21T09:59:29.000Z</time>
      </trkpt>
      <trkpt lat="45.52917" lon="3.31032">
        <ele>428</ele>
        <time>2012-10-21T09:59:30.000Z</time>
      </trkpt>
      <trkpt lat="45.52918" lon="3.31024">
        <ele>429</ele>
        <time>2012-10-21T09:59:31.000Z</time>
      </trkpt>
      <trkpt lat="45.5292" lon="3.31015">
        <ele>427</ele>
        <time>2012-10-21T09:59:32.000Z</time>
      </trkpt>
      <trkpt lat="45.52921" lon="3.31006">
        <ele>428</ele>
        <time>2012-10-21T09:59:33.000Z</time>
      </trkpt>
      <trkpt lat="45.52923" lon="3.30996">
        <ele>428</ele>
        <time>2012-10-21T09:59:34.000Z</time>
      </trkpt>
      <trkpt lat="45.52926" lon="3.30987">
        <ele>430</ele>
        <time>2012-10-21T09:59:35.000Z</time>
      </trkpt>
      <trkpt lat="45.5293" lon="3.30978">
        <ele>434</ele>
        <time>2012-10-21T09:59:36.000Z</time>
      </trkpt>
      <trkpt lat="45.52933" lon="3.3097">
        <ele>434</ele>
        <time>2012-10-21T09:59:37.000Z</time>
      </trkpt>
      <trkpt lat="45.52938" lon="3.30964">
        <ele>432</ele>
        <time>2012-10-21T09:59:38.000Z</time>
      </trkpt>
      <trkpt lat="45.52943" lon="3.30958">
        <ele>428</ele>
        <time>2012-10-21T09:59:39.000Z</time>
      </trkpt>
      <trkpt lat="45.52949" lon="3.30953">
        <ele>428</ele>
        <time>2012-10-21T09:59:40.000Z</time>
      </trkpt>
      <trkpt lat="45.52954" lon="3.30948">
        <ele>429</ele>
        <time>2012-10-21T09:59:41.000Z</time>
      </trkpt>
      <trkpt lat="45.5296" lon="3.30943">
        <ele>426</ele>
        <time>2012-10-21T09:59:42.000Z</time>
      </trkpt>
      <trkpt lat="45.52965" lon="3.30938">
        <ele>424</ele>
        <time>2012-10-21T09:59:43.000Z</time>
      </trkpt>
      <trkpt lat="45.5297" lon="3.30933">
        <ele>425</ele>
        <time>2012-10-21T09:59:44.000Z</time>
      </trkpt>
      <trkpt lat="45.52976" lon="3.30928">
        <ele>424</ele>
        <time>2012-10-21T09:59:45.000Z</time>
      </trkpt>
      <trkpt lat="45.52987" lon="3.30917">
        <ele>426</ele>
        <time>2012-10-21T09:59:47.000Z</time>
      </trkpt>
      <trkpt lat="45.52992" lon="3.30912">
        <ele>427</ele>
        <time>2012-10-21T09:59:48.000Z</time>
      </trkpt>
      <trkpt lat="45.52998" lon="3.30907">
        <ele>428</ele>
        <time>2012-10-21T09:59:49.000Z</time>
      </trkpt>
      <trkpt lat="45.53003" lon="3.30902">
        <ele>427</ele>
        <time>2012-10-21T09:59:50.000Z</time>
      </trkpt>
      <trkpt lat="45.53009" lon="3.30897">
        <ele>429</ele>
        <time>2012-10-21T09:59:51.000Z</time>
      </trkpt>
      <trkpt lat="45.53014" lon="3.30893">
        <ele>430</ele>
        <time>2012-10-21T09:59:52.000Z</time>
      </trkpt>
      <trkpt lat="45.5302" lon="3.30888">
        <ele>429</ele>
        <time>2012-10-21T09:59:53.000Z</time>
      </trkpt>
      <trkpt lat="45.53025" lon="3.30883">
        <ele>431</ele>
        <time>2012-10-21T09:59:54.000Z</time>
      </trkpt>
      <trkpt lat="45.53031" lon="3.30877">
        <ele>429</ele>
        <time>2012-10-21T09:59:55.000Z</time>
      </trkpt>
      <trkpt lat="45.53037" lon="3.30871">
        <ele>429</ele>
        <time>2012-10-21T09:59:56.000Z</time>
      </trkpt>
      <trkpt lat="45.53043" lon="3.30865">
        <ele>428</ele>
        <time>2012-10-21T09:59:57.000Z</time>
      </trkpt>
      <trkpt lat="45.53048" lon="3.30859">
        <ele>430</ele>
        <time>2012-10-21T09:59:58.000Z</time>
      </trkpt>
      <trkpt lat="45.53054" lon="3.30854">
        <ele>431</ele>
        <time>2012-10-21T09:59:59.000Z</time>
      </trkpt>
      <trkpt lat="45.5306" lon="3.30848">
        <ele>428</ele>
        <time>2012-10-21T10:00:00.000Z</time>
      </trkpt>
      <trkpt lat="45.53066" lon="3.30841">
        <ele>427</ele>
        <time>2012-10-21T10:00:01.000Z</time>
      </trkpt>
      <trkpt lat="45.53072" lon="3.30835">
        <ele>429</ele>
        <time>2012-10-21T10:00:02.000Z</time>
      </trkpt>
      <trkpt lat="45.53078" lon="3.30829">
        <ele>430</ele>
        <time>2012-10-21T10:00:03.000Z</time>
      </trkpt>
      <trkpt lat="45.53084" lon="3.30822">
        <ele>430</ele>
        <time>2012-10-21T10:00:04.000Z</time>
      </trkpt>
      <trkpt lat="45.5309" lon="3.30817">
        <ele>430</ele>
        <time>2012-10-21T10:00:05.000Z</time>
      </trkpt>
      <trkpt lat="45.53096" lon="3.30811">
        <ele>434</ele>
        <time>2012-10-21T10:00:06.000Z</time>
      </trkpt>
      <trkpt lat="45.53101" lon="3.30805">
        <ele>434</ele>
        <time>2012-10-21T10:00:07.000Z</time>
      </trkpt>
      <trkpt lat="45.53107" lon="3.308">
        <ele>434</ele>
        <time>2012-10-21T10:00:08.000Z</time>
      </trkpt>
      <trkpt lat="45.53112" lon="3.30795">
        <ele>434</ele>
        <time>2012-10-21T10:00:09.000Z</time>
      </trkpt>
      <trkpt lat="45.53118" lon="3.3079">
        <ele>434</ele>
        <time>2012-10-21T10:00:10.000Z</time>
      </trkpt>
      <trkpt lat="45.53123" lon="3.30784">
        <ele>435</ele>
        <time>2012-10-21T10:00:11.000Z</time>
      </trkpt>
      <trkpt lat="45.53129" lon="3.30779">
        <ele>436</ele>
        <time>2012-10-21T10:00:12.000Z</time>
      </trkpt>
      <trkpt lat="45.53133" lon="3.30774">
        <ele>440</ele>
        <time>2012-10-21T10:00:13.000Z</time>
      </trkpt>
      <trkpt lat="45.53137" lon="3.30769">
        <ele>438</ele>
        <time>2012-10-21T10:00:14.000Z</time>
      </trkpt>
      <trkpt lat="45.5314" lon="3.30762">
        <ele>439</ele>
        <time>2012-10-21T10:00:15.000Z</time>
      </trkpt>
      <trkpt lat="45.53143" lon="3.30754">
        <ele>440</ele>
        <time>2012-10-21T10:00:16.000Z</time>
      </trkpt>
      <trkpt lat="45.53146" lon="3.30747">
        <ele>442</ele>
        <time>2012-10-21T10:00:17.000Z</time>
      </trkpt>
      <trkpt lat="45.53148" lon="3.30739">
        <ele>438</ele>
        <time>2012-10-21T10:00:18.000Z</time>
      </trkpt>
      <trkpt lat="45.5315" lon="3.30731">
        <ele>435</ele>
        <time>2012-10-21T10:00:19.000Z</time>
      </trkpt>
      <trkpt lat="45.53151" lon="3.3072">
        <ele>436</ele>
        <time>2012-10-21T10:00:20.000Z</time>
      </trkpt>
      <trkpt lat="45.53151" lon="3.3071">
        <ele>440</ele>
        <time>2012-10-21T10:00:21.000Z</time>
      </trkpt>
      <trkpt lat="45.53151" lon="3.307">
        <ele>439</ele>
        <time>2012-10-21T10:00:22.000Z</time>
      </trkpt>
      <trkpt lat="45.53151" lon="3.3069">
        <ele>440</ele>
        <time>2012-10-21T10:00:23.000Z</time>
      </trkpt>
      <trkpt lat="45.5315" lon="3.30679">
        <ele>438</ele>
        <time>2012-10-21T10:00:24.000Z</time>
      </trkpt>
      <trkpt lat="45.5315" lon="3.3067">
        <ele>437</ele>
        <time>2012-10-21T10:00:25.000Z</time>
      </trkpt>
      <trkpt lat="45.53149" lon="3.30661">
        <ele>438</ele>
        <time>2012-10-21T10:00:26.000Z</time>
      </trkpt>
      <trkpt lat="45.53149" lon="3.30651">
        <ele>434</ele>
        <time>2012-10-21T10:00:27.000Z</time>
      </trkpt>
      <trkpt lat="45.53148" lon="3.30641">
        <ele>435</ele>
        <time>2012-10-21T10:00:28.000Z</time>
      </trkpt>
      <trkpt lat="45.53148" lon="3.30631">
        <ele>429</ele>
        <time>2012-10-21T10:00:29.000Z</time>
      </trkpt>
      <trkpt lat="45.53147" lon="3.3062">
        <ele>430</ele>
        <time>2012-10-21T10:00:30.000Z</time>
      </trkpt>
      <trkpt lat="45.53146" lon="3.30609">
        <ele>430</ele>
        <time>2012-10-21T10:00:31.000Z</time>
      </trkpt>
      <trkpt lat="45.53146" lon="3.30599">
        <ele>430</ele>
        <time>2012-10-21T10:00:32.000Z</time>
      </trkpt>
      <trkpt lat="45.53146" lon="3.30589">
        <ele>427</ele>
        <time>2012-10-21T10:00:33.000Z</time>
      </trkpt>
      <trkpt lat="45.53146" lon="3.30579">
        <ele>427</ele>
        <time>2012-10-21T10:00:34.000Z</time>
      </trkpt>
      <trkpt lat="45.53145" lon="3.30569">
        <ele>425</ele>
        <time>2012-10-21T10:00:35.000Z</time>
      </trkpt>
      <trkpt lat="45.53145" lon="3.30561">
        <ele>425</ele>
        <time>2012-10-21T10:00:36.000Z</time>
      </trkpt>
      <trkpt lat="45.53144" lon="3.30551">
        <ele>426</ele>
        <time>2012-10-21T10:00:37.000Z</time>
      </trkpt>
      <trkpt lat="45.53143" lon="3.30541">
        <ele>426</ele>
        <time>2012-10-21T10:00:38.000Z</time>
      </trkpt>
      <trkpt lat="45.53142" lon="3.30531">
        <ele>425</ele>
        <time>2012-10-21T10:00:39.000Z</time>
      </trkpt>
      <trkpt lat="45.5314" lon="3.3052">
        <ele>425</ele>
        <time>2012-10-21T10:00:40.000Z</time>
      </trkpt>
      <trkpt lat="45.53139" lon="3.3051">
        <ele>425</ele>
        <time>2012-10-21T10:00:41.000Z</time>
      </trkpt>
      <trkpt lat="45.53138" lon="3.305">
        <ele>425</ele>
        <time>2012-10-21T10:00:42.000Z</time>
      </trkpt>
      <trkpt lat="45.53138" lon="3.30489">
        <ele>425</ele>
        <time>2012-10-21T10:00:43.000Z</time>
      </trkpt>
      <trkpt lat="45.5314" lon="3.3048">
        <ele>424</ele>
        <time>2012-10-21T10:00:44.000Z</time>
      </trkpt>
      <trkpt lat="45.53145" lon="3.30472">
        <ele>421</ele>
        <time>2012-10-21T10:00:45.000Z</time>
      </trkpt>
      <trkpt lat="45.53157" lon="3.30463">
        <ele>426</ele>
        <time>2012-10-21T10:00:47.000Z</time>
      </trkpt>
      <trkpt lat="45.53163" lon="3.30459">
        <ele>426</ele>
        <time>2012-10-21T10:00:48.000Z</time>
      </trkpt>
      <trkpt lat="45.53169" lon="3.30456">
        <ele>428</ele>
        <time>2012-10-21T10:00:49.000Z</time>
      </trkpt>
      <trkpt lat="45.53176" lon="3.30453">
        <ele>428</ele>
        <time>2012-10-21T10:00:50.000Z</time>
      </trkpt>
      <trkpt lat="45.53183" lon="3.30451">
        <ele>428</ele>
        <time>2012-10-21T10:00:51.000Z</time>
      </trkpt>
      <trkpt lat="45.53191" lon="3.30448">
        <ele>427</ele>
        <time>2012-10-21T10:00:52.000Z</time>
      </trkpt>
      <trkpt lat="45.53198" lon="3.30446">
        <ele>427</ele>
        <time>2012-10-21T10:00:53.000Z</time>
      </trkpt>
      <trkpt lat="45.53205" lon="3.30443">
        <ele>429</ele>
        <time>2012-10-21T10:00:54.000Z</time>
      </trkpt>
      <trkpt lat="45.53213" lon="3.3044">
        <ele>429</ele>
        <time>2012-10-21T10:00:55.000Z</time>
      </trkpt>
      <trkpt lat="45.53221" lon="3.30437">
        <ele>430</ele>
        <time>2012-10-21T10:00:56.000Z</time>
      </trkpt>
      <trkpt lat="45.53228" lon="3.30435">
        <ele>429</ele>
        <time>2012-10-21T10:00:57.000Z</time>
      </trkpt>
      <trkpt lat="45.53236" lon="3.30433">
        <ele>429</ele>
        <time>2012-10-21T10:00:58.000Z</time>
      </trkpt>
      <trkpt lat="45.53243" lon="3.3043">
        <ele>428</ele>
        <time>2012-10-21T10:00:59.000Z</time>
      </trkpt>
      <trkpt lat="45.5325" lon="3.30428">
        <ele>427</ele>
        <time>2012-10-21T10:01:00.000Z</time>
      </trkpt>
      <trkpt lat="45.53257" lon="3.30425">
        <ele>427</ele>
        <time>2012-10-21T10:01:01.000Z</time>
      </trkpt>
      <trkpt lat="45.53264" lon="3.30423">
        <ele>427</ele>
        <time>2012-10-21T10:01:02.000Z</time>
      </trkpt>
      <trkpt lat="45.53271" lon="3.3042">
        <ele>428</ele>
        <time>2012-10-21T10:01:03.000Z</time>
      </trkpt>
      <trkpt lat="45.53278" lon="3.30417">
        <ele>428</ele>
        <time>2012-10-21T10:01:04.000Z</time>
      </trkpt>
      <trkpt lat="45.53286" lon="3.30413">
        <ele>429</ele>
        <time>2012-10-21T10:01:05.000Z</time>
      </trkpt>
      <trkpt lat="45.53293" lon="3.30408">
        <ele>427</ele>
        <time>2012-10-21T10:01:06.000Z</time>
      </trkpt>
      <trkpt lat="45.53299" lon="3.30401">
        <ele>428</ele>
        <time>2012-10-21T10:01:07.000Z</time>
      </trkpt>
      <trkpt lat="45.53305" lon="3.30392">
        <ele>429</ele>
        <time>2012-10-21T10:01:08.000Z</time>
      </trkpt>
      <trkpt lat="45.5331" lon="3.30384">
        <ele>429</ele>
        <time>2012-10-21T10:01:09.000Z</time>
      </trkpt>
      <trkpt lat="45.53314" lon="3.30373">
        <ele>429</ele>
        <time>2012-10-21T10:01:10.000Z</time>
      </trkpt>
      <trkpt lat="45.53318" lon="3.30362">
        <ele>428</ele>
        <time>2012-10-21T10:01:11.000Z</time>
      </trkpt>
      <trkpt lat="45.53321" lon="3.30352">
        <ele>427</ele>
        <time>2012-10-21T10:01:12.000Z</time>
      </trkpt>
      <trkpt lat="45.53324" lon="3.30341">
        <ele>427</ele>
        <time>2012-10-21T10:01:13.000Z</time>
      </trkpt>
      <trkpt lat="45.53327" lon="3.30331">
        <ele>426</ele>
        <time>2012-10-21T10:01:14.000Z</time>
      </trkpt>
      <trkpt lat="45.5333" lon="3.30322">
        <ele>427</ele>
        <time>2012-10-21T10:01:15.000Z</time>
      </trkpt>
      <trkpt lat="45.53333" lon="3.30311">
        <ele>428</ele>
        <time>2012-10-21T10:01:16.000Z</time>
      </trkpt>
      <trkpt lat="45.53336" lon="3.30301">
        <ele>427</ele>
        <time>2012-10-21T10:01:17.000Z</time>
      </trkpt>
      <trkpt lat="45.53339" lon="3.3029">
        <ele>427</ele>
        <time>2012-10-21T10:01:18.000Z</time>
      </trkpt>
      <trkpt lat="45.53341" lon="3.3028">
        <ele>429</ele>
        <time>2012-10-21T10:01:19.000Z</time>
      </trkpt>
      <trkpt lat="45.53344" lon="3.3027">
        <ele>430</ele>
        <time>2012-10-21T10:01:20.000Z</time>
      </trkpt>
      <trkpt lat="45.53346" lon="3.30259">
        <ele>429</ele>
        <time>2012-10-21T10:01:21.000Z</time>
      </trkpt>
      <trkpt lat="45.53349" lon="3.30249">
        <ele>429</ele>
        <time>2012-10-21T10:01:22.000Z</time>
      </trkpt>
      <trkpt lat="45.53351" lon="3.30238">
        <ele>428</ele>
        <time>2012-10-21T10:01:23.000Z</time>
      </trkpt>
      <trkpt lat="45.53354" lon="3.30227">
        <ele>428</ele>
        <time>2012-10-21T10:01:24.000Z</time>
      </trkpt>
      <trkpt lat="45.53357" lon="3.30217">
        <ele>427</ele>
        <time>2012-10-21T10:01:25.000Z</time>
      </trkpt>
      <trkpt lat="45.53359" lon="3.30207">
        <ele>427</ele>
        <time>2012-10-21T10:01:26.000Z</time>
      </trkpt>
      <trkpt lat="45.53362" lon="3.30197">
        <ele>427</ele>
        <time>2012-10-21T10:01:27.000Z</time>
      </trkpt>
      <trkpt lat="45.53364" lon="3.30186">
        <ele>427</ele>
        <time>2012-10-21T10:01:28.000Z</time>
      </trkpt>
      <trkpt lat="45.53366" lon="3.30176">
        <ele>427</ele>
        <time>2012-10-21T10:01:29.000Z</time>
      </trkpt>
      <trkpt lat="45.53368" lon="3.30166">
        <ele>426</ele>
        <time>2012-10-21T10:01:30.000Z</time>
      </trkpt>
      <trkpt lat="45.5337" lon="3.30155">
        <ele>426</ele>
        <time>2012-10-21T10:01:31.000Z</time>
      </trkpt>
      <trkpt lat="45.53371" lon="3.30145">
        <ele>426</ele>
        <time>2012-10-21T10:01:32.000Z</time>
      </trkpt>
      <trkpt lat="45.53372" lon="3.30135">
        <ele>426</ele>
        <time>2012-10-21T10:01:33.000Z</time>
      </trkpt>
      <trkpt lat="45.53373" lon="3.30125">
        <ele>426</ele>
        <time>2012-10-21T10:01:34.000Z</time>
      </trkpt>
      <trkpt lat="45.53375" lon="3.30115">
        <ele>426</ele>
        <time>2012-10-21T10:01:35.000Z</time>
      </trkpt>
      <trkpt lat="45.53376" lon="3.30105">
        <ele>427</ele>
        <time>2012-10-21T10:01:36.000Z</time>
      </trkpt>
      <trkpt lat="45.53377" lon="3.30095">
        <ele>428</ele>
        <time>2012-10-21T10:01:37.000Z</time>
      </trkpt>
      <trkpt lat="45.53378" lon="3.30085">
        <ele>428</ele>
        <time>2012-10-21T10:01:38.000Z</time>
      </trkpt>
      <trkpt lat="45.5338" lon="3.30075">
        <ele>428</ele>
        <time>2012-10-21T10:01:39.000Z</time>
      </trkpt>
      <trkpt lat="45.53381" lon="3.30065">
        <ele>428</ele>
        <time>2012-10-21T10:01:40.000Z</time>
      </trkpt>
      <trkpt lat="45.53382" lon="3.30055">
        <ele>427</ele>
        <time>2012-10-21T10:01:41.000Z</time>
      </trkpt>
      <trkpt lat="45.53384" lon="3.30045">
        <ele>427</ele>
        <time>2012-10-21T10:01:42.000Z</time>
      </trkpt>
      <trkpt lat="45.53386" lon="3.30036">
        <ele>427</ele>
        <time>2012-10-21T10:01:43.000Z</time>
      </trkpt>
      <trkpt lat="45.53388" lon="3.30026">
        <ele>427</ele>
        <time>2012-10-21T10:01:44.000Z</time>
      </trkpt>
      <trkpt lat="45.5339" lon="3.30017">
        <ele>426</ele>
        <time>2012-10-21T10:01:45.000Z</time>
      </trkpt>
      <trkpt lat="45.53394" lon="3.29997">
        <ele>425</ele>
        <time>2012-10-21T10:01:47.000Z</time>
      </trkpt>
      <trkpt lat="45.53397" lon="3.29988">
        <ele>426</ele>
        <time>2012-10-21T10:01:48.000Z</time>
      </trkpt>
      <trkpt lat="45.53399" lon="3.29978">
        <ele>425</ele>
        <time>2012-10-21T10:01:49.000Z</time>
      </trkpt>
      <trkpt lat="45.53401" lon="3.29969">
        <ele>426</ele>
        <time>2012-10-21T10:01:50.000Z</time>
      </trkpt>
      <trkpt lat="45.53403" lon="3.2996">
        <ele>426</ele>
        <time>2012-10-21T10:01:51.000Z</time>
      </trkpt>
      <trkpt lat="45.53405" lon="3.2995">
        <ele>425</ele>
        <time>2012-10-21T10:01:52.000Z</time>
      </trkpt>
      <trkpt lat="45.53408" lon="3.2994">
        <ele>425</ele>
        <time>2012-10-21T10:01:53.000Z</time>
      </trkpt>
      <trkpt lat="45.5341" lon="3.2993">
        <ele>425</ele>
        <time>2012-10-21T10:01:54.000Z</time>
      </trkpt>
      <trkpt lat="45.53413" lon="3.29921">
        <ele>425</ele>
        <time>2012-10-21T10:01:55.000Z</time>
      </trkpt>
      <trkpt lat="45.53416" lon="3.2991">
        <ele>426</ele>
        <time>2012-10-21T10:01:56.000Z</time>
      </trkpt>
      <trkpt lat="45.53418" lon="3.29901">
        <ele>426</ele>
        <time>2012-10-21T10:01:57.000Z</time>
      </trkpt>
      <trkpt lat="45.53421" lon="3.29891">
        <ele>426</ele>
        <time>2012-10-21T10:01:58.000Z</time>
      </trkpt>
      <trkpt lat="45.53424" lon="3.29881">
        <ele>426</ele>
        <time>2012-10-21T10:01:59.000Z</time>
      </trkpt>
      <trkpt lat="45.53427" lon="3.29871">
        <ele>426</ele>
        <time>2012-10-21T10:02:00.000Z</time>
      </trkpt>
      <trkpt lat="45.5343" lon="3.29862">
        <ele>426</ele>
        <time>2012-10-21T10:02:01.000Z</time>
      </trkpt>
      <trkpt lat="45.53433" lon="3.29853">
        <ele>425</ele>
        <time>2012-10-21T10:02:02.000Z</time>
      </trkpt>
      <trkpt lat="45.53436" lon="3.29844">
        <ele>424</ele>
        <time>2012-10-21T10:02:03.000Z</time>
      </trkpt>
      <trkpt lat="45.5344" lon="3.29836">
        <ele>424</ele>
        <time>2012-10-21T10:02:04.000Z</time>
      </trkpt>
      <trkpt lat="45.53444" lon="3.29827">
        <ele>424</ele>
        <time>2012-10-21T10:02:05.000Z</time>
      </trkpt>
      <trkpt lat="45.53448" lon="3.29819">
        <ele>425</ele>
        <time>2012-10-21T10:02:06.000Z</time>
      </trkpt>
      <trkpt lat="45.53452" lon="3.29811">
        <ele>425</ele>
        <time>2012-10-21T10:02:07.000Z</time>
      </trkpt>
    </trkseg>
  </trk>
</gpx>